<?xml version="1.0" encoding="UTF-8" standalone="no" ?>
<gpx xmlns="http://www.topografix.com/GPX/1/1" xmlns:xsi="http://www.w3.org/2001/XMLSchema-instance" xsi:schemaLocation="http://www.topografix.com/GPX/1/1 http://www.topografix.com/GPX/1/1/gpx.xsd" version="1.1" creator="VisuGPX - https://www.visugpx.com">
  <metadata>
    <name>Rando Sainte Paule 17km 600d+ octobre 2022</name>
  </metadata>
  <trk>
    <name><![CDATA[Très belle rando à Ste Paule..🌞]]></name>
    <trkseg>
      <trkpt lat="45.96115" lon="4.56532">
        <ele>507.7</ele>
        <time>1970-01-01T00:01:21.000Z</time>
      </trkpt>
      <trkpt lat="45.96116" lon="4.56532">
        <ele>507.7</ele>
        <time>1970-01-01T00:01:22.000Z</time>
      </trkpt>
      <trkpt lat="45.96117" lon="4.56532">
        <ele>507.7</ele>
        <time>1970-01-01T00:01:23.000Z</time>
      </trkpt>
      <trkpt lat="45.96117" lon="4.56532">
        <ele>507.7</ele>
        <time>1970-01-01T00:01:24.000Z</time>
      </trkpt>
      <trkpt lat="45.96118" lon="4.56531">
        <ele>507.8</ele>
        <time>1970-01-01T00:01:25.000Z</time>
      </trkpt>
      <trkpt lat="45.96119" lon="4.5653">
        <ele>507.8</ele>
        <time>1970-01-01T00:01:26.000Z</time>
      </trkpt>
      <trkpt lat="45.96119" lon="4.56529">
        <ele>507.8</ele>
        <time>1970-01-01T00:01:27.000Z</time>
      </trkpt>
      <trkpt lat="45.9612" lon="4.56529">
        <ele>507.9</ele>
        <time>1970-01-01T00:01:28.000Z</time>
      </trkpt>
      <trkpt lat="45.96121" lon="4.56528">
        <ele>507.9</ele>
        <time>1970-01-01T00:01:29.000Z</time>
      </trkpt>
      <trkpt lat="45.96121" lon="4.56527">
        <ele>508</ele>
        <time>1970-01-01T00:01:30.000Z</time>
      </trkpt>
      <trkpt lat="45.96122" lon="4.56526">
        <ele>508</ele>
        <time>1970-01-01T00:01:31.000Z</time>
      </trkpt>
      <trkpt lat="45.96122" lon="4.56525">
        <ele>508</ele>
        <time>1970-01-01T00:01:32.000Z</time>
      </trkpt>
      <trkpt lat="45.96123" lon="4.56525">
        <ele>508.1</ele>
        <time>1970-01-01T00:01:33.000Z</time>
      </trkpt>
      <trkpt lat="45.96124" lon="4.56524">
        <ele>508.1</ele>
        <time>1970-01-01T00:01:34.000Z</time>
      </trkpt>
      <trkpt lat="45.96124" lon="4.56523">
        <ele>508.1</ele>
        <time>1970-01-01T00:01:35.000Z</time>
      </trkpt>
      <trkpt lat="45.96125" lon="4.56522">
        <ele>508.2</ele>
        <time>1970-01-01T00:01:36.000Z</time>
      </trkpt>
      <trkpt lat="45.96127" lon="4.56522">
        <ele>508.4</ele>
        <time>1970-01-01T00:01:37.000Z</time>
      </trkpt>
      <trkpt lat="45.9613" lon="4.56522">
        <ele>508.5</ele>
        <time>1970-01-01T00:01:38.000Z</time>
      </trkpt>
      <trkpt lat="45.96132" lon="4.56522">
        <ele>508.7</ele>
        <time>1970-01-01T00:01:39.000Z</time>
      </trkpt>
      <trkpt lat="45.96134" lon="4.56522">
        <ele>508.9</ele>
        <time>1970-01-01T00:01:40.000Z</time>
      </trkpt>
      <trkpt lat="45.96136" lon="4.56522">
        <ele>509</ele>
        <time>1970-01-01T00:01:41.000Z</time>
      </trkpt>
      <trkpt lat="45.96137" lon="4.56521">
        <ele>509.2</ele>
        <time>1970-01-01T00:01:42.000Z</time>
      </trkpt>
      <trkpt lat="45.96139" lon="4.56521">
        <ele>509.3</ele>
        <time>1970-01-01T00:01:43.000Z</time>
      </trkpt>
      <trkpt lat="45.9614" lon="4.5652">
        <ele>509.4</ele>
        <time>1970-01-01T00:01:44.000Z</time>
      </trkpt>
      <trkpt lat="45.96141" lon="4.5652">
        <ele>509.5</ele>
        <time>1970-01-01T00:01:45.000Z</time>
      </trkpt>
      <trkpt lat="45.96143" lon="4.56519">
        <ele>509.7</ele>
        <time>1970-01-01T00:01:46.000Z</time>
      </trkpt>
      <trkpt lat="45.96144" lon="4.56518">
        <ele>509.8</ele>
        <time>1970-01-01T00:01:47.000Z</time>
      </trkpt>
      <trkpt lat="45.96145" lon="4.56518">
        <ele>509.9</ele>
        <time>1970-01-01T00:01:48.000Z</time>
      </trkpt>
      <trkpt lat="45.96146" lon="4.56517">
        <ele>510</ele>
        <time>1970-01-01T00:01:49.000Z</time>
      </trkpt>
      <trkpt lat="45.96147" lon="4.56517">
        <ele>510.1</ele>
        <time>1970-01-01T00:01:50.000Z</time>
      </trkpt>
      <trkpt lat="45.96147" lon="4.56516">
        <ele>510.1</ele>
        <time>1970-01-01T00:01:51.000Z</time>
      </trkpt>
      <trkpt lat="45.96148" lon="4.56515">
        <ele>510.2</ele>
        <time>1970-01-01T00:01:52.000Z</time>
      </trkpt>
      <trkpt lat="45.96149" lon="4.56515">
        <ele>510.3</ele>
        <time>1970-01-01T00:01:53.000Z</time>
      </trkpt>
      <trkpt lat="45.9615" lon="4.56514">
        <ele>510.4</ele>
        <time>1970-01-01T00:01:54.000Z</time>
      </trkpt>
      <trkpt lat="45.96151" lon="4.56513">
        <ele>510.5</ele>
        <time>1970-01-01T00:01:55.000Z</time>
      </trkpt>
      <trkpt lat="45.96152" lon="4.56513">
        <ele>510.6</ele>
        <time>1970-01-01T00:01:56.000Z</time>
      </trkpt>
      <trkpt lat="45.96153" lon="4.56513">
        <ele>510.7</ele>
        <time>1970-01-01T00:01:57.000Z</time>
      </trkpt>
      <trkpt lat="45.96154" lon="4.56513">
        <ele>510.8</ele>
        <time>1970-01-01T00:01:58.000Z</time>
      </trkpt>
      <trkpt lat="45.96155" lon="4.56513">
        <ele>510.9</ele>
        <time>1970-01-01T00:01:59.000Z</time>
      </trkpt>
      <trkpt lat="45.96156" lon="4.56513">
        <ele>511</ele>
        <time>1970-01-01T00:02:00.000Z</time>
      </trkpt>
      <trkpt lat="45.96157" lon="4.56513">
        <ele>511.1</ele>
        <time>1970-01-01T00:02:01.000Z</time>
      </trkpt>
      <trkpt lat="45.96158" lon="4.56513">
        <ele>511.2</ele>
        <time>1970-01-01T00:02:02.000Z</time>
      </trkpt>
      <trkpt lat="45.96159" lon="4.56513">
        <ele>511.3</ele>
        <time>1970-01-01T00:02:03.000Z</time>
      </trkpt>
      <trkpt lat="45.9616" lon="4.56513">
        <ele>511.4</ele>
        <time>1970-01-01T00:02:04.000Z</time>
      </trkpt>
      <trkpt lat="45.96161" lon="4.56512">
        <ele>511.5</ele>
        <time>1970-01-01T00:02:05.000Z</time>
      </trkpt>
      <trkpt lat="45.96161" lon="4.56512">
        <ele>511.5</ele>
        <time>1970-01-01T00:02:06.000Z</time>
      </trkpt>
      <trkpt lat="45.96162" lon="4.56512">
        <ele>511.6</ele>
        <time>1970-01-01T00:02:07.000Z</time>
      </trkpt>
      <trkpt lat="45.96162" lon="4.56512">
        <ele>511.6</ele>
        <time>1970-01-01T00:02:08.000Z</time>
      </trkpt>
      <trkpt lat="45.96163" lon="4.56511">
        <ele>511.7</ele>
        <time>1970-01-01T00:02:09.000Z</time>
      </trkpt>
      <trkpt lat="45.96163" lon="4.56511">
        <ele>511.7</ele>
        <time>1970-01-01T00:02:10.000Z</time>
      </trkpt>
      <trkpt lat="45.96163" lon="4.56511">
        <ele>511.7</ele>
        <time>1970-01-01T00:02:11.000Z</time>
      </trkpt>
      <trkpt lat="45.96164" lon="4.5651">
        <ele>511.8</ele>
        <time>1970-01-01T00:02:12.000Z</time>
      </trkpt>
      <trkpt lat="45.96164" lon="4.5651">
        <ele>511.8</ele>
        <time>1970-01-01T00:02:13.000Z</time>
      </trkpt>
      <trkpt lat="45.96164" lon="4.5651">
        <ele>511.9</ele>
        <time>1970-01-01T00:02:14.000Z</time>
      </trkpt>
      <trkpt lat="45.96165" lon="4.56509">
        <ele>511.9</ele>
        <time>1970-01-01T00:02:15.000Z</time>
      </trkpt>
      <trkpt lat="45.96165" lon="4.56509">
        <ele>512</ele>
        <time>1970-01-01T00:02:16.000Z</time>
      </trkpt>
      <trkpt lat="45.96166" lon="4.56509">
        <ele>512</ele>
        <time>1970-01-01T00:02:17.000Z</time>
      </trkpt>
      <trkpt lat="45.96166" lon="4.56509">
        <ele>512.1</ele>
        <time>1970-01-01T00:02:18.000Z</time>
      </trkpt>
      <trkpt lat="45.96166" lon="4.56508">
        <ele>512.1</ele>
        <time>1970-01-01T00:02:19.000Z</time>
      </trkpt>
      <trkpt lat="45.96172" lon="4.56504">
        <ele>512.8</ele>
        <time>1970-01-01T00:02:20.000Z</time>
      </trkpt>
      <trkpt lat="45.96172" lon="4.56503">
        <ele>512.8</ele>
        <time>1970-01-01T00:02:21.000Z</time>
      </trkpt>
      <trkpt lat="45.96173" lon="4.56503">
        <ele>512.9</ele>
        <time>1970-01-01T00:02:22.000Z</time>
      </trkpt>
      <trkpt lat="45.96173" lon="4.56503">
        <ele>512.9</ele>
        <time>1970-01-01T00:02:23.000Z</time>
      </trkpt>
      <trkpt lat="45.96173" lon="4.56502">
        <ele>513</ele>
        <time>1970-01-01T00:02:24.000Z</time>
      </trkpt>
      <trkpt lat="45.96174" lon="4.56502">
        <ele>513</ele>
        <time>1970-01-01T00:02:25.000Z</time>
      </trkpt>
      <trkpt lat="45.96174" lon="4.56502">
        <ele>513.1</ele>
        <time>1970-01-01T00:02:26.000Z</time>
      </trkpt>
      <trkpt lat="45.96174" lon="4.56501">
        <ele>513.1</ele>
        <time>1970-01-01T00:02:27.000Z</time>
      </trkpt>
      <trkpt lat="45.96175" lon="4.56501">
        <ele>513.2</ele>
        <time>1970-01-01T00:02:28.000Z</time>
      </trkpt>
      <trkpt lat="45.96175" lon="4.56501">
        <ele>513.2</ele>
        <time>1970-01-01T00:02:29.000Z</time>
      </trkpt>
      <trkpt lat="45.96176" lon="4.565">
        <ele>513.3</ele>
        <time>1970-01-01T00:02:30.000Z</time>
      </trkpt>
      <trkpt lat="45.96176" lon="4.565">
        <ele>513.3</ele>
        <time>1970-01-01T00:02:31.000Z</time>
      </trkpt>
      <trkpt lat="45.96181" lon="4.56495">
        <ele>514.1</ele>
        <time>1970-01-01T00:02:32.000Z</time>
      </trkpt>
      <trkpt lat="45.96182" lon="4.56494">
        <ele>514.2</ele>
        <time>1970-01-01T00:02:33.000Z</time>
      </trkpt>
      <trkpt lat="45.96183" lon="4.56493">
        <ele>514.3</ele>
        <time>1970-01-01T00:02:34.000Z</time>
      </trkpt>
      <trkpt lat="45.96183" lon="4.56492">
        <ele>514.4</ele>
        <time>1970-01-01T00:02:35.000Z</time>
      </trkpt>
      <trkpt lat="45.96184" lon="4.56491">
        <ele>514.6</ele>
        <time>1970-01-01T00:02:36.000Z</time>
      </trkpt>
      <trkpt lat="45.96185" lon="4.5649">
        <ele>514.7</ele>
        <time>1970-01-01T00:02:37.000Z</time>
      </trkpt>
      <trkpt lat="45.96185" lon="4.56489">
        <ele>514.8</ele>
        <time>1970-01-01T00:02:38.000Z</time>
      </trkpt>
      <trkpt lat="45.96186" lon="4.56488">
        <ele>514.9</ele>
        <time>1970-01-01T00:02:39.000Z</time>
      </trkpt>
      <trkpt lat="45.96187" lon="4.56487">
        <ele>515.1</ele>
        <time>1970-01-01T00:02:40.000Z</time>
      </trkpt>
      <trkpt lat="45.96189" lon="4.56487">
        <ele>515.3</ele>
        <time>1970-01-01T00:02:41.000Z</time>
      </trkpt>
      <trkpt lat="45.96191" lon="4.56488">
        <ele>515.5</ele>
        <time>1970-01-01T00:02:42.000Z</time>
      </trkpt>
      <trkpt lat="45.96192" lon="4.56488">
        <ele>515.8</ele>
        <time>1970-01-01T00:02:43.000Z</time>
      </trkpt>
      <trkpt lat="45.96194" lon="4.56488">
        <ele>516</ele>
        <time>1970-01-01T00:02:44.000Z</time>
      </trkpt>
      <trkpt lat="45.96196" lon="4.56489">
        <ele>516.2</ele>
        <time>1970-01-01T00:02:45.000Z</time>
      </trkpt>
      <trkpt lat="45.96197" lon="4.56489">
        <ele>516.3</ele>
        <time>1970-01-01T00:02:46.000Z</time>
      </trkpt>
      <trkpt lat="45.96198" lon="4.56489">
        <ele>516.4</ele>
        <time>1970-01-01T00:02:47.000Z</time>
      </trkpt>
      <trkpt lat="45.96198" lon="4.56489">
        <ele>516.4</ele>
        <time>1970-01-01T00:02:48.000Z</time>
      </trkpt>
      <trkpt lat="45.96199" lon="4.5649">
        <ele>516.5</ele>
        <time>1970-01-01T00:02:49.000Z</time>
      </trkpt>
      <trkpt lat="45.962" lon="4.5649">
        <ele>516.6</ele>
        <time>1970-01-01T00:02:50.000Z</time>
      </trkpt>
      <trkpt lat="45.96201" lon="4.5649">
        <ele>516.7</ele>
        <time>1970-01-01T00:02:51.000Z</time>
      </trkpt>
      <trkpt lat="45.96202" lon="4.5649">
        <ele>516.8</ele>
        <time>1970-01-01T00:02:52.000Z</time>
      </trkpt>
      <trkpt lat="45.96203" lon="4.5649">
        <ele>516.9</ele>
        <time>1970-01-01T00:02:53.000Z</time>
      </trkpt>
      <trkpt lat="45.96203" lon="4.56491">
        <ele>516.9</ele>
        <time>1970-01-01T00:02:54.000Z</time>
      </trkpt>
      <trkpt lat="45.96204" lon="4.56491">
        <ele>517</ele>
        <time>1970-01-01T00:02:55.000Z</time>
      </trkpt>
      <trkpt lat="45.96205" lon="4.56491">
        <ele>517.1</ele>
        <time>1970-01-01T00:02:56.000Z</time>
      </trkpt>
      <trkpt lat="45.96206" lon="4.56491">
        <ele>517.2</ele>
        <time>1970-01-01T00:02:57.000Z</time>
      </trkpt>
      <trkpt lat="45.96208" lon="4.56491">
        <ele>517.4</ele>
        <time>1970-01-01T00:02:58.000Z</time>
      </trkpt>
      <trkpt lat="45.96209" lon="4.56492">
        <ele>517.5</ele>
        <time>1970-01-01T00:02:59.000Z</time>
      </trkpt>
      <trkpt lat="45.96211" lon="4.56492">
        <ele>517.7</ele>
        <time>1970-01-01T00:03:00.000Z</time>
      </trkpt>
      <trkpt lat="45.96212" lon="4.56492">
        <ele>517.8</ele>
        <time>1970-01-01T00:03:01.000Z</time>
      </trkpt>
      <trkpt lat="45.96213" lon="4.56492">
        <ele>517.9</ele>
        <time>1970-01-01T00:03:02.000Z</time>
      </trkpt>
      <trkpt lat="45.96215" lon="4.56492">
        <ele>518.1</ele>
        <time>1970-01-01T00:03:03.000Z</time>
      </trkpt>
      <trkpt lat="45.96216" lon="4.56492">
        <ele>518.2</ele>
        <time>1970-01-01T00:03:04.000Z</time>
      </trkpt>
      <trkpt lat="45.96216" lon="4.56492">
        <ele>518.2</ele>
        <time>1970-01-01T00:03:05.000Z</time>
      </trkpt>
      <trkpt lat="45.96217" lon="4.56493">
        <ele>518.3</ele>
        <time>1970-01-01T00:03:06.000Z</time>
      </trkpt>
      <trkpt lat="45.96218" lon="4.56493">
        <ele>518.4</ele>
        <time>1970-01-01T00:03:07.000Z</time>
      </trkpt>
      <trkpt lat="45.96219" lon="4.56493">
        <ele>518.5</ele>
        <time>1970-01-01T00:03:08.000Z</time>
      </trkpt>
      <trkpt lat="45.9622" lon="4.56493">
        <ele>518.6</ele>
        <time>1970-01-01T00:03:09.000Z</time>
      </trkpt>
      <trkpt lat="45.96221" lon="4.56493">
        <ele>518.7</ele>
        <time>1970-01-01T00:03:10.000Z</time>
      </trkpt>
      <trkpt lat="45.96222" lon="4.56493">
        <ele>518.7</ele>
        <time>1970-01-01T00:03:11.000Z</time>
      </trkpt>
      <trkpt lat="45.96222" lon="4.56493">
        <ele>518.8</ele>
        <time>1970-01-01T00:03:12.000Z</time>
      </trkpt>
      <trkpt lat="45.96223" lon="4.56493">
        <ele>518.9</ele>
        <time>1970-01-01T00:03:13.000Z</time>
      </trkpt>
      <trkpt lat="45.96224" lon="4.56494">
        <ele>519</ele>
        <time>1970-01-01T00:03:14.000Z</time>
      </trkpt>
      <trkpt lat="45.96225" lon="4.56494">
        <ele>519.1</ele>
        <time>1970-01-01T00:03:15.000Z</time>
      </trkpt>
      <trkpt lat="45.96226" lon="4.56494">
        <ele>519.2</ele>
        <time>1970-01-01T00:03:16.000Z</time>
      </trkpt>
      <trkpt lat="45.96228" lon="4.56495">
        <ele>519.3</ele>
        <time>1970-01-01T00:03:17.000Z</time>
      </trkpt>
      <trkpt lat="45.96229" lon="4.56495">
        <ele>519.5</ele>
        <time>1970-01-01T00:03:18.000Z</time>
      </trkpt>
      <trkpt lat="45.9623" lon="4.56496">
        <ele>519.6</ele>
        <time>1970-01-01T00:03:19.000Z</time>
      </trkpt>
      <trkpt lat="45.96231" lon="4.56496">
        <ele>519.7</ele>
        <time>1970-01-01T00:03:20.000Z</time>
      </trkpt>
      <trkpt lat="45.96232" lon="4.56496">
        <ele>519.8</ele>
        <time>1970-01-01T00:03:21.000Z</time>
      </trkpt>
      <trkpt lat="45.96233" lon="4.56497">
        <ele>520</ele>
        <time>1970-01-01T00:03:22.000Z</time>
      </trkpt>
      <trkpt lat="45.96234" lon="4.56498">
        <ele>520</ele>
        <time>1970-01-01T00:03:23.000Z</time>
      </trkpt>
      <trkpt lat="45.96235" lon="4.56498">
        <ele>520.1</ele>
        <time>1970-01-01T00:03:24.000Z</time>
      </trkpt>
      <trkpt lat="45.96236" lon="4.56499">
        <ele>520.2</ele>
        <time>1970-01-01T00:03:25.000Z</time>
      </trkpt>
      <trkpt lat="45.96236" lon="4.565">
        <ele>520.3</ele>
        <time>1970-01-01T00:03:26.000Z</time>
      </trkpt>
      <trkpt lat="45.96237" lon="4.565">
        <ele>520.4</ele>
        <time>1970-01-01T00:03:27.000Z</time>
      </trkpt>
      <trkpt lat="45.96238" lon="4.56501">
        <ele>520.5</ele>
        <time>1970-01-01T00:03:28.000Z</time>
      </trkpt>
      <trkpt lat="45.96239" lon="4.56502">
        <ele>520.6</ele>
        <time>1970-01-01T00:03:29.000Z</time>
      </trkpt>
      <trkpt lat="45.96239" lon="4.56503">
        <ele>520.7</ele>
        <time>1970-01-01T00:03:30.000Z</time>
      </trkpt>
      <trkpt lat="45.9624" lon="4.56503">
        <ele>520.8</ele>
        <time>1970-01-01T00:03:31.000Z</time>
      </trkpt>
      <trkpt lat="45.96241" lon="4.56504">
        <ele>520.9</ele>
        <time>1970-01-01T00:03:32.000Z</time>
      </trkpt>
      <trkpt lat="45.96242" lon="4.56505">
        <ele>521</ele>
        <time>1970-01-01T00:03:33.000Z</time>
      </trkpt>
      <trkpt lat="45.96243" lon="4.56506">
        <ele>521.1</ele>
        <time>1970-01-01T00:03:34.000Z</time>
      </trkpt>
      <trkpt lat="45.96244" lon="4.56507">
        <ele>521.2</ele>
        <time>1970-01-01T00:03:35.000Z</time>
      </trkpt>
      <trkpt lat="45.96245" lon="4.56508">
        <ele>521.3</ele>
        <time>1970-01-01T00:03:36.000Z</time>
      </trkpt>
      <trkpt lat="45.96245" lon="4.56508">
        <ele>521.5</ele>
        <time>1970-01-01T00:03:37.000Z</time>
      </trkpt>
      <trkpt lat="45.96246" lon="4.56509">
        <ele>521.6</ele>
        <time>1970-01-01T00:03:38.000Z</time>
      </trkpt>
      <trkpt lat="45.96247" lon="4.5651">
        <ele>521.7</ele>
        <time>1970-01-01T00:03:39.000Z</time>
      </trkpt>
      <trkpt lat="45.96248" lon="4.56511">
        <ele>521.8</ele>
        <time>1970-01-01T00:03:40.000Z</time>
      </trkpt>
      <trkpt lat="45.96249" lon="4.56512">
        <ele>521.9</ele>
        <time>1970-01-01T00:03:41.000Z</time>
      </trkpt>
      <trkpt lat="45.9625" lon="4.56513">
        <ele>522</ele>
        <time>1970-01-01T00:03:42.000Z</time>
      </trkpt>
      <trkpt lat="45.9625" lon="4.56514">
        <ele>522.1</ele>
        <time>1970-01-01T00:03:43.000Z</time>
      </trkpt>
      <trkpt lat="45.96251" lon="4.56515">
        <ele>522.2</ele>
        <time>1970-01-01T00:03:44.000Z</time>
      </trkpt>
      <trkpt lat="45.96252" lon="4.56516">
        <ele>522.3</ele>
        <time>1970-01-01T00:03:45.000Z</time>
      </trkpt>
      <trkpt lat="45.96252" lon="4.56517">
        <ele>522.4</ele>
        <time>1970-01-01T00:03:46.000Z</time>
      </trkpt>
      <trkpt lat="45.96253" lon="4.56518">
        <ele>522.5</ele>
        <time>1970-01-01T00:03:47.000Z</time>
      </trkpt>
      <trkpt lat="45.96254" lon="4.56519">
        <ele>522.6</ele>
        <time>1970-01-01T00:03:48.000Z</time>
      </trkpt>
      <trkpt lat="45.96254" lon="4.5652">
        <ele>522.7</ele>
        <time>1970-01-01T00:03:49.000Z</time>
      </trkpt>
      <trkpt lat="45.96255" lon="4.56521">
        <ele>522.8</ele>
        <time>1970-01-01T00:03:50.000Z</time>
      </trkpt>
      <trkpt lat="45.96255" lon="4.56522">
        <ele>522.9</ele>
        <time>1970-01-01T00:03:51.000Z</time>
      </trkpt>
      <trkpt lat="45.96256" lon="4.56524">
        <ele>523</ele>
        <time>1970-01-01T00:03:52.000Z</time>
      </trkpt>
      <trkpt lat="45.96256" lon="4.56526">
        <ele>523.1</ele>
        <time>1970-01-01T00:03:53.000Z</time>
      </trkpt>
      <trkpt lat="45.96256" lon="4.56527">
        <ele>523.3</ele>
        <time>1970-01-01T00:03:54.000Z</time>
      </trkpt>
      <trkpt lat="45.96256" lon="4.56529">
        <ele>523.4</ele>
        <time>1970-01-01T00:03:55.000Z</time>
      </trkpt>
      <trkpt lat="45.96256" lon="4.56531">
        <ele>523.5</ele>
        <time>1970-01-01T00:03:56.000Z</time>
      </trkpt>
      <trkpt lat="45.96256" lon="4.56532">
        <ele>523.6</ele>
        <time>1970-01-01T00:03:57.000Z</time>
      </trkpt>
      <trkpt lat="45.96256" lon="4.56534">
        <ele>523.8</ele>
        <time>1970-01-01T00:03:58.000Z</time>
      </trkpt>
      <trkpt lat="45.96256" lon="4.56536">
        <ele>523.9</ele>
        <time>1970-01-01T00:03:59.000Z</time>
      </trkpt>
      <trkpt lat="45.96256" lon="4.56537">
        <ele>524</ele>
        <time>1970-01-01T00:04:00.000Z</time>
      </trkpt>
      <trkpt lat="45.96257" lon="4.56539">
        <ele>524.1</ele>
        <time>1970-01-01T00:04:01.000Z</time>
      </trkpt>
      <trkpt lat="45.96257" lon="4.5654">
        <ele>524.2</ele>
        <time>1970-01-01T00:04:02.000Z</time>
      </trkpt>
      <trkpt lat="45.96258" lon="4.56541">
        <ele>524.3</ele>
        <time>1970-01-01T00:04:03.000Z</time>
      </trkpt>
      <trkpt lat="45.96258" lon="4.56543">
        <ele>524.4</ele>
        <time>1970-01-01T00:04:04.000Z</time>
      </trkpt>
      <trkpt lat="45.96259" lon="4.56544">
        <ele>524.5</ele>
        <time>1970-01-01T00:04:05.000Z</time>
      </trkpt>
      <trkpt lat="45.96259" lon="4.56546">
        <ele>524.6</ele>
        <time>1970-01-01T00:04:06.000Z</time>
      </trkpt>
      <trkpt lat="45.96259" lon="4.56547">
        <ele>524.7</ele>
        <time>1970-01-01T00:04:07.000Z</time>
      </trkpt>
      <trkpt lat="45.9626" lon="4.56548">
        <ele>524.8</ele>
        <time>1970-01-01T00:04:08.000Z</time>
      </trkpt>
      <trkpt lat="45.9626" lon="4.5655">
        <ele>524.9</ele>
        <time>1970-01-01T00:04:09.000Z</time>
      </trkpt>
      <trkpt lat="45.96261" lon="4.56551">
        <ele>525</ele>
        <time>1970-01-01T00:04:10.000Z</time>
      </trkpt>
      <trkpt lat="45.96261" lon="4.56552">
        <ele>525.2</ele>
        <time>1970-01-01T00:04:11.000Z</time>
      </trkpt>
      <trkpt lat="45.96262" lon="4.56554">
        <ele>525.2</ele>
        <time>1970-01-01T00:04:12.000Z</time>
      </trkpt>
      <trkpt lat="45.96262" lon="4.56555">
        <ele>525.3</ele>
        <time>1970-01-01T00:04:13.000Z</time>
      </trkpt>
      <trkpt lat="45.96263" lon="4.56556">
        <ele>525.4</ele>
        <time>1970-01-01T00:04:14.000Z</time>
      </trkpt>
      <trkpt lat="45.96263" lon="4.56558">
        <ele>525.5</ele>
        <time>1970-01-01T00:04:15.000Z</time>
      </trkpt>
      <trkpt lat="45.96264" lon="4.56559">
        <ele>525.6</ele>
        <time>1970-01-01T00:04:16.000Z</time>
      </trkpt>
      <trkpt lat="45.96264" lon="4.56561">
        <ele>525.7</ele>
        <time>1970-01-01T00:04:17.000Z</time>
      </trkpt>
      <trkpt lat="45.96264" lon="4.56562">
        <ele>525.9</ele>
        <time>1970-01-01T00:04:18.000Z</time>
      </trkpt>
      <trkpt lat="45.96264" lon="4.56564">
        <ele>526</ele>
        <time>1970-01-01T00:04:19.000Z</time>
      </trkpt>
      <trkpt lat="45.96265" lon="4.56565">
        <ele>526.1</ele>
        <time>1970-01-01T00:04:20.000Z</time>
      </trkpt>
      <trkpt lat="45.96265" lon="4.56567">
        <ele>526.2</ele>
        <time>1970-01-01T00:04:21.000Z</time>
      </trkpt>
      <trkpt lat="45.96265" lon="4.56569">
        <ele>526.3</ele>
        <time>1970-01-01T00:04:22.000Z</time>
      </trkpt>
      <trkpt lat="45.96265" lon="4.5657">
        <ele>526.4</ele>
        <time>1970-01-01T00:04:23.000Z</time>
      </trkpt>
      <trkpt lat="45.96266" lon="4.56572">
        <ele>526.5</ele>
        <time>1970-01-01T00:04:24.000Z</time>
      </trkpt>
      <trkpt lat="45.96266" lon="4.56573">
        <ele>526.6</ele>
        <time>1970-01-01T00:04:25.000Z</time>
      </trkpt>
      <trkpt lat="45.96266" lon="4.56575">
        <ele>526.7</ele>
        <time>1970-01-01T00:04:26.000Z</time>
      </trkpt>
      <trkpt lat="45.96267" lon="4.56577">
        <ele>526.8</ele>
        <time>1970-01-01T00:04:27.000Z</time>
      </trkpt>
      <trkpt lat="45.96267" lon="4.56578">
        <ele>526.9</ele>
        <time>1970-01-01T00:04:28.000Z</time>
      </trkpt>
      <trkpt lat="45.96267" lon="4.5658">
        <ele>527</ele>
        <time>1970-01-01T00:04:29.000Z</time>
      </trkpt>
      <trkpt lat="45.96268" lon="4.56582">
        <ele>527.1</ele>
        <time>1970-01-01T00:04:30.000Z</time>
      </trkpt>
      <trkpt lat="45.96268" lon="4.56583">
        <ele>527.2</ele>
        <time>1970-01-01T00:04:31.000Z</time>
      </trkpt>
      <trkpt lat="45.96268" lon="4.56585">
        <ele>527.3</ele>
        <time>1970-01-01T00:04:32.000Z</time>
      </trkpt>
      <trkpt lat="45.96269" lon="4.56586">
        <ele>527.4</ele>
        <time>1970-01-01T00:04:33.000Z</time>
      </trkpt>
      <trkpt lat="45.96269" lon="4.56587">
        <ele>527.4</ele>
        <time>1970-01-01T00:04:34.000Z</time>
      </trkpt>
      <trkpt lat="45.96269" lon="4.56589">
        <ele>527.5</ele>
        <time>1970-01-01T00:04:35.000Z</time>
      </trkpt>
      <trkpt lat="45.96269" lon="4.5659">
        <ele>527.6</ele>
        <time>1970-01-01T00:04:36.000Z</time>
      </trkpt>
      <trkpt lat="45.9627" lon="4.56591">
        <ele>527.7</ele>
        <time>1970-01-01T00:04:37.000Z</time>
      </trkpt>
      <trkpt lat="45.9627" lon="4.56592">
        <ele>527.7</ele>
        <time>1970-01-01T00:04:38.000Z</time>
      </trkpt>
      <trkpt lat="45.9627" lon="4.56593">
        <ele>527.8</ele>
        <time>1970-01-01T00:04:39.000Z</time>
      </trkpt>
      <trkpt lat="45.9627" lon="4.56594">
        <ele>527.9</ele>
        <time>1970-01-01T00:04:40.000Z</time>
      </trkpt>
      <trkpt lat="45.96271" lon="4.56596">
        <ele>528</ele>
        <time>1970-01-01T00:04:41.000Z</time>
      </trkpt>
      <trkpt lat="45.96271" lon="4.56597">
        <ele>528</ele>
        <time>1970-01-01T00:04:42.000Z</time>
      </trkpt>
      <trkpt lat="45.96271" lon="4.56598">
        <ele>528.1</ele>
        <time>1970-01-01T00:04:43.000Z</time>
      </trkpt>
      <trkpt lat="45.96272" lon="4.56598">
        <ele>528.2</ele>
        <time>1970-01-01T00:04:44.000Z</time>
      </trkpt>
      <trkpt lat="45.96273" lon="4.56599">
        <ele>528.2</ele>
        <time>1970-01-01T00:04:45.000Z</time>
      </trkpt>
      <trkpt lat="45.96273" lon="4.56599">
        <ele>528.4</ele>
        <time>1970-01-01T00:04:46.000Z</time>
      </trkpt>
      <trkpt lat="45.96274" lon="4.56599">
        <ele>528.4</ele>
        <time>1970-01-01T00:04:47.000Z</time>
      </trkpt>
      <trkpt lat="45.96275" lon="4.56599">
        <ele>528.5</ele>
        <time>1970-01-01T00:04:48.000Z</time>
      </trkpt>
      <trkpt lat="45.96275" lon="4.566">
        <ele>528.5</ele>
        <time>1970-01-01T00:04:49.000Z</time>
      </trkpt>
      <trkpt lat="45.96276" lon="4.566">
        <ele>528.6</ele>
        <time>1970-01-01T00:04:50.000Z</time>
      </trkpt>
      <trkpt lat="45.96277" lon="4.566">
        <ele>528.6</ele>
        <time>1970-01-01T00:04:51.000Z</time>
      </trkpt>
      <trkpt lat="45.96277" lon="4.56601">
        <ele>528.7</ele>
        <time>1970-01-01T00:04:52.000Z</time>
      </trkpt>
      <trkpt lat="45.96278" lon="4.56601">
        <ele>528.8</ele>
        <time>1970-01-01T00:04:53.000Z</time>
      </trkpt>
      <trkpt lat="45.96279" lon="4.56601">
        <ele>528.8</ele>
        <time>1970-01-01T00:04:54.000Z</time>
      </trkpt>
      <trkpt lat="45.9628" lon="4.56601">
        <ele>528.9</ele>
        <time>1970-01-01T00:04:55.000Z</time>
      </trkpt>
      <trkpt lat="45.9628" lon="4.56602">
        <ele>528.9</ele>
        <time>1970-01-01T00:04:56.000Z</time>
      </trkpt>
      <trkpt lat="45.96281" lon="4.56601">
        <ele>529</ele>
        <time>1970-01-01T00:04:57.000Z</time>
      </trkpt>
      <trkpt lat="45.96282" lon="4.56601">
        <ele>529.1</ele>
        <time>1970-01-01T00:04:58.000Z</time>
      </trkpt>
      <trkpt lat="45.96284" lon="4.56601">
        <ele>529.2</ele>
        <time>1970-01-01T00:04:59.000Z</time>
      </trkpt>
      <trkpt lat="45.96285" lon="4.56601">
        <ele>529.3</ele>
        <time>1970-01-01T00:05:00.000Z</time>
      </trkpt>
      <trkpt lat="45.96286" lon="4.56601">
        <ele>529.3</ele>
        <time>1970-01-01T00:05:01.000Z</time>
      </trkpt>
      <trkpt lat="45.96287" lon="4.566">
        <ele>529.4</ele>
        <time>1970-01-01T00:05:02.000Z</time>
      </trkpt>
      <trkpt lat="45.96288" lon="4.566">
        <ele>529.5</ele>
        <time>1970-01-01T00:05:03.000Z</time>
      </trkpt>
      <trkpt lat="45.96289" lon="4.566">
        <ele>529.6</ele>
        <time>1970-01-01T00:05:04.000Z</time>
      </trkpt>
      <trkpt lat="45.9629" lon="4.566">
        <ele>529.6</ele>
        <time>1970-01-01T00:05:05.000Z</time>
      </trkpt>
      <trkpt lat="45.96291" lon="4.56599">
        <ele>529.7</ele>
        <time>1970-01-01T00:05:06.000Z</time>
      </trkpt>
      <trkpt lat="45.96292" lon="4.56599">
        <ele>529.8</ele>
        <time>1970-01-01T00:05:07.000Z</time>
      </trkpt>
      <trkpt lat="45.96293" lon="4.56599">
        <ele>529.8</ele>
        <time>1970-01-01T00:05:08.000Z</time>
      </trkpt>
      <trkpt lat="45.96294" lon="4.56599">
        <ele>529.9</ele>
        <time>1970-01-01T00:05:09.000Z</time>
      </trkpt>
      <trkpt lat="45.96295" lon="4.56599">
        <ele>530</ele>
        <time>1970-01-01T00:05:10.000Z</time>
      </trkpt>
      <trkpt lat="45.96296" lon="4.56598">
        <ele>530</ele>
        <time>1970-01-01T00:05:11.000Z</time>
      </trkpt>
      <trkpt lat="45.96297" lon="4.56598">
        <ele>530.1</ele>
        <time>1970-01-01T00:05:12.000Z</time>
      </trkpt>
      <trkpt lat="45.96298" lon="4.56598">
        <ele>530.2</ele>
        <time>1970-01-01T00:05:13.000Z</time>
      </trkpt>
      <trkpt lat="45.96299" lon="4.56598">
        <ele>530.2</ele>
        <time>1970-01-01T00:05:14.000Z</time>
      </trkpt>
      <trkpt lat="45.963" lon="4.56598">
        <ele>530.3</ele>
        <time>1970-01-01T00:05:15.000Z</time>
      </trkpt>
      <trkpt lat="45.96301" lon="4.56597">
        <ele>530.4</ele>
        <time>1970-01-01T00:05:16.000Z</time>
      </trkpt>
      <trkpt lat="45.96302" lon="4.56597">
        <ele>530.4</ele>
        <time>1970-01-01T00:05:17.000Z</time>
      </trkpt>
      <trkpt lat="45.96303" lon="4.56597">
        <ele>530.5</ele>
        <time>1970-01-01T00:05:18.000Z</time>
      </trkpt>
      <trkpt lat="45.96305" lon="4.56597">
        <ele>530.5</ele>
        <time>1970-01-01T00:05:19.000Z</time>
      </trkpt>
      <trkpt lat="45.96306" lon="4.56597">
        <ele>530.6</ele>
        <time>1970-01-01T00:05:20.000Z</time>
      </trkpt>
      <trkpt lat="45.96307" lon="4.56596">
        <ele>530.7</ele>
        <time>1970-01-01T00:05:21.000Z</time>
      </trkpt>
      <trkpt lat="45.96308" lon="4.56596">
        <ele>530.7</ele>
        <time>1970-01-01T00:05:22.000Z</time>
      </trkpt>
      <trkpt lat="45.96309" lon="4.56596">
        <ele>530.8</ele>
        <time>1970-01-01T00:05:23.000Z</time>
      </trkpt>
      <trkpt lat="45.9631" lon="4.56596">
        <ele>530.8</ele>
        <time>1970-01-01T00:05:24.000Z</time>
      </trkpt>
      <trkpt lat="45.96311" lon="4.56595">
        <ele>530.9</ele>
        <time>1970-01-01T00:05:25.000Z</time>
      </trkpt>
      <trkpt lat="45.96312" lon="4.56595">
        <ele>530.9</ele>
        <time>1970-01-01T00:05:26.000Z</time>
      </trkpt>
      <trkpt lat="45.96313" lon="4.56595">
        <ele>531</ele>
        <time>1970-01-01T00:05:27.000Z</time>
      </trkpt>
      <trkpt lat="45.96314" lon="4.56594">
        <ele>531</ele>
        <time>1970-01-01T00:05:28.000Z</time>
      </trkpt>
      <trkpt lat="45.96315" lon="4.56594">
        <ele>531</ele>
        <time>1970-01-01T00:05:29.000Z</time>
      </trkpt>
      <trkpt lat="45.96316" lon="4.56593">
        <ele>531.1</ele>
        <time>1970-01-01T00:05:30.000Z</time>
      </trkpt>
      <trkpt lat="45.96317" lon="4.56593">
        <ele>531.1</ele>
        <time>1970-01-01T00:05:31.000Z</time>
      </trkpt>
      <trkpt lat="45.96318" lon="4.56593">
        <ele>531.2</ele>
        <time>1970-01-01T00:05:32.000Z</time>
      </trkpt>
      <trkpt lat="45.96318" lon="4.56593">
        <ele>531.2</ele>
        <time>1970-01-01T00:05:33.000Z</time>
      </trkpt>
      <trkpt lat="45.9632" lon="4.5659">
        <ele>531.3</ele>
        <time>1970-01-01T00:05:35.000Z</time>
      </trkpt>
      <trkpt lat="45.9632" lon="4.5659">
        <ele>531.3</ele>
        <time>1970-01-01T00:05:36.000Z</time>
      </trkpt>
      <trkpt lat="45.96322" lon="4.56589">
        <ele>531.4</ele>
        <time>1970-01-01T00:05:37.000Z</time>
      </trkpt>
      <trkpt lat="45.96322" lon="4.56589">
        <ele>531.4</ele>
        <time>1970-01-01T00:05:38.000Z</time>
      </trkpt>
      <trkpt lat="45.96323" lon="4.56588">
        <ele>531.4</ele>
        <time>1970-01-01T00:05:39.000Z</time>
      </trkpt>
      <trkpt lat="45.96323" lon="4.56588">
        <ele>531.4</ele>
        <time>1970-01-01T00:05:40.000Z</time>
      </trkpt>
      <trkpt lat="45.96325" lon="4.56587">
        <ele>531.5</ele>
        <time>1970-01-01T00:05:41.000Z</time>
      </trkpt>
      <trkpt lat="45.96325" lon="4.56587">
        <ele>531.5</ele>
        <time>1970-01-01T00:05:42.000Z</time>
      </trkpt>
      <trkpt lat="45.96327" lon="4.56586">
        <ele>531.6</ele>
        <time>1970-01-01T00:05:43.000Z</time>
      </trkpt>
      <trkpt lat="45.96327" lon="4.56586">
        <ele>531.6</ele>
        <time>1970-01-01T00:05:44.000Z</time>
      </trkpt>
      <trkpt lat="45.96329" lon="4.56585">
        <ele>531.6</ele>
        <time>1970-01-01T00:05:45.000Z</time>
      </trkpt>
      <trkpt lat="45.96329" lon="4.56585">
        <ele>531.6</ele>
        <time>1970-01-01T00:05:46.000Z</time>
      </trkpt>
      <trkpt lat="45.96329" lon="4.56585">
        <ele>531.6</ele>
        <time>1970-01-01T00:05:47.000Z</time>
      </trkpt>
      <trkpt lat="45.96331" lon="4.56584">
        <ele>531.7</ele>
        <time>1970-01-01T00:05:48.000Z</time>
      </trkpt>
      <trkpt lat="45.96331" lon="4.56584">
        <ele>531.7</ele>
        <time>1970-01-01T00:05:49.000Z</time>
      </trkpt>
      <trkpt lat="45.96333" lon="4.56583">
        <ele>531.8</ele>
        <time>1970-01-01T00:05:50.000Z</time>
      </trkpt>
      <trkpt lat="45.96333" lon="4.56583">
        <ele>531.8</ele>
        <time>1970-01-01T00:05:51.000Z</time>
      </trkpt>
      <trkpt lat="45.96335" lon="4.56583">
        <ele>531.8</ele>
        <time>1970-01-01T00:05:52.000Z</time>
      </trkpt>
      <trkpt lat="45.96335" lon="4.56583">
        <ele>531.8</ele>
        <time>1970-01-01T00:05:53.000Z</time>
      </trkpt>
      <trkpt lat="45.96337" lon="4.56583">
        <ele>531.9</ele>
        <time>1970-01-01T00:05:54.000Z</time>
      </trkpt>
      <trkpt lat="45.96337" lon="4.56583">
        <ele>531.9</ele>
        <time>1970-01-01T00:05:55.000Z</time>
      </trkpt>
      <trkpt lat="45.96339" lon="4.56582">
        <ele>532</ele>
        <time>1970-01-01T00:05:56.000Z</time>
      </trkpt>
      <trkpt lat="45.96339" lon="4.56582">
        <ele>532</ele>
        <time>1970-01-01T00:05:57.000Z</time>
      </trkpt>
      <trkpt lat="45.96341" lon="4.56582">
        <ele>532</ele>
        <time>1970-01-01T00:05:58.000Z</time>
      </trkpt>
      <trkpt lat="45.96341" lon="4.56582">
        <ele>532</ele>
        <time>1970-01-01T00:05:59.000Z</time>
      </trkpt>
      <trkpt lat="45.96343" lon="4.56581">
        <ele>532.1</ele>
        <time>1970-01-01T00:06:00.000Z</time>
      </trkpt>
      <trkpt lat="45.96343" lon="4.56581">
        <ele>532.1</ele>
        <time>1970-01-01T00:06:01.000Z</time>
      </trkpt>
      <trkpt lat="45.96345" lon="4.5658">
        <ele>532.2</ele>
        <time>1970-01-01T00:06:02.000Z</time>
      </trkpt>
      <trkpt lat="45.96345" lon="4.5658">
        <ele>532.2</ele>
        <time>1970-01-01T00:06:03.000Z</time>
      </trkpt>
      <trkpt lat="45.96347" lon="4.56579">
        <ele>532.2</ele>
        <time>1970-01-01T00:06:04.000Z</time>
      </trkpt>
      <trkpt lat="45.96347" lon="4.56579">
        <ele>532.2</ele>
        <time>1970-01-01T00:06:05.000Z</time>
      </trkpt>
      <trkpt lat="45.96349" lon="4.56579">
        <ele>532.3</ele>
        <time>1970-01-01T00:06:06.000Z</time>
      </trkpt>
      <trkpt lat="45.96349" lon="4.56579">
        <ele>532.3</ele>
        <time>1970-01-01T00:06:07.000Z</time>
      </trkpt>
      <trkpt lat="45.96351" lon="4.56578">
        <ele>532.3</ele>
        <time>1970-01-01T00:06:08.000Z</time>
      </trkpt>
      <trkpt lat="45.96351" lon="4.56578">
        <ele>532.3</ele>
        <time>1970-01-01T00:06:09.000Z</time>
      </trkpt>
      <trkpt lat="45.96351" lon="4.56578">
        <ele>532.3</ele>
        <time>1970-01-01T00:06:10.000Z</time>
      </trkpt>
      <trkpt lat="45.96353" lon="4.56576">
        <ele>532.4</ele>
        <time>1970-01-01T00:06:11.000Z</time>
      </trkpt>
      <trkpt lat="45.96353" lon="4.56576">
        <ele>532.4</ele>
        <time>1970-01-01T00:06:12.000Z</time>
      </trkpt>
      <trkpt lat="45.96353" lon="4.56576">
        <ele>532.4</ele>
        <time>1970-01-01T00:06:13.000Z</time>
      </trkpt>
      <trkpt lat="45.96354" lon="4.56573">
        <ele>532.5</ele>
        <time>1970-01-01T00:06:14.000Z</time>
      </trkpt>
      <trkpt lat="45.96354" lon="4.56573">
        <ele>532.5</ele>
        <time>1970-01-01T00:06:15.000Z</time>
      </trkpt>
      <trkpt lat="45.96354" lon="4.5657">
        <ele>532.5</ele>
        <time>1970-01-01T00:06:16.000Z</time>
      </trkpt>
      <trkpt lat="45.96354" lon="4.5657">
        <ele>532.5</ele>
        <time>1970-01-01T00:06:17.000Z</time>
      </trkpt>
      <trkpt lat="45.96354" lon="4.56568">
        <ele>532.6</ele>
        <time>1970-01-01T00:06:18.000Z</time>
      </trkpt>
      <trkpt lat="45.96354" lon="4.56568">
        <ele>532.6</ele>
        <time>1970-01-01T00:06:19.000Z</time>
      </trkpt>
      <trkpt lat="45.96353" lon="4.56565">
        <ele>532.6</ele>
        <time>1970-01-01T00:06:20.000Z</time>
      </trkpt>
      <trkpt lat="45.96353" lon="4.56565">
        <ele>532.6</ele>
        <time>1970-01-01T00:06:21.000Z</time>
      </trkpt>
      <trkpt lat="45.96353" lon="4.56562">
        <ele>532.7</ele>
        <time>1970-01-01T00:06:22.000Z</time>
      </trkpt>
      <trkpt lat="45.96353" lon="4.56562">
        <ele>532.7</ele>
        <time>1970-01-01T00:06:23.000Z</time>
      </trkpt>
      <trkpt lat="45.96353" lon="4.56562">
        <ele>532.7</ele>
        <time>1970-01-01T00:06:24.000Z</time>
      </trkpt>
      <trkpt lat="45.96352" lon="4.56559">
        <ele>532.8</ele>
        <time>1970-01-01T00:06:25.000Z</time>
      </trkpt>
      <trkpt lat="45.96351" lon="4.56557">
        <ele>532.8</ele>
        <time>1970-01-01T00:06:26.000Z</time>
      </trkpt>
      <trkpt lat="45.96351" lon="4.56556">
        <ele>532.8</ele>
        <time>1970-01-01T00:06:27.000Z</time>
      </trkpt>
      <trkpt lat="45.9635" lon="4.56554">
        <ele>532.8</ele>
        <time>1970-01-01T00:06:28.000Z</time>
      </trkpt>
      <trkpt lat="45.9635" lon="4.56553">
        <ele>532.9</ele>
        <time>1970-01-01T00:06:29.000Z</time>
      </trkpt>
      <trkpt lat="45.96349" lon="4.56552">
        <ele>532.9</ele>
        <time>1970-01-01T00:06:30.000Z</time>
      </trkpt>
      <trkpt lat="45.96349" lon="4.5655">
        <ele>532.9</ele>
        <time>1970-01-01T00:06:31.000Z</time>
      </trkpt>
      <trkpt lat="45.96348" lon="4.56549">
        <ele>532.9</ele>
        <time>1970-01-01T00:06:32.000Z</time>
      </trkpt>
      <trkpt lat="45.96348" lon="4.56548">
        <ele>533</ele>
        <time>1970-01-01T00:06:33.000Z</time>
      </trkpt>
      <trkpt lat="45.96347" lon="4.56546">
        <ele>533</ele>
        <time>1970-01-01T00:06:34.000Z</time>
      </trkpt>
      <trkpt lat="45.96347" lon="4.56546">
        <ele>533</ele>
        <time>1970-01-01T00:06:35.000Z</time>
      </trkpt>
      <trkpt lat="45.96347" lon="4.56543">
        <ele>533</ele>
        <time>1970-01-01T00:06:36.000Z</time>
      </trkpt>
      <trkpt lat="45.96347" lon="4.56543">
        <ele>533</ele>
        <time>1970-01-01T00:06:37.000Z</time>
      </trkpt>
      <trkpt lat="45.96347" lon="4.56541">
        <ele>533.1</ele>
        <time>1970-01-01T00:06:38.000Z</time>
      </trkpt>
      <trkpt lat="45.96347" lon="4.56541">
        <ele>533.1</ele>
        <time>1970-01-01T00:06:39.000Z</time>
      </trkpt>
      <trkpt lat="45.96347" lon="4.56541">
        <ele>533.1</ele>
        <time>1970-01-01T00:06:40.000Z</time>
      </trkpt>
      <trkpt lat="45.96347" lon="4.56537">
        <ele>533.2</ele>
        <time>1970-01-01T00:06:41.000Z</time>
      </trkpt>
      <trkpt lat="45.96347" lon="4.56537">
        <ele>533.2</ele>
        <time>1970-01-01T00:06:42.000Z</time>
      </trkpt>
      <trkpt lat="45.96348" lon="4.56534">
        <ele>533.2</ele>
        <time>1970-01-01T00:06:43.000Z</time>
      </trkpt>
      <trkpt lat="45.96348" lon="4.56534">
        <ele>533.2</ele>
        <time>1970-01-01T00:06:44.000Z</time>
      </trkpt>
      <trkpt lat="45.96349" lon="4.56532">
        <ele>533.2</ele>
        <time>1970-01-01T00:06:45.000Z</time>
      </trkpt>
      <trkpt lat="45.96349" lon="4.56532">
        <ele>533.2</ele>
        <time>1970-01-01T00:06:46.000Z</time>
      </trkpt>
      <trkpt lat="45.9635" lon="4.56529">
        <ele>533.3</ele>
        <time>1970-01-01T00:06:47.000Z</time>
      </trkpt>
      <trkpt lat="45.9635" lon="4.56529">
        <ele>533.3</ele>
        <time>1970-01-01T00:06:48.000Z</time>
      </trkpt>
      <trkpt lat="45.96352" lon="4.56528">
        <ele>533.4</ele>
        <time>1970-01-01T00:06:49.000Z</time>
      </trkpt>
      <trkpt lat="45.96352" lon="4.56528">
        <ele>533.4</ele>
        <time>1970-01-01T00:06:50.000Z</time>
      </trkpt>
      <trkpt lat="45.96354" lon="4.56527">
        <ele>533.4</ele>
        <time>1970-01-01T00:06:51.000Z</time>
      </trkpt>
      <trkpt lat="45.96354" lon="4.56527">
        <ele>533.4</ele>
        <time>1970-01-01T00:06:52.000Z</time>
      </trkpt>
      <trkpt lat="45.96354" lon="4.56527">
        <ele>533.4</ele>
        <time>1970-01-01T00:06:53.000Z</time>
      </trkpt>
      <trkpt lat="45.96357" lon="4.56526">
        <ele>533.5</ele>
        <time>1970-01-01T00:06:54.000Z</time>
      </trkpt>
      <trkpt lat="45.96357" lon="4.56526">
        <ele>533.5</ele>
        <time>1970-01-01T00:06:55.000Z</time>
      </trkpt>
      <trkpt lat="45.96359" lon="4.56525">
        <ele>533.6</ele>
        <time>1970-01-01T00:06:56.000Z</time>
      </trkpt>
      <trkpt lat="45.96359" lon="4.56525">
        <ele>533.6</ele>
        <time>1970-01-01T00:06:57.000Z</time>
      </trkpt>
      <trkpt lat="45.9636" lon="4.56524">
        <ele>533.6</ele>
        <time>1970-01-01T00:06:58.000Z</time>
      </trkpt>
      <trkpt lat="45.9636" lon="4.56524">
        <ele>533.6</ele>
        <time>1970-01-01T00:06:59.000Z</time>
      </trkpt>
      <trkpt lat="45.96363" lon="4.56523">
        <ele>533.7</ele>
        <time>1970-01-01T00:07:00.000Z</time>
      </trkpt>
      <trkpt lat="45.96363" lon="4.56523">
        <ele>533.7</ele>
        <time>1970-01-01T00:07:01.000Z</time>
      </trkpt>
      <trkpt lat="45.96364" lon="4.56521">
        <ele>533.7</ele>
        <time>1970-01-01T00:07:02.000Z</time>
      </trkpt>
      <trkpt lat="45.96364" lon="4.56521">
        <ele>533.7</ele>
        <time>1970-01-01T00:07:03.000Z</time>
      </trkpt>
      <trkpt lat="45.96366" lon="4.5652">
        <ele>533.8</ele>
        <time>1970-01-01T00:07:04.000Z</time>
      </trkpt>
      <trkpt lat="45.96366" lon="4.5652">
        <ele>533.8</ele>
        <time>1970-01-01T00:07:05.000Z</time>
      </trkpt>
      <trkpt lat="45.96368" lon="4.56519">
        <ele>533.9</ele>
        <time>1970-01-01T00:07:06.000Z</time>
      </trkpt>
      <trkpt lat="45.96368" lon="4.56519">
        <ele>533.9</ele>
        <time>1970-01-01T00:07:07.000Z</time>
      </trkpt>
      <trkpt lat="45.96371" lon="4.56518">
        <ele>534</ele>
        <time>1970-01-01T00:07:08.000Z</time>
      </trkpt>
      <trkpt lat="45.96371" lon="4.56518">
        <ele>534</ele>
        <time>1970-01-01T00:07:09.000Z</time>
      </trkpt>
      <trkpt lat="45.96374" lon="4.56517">
        <ele>534.1</ele>
        <time>1970-01-01T00:07:10.000Z</time>
      </trkpt>
      <trkpt lat="45.96374" lon="4.56517">
        <ele>534.1</ele>
        <time>1970-01-01T00:07:11.000Z</time>
      </trkpt>
      <trkpt lat="45.96376" lon="4.56516">
        <ele>534.2</ele>
        <time>1970-01-01T00:07:12.000Z</time>
      </trkpt>
      <trkpt lat="45.96376" lon="4.56516">
        <ele>534.2</ele>
        <time>1970-01-01T00:07:13.000Z</time>
      </trkpt>
      <trkpt lat="45.96378" lon="4.56514">
        <ele>534.2</ele>
        <time>1970-01-01T00:07:14.000Z</time>
      </trkpt>
      <trkpt lat="45.96378" lon="4.56514">
        <ele>534.2</ele>
        <time>1970-01-01T00:07:15.000Z</time>
      </trkpt>
      <trkpt lat="45.9638" lon="4.56513">
        <ele>534.3</ele>
        <time>1970-01-01T00:07:16.000Z</time>
      </trkpt>
      <trkpt lat="45.9638" lon="4.56513">
        <ele>534.3</ele>
        <time>1970-01-01T00:07:17.000Z</time>
      </trkpt>
      <trkpt lat="45.96382" lon="4.56512">
        <ele>534.4</ele>
        <time>1970-01-01T00:07:18.000Z</time>
      </trkpt>
      <trkpt lat="45.96382" lon="4.56512">
        <ele>534.4</ele>
        <time>1970-01-01T00:07:19.000Z</time>
      </trkpt>
      <trkpt lat="45.96384" lon="4.5651">
        <ele>534.5</ele>
        <time>1970-01-01T00:07:20.000Z</time>
      </trkpt>
      <trkpt lat="45.96384" lon="4.5651">
        <ele>534.5</ele>
        <time>1970-01-01T00:07:21.000Z</time>
      </trkpt>
      <trkpt lat="45.96386" lon="4.56509">
        <ele>534.6</ele>
        <time>1970-01-01T00:07:22.000Z</time>
      </trkpt>
      <trkpt lat="45.96386" lon="4.56509">
        <ele>534.6</ele>
        <time>1970-01-01T00:07:23.000Z</time>
      </trkpt>
      <trkpt lat="45.96388" lon="4.56508">
        <ele>534.6</ele>
        <time>1970-01-01T00:07:24.000Z</time>
      </trkpt>
      <trkpt lat="45.96388" lon="4.56508">
        <ele>534.6</ele>
        <time>1970-01-01T00:07:25.000Z</time>
      </trkpt>
      <trkpt lat="45.9639" lon="4.56508">
        <ele>534.7</ele>
        <time>1970-01-01T00:07:26.000Z</time>
      </trkpt>
      <trkpt lat="45.9639" lon="4.56508">
        <ele>534.7</ele>
        <time>1970-01-01T00:07:27.000Z</time>
      </trkpt>
      <trkpt lat="45.96392" lon="4.56507">
        <ele>534.8</ele>
        <time>1970-01-01T00:07:28.000Z</time>
      </trkpt>
      <trkpt lat="45.96392" lon="4.56507">
        <ele>534.8</ele>
        <time>1970-01-01T00:07:29.000Z</time>
      </trkpt>
      <trkpt lat="45.96392" lon="4.56507">
        <ele>534.8</ele>
        <time>1970-01-01T00:07:30.000Z</time>
      </trkpt>
      <trkpt lat="45.96394" lon="4.56505">
        <ele>534.9</ele>
        <time>1970-01-01T00:07:31.000Z</time>
      </trkpt>
      <trkpt lat="45.96394" lon="4.56505">
        <ele>534.9</ele>
        <time>1970-01-01T00:07:32.000Z</time>
      </trkpt>
      <trkpt lat="45.96396" lon="4.56504">
        <ele>535</ele>
        <time>1970-01-01T00:07:33.000Z</time>
      </trkpt>
      <trkpt lat="45.96396" lon="4.56504">
        <ele>535</ele>
        <time>1970-01-01T00:07:34.000Z</time>
      </trkpt>
      <trkpt lat="45.96396" lon="4.56504">
        <ele>535</ele>
        <time>1970-01-01T00:07:35.000Z</time>
      </trkpt>
      <trkpt lat="45.96399" lon="4.56502">
        <ele>535.1</ele>
        <time>1970-01-01T00:07:36.000Z</time>
      </trkpt>
      <trkpt lat="45.96399" lon="4.56502">
        <ele>535.1</ele>
        <time>1970-01-01T00:07:37.000Z</time>
      </trkpt>
      <trkpt lat="45.96401" lon="4.56501">
        <ele>535.2</ele>
        <time>1970-01-01T00:07:38.000Z</time>
      </trkpt>
      <trkpt lat="45.96401" lon="4.56501">
        <ele>535.2</ele>
        <time>1970-01-01T00:07:39.000Z</time>
      </trkpt>
      <trkpt lat="45.96403" lon="4.565">
        <ele>535.2</ele>
        <time>1970-01-01T00:07:40.000Z</time>
      </trkpt>
      <trkpt lat="45.96403" lon="4.565">
        <ele>535.2</ele>
        <time>1970-01-01T00:07:41.000Z</time>
      </trkpt>
      <trkpt lat="45.96405" lon="4.56498">
        <ele>535.3</ele>
        <time>1970-01-01T00:07:42.000Z</time>
      </trkpt>
      <trkpt lat="45.96405" lon="4.56498">
        <ele>535.3</ele>
        <time>1970-01-01T00:07:43.000Z</time>
      </trkpt>
      <trkpt lat="45.96407" lon="4.56497">
        <ele>535.4</ele>
        <time>1970-01-01T00:07:44.000Z</time>
      </trkpt>
      <trkpt lat="45.96407" lon="4.56497">
        <ele>535.4</ele>
        <time>1970-01-01T00:07:45.000Z</time>
      </trkpt>
      <trkpt lat="45.96409" lon="4.56496">
        <ele>535.5</ele>
        <time>1970-01-01T00:07:46.000Z</time>
      </trkpt>
      <trkpt lat="45.96409" lon="4.56496">
        <ele>535.5</ele>
        <time>1970-01-01T00:07:47.000Z</time>
      </trkpt>
      <trkpt lat="45.96412" lon="4.56494">
        <ele>535.6</ele>
        <time>1970-01-01T00:07:48.000Z</time>
      </trkpt>
      <trkpt lat="45.96412" lon="4.56494">
        <ele>535.6</ele>
        <time>1970-01-01T00:07:49.000Z</time>
      </trkpt>
      <trkpt lat="45.96415" lon="4.56492">
        <ele>535.7</ele>
        <time>1970-01-01T00:07:50.000Z</time>
      </trkpt>
      <trkpt lat="45.96415" lon="4.56492">
        <ele>535.7</ele>
        <time>1970-01-01T00:07:51.000Z</time>
      </trkpt>
      <trkpt lat="45.96416" lon="4.5649">
        <ele>535.8</ele>
        <time>1970-01-01T00:07:52.000Z</time>
      </trkpt>
      <trkpt lat="45.96416" lon="4.5649">
        <ele>535.8</ele>
        <time>1970-01-01T00:07:53.000Z</time>
      </trkpt>
      <trkpt lat="45.96416" lon="4.5649">
        <ele>535.8</ele>
        <time>1970-01-01T00:07:54.000Z</time>
      </trkpt>
      <trkpt lat="45.96417" lon="4.56488">
        <ele>535.9</ele>
        <time>1970-01-01T00:07:55.000Z</time>
      </trkpt>
      <trkpt lat="45.96417" lon="4.56488">
        <ele>535.9</ele>
        <time>1970-01-01T00:07:56.000Z</time>
      </trkpt>
      <trkpt lat="45.96419" lon="4.56485">
        <ele>536</ele>
        <time>1970-01-01T00:07:57.000Z</time>
      </trkpt>
      <trkpt lat="45.96419" lon="4.56485">
        <ele>536</ele>
        <time>1970-01-01T00:07:58.000Z</time>
      </trkpt>
      <trkpt lat="45.96421" lon="4.56484">
        <ele>536.1</ele>
        <time>1970-01-01T00:07:59.000Z</time>
      </trkpt>
      <trkpt lat="45.96421" lon="4.56484">
        <ele>536.1</ele>
        <time>1970-01-01T00:08:00.000Z</time>
      </trkpt>
      <trkpt lat="45.96422" lon="4.56483">
        <ele>536.2</ele>
        <time>1970-01-01T00:08:01.000Z</time>
      </trkpt>
      <trkpt lat="45.96422" lon="4.56483">
        <ele>536.2</ele>
        <time>1970-01-01T00:08:02.000Z</time>
      </trkpt>
      <trkpt lat="45.96424" lon="4.56481">
        <ele>536.3</ele>
        <time>1970-01-01T00:08:03.000Z</time>
      </trkpt>
      <trkpt lat="45.96424" lon="4.56481">
        <ele>536.3</ele>
        <time>1970-01-01T00:08:04.000Z</time>
      </trkpt>
      <trkpt lat="45.96426" lon="4.5648">
        <ele>536.4</ele>
        <time>1970-01-01T00:08:05.000Z</time>
      </trkpt>
      <trkpt lat="45.96426" lon="4.5648">
        <ele>536.4</ele>
        <time>1970-01-01T00:08:06.000Z</time>
      </trkpt>
      <trkpt lat="45.96428" lon="4.56478">
        <ele>536.5</ele>
        <time>1970-01-01T00:08:07.000Z</time>
      </trkpt>
      <trkpt lat="45.96428" lon="4.56478">
        <ele>536.5</ele>
        <time>1970-01-01T00:08:08.000Z</time>
      </trkpt>
      <trkpt lat="45.9643" lon="4.56477">
        <ele>536.6</ele>
        <time>1970-01-01T00:08:09.000Z</time>
      </trkpt>
      <trkpt lat="45.9643" lon="4.56477">
        <ele>536.6</ele>
        <time>1970-01-01T00:08:10.000Z</time>
      </trkpt>
      <trkpt lat="45.96432" lon="4.56476">
        <ele>536.7</ele>
        <time>1970-01-01T00:08:11.000Z</time>
      </trkpt>
      <trkpt lat="45.96432" lon="4.56476">
        <ele>536.7</ele>
        <time>1970-01-01T00:08:12.000Z</time>
      </trkpt>
      <trkpt lat="45.96434" lon="4.56475">
        <ele>536.8</ele>
        <time>1970-01-01T00:08:13.000Z</time>
      </trkpt>
      <trkpt lat="45.96434" lon="4.56475">
        <ele>536.8</ele>
        <time>1970-01-01T00:08:14.000Z</time>
      </trkpt>
      <trkpt lat="45.96436" lon="4.56473">
        <ele>536.9</ele>
        <time>1970-01-01T00:08:15.000Z</time>
      </trkpt>
      <trkpt lat="45.96436" lon="4.56473">
        <ele>536.9</ele>
        <time>1970-01-01T00:08:16.000Z</time>
      </trkpt>
      <trkpt lat="45.96438" lon="4.56472">
        <ele>537.1</ele>
        <time>1970-01-01T00:08:17.000Z</time>
      </trkpt>
      <trkpt lat="45.96438" lon="4.56472">
        <ele>537.1</ele>
        <time>1970-01-01T00:08:18.000Z</time>
      </trkpt>
      <trkpt lat="45.9644" lon="4.56471">
        <ele>537.2</ele>
        <time>1970-01-01T00:08:19.000Z</time>
      </trkpt>
      <trkpt lat="45.9644" lon="4.56471">
        <ele>537.2</ele>
        <time>1970-01-01T00:08:20.000Z</time>
      </trkpt>
      <trkpt lat="45.96442" lon="4.5647">
        <ele>537.3</ele>
        <time>1970-01-01T00:08:21.000Z</time>
      </trkpt>
      <trkpt lat="45.96442" lon="4.5647">
        <ele>537.3</ele>
        <time>1970-01-01T00:08:22.000Z</time>
      </trkpt>
      <trkpt lat="45.96444" lon="4.5647">
        <ele>537.4</ele>
        <time>1970-01-01T00:08:23.000Z</time>
      </trkpt>
      <trkpt lat="45.96444" lon="4.5647">
        <ele>537.4</ele>
        <time>1970-01-01T00:08:24.000Z</time>
      </trkpt>
      <trkpt lat="45.96447" lon="4.56468">
        <ele>537.6</ele>
        <time>1970-01-01T00:08:25.000Z</time>
      </trkpt>
      <trkpt lat="45.96447" lon="4.56468">
        <ele>537.6</ele>
        <time>1970-01-01T00:08:26.000Z</time>
      </trkpt>
      <trkpt lat="45.96449" lon="4.56467">
        <ele>537.7</ele>
        <time>1970-01-01T00:08:27.000Z</time>
      </trkpt>
      <trkpt lat="45.96449" lon="4.56467">
        <ele>537.7</ele>
        <time>1970-01-01T00:08:28.000Z</time>
      </trkpt>
      <trkpt lat="45.96451" lon="4.56466">
        <ele>537.9</ele>
        <time>1970-01-01T00:08:29.000Z</time>
      </trkpt>
      <trkpt lat="45.96451" lon="4.56466">
        <ele>537.9</ele>
        <time>1970-01-01T00:08:30.000Z</time>
      </trkpt>
      <trkpt lat="45.96453" lon="4.56465">
        <ele>538</ele>
        <time>1970-01-01T00:08:31.000Z</time>
      </trkpt>
      <trkpt lat="45.96453" lon="4.56465">
        <ele>538</ele>
        <time>1970-01-01T00:08:32.000Z</time>
      </trkpt>
      <trkpt lat="45.96455" lon="4.56464">
        <ele>538.1</ele>
        <time>1970-01-01T00:08:33.000Z</time>
      </trkpt>
      <trkpt lat="45.96455" lon="4.56464">
        <ele>538.1</ele>
        <time>1970-01-01T00:08:34.000Z</time>
      </trkpt>
      <trkpt lat="45.96457" lon="4.56463">
        <ele>538.3</ele>
        <time>1970-01-01T00:08:35.000Z</time>
      </trkpt>
      <trkpt lat="45.96457" lon="4.56463">
        <ele>538.3</ele>
        <time>1970-01-01T00:08:36.000Z</time>
      </trkpt>
      <trkpt lat="45.96459" lon="4.56462">
        <ele>538.4</ele>
        <time>1970-01-01T00:08:37.000Z</time>
      </trkpt>
      <trkpt lat="45.96459" lon="4.56462">
        <ele>538.4</ele>
        <time>1970-01-01T00:08:38.000Z</time>
      </trkpt>
      <trkpt lat="45.96461" lon="4.56462">
        <ele>538.5</ele>
        <time>1970-01-01T00:08:39.000Z</time>
      </trkpt>
      <trkpt lat="45.96461" lon="4.56462">
        <ele>538.5</ele>
        <time>1970-01-01T00:08:40.000Z</time>
      </trkpt>
      <trkpt lat="45.96464" lon="4.56463">
        <ele>538.7</ele>
        <time>1970-01-01T00:08:41.000Z</time>
      </trkpt>
      <trkpt lat="45.96464" lon="4.56463">
        <ele>538.7</ele>
        <time>1970-01-01T00:08:42.000Z</time>
      </trkpt>
      <trkpt lat="45.96466" lon="4.56463">
        <ele>538.8</ele>
        <time>1970-01-01T00:08:43.000Z</time>
      </trkpt>
      <trkpt lat="45.96466" lon="4.56463">
        <ele>538.1</ele>
        <time>1970-01-01T00:08:44.000Z</time>
      </trkpt>
      <trkpt lat="45.96469" lon="4.56464">
        <ele>537.4</ele>
        <time>1970-01-01T00:08:45.000Z</time>
      </trkpt>
      <trkpt lat="45.96469" lon="4.56464">
        <ele>536.7</ele>
        <time>1970-01-01T00:08:46.000Z</time>
      </trkpt>
      <trkpt lat="45.96471" lon="4.56464">
        <ele>536</ele>
        <time>1970-01-01T00:08:47.000Z</time>
      </trkpt>
      <trkpt lat="45.96471" lon="4.56464">
        <ele>535.2</ele>
        <time>1970-01-01T00:08:48.000Z</time>
      </trkpt>
      <trkpt lat="45.96473" lon="4.56464">
        <ele>534.6</ele>
        <time>1970-01-01T00:08:49.000Z</time>
      </trkpt>
      <trkpt lat="45.96473" lon="4.56464">
        <ele>533.8</ele>
        <time>1970-01-01T00:08:50.000Z</time>
      </trkpt>
      <trkpt lat="45.96476" lon="4.56465">
        <ele>532.7</ele>
        <time>1970-01-01T00:08:51.000Z</time>
      </trkpt>
      <trkpt lat="45.96476" lon="4.56465">
        <ele>531.9</ele>
        <time>1970-01-01T00:08:52.000Z</time>
      </trkpt>
      <trkpt lat="45.96478" lon="4.56465">
        <ele>531.3</ele>
        <time>1970-01-01T00:08:53.000Z</time>
      </trkpt>
      <trkpt lat="45.96478" lon="4.56465">
        <ele>530.5</ele>
        <time>1970-01-01T00:08:54.000Z</time>
      </trkpt>
      <trkpt lat="45.96481" lon="4.56465">
        <ele>529.8</ele>
        <time>1970-01-01T00:08:55.000Z</time>
      </trkpt>
      <trkpt lat="45.96481" lon="4.56465">
        <ele>529</ele>
        <time>1970-01-01T00:08:56.000Z</time>
      </trkpt>
      <trkpt lat="45.96484" lon="4.56465">
        <ele>528.4</ele>
        <time>1970-01-01T00:08:57.000Z</time>
      </trkpt>
      <trkpt lat="45.96484" lon="4.56465">
        <ele>527.6</ele>
        <time>1970-01-01T00:08:58.000Z</time>
      </trkpt>
      <trkpt lat="45.96486" lon="4.56465">
        <ele>527.5</ele>
        <time>1970-01-01T00:08:59.000Z</time>
      </trkpt>
      <trkpt lat="45.96486" lon="4.56465">
        <ele>526.8</ele>
        <time>1970-01-01T00:09:00.000Z</time>
      </trkpt>
      <trkpt lat="45.96488" lon="4.56465">
        <ele>526.1</ele>
        <time>1970-01-01T00:09:01.000Z</time>
      </trkpt>
      <trkpt lat="45.96488" lon="4.56465">
        <ele>525.4</ele>
        <time>1970-01-01T00:09:02.000Z</time>
      </trkpt>
      <trkpt lat="45.9649" lon="4.56466">
        <ele>524.1</ele>
        <time>1970-01-01T00:09:03.000Z</time>
      </trkpt>
      <trkpt lat="45.9649" lon="4.56466">
        <ele>523.4</ele>
        <time>1970-01-01T00:09:04.000Z</time>
      </trkpt>
      <trkpt lat="45.96492" lon="4.56466">
        <ele>522.8</ele>
        <time>1970-01-01T00:09:05.000Z</time>
      </trkpt>
      <trkpt lat="45.96492" lon="4.56466">
        <ele>522</ele>
        <time>1970-01-01T00:09:06.000Z</time>
      </trkpt>
      <trkpt lat="45.96495" lon="4.56465">
        <ele>521.4</ele>
        <time>1970-01-01T00:09:07.000Z</time>
      </trkpt>
      <trkpt lat="45.96495" lon="4.56465">
        <ele>520.7</ele>
        <time>1970-01-01T00:09:08.000Z</time>
      </trkpt>
      <trkpt lat="45.96497" lon="4.56466">
        <ele>520.1</ele>
        <time>1970-01-01T00:09:09.000Z</time>
      </trkpt>
      <trkpt lat="45.96497" lon="4.56466">
        <ele>519.4</ele>
        <time>1970-01-01T00:09:10.000Z</time>
      </trkpt>
      <trkpt lat="45.96499" lon="4.56465">
        <ele>518.7</ele>
        <time>1970-01-01T00:09:11.000Z</time>
      </trkpt>
      <trkpt lat="45.96499" lon="4.56465">
        <ele>517.9</ele>
        <time>1970-01-01T00:09:12.000Z</time>
      </trkpt>
      <trkpt lat="45.96499" lon="4.56465">
        <ele>517.2</ele>
        <time>1970-01-01T00:09:13.000Z</time>
      </trkpt>
      <trkpt lat="45.96502" lon="4.56466">
        <ele>516.6</ele>
        <time>1970-01-01T00:09:14.000Z</time>
      </trkpt>
      <trkpt lat="45.96502" lon="4.56466">
        <ele>515.9</ele>
        <time>1970-01-01T00:09:15.000Z</time>
      </trkpt>
      <trkpt lat="45.96505" lon="4.56465">
        <ele>515.4</ele>
        <time>1970-01-01T00:09:16.000Z</time>
      </trkpt>
      <trkpt lat="45.96505" lon="4.56465">
        <ele>514.6</ele>
        <time>1970-01-01T00:09:17.000Z</time>
      </trkpt>
      <trkpt lat="45.96507" lon="4.56465">
        <ele>514.7</ele>
        <time>1970-01-01T00:09:18.000Z</time>
      </trkpt>
      <trkpt lat="45.96507" lon="4.56465">
        <ele>514.7</ele>
        <time>1970-01-01T00:09:19.000Z</time>
      </trkpt>
      <trkpt lat="45.96509" lon="4.56464">
        <ele>514.7</ele>
        <time>1970-01-01T00:09:20.000Z</time>
      </trkpt>
      <trkpt lat="45.96509" lon="4.56464">
        <ele>514.7</ele>
        <time>1970-01-01T00:09:21.000Z</time>
      </trkpt>
      <trkpt lat="45.96511" lon="4.56463">
        <ele>514.8</ele>
        <time>1970-01-01T00:09:22.000Z</time>
      </trkpt>
      <trkpt lat="45.96511" lon="4.56463">
        <ele>514.8</ele>
        <time>1970-01-01T00:09:23.000Z</time>
      </trkpt>
      <trkpt lat="45.96514" lon="4.56463">
        <ele>514.8</ele>
        <time>1970-01-01T00:09:24.000Z</time>
      </trkpt>
      <trkpt lat="45.96514" lon="4.56463">
        <ele>514.8</ele>
        <time>1970-01-01T00:09:25.000Z</time>
      </trkpt>
      <trkpt lat="45.96516" lon="4.56462">
        <ele>514.9</ele>
        <time>1970-01-01T00:09:26.000Z</time>
      </trkpt>
      <trkpt lat="45.96516" lon="4.56462">
        <ele>514.9</ele>
        <time>1970-01-01T00:09:27.000Z</time>
      </trkpt>
      <trkpt lat="45.96519" lon="4.56461">
        <ele>514.9</ele>
        <time>1970-01-01T00:09:28.000Z</time>
      </trkpt>
      <trkpt lat="45.96519" lon="4.56461">
        <ele>514.9</ele>
        <time>1970-01-01T00:09:29.000Z</time>
      </trkpt>
      <trkpt lat="45.96521" lon="4.5646">
        <ele>515</ele>
        <time>1970-01-01T00:09:30.000Z</time>
      </trkpt>
      <trkpt lat="45.96521" lon="4.5646">
        <ele>515</ele>
        <time>1970-01-01T00:09:31.000Z</time>
      </trkpt>
      <trkpt lat="45.96524" lon="4.5646">
        <ele>515</ele>
        <time>1970-01-01T00:09:32.000Z</time>
      </trkpt>
      <trkpt lat="45.96524" lon="4.5646">
        <ele>515</ele>
        <time>1970-01-01T00:09:33.000Z</time>
      </trkpt>
      <trkpt lat="45.96526" lon="4.56461">
        <ele>515.1</ele>
        <time>1970-01-01T00:09:34.000Z</time>
      </trkpt>
      <trkpt lat="45.96526" lon="4.56461">
        <ele>515.1</ele>
        <time>1970-01-01T00:09:35.000Z</time>
      </trkpt>
      <trkpt lat="45.96528" lon="4.56461">
        <ele>515.1</ele>
        <time>1970-01-01T00:09:36.000Z</time>
      </trkpt>
      <trkpt lat="45.96528" lon="4.56461">
        <ele>515.1</ele>
        <time>1970-01-01T00:09:37.000Z</time>
      </trkpt>
      <trkpt lat="45.9653" lon="4.56461">
        <ele>515.2</ele>
        <time>1970-01-01T00:09:38.000Z</time>
      </trkpt>
      <trkpt lat="45.9653" lon="4.56461">
        <ele>515.2</ele>
        <time>1970-01-01T00:09:39.000Z</time>
      </trkpt>
      <trkpt lat="45.96532" lon="4.56461">
        <ele>515.2</ele>
        <time>1970-01-01T00:09:40.000Z</time>
      </trkpt>
      <trkpt lat="45.96532" lon="4.56461">
        <ele>515.2</ele>
        <time>1970-01-01T00:09:41.000Z</time>
      </trkpt>
      <trkpt lat="45.96535" lon="4.56462">
        <ele>515.3</ele>
        <time>1970-01-01T00:09:42.000Z</time>
      </trkpt>
      <trkpt lat="45.96535" lon="4.56462">
        <ele>515.3</ele>
        <time>1970-01-01T00:09:43.000Z</time>
      </trkpt>
      <trkpt lat="45.96538" lon="4.56463">
        <ele>515.4</ele>
        <time>1970-01-01T00:09:44.000Z</time>
      </trkpt>
      <trkpt lat="45.96538" lon="4.56463">
        <ele>515.4</ele>
        <time>1970-01-01T00:09:45.000Z</time>
      </trkpt>
      <trkpt lat="45.9654" lon="4.56465">
        <ele>515.4</ele>
        <time>1970-01-01T00:09:46.000Z</time>
      </trkpt>
      <trkpt lat="45.9654" lon="4.56465">
        <ele>515.4</ele>
        <time>1970-01-01T00:09:47.000Z</time>
      </trkpt>
      <trkpt lat="45.96543" lon="4.56465">
        <ele>515.5</ele>
        <time>1970-01-01T00:09:48.000Z</time>
      </trkpt>
      <trkpt lat="45.96543" lon="4.56465">
        <ele>515.5</ele>
        <time>1970-01-01T00:09:49.000Z</time>
      </trkpt>
      <trkpt lat="45.96545" lon="4.56467">
        <ele>515.6</ele>
        <time>1970-01-01T00:09:50.000Z</time>
      </trkpt>
      <trkpt lat="45.96545" lon="4.56467">
        <ele>515.6</ele>
        <time>1970-01-01T00:09:51.000Z</time>
      </trkpt>
      <trkpt lat="45.96547" lon="4.56468">
        <ele>515.6</ele>
        <time>1970-01-01T00:09:52.000Z</time>
      </trkpt>
      <trkpt lat="45.96547" lon="4.56468">
        <ele>515.6</ele>
        <time>1970-01-01T00:09:53.000Z</time>
      </trkpt>
      <trkpt lat="45.9655" lon="4.56469">
        <ele>515.7</ele>
        <time>1970-01-01T00:09:54.000Z</time>
      </trkpt>
      <trkpt lat="45.9655" lon="4.56469">
        <ele>515.7</ele>
        <time>1970-01-01T00:09:55.000Z</time>
      </trkpt>
      <trkpt lat="45.96552" lon="4.5647">
        <ele>515.8</ele>
        <time>1970-01-01T00:09:56.000Z</time>
      </trkpt>
      <trkpt lat="45.96552" lon="4.5647">
        <ele>515.8</ele>
        <time>1970-01-01T00:09:57.000Z</time>
      </trkpt>
      <trkpt lat="45.96555" lon="4.56471">
        <ele>515.8</ele>
        <time>1970-01-01T00:09:58.000Z</time>
      </trkpt>
      <trkpt lat="45.96555" lon="4.56471">
        <ele>515.8</ele>
        <time>1970-01-01T00:09:59.000Z</time>
      </trkpt>
      <trkpt lat="45.96557" lon="4.56472">
        <ele>515.9</ele>
        <time>1970-01-01T00:10:00.000Z</time>
      </trkpt>
      <trkpt lat="45.96557" lon="4.56472">
        <ele>515.9</ele>
        <time>1970-01-01T00:10:01.000Z</time>
      </trkpt>
      <trkpt lat="45.96559" lon="4.56472">
        <ele>516</ele>
        <time>1970-01-01T00:10:02.000Z</time>
      </trkpt>
      <trkpt lat="45.96559" lon="4.56472">
        <ele>516</ele>
        <time>1970-01-01T00:10:03.000Z</time>
      </trkpt>
      <trkpt lat="45.96561" lon="4.56473">
        <ele>516</ele>
        <time>1970-01-01T00:10:04.000Z</time>
      </trkpt>
      <trkpt lat="45.96561" lon="4.56473">
        <ele>516</ele>
        <time>1970-01-01T00:10:05.000Z</time>
      </trkpt>
      <trkpt lat="45.96563" lon="4.56474">
        <ele>516.1</ele>
        <time>1970-01-01T00:10:06.000Z</time>
      </trkpt>
      <trkpt lat="45.96563" lon="4.56474">
        <ele>516.1</ele>
        <time>1970-01-01T00:10:07.000Z</time>
      </trkpt>
      <trkpt lat="45.96566" lon="4.56475">
        <ele>516.1</ele>
        <time>1970-01-01T00:10:08.000Z</time>
      </trkpt>
      <trkpt lat="45.96566" lon="4.56475">
        <ele>516.1</ele>
        <time>1970-01-01T00:10:09.000Z</time>
      </trkpt>
      <trkpt lat="45.96568" lon="4.56476">
        <ele>516.2</ele>
        <time>1970-01-01T00:10:10.000Z</time>
      </trkpt>
      <trkpt lat="45.96568" lon="4.56476">
        <ele>516.2</ele>
        <time>1970-01-01T00:10:11.000Z</time>
      </trkpt>
      <trkpt lat="45.9657" lon="4.56477">
        <ele>516.3</ele>
        <time>1970-01-01T00:10:12.000Z</time>
      </trkpt>
      <trkpt lat="45.9657" lon="4.56477">
        <ele>516.3</ele>
        <time>1970-01-01T00:10:13.000Z</time>
      </trkpt>
      <trkpt lat="45.96572" lon="4.56478">
        <ele>516.3</ele>
        <time>1970-01-01T00:10:14.000Z</time>
      </trkpt>
      <trkpt lat="45.96572" lon="4.56478">
        <ele>516.3</ele>
        <time>1970-01-01T00:10:15.000Z</time>
      </trkpt>
      <trkpt lat="45.96575" lon="4.56478">
        <ele>516.4</ele>
        <time>1970-01-01T00:10:16.000Z</time>
      </trkpt>
      <trkpt lat="45.96575" lon="4.56478">
        <ele>516.4</ele>
        <time>1970-01-01T00:10:17.000Z</time>
      </trkpt>
      <trkpt lat="45.96577" lon="4.56479">
        <ele>516.5</ele>
        <time>1970-01-01T00:10:18.000Z</time>
      </trkpt>
      <trkpt lat="45.96577" lon="4.56479">
        <ele>516.5</ele>
        <time>1970-01-01T00:10:19.000Z</time>
      </trkpt>
      <trkpt lat="45.96579" lon="4.5648">
        <ele>516.5</ele>
        <time>1970-01-01T00:10:20.000Z</time>
      </trkpt>
      <trkpt lat="45.96579" lon="4.5648">
        <ele>516.5</ele>
        <time>1970-01-01T00:10:21.000Z</time>
      </trkpt>
      <trkpt lat="45.96581" lon="4.56481">
        <ele>516.6</ele>
        <time>1970-01-01T00:10:22.000Z</time>
      </trkpt>
      <trkpt lat="45.96581" lon="4.56481">
        <ele>516.6</ele>
        <time>1970-01-01T00:10:23.000Z</time>
      </trkpt>
      <trkpt lat="45.96583" lon="4.56481">
        <ele>516.7</ele>
        <time>1970-01-01T00:10:24.000Z</time>
      </trkpt>
      <trkpt lat="45.96583" lon="4.56481">
        <ele>516.7</ele>
        <time>1970-01-01T00:10:25.000Z</time>
      </trkpt>
      <trkpt lat="45.96585" lon="4.56481">
        <ele>516.7</ele>
        <time>1970-01-01T00:10:26.000Z</time>
      </trkpt>
      <trkpt lat="45.96585" lon="4.56481">
        <ele>516.7</ele>
        <time>1970-01-01T00:10:27.000Z</time>
      </trkpt>
      <trkpt lat="45.96587" lon="4.56482">
        <ele>516.8</ele>
        <time>1970-01-01T00:10:28.000Z</time>
      </trkpt>
      <trkpt lat="45.96587" lon="4.56482">
        <ele>516.8</ele>
        <time>1970-01-01T00:10:29.000Z</time>
      </trkpt>
      <trkpt lat="45.9659" lon="4.56482">
        <ele>516.8</ele>
        <time>1970-01-01T00:10:30.000Z</time>
      </trkpt>
      <trkpt lat="45.9659" lon="4.56482">
        <ele>516.8</ele>
        <time>1970-01-01T00:10:31.000Z</time>
      </trkpt>
      <trkpt lat="45.96592" lon="4.56482">
        <ele>516.9</ele>
        <time>1970-01-01T00:10:32.000Z</time>
      </trkpt>
      <trkpt lat="45.96592" lon="4.56482">
        <ele>516.9</ele>
        <time>1970-01-01T00:10:33.000Z</time>
      </trkpt>
      <trkpt lat="45.96594" lon="4.56483">
        <ele>516.9</ele>
        <time>1970-01-01T00:10:34.000Z</time>
      </trkpt>
      <trkpt lat="45.96594" lon="4.56483">
        <ele>516.9</ele>
        <time>1970-01-01T00:10:35.000Z</time>
      </trkpt>
      <trkpt lat="45.96596" lon="4.56483">
        <ele>517</ele>
        <time>1970-01-01T00:10:36.000Z</time>
      </trkpt>
      <trkpt lat="45.96596" lon="4.56483">
        <ele>517</ele>
        <time>1970-01-01T00:10:37.000Z</time>
      </trkpt>
      <trkpt lat="45.96599" lon="4.56484">
        <ele>517.1</ele>
        <time>1970-01-01T00:10:38.000Z</time>
      </trkpt>
      <trkpt lat="45.96599" lon="4.56484">
        <ele>517.1</ele>
        <time>1970-01-01T00:10:39.000Z</time>
      </trkpt>
      <trkpt lat="45.96601" lon="4.56485">
        <ele>517.1</ele>
        <time>1970-01-01T00:10:40.000Z</time>
      </trkpt>
      <trkpt lat="45.96601" lon="4.56485">
        <ele>517.1</ele>
        <time>1970-01-01T00:10:41.000Z</time>
      </trkpt>
      <trkpt lat="45.96603" lon="4.56486">
        <ele>517.2</ele>
        <time>1970-01-01T00:10:42.000Z</time>
      </trkpt>
      <trkpt lat="45.96603" lon="4.56486">
        <ele>517.2</ele>
        <time>1970-01-01T00:10:43.000Z</time>
      </trkpt>
      <trkpt lat="45.96605" lon="4.56487">
        <ele>517.3</ele>
        <time>1970-01-01T00:10:44.000Z</time>
      </trkpt>
      <trkpt lat="45.96605" lon="4.56487">
        <ele>517.3</ele>
        <time>1970-01-01T00:10:45.000Z</time>
      </trkpt>
      <trkpt lat="45.96608" lon="4.56487">
        <ele>517.3</ele>
        <time>1970-01-01T00:10:46.000Z</time>
      </trkpt>
      <trkpt lat="45.96608" lon="4.56487">
        <ele>517.3</ele>
        <time>1970-01-01T00:10:47.000Z</time>
      </trkpt>
      <trkpt lat="45.9661" lon="4.56487">
        <ele>517.4</ele>
        <time>1970-01-01T00:10:48.000Z</time>
      </trkpt>
      <trkpt lat="45.9661" lon="4.56487">
        <ele>517.4</ele>
        <time>1970-01-01T00:10:49.000Z</time>
      </trkpt>
      <trkpt lat="45.96612" lon="4.56487">
        <ele>517.4</ele>
        <time>1970-01-01T00:10:50.000Z</time>
      </trkpt>
      <trkpt lat="45.96612" lon="4.56487">
        <ele>517.4</ele>
        <time>1970-01-01T00:10:51.000Z</time>
      </trkpt>
      <trkpt lat="45.96614" lon="4.56487">
        <ele>517.5</ele>
        <time>1970-01-01T00:10:52.000Z</time>
      </trkpt>
      <trkpt lat="45.96614" lon="4.56487">
        <ele>517.5</ele>
        <time>1970-01-01T00:10:53.000Z</time>
      </trkpt>
      <trkpt lat="45.96616" lon="4.56488">
        <ele>517.5</ele>
        <time>1970-01-01T00:10:54.000Z</time>
      </trkpt>
      <trkpt lat="45.96616" lon="4.56488">
        <ele>517.5</ele>
        <time>1970-01-01T00:10:55.000Z</time>
      </trkpt>
      <trkpt lat="45.96619" lon="4.56489">
        <ele>517.6</ele>
        <time>1970-01-01T00:10:56.000Z</time>
      </trkpt>
      <trkpt lat="45.96619" lon="4.56489">
        <ele>517.6</ele>
        <time>1970-01-01T00:10:57.000Z</time>
      </trkpt>
      <trkpt lat="45.96622" lon="4.56489">
        <ele>517.7</ele>
        <time>1970-01-01T00:10:58.000Z</time>
      </trkpt>
      <trkpt lat="45.96622" lon="4.56489">
        <ele>517.7</ele>
        <time>1970-01-01T00:10:59.000Z</time>
      </trkpt>
      <trkpt lat="45.96624" lon="4.5649">
        <ele>517.7</ele>
        <time>1970-01-01T00:11:00.000Z</time>
      </trkpt>
      <trkpt lat="45.96624" lon="4.5649">
        <ele>517.7</ele>
        <time>1970-01-01T00:11:01.000Z</time>
      </trkpt>
      <trkpt lat="45.96626" lon="4.56491">
        <ele>517.8</ele>
        <time>1970-01-01T00:11:02.000Z</time>
      </trkpt>
      <trkpt lat="45.96626" lon="4.56491">
        <ele>517.8</ele>
        <time>1970-01-01T00:11:03.000Z</time>
      </trkpt>
      <trkpt lat="45.96628" lon="4.56493">
        <ele>517.9</ele>
        <time>1970-01-01T00:11:04.000Z</time>
      </trkpt>
      <trkpt lat="45.96628" lon="4.56493">
        <ele>517.9</ele>
        <time>1970-01-01T00:11:05.000Z</time>
      </trkpt>
      <trkpt lat="45.9663" lon="4.56495">
        <ele>517.9</ele>
        <time>1970-01-01T00:11:06.000Z</time>
      </trkpt>
      <trkpt lat="45.9663" lon="4.56495">
        <ele>517.9</ele>
        <time>1970-01-01T00:11:07.000Z</time>
      </trkpt>
      <trkpt lat="45.96632" lon="4.56497">
        <ele>518</ele>
        <time>1970-01-01T00:11:08.000Z</time>
      </trkpt>
      <trkpt lat="45.96632" lon="4.56497">
        <ele>518</ele>
        <time>1970-01-01T00:11:09.000Z</time>
      </trkpt>
      <trkpt lat="45.96634" lon="4.56499">
        <ele>518.1</ele>
        <time>1970-01-01T00:11:10.000Z</time>
      </trkpt>
      <trkpt lat="45.96634" lon="4.56499">
        <ele>518.1</ele>
        <time>1970-01-01T00:11:11.000Z</time>
      </trkpt>
      <trkpt lat="45.96637" lon="4.56502">
        <ele>518.1</ele>
        <time>1970-01-01T00:11:12.000Z</time>
      </trkpt>
      <trkpt lat="45.96637" lon="4.56502">
        <ele>518.1</ele>
        <time>1970-01-01T00:11:13.000Z</time>
      </trkpt>
      <trkpt lat="45.96639" lon="4.56504">
        <ele>518.2</ele>
        <time>1970-01-01T00:11:14.000Z</time>
      </trkpt>
      <trkpt lat="45.96639" lon="4.56504">
        <ele>518.2</ele>
        <time>1970-01-01T00:11:15.000Z</time>
      </trkpt>
      <trkpt lat="45.96641" lon="4.56506">
        <ele>518.3</ele>
        <time>1970-01-01T00:11:16.000Z</time>
      </trkpt>
      <trkpt lat="45.96641" lon="4.56506">
        <ele>518.3</ele>
        <time>1970-01-01T00:11:17.000Z</time>
      </trkpt>
      <trkpt lat="45.96643" lon="4.56508">
        <ele>518.3</ele>
        <time>1970-01-01T00:11:18.000Z</time>
      </trkpt>
      <trkpt lat="45.96643" lon="4.56508">
        <ele>518.3</ele>
        <time>1970-01-01T00:11:19.000Z</time>
      </trkpt>
      <trkpt lat="45.96645" lon="4.5651">
        <ele>518.4</ele>
        <time>1970-01-01T00:11:20.000Z</time>
      </trkpt>
      <trkpt lat="45.96645" lon="4.5651">
        <ele>518.4</ele>
        <time>1970-01-01T00:11:21.000Z</time>
      </trkpt>
      <trkpt lat="45.96647" lon="4.56513">
        <ele>518.5</ele>
        <time>1970-01-01T00:11:22.000Z</time>
      </trkpt>
      <trkpt lat="45.96647" lon="4.56513">
        <ele>518.5</ele>
        <time>1970-01-01T00:11:23.000Z</time>
      </trkpt>
      <trkpt lat="45.96649" lon="4.56515">
        <ele>518.5</ele>
        <time>1970-01-01T00:11:24.000Z</time>
      </trkpt>
      <trkpt lat="45.96649" lon="4.56515">
        <ele>518.5</ele>
        <time>1970-01-01T00:11:25.000Z</time>
      </trkpt>
      <trkpt lat="45.9665" lon="4.56517">
        <ele>518.6</ele>
        <time>1970-01-01T00:11:26.000Z</time>
      </trkpt>
      <trkpt lat="45.9665" lon="4.56517">
        <ele>518.6</ele>
        <time>1970-01-01T00:11:27.000Z</time>
      </trkpt>
      <trkpt lat="45.96652" lon="4.5652">
        <ele>518.6</ele>
        <time>1970-01-01T00:11:28.000Z</time>
      </trkpt>
      <trkpt lat="45.96652" lon="4.5652">
        <ele>518.6</ele>
        <time>1970-01-01T00:11:29.000Z</time>
      </trkpt>
      <trkpt lat="45.96654" lon="4.56522">
        <ele>518.7</ele>
        <time>1970-01-01T00:11:30.000Z</time>
      </trkpt>
      <trkpt lat="45.96654" lon="4.56522">
        <ele>518.7</ele>
        <time>1970-01-01T00:11:31.000Z</time>
      </trkpt>
      <trkpt lat="45.96655" lon="4.56524">
        <ele>518.7</ele>
        <time>1970-01-01T00:11:32.000Z</time>
      </trkpt>
      <trkpt lat="45.96655" lon="4.56524">
        <ele>518.7</ele>
        <time>1970-01-01T00:11:33.000Z</time>
      </trkpt>
      <trkpt lat="45.96657" lon="4.56526">
        <ele>518.8</ele>
        <time>1970-01-01T00:11:34.000Z</time>
      </trkpt>
      <trkpt lat="45.96657" lon="4.56526">
        <ele>518.8</ele>
        <time>1970-01-01T00:11:35.000Z</time>
      </trkpt>
      <trkpt lat="45.96659" lon="4.56528">
        <ele>518.8</ele>
        <time>1970-01-01T00:11:36.000Z</time>
      </trkpt>
      <trkpt lat="45.96659" lon="4.56528">
        <ele>518.8</ele>
        <time>1970-01-01T00:11:37.000Z</time>
      </trkpt>
      <trkpt lat="45.96661" lon="4.5653">
        <ele>518.9</ele>
        <time>1970-01-01T00:11:38.000Z</time>
      </trkpt>
      <trkpt lat="45.96661" lon="4.5653">
        <ele>518.9</ele>
        <time>1970-01-01T00:11:39.000Z</time>
      </trkpt>
      <trkpt lat="45.96663" lon="4.56532">
        <ele>519</ele>
        <time>1970-01-01T00:11:40.000Z</time>
      </trkpt>
      <trkpt lat="45.96663" lon="4.56532">
        <ele>519</ele>
        <time>1970-01-01T00:11:41.000Z</time>
      </trkpt>
      <trkpt lat="45.96664" lon="4.56535">
        <ele>519</ele>
        <time>1970-01-01T00:11:42.000Z</time>
      </trkpt>
      <trkpt lat="45.96664" lon="4.56535">
        <ele>519</ele>
        <time>1970-01-01T00:11:43.000Z</time>
      </trkpt>
      <trkpt lat="45.96666" lon="4.56537">
        <ele>519.1</ele>
        <time>1970-01-01T00:11:44.000Z</time>
      </trkpt>
      <trkpt lat="45.96666" lon="4.56537">
        <ele>519.1</ele>
        <time>1970-01-01T00:11:45.000Z</time>
      </trkpt>
      <trkpt lat="45.96667" lon="4.5654">
        <ele>519.1</ele>
        <time>1970-01-01T00:11:46.000Z</time>
      </trkpt>
      <trkpt lat="45.96667" lon="4.5654">
        <ele>519.1</ele>
        <time>1970-01-01T00:11:47.000Z</time>
      </trkpt>
      <trkpt lat="45.96668" lon="4.56542">
        <ele>519.2</ele>
        <time>1970-01-01T00:11:48.000Z</time>
      </trkpt>
      <trkpt lat="45.96668" lon="4.56542">
        <ele>519.2</ele>
        <time>1970-01-01T00:11:49.000Z</time>
      </trkpt>
      <trkpt lat="45.96669" lon="4.56545">
        <ele>519.2</ele>
        <time>1970-01-01T00:11:50.000Z</time>
      </trkpt>
      <trkpt lat="45.96669" lon="4.56545">
        <ele>519.2</ele>
        <time>1970-01-01T00:11:51.000Z</time>
      </trkpt>
      <trkpt lat="45.9667" lon="4.56548">
        <ele>519.3</ele>
        <time>1970-01-01T00:11:52.000Z</time>
      </trkpt>
      <trkpt lat="45.9667" lon="4.56548">
        <ele>519.3</ele>
        <time>1970-01-01T00:11:53.000Z</time>
      </trkpt>
      <trkpt lat="45.96671" lon="4.56551">
        <ele>519.4</ele>
        <time>1970-01-01T00:11:54.000Z</time>
      </trkpt>
      <trkpt lat="45.96671" lon="4.56551">
        <ele>519.4</ele>
        <time>1970-01-01T00:11:55.000Z</time>
      </trkpt>
      <trkpt lat="45.96672" lon="4.56554">
        <ele>519.4</ele>
        <time>1970-01-01T00:11:56.000Z</time>
      </trkpt>
      <trkpt lat="45.96672" lon="4.56554">
        <ele>519.4</ele>
        <time>1970-01-01T00:11:57.000Z</time>
      </trkpt>
      <trkpt lat="45.96673" lon="4.56557">
        <ele>519.5</ele>
        <time>1970-01-01T00:11:58.000Z</time>
      </trkpt>
      <trkpt lat="45.96673" lon="4.56557">
        <ele>519.5</ele>
        <time>1970-01-01T00:11:59.000Z</time>
      </trkpt>
      <trkpt lat="45.96674" lon="4.56561">
        <ele>519.6</ele>
        <time>1970-01-01T00:12:00.000Z</time>
      </trkpt>
      <trkpt lat="45.96674" lon="4.56561">
        <ele>519.6</ele>
        <time>1970-01-01T00:12:01.000Z</time>
      </trkpt>
      <trkpt lat="45.96675" lon="4.56564">
        <ele>519.7</ele>
        <time>1970-01-01T00:12:02.000Z</time>
      </trkpt>
      <trkpt lat="45.96675" lon="4.56564">
        <ele>519.7</ele>
        <time>1970-01-01T00:12:03.000Z</time>
      </trkpt>
      <trkpt lat="45.96676" lon="4.56567">
        <ele>519.7</ele>
        <time>1970-01-01T00:12:04.000Z</time>
      </trkpt>
      <trkpt lat="45.96676" lon="4.56567">
        <ele>519.7</ele>
        <time>1970-01-01T00:12:05.000Z</time>
      </trkpt>
      <trkpt lat="45.96677" lon="4.5657">
        <ele>519.8</ele>
        <time>1970-01-01T00:12:06.000Z</time>
      </trkpt>
      <trkpt lat="45.96677" lon="4.5657">
        <ele>519.8</ele>
        <time>1970-01-01T00:12:07.000Z</time>
      </trkpt>
      <trkpt lat="45.96678" lon="4.56573">
        <ele>519.9</ele>
        <time>1970-01-01T00:12:08.000Z</time>
      </trkpt>
      <trkpt lat="45.96678" lon="4.56573">
        <ele>519.9</ele>
        <time>1970-01-01T00:12:09.000Z</time>
      </trkpt>
      <trkpt lat="45.9668" lon="4.56577">
        <ele>520</ele>
        <time>1970-01-01T00:12:10.000Z</time>
      </trkpt>
      <trkpt lat="45.9668" lon="4.56577">
        <ele>520</ele>
        <time>1970-01-01T00:12:11.000Z</time>
      </trkpt>
      <trkpt lat="45.9668" lon="4.56579">
        <ele>520</ele>
        <time>1970-01-01T00:12:12.000Z</time>
      </trkpt>
      <trkpt lat="45.9668" lon="4.56579">
        <ele>520</ele>
        <time>1970-01-01T00:12:13.000Z</time>
      </trkpt>
      <trkpt lat="45.96681" lon="4.56582">
        <ele>520.1</ele>
        <time>1970-01-01T00:12:14.000Z</time>
      </trkpt>
      <trkpt lat="45.96681" lon="4.56582">
        <ele>520.1</ele>
        <time>1970-01-01T00:12:15.000Z</time>
      </trkpt>
      <trkpt lat="45.96682" lon="4.56586">
        <ele>520.2</ele>
        <time>1970-01-01T00:12:16.000Z</time>
      </trkpt>
      <trkpt lat="45.96682" lon="4.56586">
        <ele>520.2</ele>
        <time>1970-01-01T00:12:17.000Z</time>
      </trkpt>
      <trkpt lat="45.96683" lon="4.56588">
        <ele>520.2</ele>
        <time>1970-01-01T00:12:18.000Z</time>
      </trkpt>
      <trkpt lat="45.96683" lon="4.56588">
        <ele>520.2</ele>
        <time>1970-01-01T00:12:19.000Z</time>
      </trkpt>
      <trkpt lat="45.96684" lon="4.56591">
        <ele>520.3</ele>
        <time>1970-01-01T00:12:20.000Z</time>
      </trkpt>
      <trkpt lat="45.96684" lon="4.56591">
        <ele>520.3</ele>
        <time>1970-01-01T00:12:21.000Z</time>
      </trkpt>
      <trkpt lat="45.96685" lon="4.56594">
        <ele>520.4</ele>
        <time>1970-01-01T00:12:22.000Z</time>
      </trkpt>
      <trkpt lat="45.96685" lon="4.56594">
        <ele>520.4</ele>
        <time>1970-01-01T00:12:23.000Z</time>
      </trkpt>
      <trkpt lat="45.96687" lon="4.56597">
        <ele>520.4</ele>
        <time>1970-01-01T00:12:24.000Z</time>
      </trkpt>
      <trkpt lat="45.96687" lon="4.56597">
        <ele>520.4</ele>
        <time>1970-01-01T00:12:25.000Z</time>
      </trkpt>
      <trkpt lat="45.96688" lon="4.566">
        <ele>520.5</ele>
        <time>1970-01-01T00:12:26.000Z</time>
      </trkpt>
      <trkpt lat="45.96688" lon="4.566">
        <ele>520.5</ele>
        <time>1970-01-01T00:12:27.000Z</time>
      </trkpt>
      <trkpt lat="45.96689" lon="4.56603">
        <ele>520.6</ele>
        <time>1970-01-01T00:12:28.000Z</time>
      </trkpt>
      <trkpt lat="45.96689" lon="4.56603">
        <ele>520.6</ele>
        <time>1970-01-01T00:12:29.000Z</time>
      </trkpt>
      <trkpt lat="45.9669" lon="4.56606">
        <ele>520.6</ele>
        <time>1970-01-01T00:12:30.000Z</time>
      </trkpt>
      <trkpt lat="45.9669" lon="4.56606">
        <ele>520.6</ele>
        <time>1970-01-01T00:12:31.000Z</time>
      </trkpt>
      <trkpt lat="45.96691" lon="4.56609">
        <ele>520.7</ele>
        <time>1970-01-01T00:12:32.000Z</time>
      </trkpt>
      <trkpt lat="45.96691" lon="4.56609">
        <ele>520.7</ele>
        <time>1970-01-01T00:12:33.000Z</time>
      </trkpt>
      <trkpt lat="45.96692" lon="4.56612">
        <ele>520.8</ele>
        <time>1970-01-01T00:12:34.000Z</time>
      </trkpt>
      <trkpt lat="45.96692" lon="4.56612">
        <ele>520.8</ele>
        <time>1970-01-01T00:12:35.000Z</time>
      </trkpt>
      <trkpt lat="45.96693" lon="4.56615">
        <ele>520.8</ele>
        <time>1970-01-01T00:12:36.000Z</time>
      </trkpt>
      <trkpt lat="45.96693" lon="4.56615">
        <ele>520.8</ele>
        <time>1970-01-01T00:12:37.000Z</time>
      </trkpt>
      <trkpt lat="45.96694" lon="4.56618">
        <ele>520.9</ele>
        <time>1970-01-01T00:12:38.000Z</time>
      </trkpt>
      <trkpt lat="45.96694" lon="4.56618">
        <ele>520.9</ele>
        <time>1970-01-01T00:12:39.000Z</time>
      </trkpt>
      <trkpt lat="45.96695" lon="4.5662">
        <ele>521</ele>
        <time>1970-01-01T00:12:40.000Z</time>
      </trkpt>
      <trkpt lat="45.96695" lon="4.5662">
        <ele>521</ele>
        <time>1970-01-01T00:12:41.000Z</time>
      </trkpt>
      <trkpt lat="45.96696" lon="4.56623">
        <ele>521</ele>
        <time>1970-01-01T00:12:42.000Z</time>
      </trkpt>
      <trkpt lat="45.96696" lon="4.56623">
        <ele>521</ele>
        <time>1970-01-01T00:12:43.000Z</time>
      </trkpt>
      <trkpt lat="45.96697" lon="4.56626">
        <ele>521.1</ele>
        <time>1970-01-01T00:12:44.000Z</time>
      </trkpt>
      <trkpt lat="45.96697" lon="4.56626">
        <ele>521.1</ele>
        <time>1970-01-01T00:12:45.000Z</time>
      </trkpt>
      <trkpt lat="45.96698" lon="4.56629">
        <ele>521.1</ele>
        <time>1970-01-01T00:12:46.000Z</time>
      </trkpt>
      <trkpt lat="45.96698" lon="4.56629">
        <ele>521.1</ele>
        <time>1970-01-01T00:12:47.000Z</time>
      </trkpt>
      <trkpt lat="45.967" lon="4.56632">
        <ele>521.2</ele>
        <time>1970-01-01T00:12:48.000Z</time>
      </trkpt>
      <trkpt lat="45.967" lon="4.56632">
        <ele>521.2</ele>
        <time>1970-01-01T00:12:49.000Z</time>
      </trkpt>
      <trkpt lat="45.96701" lon="4.56635">
        <ele>521.3</ele>
        <time>1970-01-01T00:12:50.000Z</time>
      </trkpt>
      <trkpt lat="45.96701" lon="4.56635">
        <ele>521.3</ele>
        <time>1970-01-01T00:12:51.000Z</time>
      </trkpt>
      <trkpt lat="45.96702" lon="4.56638">
        <ele>521.3</ele>
        <time>1970-01-01T00:12:52.000Z</time>
      </trkpt>
      <trkpt lat="45.96702" lon="4.56638">
        <ele>521.3</ele>
        <time>1970-01-01T00:12:53.000Z</time>
      </trkpt>
      <trkpt lat="45.96703" lon="4.56641">
        <ele>521.4</ele>
        <time>1970-01-01T00:12:54.000Z</time>
      </trkpt>
      <trkpt lat="45.96703" lon="4.56641">
        <ele>521.4</ele>
        <time>1970-01-01T00:12:55.000Z</time>
      </trkpt>
      <trkpt lat="45.96704" lon="4.56644">
        <ele>521.5</ele>
        <time>1970-01-01T00:12:56.000Z</time>
      </trkpt>
      <trkpt lat="45.96704" lon="4.56644">
        <ele>521.5</ele>
        <time>1970-01-01T00:12:57.000Z</time>
      </trkpt>
      <trkpt lat="45.96706" lon="4.56646">
        <ele>521.6</ele>
        <time>1970-01-01T00:12:58.000Z</time>
      </trkpt>
      <trkpt lat="45.96706" lon="4.56646">
        <ele>521.6</ele>
        <time>1970-01-01T00:12:59.000Z</time>
      </trkpt>
      <trkpt lat="45.96707" lon="4.56649">
        <ele>521.7</ele>
        <time>1970-01-01T00:13:00.000Z</time>
      </trkpt>
      <trkpt lat="45.96707" lon="4.56649">
        <ele>521.7</ele>
        <time>1970-01-01T00:13:01.000Z</time>
      </trkpt>
      <trkpt lat="45.96708" lon="4.56652">
        <ele>521.7</ele>
        <time>1970-01-01T00:13:02.000Z</time>
      </trkpt>
      <trkpt lat="45.96708" lon="4.56652">
        <ele>521.7</ele>
        <time>1970-01-01T00:13:03.000Z</time>
      </trkpt>
      <trkpt lat="45.96709" lon="4.56655">
        <ele>521.8</ele>
        <time>1970-01-01T00:13:04.000Z</time>
      </trkpt>
      <trkpt lat="45.96709" lon="4.56655">
        <ele>521.8</ele>
        <time>1970-01-01T00:13:05.000Z</time>
      </trkpt>
      <trkpt lat="45.9671" lon="4.56657">
        <ele>521.9</ele>
        <time>1970-01-01T00:13:06.000Z</time>
      </trkpt>
      <trkpt lat="45.9671" lon="4.56657">
        <ele>521.9</ele>
        <time>1970-01-01T00:13:07.000Z</time>
      </trkpt>
      <trkpt lat="45.96712" lon="4.5666">
        <ele>522</ele>
        <time>1970-01-01T00:13:08.000Z</time>
      </trkpt>
      <trkpt lat="45.96712" lon="4.5666">
        <ele>522</ele>
        <time>1970-01-01T00:13:09.000Z</time>
      </trkpt>
      <trkpt lat="45.96714" lon="4.56663">
        <ele>522.1</ele>
        <time>1970-01-01T00:13:10.000Z</time>
      </trkpt>
      <trkpt lat="45.96714" lon="4.56663">
        <ele>522.1</ele>
        <time>1970-01-01T00:13:11.000Z</time>
      </trkpt>
      <trkpt lat="45.96715" lon="4.56666">
        <ele>522.2</ele>
        <time>1970-01-01T00:13:12.000Z</time>
      </trkpt>
      <trkpt lat="45.96715" lon="4.56666">
        <ele>522.2</ele>
        <time>1970-01-01T00:13:13.000Z</time>
      </trkpt>
      <trkpt lat="45.96716" lon="4.56669">
        <ele>522.2</ele>
        <time>1970-01-01T00:13:14.000Z</time>
      </trkpt>
      <trkpt lat="45.96716" lon="4.56669">
        <ele>522.2</ele>
        <time>1970-01-01T00:13:15.000Z</time>
      </trkpt>
      <trkpt lat="45.96717" lon="4.56672">
        <ele>522.3</ele>
        <time>1970-01-01T00:13:16.000Z</time>
      </trkpt>
      <trkpt lat="45.96717" lon="4.56672">
        <ele>522.3</ele>
        <time>1970-01-01T00:13:17.000Z</time>
      </trkpt>
      <trkpt lat="45.96719" lon="4.56674">
        <ele>522.4</ele>
        <time>1970-01-01T00:13:18.000Z</time>
      </trkpt>
      <trkpt lat="45.96719" lon="4.56674">
        <ele>522.4</ele>
        <time>1970-01-01T00:13:19.000Z</time>
      </trkpt>
      <trkpt lat="45.9672" lon="4.56677">
        <ele>522.5</ele>
        <time>1970-01-01T00:13:20.000Z</time>
      </trkpt>
      <trkpt lat="45.9672" lon="4.56677">
        <ele>522.5</ele>
        <time>1970-01-01T00:13:21.000Z</time>
      </trkpt>
      <trkpt lat="45.96722" lon="4.5668">
        <ele>522.6</ele>
        <time>1970-01-01T00:13:22.000Z</time>
      </trkpt>
      <trkpt lat="45.96722" lon="4.5668">
        <ele>522.6</ele>
        <time>1970-01-01T00:13:23.000Z</time>
      </trkpt>
      <trkpt lat="45.96724" lon="4.56683">
        <ele>523.3</ele>
        <time>1970-01-01T00:13:24.000Z</time>
      </trkpt>
      <trkpt lat="45.96724" lon="4.56683">
        <ele>523.3</ele>
        <time>1970-01-01T00:13:25.000Z</time>
      </trkpt>
      <trkpt lat="45.96725" lon="4.56686">
        <ele>523.7</ele>
        <time>1970-01-01T00:13:26.000Z</time>
      </trkpt>
      <trkpt lat="45.96725" lon="4.56686">
        <ele>523.7</ele>
        <time>1970-01-01T00:13:27.000Z</time>
      </trkpt>
      <trkpt lat="45.96726" lon="4.56689">
        <ele>524.2</ele>
        <time>1970-01-01T00:13:28.000Z</time>
      </trkpt>
      <trkpt lat="45.96726" lon="4.56689">
        <ele>524.2</ele>
        <time>1970-01-01T00:13:29.000Z</time>
      </trkpt>
      <trkpt lat="45.96727" lon="4.56691">
        <ele>524.6</ele>
        <time>1970-01-01T00:13:30.000Z</time>
      </trkpt>
      <trkpt lat="45.96727" lon="4.56691">
        <ele>524.6</ele>
        <time>1970-01-01T00:13:31.000Z</time>
      </trkpt>
      <trkpt lat="45.96728" lon="4.56694">
        <ele>525.1</ele>
        <time>1970-01-01T00:13:32.000Z</time>
      </trkpt>
      <trkpt lat="45.96728" lon="4.56694">
        <ele>525.1</ele>
        <time>1970-01-01T00:13:33.000Z</time>
      </trkpt>
      <trkpt lat="45.96729" lon="4.56697">
        <ele>525.5</ele>
        <time>1970-01-01T00:13:34.000Z</time>
      </trkpt>
      <trkpt lat="45.96729" lon="4.56697">
        <ele>525.5</ele>
        <time>1970-01-01T00:13:35.000Z</time>
      </trkpt>
      <trkpt lat="45.9673" lon="4.567">
        <ele>525.9</ele>
        <time>1970-01-01T00:13:36.000Z</time>
      </trkpt>
      <trkpt lat="45.9673" lon="4.567">
        <ele>525.9</ele>
        <time>1970-01-01T00:13:37.000Z</time>
      </trkpt>
      <trkpt lat="45.96731" lon="4.56704">
        <ele>526.4</ele>
        <time>1970-01-01T00:13:38.000Z</time>
      </trkpt>
      <trkpt lat="45.96731" lon="4.56704">
        <ele>526.4</ele>
        <time>1970-01-01T00:13:39.000Z</time>
      </trkpt>
      <trkpt lat="45.96732" lon="4.56707">
        <ele>526.8</ele>
        <time>1970-01-01T00:13:40.000Z</time>
      </trkpt>
      <trkpt lat="45.96732" lon="4.56707">
        <ele>526.8</ele>
        <time>1970-01-01T00:13:41.000Z</time>
      </trkpt>
      <trkpt lat="45.96732" lon="4.5671">
        <ele>527.2</ele>
        <time>1970-01-01T00:13:42.000Z</time>
      </trkpt>
      <trkpt lat="45.96732" lon="4.5671">
        <ele>527.2</ele>
        <time>1970-01-01T00:13:43.000Z</time>
      </trkpt>
      <trkpt lat="45.96732" lon="4.56713">
        <ele>527.5</ele>
        <time>1970-01-01T00:13:44.000Z</time>
      </trkpt>
      <trkpt lat="45.96732" lon="4.56713">
        <ele>527.5</ele>
        <time>1970-01-01T00:13:45.000Z</time>
      </trkpt>
      <trkpt lat="45.96732" lon="4.56716">
        <ele>527.9</ele>
        <time>1970-01-01T00:13:46.000Z</time>
      </trkpt>
      <trkpt lat="45.96732" lon="4.56716">
        <ele>527.9</ele>
        <time>1970-01-01T00:13:47.000Z</time>
      </trkpt>
      <trkpt lat="45.96733" lon="4.56719">
        <ele>528.2</ele>
        <time>1970-01-01T00:13:48.000Z</time>
      </trkpt>
      <trkpt lat="45.96733" lon="4.56719">
        <ele>528.2</ele>
        <time>1970-01-01T00:13:49.000Z</time>
      </trkpt>
      <trkpt lat="45.96733" lon="4.56722">
        <ele>528.5</ele>
        <time>1970-01-01T00:13:50.000Z</time>
      </trkpt>
      <trkpt lat="45.96733" lon="4.56722">
        <ele>528.5</ele>
        <time>1970-01-01T00:13:51.000Z</time>
      </trkpt>
      <trkpt lat="45.96734" lon="4.56725">
        <ele>528.9</ele>
        <time>1970-01-01T00:13:52.000Z</time>
      </trkpt>
      <trkpt lat="45.96734" lon="4.56725">
        <ele>528.9</ele>
        <time>1970-01-01T00:13:53.000Z</time>
      </trkpt>
      <trkpt lat="45.96735" lon="4.56729">
        <ele>529.3</ele>
        <time>1970-01-01T00:13:54.000Z</time>
      </trkpt>
      <trkpt lat="45.96735" lon="4.56729">
        <ele>529.3</ele>
        <time>1970-01-01T00:13:55.000Z</time>
      </trkpt>
      <trkpt lat="45.96736" lon="4.56731">
        <ele>529.6</ele>
        <time>1970-01-01T00:13:56.000Z</time>
      </trkpt>
      <trkpt lat="45.96736" lon="4.56731">
        <ele>529.6</ele>
        <time>1970-01-01T00:13:57.000Z</time>
      </trkpt>
      <trkpt lat="45.96738" lon="4.56734">
        <ele>530</ele>
        <time>1970-01-01T00:13:58.000Z</time>
      </trkpt>
      <trkpt lat="45.96738" lon="4.56734">
        <ele>530</ele>
        <time>1970-01-01T00:13:59.000Z</time>
      </trkpt>
      <trkpt lat="45.96739" lon="4.56737">
        <ele>530.4</ele>
        <time>1970-01-01T00:14:00.000Z</time>
      </trkpt>
      <trkpt lat="45.96739" lon="4.56737">
        <ele>530.4</ele>
        <time>1970-01-01T00:14:01.000Z</time>
      </trkpt>
      <trkpt lat="45.9674" lon="4.5674">
        <ele>530.7</ele>
        <time>1970-01-01T00:14:02.000Z</time>
      </trkpt>
      <trkpt lat="45.9674" lon="4.5674">
        <ele>530.7</ele>
        <time>1970-01-01T00:14:03.000Z</time>
      </trkpt>
      <trkpt lat="45.9674" lon="4.56743">
        <ele>531.1</ele>
        <time>1970-01-01T00:14:04.000Z</time>
      </trkpt>
      <trkpt lat="45.9674" lon="4.56743">
        <ele>531.1</ele>
        <time>1970-01-01T00:14:05.000Z</time>
      </trkpt>
      <trkpt lat="45.96741" lon="4.56746">
        <ele>531.5</ele>
        <time>1970-01-01T00:14:06.000Z</time>
      </trkpt>
      <trkpt lat="45.96741" lon="4.56746">
        <ele>531.5</ele>
        <time>1970-01-01T00:14:07.000Z</time>
      </trkpt>
      <trkpt lat="45.96741" lon="4.56746">
        <ele>531.5</ele>
        <time>1970-01-01T00:14:08.000Z</time>
      </trkpt>
      <trkpt lat="45.96741" lon="4.5675">
        <ele>531.9</ele>
        <time>1970-01-01T00:14:09.000Z</time>
      </trkpt>
      <trkpt lat="45.96741" lon="4.5675">
        <ele>531.9</ele>
        <time>1970-01-01T00:14:10.000Z</time>
      </trkpt>
      <trkpt lat="45.96741" lon="4.5675">
        <ele>531.9</ele>
        <time>1970-01-01T00:14:11.000Z</time>
      </trkpt>
      <trkpt lat="45.96741" lon="4.56754">
        <ele>532.5</ele>
        <time>1970-01-01T00:14:12.000Z</time>
      </trkpt>
      <trkpt lat="45.96741" lon="4.56754">
        <ele>532.5</ele>
        <time>1970-01-01T00:14:13.000Z</time>
      </trkpt>
      <trkpt lat="45.96742" lon="4.56757">
        <ele>532.8</ele>
        <time>1970-01-01T00:14:14.000Z</time>
      </trkpt>
      <trkpt lat="45.96742" lon="4.56757">
        <ele>532.8</ele>
        <time>1970-01-01T00:14:15.000Z</time>
      </trkpt>
      <trkpt lat="45.96742" lon="4.56761">
        <ele>533.3</ele>
        <time>1970-01-01T00:14:16.000Z</time>
      </trkpt>
      <trkpt lat="45.96742" lon="4.56761">
        <ele>533.3</ele>
        <time>1970-01-01T00:14:17.000Z</time>
      </trkpt>
      <trkpt lat="45.96743" lon="4.56766">
        <ele>533.9</ele>
        <time>1970-01-01T00:14:18.000Z</time>
      </trkpt>
      <trkpt lat="45.96743" lon="4.56766">
        <ele>533.9</ele>
        <time>1970-01-01T00:14:19.000Z</time>
      </trkpt>
      <trkpt lat="45.96744" lon="4.56769">
        <ele>534.3</ele>
        <time>1970-01-01T00:14:20.000Z</time>
      </trkpt>
      <trkpt lat="45.96744" lon="4.56769">
        <ele>534.3</ele>
        <time>1970-01-01T00:14:21.000Z</time>
      </trkpt>
      <trkpt lat="45.96745" lon="4.56772">
        <ele>534.7</ele>
        <time>1970-01-01T00:14:22.000Z</time>
      </trkpt>
      <trkpt lat="45.96745" lon="4.56772">
        <ele>534.7</ele>
        <time>1970-01-01T00:14:23.000Z</time>
      </trkpt>
      <trkpt lat="45.96746" lon="4.56775">
        <ele>535.1</ele>
        <time>1970-01-01T00:14:24.000Z</time>
      </trkpt>
      <trkpt lat="45.96746" lon="4.56775">
        <ele>535.1</ele>
        <time>1970-01-01T00:14:25.000Z</time>
      </trkpt>
      <trkpt lat="45.96746" lon="4.56775">
        <ele>535.1</ele>
        <time>1970-01-01T00:14:26.000Z</time>
      </trkpt>
      <trkpt lat="45.96748" lon="4.56778">
        <ele>535.6</ele>
        <time>1970-01-01T00:14:27.000Z</time>
      </trkpt>
      <trkpt lat="45.96748" lon="4.56778">
        <ele>535.6</ele>
        <time>1970-01-01T00:14:28.000Z</time>
      </trkpt>
      <trkpt lat="45.96749" lon="4.56781">
        <ele>536</ele>
        <time>1970-01-01T00:14:29.000Z</time>
      </trkpt>
      <trkpt lat="45.96749" lon="4.56781">
        <ele>536</ele>
        <time>1970-01-01T00:14:30.000Z</time>
      </trkpt>
      <trkpt lat="45.9675" lon="4.56784">
        <ele>536.4</ele>
        <time>1970-01-01T00:14:31.000Z</time>
      </trkpt>
      <trkpt lat="45.9675" lon="4.56784">
        <ele>536.4</ele>
        <time>1970-01-01T00:14:32.000Z</time>
      </trkpt>
      <trkpt lat="45.96751" lon="4.56786">
        <ele>536.7</ele>
        <time>1970-01-01T00:14:33.000Z</time>
      </trkpt>
      <trkpt lat="45.96751" lon="4.56786">
        <ele>536.7</ele>
        <time>1970-01-01T00:14:34.000Z</time>
      </trkpt>
      <trkpt lat="45.96752" lon="4.56788">
        <ele>537</ele>
        <time>1970-01-01T00:14:35.000Z</time>
      </trkpt>
      <trkpt lat="45.96752" lon="4.56788">
        <ele>537</ele>
        <time>1970-01-01T00:14:36.000Z</time>
      </trkpt>
      <trkpt lat="45.96753" lon="4.56791">
        <ele>537.3</ele>
        <time>1970-01-01T00:14:37.000Z</time>
      </trkpt>
      <trkpt lat="45.96753" lon="4.56791">
        <ele>537.3</ele>
        <time>1970-01-01T00:14:38.000Z</time>
      </trkpt>
      <trkpt lat="45.96754" lon="4.56793">
        <ele>537.6</ele>
        <time>1970-01-01T00:14:39.000Z</time>
      </trkpt>
      <trkpt lat="45.96754" lon="4.56793">
        <ele>537.6</ele>
        <time>1970-01-01T00:14:40.000Z</time>
      </trkpt>
      <trkpt lat="45.96755" lon="4.56796">
        <ele>537.9</ele>
        <time>1970-01-01T00:14:41.000Z</time>
      </trkpt>
      <trkpt lat="45.96755" lon="4.56796">
        <ele>537.9</ele>
        <time>1970-01-01T00:14:42.000Z</time>
      </trkpt>
      <trkpt lat="45.96756" lon="4.56799">
        <ele>538.2</ele>
        <time>1970-01-01T00:14:43.000Z</time>
      </trkpt>
      <trkpt lat="45.96756" lon="4.56799">
        <ele>538.2</ele>
        <time>1970-01-01T00:14:44.000Z</time>
      </trkpt>
      <trkpt lat="45.96758" lon="4.56801">
        <ele>538.5</ele>
        <time>1970-01-01T00:14:45.000Z</time>
      </trkpt>
      <trkpt lat="45.96758" lon="4.56801">
        <ele>538.5</ele>
        <time>1970-01-01T00:14:46.000Z</time>
      </trkpt>
      <trkpt lat="45.96759" lon="4.56804">
        <ele>538.8</ele>
        <time>1970-01-01T00:14:47.000Z</time>
      </trkpt>
      <trkpt lat="45.96759" lon="4.56804">
        <ele>538.8</ele>
        <time>1970-01-01T00:14:48.000Z</time>
      </trkpt>
      <trkpt lat="45.9676" lon="4.56807">
        <ele>539</ele>
        <time>1970-01-01T00:14:49.000Z</time>
      </trkpt>
      <trkpt lat="45.9676" lon="4.56807">
        <ele>539</ele>
        <time>1970-01-01T00:14:50.000Z</time>
      </trkpt>
      <trkpt lat="45.96761" lon="4.5681">
        <ele>539.3</ele>
        <time>1970-01-01T00:14:51.000Z</time>
      </trkpt>
      <trkpt lat="45.96761" lon="4.5681">
        <ele>539.3</ele>
        <time>1970-01-01T00:14:52.000Z</time>
      </trkpt>
      <trkpt lat="45.96761" lon="4.56812">
        <ele>539.5</ele>
        <time>1970-01-01T00:14:53.000Z</time>
      </trkpt>
      <trkpt lat="45.96761" lon="4.56812">
        <ele>539.5</ele>
        <time>1970-01-01T00:14:54.000Z</time>
      </trkpt>
      <trkpt lat="45.96762" lon="4.56815">
        <ele>539.8</ele>
        <time>1970-01-01T00:14:55.000Z</time>
      </trkpt>
      <trkpt lat="45.96762" lon="4.56815">
        <ele>539.8</ele>
        <time>1970-01-01T00:14:56.000Z</time>
      </trkpt>
      <trkpt lat="45.96763" lon="4.56819">
        <ele>540.1</ele>
        <time>1970-01-01T00:14:57.000Z</time>
      </trkpt>
      <trkpt lat="45.96763" lon="4.56819">
        <ele>540.1</ele>
        <time>1970-01-01T00:14:58.000Z</time>
      </trkpt>
      <trkpt lat="45.96765" lon="4.56822">
        <ele>540.3</ele>
        <time>1970-01-01T00:14:59.000Z</time>
      </trkpt>
      <trkpt lat="45.96765" lon="4.56822">
        <ele>540.3</ele>
        <time>1970-01-01T00:15:00.000Z</time>
      </trkpt>
      <trkpt lat="45.96765" lon="4.56822">
        <ele>540.3</ele>
        <time>1970-01-01T00:15:01.000Z</time>
      </trkpt>
      <trkpt lat="45.96765" lon="4.56825">
        <ele>540.6</ele>
        <time>1970-01-01T00:15:02.000Z</time>
      </trkpt>
      <trkpt lat="45.96765" lon="4.56825">
        <ele>540.6</ele>
        <time>1970-01-01T00:15:03.000Z</time>
      </trkpt>
      <trkpt lat="45.96764" lon="4.56828">
        <ele>540.8</ele>
        <time>1970-01-01T00:15:04.000Z</time>
      </trkpt>
      <trkpt lat="45.96764" lon="4.56828">
        <ele>540.8</ele>
        <time>1970-01-01T00:15:05.000Z</time>
      </trkpt>
      <trkpt lat="45.96764" lon="4.56832">
        <ele>541.1</ele>
        <time>1970-01-01T00:15:06.000Z</time>
      </trkpt>
      <trkpt lat="45.96764" lon="4.56832">
        <ele>541.1</ele>
        <time>1970-01-01T00:15:07.000Z</time>
      </trkpt>
      <trkpt lat="45.96764" lon="4.56835">
        <ele>541.3</ele>
        <time>1970-01-01T00:15:08.000Z</time>
      </trkpt>
      <trkpt lat="45.96764" lon="4.56835">
        <ele>541.3</ele>
        <time>1970-01-01T00:15:09.000Z</time>
      </trkpt>
      <trkpt lat="45.96764" lon="4.56838">
        <ele>541.6</ele>
        <time>1970-01-01T00:15:10.000Z</time>
      </trkpt>
      <trkpt lat="45.96764" lon="4.56838">
        <ele>541.6</ele>
        <time>1970-01-01T00:15:11.000Z</time>
      </trkpt>
      <trkpt lat="45.96764" lon="4.5684">
        <ele>541.8</ele>
        <time>1970-01-01T00:15:12.000Z</time>
      </trkpt>
      <trkpt lat="45.96764" lon="4.5684">
        <ele>541.8</ele>
        <time>1970-01-01T00:15:13.000Z</time>
      </trkpt>
      <trkpt lat="45.96766" lon="4.56842">
        <ele>542</ele>
        <time>1970-01-01T00:15:14.000Z</time>
      </trkpt>
      <trkpt lat="45.96768" lon="4.56843">
        <ele>542.2</ele>
        <time>1970-01-01T00:15:15.000Z</time>
      </trkpt>
      <trkpt lat="45.96768" lon="4.56843">
        <ele>542.2</ele>
        <time>1970-01-01T00:15:16.000Z</time>
      </trkpt>
      <trkpt lat="45.9677" lon="4.56844">
        <ele>542.4</ele>
        <time>1970-01-01T00:15:17.000Z</time>
      </trkpt>
      <trkpt lat="45.9677" lon="4.56844">
        <ele>542.4</ele>
        <time>1970-01-01T00:15:18.000Z</time>
      </trkpt>
      <trkpt lat="45.96772" lon="4.56846">
        <ele>542.6</ele>
        <time>1970-01-01T00:15:19.000Z</time>
      </trkpt>
      <trkpt lat="45.96772" lon="4.56846">
        <ele>542.6</ele>
        <time>1970-01-01T00:15:20.000Z</time>
      </trkpt>
      <trkpt lat="45.96774" lon="4.56848">
        <ele>542.8</ele>
        <time>1970-01-01T00:15:21.000Z</time>
      </trkpt>
      <trkpt lat="45.96774" lon="4.56848">
        <ele>542.8</ele>
        <time>1970-01-01T00:15:22.000Z</time>
      </trkpt>
      <trkpt lat="45.96776" lon="4.5685">
        <ele>543</ele>
        <time>1970-01-01T00:15:23.000Z</time>
      </trkpt>
      <trkpt lat="45.96776" lon="4.5685">
        <ele>543</ele>
        <time>1970-01-01T00:15:24.000Z</time>
      </trkpt>
      <trkpt lat="45.96777" lon="4.56853">
        <ele>543.2</ele>
        <time>1970-01-01T00:15:25.000Z</time>
      </trkpt>
      <trkpt lat="45.96777" lon="4.56853">
        <ele>543.2</ele>
        <time>1970-01-01T00:15:26.000Z</time>
      </trkpt>
      <trkpt lat="45.96779" lon="4.56855">
        <ele>543.3</ele>
        <time>1970-01-01T00:15:27.000Z</time>
      </trkpt>
      <trkpt lat="45.96779" lon="4.56855">
        <ele>543.3</ele>
        <time>1970-01-01T00:15:28.000Z</time>
      </trkpt>
      <trkpt lat="45.9678" lon="4.56857">
        <ele>543.4</ele>
        <time>1970-01-01T00:15:29.000Z</time>
      </trkpt>
      <trkpt lat="45.9678" lon="4.56857">
        <ele>543.4</ele>
        <time>1970-01-01T00:15:30.000Z</time>
      </trkpt>
      <trkpt lat="45.96781" lon="4.5686">
        <ele>543.6</ele>
        <time>1970-01-01T00:15:31.000Z</time>
      </trkpt>
      <trkpt lat="45.96781" lon="4.5686">
        <ele>543.6</ele>
        <time>1970-01-01T00:15:32.000Z</time>
      </trkpt>
      <trkpt lat="45.96782" lon="4.56862">
        <ele>543.7</ele>
        <time>1970-01-01T00:15:33.000Z</time>
      </trkpt>
      <trkpt lat="45.96782" lon="4.56862">
        <ele>543.7</ele>
        <time>1970-01-01T00:15:34.000Z</time>
      </trkpt>
      <trkpt lat="45.96783" lon="4.56865">
        <ele>543.8</ele>
        <time>1970-01-01T00:15:35.000Z</time>
      </trkpt>
      <trkpt lat="45.96783" lon="4.56865">
        <ele>543.8</ele>
        <time>1970-01-01T00:15:36.000Z</time>
      </trkpt>
      <trkpt lat="45.96784" lon="4.56867">
        <ele>543.9</ele>
        <time>1970-01-01T00:15:37.000Z</time>
      </trkpt>
      <trkpt lat="45.96784" lon="4.56867">
        <ele>543.9</ele>
        <time>1970-01-01T00:15:38.000Z</time>
      </trkpt>
      <trkpt lat="45.96786" lon="4.5687">
        <ele>544</ele>
        <time>1970-01-01T00:15:39.000Z</time>
      </trkpt>
      <trkpt lat="45.96786" lon="4.5687">
        <ele>544</ele>
        <time>1970-01-01T00:15:40.000Z</time>
      </trkpt>
      <trkpt lat="45.96788" lon="4.56873">
        <ele>544</ele>
        <time>1970-01-01T00:15:41.000Z</time>
      </trkpt>
      <trkpt lat="45.96788" lon="4.56873">
        <ele>544</ele>
        <time>1970-01-01T00:15:42.000Z</time>
      </trkpt>
      <trkpt lat="45.9679" lon="4.56876">
        <ele>544</ele>
        <time>1970-01-01T00:15:43.000Z</time>
      </trkpt>
      <trkpt lat="45.9679" lon="4.56876">
        <ele>544</ele>
        <time>1970-01-01T00:15:44.000Z</time>
      </trkpt>
      <trkpt lat="45.96791" lon="4.56879">
        <ele>544</ele>
        <time>1970-01-01T00:15:45.000Z</time>
      </trkpt>
      <trkpt lat="45.96791" lon="4.56879">
        <ele>544</ele>
        <time>1970-01-01T00:15:46.000Z</time>
      </trkpt>
      <trkpt lat="45.96793" lon="4.56882">
        <ele>544</ele>
        <time>1970-01-01T00:15:47.000Z</time>
      </trkpt>
      <trkpt lat="45.96793" lon="4.56882">
        <ele>544</ele>
        <time>1970-01-01T00:15:48.000Z</time>
      </trkpt>
      <trkpt lat="45.96794" lon="4.56885">
        <ele>544</ele>
        <time>1970-01-01T00:15:49.000Z</time>
      </trkpt>
      <trkpt lat="45.96794" lon="4.56885">
        <ele>544</ele>
        <time>1970-01-01T00:15:50.000Z</time>
      </trkpt>
      <trkpt lat="45.96796" lon="4.56888">
        <ele>543.9</ele>
        <time>1970-01-01T00:15:51.000Z</time>
      </trkpt>
      <trkpt lat="45.96796" lon="4.56888">
        <ele>543.9</ele>
        <time>1970-01-01T00:15:52.000Z</time>
      </trkpt>
      <trkpt lat="45.96798" lon="4.56891">
        <ele>543.9</ele>
        <time>1970-01-01T00:15:53.000Z</time>
      </trkpt>
      <trkpt lat="45.96798" lon="4.56891">
        <ele>543.9</ele>
        <time>1970-01-01T00:15:54.000Z</time>
      </trkpt>
      <trkpt lat="45.968" lon="4.56894">
        <ele>543.9</ele>
        <time>1970-01-01T00:15:55.000Z</time>
      </trkpt>
      <trkpt lat="45.968" lon="4.56894">
        <ele>543.9</ele>
        <time>1970-01-01T00:15:56.000Z</time>
      </trkpt>
      <trkpt lat="45.96802" lon="4.56896">
        <ele>543.8</ele>
        <time>1970-01-01T00:15:57.000Z</time>
      </trkpt>
      <trkpt lat="45.96802" lon="4.56896">
        <ele>543.8</ele>
        <time>1970-01-01T00:15:58.000Z</time>
      </trkpt>
      <trkpt lat="45.96805" lon="4.56899">
        <ele>543.8</ele>
        <time>1970-01-01T00:15:59.000Z</time>
      </trkpt>
      <trkpt lat="45.96805" lon="4.56899">
        <ele>543.8</ele>
        <time>1970-01-01T00:16:00.000Z</time>
      </trkpt>
      <trkpt lat="45.96807" lon="4.56901">
        <ele>543.8</ele>
        <time>1970-01-01T00:16:01.000Z</time>
      </trkpt>
      <trkpt lat="45.96807" lon="4.56901">
        <ele>543.8</ele>
        <time>1970-01-01T00:16:02.000Z</time>
      </trkpt>
      <trkpt lat="45.96808" lon="4.56904">
        <ele>543.8</ele>
        <time>1970-01-01T00:16:03.000Z</time>
      </trkpt>
      <trkpt lat="45.96808" lon="4.56904">
        <ele>543.8</ele>
        <time>1970-01-01T00:16:04.000Z</time>
      </trkpt>
      <trkpt lat="45.9681" lon="4.56906">
        <ele>543.8</ele>
        <time>1970-01-01T00:16:05.000Z</time>
      </trkpt>
      <trkpt lat="45.9681" lon="4.56906">
        <ele>543.8</ele>
        <time>1970-01-01T00:16:06.000Z</time>
      </trkpt>
      <trkpt lat="45.96812" lon="4.56909">
        <ele>543.7</ele>
        <time>1970-01-01T00:16:07.000Z</time>
      </trkpt>
      <trkpt lat="45.96812" lon="4.56909">
        <ele>543.7</ele>
        <time>1970-01-01T00:16:08.000Z</time>
      </trkpt>
      <trkpt lat="45.96814" lon="4.56911">
        <ele>543.7</ele>
        <time>1970-01-01T00:16:09.000Z</time>
      </trkpt>
      <trkpt lat="45.96814" lon="4.56911">
        <ele>543.7</ele>
        <time>1970-01-01T00:16:10.000Z</time>
      </trkpt>
      <trkpt lat="45.96817" lon="4.56913">
        <ele>543.7</ele>
        <time>1970-01-01T00:16:11.000Z</time>
      </trkpt>
      <trkpt lat="45.96817" lon="4.56913">
        <ele>543.7</ele>
        <time>1970-01-01T00:16:12.000Z</time>
      </trkpt>
      <trkpt lat="45.96819" lon="4.56915">
        <ele>543.6</ele>
        <time>1970-01-01T00:16:13.000Z</time>
      </trkpt>
      <trkpt lat="45.96819" lon="4.56915">
        <ele>543.6</ele>
        <time>1970-01-01T00:16:14.000Z</time>
      </trkpt>
      <trkpt lat="45.96821" lon="4.56917">
        <ele>543.6</ele>
        <time>1970-01-01T00:16:15.000Z</time>
      </trkpt>
      <trkpt lat="45.96821" lon="4.56917">
        <ele>543.6</ele>
        <time>1970-01-01T00:16:16.000Z</time>
      </trkpt>
      <trkpt lat="45.96823" lon="4.56918">
        <ele>543.5</ele>
        <time>1970-01-01T00:16:17.000Z</time>
      </trkpt>
      <trkpt lat="45.96823" lon="4.56918">
        <ele>543.5</ele>
        <time>1970-01-01T00:16:18.000Z</time>
      </trkpt>
      <trkpt lat="45.96826" lon="4.56919">
        <ele>543.5</ele>
        <time>1970-01-01T00:16:19.000Z</time>
      </trkpt>
      <trkpt lat="45.96826" lon="4.56919">
        <ele>543.5</ele>
        <time>1970-01-01T00:16:20.000Z</time>
      </trkpt>
      <trkpt lat="45.96829" lon="4.56919">
        <ele>543.4</ele>
        <time>1970-01-01T00:16:21.000Z</time>
      </trkpt>
      <trkpt lat="45.96829" lon="4.56919">
        <ele>543.4</ele>
        <time>1970-01-01T00:16:22.000Z</time>
      </trkpt>
      <trkpt lat="45.96831" lon="4.56918">
        <ele>543.3</ele>
        <time>1970-01-01T00:16:23.000Z</time>
      </trkpt>
      <trkpt lat="45.96831" lon="4.56918">
        <ele>543.3</ele>
        <time>1970-01-01T00:16:24.000Z</time>
      </trkpt>
      <trkpt lat="45.96834" lon="4.56918">
        <ele>543.3</ele>
        <time>1970-01-01T00:16:25.000Z</time>
      </trkpt>
      <trkpt lat="45.96834" lon="4.56918">
        <ele>543.3</ele>
        <time>1970-01-01T00:16:26.000Z</time>
      </trkpt>
      <trkpt lat="45.96836" lon="4.56916">
        <ele>543.2</ele>
        <time>1970-01-01T00:16:27.000Z</time>
      </trkpt>
      <trkpt lat="45.96836" lon="4.56916">
        <ele>543.2</ele>
        <time>1970-01-01T00:16:28.000Z</time>
      </trkpt>
      <trkpt lat="45.96839" lon="4.56915">
        <ele>543.1</ele>
        <time>1970-01-01T00:16:29.000Z</time>
      </trkpt>
      <trkpt lat="45.96839" lon="4.56915">
        <ele>543.1</ele>
        <time>1970-01-01T00:16:30.000Z</time>
      </trkpt>
      <trkpt lat="45.9684" lon="4.56913">
        <ele>543.1</ele>
        <time>1970-01-01T00:16:31.000Z</time>
      </trkpt>
      <trkpt lat="45.9684" lon="4.56913">
        <ele>543.1</ele>
        <time>1970-01-01T00:16:32.000Z</time>
      </trkpt>
      <trkpt lat="45.96842" lon="4.56911">
        <ele>543</ele>
        <time>1970-01-01T00:16:33.000Z</time>
      </trkpt>
      <trkpt lat="45.96842" lon="4.56911">
        <ele>543</ele>
        <time>1970-01-01T00:16:34.000Z</time>
      </trkpt>
      <trkpt lat="45.96844" lon="4.56908">
        <ele>543</ele>
        <time>1970-01-01T00:16:35.000Z</time>
      </trkpt>
      <trkpt lat="45.96844" lon="4.56908">
        <ele>543</ele>
        <time>1970-01-01T00:16:36.000Z</time>
      </trkpt>
      <trkpt lat="45.96846" lon="4.56906">
        <ele>542.9</ele>
        <time>1970-01-01T00:16:37.000Z</time>
      </trkpt>
      <trkpt lat="45.96846" lon="4.56906">
        <ele>542.9</ele>
        <time>1970-01-01T00:16:38.000Z</time>
      </trkpt>
      <trkpt lat="45.96848" lon="4.56903">
        <ele>542.9</ele>
        <time>1970-01-01T00:16:39.000Z</time>
      </trkpt>
      <trkpt lat="45.96848" lon="4.56903">
        <ele>542.9</ele>
        <time>1970-01-01T00:16:40.000Z</time>
      </trkpt>
      <trkpt lat="45.9685" lon="4.56901">
        <ele>542.8</ele>
        <time>1970-01-01T00:16:41.000Z</time>
      </trkpt>
      <trkpt lat="45.9685" lon="4.56901">
        <ele>542.8</ele>
        <time>1970-01-01T00:16:42.000Z</time>
      </trkpt>
      <trkpt lat="45.96852" lon="4.56898">
        <ele>542.8</ele>
        <time>1970-01-01T00:16:43.000Z</time>
      </trkpt>
      <trkpt lat="45.96852" lon="4.56898">
        <ele>542.8</ele>
        <time>1970-01-01T00:16:44.000Z</time>
      </trkpt>
      <trkpt lat="45.96854" lon="4.56895">
        <ele>542.8</ele>
        <time>1970-01-01T00:16:45.000Z</time>
      </trkpt>
      <trkpt lat="45.96854" lon="4.56895">
        <ele>542.8</ele>
        <time>1970-01-01T00:16:46.000Z</time>
      </trkpt>
      <trkpt lat="45.96856" lon="4.56892">
        <ele>542.7</ele>
        <time>1970-01-01T00:16:47.000Z</time>
      </trkpt>
      <trkpt lat="45.96856" lon="4.56892">
        <ele>542.7</ele>
        <time>1970-01-01T00:16:48.000Z</time>
      </trkpt>
      <trkpt lat="45.96858" lon="4.56889">
        <ele>542.7</ele>
        <time>1970-01-01T00:16:49.000Z</time>
      </trkpt>
      <trkpt lat="45.96858" lon="4.56889">
        <ele>542.7</ele>
        <time>1970-01-01T00:16:50.000Z</time>
      </trkpt>
      <trkpt lat="45.9686" lon="4.56887">
        <ele>542.7</ele>
        <time>1970-01-01T00:16:51.000Z</time>
      </trkpt>
      <trkpt lat="45.9686" lon="4.56887">
        <ele>542.7</ele>
        <time>1970-01-01T00:16:52.000Z</time>
      </trkpt>
      <trkpt lat="45.96862" lon="4.56884">
        <ele>542.6</ele>
        <time>1970-01-01T00:16:53.000Z</time>
      </trkpt>
      <trkpt lat="45.96862" lon="4.56884">
        <ele>542.6</ele>
        <time>1970-01-01T00:16:54.000Z</time>
      </trkpt>
      <trkpt lat="45.96864" lon="4.56881">
        <ele>542.6</ele>
        <time>1970-01-01T00:16:55.000Z</time>
      </trkpt>
      <trkpt lat="45.96864" lon="4.56881">
        <ele>542.6</ele>
        <time>1970-01-01T00:16:56.000Z</time>
      </trkpt>
      <trkpt lat="45.96866" lon="4.56879">
        <ele>542.6</ele>
        <time>1970-01-01T00:16:57.000Z</time>
      </trkpt>
      <trkpt lat="45.96866" lon="4.56879">
        <ele>542.6</ele>
        <time>1970-01-01T00:16:58.000Z</time>
      </trkpt>
      <trkpt lat="45.96868" lon="4.56876">
        <ele>542.6</ele>
        <time>1970-01-01T00:16:59.000Z</time>
      </trkpt>
      <trkpt lat="45.96868" lon="4.56876">
        <ele>542.6</ele>
        <time>1970-01-01T00:17:00.000Z</time>
      </trkpt>
      <trkpt lat="45.96869" lon="4.56873">
        <ele>542.6</ele>
        <time>1970-01-01T00:17:01.000Z</time>
      </trkpt>
      <trkpt lat="45.96869" lon="4.56873">
        <ele>542.6</ele>
        <time>1970-01-01T00:17:02.000Z</time>
      </trkpt>
      <trkpt lat="45.96871" lon="4.56871">
        <ele>542.6</ele>
        <time>1970-01-01T00:17:03.000Z</time>
      </trkpt>
      <trkpt lat="45.96871" lon="4.56871">
        <ele>542.6</ele>
        <time>1970-01-01T00:17:04.000Z</time>
      </trkpt>
      <trkpt lat="45.96873" lon="4.56868">
        <ele>542.5</ele>
        <time>1970-01-01T00:17:05.000Z</time>
      </trkpt>
      <trkpt lat="45.96873" lon="4.56868">
        <ele>542.5</ele>
        <time>1970-01-01T00:17:06.000Z</time>
      </trkpt>
      <trkpt lat="45.96876" lon="4.56866">
        <ele>542.5</ele>
        <time>1970-01-01T00:17:07.000Z</time>
      </trkpt>
      <trkpt lat="45.96876" lon="4.56866">
        <ele>542.5</ele>
        <time>1970-01-01T00:17:08.000Z</time>
      </trkpt>
      <trkpt lat="45.96878" lon="4.56863">
        <ele>542.5</ele>
        <time>1970-01-01T00:17:09.000Z</time>
      </trkpt>
      <trkpt lat="45.96878" lon="4.56863">
        <ele>542.5</ele>
        <time>1970-01-01T00:17:10.000Z</time>
      </trkpt>
      <trkpt lat="45.9688" lon="4.56861">
        <ele>542.5</ele>
        <time>1970-01-01T00:17:11.000Z</time>
      </trkpt>
      <trkpt lat="45.9688" lon="4.56861">
        <ele>542.5</ele>
        <time>1970-01-01T00:17:12.000Z</time>
      </trkpt>
      <trkpt lat="45.96882" lon="4.56859">
        <ele>542.5</ele>
        <time>1970-01-01T00:17:13.000Z</time>
      </trkpt>
      <trkpt lat="45.96882" lon="4.56859">
        <ele>542.5</ele>
        <time>1970-01-01T00:17:14.000Z</time>
      </trkpt>
      <trkpt lat="45.96884" lon="4.56856">
        <ele>542.5</ele>
        <time>1970-01-01T00:17:15.000Z</time>
      </trkpt>
      <trkpt lat="45.96884" lon="4.56856">
        <ele>542.5</ele>
        <time>1970-01-01T00:17:16.000Z</time>
      </trkpt>
      <trkpt lat="45.96886" lon="4.56854">
        <ele>542.5</ele>
        <time>1970-01-01T00:17:17.000Z</time>
      </trkpt>
      <trkpt lat="45.96886" lon="4.56854">
        <ele>542.5</ele>
        <time>1970-01-01T00:17:18.000Z</time>
      </trkpt>
      <trkpt lat="45.96888" lon="4.56852">
        <ele>542.5</ele>
        <time>1970-01-01T00:17:19.000Z</time>
      </trkpt>
      <trkpt lat="45.96888" lon="4.56852">
        <ele>542.5</ele>
        <time>1970-01-01T00:17:20.000Z</time>
      </trkpt>
      <trkpt lat="45.9689" lon="4.56849">
        <ele>542.5</ele>
        <time>1970-01-01T00:17:21.000Z</time>
      </trkpt>
      <trkpt lat="45.9689" lon="4.56849">
        <ele>542.5</ele>
        <time>1970-01-01T00:17:22.000Z</time>
      </trkpt>
      <trkpt lat="45.96892" lon="4.56847">
        <ele>542.5</ele>
        <time>1970-01-01T00:17:23.000Z</time>
      </trkpt>
      <trkpt lat="45.96892" lon="4.56847">
        <ele>542.5</ele>
        <time>1970-01-01T00:17:24.000Z</time>
      </trkpt>
      <trkpt lat="45.96894" lon="4.56845">
        <ele>542.5</ele>
        <time>1970-01-01T00:17:25.000Z</time>
      </trkpt>
      <trkpt lat="45.96894" lon="4.56845">
        <ele>542.5</ele>
        <time>1970-01-01T00:17:26.000Z</time>
      </trkpt>
      <trkpt lat="45.96897" lon="4.56843">
        <ele>542.5</ele>
        <time>1970-01-01T00:17:27.000Z</time>
      </trkpt>
      <trkpt lat="45.96897" lon="4.56843">
        <ele>542.5</ele>
        <time>1970-01-01T00:17:28.000Z</time>
      </trkpt>
      <trkpt lat="45.96899" lon="4.5684">
        <ele>542.5</ele>
        <time>1970-01-01T00:17:29.000Z</time>
      </trkpt>
      <trkpt lat="45.96899" lon="4.5684">
        <ele>542.5</ele>
        <time>1970-01-01T00:17:30.000Z</time>
      </trkpt>
      <trkpt lat="45.96901" lon="4.56838">
        <ele>542.5</ele>
        <time>1970-01-01T00:17:31.000Z</time>
      </trkpt>
      <trkpt lat="45.96901" lon="4.56838">
        <ele>542.5</ele>
        <time>1970-01-01T00:17:32.000Z</time>
      </trkpt>
      <trkpt lat="45.96903" lon="4.56836">
        <ele>542.5</ele>
        <time>1970-01-01T00:17:33.000Z</time>
      </trkpt>
      <trkpt lat="45.96903" lon="4.56836">
        <ele>542.5</ele>
        <time>1970-01-01T00:17:34.000Z</time>
      </trkpt>
      <trkpt lat="45.96906" lon="4.56834">
        <ele>542.5</ele>
        <time>1970-01-01T00:17:35.000Z</time>
      </trkpt>
      <trkpt lat="45.96906" lon="4.56834">
        <ele>542.5</ele>
        <time>1970-01-01T00:17:36.000Z</time>
      </trkpt>
      <trkpt lat="45.96908" lon="4.56831">
        <ele>542.5</ele>
        <time>1970-01-01T00:17:37.000Z</time>
      </trkpt>
      <trkpt lat="45.96908" lon="4.56831">
        <ele>542.5</ele>
        <time>1970-01-01T00:17:38.000Z</time>
      </trkpt>
      <trkpt lat="45.9691" lon="4.56829">
        <ele>542.4</ele>
        <time>1970-01-01T00:17:39.000Z</time>
      </trkpt>
      <trkpt lat="45.9691" lon="4.56829">
        <ele>542.4</ele>
        <time>1970-01-01T00:17:40.000Z</time>
      </trkpt>
      <trkpt lat="45.96913" lon="4.56827">
        <ele>542.4</ele>
        <time>1970-01-01T00:17:41.000Z</time>
      </trkpt>
      <trkpt lat="45.96913" lon="4.56827">
        <ele>542.4</ele>
        <time>1970-01-01T00:17:42.000Z</time>
      </trkpt>
      <trkpt lat="45.96915" lon="4.56825">
        <ele>542.4</ele>
        <time>1970-01-01T00:17:43.000Z</time>
      </trkpt>
      <trkpt lat="45.96915" lon="4.56825">
        <ele>542.4</ele>
        <time>1970-01-01T00:17:44.000Z</time>
      </trkpt>
      <trkpt lat="45.96917" lon="4.56823">
        <ele>542.3</ele>
        <time>1970-01-01T00:17:45.000Z</time>
      </trkpt>
      <trkpt lat="45.96917" lon="4.56823">
        <ele>542.3</ele>
        <time>1970-01-01T00:17:46.000Z</time>
      </trkpt>
      <trkpt lat="45.96919" lon="4.56821">
        <ele>542.3</ele>
        <time>1970-01-01T00:17:47.000Z</time>
      </trkpt>
      <trkpt lat="45.96919" lon="4.56821">
        <ele>542.3</ele>
        <time>1970-01-01T00:17:48.000Z</time>
      </trkpt>
      <trkpt lat="45.96921" lon="4.56819">
        <ele>542.3</ele>
        <time>1970-01-01T00:17:49.000Z</time>
      </trkpt>
      <trkpt lat="45.96921" lon="4.56819">
        <ele>542.3</ele>
        <time>1970-01-01T00:17:50.000Z</time>
      </trkpt>
      <trkpt lat="45.96923" lon="4.56818">
        <ele>542.2</ele>
        <time>1970-01-01T00:17:51.000Z</time>
      </trkpt>
      <trkpt lat="45.96923" lon="4.56818">
        <ele>542.2</ele>
        <time>1970-01-01T00:17:52.000Z</time>
      </trkpt>
      <trkpt lat="45.96926" lon="4.56816">
        <ele>542.2</ele>
        <time>1970-01-01T00:17:53.000Z</time>
      </trkpt>
      <trkpt lat="45.96926" lon="4.56816">
        <ele>542.2</ele>
        <time>1970-01-01T00:17:54.000Z</time>
      </trkpt>
      <trkpt lat="45.96928" lon="4.56814">
        <ele>542.1</ele>
        <time>1970-01-01T00:17:55.000Z</time>
      </trkpt>
      <trkpt lat="45.96928" lon="4.56814">
        <ele>542.1</ele>
        <time>1970-01-01T00:17:56.000Z</time>
      </trkpt>
      <trkpt lat="45.96931" lon="4.56813">
        <ele>542.1</ele>
        <time>1970-01-01T00:17:57.000Z</time>
      </trkpt>
      <trkpt lat="45.96931" lon="4.56813">
        <ele>542.1</ele>
        <time>1970-01-01T00:17:58.000Z</time>
      </trkpt>
      <trkpt lat="45.96933" lon="4.56811">
        <ele>542</ele>
        <time>1970-01-01T00:17:59.000Z</time>
      </trkpt>
      <trkpt lat="45.96936" lon="4.56809">
        <ele>542</ele>
        <time>1970-01-01T00:18:01.000Z</time>
      </trkpt>
      <trkpt lat="45.96936" lon="4.56809">
        <ele>542</ele>
        <time>1970-01-01T00:18:02.000Z</time>
      </trkpt>
      <trkpt lat="45.96938" lon="4.56807">
        <ele>542</ele>
        <time>1970-01-01T00:18:03.000Z</time>
      </trkpt>
      <trkpt lat="45.96938" lon="4.56807">
        <ele>542</ele>
        <time>1970-01-01T00:18:04.000Z</time>
      </trkpt>
      <trkpt lat="45.96941" lon="4.56805">
        <ele>541.9</ele>
        <time>1970-01-01T00:18:05.000Z</time>
      </trkpt>
      <trkpt lat="45.96941" lon="4.56805">
        <ele>541.9</ele>
        <time>1970-01-01T00:18:06.000Z</time>
      </trkpt>
      <trkpt lat="45.96943" lon="4.56804">
        <ele>541.9</ele>
        <time>1970-01-01T00:18:07.000Z</time>
      </trkpt>
      <trkpt lat="45.96943" lon="4.56804">
        <ele>541.9</ele>
        <time>1970-01-01T00:18:08.000Z</time>
      </trkpt>
      <trkpt lat="45.96946" lon="4.56802">
        <ele>541.8</ele>
        <time>1970-01-01T00:18:09.000Z</time>
      </trkpt>
      <trkpt lat="45.96946" lon="4.56802">
        <ele>541.8</ele>
        <time>1970-01-01T00:18:10.000Z</time>
      </trkpt>
      <trkpt lat="45.96949" lon="4.56801">
        <ele>541.8</ele>
        <time>1970-01-01T00:18:11.000Z</time>
      </trkpt>
      <trkpt lat="45.96949" lon="4.56801">
        <ele>541.8</ele>
        <time>1970-01-01T00:18:12.000Z</time>
      </trkpt>
      <trkpt lat="45.96951" lon="4.56799">
        <ele>541.8</ele>
        <time>1970-01-01T00:18:13.000Z</time>
      </trkpt>
      <trkpt lat="45.96951" lon="4.56799">
        <ele>541.8</ele>
        <time>1970-01-01T00:18:14.000Z</time>
      </trkpt>
      <trkpt lat="45.96953" lon="4.56797">
        <ele>541.8</ele>
        <time>1970-01-01T00:18:15.000Z</time>
      </trkpt>
      <trkpt lat="45.96953" lon="4.56797">
        <ele>541.8</ele>
        <time>1970-01-01T00:18:16.000Z</time>
      </trkpt>
      <trkpt lat="45.96955" lon="4.56796">
        <ele>541.7</ele>
        <time>1970-01-01T00:18:17.000Z</time>
      </trkpt>
      <trkpt lat="45.96955" lon="4.56796">
        <ele>541.7</ele>
        <time>1970-01-01T00:18:18.000Z</time>
      </trkpt>
      <trkpt lat="45.96957" lon="4.56794">
        <ele>541.7</ele>
        <time>1970-01-01T00:18:19.000Z</time>
      </trkpt>
      <trkpt lat="45.96957" lon="4.56794">
        <ele>541.7</ele>
        <time>1970-01-01T00:18:20.000Z</time>
      </trkpt>
      <trkpt lat="45.96959" lon="4.56792">
        <ele>541.7</ele>
        <time>1970-01-01T00:18:21.000Z</time>
      </trkpt>
      <trkpt lat="45.96959" lon="4.56792">
        <ele>541.7</ele>
        <time>1970-01-01T00:18:22.000Z</time>
      </trkpt>
      <trkpt lat="45.96962" lon="4.56791">
        <ele>541.7</ele>
        <time>1970-01-01T00:18:23.000Z</time>
      </trkpt>
      <trkpt lat="45.96962" lon="4.56791">
        <ele>541.7</ele>
        <time>1970-01-01T00:18:24.000Z</time>
      </trkpt>
      <trkpt lat="45.96964" lon="4.5679">
        <ele>541.7</ele>
        <time>1970-01-01T00:18:25.000Z</time>
      </trkpt>
      <trkpt lat="45.96964" lon="4.5679">
        <ele>541.7</ele>
        <time>1970-01-01T00:18:26.000Z</time>
      </trkpt>
      <trkpt lat="45.96966" lon="4.56788">
        <ele>541.7</ele>
        <time>1970-01-01T00:18:27.000Z</time>
      </trkpt>
      <trkpt lat="45.96966" lon="4.56788">
        <ele>541.7</ele>
        <time>1970-01-01T00:18:28.000Z</time>
      </trkpt>
      <trkpt lat="45.96969" lon="4.56787">
        <ele>541.8</ele>
        <time>1970-01-01T00:18:29.000Z</time>
      </trkpt>
      <trkpt lat="45.96969" lon="4.56787">
        <ele>541.8</ele>
        <time>1970-01-01T00:18:30.000Z</time>
      </trkpt>
      <trkpt lat="45.96971" lon="4.56786">
        <ele>541.8</ele>
        <time>1970-01-01T00:18:31.000Z</time>
      </trkpt>
      <trkpt lat="45.96971" lon="4.56786">
        <ele>541.8</ele>
        <time>1970-01-01T00:18:32.000Z</time>
      </trkpt>
      <trkpt lat="45.96974" lon="4.56784">
        <ele>541.8</ele>
        <time>1970-01-01T00:18:33.000Z</time>
      </trkpt>
      <trkpt lat="45.96974" lon="4.56784">
        <ele>541.8</ele>
        <time>1970-01-01T00:18:34.000Z</time>
      </trkpt>
      <trkpt lat="45.96976" lon="4.56782">
        <ele>541.9</ele>
        <time>1970-01-01T00:18:35.000Z</time>
      </trkpt>
      <trkpt lat="45.96976" lon="4.56782">
        <ele>541.9</ele>
        <time>1970-01-01T00:18:36.000Z</time>
      </trkpt>
      <trkpt lat="45.96978" lon="4.56781">
        <ele>541.9</ele>
        <time>1970-01-01T00:18:37.000Z</time>
      </trkpt>
      <trkpt lat="45.96978" lon="4.56781">
        <ele>541.9</ele>
        <time>1970-01-01T00:18:38.000Z</time>
      </trkpt>
      <trkpt lat="45.96981" lon="4.56779">
        <ele>542</ele>
        <time>1970-01-01T00:18:39.000Z</time>
      </trkpt>
      <trkpt lat="45.96981" lon="4.56779">
        <ele>542</ele>
        <time>1970-01-01T00:18:40.000Z</time>
      </trkpt>
      <trkpt lat="45.96983" lon="4.56776">
        <ele>542</ele>
        <time>1970-01-01T00:18:41.000Z</time>
      </trkpt>
      <trkpt lat="45.96983" lon="4.56776">
        <ele>542</ele>
        <time>1970-01-01T00:18:42.000Z</time>
      </trkpt>
      <trkpt lat="45.96985" lon="4.56774">
        <ele>542.1</ele>
        <time>1970-01-01T00:18:43.000Z</time>
      </trkpt>
      <trkpt lat="45.96985" lon="4.56774">
        <ele>542.1</ele>
        <time>1970-01-01T00:18:44.000Z</time>
      </trkpt>
      <trkpt lat="45.96987" lon="4.56772">
        <ele>542.1</ele>
        <time>1970-01-01T00:18:45.000Z</time>
      </trkpt>
      <trkpt lat="45.96987" lon="4.56772">
        <ele>542.1</ele>
        <time>1970-01-01T00:18:46.000Z</time>
      </trkpt>
      <trkpt lat="45.96989" lon="4.5677">
        <ele>542.1</ele>
        <time>1970-01-01T00:18:47.000Z</time>
      </trkpt>
      <trkpt lat="45.96989" lon="4.5677">
        <ele>542.1</ele>
        <time>1970-01-01T00:18:48.000Z</time>
      </trkpt>
      <trkpt lat="45.96991" lon="4.56769">
        <ele>542.2</ele>
        <time>1970-01-01T00:18:49.000Z</time>
      </trkpt>
      <trkpt lat="45.96991" lon="4.56769">
        <ele>542.2</ele>
        <time>1970-01-01T00:18:50.000Z</time>
      </trkpt>
      <trkpt lat="45.96994" lon="4.56767">
        <ele>542.2</ele>
        <time>1970-01-01T00:18:51.000Z</time>
      </trkpt>
      <trkpt lat="45.96994" lon="4.56767">
        <ele>542.2</ele>
        <time>1970-01-01T00:18:52.000Z</time>
      </trkpt>
      <trkpt lat="45.96996" lon="4.56765">
        <ele>542.3</ele>
        <time>1970-01-01T00:18:53.000Z</time>
      </trkpt>
      <trkpt lat="45.96996" lon="4.56765">
        <ele>542.3</ele>
        <time>1970-01-01T00:18:54.000Z</time>
      </trkpt>
      <trkpt lat="45.96998" lon="4.56763">
        <ele>542.3</ele>
        <time>1970-01-01T00:18:55.000Z</time>
      </trkpt>
      <trkpt lat="45.96998" lon="4.56763">
        <ele>542.3</ele>
        <time>1970-01-01T00:18:56.000Z</time>
      </trkpt>
      <trkpt lat="45.97" lon="4.5676">
        <ele>542.4</ele>
        <time>1970-01-01T00:18:57.000Z</time>
      </trkpt>
      <trkpt lat="45.97" lon="4.5676">
        <ele>542.4</ele>
        <time>1970-01-01T00:18:58.000Z</time>
      </trkpt>
      <trkpt lat="45.97003" lon="4.56759">
        <ele>542.4</ele>
        <time>1970-01-01T00:18:59.000Z</time>
      </trkpt>
      <trkpt lat="45.97003" lon="4.56759">
        <ele>542.4</ele>
        <time>1970-01-01T00:19:00.000Z</time>
      </trkpt>
      <trkpt lat="45.97005" lon="4.56757">
        <ele>542.5</ele>
        <time>1970-01-01T00:19:01.000Z</time>
      </trkpt>
      <trkpt lat="45.97005" lon="4.56757">
        <ele>542.5</ele>
        <time>1970-01-01T00:19:02.000Z</time>
      </trkpt>
      <trkpt lat="45.97008" lon="4.56756">
        <ele>542.5</ele>
        <time>1970-01-01T00:19:03.000Z</time>
      </trkpt>
      <trkpt lat="45.97008" lon="4.56756">
        <ele>542.5</ele>
        <time>1970-01-01T00:19:04.000Z</time>
      </trkpt>
      <trkpt lat="45.9701" lon="4.56754">
        <ele>542.6</ele>
        <time>1970-01-01T00:19:05.000Z</time>
      </trkpt>
      <trkpt lat="45.9701" lon="4.56754">
        <ele>542.6</ele>
        <time>1970-01-01T00:19:06.000Z</time>
      </trkpt>
      <trkpt lat="45.97013" lon="4.56753">
        <ele>542.6</ele>
        <time>1970-01-01T00:19:07.000Z</time>
      </trkpt>
      <trkpt lat="45.97013" lon="4.56753">
        <ele>542.6</ele>
        <time>1970-01-01T00:19:08.000Z</time>
      </trkpt>
      <trkpt lat="45.97015" lon="4.56752">
        <ele>542.7</ele>
        <time>1970-01-01T00:19:09.000Z</time>
      </trkpt>
      <trkpt lat="45.97015" lon="4.56752">
        <ele>542.7</ele>
        <time>1970-01-01T00:19:10.000Z</time>
      </trkpt>
      <trkpt lat="45.97018" lon="4.56751">
        <ele>542.7</ele>
        <time>1970-01-01T00:19:11.000Z</time>
      </trkpt>
      <trkpt lat="45.97018" lon="4.56751">
        <ele>542.7</ele>
        <time>1970-01-01T00:19:12.000Z</time>
      </trkpt>
      <trkpt lat="45.9702" lon="4.56749">
        <ele>542.8</ele>
        <time>1970-01-01T00:19:13.000Z</time>
      </trkpt>
      <trkpt lat="45.9702" lon="4.56749">
        <ele>542.8</ele>
        <time>1970-01-01T00:19:14.000Z</time>
      </trkpt>
      <trkpt lat="45.97023" lon="4.56748">
        <ele>542.8</ele>
        <time>1970-01-01T00:19:15.000Z</time>
      </trkpt>
      <trkpt lat="45.97023" lon="4.56748">
        <ele>542.8</ele>
        <time>1970-01-01T00:19:16.000Z</time>
      </trkpt>
      <trkpt lat="45.97026" lon="4.56747">
        <ele>542.9</ele>
        <time>1970-01-01T00:19:17.000Z</time>
      </trkpt>
      <trkpt lat="45.97026" lon="4.56747">
        <ele>542.9</ele>
        <time>1970-01-01T00:19:18.000Z</time>
      </trkpt>
      <trkpt lat="45.97028" lon="4.56746">
        <ele>542.9</ele>
        <time>1970-01-01T00:19:19.000Z</time>
      </trkpt>
      <trkpt lat="45.97028" lon="4.56746">
        <ele>542.9</ele>
        <time>1970-01-01T00:19:20.000Z</time>
      </trkpt>
      <trkpt lat="45.97031" lon="4.56745">
        <ele>543</ele>
        <time>1970-01-01T00:19:21.000Z</time>
      </trkpt>
      <trkpt lat="45.97031" lon="4.56745">
        <ele>543</ele>
        <time>1970-01-01T00:19:22.000Z</time>
      </trkpt>
      <trkpt lat="45.97034" lon="4.56744">
        <ele>543</ele>
        <time>1970-01-01T00:19:23.000Z</time>
      </trkpt>
      <trkpt lat="45.97034" lon="4.56744">
        <ele>543</ele>
        <time>1970-01-01T00:19:24.000Z</time>
      </trkpt>
      <trkpt lat="45.97036" lon="4.56744">
        <ele>543.1</ele>
        <time>1970-01-01T00:19:25.000Z</time>
      </trkpt>
      <trkpt lat="45.97036" lon="4.56744">
        <ele>543.1</ele>
        <time>1970-01-01T00:19:26.000Z</time>
      </trkpt>
      <trkpt lat="45.97039" lon="4.56744">
        <ele>543.1</ele>
        <time>1970-01-01T00:19:27.000Z</time>
      </trkpt>
      <trkpt lat="45.97039" lon="4.56744">
        <ele>543.1</ele>
        <time>1970-01-01T00:19:28.000Z</time>
      </trkpt>
      <trkpt lat="45.97042" lon="4.56745">
        <ele>543.2</ele>
        <time>1970-01-01T00:19:29.000Z</time>
      </trkpt>
      <trkpt lat="45.97042" lon="4.56745">
        <ele>543.2</ele>
        <time>1970-01-01T00:19:30.000Z</time>
      </trkpt>
      <trkpt lat="45.97044" lon="4.56745">
        <ele>543.3</ele>
        <time>1970-01-01T00:19:31.000Z</time>
      </trkpt>
      <trkpt lat="45.97044" lon="4.56745">
        <ele>543.3</ele>
        <time>1970-01-01T00:19:32.000Z</time>
      </trkpt>
      <trkpt lat="45.97047" lon="4.56746">
        <ele>543.3</ele>
        <time>1970-01-01T00:19:33.000Z</time>
      </trkpt>
      <trkpt lat="45.97047" lon="4.56746">
        <ele>543.3</ele>
        <time>1970-01-01T00:19:34.000Z</time>
      </trkpt>
      <trkpt lat="45.97049" lon="4.56747">
        <ele>543.4</ele>
        <time>1970-01-01T00:19:35.000Z</time>
      </trkpt>
      <trkpt lat="45.97049" lon="4.56747">
        <ele>543.4</ele>
        <time>1970-01-01T00:19:36.000Z</time>
      </trkpt>
      <trkpt lat="45.97051" lon="4.56749">
        <ele>543.4</ele>
        <time>1970-01-01T00:19:37.000Z</time>
      </trkpt>
      <trkpt lat="45.97051" lon="4.56749">
        <ele>543.4</ele>
        <time>1970-01-01T00:19:38.000Z</time>
      </trkpt>
      <trkpt lat="45.97053" lon="4.56751">
        <ele>543.5</ele>
        <time>1970-01-01T00:19:39.000Z</time>
      </trkpt>
      <trkpt lat="45.97053" lon="4.56751">
        <ele>543.5</ele>
        <time>1970-01-01T00:19:40.000Z</time>
      </trkpt>
      <trkpt lat="45.97056" lon="4.56754">
        <ele>543.6</ele>
        <time>1970-01-01T00:19:41.000Z</time>
      </trkpt>
      <trkpt lat="45.97056" lon="4.56754">
        <ele>543.6</ele>
        <time>1970-01-01T00:19:42.000Z</time>
      </trkpt>
      <trkpt lat="45.97056" lon="4.56754">
        <ele>543.6</ele>
        <time>1970-01-01T00:19:43.000Z</time>
      </trkpt>
      <trkpt lat="45.97056" lon="4.56754">
        <ele>543.6</ele>
        <time>1970-01-01T00:19:44.000Z</time>
      </trkpt>
      <trkpt lat="45.97058" lon="4.56756">
        <ele>543.6</ele>
        <time>1970-01-01T00:19:45.000Z</time>
      </trkpt>
      <trkpt lat="45.97058" lon="4.56756">
        <ele>543.6</ele>
        <time>1970-01-01T00:19:46.000Z</time>
      </trkpt>
      <trkpt lat="45.97061" lon="4.56758">
        <ele>543.7</ele>
        <time>1970-01-01T00:19:47.000Z</time>
      </trkpt>
      <trkpt lat="45.97061" lon="4.56758">
        <ele>543.7</ele>
        <time>1970-01-01T00:19:48.000Z</time>
      </trkpt>
      <trkpt lat="45.97063" lon="4.56758">
        <ele>543.9</ele>
        <time>1970-01-01T00:19:49.000Z</time>
      </trkpt>
      <trkpt lat="45.97063" lon="4.56758">
        <ele>543.9</ele>
        <time>1970-01-01T00:19:50.000Z</time>
      </trkpt>
      <trkpt lat="45.97066" lon="4.56759">
        <ele>544.2</ele>
        <time>1970-01-01T00:19:51.000Z</time>
      </trkpt>
      <trkpt lat="45.97066" lon="4.56759">
        <ele>544.2</ele>
        <time>1970-01-01T00:19:52.000Z</time>
      </trkpt>
      <trkpt lat="45.97069" lon="4.5676">
        <ele>544.4</ele>
        <time>1970-01-01T00:19:53.000Z</time>
      </trkpt>
      <trkpt lat="45.97069" lon="4.5676">
        <ele>544.4</ele>
        <time>1970-01-01T00:19:54.000Z</time>
      </trkpt>
      <trkpt lat="45.97073" lon="4.56762">
        <ele>544.6</ele>
        <time>1970-01-01T00:19:55.000Z</time>
      </trkpt>
      <trkpt lat="45.97073" lon="4.56762">
        <ele>544.6</ele>
        <time>1970-01-01T00:19:56.000Z</time>
      </trkpt>
      <trkpt lat="45.97076" lon="4.56763">
        <ele>544.9</ele>
        <time>1970-01-01T00:19:57.000Z</time>
      </trkpt>
      <trkpt lat="45.97076" lon="4.56763">
        <ele>544.9</ele>
        <time>1970-01-01T00:19:58.000Z</time>
      </trkpt>
      <trkpt lat="45.97079" lon="4.56764">
        <ele>545.1</ele>
        <time>1970-01-01T00:19:59.000Z</time>
      </trkpt>
      <trkpt lat="45.97079" lon="4.56764">
        <ele>545.1</ele>
        <time>1970-01-01T00:20:00.000Z</time>
      </trkpt>
      <trkpt lat="45.97081" lon="4.56765">
        <ele>545.3</ele>
        <time>1970-01-01T00:20:01.000Z</time>
      </trkpt>
      <trkpt lat="45.97081" lon="4.56765">
        <ele>545.3</ele>
        <time>1970-01-01T00:20:02.000Z</time>
      </trkpt>
      <trkpt lat="45.97084" lon="4.56765">
        <ele>545.5</ele>
        <time>1970-01-01T00:20:03.000Z</time>
      </trkpt>
      <trkpt lat="45.97084" lon="4.56765">
        <ele>545.5</ele>
        <time>1970-01-01T00:20:04.000Z</time>
      </trkpt>
      <trkpt lat="45.97087" lon="4.56766">
        <ele>545.7</ele>
        <time>1970-01-01T00:20:05.000Z</time>
      </trkpt>
      <trkpt lat="45.97087" lon="4.56766">
        <ele>545.7</ele>
        <time>1970-01-01T00:20:06.000Z</time>
      </trkpt>
      <trkpt lat="45.97089" lon="4.56766">
        <ele>546</ele>
        <time>1970-01-01T00:20:07.000Z</time>
      </trkpt>
      <trkpt lat="45.97089" lon="4.56766">
        <ele>546</ele>
        <time>1970-01-01T00:20:08.000Z</time>
      </trkpt>
      <trkpt lat="45.97092" lon="4.56766">
        <ele>546.2</ele>
        <time>1970-01-01T00:20:09.000Z</time>
      </trkpt>
      <trkpt lat="45.97092" lon="4.56766">
        <ele>546.2</ele>
        <time>1970-01-01T00:20:10.000Z</time>
      </trkpt>
      <trkpt lat="45.97095" lon="4.56766">
        <ele>546.4</ele>
        <time>1970-01-01T00:20:11.000Z</time>
      </trkpt>
      <trkpt lat="45.97095" lon="4.56766">
        <ele>546.4</ele>
        <time>1970-01-01T00:20:12.000Z</time>
      </trkpt>
      <trkpt lat="45.97097" lon="4.56766">
        <ele>546.6</ele>
        <time>1970-01-01T00:20:13.000Z</time>
      </trkpt>
      <trkpt lat="45.97097" lon="4.56766">
        <ele>546.6</ele>
        <time>1970-01-01T00:20:14.000Z</time>
      </trkpt>
      <trkpt lat="45.97099" lon="4.56767">
        <ele>546.8</ele>
        <time>1970-01-01T00:20:15.000Z</time>
      </trkpt>
      <trkpt lat="45.97099" lon="4.56767">
        <ele>546.8</ele>
        <time>1970-01-01T00:20:16.000Z</time>
      </trkpt>
      <trkpt lat="45.97101" lon="4.56769">
        <ele>547</ele>
        <time>1970-01-01T00:20:17.000Z</time>
      </trkpt>
      <trkpt lat="45.97101" lon="4.56769">
        <ele>547</ele>
        <time>1970-01-01T00:20:18.000Z</time>
      </trkpt>
      <trkpt lat="45.97103" lon="4.5677">
        <ele>547</ele>
        <time>1970-01-01T00:20:19.000Z</time>
      </trkpt>
      <trkpt lat="45.97103" lon="4.5677">
        <ele>547</ele>
        <time>1970-01-01T00:20:20.000Z</time>
      </trkpt>
      <trkpt lat="45.97105" lon="4.56772">
        <ele>547.1</ele>
        <time>1970-01-01T00:20:21.000Z</time>
      </trkpt>
      <trkpt lat="45.97105" lon="4.56772">
        <ele>547.1</ele>
        <time>1970-01-01T00:20:22.000Z</time>
      </trkpt>
      <trkpt lat="45.97106" lon="4.56775">
        <ele>547.2</ele>
        <time>1970-01-01T00:20:23.000Z</time>
      </trkpt>
      <trkpt lat="45.97106" lon="4.56775">
        <ele>547.2</ele>
        <time>1970-01-01T00:20:24.000Z</time>
      </trkpt>
      <trkpt lat="45.97108" lon="4.56777">
        <ele>547.3</ele>
        <time>1970-01-01T00:20:25.000Z</time>
      </trkpt>
      <trkpt lat="45.97108" lon="4.56777">
        <ele>547.3</ele>
        <time>1970-01-01T00:20:26.000Z</time>
      </trkpt>
      <trkpt lat="45.9711" lon="4.56779">
        <ele>547.4</ele>
        <time>1970-01-01T00:20:27.000Z</time>
      </trkpt>
      <trkpt lat="45.9711" lon="4.56779">
        <ele>547.4</ele>
        <time>1970-01-01T00:20:28.000Z</time>
      </trkpt>
      <trkpt lat="45.97111" lon="4.56781">
        <ele>547.5</ele>
        <time>1970-01-01T00:20:29.000Z</time>
      </trkpt>
      <trkpt lat="45.97111" lon="4.56781">
        <ele>547.5</ele>
        <time>1970-01-01T00:20:30.000Z</time>
      </trkpt>
      <trkpt lat="45.97113" lon="4.56783">
        <ele>547.6</ele>
        <time>1970-01-01T00:20:31.000Z</time>
      </trkpt>
      <trkpt lat="45.97113" lon="4.56783">
        <ele>547.6</ele>
        <time>1970-01-01T00:20:32.000Z</time>
      </trkpt>
      <trkpt lat="45.97115" lon="4.56785">
        <ele>547.7</ele>
        <time>1970-01-01T00:20:33.000Z</time>
      </trkpt>
      <trkpt lat="45.97115" lon="4.56785">
        <ele>547.7</ele>
        <time>1970-01-01T00:20:34.000Z</time>
      </trkpt>
      <trkpt lat="45.97116" lon="4.56787">
        <ele>547.7</ele>
        <time>1970-01-01T00:20:35.000Z</time>
      </trkpt>
      <trkpt lat="45.97116" lon="4.56787">
        <ele>547.7</ele>
        <time>1970-01-01T00:20:36.000Z</time>
      </trkpt>
      <trkpt lat="45.97118" lon="4.56788">
        <ele>547.9</ele>
        <time>1970-01-01T00:20:37.000Z</time>
      </trkpt>
      <trkpt lat="45.97118" lon="4.56788">
        <ele>547.9</ele>
        <time>1970-01-01T00:20:38.000Z</time>
      </trkpt>
      <trkpt lat="45.9712" lon="4.5679">
        <ele>548</ele>
        <time>1970-01-01T00:20:39.000Z</time>
      </trkpt>
      <trkpt lat="45.9712" lon="4.5679">
        <ele>548</ele>
        <time>1970-01-01T00:20:40.000Z</time>
      </trkpt>
      <trkpt lat="45.97122" lon="4.56792">
        <ele>548.1</ele>
        <time>1970-01-01T00:20:41.000Z</time>
      </trkpt>
      <trkpt lat="45.97122" lon="4.56792">
        <ele>548.1</ele>
        <time>1970-01-01T00:20:42.000Z</time>
      </trkpt>
      <trkpt lat="45.97123" lon="4.56793">
        <ele>548.2</ele>
        <time>1970-01-01T00:20:43.000Z</time>
      </trkpt>
      <trkpt lat="45.97123" lon="4.56793">
        <ele>548.2</ele>
        <time>1970-01-01T00:20:44.000Z</time>
      </trkpt>
      <trkpt lat="45.97125" lon="4.56795">
        <ele>548.3</ele>
        <time>1970-01-01T00:20:45.000Z</time>
      </trkpt>
      <trkpt lat="45.97125" lon="4.56795">
        <ele>548.3</ele>
        <time>1970-01-01T00:20:46.000Z</time>
      </trkpt>
      <trkpt lat="45.97127" lon="4.56796">
        <ele>548.4</ele>
        <time>1970-01-01T00:20:47.000Z</time>
      </trkpt>
      <trkpt lat="45.97127" lon="4.56796">
        <ele>548.4</ele>
        <time>1970-01-01T00:20:48.000Z</time>
      </trkpt>
      <trkpt lat="45.9713" lon="4.56797">
        <ele>548.5</ele>
        <time>1970-01-01T00:20:49.000Z</time>
      </trkpt>
      <trkpt lat="45.9713" lon="4.56797">
        <ele>548.5</ele>
        <time>1970-01-01T00:20:50.000Z</time>
      </trkpt>
      <trkpt lat="45.97132" lon="4.56798">
        <ele>548.7</ele>
        <time>1970-01-01T00:20:51.000Z</time>
      </trkpt>
      <trkpt lat="45.97132" lon="4.56798">
        <ele>548.7</ele>
        <time>1970-01-01T00:20:52.000Z</time>
      </trkpt>
      <trkpt lat="45.97134" lon="4.568">
        <ele>548.8</ele>
        <time>1970-01-01T00:20:53.000Z</time>
      </trkpt>
      <trkpt lat="45.97134" lon="4.568">
        <ele>548.8</ele>
        <time>1970-01-01T00:20:54.000Z</time>
      </trkpt>
      <trkpt lat="45.97137" lon="4.56802">
        <ele>549</ele>
        <time>1970-01-01T00:20:55.000Z</time>
      </trkpt>
      <trkpt lat="45.97137" lon="4.56802">
        <ele>549</ele>
        <time>1970-01-01T00:20:56.000Z</time>
      </trkpt>
      <trkpt lat="45.97139" lon="4.56804">
        <ele>549.1</ele>
        <time>1970-01-01T00:20:57.000Z</time>
      </trkpt>
      <trkpt lat="45.97139" lon="4.56804">
        <ele>549.1</ele>
        <time>1970-01-01T00:20:58.000Z</time>
      </trkpt>
      <trkpt lat="45.97141" lon="4.56806">
        <ele>549.3</ele>
        <time>1970-01-01T00:20:59.000Z</time>
      </trkpt>
      <trkpt lat="45.97141" lon="4.56806">
        <ele>549.3</ele>
        <time>1970-01-01T00:21:00.000Z</time>
      </trkpt>
      <trkpt lat="45.97143" lon="4.56807">
        <ele>549.4</ele>
        <time>1970-01-01T00:21:01.000Z</time>
      </trkpt>
      <trkpt lat="45.97143" lon="4.56807">
        <ele>549.4</ele>
        <time>1970-01-01T00:21:02.000Z</time>
      </trkpt>
      <trkpt lat="45.97145" lon="4.5681">
        <ele>549.6</ele>
        <time>1970-01-01T00:21:03.000Z</time>
      </trkpt>
      <trkpt lat="45.97145" lon="4.5681">
        <ele>549.6</ele>
        <time>1970-01-01T00:21:04.000Z</time>
      </trkpt>
      <trkpt lat="45.97147" lon="4.56812">
        <ele>549.7</ele>
        <time>1970-01-01T00:21:05.000Z</time>
      </trkpt>
      <trkpt lat="45.97147" lon="4.56812">
        <ele>549.7</ele>
        <time>1970-01-01T00:21:06.000Z</time>
      </trkpt>
      <trkpt lat="45.97149" lon="4.56814">
        <ele>549.9</ele>
        <time>1970-01-01T00:21:07.000Z</time>
      </trkpt>
      <trkpt lat="45.97149" lon="4.56814">
        <ele>549.9</ele>
        <time>1970-01-01T00:21:08.000Z</time>
      </trkpt>
      <trkpt lat="45.97151" lon="4.56816">
        <ele>550</ele>
        <time>1970-01-01T00:21:09.000Z</time>
      </trkpt>
      <trkpt lat="45.97151" lon="4.56816">
        <ele>550</ele>
        <time>1970-01-01T00:21:10.000Z</time>
      </trkpt>
      <trkpt lat="45.97153" lon="4.56818">
        <ele>550.1</ele>
        <time>1970-01-01T00:21:11.000Z</time>
      </trkpt>
      <trkpt lat="45.97153" lon="4.56818">
        <ele>550.1</ele>
        <time>1970-01-01T00:21:12.000Z</time>
      </trkpt>
      <trkpt lat="45.97154" lon="4.5682">
        <ele>550.3</ele>
        <time>1970-01-01T00:21:13.000Z</time>
      </trkpt>
      <trkpt lat="45.97154" lon="4.5682">
        <ele>550.3</ele>
        <time>1970-01-01T00:21:14.000Z</time>
      </trkpt>
      <trkpt lat="45.97156" lon="4.56822">
        <ele>550.4</ele>
        <time>1970-01-01T00:21:15.000Z</time>
      </trkpt>
      <trkpt lat="45.97156" lon="4.56822">
        <ele>550.4</ele>
        <time>1970-01-01T00:21:16.000Z</time>
      </trkpt>
      <trkpt lat="45.97159" lon="4.56824">
        <ele>550.6</ele>
        <time>1970-01-01T00:21:17.000Z</time>
      </trkpt>
      <trkpt lat="45.97159" lon="4.56824">
        <ele>550.6</ele>
        <time>1970-01-01T00:21:18.000Z</time>
      </trkpt>
      <trkpt lat="45.97161" lon="4.56827">
        <ele>550.8</ele>
        <time>1970-01-01T00:21:19.000Z</time>
      </trkpt>
      <trkpt lat="45.97161" lon="4.56827">
        <ele>550.8</ele>
        <time>1970-01-01T00:21:20.000Z</time>
      </trkpt>
      <trkpt lat="45.97163" lon="4.56829">
        <ele>550.9</ele>
        <time>1970-01-01T00:21:21.000Z</time>
      </trkpt>
      <trkpt lat="45.97163" lon="4.56829">
        <ele>550.9</ele>
        <time>1970-01-01T00:21:22.000Z</time>
      </trkpt>
      <trkpt lat="45.97165" lon="4.56831">
        <ele>551.1</ele>
        <time>1970-01-01T00:21:23.000Z</time>
      </trkpt>
      <trkpt lat="45.97165" lon="4.56831">
        <ele>551.1</ele>
        <time>1970-01-01T00:21:24.000Z</time>
      </trkpt>
      <trkpt lat="45.97166" lon="4.56833">
        <ele>551.2</ele>
        <time>1970-01-01T00:21:25.000Z</time>
      </trkpt>
      <trkpt lat="45.97166" lon="4.56833">
        <ele>551.2</ele>
        <time>1970-01-01T00:21:26.000Z</time>
      </trkpt>
      <trkpt lat="45.97168" lon="4.56835">
        <ele>551.3</ele>
        <time>1970-01-01T00:21:27.000Z</time>
      </trkpt>
      <trkpt lat="45.97168" lon="4.56835">
        <ele>551.3</ele>
        <time>1970-01-01T00:21:28.000Z</time>
      </trkpt>
      <trkpt lat="45.97169" lon="4.56837">
        <ele>551.5</ele>
        <time>1970-01-01T00:21:29.000Z</time>
      </trkpt>
      <trkpt lat="45.97169" lon="4.56837">
        <ele>551.5</ele>
        <time>1970-01-01T00:21:30.000Z</time>
      </trkpt>
      <trkpt lat="45.97171" lon="4.5684">
        <ele>551.7</ele>
        <time>1970-01-01T00:21:31.000Z</time>
      </trkpt>
      <trkpt lat="45.97171" lon="4.5684">
        <ele>551.7</ele>
        <time>1970-01-01T00:21:32.000Z</time>
      </trkpt>
      <trkpt lat="45.97173" lon="4.56842">
        <ele>551.9</ele>
        <time>1970-01-01T00:21:33.000Z</time>
      </trkpt>
      <trkpt lat="45.97173" lon="4.56842">
        <ele>551.9</ele>
        <time>1970-01-01T00:21:34.000Z</time>
      </trkpt>
      <trkpt lat="45.97175" lon="4.56844">
        <ele>552.1</ele>
        <time>1970-01-01T00:21:35.000Z</time>
      </trkpt>
      <trkpt lat="45.97175" lon="4.56844">
        <ele>552.1</ele>
        <time>1970-01-01T00:21:36.000Z</time>
      </trkpt>
      <trkpt lat="45.97177" lon="4.56846">
        <ele>552.3</ele>
        <time>1970-01-01T00:21:37.000Z</time>
      </trkpt>
      <trkpt lat="45.97177" lon="4.56846">
        <ele>552.3</ele>
        <time>1970-01-01T00:21:38.000Z</time>
      </trkpt>
      <trkpt lat="45.97178" lon="4.56849">
        <ele>552.5</ele>
        <time>1970-01-01T00:21:39.000Z</time>
      </trkpt>
      <trkpt lat="45.97178" lon="4.56849">
        <ele>552.5</ele>
        <time>1970-01-01T00:21:40.000Z</time>
      </trkpt>
      <trkpt lat="45.9718" lon="4.56851">
        <ele>552.8</ele>
        <time>1970-01-01T00:21:41.000Z</time>
      </trkpt>
      <trkpt lat="45.9718" lon="4.56851">
        <ele>552.8</ele>
        <time>1970-01-01T00:21:42.000Z</time>
      </trkpt>
      <trkpt lat="45.97182" lon="4.56853">
        <ele>553</ele>
        <time>1970-01-01T00:21:43.000Z</time>
      </trkpt>
      <trkpt lat="45.97182" lon="4.56853">
        <ele>553</ele>
        <time>1970-01-01T00:21:44.000Z</time>
      </trkpt>
      <trkpt lat="45.97183" lon="4.56856">
        <ele>553.3</ele>
        <time>1970-01-01T00:21:45.000Z</time>
      </trkpt>
      <trkpt lat="45.97183" lon="4.56856">
        <ele>553.3</ele>
        <time>1970-01-01T00:21:46.000Z</time>
      </trkpt>
      <trkpt lat="45.97185" lon="4.56859">
        <ele>553.6</ele>
        <time>1970-01-01T00:21:47.000Z</time>
      </trkpt>
      <trkpt lat="45.97185" lon="4.56859">
        <ele>553.6</ele>
        <time>1970-01-01T00:21:48.000Z</time>
      </trkpt>
      <trkpt lat="45.97186" lon="4.56862">
        <ele>553.9</ele>
        <time>1970-01-01T00:21:49.000Z</time>
      </trkpt>
      <trkpt lat="45.97186" lon="4.56862">
        <ele>553.9</ele>
        <time>1970-01-01T00:21:50.000Z</time>
      </trkpt>
      <trkpt lat="45.97186" lon="4.56864">
        <ele>554.2</ele>
        <time>1970-01-01T00:21:51.000Z</time>
      </trkpt>
      <trkpt lat="45.97186" lon="4.56864">
        <ele>554.2</ele>
        <time>1970-01-01T00:21:52.000Z</time>
      </trkpt>
      <trkpt lat="45.97187" lon="4.56867">
        <ele>554.5</ele>
        <time>1970-01-01T00:21:53.000Z</time>
      </trkpt>
      <trkpt lat="45.97187" lon="4.56867">
        <ele>554.5</ele>
        <time>1970-01-01T00:21:54.000Z</time>
      </trkpt>
      <trkpt lat="45.97188" lon="4.5687">
        <ele>554.8</ele>
        <time>1970-01-01T00:21:55.000Z</time>
      </trkpt>
      <trkpt lat="45.97188" lon="4.5687">
        <ele>554.8</ele>
        <time>1970-01-01T00:21:56.000Z</time>
      </trkpt>
      <trkpt lat="45.97188" lon="4.5687">
        <ele>554.8</ele>
        <time>1970-01-01T00:21:57.000Z</time>
      </trkpt>
      <trkpt lat="45.9719" lon="4.56873">
        <ele>555.6</ele>
        <time>1970-01-01T00:21:58.000Z</time>
      </trkpt>
      <trkpt lat="45.9719" lon="4.56873">
        <ele>555.6</ele>
        <time>1970-01-01T00:21:59.000Z</time>
      </trkpt>
      <trkpt lat="45.9719" lon="4.56873">
        <ele>555.6</ele>
        <time>1970-01-01T00:22:00.000Z</time>
      </trkpt>
      <trkpt lat="45.97192" lon="4.56874">
        <ele>556</ele>
        <time>1970-01-01T00:22:01.000Z</time>
      </trkpt>
      <trkpt lat="45.97192" lon="4.56874">
        <ele>556</ele>
        <time>1970-01-01T00:22:02.000Z</time>
      </trkpt>
      <trkpt lat="45.97192" lon="4.56874">
        <ele>556</ele>
        <time>1970-01-01T00:22:03.000Z</time>
      </trkpt>
      <trkpt lat="45.97194" lon="4.56874">
        <ele>556.3</ele>
        <time>1970-01-01T00:22:04.000Z</time>
      </trkpt>
      <trkpt lat="45.97194" lon="4.56874">
        <ele>556.3</ele>
        <time>1970-01-01T00:22:05.000Z</time>
      </trkpt>
      <trkpt lat="45.97194" lon="4.56874">
        <ele>556.3</ele>
        <time>1970-01-01T00:22:06.000Z</time>
      </trkpt>
      <trkpt lat="45.97194" lon="4.56874">
        <ele>556.3</ele>
        <time>1970-01-01T00:22:07.000Z</time>
      </trkpt>
      <trkpt lat="45.97196" lon="4.56874">
        <ele>556.7</ele>
        <time>1970-01-01T00:22:08.000Z</time>
      </trkpt>
      <trkpt lat="45.97196" lon="4.56874">
        <ele>556.7</ele>
        <time>1970-01-01T00:22:09.000Z</time>
      </trkpt>
      <trkpt lat="45.97198" lon="4.56873">
        <ele>557</ele>
        <time>1970-01-01T00:22:10.000Z</time>
      </trkpt>
      <trkpt lat="45.97198" lon="4.56873">
        <ele>557</ele>
        <time>1970-01-01T00:22:11.000Z</time>
      </trkpt>
      <trkpt lat="45.972" lon="4.56872">
        <ele>557.3</ele>
        <time>1970-01-01T00:22:12.000Z</time>
      </trkpt>
      <trkpt lat="45.972" lon="4.56872">
        <ele>557.3</ele>
        <time>1970-01-01T00:22:13.000Z</time>
      </trkpt>
      <trkpt lat="45.97202" lon="4.56872">
        <ele>557.6</ele>
        <time>1970-01-01T00:22:14.000Z</time>
      </trkpt>
      <trkpt lat="45.97202" lon="4.56872">
        <ele>557.6</ele>
        <time>1970-01-01T00:22:15.000Z</time>
      </trkpt>
      <trkpt lat="45.97204" lon="4.56871">
        <ele>558</ele>
        <time>1970-01-01T00:22:16.000Z</time>
      </trkpt>
      <trkpt lat="45.97204" lon="4.56871">
        <ele>558</ele>
        <time>1970-01-01T00:22:17.000Z</time>
      </trkpt>
      <trkpt lat="45.97206" lon="4.56869">
        <ele>558.2</ele>
        <time>1970-01-01T00:22:18.000Z</time>
      </trkpt>
      <trkpt lat="45.97206" lon="4.56869">
        <ele>558.2</ele>
        <time>1970-01-01T00:22:19.000Z</time>
      </trkpt>
      <trkpt lat="45.97208" lon="4.56867">
        <ele>558.5</ele>
        <time>1970-01-01T00:22:20.000Z</time>
      </trkpt>
      <trkpt lat="45.97208" lon="4.56867">
        <ele>558.5</ele>
        <time>1970-01-01T00:22:21.000Z</time>
      </trkpt>
      <trkpt lat="45.9721" lon="4.56867">
        <ele>558.8</ele>
        <time>1970-01-01T00:22:22.000Z</time>
      </trkpt>
      <trkpt lat="45.9721" lon="4.56867">
        <ele>558.8</ele>
        <time>1970-01-01T00:22:23.000Z</time>
      </trkpt>
      <trkpt lat="45.97212" lon="4.56867">
        <ele>559</ele>
        <time>1970-01-01T00:22:24.000Z</time>
      </trkpt>
      <trkpt lat="45.97212" lon="4.56867">
        <ele>559</ele>
        <time>1970-01-01T00:22:25.000Z</time>
      </trkpt>
      <trkpt lat="45.97214" lon="4.56866">
        <ele>559.3</ele>
        <time>1970-01-01T00:22:26.000Z</time>
      </trkpt>
      <trkpt lat="45.97214" lon="4.56866">
        <ele>559.3</ele>
        <time>1970-01-01T00:22:27.000Z</time>
      </trkpt>
      <trkpt lat="45.97216" lon="4.56865">
        <ele>559.5</ele>
        <time>1970-01-01T00:22:28.000Z</time>
      </trkpt>
      <trkpt lat="45.97216" lon="4.56865">
        <ele>559.5</ele>
        <time>1970-01-01T00:22:29.000Z</time>
      </trkpt>
      <trkpt lat="45.97218" lon="4.56864">
        <ele>559.7</ele>
        <time>1970-01-01T00:22:30.000Z</time>
      </trkpt>
      <trkpt lat="45.97218" lon="4.56864">
        <ele>559.7</ele>
        <time>1970-01-01T00:22:31.000Z</time>
      </trkpt>
      <trkpt lat="45.97218" lon="4.56864">
        <ele>559.7</ele>
        <time>1970-01-01T00:22:32.000Z</time>
      </trkpt>
      <trkpt lat="45.97221" lon="4.56863">
        <ele>560.1</ele>
        <time>1970-01-01T00:22:33.000Z</time>
      </trkpt>
      <trkpt lat="45.97221" lon="4.56863">
        <ele>560.1</ele>
        <time>1970-01-01T00:22:34.000Z</time>
      </trkpt>
      <trkpt lat="45.97223" lon="4.56862">
        <ele>560.3</ele>
        <time>1970-01-01T00:22:35.000Z</time>
      </trkpt>
      <trkpt lat="45.97223" lon="4.56862">
        <ele>560.3</ele>
        <time>1970-01-01T00:22:36.000Z</time>
      </trkpt>
      <trkpt lat="45.97226" lon="4.56862">
        <ele>560.5</ele>
        <time>1970-01-01T00:22:37.000Z</time>
      </trkpt>
      <trkpt lat="45.97226" lon="4.56862">
        <ele>560.5</ele>
        <time>1970-01-01T00:22:38.000Z</time>
      </trkpt>
      <trkpt lat="45.97228" lon="4.56861">
        <ele>560.7</ele>
        <time>1970-01-01T00:22:39.000Z</time>
      </trkpt>
      <trkpt lat="45.97228" lon="4.56861">
        <ele>560.7</ele>
        <time>1970-01-01T00:22:40.000Z</time>
      </trkpt>
      <trkpt lat="45.97231" lon="4.56861">
        <ele>560.9</ele>
        <time>1970-01-01T00:22:41.000Z</time>
      </trkpt>
      <trkpt lat="45.97231" lon="4.56861">
        <ele>560.9</ele>
        <time>1970-01-01T00:22:42.000Z</time>
      </trkpt>
      <trkpt lat="45.97233" lon="4.56859">
        <ele>561.1</ele>
        <time>1970-01-01T00:22:43.000Z</time>
      </trkpt>
      <trkpt lat="45.97233" lon="4.56859">
        <ele>561.1</ele>
        <time>1970-01-01T00:22:44.000Z</time>
      </trkpt>
      <trkpt lat="45.97235" lon="4.56858">
        <ele>561.3</ele>
        <time>1970-01-01T00:22:45.000Z</time>
      </trkpt>
      <trkpt lat="45.97235" lon="4.56858">
        <ele>561.3</ele>
        <time>1970-01-01T00:22:46.000Z</time>
      </trkpt>
      <trkpt lat="45.97238" lon="4.56857">
        <ele>561.5</ele>
        <time>1970-01-01T00:22:47.000Z</time>
      </trkpt>
      <trkpt lat="45.97238" lon="4.56857">
        <ele>561.5</ele>
        <time>1970-01-01T00:22:48.000Z</time>
      </trkpt>
      <trkpt lat="45.9724" lon="4.56856">
        <ele>561.7</ele>
        <time>1970-01-01T00:22:49.000Z</time>
      </trkpt>
      <trkpt lat="45.9724" lon="4.56856">
        <ele>561.7</ele>
        <time>1970-01-01T00:22:50.000Z</time>
      </trkpt>
      <trkpt lat="45.97242" lon="4.56855">
        <ele>561.9</ele>
        <time>1970-01-01T00:22:51.000Z</time>
      </trkpt>
      <trkpt lat="45.97242" lon="4.56855">
        <ele>561.9</ele>
        <time>1970-01-01T00:22:52.000Z</time>
      </trkpt>
      <trkpt lat="45.97244" lon="4.56854">
        <ele>562.1</ele>
        <time>1970-01-01T00:22:53.000Z</time>
      </trkpt>
      <trkpt lat="45.97244" lon="4.56854">
        <ele>562.1</ele>
        <time>1970-01-01T00:22:54.000Z</time>
      </trkpt>
      <trkpt lat="45.97247" lon="4.56853">
        <ele>562.3</ele>
        <time>1970-01-01T00:22:55.000Z</time>
      </trkpt>
      <trkpt lat="45.97247" lon="4.56853">
        <ele>562.3</ele>
        <time>1970-01-01T00:22:56.000Z</time>
      </trkpt>
      <trkpt lat="45.97249" lon="4.56852">
        <ele>562.5</ele>
        <time>1970-01-01T00:22:57.000Z</time>
      </trkpt>
      <trkpt lat="45.97249" lon="4.56852">
        <ele>562.5</ele>
        <time>1970-01-01T00:22:58.000Z</time>
      </trkpt>
      <trkpt lat="45.97251" lon="4.56851">
        <ele>562.6</ele>
        <time>1970-01-01T00:22:59.000Z</time>
      </trkpt>
      <trkpt lat="45.97251" lon="4.56851">
        <ele>562.6</ele>
        <time>1970-01-01T00:23:00.000Z</time>
      </trkpt>
      <trkpt lat="45.97253" lon="4.5685">
        <ele>562.8</ele>
        <time>1970-01-01T00:23:01.000Z</time>
      </trkpt>
      <trkpt lat="45.97253" lon="4.5685">
        <ele>562.8</ele>
        <time>1970-01-01T00:23:02.000Z</time>
      </trkpt>
      <trkpt lat="45.97255" lon="4.56849">
        <ele>563</ele>
        <time>1970-01-01T00:23:03.000Z</time>
      </trkpt>
      <trkpt lat="45.97255" lon="4.56849">
        <ele>563</ele>
        <time>1970-01-01T00:23:04.000Z</time>
      </trkpt>
      <trkpt lat="45.97257" lon="4.56848">
        <ele>563.2</ele>
        <time>1970-01-01T00:23:05.000Z</time>
      </trkpt>
      <trkpt lat="45.97257" lon="4.56848">
        <ele>563.2</ele>
        <time>1970-01-01T00:23:06.000Z</time>
      </trkpt>
      <trkpt lat="45.97259" lon="4.56847">
        <ele>563.4</ele>
        <time>1970-01-01T00:23:07.000Z</time>
      </trkpt>
      <trkpt lat="45.97259" lon="4.56847">
        <ele>563.4</ele>
        <time>1970-01-01T00:23:08.000Z</time>
      </trkpt>
      <trkpt lat="45.97262" lon="4.56846">
        <ele>563.7</ele>
        <time>1970-01-01T00:23:09.000Z</time>
      </trkpt>
      <trkpt lat="45.97262" lon="4.56846">
        <ele>563.7</ele>
        <time>1970-01-01T00:23:10.000Z</time>
      </trkpt>
      <trkpt lat="45.97264" lon="4.56845">
        <ele>564</ele>
        <time>1970-01-01T00:23:11.000Z</time>
      </trkpt>
      <trkpt lat="45.97264" lon="4.56845">
        <ele>564</ele>
        <time>1970-01-01T00:23:12.000Z</time>
      </trkpt>
      <trkpt lat="45.97266" lon="4.56845">
        <ele>564.2</ele>
        <time>1970-01-01T00:23:13.000Z</time>
      </trkpt>
      <trkpt lat="45.97266" lon="4.56845">
        <ele>564.2</ele>
        <time>1970-01-01T00:23:14.000Z</time>
      </trkpt>
      <trkpt lat="45.97268" lon="4.56844">
        <ele>564.4</ele>
        <time>1970-01-01T00:23:15.000Z</time>
      </trkpt>
      <trkpt lat="45.97268" lon="4.56844">
        <ele>564.4</ele>
        <time>1970-01-01T00:23:16.000Z</time>
      </trkpt>
      <trkpt lat="45.97268" lon="4.56844">
        <ele>564.4</ele>
        <time>1970-01-01T00:23:17.000Z</time>
      </trkpt>
      <trkpt lat="45.97271" lon="4.56843">
        <ele>564.7</ele>
        <time>1970-01-01T00:23:18.000Z</time>
      </trkpt>
      <trkpt lat="45.97271" lon="4.56843">
        <ele>564.7</ele>
        <time>1970-01-01T00:23:19.000Z</time>
      </trkpt>
      <trkpt lat="45.97273" lon="4.56842">
        <ele>565</ele>
        <time>1970-01-01T00:23:20.000Z</time>
      </trkpt>
      <trkpt lat="45.97273" lon="4.56842">
        <ele>565</ele>
        <time>1970-01-01T00:23:21.000Z</time>
      </trkpt>
      <trkpt lat="45.97276" lon="4.56841">
        <ele>565.3</ele>
        <time>1970-01-01T00:23:22.000Z</time>
      </trkpt>
      <trkpt lat="45.97276" lon="4.56841">
        <ele>565.3</ele>
        <time>1970-01-01T00:23:23.000Z</time>
      </trkpt>
      <trkpt lat="45.97278" lon="4.5684">
        <ele>565.6</ele>
        <time>1970-01-01T00:23:24.000Z</time>
      </trkpt>
      <trkpt lat="45.97278" lon="4.5684">
        <ele>565.6</ele>
        <time>1970-01-01T00:23:25.000Z</time>
      </trkpt>
      <trkpt lat="45.9728" lon="4.56839">
        <ele>565.9</ele>
        <time>1970-01-01T00:23:26.000Z</time>
      </trkpt>
      <trkpt lat="45.9728" lon="4.56839">
        <ele>565.9</ele>
        <time>1970-01-01T00:23:27.000Z</time>
      </trkpt>
      <trkpt lat="45.97282" lon="4.56838">
        <ele>566.1</ele>
        <time>1970-01-01T00:23:28.000Z</time>
      </trkpt>
      <trkpt lat="45.97282" lon="4.56838">
        <ele>566.1</ele>
        <time>1970-01-01T00:23:29.000Z</time>
      </trkpt>
      <trkpt lat="45.97284" lon="4.56837">
        <ele>566.4</ele>
        <time>1970-01-01T00:23:30.000Z</time>
      </trkpt>
      <trkpt lat="45.97284" lon="4.56837">
        <ele>566.4</ele>
        <time>1970-01-01T00:23:31.000Z</time>
      </trkpt>
      <trkpt lat="45.97286" lon="4.56836">
        <ele>566.7</ele>
        <time>1970-01-01T00:23:32.000Z</time>
      </trkpt>
      <trkpt lat="45.97286" lon="4.56836">
        <ele>566.7</ele>
        <time>1970-01-01T00:23:33.000Z</time>
      </trkpt>
      <trkpt lat="45.97288" lon="4.56835">
        <ele>566.9</ele>
        <time>1970-01-01T00:23:34.000Z</time>
      </trkpt>
      <trkpt lat="45.97288" lon="4.56835">
        <ele>566.9</ele>
        <time>1970-01-01T00:23:35.000Z</time>
      </trkpt>
      <trkpt lat="45.9729" lon="4.56834">
        <ele>567.1</ele>
        <time>1970-01-01T00:23:36.000Z</time>
      </trkpt>
      <trkpt lat="45.9729" lon="4.56834">
        <ele>567.1</ele>
        <time>1970-01-01T00:23:37.000Z</time>
      </trkpt>
      <trkpt lat="45.97292" lon="4.56832">
        <ele>567.4</ele>
        <time>1970-01-01T00:23:38.000Z</time>
      </trkpt>
      <trkpt lat="45.97292" lon="4.56832">
        <ele>567.4</ele>
        <time>1970-01-01T00:23:39.000Z</time>
      </trkpt>
      <trkpt lat="45.97294" lon="4.56831">
        <ele>567.6</ele>
        <time>1970-01-01T00:23:40.000Z</time>
      </trkpt>
      <trkpt lat="45.97294" lon="4.56831">
        <ele>567.6</ele>
        <time>1970-01-01T00:23:41.000Z</time>
      </trkpt>
      <trkpt lat="45.97296" lon="4.5683">
        <ele>567.8</ele>
        <time>1970-01-01T00:23:42.000Z</time>
      </trkpt>
      <trkpt lat="45.97296" lon="4.5683">
        <ele>567.8</ele>
        <time>1970-01-01T00:23:43.000Z</time>
      </trkpt>
      <trkpt lat="45.97298" lon="4.56829">
        <ele>568</ele>
        <time>1970-01-01T00:23:44.000Z</time>
      </trkpt>
      <trkpt lat="45.97298" lon="4.56829">
        <ele>568</ele>
        <time>1970-01-01T00:23:45.000Z</time>
      </trkpt>
      <trkpt lat="45.97299" lon="4.56828">
        <ele>568.1</ele>
        <time>1970-01-01T00:23:46.000Z</time>
      </trkpt>
      <trkpt lat="45.97299" lon="4.56828">
        <ele>568.1</ele>
        <time>1970-01-01T00:23:47.000Z</time>
      </trkpt>
      <trkpt lat="45.97301" lon="4.56826">
        <ele>568.2</ele>
        <time>1970-01-01T00:23:48.000Z</time>
      </trkpt>
      <trkpt lat="45.97301" lon="4.56826">
        <ele>568.2</ele>
        <time>1970-01-01T00:23:49.000Z</time>
      </trkpt>
      <trkpt lat="45.97304" lon="4.56825">
        <ele>568.4</ele>
        <time>1970-01-01T00:23:50.000Z</time>
      </trkpt>
      <trkpt lat="45.97304" lon="4.56825">
        <ele>568.4</ele>
        <time>1970-01-01T00:23:51.000Z</time>
      </trkpt>
      <trkpt lat="45.97306" lon="4.56824">
        <ele>568.5</ele>
        <time>1970-01-01T00:23:52.000Z</time>
      </trkpt>
      <trkpt lat="45.97306" lon="4.56824">
        <ele>568.5</ele>
        <time>1970-01-01T00:23:53.000Z</time>
      </trkpt>
      <trkpt lat="45.97308" lon="4.56823">
        <ele>568.6</ele>
        <time>1970-01-01T00:23:54.000Z</time>
      </trkpt>
      <trkpt lat="45.97308" lon="4.56823">
        <ele>568.6</ele>
        <time>1970-01-01T00:23:55.000Z</time>
      </trkpt>
      <trkpt lat="45.9731" lon="4.56821">
        <ele>568.7</ele>
        <time>1970-01-01T00:23:56.000Z</time>
      </trkpt>
      <trkpt lat="45.9731" lon="4.56821">
        <ele>568.7</ele>
        <time>1970-01-01T00:23:57.000Z</time>
      </trkpt>
      <trkpt lat="45.97312" lon="4.56819">
        <ele>568.8</ele>
        <time>1970-01-01T00:23:58.000Z</time>
      </trkpt>
      <trkpt lat="45.97312" lon="4.56819">
        <ele>568.8</ele>
        <time>1970-01-01T00:23:59.000Z</time>
      </trkpt>
      <trkpt lat="45.97314" lon="4.56817">
        <ele>568.9</ele>
        <time>1970-01-01T00:24:00.000Z</time>
      </trkpt>
      <trkpt lat="45.97314" lon="4.56817">
        <ele>568.9</ele>
        <time>1970-01-01T00:24:01.000Z</time>
      </trkpt>
      <trkpt lat="45.97316" lon="4.56815">
        <ele>568.9</ele>
        <time>1970-01-01T00:24:02.000Z</time>
      </trkpt>
      <trkpt lat="45.97316" lon="4.56815">
        <ele>568.9</ele>
        <time>1970-01-01T00:24:03.000Z</time>
      </trkpt>
      <trkpt lat="45.97318" lon="4.56814">
        <ele>569</ele>
        <time>1970-01-01T00:24:04.000Z</time>
      </trkpt>
      <trkpt lat="45.97318" lon="4.56814">
        <ele>569</ele>
        <time>1970-01-01T00:24:05.000Z</time>
      </trkpt>
      <trkpt lat="45.9732" lon="4.56812">
        <ele>569</ele>
        <time>1970-01-01T00:24:06.000Z</time>
      </trkpt>
      <trkpt lat="45.9732" lon="4.56812">
        <ele>569</ele>
        <time>1970-01-01T00:24:07.000Z</time>
      </trkpt>
      <trkpt lat="45.97322" lon="4.56811">
        <ele>569</ele>
        <time>1970-01-01T00:24:08.000Z</time>
      </trkpt>
      <trkpt lat="45.97322" lon="4.56811">
        <ele>569</ele>
        <time>1970-01-01T00:24:09.000Z</time>
      </trkpt>
      <trkpt lat="45.97324" lon="4.56809">
        <ele>569</ele>
        <time>1970-01-01T00:24:10.000Z</time>
      </trkpt>
      <trkpt lat="45.97324" lon="4.56809">
        <ele>569</ele>
        <time>1970-01-01T00:24:11.000Z</time>
      </trkpt>
      <trkpt lat="45.97326" lon="4.56807">
        <ele>569.1</ele>
        <time>1970-01-01T00:24:12.000Z</time>
      </trkpt>
      <trkpt lat="45.97326" lon="4.56807">
        <ele>569.1</ele>
        <time>1970-01-01T00:24:13.000Z</time>
      </trkpt>
      <trkpt lat="45.97328" lon="4.56805">
        <ele>569.1</ele>
        <time>1970-01-01T00:24:14.000Z</time>
      </trkpt>
      <trkpt lat="45.97328" lon="4.56805">
        <ele>569.1</ele>
        <time>1970-01-01T00:24:15.000Z</time>
      </trkpt>
      <trkpt lat="45.9733" lon="4.56804">
        <ele>569.1</ele>
        <time>1970-01-01T00:24:16.000Z</time>
      </trkpt>
      <trkpt lat="45.9733" lon="4.56804">
        <ele>569.1</ele>
        <time>1970-01-01T00:24:17.000Z</time>
      </trkpt>
      <trkpt lat="45.97333" lon="4.56803">
        <ele>569.2</ele>
        <time>1970-01-01T00:24:18.000Z</time>
      </trkpt>
      <trkpt lat="45.97333" lon="4.56803">
        <ele>569.2</ele>
        <time>1970-01-01T00:24:19.000Z</time>
      </trkpt>
      <trkpt lat="45.97335" lon="4.56803">
        <ele>569.3</ele>
        <time>1970-01-01T00:24:20.000Z</time>
      </trkpt>
      <trkpt lat="45.97335" lon="4.56803">
        <ele>569.3</ele>
        <time>1970-01-01T00:24:21.000Z</time>
      </trkpt>
      <trkpt lat="45.97337" lon="4.56802">
        <ele>569.5</ele>
        <time>1970-01-01T00:24:22.000Z</time>
      </trkpt>
      <trkpt lat="45.97337" lon="4.56802">
        <ele>569.5</ele>
        <time>1970-01-01T00:24:23.000Z</time>
      </trkpt>
      <trkpt lat="45.97339" lon="4.56801">
        <ele>569.6</ele>
        <time>1970-01-01T00:24:24.000Z</time>
      </trkpt>
      <trkpt lat="45.97339" lon="4.56801">
        <ele>569.6</ele>
        <time>1970-01-01T00:24:25.000Z</time>
      </trkpt>
      <trkpt lat="45.97341" lon="4.568">
        <ele>569.8</ele>
        <time>1970-01-01T00:24:26.000Z</time>
      </trkpt>
      <trkpt lat="45.97341" lon="4.568">
        <ele>569.8</ele>
        <time>1970-01-01T00:24:27.000Z</time>
      </trkpt>
      <trkpt lat="45.97343" lon="4.568">
        <ele>569.9</ele>
        <time>1970-01-01T00:24:28.000Z</time>
      </trkpt>
      <trkpt lat="45.97343" lon="4.568">
        <ele>569.9</ele>
        <time>1970-01-01T00:24:29.000Z</time>
      </trkpt>
      <trkpt lat="45.97346" lon="4.56799">
        <ele>570</ele>
        <time>1970-01-01T00:24:30.000Z</time>
      </trkpt>
      <trkpt lat="45.97346" lon="4.56799">
        <ele>570</ele>
        <time>1970-01-01T00:24:31.000Z</time>
      </trkpt>
      <trkpt lat="45.97348" lon="4.56799">
        <ele>570.2</ele>
        <time>1970-01-01T00:24:32.000Z</time>
      </trkpt>
      <trkpt lat="45.97348" lon="4.56799">
        <ele>570.2</ele>
        <time>1970-01-01T00:24:33.000Z</time>
      </trkpt>
      <trkpt lat="45.9735" lon="4.56798">
        <ele>570.3</ele>
        <time>1970-01-01T00:24:34.000Z</time>
      </trkpt>
      <trkpt lat="45.9735" lon="4.56798">
        <ele>570.3</ele>
        <time>1970-01-01T00:24:35.000Z</time>
      </trkpt>
      <trkpt lat="45.97352" lon="4.56798">
        <ele>570.4</ele>
        <time>1970-01-01T00:24:36.000Z</time>
      </trkpt>
      <trkpt lat="45.97352" lon="4.56798">
        <ele>570.4</ele>
        <time>1970-01-01T00:24:37.000Z</time>
      </trkpt>
      <trkpt lat="45.97354" lon="4.56796">
        <ele>570.6</ele>
        <time>1970-01-01T00:24:38.000Z</time>
      </trkpt>
      <trkpt lat="45.97354" lon="4.56796">
        <ele>570.6</ele>
        <time>1970-01-01T00:24:39.000Z</time>
      </trkpt>
      <trkpt lat="45.97356" lon="4.56795">
        <ele>570.7</ele>
        <time>1970-01-01T00:24:40.000Z</time>
      </trkpt>
      <trkpt lat="45.97356" lon="4.56795">
        <ele>570.7</ele>
        <time>1970-01-01T00:24:41.000Z</time>
      </trkpt>
      <trkpt lat="45.97359" lon="4.56795">
        <ele>570.9</ele>
        <time>1970-01-01T00:24:42.000Z</time>
      </trkpt>
      <trkpt lat="45.97359" lon="4.56795">
        <ele>570.9</ele>
        <time>1970-01-01T00:24:43.000Z</time>
      </trkpt>
      <trkpt lat="45.97361" lon="4.56794">
        <ele>571</ele>
        <time>1970-01-01T00:24:44.000Z</time>
      </trkpt>
      <trkpt lat="45.97361" lon="4.56794">
        <ele>571</ele>
        <time>1970-01-01T00:24:45.000Z</time>
      </trkpt>
      <trkpt lat="45.97363" lon="4.56793">
        <ele>571.1</ele>
        <time>1970-01-01T00:24:46.000Z</time>
      </trkpt>
      <trkpt lat="45.97363" lon="4.56793">
        <ele>571.1</ele>
        <time>1970-01-01T00:24:47.000Z</time>
      </trkpt>
      <trkpt lat="45.97365" lon="4.56792">
        <ele>571.3</ele>
        <time>1970-01-01T00:24:48.000Z</time>
      </trkpt>
      <trkpt lat="45.97365" lon="4.56792">
        <ele>571.3</ele>
        <time>1970-01-01T00:24:49.000Z</time>
      </trkpt>
      <trkpt lat="45.97367" lon="4.56791">
        <ele>571.5</ele>
        <time>1970-01-01T00:24:50.000Z</time>
      </trkpt>
      <trkpt lat="45.97367" lon="4.56791">
        <ele>571.5</ele>
        <time>1970-01-01T00:24:51.000Z</time>
      </trkpt>
      <trkpt lat="45.97369" lon="4.5679">
        <ele>571.7</ele>
        <time>1970-01-01T00:24:52.000Z</time>
      </trkpt>
      <trkpt lat="45.97369" lon="4.5679">
        <ele>571.7</ele>
        <time>1970-01-01T00:24:53.000Z</time>
      </trkpt>
      <trkpt lat="45.97371" lon="4.5679">
        <ele>571.8</ele>
        <time>1970-01-01T00:24:54.000Z</time>
      </trkpt>
      <trkpt lat="45.97371" lon="4.5679">
        <ele>571.8</ele>
        <time>1970-01-01T00:24:55.000Z</time>
      </trkpt>
      <trkpt lat="45.97373" lon="4.5679">
        <ele>572.1</ele>
        <time>1970-01-01T00:24:56.000Z</time>
      </trkpt>
      <trkpt lat="45.97373" lon="4.5679">
        <ele>572.1</ele>
        <time>1970-01-01T00:24:57.000Z</time>
      </trkpt>
      <trkpt lat="45.97375" lon="4.5679">
        <ele>572.3</ele>
        <time>1970-01-01T00:24:58.000Z</time>
      </trkpt>
      <trkpt lat="45.97375" lon="4.5679">
        <ele>572.3</ele>
        <time>1970-01-01T00:24:59.000Z</time>
      </trkpt>
      <trkpt lat="45.97378" lon="4.5679">
        <ele>572.5</ele>
        <time>1970-01-01T00:25:00.000Z</time>
      </trkpt>
      <trkpt lat="45.97378" lon="4.5679">
        <ele>572.5</ele>
        <time>1970-01-01T00:25:01.000Z</time>
      </trkpt>
      <trkpt lat="45.9738" lon="4.5679">
        <ele>572.8</ele>
        <time>1970-01-01T00:25:02.000Z</time>
      </trkpt>
      <trkpt lat="45.9738" lon="4.5679">
        <ele>572.8</ele>
        <time>1970-01-01T00:25:03.000Z</time>
      </trkpt>
      <trkpt lat="45.97382" lon="4.5679">
        <ele>573</ele>
        <time>1970-01-01T00:25:04.000Z</time>
      </trkpt>
      <trkpt lat="45.97382" lon="4.5679">
        <ele>573</ele>
        <time>1970-01-01T00:25:05.000Z</time>
      </trkpt>
      <trkpt lat="45.97384" lon="4.56789">
        <ele>573.3</ele>
        <time>1970-01-01T00:25:06.000Z</time>
      </trkpt>
      <trkpt lat="45.97384" lon="4.56789">
        <ele>573.3</ele>
        <time>1970-01-01T00:25:07.000Z</time>
      </trkpt>
      <trkpt lat="45.97386" lon="4.56789">
        <ele>573.6</ele>
        <time>1970-01-01T00:25:08.000Z</time>
      </trkpt>
      <trkpt lat="45.97386" lon="4.56789">
        <ele>573.6</ele>
        <time>1970-01-01T00:25:09.000Z</time>
      </trkpt>
      <trkpt lat="45.97388" lon="4.56788">
        <ele>573.9</ele>
        <time>1970-01-01T00:25:10.000Z</time>
      </trkpt>
      <trkpt lat="45.97388" lon="4.56788">
        <ele>573.9</ele>
        <time>1970-01-01T00:25:11.000Z</time>
      </trkpt>
      <trkpt lat="45.9739" lon="4.56787">
        <ele>574.2</ele>
        <time>1970-01-01T00:25:12.000Z</time>
      </trkpt>
      <trkpt lat="45.9739" lon="4.56787">
        <ele>574.2</ele>
        <time>1970-01-01T00:25:13.000Z</time>
      </trkpt>
      <trkpt lat="45.97392" lon="4.56786">
        <ele>574.4</ele>
        <time>1970-01-01T00:25:14.000Z</time>
      </trkpt>
      <trkpt lat="45.97392" lon="4.56786">
        <ele>574.4</ele>
        <time>1970-01-01T00:25:15.000Z</time>
      </trkpt>
      <trkpt lat="45.97394" lon="4.56785">
        <ele>574.7</ele>
        <time>1970-01-01T00:25:16.000Z</time>
      </trkpt>
      <trkpt lat="45.97394" lon="4.56785">
        <ele>574.7</ele>
        <time>1970-01-01T00:25:17.000Z</time>
      </trkpt>
      <trkpt lat="45.97396" lon="4.56784">
        <ele>575</ele>
        <time>1970-01-01T00:25:18.000Z</time>
      </trkpt>
      <trkpt lat="45.97396" lon="4.56784">
        <ele>575</ele>
        <time>1970-01-01T00:25:19.000Z</time>
      </trkpt>
      <trkpt lat="45.97398" lon="4.56782">
        <ele>575.3</ele>
        <time>1970-01-01T00:25:20.000Z</time>
      </trkpt>
      <trkpt lat="45.97398" lon="4.56782">
        <ele>575.3</ele>
        <time>1970-01-01T00:25:21.000Z</time>
      </trkpt>
      <trkpt lat="45.974" lon="4.56781">
        <ele>575.5</ele>
        <time>1970-01-01T00:25:22.000Z</time>
      </trkpt>
      <trkpt lat="45.974" lon="4.56781">
        <ele>575.5</ele>
        <time>1970-01-01T00:25:23.000Z</time>
      </trkpt>
      <trkpt lat="45.974" lon="4.56781">
        <ele>575.5</ele>
        <time>1970-01-01T00:25:24.000Z</time>
      </trkpt>
      <trkpt lat="45.97403" lon="4.5678">
        <ele>575.9</ele>
        <time>1970-01-01T00:25:25.000Z</time>
      </trkpt>
      <trkpt lat="45.97403" lon="4.5678">
        <ele>575.9</ele>
        <time>1970-01-01T00:25:26.000Z</time>
      </trkpt>
      <trkpt lat="45.97405" lon="4.5678">
        <ele>576.2</ele>
        <time>1970-01-01T00:25:27.000Z</time>
      </trkpt>
      <trkpt lat="45.97405" lon="4.5678">
        <ele>576.2</ele>
        <time>1970-01-01T00:25:28.000Z</time>
      </trkpt>
      <trkpt lat="45.97408" lon="4.56779">
        <ele>576.6</ele>
        <time>1970-01-01T00:25:29.000Z</time>
      </trkpt>
      <trkpt lat="45.97408" lon="4.56779">
        <ele>576.6</ele>
        <time>1970-01-01T00:25:30.000Z</time>
      </trkpt>
      <trkpt lat="45.9741" lon="4.56778">
        <ele>576.9</ele>
        <time>1970-01-01T00:25:31.000Z</time>
      </trkpt>
      <trkpt lat="45.9741" lon="4.56778">
        <ele>576.9</ele>
        <time>1970-01-01T00:25:32.000Z</time>
      </trkpt>
      <trkpt lat="45.97411" lon="4.56776">
        <ele>577.3</ele>
        <time>1970-01-01T00:25:33.000Z</time>
      </trkpt>
      <trkpt lat="45.97411" lon="4.56776">
        <ele>577.3</ele>
        <time>1970-01-01T00:25:34.000Z</time>
      </trkpt>
      <trkpt lat="45.97413" lon="4.56774">
        <ele>577.7</ele>
        <time>1970-01-01T00:25:35.000Z</time>
      </trkpt>
      <trkpt lat="45.97413" lon="4.56774">
        <ele>577.7</ele>
        <time>1970-01-01T00:25:36.000Z</time>
      </trkpt>
      <trkpt lat="45.97415" lon="4.56773">
        <ele>578.1</ele>
        <time>1970-01-01T00:25:37.000Z</time>
      </trkpt>
      <trkpt lat="45.97415" lon="4.56773">
        <ele>578.1</ele>
        <time>1970-01-01T00:25:38.000Z</time>
      </trkpt>
      <trkpt lat="45.97417" lon="4.56772">
        <ele>578.5</ele>
        <time>1970-01-01T00:25:39.000Z</time>
      </trkpt>
      <trkpt lat="45.97417" lon="4.56772">
        <ele>578.5</ele>
        <time>1970-01-01T00:25:40.000Z</time>
      </trkpt>
      <trkpt lat="45.97419" lon="4.5677">
        <ele>578.9</ele>
        <time>1970-01-01T00:25:41.000Z</time>
      </trkpt>
      <trkpt lat="45.97419" lon="4.5677">
        <ele>578.9</ele>
        <time>1970-01-01T00:25:42.000Z</time>
      </trkpt>
      <trkpt lat="45.9742" lon="4.56769">
        <ele>579.3</ele>
        <time>1970-01-01T00:25:43.000Z</time>
      </trkpt>
      <trkpt lat="45.9742" lon="4.56769">
        <ele>579.3</ele>
        <time>1970-01-01T00:25:44.000Z</time>
      </trkpt>
      <trkpt lat="45.97422" lon="4.56766">
        <ele>579.7</ele>
        <time>1970-01-01T00:25:45.000Z</time>
      </trkpt>
      <trkpt lat="45.97422" lon="4.56766">
        <ele>579.7</ele>
        <time>1970-01-01T00:25:46.000Z</time>
      </trkpt>
      <trkpt lat="45.97423" lon="4.56764">
        <ele>580.2</ele>
        <time>1970-01-01T00:25:47.000Z</time>
      </trkpt>
      <trkpt lat="45.97423" lon="4.56764">
        <ele>580.2</ele>
        <time>1970-01-01T00:25:48.000Z</time>
      </trkpt>
      <trkpt lat="45.97425" lon="4.56763">
        <ele>580.6</ele>
        <time>1970-01-01T00:25:49.000Z</time>
      </trkpt>
      <trkpt lat="45.97425" lon="4.56763">
        <ele>580.6</ele>
        <time>1970-01-01T00:25:50.000Z</time>
      </trkpt>
      <trkpt lat="45.97425" lon="4.56763">
        <ele>580.6</ele>
        <time>1970-01-01T00:25:51.000Z</time>
      </trkpt>
      <trkpt lat="45.97427" lon="4.56761">
        <ele>581.1</ele>
        <time>1970-01-01T00:25:52.000Z</time>
      </trkpt>
      <trkpt lat="45.97427" lon="4.56761">
        <ele>581.1</ele>
        <time>1970-01-01T00:25:53.000Z</time>
      </trkpt>
      <trkpt lat="45.97428" lon="4.56759">
        <ele>581.5</ele>
        <time>1970-01-01T00:25:54.000Z</time>
      </trkpt>
      <trkpt lat="45.97428" lon="4.56759">
        <ele>581.5</ele>
        <time>1970-01-01T00:25:55.000Z</time>
      </trkpt>
      <trkpt lat="45.9743" lon="4.56758">
        <ele>582</ele>
        <time>1970-01-01T00:25:56.000Z</time>
      </trkpt>
      <trkpt lat="45.9743" lon="4.56758">
        <ele>582</ele>
        <time>1970-01-01T00:25:57.000Z</time>
      </trkpt>
      <trkpt lat="45.97432" lon="4.56756">
        <ele>582.4</ele>
        <time>1970-01-01T00:25:58.000Z</time>
      </trkpt>
      <trkpt lat="45.97432" lon="4.56756">
        <ele>582.4</ele>
        <time>1970-01-01T00:25:59.000Z</time>
      </trkpt>
      <trkpt lat="45.97433" lon="4.56754">
        <ele>582.8</ele>
        <time>1970-01-01T00:26:00.000Z</time>
      </trkpt>
      <trkpt lat="45.97433" lon="4.56754">
        <ele>582.8</ele>
        <time>1970-01-01T00:26:01.000Z</time>
      </trkpt>
      <trkpt lat="45.97435" lon="4.56752">
        <ele>583.3</ele>
        <time>1970-01-01T00:26:02.000Z</time>
      </trkpt>
      <trkpt lat="45.97435" lon="4.56752">
        <ele>583.3</ele>
        <time>1970-01-01T00:26:03.000Z</time>
      </trkpt>
      <trkpt lat="45.97436" lon="4.56751">
        <ele>583.7</ele>
        <time>1970-01-01T00:26:04.000Z</time>
      </trkpt>
      <trkpt lat="45.97436" lon="4.56751">
        <ele>583.7</ele>
        <time>1970-01-01T00:26:05.000Z</time>
      </trkpt>
      <trkpt lat="45.97438" lon="4.56749">
        <ele>584.2</ele>
        <time>1970-01-01T00:26:06.000Z</time>
      </trkpt>
      <trkpt lat="45.97438" lon="4.56749">
        <ele>584.2</ele>
        <time>1970-01-01T00:26:07.000Z</time>
      </trkpt>
      <trkpt lat="45.9744" lon="4.56748">
        <ele>584.6</ele>
        <time>1970-01-01T00:26:08.000Z</time>
      </trkpt>
      <trkpt lat="45.9744" lon="4.56748">
        <ele>584.6</ele>
        <time>1970-01-01T00:26:09.000Z</time>
      </trkpt>
      <trkpt lat="45.97442" lon="4.56746">
        <ele>585.1</ele>
        <time>1970-01-01T00:26:10.000Z</time>
      </trkpt>
      <trkpt lat="45.97442" lon="4.56746">
        <ele>585.1</ele>
        <time>1970-01-01T00:26:11.000Z</time>
      </trkpt>
      <trkpt lat="45.97442" lon="4.56746">
        <ele>585.1</ele>
        <time>1970-01-01T00:26:12.000Z</time>
      </trkpt>
      <trkpt lat="45.97444" lon="4.56745">
        <ele>585.7</ele>
        <time>1970-01-01T00:26:13.000Z</time>
      </trkpt>
      <trkpt lat="45.97444" lon="4.56745">
        <ele>585.7</ele>
        <time>1970-01-01T00:26:14.000Z</time>
      </trkpt>
      <trkpt lat="45.97446" lon="4.56743">
        <ele>586.1</ele>
        <time>1970-01-01T00:26:15.000Z</time>
      </trkpt>
      <trkpt lat="45.97446" lon="4.56743">
        <ele>586.1</ele>
        <time>1970-01-01T00:26:16.000Z</time>
      </trkpt>
      <trkpt lat="45.97446" lon="4.56743">
        <ele>586.1</ele>
        <time>1970-01-01T00:26:17.000Z</time>
      </trkpt>
      <trkpt lat="45.97448" lon="4.56741">
        <ele>586.7</ele>
        <time>1970-01-01T00:26:18.000Z</time>
      </trkpt>
      <trkpt lat="45.97448" lon="4.56741">
        <ele>586.7</ele>
        <time>1970-01-01T00:26:19.000Z</time>
      </trkpt>
      <trkpt lat="45.9745" lon="4.5674">
        <ele>587.1</ele>
        <time>1970-01-01T00:26:20.000Z</time>
      </trkpt>
      <trkpt lat="45.9745" lon="4.5674">
        <ele>587.1</ele>
        <time>1970-01-01T00:26:21.000Z</time>
      </trkpt>
      <trkpt lat="45.9745" lon="4.5674">
        <ele>587.1</ele>
        <time>1970-01-01T00:26:22.000Z</time>
      </trkpt>
      <trkpt lat="45.97452" lon="4.56739">
        <ele>587.7</ele>
        <time>1970-01-01T00:26:23.000Z</time>
      </trkpt>
      <trkpt lat="45.97452" lon="4.56739">
        <ele>587.7</ele>
        <time>1970-01-01T00:26:24.000Z</time>
      </trkpt>
      <trkpt lat="45.97452" lon="4.56739">
        <ele>587.7</ele>
        <time>1970-01-01T00:26:25.000Z</time>
      </trkpt>
      <trkpt lat="45.97455" lon="4.56737">
        <ele>588.3</ele>
        <time>1970-01-01T00:26:26.000Z</time>
      </trkpt>
      <trkpt lat="45.97455" lon="4.56737">
        <ele>588.3</ele>
        <time>1970-01-01T00:26:27.000Z</time>
      </trkpt>
      <trkpt lat="45.97457" lon="4.56737">
        <ele>588.7</ele>
        <time>1970-01-01T00:26:28.000Z</time>
      </trkpt>
      <trkpt lat="45.97457" lon="4.56737">
        <ele>588.7</ele>
        <time>1970-01-01T00:26:29.000Z</time>
      </trkpt>
      <trkpt lat="45.97459" lon="4.56736">
        <ele>589.2</ele>
        <time>1970-01-01T00:26:30.000Z</time>
      </trkpt>
      <trkpt lat="45.97459" lon="4.56736">
        <ele>589.2</ele>
        <time>1970-01-01T00:26:31.000Z</time>
      </trkpt>
      <trkpt lat="45.9746" lon="4.56737">
        <ele>589.6</ele>
        <time>1970-01-01T00:26:32.000Z</time>
      </trkpt>
      <trkpt lat="45.9746" lon="4.56737">
        <ele>589.6</ele>
        <time>1970-01-01T00:26:33.000Z</time>
      </trkpt>
      <trkpt lat="45.9746" lon="4.56737">
        <ele>589.6</ele>
        <time>1970-01-01T00:26:34.000Z</time>
      </trkpt>
      <trkpt lat="45.97463" lon="4.56737">
        <ele>590</ele>
        <time>1970-01-01T00:26:35.000Z</time>
      </trkpt>
      <trkpt lat="45.97463" lon="4.56737">
        <ele>590</ele>
        <time>1970-01-01T00:26:36.000Z</time>
      </trkpt>
      <trkpt lat="45.97464" lon="4.56736">
        <ele>590.4</ele>
        <time>1970-01-01T00:26:37.000Z</time>
      </trkpt>
      <trkpt lat="45.97464" lon="4.56736">
        <ele>590.4</ele>
        <time>1970-01-01T00:26:38.000Z</time>
      </trkpt>
      <trkpt lat="45.97464" lon="4.56736">
        <ele>590.4</ele>
        <time>1970-01-01T00:26:39.000Z</time>
      </trkpt>
      <trkpt lat="45.97467" lon="4.56736">
        <ele>591</ele>
        <time>1970-01-01T00:26:40.000Z</time>
      </trkpt>
      <trkpt lat="45.97467" lon="4.56736">
        <ele>591</ele>
        <time>1970-01-01T00:26:41.000Z</time>
      </trkpt>
      <trkpt lat="45.97467" lon="4.56736">
        <ele>591</ele>
        <time>1970-01-01T00:26:42.000Z</time>
      </trkpt>
      <trkpt lat="45.97469" lon="4.56735">
        <ele>591.5</ele>
        <time>1970-01-01T00:26:43.000Z</time>
      </trkpt>
      <trkpt lat="45.97469" lon="4.56735">
        <ele>591.5</ele>
        <time>1970-01-01T00:26:44.000Z</time>
      </trkpt>
      <trkpt lat="45.97471" lon="4.56734">
        <ele>591.9</ele>
        <time>1970-01-01T00:26:45.000Z</time>
      </trkpt>
      <trkpt lat="45.97471" lon="4.56734">
        <ele>591.9</ele>
        <time>1970-01-01T00:26:46.000Z</time>
      </trkpt>
      <trkpt lat="45.97471" lon="4.56734">
        <ele>591.9</ele>
        <time>1970-01-01T00:26:47.000Z</time>
      </trkpt>
      <trkpt lat="45.97473" lon="4.56734">
        <ele>592.3</ele>
        <time>1970-01-01T00:26:48.000Z</time>
      </trkpt>
      <trkpt lat="45.97473" lon="4.56734">
        <ele>592.3</ele>
        <time>1970-01-01T00:26:49.000Z</time>
      </trkpt>
      <trkpt lat="45.97475" lon="4.56734">
        <ele>592.7</ele>
        <time>1970-01-01T00:26:50.000Z</time>
      </trkpt>
      <trkpt lat="45.97475" lon="4.56734">
        <ele>592.7</ele>
        <time>1970-01-01T00:26:51.000Z</time>
      </trkpt>
      <trkpt lat="45.97477" lon="4.56733">
        <ele>593.1</ele>
        <time>1970-01-01T00:26:52.000Z</time>
      </trkpt>
      <trkpt lat="45.97477" lon="4.56733">
        <ele>593.1</ele>
        <time>1970-01-01T00:26:53.000Z</time>
      </trkpt>
      <trkpt lat="45.97479" lon="4.56733">
        <ele>593.5</ele>
        <time>1970-01-01T00:26:54.000Z</time>
      </trkpt>
      <trkpt lat="45.97479" lon="4.56733">
        <ele>593.5</ele>
        <time>1970-01-01T00:26:55.000Z</time>
      </trkpt>
      <trkpt lat="45.97481" lon="4.56733">
        <ele>593.9</ele>
        <time>1970-01-01T00:26:56.000Z</time>
      </trkpt>
      <trkpt lat="45.97481" lon="4.56733">
        <ele>593.9</ele>
        <time>1970-01-01T00:26:57.000Z</time>
      </trkpt>
      <trkpt lat="45.97483" lon="4.56732">
        <ele>594.3</ele>
        <time>1970-01-01T00:26:58.000Z</time>
      </trkpt>
      <trkpt lat="45.97483" lon="4.56732">
        <ele>594.3</ele>
        <time>1970-01-01T00:26:59.000Z</time>
      </trkpt>
      <trkpt lat="45.97485" lon="4.56732">
        <ele>594.6</ele>
        <time>1970-01-01T00:27:00.000Z</time>
      </trkpt>
      <trkpt lat="45.97485" lon="4.56732">
        <ele>594.6</ele>
        <time>1970-01-01T00:27:01.000Z</time>
      </trkpt>
      <trkpt lat="45.97487" lon="4.56731">
        <ele>595</ele>
        <time>1970-01-01T00:27:02.000Z</time>
      </trkpt>
      <trkpt lat="45.97487" lon="4.56731">
        <ele>595</ele>
        <time>1970-01-01T00:27:03.000Z</time>
      </trkpt>
      <trkpt lat="45.97489" lon="4.5673">
        <ele>595.4</ele>
        <time>1970-01-01T00:27:04.000Z</time>
      </trkpt>
      <trkpt lat="45.97489" lon="4.5673">
        <ele>595.4</ele>
        <time>1970-01-01T00:27:05.000Z</time>
      </trkpt>
      <trkpt lat="45.97491" lon="4.5673">
        <ele>595.8</ele>
        <time>1970-01-01T00:27:06.000Z</time>
      </trkpt>
      <trkpt lat="45.97491" lon="4.5673">
        <ele>595.8</ele>
        <time>1970-01-01T00:27:07.000Z</time>
      </trkpt>
      <trkpt lat="45.97491" lon="4.5673">
        <ele>595.8</ele>
        <time>1970-01-01T00:27:08.000Z</time>
      </trkpt>
      <trkpt lat="45.97494" lon="4.56729">
        <ele>596.3</ele>
        <time>1970-01-01T00:27:09.000Z</time>
      </trkpt>
      <trkpt lat="45.97494" lon="4.56729">
        <ele>596.3</ele>
        <time>1970-01-01T00:27:10.000Z</time>
      </trkpt>
      <trkpt lat="45.97496" lon="4.56728">
        <ele>596.7</ele>
        <time>1970-01-01T00:27:11.000Z</time>
      </trkpt>
      <trkpt lat="45.97496" lon="4.56728">
        <ele>596.7</ele>
        <time>1970-01-01T00:27:12.000Z</time>
      </trkpt>
      <trkpt lat="45.97498" lon="4.56727">
        <ele>597.1</ele>
        <time>1970-01-01T00:27:13.000Z</time>
      </trkpt>
      <trkpt lat="45.97498" lon="4.56727">
        <ele>597.1</ele>
        <time>1970-01-01T00:27:14.000Z</time>
      </trkpt>
      <trkpt lat="45.97501" lon="4.56727">
        <ele>597.6</ele>
        <time>1970-01-01T00:27:15.000Z</time>
      </trkpt>
      <trkpt lat="45.97501" lon="4.56727">
        <ele>597.6</ele>
        <time>1970-01-01T00:27:16.000Z</time>
      </trkpt>
      <trkpt lat="45.97503" lon="4.56727">
        <ele>598.1</ele>
        <time>1970-01-01T00:27:17.000Z</time>
      </trkpt>
      <trkpt lat="45.97503" lon="4.56727">
        <ele>598.1</ele>
        <time>1970-01-01T00:27:18.000Z</time>
      </trkpt>
      <trkpt lat="45.97506" lon="4.56726">
        <ele>598.5</ele>
        <time>1970-01-01T00:27:19.000Z</time>
      </trkpt>
      <trkpt lat="45.97506" lon="4.56726">
        <ele>598.5</ele>
        <time>1970-01-01T00:27:20.000Z</time>
      </trkpt>
      <trkpt lat="45.97508" lon="4.56726">
        <ele>598.9</ele>
        <time>1970-01-01T00:27:21.000Z</time>
      </trkpt>
      <trkpt lat="45.97508" lon="4.56726">
        <ele>598.9</ele>
        <time>1970-01-01T00:27:22.000Z</time>
      </trkpt>
      <trkpt lat="45.9751" lon="4.56725">
        <ele>599.3</ele>
        <time>1970-01-01T00:27:23.000Z</time>
      </trkpt>
      <trkpt lat="45.9751" lon="4.56725">
        <ele>599.3</ele>
        <time>1970-01-01T00:27:24.000Z</time>
      </trkpt>
      <trkpt lat="45.9751" lon="4.56725">
        <ele>599.3</ele>
        <time>1970-01-01T00:27:25.000Z</time>
      </trkpt>
      <trkpt lat="45.97512" lon="4.56724">
        <ele>599.7</ele>
        <time>1970-01-01T00:27:26.000Z</time>
      </trkpt>
      <trkpt lat="45.97512" lon="4.56724">
        <ele>599.7</ele>
        <time>1970-01-01T00:27:27.000Z</time>
      </trkpt>
      <trkpt lat="45.97514" lon="4.56723">
        <ele>600.1</ele>
        <time>1970-01-01T00:27:28.000Z</time>
      </trkpt>
      <trkpt lat="45.97514" lon="4.56723">
        <ele>600.1</ele>
        <time>1970-01-01T00:27:29.000Z</time>
      </trkpt>
      <trkpt lat="45.97516" lon="4.56723">
        <ele>600.5</ele>
        <time>1970-01-01T00:27:30.000Z</time>
      </trkpt>
      <trkpt lat="45.97516" lon="4.56723">
        <ele>600.5</ele>
        <time>1970-01-01T00:27:31.000Z</time>
      </trkpt>
      <trkpt lat="45.97518" lon="4.56722">
        <ele>600.8</ele>
        <time>1970-01-01T00:27:32.000Z</time>
      </trkpt>
      <trkpt lat="45.97518" lon="4.56722">
        <ele>600.8</ele>
        <time>1970-01-01T00:27:33.000Z</time>
      </trkpt>
      <trkpt lat="45.9752" lon="4.56721">
        <ele>601.2</ele>
        <time>1970-01-01T00:27:34.000Z</time>
      </trkpt>
      <trkpt lat="45.9752" lon="4.56721">
        <ele>601.2</ele>
        <time>1970-01-01T00:27:35.000Z</time>
      </trkpt>
      <trkpt lat="45.97522" lon="4.56721">
        <ele>601.6</ele>
        <time>1970-01-01T00:27:36.000Z</time>
      </trkpt>
      <trkpt lat="45.97522" lon="4.56721">
        <ele>601.6</ele>
        <time>1970-01-01T00:27:37.000Z</time>
      </trkpt>
      <trkpt lat="45.97524" lon="4.5672">
        <ele>602</ele>
        <time>1970-01-01T00:27:38.000Z</time>
      </trkpt>
      <trkpt lat="45.97524" lon="4.5672">
        <ele>602</ele>
        <time>1970-01-01T00:27:39.000Z</time>
      </trkpt>
      <trkpt lat="45.97526" lon="4.5672">
        <ele>602.3</ele>
        <time>1970-01-01T00:27:40.000Z</time>
      </trkpt>
      <trkpt lat="45.97526" lon="4.5672">
        <ele>602.3</ele>
        <time>1970-01-01T00:27:41.000Z</time>
      </trkpt>
      <trkpt lat="45.97528" lon="4.56719">
        <ele>602.7</ele>
        <time>1970-01-01T00:27:42.000Z</time>
      </trkpt>
      <trkpt lat="45.97528" lon="4.56719">
        <ele>602.7</ele>
        <time>1970-01-01T00:27:43.000Z</time>
      </trkpt>
      <trkpt lat="45.97528" lon="4.56719">
        <ele>602.7</ele>
        <time>1970-01-01T00:27:44.000Z</time>
      </trkpt>
      <trkpt lat="45.9753" lon="4.56718">
        <ele>603.1</ele>
        <time>1970-01-01T00:27:45.000Z</time>
      </trkpt>
      <trkpt lat="45.9753" lon="4.56718">
        <ele>603.1</ele>
        <time>1970-01-01T00:27:46.000Z</time>
      </trkpt>
      <trkpt lat="45.97532" lon="4.56717">
        <ele>603.5</ele>
        <time>1970-01-01T00:27:47.000Z</time>
      </trkpt>
      <trkpt lat="45.97532" lon="4.56717">
        <ele>603.5</ele>
        <time>1970-01-01T00:27:48.000Z</time>
      </trkpt>
      <trkpt lat="45.97535" lon="4.56716">
        <ele>603.9</ele>
        <time>1970-01-01T00:27:49.000Z</time>
      </trkpt>
      <trkpt lat="45.97535" lon="4.56716">
        <ele>603.9</ele>
        <time>1970-01-01T00:27:50.000Z</time>
      </trkpt>
      <trkpt lat="45.97537" lon="4.56715">
        <ele>604.3</ele>
        <time>1970-01-01T00:27:51.000Z</time>
      </trkpt>
      <trkpt lat="45.97537" lon="4.56715">
        <ele>604.3</ele>
        <time>1970-01-01T00:27:52.000Z</time>
      </trkpt>
      <trkpt lat="45.97538" lon="4.56714">
        <ele>604.6</ele>
        <time>1970-01-01T00:27:53.000Z</time>
      </trkpt>
      <trkpt lat="45.97538" lon="4.56714">
        <ele>604.6</ele>
        <time>1970-01-01T00:27:54.000Z</time>
      </trkpt>
      <trkpt lat="45.9754" lon="4.56713">
        <ele>604.9</ele>
        <time>1970-01-01T00:27:55.000Z</time>
      </trkpt>
      <trkpt lat="45.9754" lon="4.56713">
        <ele>604.9</ele>
        <time>1970-01-01T00:27:56.000Z</time>
      </trkpt>
      <trkpt lat="45.97543" lon="4.56712">
        <ele>605.3</ele>
        <time>1970-01-01T00:27:57.000Z</time>
      </trkpt>
      <trkpt lat="45.97543" lon="4.56712">
        <ele>605.3</ele>
        <time>1970-01-01T00:27:58.000Z</time>
      </trkpt>
      <trkpt lat="45.97544" lon="4.56711">
        <ele>605.6</ele>
        <time>1970-01-01T00:27:59.000Z</time>
      </trkpt>
      <trkpt lat="45.97544" lon="4.56711">
        <ele>605.6</ele>
        <time>1970-01-01T00:28:00.000Z</time>
      </trkpt>
      <trkpt lat="45.97546" lon="4.5671">
        <ele>606</ele>
        <time>1970-01-01T00:28:01.000Z</time>
      </trkpt>
      <trkpt lat="45.97546" lon="4.5671">
        <ele>606</ele>
        <time>1970-01-01T00:28:02.000Z</time>
      </trkpt>
      <trkpt lat="45.97549" lon="4.56709">
        <ele>606.4</ele>
        <time>1970-01-01T00:28:03.000Z</time>
      </trkpt>
      <trkpt lat="45.97549" lon="4.56709">
        <ele>606.4</ele>
        <time>1970-01-01T00:28:04.000Z</time>
      </trkpt>
      <trkpt lat="45.97551" lon="4.56708">
        <ele>606.7</ele>
        <time>1970-01-01T00:28:05.000Z</time>
      </trkpt>
      <trkpt lat="45.97551" lon="4.56708">
        <ele>606.7</ele>
        <time>1970-01-01T00:28:06.000Z</time>
      </trkpt>
      <trkpt lat="45.97551" lon="4.56708">
        <ele>606.7</ele>
        <time>1970-01-01T00:28:07.000Z</time>
      </trkpt>
      <trkpt lat="45.97553" lon="4.56706">
        <ele>607.1</ele>
        <time>1970-01-01T00:28:08.000Z</time>
      </trkpt>
      <trkpt lat="45.97553" lon="4.56706">
        <ele>607.1</ele>
        <time>1970-01-01T00:28:09.000Z</time>
      </trkpt>
      <trkpt lat="45.97555" lon="4.56705">
        <ele>607.4</ele>
        <time>1970-01-01T00:28:10.000Z</time>
      </trkpt>
      <trkpt lat="45.97555" lon="4.56705">
        <ele>607.4</ele>
        <time>1970-01-01T00:28:11.000Z</time>
      </trkpt>
      <trkpt lat="45.97556" lon="4.56703">
        <ele>607.6</ele>
        <time>1970-01-01T00:28:12.000Z</time>
      </trkpt>
      <trkpt lat="45.97556" lon="4.56703">
        <ele>607.6</ele>
        <time>1970-01-01T00:28:13.000Z</time>
      </trkpt>
      <trkpt lat="45.97558" lon="4.56702">
        <ele>607.9</ele>
        <time>1970-01-01T00:28:14.000Z</time>
      </trkpt>
      <trkpt lat="45.97558" lon="4.56702">
        <ele>607.9</ele>
        <time>1970-01-01T00:28:15.000Z</time>
      </trkpt>
      <trkpt lat="45.97559" lon="4.567">
        <ele>608.2</ele>
        <time>1970-01-01T00:28:16.000Z</time>
      </trkpt>
      <trkpt lat="45.97559" lon="4.567">
        <ele>608.2</ele>
        <time>1970-01-01T00:28:17.000Z</time>
      </trkpt>
      <trkpt lat="45.97559" lon="4.567">
        <ele>608.2</ele>
        <time>1970-01-01T00:28:18.000Z</time>
      </trkpt>
      <trkpt lat="45.97562" lon="4.56697">
        <ele>608.6</ele>
        <time>1970-01-01T00:28:19.000Z</time>
      </trkpt>
      <trkpt lat="45.97562" lon="4.56697">
        <ele>608.6</ele>
        <time>1970-01-01T00:28:20.000Z</time>
      </trkpt>
      <trkpt lat="45.97564" lon="4.56696">
        <ele>609</ele>
        <time>1970-01-01T00:28:21.000Z</time>
      </trkpt>
      <trkpt lat="45.97564" lon="4.56696">
        <ele>609</ele>
        <time>1970-01-01T00:28:22.000Z</time>
      </trkpt>
      <trkpt lat="45.97566" lon="4.56694">
        <ele>609.3</ele>
        <time>1970-01-01T00:28:23.000Z</time>
      </trkpt>
      <trkpt lat="45.97566" lon="4.56694">
        <ele>609.3</ele>
        <time>1970-01-01T00:28:24.000Z</time>
      </trkpt>
      <trkpt lat="45.97568" lon="4.56692">
        <ele>609.7</ele>
        <time>1970-01-01T00:28:25.000Z</time>
      </trkpt>
      <trkpt lat="45.97568" lon="4.56692">
        <ele>609.7</ele>
        <time>1970-01-01T00:28:26.000Z</time>
      </trkpt>
      <trkpt lat="45.97571" lon="4.5669">
        <ele>610.1</ele>
        <time>1970-01-01T00:28:27.000Z</time>
      </trkpt>
      <trkpt lat="45.97571" lon="4.5669">
        <ele>610.1</ele>
        <time>1970-01-01T00:28:28.000Z</time>
      </trkpt>
      <trkpt lat="45.97572" lon="4.56689">
        <ele>610.4</ele>
        <time>1970-01-01T00:28:29.000Z</time>
      </trkpt>
      <trkpt lat="45.97572" lon="4.56689">
        <ele>610.4</ele>
        <time>1970-01-01T00:28:30.000Z</time>
      </trkpt>
      <trkpt lat="45.97574" lon="4.56687">
        <ele>610.7</ele>
        <time>1970-01-01T00:28:31.000Z</time>
      </trkpt>
      <trkpt lat="45.97574" lon="4.56687">
        <ele>610.7</ele>
        <time>1970-01-01T00:28:32.000Z</time>
      </trkpt>
      <trkpt lat="45.97576" lon="4.56685">
        <ele>611</ele>
        <time>1970-01-01T00:28:33.000Z</time>
      </trkpt>
      <trkpt lat="45.97576" lon="4.56685">
        <ele>611</ele>
        <time>1970-01-01T00:28:34.000Z</time>
      </trkpt>
      <trkpt lat="45.97578" lon="4.56683">
        <ele>611.3</ele>
        <time>1970-01-01T00:28:35.000Z</time>
      </trkpt>
      <trkpt lat="45.97578" lon="4.56683">
        <ele>611.3</ele>
        <time>1970-01-01T00:28:36.000Z</time>
      </trkpt>
      <trkpt lat="45.9758" lon="4.56681">
        <ele>611.6</ele>
        <time>1970-01-01T00:28:37.000Z</time>
      </trkpt>
      <trkpt lat="45.9758" lon="4.56681">
        <ele>611.6</ele>
        <time>1970-01-01T00:28:38.000Z</time>
      </trkpt>
      <trkpt lat="45.97581" lon="4.5668">
        <ele>611.8</ele>
        <time>1970-01-01T00:28:39.000Z</time>
      </trkpt>
      <trkpt lat="45.97581" lon="4.5668">
        <ele>611.8</ele>
        <time>1970-01-01T00:28:40.000Z</time>
      </trkpt>
      <trkpt lat="45.97583" lon="4.56678">
        <ele>612.1</ele>
        <time>1970-01-01T00:28:41.000Z</time>
      </trkpt>
      <trkpt lat="45.97583" lon="4.56678">
        <ele>612.1</ele>
        <time>1970-01-01T00:28:42.000Z</time>
      </trkpt>
      <trkpt lat="45.97585" lon="4.56677">
        <ele>612.4</ele>
        <time>1970-01-01T00:28:43.000Z</time>
      </trkpt>
      <trkpt lat="45.97585" lon="4.56677">
        <ele>612.4</ele>
        <time>1970-01-01T00:28:44.000Z</time>
      </trkpt>
      <trkpt lat="45.97587" lon="4.56675">
        <ele>612.7</ele>
        <time>1970-01-01T00:28:45.000Z</time>
      </trkpt>
      <trkpt lat="45.97587" lon="4.56675">
        <ele>612.7</ele>
        <time>1970-01-01T00:28:46.000Z</time>
      </trkpt>
      <trkpt lat="45.97589" lon="4.56674">
        <ele>613</ele>
        <time>1970-01-01T00:28:47.000Z</time>
      </trkpt>
      <trkpt lat="45.97589" lon="4.56674">
        <ele>613</ele>
        <time>1970-01-01T00:28:48.000Z</time>
      </trkpt>
      <trkpt lat="45.97591" lon="4.56672">
        <ele>613.4</ele>
        <time>1970-01-01T00:28:49.000Z</time>
      </trkpt>
      <trkpt lat="45.97591" lon="4.56672">
        <ele>613.4</ele>
        <time>1970-01-01T00:28:50.000Z</time>
      </trkpt>
      <trkpt lat="45.97593" lon="4.5667">
        <ele>613.7</ele>
        <time>1970-01-01T00:28:51.000Z</time>
      </trkpt>
      <trkpt lat="45.97593" lon="4.5667">
        <ele>613.7</ele>
        <time>1970-01-01T00:28:52.000Z</time>
      </trkpt>
      <trkpt lat="45.97595" lon="4.56669">
        <ele>613.9</ele>
        <time>1970-01-01T00:28:53.000Z</time>
      </trkpt>
      <trkpt lat="45.97595" lon="4.56669">
        <ele>613.9</ele>
        <time>1970-01-01T00:28:54.000Z</time>
      </trkpt>
      <trkpt lat="45.97597" lon="4.56668">
        <ele>614.2</ele>
        <time>1970-01-01T00:28:55.000Z</time>
      </trkpt>
      <trkpt lat="45.97597" lon="4.56668">
        <ele>614.2</ele>
        <time>1970-01-01T00:28:56.000Z</time>
      </trkpt>
      <trkpt lat="45.97598" lon="4.56666">
        <ele>614.5</ele>
        <time>1970-01-01T00:28:57.000Z</time>
      </trkpt>
      <trkpt lat="45.97598" lon="4.56666">
        <ele>614.5</ele>
        <time>1970-01-01T00:28:58.000Z</time>
      </trkpt>
      <trkpt lat="45.976" lon="4.56665">
        <ele>614.8</ele>
        <time>1970-01-01T00:28:59.000Z</time>
      </trkpt>
      <trkpt lat="45.976" lon="4.56665">
        <ele>614.8</ele>
        <time>1970-01-01T00:29:00.000Z</time>
      </trkpt>
      <trkpt lat="45.97602" lon="4.56663">
        <ele>615.1</ele>
        <time>1970-01-01T00:29:01.000Z</time>
      </trkpt>
      <trkpt lat="45.97602" lon="4.56663">
        <ele>615.1</ele>
        <time>1970-01-01T00:29:02.000Z</time>
      </trkpt>
      <trkpt lat="45.97604" lon="4.56661">
        <ele>615.4</ele>
        <time>1970-01-01T00:29:03.000Z</time>
      </trkpt>
      <trkpt lat="45.97604" lon="4.56661">
        <ele>615.4</ele>
        <time>1970-01-01T00:29:04.000Z</time>
      </trkpt>
      <trkpt lat="45.97606" lon="4.56659">
        <ele>615.8</ele>
        <time>1970-01-01T00:29:05.000Z</time>
      </trkpt>
      <trkpt lat="45.97606" lon="4.56659">
        <ele>615.8</ele>
        <time>1970-01-01T00:29:06.000Z</time>
      </trkpt>
      <trkpt lat="45.97606" lon="4.56659">
        <ele>615.8</ele>
        <time>1970-01-01T00:29:07.000Z</time>
      </trkpt>
      <trkpt lat="45.97609" lon="4.56657">
        <ele>616.1</ele>
        <time>1970-01-01T00:29:08.000Z</time>
      </trkpt>
      <trkpt lat="45.97609" lon="4.56657">
        <ele>616.1</ele>
        <time>1970-01-01T00:29:09.000Z</time>
      </trkpt>
      <trkpt lat="45.97611" lon="4.56656">
        <ele>616.4</ele>
        <time>1970-01-01T00:29:10.000Z</time>
      </trkpt>
      <trkpt lat="45.97611" lon="4.56656">
        <ele>616.4</ele>
        <time>1970-01-01T00:29:11.000Z</time>
      </trkpt>
      <trkpt lat="45.97613" lon="4.56655">
        <ele>616.7</ele>
        <time>1970-01-01T00:29:12.000Z</time>
      </trkpt>
      <trkpt lat="45.97613" lon="4.56655">
        <ele>616.7</ele>
        <time>1970-01-01T00:29:13.000Z</time>
      </trkpt>
      <trkpt lat="45.97615" lon="4.56654">
        <ele>616.9</ele>
        <time>1970-01-01T00:29:14.000Z</time>
      </trkpt>
      <trkpt lat="45.97615" lon="4.56654">
        <ele>616.9</ele>
        <time>1970-01-01T00:29:15.000Z</time>
      </trkpt>
      <trkpt lat="45.97618" lon="4.56652">
        <ele>617.2</ele>
        <time>1970-01-01T00:29:16.000Z</time>
      </trkpt>
      <trkpt lat="45.97618" lon="4.56652">
        <ele>617.2</ele>
        <time>1970-01-01T00:29:17.000Z</time>
      </trkpt>
      <trkpt lat="45.9762" lon="4.56651">
        <ele>617.5</ele>
        <time>1970-01-01T00:29:18.000Z</time>
      </trkpt>
      <trkpt lat="45.9762" lon="4.56651">
        <ele>617.5</ele>
        <time>1970-01-01T00:29:19.000Z</time>
      </trkpt>
      <trkpt lat="45.97622" lon="4.56649">
        <ele>617.7</ele>
        <time>1970-01-01T00:29:20.000Z</time>
      </trkpt>
      <trkpt lat="45.97622" lon="4.56649">
        <ele>617.7</ele>
        <time>1970-01-01T00:29:21.000Z</time>
      </trkpt>
      <trkpt lat="45.97624" lon="4.56648">
        <ele>617.9</ele>
        <time>1970-01-01T00:29:22.000Z</time>
      </trkpt>
      <trkpt lat="45.97624" lon="4.56648">
        <ele>617.9</ele>
        <time>1970-01-01T00:29:23.000Z</time>
      </trkpt>
      <trkpt lat="45.97626" lon="4.56646">
        <ele>618.1</ele>
        <time>1970-01-01T00:29:24.000Z</time>
      </trkpt>
      <trkpt lat="45.97626" lon="4.56646">
        <ele>618.1</ele>
        <time>1970-01-01T00:29:25.000Z</time>
      </trkpt>
      <trkpt lat="45.97628" lon="4.56645">
        <ele>618.4</ele>
        <time>1970-01-01T00:29:26.000Z</time>
      </trkpt>
      <trkpt lat="45.97628" lon="4.56645">
        <ele>618.4</ele>
        <time>1970-01-01T00:29:27.000Z</time>
      </trkpt>
      <trkpt lat="45.9763" lon="4.56643">
        <ele>618.6</ele>
        <time>1970-01-01T00:29:28.000Z</time>
      </trkpt>
      <trkpt lat="45.9763" lon="4.56643">
        <ele>618.6</ele>
        <time>1970-01-01T00:29:29.000Z</time>
      </trkpt>
      <trkpt lat="45.97632" lon="4.56641">
        <ele>618.8</ele>
        <time>1970-01-01T00:29:30.000Z</time>
      </trkpt>
      <trkpt lat="45.97632" lon="4.56641">
        <ele>618.8</ele>
        <time>1970-01-01T00:29:31.000Z</time>
      </trkpt>
      <trkpt lat="45.97635" lon="4.5664">
        <ele>619</ele>
        <time>1970-01-01T00:29:32.000Z</time>
      </trkpt>
      <trkpt lat="45.97635" lon="4.5664">
        <ele>619</ele>
        <time>1970-01-01T00:29:33.000Z</time>
      </trkpt>
      <trkpt lat="45.97637" lon="4.56639">
        <ele>619.3</ele>
        <time>1970-01-01T00:29:34.000Z</time>
      </trkpt>
      <trkpt lat="45.97637" lon="4.56639">
        <ele>619.3</ele>
        <time>1970-01-01T00:29:35.000Z</time>
      </trkpt>
      <trkpt lat="45.97639" lon="4.56638">
        <ele>619.5</ele>
        <time>1970-01-01T00:29:36.000Z</time>
      </trkpt>
      <trkpt lat="45.97639" lon="4.56638">
        <ele>619.5</ele>
        <time>1970-01-01T00:29:37.000Z</time>
      </trkpt>
      <trkpt lat="45.97641" lon="4.56637">
        <ele>619.7</ele>
        <time>1970-01-01T00:29:38.000Z</time>
      </trkpt>
      <trkpt lat="45.97641" lon="4.56637">
        <ele>619.7</ele>
        <time>1970-01-01T00:29:39.000Z</time>
      </trkpt>
      <trkpt lat="45.97643" lon="4.56636">
        <ele>619.9</ele>
        <time>1970-01-01T00:29:40.000Z</time>
      </trkpt>
      <trkpt lat="45.97643" lon="4.56636">
        <ele>619.9</ele>
        <time>1970-01-01T00:29:41.000Z</time>
      </trkpt>
      <trkpt lat="45.97645" lon="4.56635">
        <ele>620.1</ele>
        <time>1970-01-01T00:29:42.000Z</time>
      </trkpt>
      <trkpt lat="45.97645" lon="4.56635">
        <ele>620.1</ele>
        <time>1970-01-01T00:29:43.000Z</time>
      </trkpt>
      <trkpt lat="45.97647" lon="4.56634">
        <ele>620.4</ele>
        <time>1970-01-01T00:29:44.000Z</time>
      </trkpt>
      <trkpt lat="45.97647" lon="4.56634">
        <ele>620.4</ele>
        <time>1970-01-01T00:29:45.000Z</time>
      </trkpt>
      <trkpt lat="45.97649" lon="4.56634">
        <ele>620.6</ele>
        <time>1970-01-01T00:29:46.000Z</time>
      </trkpt>
      <trkpt lat="45.97649" lon="4.56634">
        <ele>620.6</ele>
        <time>1970-01-01T00:29:47.000Z</time>
      </trkpt>
      <trkpt lat="45.97651" lon="4.56633">
        <ele>620.8</ele>
        <time>1970-01-01T00:29:48.000Z</time>
      </trkpt>
      <trkpt lat="45.97651" lon="4.56633">
        <ele>620.8</ele>
        <time>1970-01-01T00:29:49.000Z</time>
      </trkpt>
      <trkpt lat="45.97654" lon="4.56632">
        <ele>621.1</ele>
        <time>1970-01-01T00:29:50.000Z</time>
      </trkpt>
      <trkpt lat="45.97654" lon="4.56632">
        <ele>621.1</ele>
        <time>1970-01-01T00:29:51.000Z</time>
      </trkpt>
      <trkpt lat="45.97656" lon="4.56631">
        <ele>621.4</ele>
        <time>1970-01-01T00:29:52.000Z</time>
      </trkpt>
      <trkpt lat="45.97656" lon="4.56631">
        <ele>621.4</ele>
        <time>1970-01-01T00:29:53.000Z</time>
      </trkpt>
      <trkpt lat="45.97658" lon="4.56629">
        <ele>621.6</ele>
        <time>1970-01-01T00:29:54.000Z</time>
      </trkpt>
      <trkpt lat="45.97658" lon="4.56629">
        <ele>621.6</ele>
        <time>1970-01-01T00:29:55.000Z</time>
      </trkpt>
      <trkpt lat="45.9766" lon="4.56628">
        <ele>621.9</ele>
        <time>1970-01-01T00:29:56.000Z</time>
      </trkpt>
      <trkpt lat="45.9766" lon="4.56628">
        <ele>621.9</ele>
        <time>1970-01-01T00:29:57.000Z</time>
      </trkpt>
      <trkpt lat="45.97663" lon="4.56627">
        <ele>622.1</ele>
        <time>1970-01-01T00:29:58.000Z</time>
      </trkpt>
      <trkpt lat="45.97663" lon="4.56627">
        <ele>622.1</ele>
        <time>1970-01-01T00:29:59.000Z</time>
      </trkpt>
      <trkpt lat="45.97665" lon="4.56626">
        <ele>622.4</ele>
        <time>1970-01-01T00:30:00.000Z</time>
      </trkpt>
      <trkpt lat="45.97665" lon="4.56626">
        <ele>622.4</ele>
        <time>1970-01-01T00:30:01.000Z</time>
      </trkpt>
      <trkpt lat="45.97666" lon="4.56625">
        <ele>622.6</ele>
        <time>1970-01-01T00:30:02.000Z</time>
      </trkpt>
      <trkpt lat="45.97666" lon="4.56625">
        <ele>622.6</ele>
        <time>1970-01-01T00:30:03.000Z</time>
      </trkpt>
      <trkpt lat="45.97666" lon="4.56625">
        <ele>622.6</ele>
        <time>1970-01-01T00:30:04.000Z</time>
      </trkpt>
      <trkpt lat="45.97666" lon="4.56625">
        <ele>622.6</ele>
        <time>1970-01-01T00:30:05.000Z</time>
      </trkpt>
      <trkpt lat="45.97666" lon="4.56625">
        <ele>622.6</ele>
        <time>1970-01-01T00:30:06.000Z</time>
      </trkpt>
      <trkpt lat="45.97666" lon="4.56625">
        <ele>622.6</ele>
        <time>1970-01-01T00:30:07.000Z</time>
      </trkpt>
      <trkpt lat="45.97667" lon="4.56622">
        <ele>622.8</ele>
        <time>1970-01-01T00:30:08.000Z</time>
      </trkpt>
      <trkpt lat="45.97667" lon="4.56622">
        <ele>622.8</ele>
        <time>1970-01-01T00:30:09.000Z</time>
      </trkpt>
      <trkpt lat="45.97669" lon="4.56622">
        <ele>622.9</ele>
        <time>1970-01-01T00:30:10.000Z</time>
      </trkpt>
      <trkpt lat="45.97669" lon="4.56622">
        <ele>622.9</ele>
        <time>1970-01-01T00:30:11.000Z</time>
      </trkpt>
      <trkpt lat="45.97669" lon="4.56622">
        <ele>622.9</ele>
        <time>1970-01-01T00:30:12.000Z</time>
      </trkpt>
      <trkpt lat="45.97669" lon="4.56622">
        <ele>622.9</ele>
        <time>1970-01-01T00:30:13.000Z</time>
      </trkpt>
      <trkpt lat="45.97669" lon="4.56622">
        <ele>622.9</ele>
        <time>1970-01-01T00:30:14.000Z</time>
      </trkpt>
      <trkpt lat="45.97669" lon="4.56622">
        <ele>622.9</ele>
        <time>1970-01-01T00:30:15.000Z</time>
      </trkpt>
      <trkpt lat="45.97669" lon="4.56622">
        <ele>622.9</ele>
        <time>1970-01-01T00:30:16.000Z</time>
      </trkpt>
      <trkpt lat="45.97669" lon="4.56622">
        <ele>622.9</ele>
        <time>1970-01-01T00:30:17.000Z</time>
      </trkpt>
      <trkpt lat="45.97669" lon="4.56622">
        <ele>622.9</ele>
        <time>1970-01-01T00:30:18.000Z</time>
      </trkpt>
      <trkpt lat="45.9767" lon="4.56622">
        <ele>623</ele>
        <time>1970-01-01T00:30:19.000Z</time>
      </trkpt>
      <trkpt lat="45.9767" lon="4.56622">
        <ele>623</ele>
        <time>1970-01-01T00:30:20.000Z</time>
      </trkpt>
      <trkpt lat="45.9767" lon="4.56622">
        <ele>623</ele>
        <time>1970-01-01T00:30:21.000Z</time>
      </trkpt>
      <trkpt lat="45.9767" lon="4.56622">
        <ele>623</ele>
        <time>1970-01-01T00:30:22.000Z</time>
      </trkpt>
      <trkpt lat="45.9767" lon="4.56622">
        <ele>623</ele>
        <time>1970-01-01T00:30:23.000Z</time>
      </trkpt>
      <trkpt lat="45.9767" lon="4.56622">
        <ele>623</ele>
        <time>1970-01-01T00:30:24.000Z</time>
      </trkpt>
      <trkpt lat="45.9767" lon="4.56622">
        <ele>623</ele>
        <time>1970-01-01T00:30:25.000Z</time>
      </trkpt>
      <trkpt lat="45.9767" lon="4.56622">
        <ele>623</ele>
        <time>1970-01-01T00:30:26.000Z</time>
      </trkpt>
      <trkpt lat="45.9767" lon="4.56622">
        <ele>623</ele>
        <time>1970-01-01T00:30:27.000Z</time>
      </trkpt>
      <trkpt lat="45.9767" lon="4.56622">
        <ele>623</ele>
        <time>1970-01-01T00:30:28.000Z</time>
      </trkpt>
      <trkpt lat="45.9767" lon="4.56622">
        <ele>623</ele>
        <time>1970-01-01T00:30:29.000Z</time>
      </trkpt>
      <trkpt lat="45.9767" lon="4.56622">
        <ele>623</ele>
        <time>1970-01-01T00:30:30.000Z</time>
      </trkpt>
      <trkpt lat="45.9767" lon="4.56622">
        <ele>623</ele>
        <time>1970-01-01T00:30:31.000Z</time>
      </trkpt>
      <trkpt lat="45.9767" lon="4.56622">
        <ele>623</ele>
        <time>1970-01-01T00:30:32.000Z</time>
      </trkpt>
      <trkpt lat="45.9767" lon="4.56622">
        <ele>623</ele>
        <time>1970-01-01T00:30:33.000Z</time>
      </trkpt>
      <trkpt lat="45.9767" lon="4.56622">
        <ele>623</ele>
        <time>1970-01-01T00:30:34.000Z</time>
      </trkpt>
      <trkpt lat="45.9767" lon="4.56622">
        <ele>623</ele>
        <time>1970-01-01T00:30:35.000Z</time>
      </trkpt>
      <trkpt lat="45.9767" lon="4.56622">
        <ele>623</ele>
        <time>1970-01-01T00:30:36.000Z</time>
      </trkpt>
      <trkpt lat="45.9767" lon="4.56622">
        <ele>623</ele>
        <time>1970-01-01T00:30:37.000Z</time>
      </trkpt>
      <trkpt lat="45.9767" lon="4.56622">
        <ele>623</ele>
        <time>1970-01-01T00:30:38.000Z</time>
      </trkpt>
      <trkpt lat="45.9767" lon="4.56622">
        <ele>623</ele>
        <time>1970-01-01T00:30:39.000Z</time>
      </trkpt>
      <trkpt lat="45.9767" lon="4.56622">
        <ele>623</ele>
        <time>1970-01-01T00:30:40.000Z</time>
      </trkpt>
      <trkpt lat="45.9767" lon="4.56622">
        <ele>623</ele>
        <time>1970-01-01T00:30:41.000Z</time>
      </trkpt>
      <trkpt lat="45.9767" lon="4.56622">
        <ele>623</ele>
        <time>1970-01-01T00:30:42.000Z</time>
      </trkpt>
      <trkpt lat="45.9767" lon="4.56621">
        <ele>623.1</ele>
        <time>1970-01-01T00:30:43.000Z</time>
      </trkpt>
      <trkpt lat="45.9767" lon="4.56621">
        <ele>623.1</ele>
        <time>1970-01-01T00:30:44.000Z</time>
      </trkpt>
      <trkpt lat="45.9767" lon="4.56621">
        <ele>623.1</ele>
        <time>1970-01-01T00:30:45.000Z</time>
      </trkpt>
      <trkpt lat="45.9767" lon="4.56621">
        <ele>623.1</ele>
        <time>1970-01-01T00:30:46.000Z</time>
      </trkpt>
      <trkpt lat="45.9767" lon="4.56621">
        <ele>623.1</ele>
        <time>1970-01-01T00:30:47.000Z</time>
      </trkpt>
      <trkpt lat="45.9767" lon="4.56621">
        <ele>623.1</ele>
        <time>1970-01-01T00:30:48.000Z</time>
      </trkpt>
      <trkpt lat="45.9767" lon="4.56621">
        <ele>623.1</ele>
        <time>1970-01-01T00:30:49.000Z</time>
      </trkpt>
      <trkpt lat="45.9767" lon="4.56621">
        <ele>623.1</ele>
        <time>1970-01-01T00:30:50.000Z</time>
      </trkpt>
      <trkpt lat="45.9767" lon="4.56621">
        <ele>623.1</ele>
        <time>1970-01-01T00:30:51.000Z</time>
      </trkpt>
      <trkpt lat="45.9767" lon="4.56621">
        <ele>623.1</ele>
        <time>1970-01-01T00:30:52.000Z</time>
      </trkpt>
      <trkpt lat="45.9767" lon="4.56621">
        <ele>623.1</ele>
        <time>1970-01-01T00:30:53.000Z</time>
      </trkpt>
      <trkpt lat="45.9767" lon="4.56621">
        <ele>623.1</ele>
        <time>1970-01-01T00:30:54.000Z</time>
      </trkpt>
      <trkpt lat="45.9767" lon="4.56621">
        <ele>623.1</ele>
        <time>1970-01-01T00:30:55.000Z</time>
      </trkpt>
      <trkpt lat="45.9767" lon="4.56621">
        <ele>623.1</ele>
        <time>1970-01-01T00:30:56.000Z</time>
      </trkpt>
      <trkpt lat="45.9767" lon="4.56621">
        <ele>623.1</ele>
        <time>1970-01-01T00:30:57.000Z</time>
      </trkpt>
      <trkpt lat="45.9767" lon="4.56621">
        <ele>623.1</ele>
        <time>1970-01-01T00:30:58.000Z</time>
      </trkpt>
      <trkpt lat="45.9767" lon="4.56621">
        <ele>623.1</ele>
        <time>1970-01-01T00:30:59.000Z</time>
      </trkpt>
      <trkpt lat="45.9767" lon="4.56621">
        <ele>623.1</ele>
        <time>1970-01-01T00:31:00.000Z</time>
      </trkpt>
      <trkpt lat="45.9767" lon="4.56621">
        <ele>623.1</ele>
        <time>1970-01-01T00:31:01.000Z</time>
      </trkpt>
      <trkpt lat="45.9767" lon="4.56621">
        <ele>623.1</ele>
        <time>1970-01-01T00:31:02.000Z</time>
      </trkpt>
      <trkpt lat="45.9767" lon="4.56621">
        <ele>623.1</ele>
        <time>1970-01-01T00:31:03.000Z</time>
      </trkpt>
      <trkpt lat="45.9767" lon="4.56621">
        <ele>623.1</ele>
        <time>1970-01-01T00:31:04.000Z</time>
      </trkpt>
      <trkpt lat="45.9767" lon="4.56621">
        <ele>623.1</ele>
        <time>1970-01-01T00:31:05.000Z</time>
      </trkpt>
      <trkpt lat="45.9767" lon="4.56621">
        <ele>623.1</ele>
        <time>1970-01-01T00:31:06.000Z</time>
      </trkpt>
      <trkpt lat="45.9767" lon="4.56621">
        <ele>623.1</ele>
        <time>1970-01-01T00:31:07.000Z</time>
      </trkpt>
      <trkpt lat="45.9767" lon="4.56621">
        <ele>623.1</ele>
        <time>1970-01-01T00:31:08.000Z</time>
      </trkpt>
      <trkpt lat="45.9767" lon="4.56621">
        <ele>623.1</ele>
        <time>1970-01-01T00:31:09.000Z</time>
      </trkpt>
      <trkpt lat="45.9767" lon="4.56621">
        <ele>623.1</ele>
        <time>1970-01-01T00:31:10.000Z</time>
      </trkpt>
      <trkpt lat="45.9767" lon="4.56621">
        <ele>623.1</ele>
        <time>1970-01-01T00:31:11.000Z</time>
      </trkpt>
      <trkpt lat="45.9767" lon="4.56621">
        <ele>623.1</ele>
        <time>1970-01-01T00:31:12.000Z</time>
      </trkpt>
      <trkpt lat="45.9767" lon="4.56621">
        <ele>623.1</ele>
        <time>1970-01-01T00:31:13.000Z</time>
      </trkpt>
      <trkpt lat="45.9767" lon="4.56621">
        <ele>623.1</ele>
        <time>1970-01-01T00:31:14.000Z</time>
      </trkpt>
      <trkpt lat="45.9767" lon="4.56621">
        <ele>623.1</ele>
        <time>1970-01-01T00:31:15.000Z</time>
      </trkpt>
      <trkpt lat="45.9767" lon="4.56621">
        <ele>623.1</ele>
        <time>1970-01-01T00:31:16.000Z</time>
      </trkpt>
      <trkpt lat="45.9767" lon="4.56621">
        <ele>623.1</ele>
        <time>1970-01-01T00:31:17.000Z</time>
      </trkpt>
      <trkpt lat="45.9767" lon="4.56621">
        <ele>623.1</ele>
        <time>1970-01-01T00:31:18.000Z</time>
      </trkpt>
      <trkpt lat="45.9767" lon="4.56621">
        <ele>623.1</ele>
        <time>1970-01-01T00:31:19.000Z</time>
      </trkpt>
      <trkpt lat="45.9767" lon="4.56621">
        <ele>623.1</ele>
        <time>1970-01-01T00:31:20.000Z</time>
      </trkpt>
      <trkpt lat="45.9767" lon="4.56621">
        <ele>623.1</ele>
        <time>1970-01-01T00:31:21.000Z</time>
      </trkpt>
      <trkpt lat="45.9767" lon="4.56621">
        <ele>623.1</ele>
        <time>1970-01-01T00:31:22.000Z</time>
      </trkpt>
      <trkpt lat="45.9767" lon="4.56621">
        <ele>623.1</ele>
        <time>1970-01-01T00:31:23.000Z</time>
      </trkpt>
      <trkpt lat="45.9767" lon="4.56621">
        <ele>623.1</ele>
        <time>1970-01-01T00:31:24.000Z</time>
      </trkpt>
      <trkpt lat="45.9767" lon="4.56621">
        <ele>623.1</ele>
        <time>1970-01-01T00:31:25.000Z</time>
      </trkpt>
      <trkpt lat="45.9767" lon="4.56621">
        <ele>623.1</ele>
        <time>1970-01-01T00:31:26.000Z</time>
      </trkpt>
      <trkpt lat="45.9767" lon="4.56621">
        <ele>623.1</ele>
        <time>1970-01-01T00:31:27.000Z</time>
      </trkpt>
      <trkpt lat="45.9767" lon="4.56621">
        <ele>623.1</ele>
        <time>1970-01-01T00:31:28.000Z</time>
      </trkpt>
      <trkpt lat="45.9767" lon="4.56621">
        <ele>623.1</ele>
        <time>1970-01-01T00:31:29.000Z</time>
      </trkpt>
      <trkpt lat="45.9767" lon="4.56621">
        <ele>623.1</ele>
        <time>1970-01-01T00:31:30.000Z</time>
      </trkpt>
      <trkpt lat="45.9767" lon="4.56621">
        <ele>623.1</ele>
        <time>1970-01-01T00:31:31.000Z</time>
      </trkpt>
      <trkpt lat="45.9767" lon="4.56621">
        <ele>623.1</ele>
        <time>1970-01-01T00:31:32.000Z</time>
      </trkpt>
      <trkpt lat="45.9767" lon="4.56621">
        <ele>623.1</ele>
        <time>1970-01-01T00:31:33.000Z</time>
      </trkpt>
      <trkpt lat="45.9767" lon="4.56621">
        <ele>623.1</ele>
        <time>1970-01-01T00:31:34.000Z</time>
      </trkpt>
      <trkpt lat="45.9767" lon="4.56621">
        <ele>623.1</ele>
        <time>1970-01-01T00:31:35.000Z</time>
      </trkpt>
      <trkpt lat="45.9767" lon="4.56621">
        <ele>623.1</ele>
        <time>1970-01-01T00:31:36.000Z</time>
      </trkpt>
      <trkpt lat="45.9767" lon="4.56621">
        <ele>623.1</ele>
        <time>1970-01-01T00:31:37.000Z</time>
      </trkpt>
      <trkpt lat="45.9767" lon="4.56621">
        <ele>623.1</ele>
        <time>1970-01-01T00:31:38.000Z</time>
      </trkpt>
      <trkpt lat="45.97669" lon="4.56623">
        <ele>623.2</ele>
        <time>1970-01-01T00:31:39.000Z</time>
      </trkpt>
      <trkpt lat="45.97669" lon="4.56623">
        <ele>623.2</ele>
        <time>1970-01-01T00:31:40.000Z</time>
      </trkpt>
      <trkpt lat="45.97669" lon="4.56623">
        <ele>623.2</ele>
        <time>1970-01-01T00:31:41.000Z</time>
      </trkpt>
      <trkpt lat="45.97669" lon="4.56623">
        <ele>623.2</ele>
        <time>1970-01-01T00:31:42.000Z</time>
      </trkpt>
      <trkpt lat="45.97669" lon="4.56623">
        <ele>623.2</ele>
        <time>1970-01-01T00:31:43.000Z</time>
      </trkpt>
      <trkpt lat="45.97669" lon="4.56623">
        <ele>623.2</ele>
        <time>1970-01-01T00:31:44.000Z</time>
      </trkpt>
      <trkpt lat="45.97669" lon="4.56623">
        <ele>623.2</ele>
        <time>1970-01-01T00:31:45.000Z</time>
      </trkpt>
      <trkpt lat="45.97669" lon="4.56623">
        <ele>623.2</ele>
        <time>1970-01-01T00:31:46.000Z</time>
      </trkpt>
      <trkpt lat="45.97669" lon="4.56623">
        <ele>623.2</ele>
        <time>1970-01-01T00:31:47.000Z</time>
      </trkpt>
      <trkpt lat="45.97669" lon="4.56623">
        <ele>623.2</ele>
        <time>1970-01-01T00:31:48.000Z</time>
      </trkpt>
      <trkpt lat="45.97669" lon="4.56623">
        <ele>623.2</ele>
        <time>1970-01-01T00:31:49.000Z</time>
      </trkpt>
      <trkpt lat="45.97673" lon="4.56617">
        <ele>623.5</ele>
        <time>1970-01-01T00:32:23.000Z</time>
      </trkpt>
      <trkpt lat="45.97673" lon="4.56617">
        <ele>623.5</ele>
        <time>1970-01-01T00:32:24.000Z</time>
      </trkpt>
      <trkpt lat="45.97674" lon="4.56614">
        <ele>623.6</ele>
        <time>1970-01-01T00:32:25.000Z</time>
      </trkpt>
      <trkpt lat="45.97674" lon="4.56614">
        <ele>623.6</ele>
        <time>1970-01-01T00:32:26.000Z</time>
      </trkpt>
      <trkpt lat="45.97674" lon="4.56614">
        <ele>623.6</ele>
        <time>1970-01-01T00:32:27.000Z</time>
      </trkpt>
      <trkpt lat="45.97675" lon="4.56611">
        <ele>623.6</ele>
        <time>1970-01-01T00:32:28.000Z</time>
      </trkpt>
      <trkpt lat="45.97675" lon="4.56611">
        <ele>623.6</ele>
        <time>1970-01-01T00:32:29.000Z</time>
      </trkpt>
      <trkpt lat="45.97675" lon="4.56611">
        <ele>623.6</ele>
        <time>1970-01-01T00:32:30.000Z</time>
      </trkpt>
      <trkpt lat="45.97676" lon="4.56608">
        <ele>623.6</ele>
        <time>1970-01-01T00:32:31.000Z</time>
      </trkpt>
      <trkpt lat="45.97676" lon="4.56608">
        <ele>623.6</ele>
        <time>1970-01-01T00:32:32.000Z</time>
      </trkpt>
      <trkpt lat="45.97676" lon="4.56608">
        <ele>623.6</ele>
        <time>1970-01-01T00:32:33.000Z</time>
      </trkpt>
      <trkpt lat="45.97677" lon="4.56606">
        <ele>623.6</ele>
        <time>1970-01-01T00:32:34.000Z</time>
      </trkpt>
      <trkpt lat="45.97677" lon="4.56606">
        <ele>623.6</ele>
        <time>1970-01-01T00:32:35.000Z</time>
      </trkpt>
      <trkpt lat="45.97677" lon="4.56606">
        <ele>623.6</ele>
        <time>1970-01-01T00:32:36.000Z</time>
      </trkpt>
      <trkpt lat="45.97677" lon="4.56606">
        <ele>623.6</ele>
        <time>1970-01-01T00:32:37.000Z</time>
      </trkpt>
      <trkpt lat="45.97678" lon="4.56603">
        <ele>623.6</ele>
        <time>1970-01-01T00:32:38.000Z</time>
      </trkpt>
      <trkpt lat="45.97678" lon="4.56603">
        <ele>623.6</ele>
        <time>1970-01-01T00:32:39.000Z</time>
      </trkpt>
      <trkpt lat="45.97678" lon="4.566">
        <ele>623.5</ele>
        <time>1970-01-01T00:32:40.000Z</time>
      </trkpt>
      <trkpt lat="45.97678" lon="4.566">
        <ele>623.5</ele>
        <time>1970-01-01T00:32:41.000Z</time>
      </trkpt>
      <trkpt lat="45.97679" lon="4.56598">
        <ele>623.5</ele>
        <time>1970-01-01T00:32:42.000Z</time>
      </trkpt>
      <trkpt lat="45.97679" lon="4.56598">
        <ele>623.5</ele>
        <time>1970-01-01T00:32:43.000Z</time>
      </trkpt>
      <trkpt lat="45.9768" lon="4.56595">
        <ele>623.5</ele>
        <time>1970-01-01T00:32:44.000Z</time>
      </trkpt>
      <trkpt lat="45.9768" lon="4.56595">
        <ele>623.5</ele>
        <time>1970-01-01T00:32:45.000Z</time>
      </trkpt>
      <trkpt lat="45.9768" lon="4.56595">
        <ele>623.5</ele>
        <time>1970-01-01T00:32:46.000Z</time>
      </trkpt>
      <trkpt lat="45.97681" lon="4.56593">
        <ele>623.4</ele>
        <time>1970-01-01T00:32:47.000Z</time>
      </trkpt>
      <trkpt lat="45.97681" lon="4.56593">
        <ele>623.4</ele>
        <time>1970-01-01T00:32:48.000Z</time>
      </trkpt>
      <trkpt lat="45.97681" lon="4.56593">
        <ele>623.4</ele>
        <time>1970-01-01T00:32:49.000Z</time>
      </trkpt>
      <trkpt lat="45.97682" lon="4.5659">
        <ele>623.4</ele>
        <time>1970-01-01T00:32:50.000Z</time>
      </trkpt>
      <trkpt lat="45.97682" lon="4.5659">
        <ele>623.4</ele>
        <time>1970-01-01T00:32:51.000Z</time>
      </trkpt>
      <trkpt lat="45.97682" lon="4.5659">
        <ele>623.4</ele>
        <time>1970-01-01T00:32:52.000Z</time>
      </trkpt>
      <trkpt lat="45.97682" lon="4.56587">
        <ele>623.3</ele>
        <time>1970-01-01T00:32:53.000Z</time>
      </trkpt>
      <trkpt lat="45.97682" lon="4.56587">
        <ele>623.3</ele>
        <time>1970-01-01T00:32:54.000Z</time>
      </trkpt>
      <trkpt lat="45.97682" lon="4.56587">
        <ele>623.3</ele>
        <time>1970-01-01T00:32:55.000Z</time>
      </trkpt>
      <trkpt lat="45.97683" lon="4.56584">
        <ele>623.2</ele>
        <time>1970-01-01T00:32:56.000Z</time>
      </trkpt>
      <trkpt lat="45.97683" lon="4.56584">
        <ele>623.2</ele>
        <time>1970-01-01T00:32:57.000Z</time>
      </trkpt>
      <trkpt lat="45.97683" lon="4.56584">
        <ele>623.2</ele>
        <time>1970-01-01T00:32:58.000Z</time>
      </trkpt>
      <trkpt lat="45.97684" lon="4.56582">
        <ele>623.2</ele>
        <time>1970-01-01T00:32:59.000Z</time>
      </trkpt>
      <trkpt lat="45.97684" lon="4.56582">
        <ele>623.2</ele>
        <time>1970-01-01T00:33:00.000Z</time>
      </trkpt>
      <trkpt lat="45.97684" lon="4.56582">
        <ele>623.2</ele>
        <time>1970-01-01T00:33:01.000Z</time>
      </trkpt>
      <trkpt lat="45.97686" lon="4.56578">
        <ele>623.1</ele>
        <time>1970-01-01T00:33:02.000Z</time>
      </trkpt>
      <trkpt lat="45.97686" lon="4.56578">
        <ele>623.1</ele>
        <time>1970-01-01T00:33:03.000Z</time>
      </trkpt>
      <trkpt lat="45.97686" lon="4.56578">
        <ele>623.1</ele>
        <time>1970-01-01T00:33:04.000Z</time>
      </trkpt>
      <trkpt lat="45.97686" lon="4.56578">
        <ele>623.1</ele>
        <time>1970-01-01T00:33:05.000Z</time>
      </trkpt>
      <trkpt lat="45.97686" lon="4.56578">
        <ele>623.1</ele>
        <time>1970-01-01T00:33:06.000Z</time>
      </trkpt>
      <trkpt lat="45.97686" lon="4.56578">
        <ele>623.1</ele>
        <time>1970-01-01T00:33:07.000Z</time>
      </trkpt>
      <trkpt lat="45.97686" lon="4.56578">
        <ele>623.1</ele>
        <time>1970-01-01T00:33:08.000Z</time>
      </trkpt>
      <trkpt lat="45.97686" lon="4.56578">
        <ele>623.1</ele>
        <time>1970-01-01T00:33:09.000Z</time>
      </trkpt>
      <trkpt lat="45.97688" lon="4.56576">
        <ele>623</ele>
        <time>1970-01-01T00:33:10.000Z</time>
      </trkpt>
      <trkpt lat="45.97688" lon="4.56576">
        <ele>623</ele>
        <time>1970-01-01T00:33:11.000Z</time>
      </trkpt>
      <trkpt lat="45.97688" lon="4.56576">
        <ele>623</ele>
        <time>1970-01-01T00:33:12.000Z</time>
      </trkpt>
      <trkpt lat="45.97688" lon="4.56576">
        <ele>623</ele>
        <time>1970-01-01T00:33:13.000Z</time>
      </trkpt>
      <trkpt lat="45.97688" lon="4.56576">
        <ele>623</ele>
        <time>1970-01-01T00:33:14.000Z</time>
      </trkpt>
      <trkpt lat="45.97688" lon="4.56576">
        <ele>623</ele>
        <time>1970-01-01T00:33:15.000Z</time>
      </trkpt>
      <trkpt lat="45.97688" lon="4.56576">
        <ele>623</ele>
        <time>1970-01-01T00:33:16.000Z</time>
      </trkpt>
      <trkpt lat="45.97688" lon="4.56576">
        <ele>623</ele>
        <time>1970-01-01T00:33:17.000Z</time>
      </trkpt>
      <trkpt lat="45.97688" lon="4.56576">
        <ele>623</ele>
        <time>1970-01-01T00:33:18.000Z</time>
      </trkpt>
      <trkpt lat="45.97688" lon="4.56576">
        <ele>623</ele>
        <time>1970-01-01T00:33:19.000Z</time>
      </trkpt>
      <trkpt lat="45.97688" lon="4.56576">
        <ele>623</ele>
        <time>1970-01-01T00:33:20.000Z</time>
      </trkpt>
      <trkpt lat="45.97688" lon="4.56576">
        <ele>623</ele>
        <time>1970-01-01T00:33:21.000Z</time>
      </trkpt>
      <trkpt lat="45.97688" lon="4.56576">
        <ele>623</ele>
        <time>1970-01-01T00:33:22.000Z</time>
      </trkpt>
      <trkpt lat="45.97688" lon="4.56576">
        <ele>623</ele>
        <time>1970-01-01T00:33:23.000Z</time>
      </trkpt>
      <trkpt lat="45.97688" lon="4.56576">
        <ele>623</ele>
        <time>1970-01-01T00:33:24.000Z</time>
      </trkpt>
      <trkpt lat="45.97688" lon="4.56576">
        <ele>623</ele>
        <time>1970-01-01T00:33:25.000Z</time>
      </trkpt>
      <trkpt lat="45.97688" lon="4.56576">
        <ele>623</ele>
        <time>1970-01-01T00:33:26.000Z</time>
      </trkpt>
      <trkpt lat="45.97688" lon="4.56576">
        <ele>623</ele>
        <time>1970-01-01T00:33:27.000Z</time>
      </trkpt>
      <trkpt lat="45.97688" lon="4.56573">
        <ele>622.9</ele>
        <time>1970-01-01T00:33:28.000Z</time>
      </trkpt>
      <trkpt lat="45.97688" lon="4.56573">
        <ele>622.9</ele>
        <time>1970-01-01T00:33:29.000Z</time>
      </trkpt>
      <trkpt lat="45.97688" lon="4.56573">
        <ele>622.9</ele>
        <time>1970-01-01T00:33:30.000Z</time>
      </trkpt>
      <trkpt lat="45.97688" lon="4.56573">
        <ele>622.9</ele>
        <time>1970-01-01T00:33:31.000Z</time>
      </trkpt>
      <trkpt lat="45.97689" lon="4.5657">
        <ele>622.8</ele>
        <time>1970-01-01T00:33:32.000Z</time>
      </trkpt>
      <trkpt lat="45.97689" lon="4.5657">
        <ele>622.8</ele>
        <time>1970-01-01T00:33:33.000Z</time>
      </trkpt>
      <trkpt lat="45.97689" lon="4.5657">
        <ele>622.8</ele>
        <time>1970-01-01T00:33:34.000Z</time>
      </trkpt>
      <trkpt lat="45.97691" lon="4.56568">
        <ele>622.7</ele>
        <time>1970-01-01T00:33:35.000Z</time>
      </trkpt>
      <trkpt lat="45.97691" lon="4.56568">
        <ele>622.7</ele>
        <time>1970-01-01T00:33:36.000Z</time>
      </trkpt>
      <trkpt lat="45.97691" lon="4.56568">
        <ele>622.7</ele>
        <time>1970-01-01T00:33:37.000Z</time>
      </trkpt>
      <trkpt lat="45.97692" lon="4.56566">
        <ele>622.5</ele>
        <time>1970-01-01T00:33:38.000Z</time>
      </trkpt>
      <trkpt lat="45.97692" lon="4.56566">
        <ele>622.5</ele>
        <time>1970-01-01T00:33:39.000Z</time>
      </trkpt>
      <trkpt lat="45.97692" lon="4.56566">
        <ele>622.5</ele>
        <time>1970-01-01T00:33:40.000Z</time>
      </trkpt>
      <trkpt lat="45.97692" lon="4.56566">
        <ele>622.5</ele>
        <time>1970-01-01T00:33:41.000Z</time>
      </trkpt>
      <trkpt lat="45.97693" lon="4.56563">
        <ele>622.4</ele>
        <time>1970-01-01T00:33:42.000Z</time>
      </trkpt>
      <trkpt lat="45.97693" lon="4.56563">
        <ele>622.4</ele>
        <time>1970-01-01T00:33:43.000Z</time>
      </trkpt>
      <trkpt lat="45.97693" lon="4.56563">
        <ele>622.4</ele>
        <time>1970-01-01T00:33:44.000Z</time>
      </trkpt>
      <trkpt lat="45.97693" lon="4.56563">
        <ele>622.4</ele>
        <time>1970-01-01T00:33:45.000Z</time>
      </trkpt>
      <trkpt lat="45.97693" lon="4.5656">
        <ele>622.2</ele>
        <time>1970-01-01T00:33:46.000Z</time>
      </trkpt>
      <trkpt lat="45.97693" lon="4.5656">
        <ele>622.2</ele>
        <time>1970-01-01T00:33:47.000Z</time>
      </trkpt>
      <trkpt lat="45.97693" lon="4.5656">
        <ele>622.2</ele>
        <time>1970-01-01T00:33:48.000Z</time>
      </trkpt>
      <trkpt lat="45.97694" lon="4.56557">
        <ele>622</ele>
        <time>1970-01-01T00:33:49.000Z</time>
      </trkpt>
      <trkpt lat="45.97694" lon="4.56557">
        <ele>622</ele>
        <time>1970-01-01T00:33:50.000Z</time>
      </trkpt>
      <trkpt lat="45.97694" lon="4.56557">
        <ele>622</ele>
        <time>1970-01-01T00:33:51.000Z</time>
      </trkpt>
      <trkpt lat="45.97695" lon="4.56553">
        <ele>621.8</ele>
        <time>1970-01-01T00:33:52.000Z</time>
      </trkpt>
      <trkpt lat="45.97695" lon="4.56553">
        <ele>621.8</ele>
        <time>1970-01-01T00:33:53.000Z</time>
      </trkpt>
      <trkpt lat="45.97695" lon="4.56553">
        <ele>621.8</ele>
        <time>1970-01-01T00:33:54.000Z</time>
      </trkpt>
      <trkpt lat="45.97696" lon="4.5655">
        <ele>621.5</ele>
        <time>1970-01-01T00:33:55.000Z</time>
      </trkpt>
      <trkpt lat="45.97696" lon="4.5655">
        <ele>621.5</ele>
        <time>1970-01-01T00:33:56.000Z</time>
      </trkpt>
      <trkpt lat="45.97696" lon="4.5655">
        <ele>621.5</ele>
        <time>1970-01-01T00:33:57.000Z</time>
      </trkpt>
      <trkpt lat="45.97696" lon="4.56546">
        <ele>621.2</ele>
        <time>1970-01-01T00:33:58.000Z</time>
      </trkpt>
      <trkpt lat="45.97696" lon="4.56546">
        <ele>621.2</ele>
        <time>1970-01-01T00:33:59.000Z</time>
      </trkpt>
      <trkpt lat="45.97697" lon="4.56543">
        <ele>621</ele>
        <time>1970-01-01T00:34:00.000Z</time>
      </trkpt>
      <trkpt lat="45.97697" lon="4.56543">
        <ele>621</ele>
        <time>1970-01-01T00:34:01.000Z</time>
      </trkpt>
      <trkpt lat="45.97697" lon="4.56541">
        <ele>620.7</ele>
        <time>1970-01-01T00:34:02.000Z</time>
      </trkpt>
      <trkpt lat="45.97697" lon="4.56541">
        <ele>620.7</ele>
        <time>1970-01-01T00:34:03.000Z</time>
      </trkpt>
      <trkpt lat="45.97697" lon="4.56541">
        <ele>620.7</ele>
        <time>1970-01-01T00:34:04.000Z</time>
      </trkpt>
      <trkpt lat="45.97697" lon="4.56538">
        <ele>620.4</ele>
        <time>1970-01-01T00:34:05.000Z</time>
      </trkpt>
      <trkpt lat="45.97697" lon="4.56538">
        <ele>620.4</ele>
        <time>1970-01-01T00:34:06.000Z</time>
      </trkpt>
      <trkpt lat="45.97697" lon="4.56535">
        <ele>620.2</ele>
        <time>1970-01-01T00:34:07.000Z</time>
      </trkpt>
      <trkpt lat="45.97697" lon="4.56535">
        <ele>620.2</ele>
        <time>1970-01-01T00:34:08.000Z</time>
      </trkpt>
      <trkpt lat="45.97697" lon="4.56535">
        <ele>620.2</ele>
        <time>1970-01-01T00:34:09.000Z</time>
      </trkpt>
      <trkpt lat="45.97697" lon="4.56531">
        <ele>619.8</ele>
        <time>1970-01-01T00:34:10.000Z</time>
      </trkpt>
      <trkpt lat="45.97697" lon="4.56531">
        <ele>619.8</ele>
        <time>1970-01-01T00:34:11.000Z</time>
      </trkpt>
      <trkpt lat="45.97697" lon="4.56528">
        <ele>619.5</ele>
        <time>1970-01-01T00:34:12.000Z</time>
      </trkpt>
      <trkpt lat="45.97697" lon="4.56528">
        <ele>619.5</ele>
        <time>1970-01-01T00:34:13.000Z</time>
      </trkpt>
      <trkpt lat="45.97698" lon="4.56525">
        <ele>619.1</ele>
        <time>1970-01-01T00:34:14.000Z</time>
      </trkpt>
      <trkpt lat="45.97698" lon="4.56525">
        <ele>619.1</ele>
        <time>1970-01-01T00:34:15.000Z</time>
      </trkpt>
      <trkpt lat="45.97698" lon="4.56522">
        <ele>618.7</ele>
        <time>1970-01-01T00:34:16.000Z</time>
      </trkpt>
      <trkpt lat="45.97698" lon="4.56522">
        <ele>618.7</ele>
        <time>1970-01-01T00:34:17.000Z</time>
      </trkpt>
      <trkpt lat="45.97698" lon="4.56519">
        <ele>618.4</ele>
        <time>1970-01-01T00:34:18.000Z</time>
      </trkpt>
      <trkpt lat="45.97698" lon="4.56519">
        <ele>618.4</ele>
        <time>1970-01-01T00:34:19.000Z</time>
      </trkpt>
      <trkpt lat="45.97699" lon="4.56516">
        <ele>618.1</ele>
        <time>1970-01-01T00:34:20.000Z</time>
      </trkpt>
      <trkpt lat="45.97699" lon="4.56516">
        <ele>618.1</ele>
        <time>1970-01-01T00:34:21.000Z</time>
      </trkpt>
      <trkpt lat="45.977" lon="4.56514">
        <ele>617.8</ele>
        <time>1970-01-01T00:34:22.000Z</time>
      </trkpt>
      <trkpt lat="45.977" lon="4.56514">
        <ele>617.8</ele>
        <time>1970-01-01T00:34:23.000Z</time>
      </trkpt>
      <trkpt lat="45.977" lon="4.56511">
        <ele>617.4</ele>
        <time>1970-01-01T00:34:24.000Z</time>
      </trkpt>
      <trkpt lat="45.977" lon="4.56511">
        <ele>617.4</ele>
        <time>1970-01-01T00:34:25.000Z</time>
      </trkpt>
      <trkpt lat="45.97701" lon="4.56508">
        <ele>617.1</ele>
        <time>1970-01-01T00:34:26.000Z</time>
      </trkpt>
      <trkpt lat="45.97701" lon="4.56508">
        <ele>617.1</ele>
        <time>1970-01-01T00:34:27.000Z</time>
      </trkpt>
      <trkpt lat="45.97701" lon="4.56506">
        <ele>616.8</ele>
        <time>1970-01-01T00:34:28.000Z</time>
      </trkpt>
      <trkpt lat="45.97701" lon="4.56506">
        <ele>616.8</ele>
        <time>1970-01-01T00:34:29.000Z</time>
      </trkpt>
      <trkpt lat="45.97702" lon="4.56503">
        <ele>616.5</ele>
        <time>1970-01-01T00:34:30.000Z</time>
      </trkpt>
      <trkpt lat="45.97702" lon="4.56503">
        <ele>616.5</ele>
        <time>1970-01-01T00:34:31.000Z</time>
      </trkpt>
      <trkpt lat="45.97703" lon="4.565">
        <ele>616.1</ele>
        <time>1970-01-01T00:34:32.000Z</time>
      </trkpt>
      <trkpt lat="45.97703" lon="4.565">
        <ele>616.1</ele>
        <time>1970-01-01T00:34:33.000Z</time>
      </trkpt>
      <trkpt lat="45.97704" lon="4.56497">
        <ele>615.8</ele>
        <time>1970-01-01T00:34:34.000Z</time>
      </trkpt>
      <trkpt lat="45.97704" lon="4.56497">
        <ele>615.8</ele>
        <time>1970-01-01T00:34:35.000Z</time>
      </trkpt>
      <trkpt lat="45.97705" lon="4.56495">
        <ele>615.5</ele>
        <time>1970-01-01T00:34:36.000Z</time>
      </trkpt>
      <trkpt lat="45.97705" lon="4.56495">
        <ele>615.5</ele>
        <time>1970-01-01T00:34:37.000Z</time>
      </trkpt>
      <trkpt lat="45.97706" lon="4.56492">
        <ele>615.2</ele>
        <time>1970-01-01T00:34:38.000Z</time>
      </trkpt>
      <trkpt lat="45.97706" lon="4.56492">
        <ele>615.2</ele>
        <time>1970-01-01T00:34:39.000Z</time>
      </trkpt>
      <trkpt lat="45.97706" lon="4.56489">
        <ele>614.9</ele>
        <time>1970-01-01T00:34:40.000Z</time>
      </trkpt>
      <trkpt lat="45.97706" lon="4.56489">
        <ele>614.9</ele>
        <time>1970-01-01T00:34:41.000Z</time>
      </trkpt>
      <trkpt lat="45.97707" lon="4.56486">
        <ele>614.6</ele>
        <time>1970-01-01T00:34:42.000Z</time>
      </trkpt>
      <trkpt lat="45.97707" lon="4.56486">
        <ele>614.6</ele>
        <time>1970-01-01T00:34:43.000Z</time>
      </trkpt>
      <trkpt lat="45.97708" lon="4.56483">
        <ele>614.3</ele>
        <time>1970-01-01T00:34:44.000Z</time>
      </trkpt>
      <trkpt lat="45.97708" lon="4.56483">
        <ele>614.3</ele>
        <time>1970-01-01T00:34:45.000Z</time>
      </trkpt>
      <trkpt lat="45.97709" lon="4.5648">
        <ele>614</ele>
        <time>1970-01-01T00:34:46.000Z</time>
      </trkpt>
      <trkpt lat="45.97709" lon="4.5648">
        <ele>614</ele>
        <time>1970-01-01T00:34:47.000Z</time>
      </trkpt>
      <trkpt lat="45.9771" lon="4.56477">
        <ele>613.7</ele>
        <time>1970-01-01T00:34:48.000Z</time>
      </trkpt>
      <trkpt lat="45.9771" lon="4.56477">
        <ele>613.7</ele>
        <time>1970-01-01T00:34:49.000Z</time>
      </trkpt>
      <trkpt lat="45.9771" lon="4.56475">
        <ele>613.4</ele>
        <time>1970-01-01T00:34:50.000Z</time>
      </trkpt>
      <trkpt lat="45.9771" lon="4.56475">
        <ele>613.4</ele>
        <time>1970-01-01T00:34:51.000Z</time>
      </trkpt>
      <trkpt lat="45.97711" lon="4.56472">
        <ele>613</ele>
        <time>1970-01-01T00:34:52.000Z</time>
      </trkpt>
      <trkpt lat="45.97711" lon="4.56472">
        <ele>613</ele>
        <time>1970-01-01T00:34:53.000Z</time>
      </trkpt>
      <trkpt lat="45.97713" lon="4.56469">
        <ele>612.7</ele>
        <time>1970-01-01T00:34:54.000Z</time>
      </trkpt>
      <trkpt lat="45.97713" lon="4.56469">
        <ele>612.7</ele>
        <time>1970-01-01T00:34:55.000Z</time>
      </trkpt>
      <trkpt lat="45.97714" lon="4.56466">
        <ele>612.3</ele>
        <time>1970-01-01T00:34:56.000Z</time>
      </trkpt>
      <trkpt lat="45.97714" lon="4.56466">
        <ele>612.3</ele>
        <time>1970-01-01T00:34:57.000Z</time>
      </trkpt>
      <trkpt lat="45.97715" lon="4.56464">
        <ele>612</ele>
        <time>1970-01-01T00:34:58.000Z</time>
      </trkpt>
      <trkpt lat="45.97715" lon="4.56464">
        <ele>612</ele>
        <time>1970-01-01T00:34:59.000Z</time>
      </trkpt>
      <trkpt lat="45.97716" lon="4.56461">
        <ele>611.7</ele>
        <time>1970-01-01T00:35:00.000Z</time>
      </trkpt>
      <trkpt lat="45.97716" lon="4.56461">
        <ele>611.7</ele>
        <time>1970-01-01T00:35:01.000Z</time>
      </trkpt>
      <trkpt lat="45.97717" lon="4.56459">
        <ele>611.3</ele>
        <time>1970-01-01T00:35:02.000Z</time>
      </trkpt>
      <trkpt lat="45.97717" lon="4.56459">
        <ele>611.3</ele>
        <time>1970-01-01T00:35:03.000Z</time>
      </trkpt>
      <trkpt lat="45.97718" lon="4.56455">
        <ele>610.9</ele>
        <time>1970-01-01T00:35:04.000Z</time>
      </trkpt>
      <trkpt lat="45.97718" lon="4.56455">
        <ele>610.9</ele>
        <time>1970-01-01T00:35:05.000Z</time>
      </trkpt>
      <trkpt lat="45.97719" lon="4.56453">
        <ele>610.5</ele>
        <time>1970-01-01T00:35:06.000Z</time>
      </trkpt>
      <trkpt lat="45.97719" lon="4.56453">
        <ele>610.5</ele>
        <time>1970-01-01T00:35:07.000Z</time>
      </trkpt>
      <trkpt lat="45.9772" lon="4.5645">
        <ele>610.2</ele>
        <time>1970-01-01T00:35:08.000Z</time>
      </trkpt>
      <trkpt lat="45.9772" lon="4.5645">
        <ele>610.2</ele>
        <time>1970-01-01T00:35:09.000Z</time>
      </trkpt>
      <trkpt lat="45.9772" lon="4.56447">
        <ele>609.8</ele>
        <time>1970-01-01T00:35:10.000Z</time>
      </trkpt>
      <trkpt lat="45.9772" lon="4.56447">
        <ele>609.8</ele>
        <time>1970-01-01T00:35:11.000Z</time>
      </trkpt>
      <trkpt lat="45.97721" lon="4.56445">
        <ele>609.5</ele>
        <time>1970-01-01T00:35:12.000Z</time>
      </trkpt>
      <trkpt lat="45.97721" lon="4.56445">
        <ele>609.5</ele>
        <time>1970-01-01T00:35:13.000Z</time>
      </trkpt>
      <trkpt lat="45.97722" lon="4.56442">
        <ele>609.1</ele>
        <time>1970-01-01T00:35:14.000Z</time>
      </trkpt>
      <trkpt lat="45.97722" lon="4.56442">
        <ele>609.1</ele>
        <time>1970-01-01T00:35:15.000Z</time>
      </trkpt>
      <trkpt lat="45.97723" lon="4.56439">
        <ele>608.8</ele>
        <time>1970-01-01T00:35:16.000Z</time>
      </trkpt>
      <trkpt lat="45.97723" lon="4.56439">
        <ele>608.8</ele>
        <time>1970-01-01T00:35:17.000Z</time>
      </trkpt>
      <trkpt lat="45.97723" lon="4.56437">
        <ele>608.4</ele>
        <time>1970-01-01T00:35:18.000Z</time>
      </trkpt>
      <trkpt lat="45.97723" lon="4.56437">
        <ele>608.4</ele>
        <time>1970-01-01T00:35:19.000Z</time>
      </trkpt>
      <trkpt lat="45.97723" lon="4.56434">
        <ele>608.1</ele>
        <time>1970-01-01T00:35:20.000Z</time>
      </trkpt>
      <trkpt lat="45.97723" lon="4.56434">
        <ele>608.1</ele>
        <time>1970-01-01T00:35:21.000Z</time>
      </trkpt>
      <trkpt lat="45.97724" lon="4.56431">
        <ele>607.7</ele>
        <time>1970-01-01T00:35:22.000Z</time>
      </trkpt>
      <trkpt lat="45.97724" lon="4.56431">
        <ele>607.7</ele>
        <time>1970-01-01T00:35:23.000Z</time>
      </trkpt>
      <trkpt lat="45.97724" lon="4.56427">
        <ele>607.2</ele>
        <time>1970-01-01T00:35:24.000Z</time>
      </trkpt>
      <trkpt lat="45.97724" lon="4.56427">
        <ele>607.2</ele>
        <time>1970-01-01T00:35:25.000Z</time>
      </trkpt>
      <trkpt lat="45.97723" lon="4.56424">
        <ele>606.8</ele>
        <time>1970-01-01T00:35:26.000Z</time>
      </trkpt>
      <trkpt lat="45.97723" lon="4.56424">
        <ele>606.8</ele>
        <time>1970-01-01T00:35:27.000Z</time>
      </trkpt>
      <trkpt lat="45.97721" lon="4.56421">
        <ele>606.3</ele>
        <time>1970-01-01T00:35:28.000Z</time>
      </trkpt>
      <trkpt lat="45.97721" lon="4.56421">
        <ele>606.3</ele>
        <time>1970-01-01T00:35:29.000Z</time>
      </trkpt>
      <trkpt lat="45.9772" lon="4.56419">
        <ele>606</ele>
        <time>1970-01-01T00:35:30.000Z</time>
      </trkpt>
      <trkpt lat="45.9772" lon="4.56419">
        <ele>606</ele>
        <time>1970-01-01T00:35:31.000Z</time>
      </trkpt>
      <trkpt lat="45.97718" lon="4.56418">
        <ele>605.7</ele>
        <time>1970-01-01T00:35:32.000Z</time>
      </trkpt>
      <trkpt lat="45.97718" lon="4.56418">
        <ele>605.7</ele>
        <time>1970-01-01T00:35:33.000Z</time>
      </trkpt>
      <trkpt lat="45.97717" lon="4.56416">
        <ele>605.4</ele>
        <time>1970-01-01T00:35:34.000Z</time>
      </trkpt>
      <trkpt lat="45.97717" lon="4.56416">
        <ele>605.4</ele>
        <time>1970-01-01T00:35:35.000Z</time>
      </trkpt>
      <trkpt lat="45.97715" lon="4.56414">
        <ele>605.1</ele>
        <time>1970-01-01T00:35:36.000Z</time>
      </trkpt>
      <trkpt lat="45.97715" lon="4.56414">
        <ele>605.1</ele>
        <time>1970-01-01T00:35:37.000Z</time>
      </trkpt>
      <trkpt lat="45.97713" lon="4.56413">
        <ele>604.8</ele>
        <time>1970-01-01T00:35:38.000Z</time>
      </trkpt>
      <trkpt lat="45.97713" lon="4.56413">
        <ele>604.8</ele>
        <time>1970-01-01T00:35:39.000Z</time>
      </trkpt>
      <trkpt lat="45.97712" lon="4.56411">
        <ele>604.5</ele>
        <time>1970-01-01T00:35:40.000Z</time>
      </trkpt>
      <trkpt lat="45.97712" lon="4.56411">
        <ele>604.5</ele>
        <time>1970-01-01T00:35:41.000Z</time>
      </trkpt>
      <trkpt lat="45.9771" lon="4.5641">
        <ele>604.1</ele>
        <time>1970-01-01T00:35:42.000Z</time>
      </trkpt>
      <trkpt lat="45.9771" lon="4.5641">
        <ele>604.1</ele>
        <time>1970-01-01T00:35:43.000Z</time>
      </trkpt>
      <trkpt lat="45.97708" lon="4.56408">
        <ele>603.9</ele>
        <time>1970-01-01T00:35:44.000Z</time>
      </trkpt>
      <trkpt lat="45.97708" lon="4.56408">
        <ele>603.9</ele>
        <time>1970-01-01T00:35:45.000Z</time>
      </trkpt>
      <trkpt lat="45.97706" lon="4.56406">
        <ele>603.6</ele>
        <time>1970-01-01T00:35:46.000Z</time>
      </trkpt>
      <trkpt lat="45.97706" lon="4.56406">
        <ele>603.6</ele>
        <time>1970-01-01T00:35:47.000Z</time>
      </trkpt>
      <trkpt lat="45.97704" lon="4.56405">
        <ele>603.4</ele>
        <time>1970-01-01T00:35:48.000Z</time>
      </trkpt>
      <trkpt lat="45.97704" lon="4.56405">
        <ele>603.4</ele>
        <time>1970-01-01T00:35:49.000Z</time>
      </trkpt>
      <trkpt lat="45.97702" lon="4.56403">
        <ele>603.1</ele>
        <time>1970-01-01T00:35:50.000Z</time>
      </trkpt>
      <trkpt lat="45.97702" lon="4.56403">
        <ele>603.1</ele>
        <time>1970-01-01T00:35:51.000Z</time>
      </trkpt>
      <trkpt lat="45.97701" lon="4.56401">
        <ele>602.9</ele>
        <time>1970-01-01T00:35:52.000Z</time>
      </trkpt>
      <trkpt lat="45.97701" lon="4.56401">
        <ele>602.9</ele>
        <time>1970-01-01T00:35:53.000Z</time>
      </trkpt>
      <trkpt lat="45.97699" lon="4.564">
        <ele>602.7</ele>
        <time>1970-01-01T00:35:54.000Z</time>
      </trkpt>
      <trkpt lat="45.97699" lon="4.564">
        <ele>602.7</ele>
        <time>1970-01-01T00:35:55.000Z</time>
      </trkpt>
      <trkpt lat="45.97697" lon="4.56398">
        <ele>602.4</ele>
        <time>1970-01-01T00:35:56.000Z</time>
      </trkpt>
      <trkpt lat="45.97697" lon="4.56398">
        <ele>602.4</ele>
        <time>1970-01-01T00:35:57.000Z</time>
      </trkpt>
      <trkpt lat="45.97695" lon="4.56395">
        <ele>602.2</ele>
        <time>1970-01-01T00:35:58.000Z</time>
      </trkpt>
      <trkpt lat="45.97695" lon="4.56395">
        <ele>602.2</ele>
        <time>1970-01-01T00:35:59.000Z</time>
      </trkpt>
      <trkpt lat="45.97693" lon="4.56393">
        <ele>602.1</ele>
        <time>1970-01-01T00:36:00.000Z</time>
      </trkpt>
      <trkpt lat="45.97693" lon="4.56393">
        <ele>602.1</ele>
        <time>1970-01-01T00:36:01.000Z</time>
      </trkpt>
      <trkpt lat="45.97691" lon="4.56392">
        <ele>601.9</ele>
        <time>1970-01-01T00:36:02.000Z</time>
      </trkpt>
      <trkpt lat="45.97691" lon="4.56392">
        <ele>601.9</ele>
        <time>1970-01-01T00:36:03.000Z</time>
      </trkpt>
      <trkpt lat="45.97689" lon="4.5639">
        <ele>601.7</ele>
        <time>1970-01-01T00:36:04.000Z</time>
      </trkpt>
      <trkpt lat="45.97689" lon="4.5639">
        <ele>601.7</ele>
        <time>1970-01-01T00:36:05.000Z</time>
      </trkpt>
      <trkpt lat="45.97688" lon="4.56387">
        <ele>601.6</ele>
        <time>1970-01-01T00:36:06.000Z</time>
      </trkpt>
      <trkpt lat="45.97688" lon="4.56387">
        <ele>601.6</ele>
        <time>1970-01-01T00:36:07.000Z</time>
      </trkpt>
      <trkpt lat="45.97686" lon="4.56385">
        <ele>601.4</ele>
        <time>1970-01-01T00:36:08.000Z</time>
      </trkpt>
      <trkpt lat="45.97686" lon="4.56385">
        <ele>601.4</ele>
        <time>1970-01-01T00:36:09.000Z</time>
      </trkpt>
      <trkpt lat="45.97684" lon="4.56383">
        <ele>601.3</ele>
        <time>1970-01-01T00:36:10.000Z</time>
      </trkpt>
      <trkpt lat="45.97684" lon="4.56383">
        <ele>601.3</ele>
        <time>1970-01-01T00:36:11.000Z</time>
      </trkpt>
      <trkpt lat="45.97682" lon="4.56382">
        <ele>601.2</ele>
        <time>1970-01-01T00:36:12.000Z</time>
      </trkpt>
      <trkpt lat="45.97682" lon="4.56382">
        <ele>601.2</ele>
        <time>1970-01-01T00:36:13.000Z</time>
      </trkpt>
      <trkpt lat="45.9768" lon="4.56379">
        <ele>601</ele>
        <time>1970-01-01T00:36:14.000Z</time>
      </trkpt>
      <trkpt lat="45.9768" lon="4.56379">
        <ele>601</ele>
        <time>1970-01-01T00:36:15.000Z</time>
      </trkpt>
      <trkpt lat="45.97678" lon="4.56377">
        <ele>600.9</ele>
        <time>1970-01-01T00:36:16.000Z</time>
      </trkpt>
      <trkpt lat="45.97678" lon="4.56377">
        <ele>600.9</ele>
        <time>1970-01-01T00:36:17.000Z</time>
      </trkpt>
      <trkpt lat="45.97676" lon="4.56375">
        <ele>600.8</ele>
        <time>1970-01-01T00:36:18.000Z</time>
      </trkpt>
      <trkpt lat="45.97676" lon="4.56375">
        <ele>600.8</ele>
        <time>1970-01-01T00:36:19.000Z</time>
      </trkpt>
      <trkpt lat="45.97674" lon="4.56372">
        <ele>600.6</ele>
        <time>1970-01-01T00:36:20.000Z</time>
      </trkpt>
      <trkpt lat="45.97674" lon="4.56372">
        <ele>600.6</ele>
        <time>1970-01-01T00:36:21.000Z</time>
      </trkpt>
      <trkpt lat="45.97672" lon="4.56371">
        <ele>600.5</ele>
        <time>1970-01-01T00:36:22.000Z</time>
      </trkpt>
      <trkpt lat="45.97672" lon="4.56371">
        <ele>600.5</ele>
        <time>1970-01-01T00:36:23.000Z</time>
      </trkpt>
      <trkpt lat="45.9767" lon="4.56369">
        <ele>600.4</ele>
        <time>1970-01-01T00:36:24.000Z</time>
      </trkpt>
      <trkpt lat="45.9767" lon="4.56369">
        <ele>600.4</ele>
        <time>1970-01-01T00:36:25.000Z</time>
      </trkpt>
      <trkpt lat="45.97668" lon="4.56366">
        <ele>600.3</ele>
        <time>1970-01-01T00:36:26.000Z</time>
      </trkpt>
      <trkpt lat="45.97668" lon="4.56366">
        <ele>600.3</ele>
        <time>1970-01-01T00:36:27.000Z</time>
      </trkpt>
      <trkpt lat="45.97667" lon="4.56364">
        <ele>600.2</ele>
        <time>1970-01-01T00:36:28.000Z</time>
      </trkpt>
      <trkpt lat="45.97667" lon="4.56364">
        <ele>600.2</ele>
        <time>1970-01-01T00:36:29.000Z</time>
      </trkpt>
      <trkpt lat="45.97665" lon="4.56362">
        <ele>600.1</ele>
        <time>1970-01-01T00:36:30.000Z</time>
      </trkpt>
      <trkpt lat="45.97665" lon="4.56362">
        <ele>600.1</ele>
        <time>1970-01-01T00:36:31.000Z</time>
      </trkpt>
      <trkpt lat="45.97663" lon="4.5636">
        <ele>600</ele>
        <time>1970-01-01T00:36:32.000Z</time>
      </trkpt>
      <trkpt lat="45.97663" lon="4.5636">
        <ele>600</ele>
        <time>1970-01-01T00:36:33.000Z</time>
      </trkpt>
      <trkpt lat="45.97661" lon="4.56358">
        <ele>599.8</ele>
        <time>1970-01-01T00:36:34.000Z</time>
      </trkpt>
      <trkpt lat="45.97661" lon="4.56358">
        <ele>599.8</ele>
        <time>1970-01-01T00:36:35.000Z</time>
      </trkpt>
      <trkpt lat="45.97659" lon="4.56356">
        <ele>599.7</ele>
        <time>1970-01-01T00:36:36.000Z</time>
      </trkpt>
      <trkpt lat="45.97659" lon="4.56356">
        <ele>599.7</ele>
        <time>1970-01-01T00:36:37.000Z</time>
      </trkpt>
      <trkpt lat="45.97658" lon="4.56354">
        <ele>599.6</ele>
        <time>1970-01-01T00:36:38.000Z</time>
      </trkpt>
      <trkpt lat="45.97658" lon="4.56354">
        <ele>599.6</ele>
        <time>1970-01-01T00:36:39.000Z</time>
      </trkpt>
      <trkpt lat="45.97655" lon="4.56353">
        <ele>599.5</ele>
        <time>1970-01-01T00:36:40.000Z</time>
      </trkpt>
      <trkpt lat="45.97655" lon="4.56353">
        <ele>599.5</ele>
        <time>1970-01-01T00:36:41.000Z</time>
      </trkpt>
      <trkpt lat="45.97653" lon="4.56352">
        <ele>599.4</ele>
        <time>1970-01-01T00:36:42.000Z</time>
      </trkpt>
      <trkpt lat="45.97653" lon="4.56352">
        <ele>599.4</ele>
        <time>1970-01-01T00:36:43.000Z</time>
      </trkpt>
      <trkpt lat="45.97651" lon="4.5635">
        <ele>599.3</ele>
        <time>1970-01-01T00:36:44.000Z</time>
      </trkpt>
      <trkpt lat="45.97651" lon="4.5635">
        <ele>599.3</ele>
        <time>1970-01-01T00:36:45.000Z</time>
      </trkpt>
      <trkpt lat="45.97649" lon="4.56348">
        <ele>599.1</ele>
        <time>1970-01-01T00:36:46.000Z</time>
      </trkpt>
      <trkpt lat="45.97649" lon="4.56348">
        <ele>599.1</ele>
        <time>1970-01-01T00:36:47.000Z</time>
      </trkpt>
      <trkpt lat="45.97647" lon="4.56347">
        <ele>599</ele>
        <time>1970-01-01T00:36:48.000Z</time>
      </trkpt>
      <trkpt lat="45.97647" lon="4.56347">
        <ele>599</ele>
        <time>1970-01-01T00:36:49.000Z</time>
      </trkpt>
      <trkpt lat="45.97645" lon="4.56346">
        <ele>598.9</ele>
        <time>1970-01-01T00:36:50.000Z</time>
      </trkpt>
      <trkpt lat="45.97645" lon="4.56346">
        <ele>598.9</ele>
        <time>1970-01-01T00:36:51.000Z</time>
      </trkpt>
      <trkpt lat="45.97643" lon="4.56344">
        <ele>598.8</ele>
        <time>1970-01-01T00:36:52.000Z</time>
      </trkpt>
      <trkpt lat="45.97643" lon="4.56344">
        <ele>598.8</ele>
        <time>1970-01-01T00:36:53.000Z</time>
      </trkpt>
      <trkpt lat="45.97641" lon="4.56343">
        <ele>598.6</ele>
        <time>1970-01-01T00:36:54.000Z</time>
      </trkpt>
      <trkpt lat="45.97641" lon="4.56343">
        <ele>598.6</ele>
        <time>1970-01-01T00:36:55.000Z</time>
      </trkpt>
      <trkpt lat="45.97639" lon="4.56342">
        <ele>598.5</ele>
        <time>1970-01-01T00:36:56.000Z</time>
      </trkpt>
      <trkpt lat="45.97639" lon="4.56342">
        <ele>598.5</ele>
        <time>1970-01-01T00:36:57.000Z</time>
      </trkpt>
      <trkpt lat="45.97637" lon="4.56341">
        <ele>598.4</ele>
        <time>1970-01-01T00:36:58.000Z</time>
      </trkpt>
      <trkpt lat="45.97637" lon="4.56341">
        <ele>598.4</ele>
        <time>1970-01-01T00:36:59.000Z</time>
      </trkpt>
      <trkpt lat="45.97635" lon="4.5634">
        <ele>598.3</ele>
        <time>1970-01-01T00:37:00.000Z</time>
      </trkpt>
      <trkpt lat="45.97635" lon="4.5634">
        <ele>598.3</ele>
        <time>1970-01-01T00:37:01.000Z</time>
      </trkpt>
      <trkpt lat="45.97634" lon="4.5634">
        <ele>598.1</ele>
        <time>1970-01-01T00:37:02.000Z</time>
      </trkpt>
      <trkpt lat="45.97634" lon="4.5634">
        <ele>598.1</ele>
        <time>1970-01-01T00:37:03.000Z</time>
      </trkpt>
      <trkpt lat="45.97631" lon="4.56339">
        <ele>598</ele>
        <time>1970-01-01T00:37:04.000Z</time>
      </trkpt>
      <trkpt lat="45.97631" lon="4.56339">
        <ele>598</ele>
        <time>1970-01-01T00:37:05.000Z</time>
      </trkpt>
      <trkpt lat="45.97629" lon="4.56339">
        <ele>597.8</ele>
        <time>1970-01-01T00:37:06.000Z</time>
      </trkpt>
      <trkpt lat="45.97629" lon="4.56339">
        <ele>597.8</ele>
        <time>1970-01-01T00:37:07.000Z</time>
      </trkpt>
      <trkpt lat="45.97626" lon="4.56339">
        <ele>597.6</ele>
        <time>1970-01-01T00:37:08.000Z</time>
      </trkpt>
      <trkpt lat="45.97626" lon="4.56339">
        <ele>597.6</ele>
        <time>1970-01-01T00:37:09.000Z</time>
      </trkpt>
      <trkpt lat="45.97624" lon="4.56338">
        <ele>597.4</ele>
        <time>1970-01-01T00:37:10.000Z</time>
      </trkpt>
      <trkpt lat="45.97624" lon="4.56338">
        <ele>597.4</ele>
        <time>1970-01-01T00:37:11.000Z</time>
      </trkpt>
      <trkpt lat="45.97622" lon="4.56337">
        <ele>597.2</ele>
        <time>1970-01-01T00:37:12.000Z</time>
      </trkpt>
      <trkpt lat="45.97622" lon="4.56337">
        <ele>597.2</ele>
        <time>1970-01-01T00:37:13.000Z</time>
      </trkpt>
      <trkpt lat="45.97619" lon="4.56337">
        <ele>597</ele>
        <time>1970-01-01T00:37:14.000Z</time>
      </trkpt>
      <trkpt lat="45.97619" lon="4.56337">
        <ele>597</ele>
        <time>1970-01-01T00:37:15.000Z</time>
      </trkpt>
      <trkpt lat="45.97616" lon="4.56337">
        <ele>596.8</ele>
        <time>1970-01-01T00:37:16.000Z</time>
      </trkpt>
      <trkpt lat="45.97616" lon="4.56337">
        <ele>596.8</ele>
        <time>1970-01-01T00:37:17.000Z</time>
      </trkpt>
      <trkpt lat="45.97614" lon="4.56337">
        <ele>596.5</ele>
        <time>1970-01-01T00:37:18.000Z</time>
      </trkpt>
      <trkpt lat="45.97614" lon="4.56337">
        <ele>596.5</ele>
        <time>1970-01-01T00:37:19.000Z</time>
      </trkpt>
      <trkpt lat="45.97611" lon="4.56337">
        <ele>596.3</ele>
        <time>1970-01-01T00:37:20.000Z</time>
      </trkpt>
      <trkpt lat="45.97611" lon="4.56337">
        <ele>596.3</ele>
        <time>1970-01-01T00:37:21.000Z</time>
      </trkpt>
      <trkpt lat="45.97609" lon="4.56337">
        <ele>596.1</ele>
        <time>1970-01-01T00:37:22.000Z</time>
      </trkpt>
      <trkpt lat="45.97609" lon="4.56337">
        <ele>596.1</ele>
        <time>1970-01-01T00:37:23.000Z</time>
      </trkpt>
      <trkpt lat="45.97606" lon="4.56337">
        <ele>595.9</ele>
        <time>1970-01-01T00:37:24.000Z</time>
      </trkpt>
      <trkpt lat="45.97606" lon="4.56337">
        <ele>595.9</ele>
        <time>1970-01-01T00:37:25.000Z</time>
      </trkpt>
      <trkpt lat="45.97603" lon="4.56338">
        <ele>595.6</ele>
        <time>1970-01-01T00:37:26.000Z</time>
      </trkpt>
      <trkpt lat="45.97603" lon="4.56338">
        <ele>595.6</ele>
        <time>1970-01-01T00:37:27.000Z</time>
      </trkpt>
      <trkpt lat="45.97601" lon="4.56338">
        <ele>595.4</ele>
        <time>1970-01-01T00:37:28.000Z</time>
      </trkpt>
      <trkpt lat="45.97601" lon="4.56338">
        <ele>595.4</ele>
        <time>1970-01-01T00:37:29.000Z</time>
      </trkpt>
      <trkpt lat="45.97599" lon="4.56339">
        <ele>595.2</ele>
        <time>1970-01-01T00:37:30.000Z</time>
      </trkpt>
      <trkpt lat="45.97599" lon="4.56339">
        <ele>595.2</ele>
        <time>1970-01-01T00:37:31.000Z</time>
      </trkpt>
      <trkpt lat="45.97596" lon="4.56339">
        <ele>594.9</ele>
        <time>1970-01-01T00:37:32.000Z</time>
      </trkpt>
      <trkpt lat="45.97596" lon="4.56339">
        <ele>594.9</ele>
        <time>1970-01-01T00:37:33.000Z</time>
      </trkpt>
      <trkpt lat="45.97594" lon="4.56339">
        <ele>594.6</ele>
        <time>1970-01-01T00:37:34.000Z</time>
      </trkpt>
      <trkpt lat="45.97594" lon="4.56339">
        <ele>594.6</ele>
        <time>1970-01-01T00:37:35.000Z</time>
      </trkpt>
      <trkpt lat="45.97592" lon="4.56339">
        <ele>594.4</ele>
        <time>1970-01-01T00:37:36.000Z</time>
      </trkpt>
      <trkpt lat="45.97592" lon="4.56339">
        <ele>594.4</ele>
        <time>1970-01-01T00:37:37.000Z</time>
      </trkpt>
      <trkpt lat="45.97589" lon="4.56338">
        <ele>594.2</ele>
        <time>1970-01-01T00:37:38.000Z</time>
      </trkpt>
      <trkpt lat="45.97589" lon="4.56338">
        <ele>594.2</ele>
        <time>1970-01-01T00:37:39.000Z</time>
      </trkpt>
      <trkpt lat="45.97587" lon="4.56336">
        <ele>593.9</ele>
        <time>1970-01-01T00:37:40.000Z</time>
      </trkpt>
      <trkpt lat="45.97587" lon="4.56336">
        <ele>593.9</ele>
        <time>1970-01-01T00:37:41.000Z</time>
      </trkpt>
      <trkpt lat="45.97585" lon="4.56334">
        <ele>593.6</ele>
        <time>1970-01-01T00:37:42.000Z</time>
      </trkpt>
      <trkpt lat="45.97585" lon="4.56334">
        <ele>593.6</ele>
        <time>1970-01-01T00:37:43.000Z</time>
      </trkpt>
      <trkpt lat="45.97583" lon="4.56333">
        <ele>593.4</ele>
        <time>1970-01-01T00:37:44.000Z</time>
      </trkpt>
      <trkpt lat="45.97583" lon="4.56333">
        <ele>593.4</ele>
        <time>1970-01-01T00:37:45.000Z</time>
      </trkpt>
      <trkpt lat="45.97581" lon="4.56333">
        <ele>593.2</ele>
        <time>1970-01-01T00:37:46.000Z</time>
      </trkpt>
      <trkpt lat="45.97581" lon="4.56333">
        <ele>593.2</ele>
        <time>1970-01-01T00:37:47.000Z</time>
      </trkpt>
      <trkpt lat="45.97579" lon="4.56333">
        <ele>592.9</ele>
        <time>1970-01-01T00:37:48.000Z</time>
      </trkpt>
      <trkpt lat="45.97579" lon="4.56333">
        <ele>592.9</ele>
        <time>1970-01-01T00:37:49.000Z</time>
      </trkpt>
      <trkpt lat="45.97576" lon="4.56333">
        <ele>592.6</ele>
        <time>1970-01-01T00:37:50.000Z</time>
      </trkpt>
      <trkpt lat="45.97576" lon="4.56333">
        <ele>592.6</ele>
        <time>1970-01-01T00:37:51.000Z</time>
      </trkpt>
      <trkpt lat="45.97574" lon="4.56333">
        <ele>592.4</ele>
        <time>1970-01-01T00:37:52.000Z</time>
      </trkpt>
      <trkpt lat="45.97574" lon="4.56333">
        <ele>592.4</ele>
        <time>1970-01-01T00:37:53.000Z</time>
      </trkpt>
      <trkpt lat="45.97572" lon="4.56332">
        <ele>592.3</ele>
        <time>1970-01-01T00:37:54.000Z</time>
      </trkpt>
      <trkpt lat="45.97572" lon="4.56332">
        <ele>592.3</ele>
        <time>1970-01-01T00:37:55.000Z</time>
      </trkpt>
      <trkpt lat="45.97569" lon="4.56331">
        <ele>592.2</ele>
        <time>1970-01-01T00:37:56.000Z</time>
      </trkpt>
      <trkpt lat="45.97569" lon="4.56331">
        <ele>592.2</ele>
        <time>1970-01-01T00:37:57.000Z</time>
      </trkpt>
      <trkpt lat="45.97566" lon="4.5633">
        <ele>592.1</ele>
        <time>1970-01-01T00:37:58.000Z</time>
      </trkpt>
      <trkpt lat="45.97566" lon="4.5633">
        <ele>592.1</ele>
        <time>1970-01-01T00:37:59.000Z</time>
      </trkpt>
      <trkpt lat="45.97564" lon="4.5633">
        <ele>592</ele>
        <time>1970-01-01T00:38:00.000Z</time>
      </trkpt>
      <trkpt lat="45.97564" lon="4.5633">
        <ele>592</ele>
        <time>1970-01-01T00:38:01.000Z</time>
      </trkpt>
      <trkpt lat="45.97561" lon="4.56329">
        <ele>591.9</ele>
        <time>1970-01-01T00:38:02.000Z</time>
      </trkpt>
      <trkpt lat="45.97561" lon="4.56329">
        <ele>591.9</ele>
        <time>1970-01-01T00:38:03.000Z</time>
      </trkpt>
      <trkpt lat="45.97559" lon="4.5633">
        <ele>591.8</ele>
        <time>1970-01-01T00:38:04.000Z</time>
      </trkpt>
      <trkpt lat="45.97559" lon="4.5633">
        <ele>591.8</ele>
        <time>1970-01-01T00:38:05.000Z</time>
      </trkpt>
      <trkpt lat="45.97557" lon="4.56331">
        <ele>591.6</ele>
        <time>1970-01-01T00:38:06.000Z</time>
      </trkpt>
      <trkpt lat="45.97557" lon="4.56331">
        <ele>591.6</ele>
        <time>1970-01-01T00:38:07.000Z</time>
      </trkpt>
      <trkpt lat="45.97554" lon="4.56332">
        <ele>591.4</ele>
        <time>1970-01-01T00:38:08.000Z</time>
      </trkpt>
      <trkpt lat="45.97554" lon="4.56332">
        <ele>591.4</ele>
        <time>1970-01-01T00:38:09.000Z</time>
      </trkpt>
      <trkpt lat="45.97552" lon="4.56333">
        <ele>591.1</ele>
        <time>1970-01-01T00:38:10.000Z</time>
      </trkpt>
      <trkpt lat="45.97552" lon="4.56333">
        <ele>591.1</ele>
        <time>1970-01-01T00:38:11.000Z</time>
      </trkpt>
      <trkpt lat="45.97549" lon="4.56333">
        <ele>590.8</ele>
        <time>1970-01-01T00:38:12.000Z</time>
      </trkpt>
      <trkpt lat="45.97549" lon="4.56333">
        <ele>590.8</ele>
        <time>1970-01-01T00:38:13.000Z</time>
      </trkpt>
      <trkpt lat="45.97546" lon="4.56334">
        <ele>590.5</ele>
        <time>1970-01-01T00:38:14.000Z</time>
      </trkpt>
      <trkpt lat="45.97546" lon="4.56334">
        <ele>590.5</ele>
        <time>1970-01-01T00:38:15.000Z</time>
      </trkpt>
      <trkpt lat="45.97543" lon="4.56334">
        <ele>590.1</ele>
        <time>1970-01-01T00:38:16.000Z</time>
      </trkpt>
      <trkpt lat="45.97543" lon="4.56334">
        <ele>590.1</ele>
        <time>1970-01-01T00:38:17.000Z</time>
      </trkpt>
      <trkpt lat="45.9754" lon="4.56334">
        <ele>589.8</ele>
        <time>1970-01-01T00:38:18.000Z</time>
      </trkpt>
      <trkpt lat="45.9754" lon="4.56334">
        <ele>589.8</ele>
        <time>1970-01-01T00:38:19.000Z</time>
      </trkpt>
      <trkpt lat="45.97537" lon="4.56335">
        <ele>589.5</ele>
        <time>1970-01-01T00:38:20.000Z</time>
      </trkpt>
      <trkpt lat="45.97537" lon="4.56335">
        <ele>589.5</ele>
        <time>1970-01-01T00:38:21.000Z</time>
      </trkpt>
      <trkpt lat="45.97535" lon="4.56335">
        <ele>589.1</ele>
        <time>1970-01-01T00:38:22.000Z</time>
      </trkpt>
      <trkpt lat="45.97535" lon="4.56335">
        <ele>589.1</ele>
        <time>1970-01-01T00:38:23.000Z</time>
      </trkpt>
      <trkpt lat="45.97531" lon="4.56336">
        <ele>588.7</ele>
        <time>1970-01-01T00:38:24.000Z</time>
      </trkpt>
      <trkpt lat="45.97531" lon="4.56336">
        <ele>588.7</ele>
        <time>1970-01-01T00:38:25.000Z</time>
      </trkpt>
      <trkpt lat="45.97529" lon="4.56336">
        <ele>588.4</ele>
        <time>1970-01-01T00:38:26.000Z</time>
      </trkpt>
      <trkpt lat="45.97529" lon="4.56336">
        <ele>588.4</ele>
        <time>1970-01-01T00:38:27.000Z</time>
      </trkpt>
      <trkpt lat="45.97526" lon="4.56336">
        <ele>588.1</ele>
        <time>1970-01-01T00:38:28.000Z</time>
      </trkpt>
      <trkpt lat="45.97526" lon="4.56336">
        <ele>588.1</ele>
        <time>1970-01-01T00:38:29.000Z</time>
      </trkpt>
      <trkpt lat="45.97524" lon="4.56338">
        <ele>587.7</ele>
        <time>1970-01-01T00:38:30.000Z</time>
      </trkpt>
      <trkpt lat="45.97524" lon="4.56338">
        <ele>587.7</ele>
        <time>1970-01-01T00:38:31.000Z</time>
      </trkpt>
      <trkpt lat="45.97521" lon="4.5634">
        <ele>587.3</ele>
        <time>1970-01-01T00:38:32.000Z</time>
      </trkpt>
      <trkpt lat="45.97521" lon="4.5634">
        <ele>587.3</ele>
        <time>1970-01-01T00:38:33.000Z</time>
      </trkpt>
      <trkpt lat="45.97518" lon="4.56341">
        <ele>586.9</ele>
        <time>1970-01-01T00:38:34.000Z</time>
      </trkpt>
      <trkpt lat="45.97518" lon="4.56341">
        <ele>586.9</ele>
        <time>1970-01-01T00:38:35.000Z</time>
      </trkpt>
      <trkpt lat="45.97514" lon="4.56343">
        <ele>586.5</ele>
        <time>1970-01-01T00:38:36.000Z</time>
      </trkpt>
      <trkpt lat="45.97514" lon="4.56343">
        <ele>586.5</ele>
        <time>1970-01-01T00:38:37.000Z</time>
      </trkpt>
      <trkpt lat="45.97511" lon="4.56344">
        <ele>586.1</ele>
        <time>1970-01-01T00:38:38.000Z</time>
      </trkpt>
      <trkpt lat="45.97511" lon="4.56344">
        <ele>586.1</ele>
        <time>1970-01-01T00:38:39.000Z</time>
      </trkpt>
      <trkpt lat="45.97508" lon="4.56344">
        <ele>585.7</ele>
        <time>1970-01-01T00:38:40.000Z</time>
      </trkpt>
      <trkpt lat="45.97508" lon="4.56344">
        <ele>585.7</ele>
        <time>1970-01-01T00:38:41.000Z</time>
      </trkpt>
      <trkpt lat="45.97505" lon="4.56344">
        <ele>585</ele>
        <time>1970-01-01T00:38:42.000Z</time>
      </trkpt>
      <trkpt lat="45.97505" lon="4.56344">
        <ele>585</ele>
        <time>1970-01-01T00:38:43.000Z</time>
      </trkpt>
      <trkpt lat="45.97504" lon="4.56341">
        <ele>584.6</ele>
        <time>1970-01-01T00:38:44.000Z</time>
      </trkpt>
      <trkpt lat="45.97504" lon="4.56341">
        <ele>584.6</ele>
        <time>1970-01-01T00:38:45.000Z</time>
      </trkpt>
      <trkpt lat="45.97504" lon="4.56341">
        <ele>584.6</ele>
        <time>1970-01-01T00:38:46.000Z</time>
      </trkpt>
      <trkpt lat="45.97505" lon="4.56338">
        <ele>584.3</ele>
        <time>1970-01-01T00:38:47.000Z</time>
      </trkpt>
      <trkpt lat="45.97505" lon="4.56338">
        <ele>584.3</ele>
        <time>1970-01-01T00:38:48.000Z</time>
      </trkpt>
      <trkpt lat="45.97505" lon="4.56338">
        <ele>584.3</ele>
        <time>1970-01-01T00:38:49.000Z</time>
      </trkpt>
      <trkpt lat="45.97505" lon="4.56338">
        <ele>584.3</ele>
        <time>1970-01-01T00:38:50.000Z</time>
      </trkpt>
      <trkpt lat="45.97505" lon="4.56338">
        <ele>584.3</ele>
        <time>1970-01-01T00:38:51.000Z</time>
      </trkpt>
      <trkpt lat="45.97506" lon="4.56337">
        <ele>584.1</ele>
        <time>1970-01-01T00:38:52.000Z</time>
      </trkpt>
      <trkpt lat="45.97506" lon="4.56337">
        <ele>584.1</ele>
        <time>1970-01-01T00:38:53.000Z</time>
      </trkpt>
      <trkpt lat="45.97506" lon="4.56337">
        <ele>584.1</ele>
        <time>1970-01-01T00:38:54.000Z</time>
      </trkpt>
      <trkpt lat="45.97506" lon="4.56337">
        <ele>584.1</ele>
        <time>1970-01-01T00:38:55.000Z</time>
      </trkpt>
      <trkpt lat="45.97507" lon="4.56334">
        <ele>583.8</ele>
        <time>1970-01-01T00:38:56.000Z</time>
      </trkpt>
      <trkpt lat="45.97507" lon="4.56334">
        <ele>583.8</ele>
        <time>1970-01-01T00:38:57.000Z</time>
      </trkpt>
      <trkpt lat="45.97509" lon="4.56331">
        <ele>583.4</ele>
        <time>1970-01-01T00:38:58.000Z</time>
      </trkpt>
      <trkpt lat="45.97509" lon="4.56331">
        <ele>583.4</ele>
        <time>1970-01-01T00:38:59.000Z</time>
      </trkpt>
      <trkpt lat="45.9751" lon="4.56328">
        <ele>583.1</ele>
        <time>1970-01-01T00:39:00.000Z</time>
      </trkpt>
      <trkpt lat="45.9751" lon="4.56328">
        <ele>583.1</ele>
        <time>1970-01-01T00:39:01.000Z</time>
      </trkpt>
      <trkpt lat="45.97511" lon="4.56326">
        <ele>582.8</ele>
        <time>1970-01-01T00:39:02.000Z</time>
      </trkpt>
      <trkpt lat="45.97511" lon="4.56326">
        <ele>582.8</ele>
        <time>1970-01-01T00:39:03.000Z</time>
      </trkpt>
      <trkpt lat="45.97512" lon="4.56324">
        <ele>582.6</ele>
        <time>1970-01-01T00:39:04.000Z</time>
      </trkpt>
      <trkpt lat="45.97512" lon="4.56324">
        <ele>582.6</ele>
        <time>1970-01-01T00:39:05.000Z</time>
      </trkpt>
      <trkpt lat="45.97514" lon="4.56322">
        <ele>582.3</ele>
        <time>1970-01-01T00:39:06.000Z</time>
      </trkpt>
      <trkpt lat="45.97514" lon="4.56322">
        <ele>582.3</ele>
        <time>1970-01-01T00:39:07.000Z</time>
      </trkpt>
      <trkpt lat="45.97515" lon="4.5632">
        <ele>582</ele>
        <time>1970-01-01T00:39:08.000Z</time>
      </trkpt>
      <trkpt lat="45.97515" lon="4.5632">
        <ele>582</ele>
        <time>1970-01-01T00:39:09.000Z</time>
      </trkpt>
      <trkpt lat="45.97517" lon="4.56317">
        <ele>581.7</ele>
        <time>1970-01-01T00:39:10.000Z</time>
      </trkpt>
      <trkpt lat="45.97517" lon="4.56317">
        <ele>581.7</ele>
        <time>1970-01-01T00:39:11.000Z</time>
      </trkpt>
      <trkpt lat="45.97518" lon="4.56315">
        <ele>581.4</ele>
        <time>1970-01-01T00:39:12.000Z</time>
      </trkpt>
      <trkpt lat="45.97518" lon="4.56315">
        <ele>581.4</ele>
        <time>1970-01-01T00:39:13.000Z</time>
      </trkpt>
      <trkpt lat="45.97518" lon="4.56315">
        <ele>581.4</ele>
        <time>1970-01-01T00:39:14.000Z</time>
      </trkpt>
      <trkpt lat="45.9752" lon="4.56312">
        <ele>581.1</ele>
        <time>1970-01-01T00:39:15.000Z</time>
      </trkpt>
      <trkpt lat="45.9752" lon="4.56312">
        <ele>581.1</ele>
        <time>1970-01-01T00:39:16.000Z</time>
      </trkpt>
      <trkpt lat="45.97521" lon="4.56311">
        <ele>580.8</ele>
        <time>1970-01-01T00:39:17.000Z</time>
      </trkpt>
      <trkpt lat="45.97521" lon="4.56311">
        <ele>580.8</ele>
        <time>1970-01-01T00:39:18.000Z</time>
      </trkpt>
      <trkpt lat="45.97523" lon="4.56308">
        <ele>580.6</ele>
        <time>1970-01-01T00:39:19.000Z</time>
      </trkpt>
      <trkpt lat="45.97523" lon="4.56308">
        <ele>580.6</ele>
        <time>1970-01-01T00:39:20.000Z</time>
      </trkpt>
      <trkpt lat="45.97524" lon="4.56306">
        <ele>580.4</ele>
        <time>1970-01-01T00:39:21.000Z</time>
      </trkpt>
      <trkpt lat="45.97524" lon="4.56306">
        <ele>580.4</ele>
        <time>1970-01-01T00:39:22.000Z</time>
      </trkpt>
      <trkpt lat="45.97525" lon="4.56304">
        <ele>580.2</ele>
        <time>1970-01-01T00:39:23.000Z</time>
      </trkpt>
      <trkpt lat="45.97525" lon="4.56304">
        <ele>580.2</ele>
        <time>1970-01-01T00:39:24.000Z</time>
      </trkpt>
      <trkpt lat="45.97525" lon="4.56304">
        <ele>580.2</ele>
        <time>1970-01-01T00:39:25.000Z</time>
      </trkpt>
      <trkpt lat="45.97527" lon="4.56302">
        <ele>579.9</ele>
        <time>1970-01-01T00:39:26.000Z</time>
      </trkpt>
      <trkpt lat="45.97527" lon="4.56302">
        <ele>579.9</ele>
        <time>1970-01-01T00:39:27.000Z</time>
      </trkpt>
      <trkpt lat="45.97527" lon="4.56302">
        <ele>579.9</ele>
        <time>1970-01-01T00:42:23.000Z</time>
      </trkpt>
      <trkpt lat="45.97527" lon="4.56302">
        <ele>579.9</ele>
        <time>1970-01-01T00:42:24.000Z</time>
      </trkpt>
      <trkpt lat="45.97527" lon="4.56302">
        <ele>579.9</ele>
        <time>1970-01-01T00:42:25.000Z</time>
      </trkpt>
      <trkpt lat="45.97534" lon="4.56299">
        <ele>579.2</ele>
        <time>1970-01-01T00:42:26.000Z</time>
      </trkpt>
      <trkpt lat="45.97534" lon="4.56299">
        <ele>579.2</ele>
        <time>1970-01-01T00:42:27.000Z</time>
      </trkpt>
      <trkpt lat="45.97536" lon="4.56298">
        <ele>579</ele>
        <time>1970-01-01T00:42:28.000Z</time>
      </trkpt>
      <trkpt lat="45.97536" lon="4.56298">
        <ele>579</ele>
        <time>1970-01-01T00:42:29.000Z</time>
      </trkpt>
      <trkpt lat="45.97536" lon="4.56298">
        <ele>579</ele>
        <time>1970-01-01T00:42:30.000Z</time>
      </trkpt>
      <trkpt lat="45.97537" lon="4.56296">
        <ele>578.9</ele>
        <time>1970-01-01T00:42:31.000Z</time>
      </trkpt>
      <trkpt lat="45.97537" lon="4.56296">
        <ele>578.9</ele>
        <time>1970-01-01T00:42:32.000Z</time>
      </trkpt>
      <trkpt lat="45.97537" lon="4.56296">
        <ele>578.9</ele>
        <time>1970-01-01T00:42:33.000Z</time>
      </trkpt>
      <trkpt lat="45.97539" lon="4.56295">
        <ele>578.9</ele>
        <time>1970-01-01T00:42:34.000Z</time>
      </trkpt>
      <trkpt lat="45.97539" lon="4.56295">
        <ele>578.9</ele>
        <time>1970-01-01T00:42:35.000Z</time>
      </trkpt>
      <trkpt lat="45.97541" lon="4.56294">
        <ele>578.9</ele>
        <time>1970-01-01T00:42:36.000Z</time>
      </trkpt>
      <trkpt lat="45.97541" lon="4.56294">
        <ele>578.9</ele>
        <time>1970-01-01T00:42:37.000Z</time>
      </trkpt>
      <trkpt lat="45.97543" lon="4.56293">
        <ele>578.9</ele>
        <time>1970-01-01T00:42:38.000Z</time>
      </trkpt>
      <trkpt lat="45.97543" lon="4.56293">
        <ele>578.9</ele>
        <time>1970-01-01T00:42:39.000Z</time>
      </trkpt>
      <trkpt lat="45.97546" lon="4.56293">
        <ele>578.9</ele>
        <time>1970-01-01T00:42:40.000Z</time>
      </trkpt>
      <trkpt lat="45.97546" lon="4.56293">
        <ele>578.9</ele>
        <time>1970-01-01T00:42:41.000Z</time>
      </trkpt>
      <trkpt lat="45.97548" lon="4.56292">
        <ele>578.9</ele>
        <time>1970-01-01T00:42:42.000Z</time>
      </trkpt>
      <trkpt lat="45.97548" lon="4.56292">
        <ele>578.9</ele>
        <time>1970-01-01T00:42:43.000Z</time>
      </trkpt>
      <trkpt lat="45.9755" lon="4.56291">
        <ele>578.9</ele>
        <time>1970-01-01T00:42:44.000Z</time>
      </trkpt>
      <trkpt lat="45.9755" lon="4.56291">
        <ele>578.9</ele>
        <time>1970-01-01T00:42:45.000Z</time>
      </trkpt>
      <trkpt lat="45.97553" lon="4.5629">
        <ele>578.9</ele>
        <time>1970-01-01T00:42:46.000Z</time>
      </trkpt>
      <trkpt lat="45.97553" lon="4.5629">
        <ele>578.9</ele>
        <time>1970-01-01T00:42:47.000Z</time>
      </trkpt>
      <trkpt lat="45.97555" lon="4.56289">
        <ele>578.9</ele>
        <time>1970-01-01T00:42:48.000Z</time>
      </trkpt>
      <trkpt lat="45.97555" lon="4.56289">
        <ele>578.9</ele>
        <time>1970-01-01T00:42:49.000Z</time>
      </trkpt>
      <trkpt lat="45.97557" lon="4.56288">
        <ele>578.9</ele>
        <time>1970-01-01T00:42:50.000Z</time>
      </trkpt>
      <trkpt lat="45.97557" lon="4.56288">
        <ele>578.9</ele>
        <time>1970-01-01T00:42:51.000Z</time>
      </trkpt>
      <trkpt lat="45.97559" lon="4.56286">
        <ele>578.9</ele>
        <time>1970-01-01T00:42:52.000Z</time>
      </trkpt>
      <trkpt lat="45.97559" lon="4.56286">
        <ele>578.9</ele>
        <time>1970-01-01T00:42:53.000Z</time>
      </trkpt>
      <trkpt lat="45.97561" lon="4.56285">
        <ele>578.9</ele>
        <time>1970-01-01T00:42:54.000Z</time>
      </trkpt>
      <trkpt lat="45.97561" lon="4.56285">
        <ele>578.9</ele>
        <time>1970-01-01T00:42:55.000Z</time>
      </trkpt>
      <trkpt lat="45.97564" lon="4.56284">
        <ele>578.9</ele>
        <time>1970-01-01T00:42:56.000Z</time>
      </trkpt>
      <trkpt lat="45.97564" lon="4.56284">
        <ele>578.9</ele>
        <time>1970-01-01T00:42:57.000Z</time>
      </trkpt>
      <trkpt lat="45.97566" lon="4.56283">
        <ele>578.9</ele>
        <time>1970-01-01T00:42:58.000Z</time>
      </trkpt>
      <trkpt lat="45.97566" lon="4.56283">
        <ele>578.9</ele>
        <time>1970-01-01T00:42:59.000Z</time>
      </trkpt>
      <trkpt lat="45.97569" lon="4.56282">
        <ele>578.9</ele>
        <time>1970-01-01T00:43:00.000Z</time>
      </trkpt>
      <trkpt lat="45.97569" lon="4.56282">
        <ele>578.9</ele>
        <time>1970-01-01T00:43:01.000Z</time>
      </trkpt>
      <trkpt lat="45.97571" lon="4.56281">
        <ele>578.9</ele>
        <time>1970-01-01T00:43:02.000Z</time>
      </trkpt>
      <trkpt lat="45.97571" lon="4.56281">
        <ele>578.9</ele>
        <time>1970-01-01T00:43:03.000Z</time>
      </trkpt>
      <trkpt lat="45.97574" lon="4.5628">
        <ele>578.9</ele>
        <time>1970-01-01T00:43:04.000Z</time>
      </trkpt>
      <trkpt lat="45.97574" lon="4.5628">
        <ele>578.9</ele>
        <time>1970-01-01T00:43:05.000Z</time>
      </trkpt>
      <trkpt lat="45.97576" lon="4.56279">
        <ele>578.9</ele>
        <time>1970-01-01T00:43:06.000Z</time>
      </trkpt>
      <trkpt lat="45.97576" lon="4.56279">
        <ele>578.9</ele>
        <time>1970-01-01T00:43:07.000Z</time>
      </trkpt>
      <trkpt lat="45.97579" lon="4.56279">
        <ele>578.8</ele>
        <time>1970-01-01T00:43:08.000Z</time>
      </trkpt>
      <trkpt lat="45.97579" lon="4.56279">
        <ele>578.8</ele>
        <time>1970-01-01T00:43:09.000Z</time>
      </trkpt>
      <trkpt lat="45.97581" lon="4.56277">
        <ele>578.8</ele>
        <time>1970-01-01T00:43:10.000Z</time>
      </trkpt>
      <trkpt lat="45.97581" lon="4.56277">
        <ele>578.8</ele>
        <time>1970-01-01T00:43:11.000Z</time>
      </trkpt>
      <trkpt lat="45.97583" lon="4.56276">
        <ele>578.8</ele>
        <time>1970-01-01T00:43:12.000Z</time>
      </trkpt>
      <trkpt lat="45.97583" lon="4.56276">
        <ele>578.8</ele>
        <time>1970-01-01T00:43:13.000Z</time>
      </trkpt>
      <trkpt lat="45.97586" lon="4.56275">
        <ele>578.8</ele>
        <time>1970-01-01T00:43:14.000Z</time>
      </trkpt>
      <trkpt lat="45.97586" lon="4.56275">
        <ele>578.8</ele>
        <time>1970-01-01T00:43:15.000Z</time>
      </trkpt>
      <trkpt lat="45.97588" lon="4.56274">
        <ele>578.8</ele>
        <time>1970-01-01T00:43:16.000Z</time>
      </trkpt>
      <trkpt lat="45.97588" lon="4.56274">
        <ele>578.8</ele>
        <time>1970-01-01T00:43:17.000Z</time>
      </trkpt>
      <trkpt lat="45.97591" lon="4.56274">
        <ele>578.8</ele>
        <time>1970-01-01T00:43:18.000Z</time>
      </trkpt>
      <trkpt lat="45.97591" lon="4.56274">
        <ele>578.8</ele>
        <time>1970-01-01T00:43:19.000Z</time>
      </trkpt>
      <trkpt lat="45.97593" lon="4.56272">
        <ele>578.8</ele>
        <time>1970-01-01T00:43:20.000Z</time>
      </trkpt>
      <trkpt lat="45.97593" lon="4.56272">
        <ele>578.8</ele>
        <time>1970-01-01T00:43:21.000Z</time>
      </trkpt>
      <trkpt lat="45.97596" lon="4.56271">
        <ele>578.8</ele>
        <time>1970-01-01T00:43:22.000Z</time>
      </trkpt>
      <trkpt lat="45.97596" lon="4.56271">
        <ele>578.8</ele>
        <time>1970-01-01T00:43:23.000Z</time>
      </trkpt>
      <trkpt lat="45.97598" lon="4.5627">
        <ele>578.8</ele>
        <time>1970-01-01T00:43:24.000Z</time>
      </trkpt>
      <trkpt lat="45.97598" lon="4.5627">
        <ele>578.8</ele>
        <time>1970-01-01T00:43:25.000Z</time>
      </trkpt>
      <trkpt lat="45.97601" lon="4.56269">
        <ele>578.8</ele>
        <time>1970-01-01T00:43:26.000Z</time>
      </trkpt>
      <trkpt lat="45.97601" lon="4.56269">
        <ele>578.8</ele>
        <time>1970-01-01T00:43:27.000Z</time>
      </trkpt>
      <trkpt lat="45.97603" lon="4.56269">
        <ele>578.8</ele>
        <time>1970-01-01T00:43:28.000Z</time>
      </trkpt>
      <trkpt lat="45.97603" lon="4.56269">
        <ele>578.8</ele>
        <time>1970-01-01T00:43:29.000Z</time>
      </trkpt>
      <trkpt lat="45.97606" lon="4.56268">
        <ele>578.8</ele>
        <time>1970-01-01T00:43:30.000Z</time>
      </trkpt>
      <trkpt lat="45.97606" lon="4.56268">
        <ele>578.8</ele>
        <time>1970-01-01T00:43:31.000Z</time>
      </trkpt>
      <trkpt lat="45.97609" lon="4.56267">
        <ele>578.8</ele>
        <time>1970-01-01T00:43:32.000Z</time>
      </trkpt>
      <trkpt lat="45.97609" lon="4.56267">
        <ele>578.8</ele>
        <time>1970-01-01T00:43:33.000Z</time>
      </trkpt>
      <trkpt lat="45.97611" lon="4.56266">
        <ele>578.8</ele>
        <time>1970-01-01T00:43:34.000Z</time>
      </trkpt>
      <trkpt lat="45.97611" lon="4.56266">
        <ele>578.8</ele>
        <time>1970-01-01T00:43:35.000Z</time>
      </trkpt>
      <trkpt lat="45.97614" lon="4.56265">
        <ele>578.8</ele>
        <time>1970-01-01T00:43:36.000Z</time>
      </trkpt>
      <trkpt lat="45.97614" lon="4.56265">
        <ele>578.8</ele>
        <time>1970-01-01T00:43:37.000Z</time>
      </trkpt>
      <trkpt lat="45.97616" lon="4.56264">
        <ele>578.8</ele>
        <time>1970-01-01T00:43:38.000Z</time>
      </trkpt>
      <trkpt lat="45.97616" lon="4.56264">
        <ele>578.8</ele>
        <time>1970-01-01T00:43:39.000Z</time>
      </trkpt>
      <trkpt lat="45.97619" lon="4.56263">
        <ele>578.8</ele>
        <time>1970-01-01T00:43:40.000Z</time>
      </trkpt>
      <trkpt lat="45.97619" lon="4.56263">
        <ele>578.8</ele>
        <time>1970-01-01T00:43:41.000Z</time>
      </trkpt>
      <trkpt lat="45.97622" lon="4.56262">
        <ele>578.7</ele>
        <time>1970-01-01T00:43:42.000Z</time>
      </trkpt>
      <trkpt lat="45.97622" lon="4.56262">
        <ele>578.7</ele>
        <time>1970-01-01T00:43:43.000Z</time>
      </trkpt>
      <trkpt lat="45.97624" lon="4.56261">
        <ele>578.7</ele>
        <time>1970-01-01T00:43:44.000Z</time>
      </trkpt>
      <trkpt lat="45.97624" lon="4.56261">
        <ele>578.7</ele>
        <time>1970-01-01T00:43:45.000Z</time>
      </trkpt>
      <trkpt lat="45.97626" lon="4.56259">
        <ele>578.7</ele>
        <time>1970-01-01T00:43:46.000Z</time>
      </trkpt>
      <trkpt lat="45.97626" lon="4.56259">
        <ele>578.7</ele>
        <time>1970-01-01T00:43:47.000Z</time>
      </trkpt>
      <trkpt lat="45.97628" lon="4.56259">
        <ele>578.7</ele>
        <time>1970-01-01T00:43:48.000Z</time>
      </trkpt>
      <trkpt lat="45.97628" lon="4.56259">
        <ele>578.7</ele>
        <time>1970-01-01T00:43:49.000Z</time>
      </trkpt>
      <trkpt lat="45.97631" lon="4.56258">
        <ele>578.7</ele>
        <time>1970-01-01T00:43:50.000Z</time>
      </trkpt>
      <trkpt lat="45.97631" lon="4.56258">
        <ele>578.7</ele>
        <time>1970-01-01T00:43:51.000Z</time>
      </trkpt>
      <trkpt lat="45.97634" lon="4.56258">
        <ele>578.7</ele>
        <time>1970-01-01T00:43:52.000Z</time>
      </trkpt>
      <trkpt lat="45.97634" lon="4.56258">
        <ele>578.7</ele>
        <time>1970-01-01T00:43:53.000Z</time>
      </trkpt>
      <trkpt lat="45.97636" lon="4.56257">
        <ele>578.6</ele>
        <time>1970-01-01T00:43:54.000Z</time>
      </trkpt>
      <trkpt lat="45.97636" lon="4.56257">
        <ele>578.6</ele>
        <time>1970-01-01T00:43:55.000Z</time>
      </trkpt>
      <trkpt lat="45.97639" lon="4.56257">
        <ele>578.6</ele>
        <time>1970-01-01T00:43:56.000Z</time>
      </trkpt>
      <trkpt lat="45.97639" lon="4.56257">
        <ele>578.6</ele>
        <time>1970-01-01T00:43:57.000Z</time>
      </trkpt>
      <trkpt lat="45.97641" lon="4.56257">
        <ele>578.6</ele>
        <time>1970-01-01T00:43:58.000Z</time>
      </trkpt>
      <trkpt lat="45.97641" lon="4.56257">
        <ele>578.6</ele>
        <time>1970-01-01T00:43:59.000Z</time>
      </trkpt>
      <trkpt lat="45.97644" lon="4.56257">
        <ele>578.6</ele>
        <time>1970-01-01T00:44:00.000Z</time>
      </trkpt>
      <trkpt lat="45.97644" lon="4.56257">
        <ele>578.6</ele>
        <time>1970-01-01T00:44:01.000Z</time>
      </trkpt>
      <trkpt lat="45.97646" lon="4.56258">
        <ele>578.6</ele>
        <time>1970-01-01T00:44:02.000Z</time>
      </trkpt>
      <trkpt lat="45.97646" lon="4.56258">
        <ele>578.6</ele>
        <time>1970-01-01T00:44:03.000Z</time>
      </trkpt>
      <trkpt lat="45.97649" lon="4.56259">
        <ele>578.5</ele>
        <time>1970-01-01T00:44:04.000Z</time>
      </trkpt>
      <trkpt lat="45.97649" lon="4.56259">
        <ele>578.5</ele>
        <time>1970-01-01T00:44:05.000Z</time>
      </trkpt>
      <trkpt lat="45.97651" lon="4.5626">
        <ele>578.5</ele>
        <time>1970-01-01T00:44:06.000Z</time>
      </trkpt>
      <trkpt lat="45.97651" lon="4.5626">
        <ele>578.5</ele>
        <time>1970-01-01T00:44:07.000Z</time>
      </trkpt>
      <trkpt lat="45.97653" lon="4.56261">
        <ele>578.5</ele>
        <time>1970-01-01T00:44:08.000Z</time>
      </trkpt>
      <trkpt lat="45.97653" lon="4.56261">
        <ele>578.5</ele>
        <time>1970-01-01T00:44:09.000Z</time>
      </trkpt>
      <trkpt lat="45.97653" lon="4.56261">
        <ele>578.5</ele>
        <time>1970-01-01T00:44:10.000Z</time>
      </trkpt>
      <trkpt lat="45.97656" lon="4.56262">
        <ele>578.5</ele>
        <time>1970-01-01T00:44:11.000Z</time>
      </trkpt>
      <trkpt lat="45.97656" lon="4.56262">
        <ele>578.5</ele>
        <time>1970-01-01T00:44:12.000Z</time>
      </trkpt>
      <trkpt lat="45.97658" lon="4.56263">
        <ele>578.5</ele>
        <time>1970-01-01T00:44:13.000Z</time>
      </trkpt>
      <trkpt lat="45.97658" lon="4.56263">
        <ele>578.5</ele>
        <time>1970-01-01T00:44:14.000Z</time>
      </trkpt>
      <trkpt lat="45.97661" lon="4.56265">
        <ele>578.6</ele>
        <time>1970-01-01T00:44:15.000Z</time>
      </trkpt>
      <trkpt lat="45.97662" lon="4.56266">
        <ele>578.6</ele>
        <time>1970-01-01T00:44:16.000Z</time>
      </trkpt>
      <trkpt lat="45.97662" lon="4.56266">
        <ele>578.6</ele>
        <time>1970-01-01T00:44:17.000Z</time>
      </trkpt>
      <trkpt lat="45.97664" lon="4.56267">
        <ele>578.6</ele>
        <time>1970-01-01T00:44:18.000Z</time>
      </trkpt>
      <trkpt lat="45.97664" lon="4.56267">
        <ele>578.6</ele>
        <time>1970-01-01T00:44:19.000Z</time>
      </trkpt>
      <trkpt lat="45.97667" lon="4.56268">
        <ele>578.6</ele>
        <time>1970-01-01T00:44:20.000Z</time>
      </trkpt>
      <trkpt lat="45.97667" lon="4.56268">
        <ele>578.6</ele>
        <time>1970-01-01T00:44:21.000Z</time>
      </trkpt>
      <trkpt lat="45.97669" lon="4.5627">
        <ele>578.6</ele>
        <time>1970-01-01T00:44:22.000Z</time>
      </trkpt>
      <trkpt lat="45.97669" lon="4.5627">
        <ele>578.6</ele>
        <time>1970-01-01T00:44:23.000Z</time>
      </trkpt>
      <trkpt lat="45.97671" lon="4.56271">
        <ele>578.6</ele>
        <time>1970-01-01T00:44:24.000Z</time>
      </trkpt>
      <trkpt lat="45.97671" lon="4.56271">
        <ele>578.6</ele>
        <time>1970-01-01T00:44:25.000Z</time>
      </trkpt>
      <trkpt lat="45.97674" lon="4.56273">
        <ele>578.6</ele>
        <time>1970-01-01T00:44:26.000Z</time>
      </trkpt>
      <trkpt lat="45.97674" lon="4.56273">
        <ele>578.6</ele>
        <time>1970-01-01T00:44:27.000Z</time>
      </trkpt>
      <trkpt lat="45.97676" lon="4.56275">
        <ele>578.7</ele>
        <time>1970-01-01T00:44:28.000Z</time>
      </trkpt>
      <trkpt lat="45.97676" lon="4.56275">
        <ele>578.7</ele>
        <time>1970-01-01T00:44:29.000Z</time>
      </trkpt>
      <trkpt lat="45.97678" lon="4.56276">
        <ele>578.7</ele>
        <time>1970-01-01T00:44:30.000Z</time>
      </trkpt>
      <trkpt lat="45.97678" lon="4.56276">
        <ele>578.7</ele>
        <time>1970-01-01T00:44:31.000Z</time>
      </trkpt>
      <trkpt lat="45.97681" lon="4.56277">
        <ele>578.7</ele>
        <time>1970-01-01T00:44:32.000Z</time>
      </trkpt>
      <trkpt lat="45.97681" lon="4.56277">
        <ele>578.7</ele>
        <time>1970-01-01T00:44:33.000Z</time>
      </trkpt>
      <trkpt lat="45.97683" lon="4.56278">
        <ele>578.7</ele>
        <time>1970-01-01T00:44:34.000Z</time>
      </trkpt>
      <trkpt lat="45.97683" lon="4.56278">
        <ele>578.7</ele>
        <time>1970-01-01T00:44:35.000Z</time>
      </trkpt>
      <trkpt lat="45.97685" lon="4.56279">
        <ele>578.7</ele>
        <time>1970-01-01T00:44:36.000Z</time>
      </trkpt>
      <trkpt lat="45.97685" lon="4.56279">
        <ele>578.7</ele>
        <time>1970-01-01T00:44:37.000Z</time>
      </trkpt>
      <trkpt lat="45.97688" lon="4.56281">
        <ele>578.6</ele>
        <time>1970-01-01T00:44:38.000Z</time>
      </trkpt>
      <trkpt lat="45.97688" lon="4.56281">
        <ele>578.6</ele>
        <time>1970-01-01T00:44:39.000Z</time>
      </trkpt>
      <trkpt lat="45.97691" lon="4.56283">
        <ele>578.6</ele>
        <time>1970-01-01T00:44:40.000Z</time>
      </trkpt>
      <trkpt lat="45.97691" lon="4.56283">
        <ele>578.6</ele>
        <time>1970-01-01T00:44:41.000Z</time>
      </trkpt>
      <trkpt lat="45.97693" lon="4.56285">
        <ele>578.6</ele>
        <time>1970-01-01T00:44:42.000Z</time>
      </trkpt>
      <trkpt lat="45.97693" lon="4.56285">
        <ele>578.6</ele>
        <time>1970-01-01T00:44:43.000Z</time>
      </trkpt>
      <trkpt lat="45.97695" lon="4.56287">
        <ele>578.6</ele>
        <time>1970-01-01T00:44:44.000Z</time>
      </trkpt>
      <trkpt lat="45.97695" lon="4.56287">
        <ele>578.6</ele>
        <time>1970-01-01T00:44:45.000Z</time>
      </trkpt>
      <trkpt lat="45.97697" lon="4.56288">
        <ele>578.6</ele>
        <time>1970-01-01T00:44:46.000Z</time>
      </trkpt>
      <trkpt lat="45.97697" lon="4.56288">
        <ele>578.6</ele>
        <time>1970-01-01T00:44:47.000Z</time>
      </trkpt>
      <trkpt lat="45.97699" lon="4.56289">
        <ele>578.6</ele>
        <time>1970-01-01T00:44:48.000Z</time>
      </trkpt>
      <trkpt lat="45.97699" lon="4.56289">
        <ele>578.6</ele>
        <time>1970-01-01T00:44:49.000Z</time>
      </trkpt>
      <trkpt lat="45.97701" lon="4.56291">
        <ele>578.6</ele>
        <time>1970-01-01T00:44:50.000Z</time>
      </trkpt>
      <trkpt lat="45.97701" lon="4.56291">
        <ele>578.6</ele>
        <time>1970-01-01T00:44:51.000Z</time>
      </trkpt>
      <trkpt lat="45.97703" lon="4.56292">
        <ele>578.6</ele>
        <time>1970-01-01T00:44:52.000Z</time>
      </trkpt>
      <trkpt lat="45.97703" lon="4.56292">
        <ele>578.6</ele>
        <time>1970-01-01T00:44:53.000Z</time>
      </trkpt>
      <trkpt lat="45.97705" lon="4.56293">
        <ele>578.6</ele>
        <time>1970-01-01T00:44:54.000Z</time>
      </trkpt>
      <trkpt lat="45.97707" lon="4.56294">
        <ele>578.5</ele>
        <time>1970-01-01T00:44:55.000Z</time>
      </trkpt>
      <trkpt lat="45.97709" lon="4.56296">
        <ele>578.5</ele>
        <time>1970-01-01T00:44:56.000Z</time>
      </trkpt>
      <trkpt lat="45.97709" lon="4.56296">
        <ele>578.5</ele>
        <time>1970-01-01T00:44:57.000Z</time>
      </trkpt>
      <trkpt lat="45.97712" lon="4.56299">
        <ele>578.5</ele>
        <time>1970-01-01T00:44:58.000Z</time>
      </trkpt>
      <trkpt lat="45.97712" lon="4.56299">
        <ele>578.5</ele>
        <time>1970-01-01T00:44:59.000Z</time>
      </trkpt>
      <trkpt lat="45.97715" lon="4.563">
        <ele>578.5</ele>
        <time>1970-01-01T00:45:00.000Z</time>
      </trkpt>
      <trkpt lat="45.97715" lon="4.563">
        <ele>578.5</ele>
        <time>1970-01-01T00:45:01.000Z</time>
      </trkpt>
      <trkpt lat="45.97718" lon="4.56302">
        <ele>578.6</ele>
        <time>1970-01-01T00:45:02.000Z</time>
      </trkpt>
      <trkpt lat="45.97718" lon="4.56302">
        <ele>578.6</ele>
        <time>1970-01-01T00:45:03.000Z</time>
      </trkpt>
      <trkpt lat="45.9772" lon="4.56304">
        <ele>578.6</ele>
        <time>1970-01-01T00:45:04.000Z</time>
      </trkpt>
      <trkpt lat="45.9772" lon="4.56304">
        <ele>578.6</ele>
        <time>1970-01-01T00:45:05.000Z</time>
      </trkpt>
      <trkpt lat="45.97723" lon="4.56305">
        <ele>578.6</ele>
        <time>1970-01-01T00:45:06.000Z</time>
      </trkpt>
      <trkpt lat="45.97723" lon="4.56305">
        <ele>578.6</ele>
        <time>1970-01-01T00:45:07.000Z</time>
      </trkpt>
      <trkpt lat="45.97726" lon="4.56307">
        <ele>578.7</ele>
        <time>1970-01-01T00:45:08.000Z</time>
      </trkpt>
      <trkpt lat="45.97726" lon="4.56307">
        <ele>578.7</ele>
        <time>1970-01-01T00:45:09.000Z</time>
      </trkpt>
      <trkpt lat="45.97728" lon="4.56309">
        <ele>578.7</ele>
        <time>1970-01-01T00:45:10.000Z</time>
      </trkpt>
      <trkpt lat="45.97728" lon="4.56309">
        <ele>578.7</ele>
        <time>1970-01-01T00:45:11.000Z</time>
      </trkpt>
      <trkpt lat="45.97731" lon="4.5631">
        <ele>578.8</ele>
        <time>1970-01-01T00:45:12.000Z</time>
      </trkpt>
      <trkpt lat="45.97731" lon="4.5631">
        <ele>578.8</ele>
        <time>1970-01-01T00:45:13.000Z</time>
      </trkpt>
      <trkpt lat="45.97734" lon="4.56312">
        <ele>578.9</ele>
        <time>1970-01-01T00:45:14.000Z</time>
      </trkpt>
      <trkpt lat="45.97734" lon="4.56312">
        <ele>578.9</ele>
        <time>1970-01-01T00:45:15.000Z</time>
      </trkpt>
      <trkpt lat="45.97737" lon="4.56313">
        <ele>579</ele>
        <time>1970-01-01T00:45:16.000Z</time>
      </trkpt>
      <trkpt lat="45.97737" lon="4.56313">
        <ele>579</ele>
        <time>1970-01-01T00:45:17.000Z</time>
      </trkpt>
      <trkpt lat="45.9774" lon="4.56315">
        <ele>579.1</ele>
        <time>1970-01-01T00:45:18.000Z</time>
      </trkpt>
      <trkpt lat="45.9774" lon="4.56315">
        <ele>579.1</ele>
        <time>1970-01-01T00:45:19.000Z</time>
      </trkpt>
      <trkpt lat="45.97742" lon="4.56316">
        <ele>579.2</ele>
        <time>1970-01-01T00:45:20.000Z</time>
      </trkpt>
      <trkpt lat="45.97742" lon="4.56316">
        <ele>579.2</ele>
        <time>1970-01-01T00:45:21.000Z</time>
      </trkpt>
      <trkpt lat="45.97745" lon="4.56318">
        <ele>579.4</ele>
        <time>1970-01-01T00:45:22.000Z</time>
      </trkpt>
      <trkpt lat="45.97745" lon="4.56318">
        <ele>579.4</ele>
        <time>1970-01-01T00:45:23.000Z</time>
      </trkpt>
      <trkpt lat="45.97747" lon="4.56319">
        <ele>579.5</ele>
        <time>1970-01-01T00:45:24.000Z</time>
      </trkpt>
      <trkpt lat="45.97747" lon="4.56319">
        <ele>579.5</ele>
        <time>1970-01-01T00:45:25.000Z</time>
      </trkpt>
      <trkpt lat="45.9775" lon="4.5632">
        <ele>579.6</ele>
        <time>1970-01-01T00:45:26.000Z</time>
      </trkpt>
      <trkpt lat="45.9775" lon="4.5632">
        <ele>579.6</ele>
        <time>1970-01-01T00:45:27.000Z</time>
      </trkpt>
      <trkpt lat="45.97752" lon="4.56321">
        <ele>579.7</ele>
        <time>1970-01-01T00:45:28.000Z</time>
      </trkpt>
      <trkpt lat="45.97752" lon="4.56321">
        <ele>579.7</ele>
        <time>1970-01-01T00:45:29.000Z</time>
      </trkpt>
      <trkpt lat="45.97754" lon="4.56322">
        <ele>579.8</ele>
        <time>1970-01-01T00:45:30.000Z</time>
      </trkpt>
      <trkpt lat="45.97754" lon="4.56322">
        <ele>579.8</ele>
        <time>1970-01-01T00:45:31.000Z</time>
      </trkpt>
      <trkpt lat="45.97756" lon="4.56322">
        <ele>579.9</ele>
        <time>1970-01-01T00:45:32.000Z</time>
      </trkpt>
      <trkpt lat="45.97756" lon="4.56322">
        <ele>579.9</ele>
        <time>1970-01-01T00:45:33.000Z</time>
      </trkpt>
      <trkpt lat="45.97759" lon="4.56323">
        <ele>580</ele>
        <time>1970-01-01T00:45:34.000Z</time>
      </trkpt>
      <trkpt lat="45.97759" lon="4.56323">
        <ele>580</ele>
        <time>1970-01-01T00:45:35.000Z</time>
      </trkpt>
      <trkpt lat="45.97762" lon="4.56323">
        <ele>580.2</ele>
        <time>1970-01-01T00:45:36.000Z</time>
      </trkpt>
      <trkpt lat="45.97762" lon="4.56323">
        <ele>580.2</ele>
        <time>1970-01-01T00:45:37.000Z</time>
      </trkpt>
      <trkpt lat="45.97764" lon="4.56323">
        <ele>580.3</ele>
        <time>1970-01-01T00:45:38.000Z</time>
      </trkpt>
      <trkpt lat="45.97764" lon="4.56323">
        <ele>580.3</ele>
        <time>1970-01-01T00:45:39.000Z</time>
      </trkpt>
      <trkpt lat="45.97767" lon="4.56324">
        <ele>580.4</ele>
        <time>1970-01-01T00:45:40.000Z</time>
      </trkpt>
      <trkpt lat="45.97767" lon="4.56324">
        <ele>580.4</ele>
        <time>1970-01-01T00:45:41.000Z</time>
      </trkpt>
      <trkpt lat="45.97769" lon="4.56325">
        <ele>580.6</ele>
        <time>1970-01-01T00:45:42.000Z</time>
      </trkpt>
      <trkpt lat="45.97769" lon="4.56325">
        <ele>580.6</ele>
        <time>1970-01-01T00:45:43.000Z</time>
      </trkpt>
      <trkpt lat="45.97772" lon="4.56325">
        <ele>580.7</ele>
        <time>1970-01-01T00:45:44.000Z</time>
      </trkpt>
      <trkpt lat="45.97772" lon="4.56325">
        <ele>580.7</ele>
        <time>1970-01-01T00:45:45.000Z</time>
      </trkpt>
      <trkpt lat="45.97774" lon="4.56324">
        <ele>580.8</ele>
        <time>1970-01-01T00:45:46.000Z</time>
      </trkpt>
      <trkpt lat="45.97774" lon="4.56324">
        <ele>580.8</ele>
        <time>1970-01-01T00:45:47.000Z</time>
      </trkpt>
      <trkpt lat="45.97777" lon="4.56324">
        <ele>580.9</ele>
        <time>1970-01-01T00:45:48.000Z</time>
      </trkpt>
      <trkpt lat="45.97777" lon="4.56324">
        <ele>580.9</ele>
        <time>1970-01-01T00:45:49.000Z</time>
      </trkpt>
      <trkpt lat="45.97779" lon="4.56324">
        <ele>581</ele>
        <time>1970-01-01T00:45:50.000Z</time>
      </trkpt>
      <trkpt lat="45.97779" lon="4.56324">
        <ele>581</ele>
        <time>1970-01-01T00:45:51.000Z</time>
      </trkpt>
      <trkpt lat="45.97782" lon="4.56324">
        <ele>581.1</ele>
        <time>1970-01-01T00:45:52.000Z</time>
      </trkpt>
      <trkpt lat="45.97782" lon="4.56324">
        <ele>581.1</ele>
        <time>1970-01-01T00:45:53.000Z</time>
      </trkpt>
      <trkpt lat="45.97784" lon="4.56324">
        <ele>581.2</ele>
        <time>1970-01-01T00:45:54.000Z</time>
      </trkpt>
      <trkpt lat="45.97784" lon="4.56324">
        <ele>581.2</ele>
        <time>1970-01-01T00:45:55.000Z</time>
      </trkpt>
      <trkpt lat="45.97787" lon="4.56323">
        <ele>581.3</ele>
        <time>1970-01-01T00:45:56.000Z</time>
      </trkpt>
      <trkpt lat="45.97787" lon="4.56323">
        <ele>581.3</ele>
        <time>1970-01-01T00:45:57.000Z</time>
      </trkpt>
      <trkpt lat="45.97789" lon="4.56321">
        <ele>581.4</ele>
        <time>1970-01-01T00:45:58.000Z</time>
      </trkpt>
      <trkpt lat="45.97789" lon="4.56321">
        <ele>581.4</ele>
        <time>1970-01-01T00:45:59.000Z</time>
      </trkpt>
      <trkpt lat="45.97791" lon="4.5632">
        <ele>581.5</ele>
        <time>1970-01-01T00:46:00.000Z</time>
      </trkpt>
      <trkpt lat="45.97791" lon="4.5632">
        <ele>581.5</ele>
        <time>1970-01-01T00:46:01.000Z</time>
      </trkpt>
      <trkpt lat="45.97794" lon="4.56319">
        <ele>581.6</ele>
        <time>1970-01-01T00:46:02.000Z</time>
      </trkpt>
      <trkpt lat="45.97794" lon="4.56319">
        <ele>581.6</ele>
        <time>1970-01-01T00:46:03.000Z</time>
      </trkpt>
      <trkpt lat="45.97794" lon="4.56319">
        <ele>581.6</ele>
        <time>1970-01-01T00:46:04.000Z</time>
      </trkpt>
      <trkpt lat="45.97797" lon="4.56318">
        <ele>581.8</ele>
        <time>1970-01-01T00:46:05.000Z</time>
      </trkpt>
      <trkpt lat="45.97797" lon="4.56318">
        <ele>581.8</ele>
        <time>1970-01-01T00:46:06.000Z</time>
      </trkpt>
      <trkpt lat="45.97797" lon="4.56318">
        <ele>581.8</ele>
        <time>1970-01-01T00:46:07.000Z</time>
      </trkpt>
      <trkpt lat="45.97801" lon="4.56317">
        <ele>581.9</ele>
        <time>1970-01-01T00:46:08.000Z</time>
      </trkpt>
      <trkpt lat="45.97801" lon="4.56317">
        <ele>581.9</ele>
        <time>1970-01-01T00:46:09.000Z</time>
      </trkpt>
      <trkpt lat="45.97803" lon="4.56316">
        <ele>582</ele>
        <time>1970-01-01T00:46:10.000Z</time>
      </trkpt>
      <trkpt lat="45.97803" lon="4.56316">
        <ele>582</ele>
        <time>1970-01-01T00:46:11.000Z</time>
      </trkpt>
      <trkpt lat="45.97805" lon="4.56316">
        <ele>582.1</ele>
        <time>1970-01-01T00:46:12.000Z</time>
      </trkpt>
      <trkpt lat="45.97805" lon="4.56316">
        <ele>582.1</ele>
        <time>1970-01-01T00:46:13.000Z</time>
      </trkpt>
      <trkpt lat="45.97808" lon="4.56315">
        <ele>582.2</ele>
        <time>1970-01-01T00:46:14.000Z</time>
      </trkpt>
      <trkpt lat="45.97808" lon="4.56315">
        <ele>582.2</ele>
        <time>1970-01-01T00:46:15.000Z</time>
      </trkpt>
      <trkpt lat="45.97811" lon="4.56316">
        <ele>582.3</ele>
        <time>1970-01-01T00:46:16.000Z</time>
      </trkpt>
      <trkpt lat="45.97811" lon="4.56316">
        <ele>582.3</ele>
        <time>1970-01-01T00:46:17.000Z</time>
      </trkpt>
      <trkpt lat="45.97813" lon="4.56315">
        <ele>582.3</ele>
        <time>1970-01-01T00:46:18.000Z</time>
      </trkpt>
      <trkpt lat="45.97813" lon="4.56315">
        <ele>582.3</ele>
        <time>1970-01-01T00:46:19.000Z</time>
      </trkpt>
      <trkpt lat="45.97816" lon="4.56314">
        <ele>582.4</ele>
        <time>1970-01-01T00:46:20.000Z</time>
      </trkpt>
      <trkpt lat="45.97816" lon="4.56314">
        <ele>582.4</ele>
        <time>1970-01-01T00:46:21.000Z</time>
      </trkpt>
      <trkpt lat="45.97819" lon="4.56312">
        <ele>582.4</ele>
        <time>1970-01-01T00:46:22.000Z</time>
      </trkpt>
      <trkpt lat="45.97819" lon="4.56312">
        <ele>582.4</ele>
        <time>1970-01-01T00:46:23.000Z</time>
      </trkpt>
      <trkpt lat="45.97821" lon="4.56311">
        <ele>582.4</ele>
        <time>1970-01-01T00:46:24.000Z</time>
      </trkpt>
      <trkpt lat="45.97821" lon="4.56311">
        <ele>582.4</ele>
        <time>1970-01-01T00:46:25.000Z</time>
      </trkpt>
      <trkpt lat="45.97824" lon="4.56309">
        <ele>582.4</ele>
        <time>1970-01-01T00:46:26.000Z</time>
      </trkpt>
      <trkpt lat="45.97824" lon="4.56309">
        <ele>582.4</ele>
        <time>1970-01-01T00:46:27.000Z</time>
      </trkpt>
      <trkpt lat="45.97826" lon="4.56308">
        <ele>582.4</ele>
        <time>1970-01-01T00:46:28.000Z</time>
      </trkpt>
      <trkpt lat="45.97826" lon="4.56308">
        <ele>582.4</ele>
        <time>1970-01-01T00:46:29.000Z</time>
      </trkpt>
      <trkpt lat="45.97828" lon="4.56306">
        <ele>582.3</ele>
        <time>1970-01-01T00:46:30.000Z</time>
      </trkpt>
      <trkpt lat="45.97828" lon="4.56306">
        <ele>582.3</ele>
        <time>1970-01-01T00:46:31.000Z</time>
      </trkpt>
      <trkpt lat="45.97829" lon="4.56304">
        <ele>582.3</ele>
        <time>1970-01-01T00:46:32.000Z</time>
      </trkpt>
      <trkpt lat="45.97829" lon="4.56304">
        <ele>582.3</ele>
        <time>1970-01-01T00:46:33.000Z</time>
      </trkpt>
      <trkpt lat="45.97832" lon="4.56301">
        <ele>582.2</ele>
        <time>1970-01-01T00:46:34.000Z</time>
      </trkpt>
      <trkpt lat="45.97832" lon="4.56301">
        <ele>582.2</ele>
        <time>1970-01-01T00:46:35.000Z</time>
      </trkpt>
      <trkpt lat="45.97834" lon="4.56299">
        <ele>582.1</ele>
        <time>1970-01-01T00:46:36.000Z</time>
      </trkpt>
      <trkpt lat="45.97834" lon="4.56299">
        <ele>582.1</ele>
        <time>1970-01-01T00:46:37.000Z</time>
      </trkpt>
      <trkpt lat="45.97836" lon="4.56297">
        <ele>582</ele>
        <time>1970-01-01T00:46:38.000Z</time>
      </trkpt>
      <trkpt lat="45.97836" lon="4.56297">
        <ele>582</ele>
        <time>1970-01-01T00:46:39.000Z</time>
      </trkpt>
      <trkpt lat="45.97838" lon="4.56295">
        <ele>581.9</ele>
        <time>1970-01-01T00:46:40.000Z</time>
      </trkpt>
      <trkpt lat="45.97839" lon="4.56294">
        <ele>581.8</ele>
        <time>1970-01-01T00:46:41.000Z</time>
      </trkpt>
      <trkpt lat="45.9784" lon="4.56292">
        <ele>581.7</ele>
        <time>1970-01-01T00:46:42.000Z</time>
      </trkpt>
      <trkpt lat="45.97842" lon="4.56291">
        <ele>581.7</ele>
        <time>1970-01-01T00:46:43.000Z</time>
      </trkpt>
      <trkpt lat="45.97843" lon="4.5629">
        <ele>581.6</ele>
        <time>1970-01-01T00:46:44.000Z</time>
      </trkpt>
      <trkpt lat="45.97844" lon="4.56289">
        <ele>581.5</ele>
        <time>1970-01-01T00:46:45.000Z</time>
      </trkpt>
      <trkpt lat="45.97845" lon="4.56288">
        <ele>581.5</ele>
        <time>1970-01-01T00:46:46.000Z</time>
      </trkpt>
      <trkpt lat="45.97846" lon="4.56287">
        <ele>581.4</ele>
        <time>1970-01-01T00:46:47.000Z</time>
      </trkpt>
      <trkpt lat="45.97847" lon="4.56285">
        <ele>581.3</ele>
        <time>1970-01-01T00:46:48.000Z</time>
      </trkpt>
      <trkpt lat="45.97848" lon="4.56284">
        <ele>581.3</ele>
        <time>1970-01-01T00:46:49.000Z</time>
      </trkpt>
      <trkpt lat="45.97849" lon="4.56283">
        <ele>581.2</ele>
        <time>1970-01-01T00:46:50.000Z</time>
      </trkpt>
      <trkpt lat="45.97849" lon="4.56283">
        <ele>581.2</ele>
        <time>1970-01-01T00:46:51.000Z</time>
      </trkpt>
      <trkpt lat="45.97851" lon="4.5628">
        <ele>581</ele>
        <time>1970-01-01T00:46:52.000Z</time>
      </trkpt>
      <trkpt lat="45.97851" lon="4.5628">
        <ele>581</ele>
        <time>1970-01-01T00:46:53.000Z</time>
      </trkpt>
      <trkpt lat="45.97851" lon="4.5628">
        <ele>581</ele>
        <time>1970-01-01T00:46:54.000Z</time>
      </trkpt>
      <trkpt lat="45.97853" lon="4.56277">
        <ele>580.9</ele>
        <time>1970-01-01T00:46:55.000Z</time>
      </trkpt>
      <trkpt lat="45.97853" lon="4.56277">
        <ele>580.9</ele>
        <time>1970-01-01T00:46:56.000Z</time>
      </trkpt>
      <trkpt lat="45.97855" lon="4.56275">
        <ele>580.7</ele>
        <time>1970-01-01T00:46:57.000Z</time>
      </trkpt>
      <trkpt lat="45.97855" lon="4.56275">
        <ele>580.7</ele>
        <time>1970-01-01T00:46:58.000Z</time>
      </trkpt>
      <trkpt lat="45.97857" lon="4.56273">
        <ele>580.6</ele>
        <time>1970-01-01T00:46:59.000Z</time>
      </trkpt>
      <trkpt lat="45.97857" lon="4.56273">
        <ele>580.6</ele>
        <time>1970-01-01T00:47:00.000Z</time>
      </trkpt>
      <trkpt lat="45.97859" lon="4.5627">
        <ele>580.5</ele>
        <time>1970-01-01T00:47:01.000Z</time>
      </trkpt>
      <trkpt lat="45.97859" lon="4.5627">
        <ele>580.5</ele>
        <time>1970-01-01T00:47:02.000Z</time>
      </trkpt>
      <trkpt lat="45.97861" lon="4.56267">
        <ele>580.3</ele>
        <time>1970-01-01T00:47:03.000Z</time>
      </trkpt>
      <trkpt lat="45.97861" lon="4.56267">
        <ele>580.3</ele>
        <time>1970-01-01T00:47:04.000Z</time>
      </trkpt>
      <trkpt lat="45.97863" lon="4.56265">
        <ele>580.2</ele>
        <time>1970-01-01T00:47:05.000Z</time>
      </trkpt>
      <trkpt lat="45.97863" lon="4.56265">
        <ele>580.2</ele>
        <time>1970-01-01T00:47:06.000Z</time>
      </trkpt>
      <trkpt lat="45.97865" lon="4.56262">
        <ele>580.1</ele>
        <time>1970-01-01T00:47:07.000Z</time>
      </trkpt>
      <trkpt lat="45.97865" lon="4.56262">
        <ele>580.1</ele>
        <time>1970-01-01T00:47:08.000Z</time>
      </trkpt>
      <trkpt lat="45.97867" lon="4.5626">
        <ele>580</ele>
        <time>1970-01-01T00:47:09.000Z</time>
      </trkpt>
      <trkpt lat="45.97867" lon="4.5626">
        <ele>580</ele>
        <time>1970-01-01T00:47:10.000Z</time>
      </trkpt>
      <trkpt lat="45.97869" lon="4.56258">
        <ele>579.9</ele>
        <time>1970-01-01T00:47:11.000Z</time>
      </trkpt>
      <trkpt lat="45.97869" lon="4.56258">
        <ele>579.9</ele>
        <time>1970-01-01T00:47:12.000Z</time>
      </trkpt>
      <trkpt lat="45.97871" lon="4.56255">
        <ele>579.8</ele>
        <time>1970-01-01T00:47:13.000Z</time>
      </trkpt>
      <trkpt lat="45.97871" lon="4.56255">
        <ele>579.8</ele>
        <time>1970-01-01T00:47:14.000Z</time>
      </trkpt>
      <trkpt lat="45.97873" lon="4.56253">
        <ele>579.7</ele>
        <time>1970-01-01T00:47:15.000Z</time>
      </trkpt>
      <trkpt lat="45.97873" lon="4.56253">
        <ele>579.7</ele>
        <time>1970-01-01T00:47:16.000Z</time>
      </trkpt>
      <trkpt lat="45.97875" lon="4.56251">
        <ele>579.6</ele>
        <time>1970-01-01T00:47:17.000Z</time>
      </trkpt>
      <trkpt lat="45.97875" lon="4.56251">
        <ele>579.6</ele>
        <time>1970-01-01T00:47:18.000Z</time>
      </trkpt>
      <trkpt lat="45.97877" lon="4.56249">
        <ele>579.5</ele>
        <time>1970-01-01T00:47:19.000Z</time>
      </trkpt>
      <trkpt lat="45.97877" lon="4.56249">
        <ele>579.5</ele>
        <time>1970-01-01T00:47:20.000Z</time>
      </trkpt>
      <trkpt lat="45.97879" lon="4.56246">
        <ele>579.3</ele>
        <time>1970-01-01T00:47:21.000Z</time>
      </trkpt>
      <trkpt lat="45.97879" lon="4.56246">
        <ele>579.3</ele>
        <time>1970-01-01T00:47:22.000Z</time>
      </trkpt>
      <trkpt lat="45.97881" lon="4.56244">
        <ele>579.2</ele>
        <time>1970-01-01T00:47:23.000Z</time>
      </trkpt>
      <trkpt lat="45.97881" lon="4.56244">
        <ele>579.2</ele>
        <time>1970-01-01T00:47:24.000Z</time>
      </trkpt>
      <trkpt lat="45.97883" lon="4.56241">
        <ele>579.1</ele>
        <time>1970-01-01T00:47:25.000Z</time>
      </trkpt>
      <trkpt lat="45.97883" lon="4.56241">
        <ele>579.1</ele>
        <time>1970-01-01T00:47:26.000Z</time>
      </trkpt>
      <trkpt lat="45.97885" lon="4.56239">
        <ele>579</ele>
        <time>1970-01-01T00:47:27.000Z</time>
      </trkpt>
      <trkpt lat="45.97885" lon="4.56239">
        <ele>579</ele>
        <time>1970-01-01T00:47:28.000Z</time>
      </trkpt>
      <trkpt lat="45.97888" lon="4.56238">
        <ele>578.8</ele>
        <time>1970-01-01T00:47:29.000Z</time>
      </trkpt>
      <trkpt lat="45.97888" lon="4.56238">
        <ele>578.8</ele>
        <time>1970-01-01T00:47:30.000Z</time>
      </trkpt>
      <trkpt lat="45.9789" lon="4.56235">
        <ele>578.7</ele>
        <time>1970-01-01T00:47:31.000Z</time>
      </trkpt>
      <trkpt lat="45.9789" lon="4.56235">
        <ele>578.7</ele>
        <time>1970-01-01T00:47:32.000Z</time>
      </trkpt>
      <trkpt lat="45.97892" lon="4.56232">
        <ele>578.5</ele>
        <time>1970-01-01T00:47:33.000Z</time>
      </trkpt>
      <trkpt lat="45.97892" lon="4.56232">
        <ele>578.5</ele>
        <time>1970-01-01T00:47:34.000Z</time>
      </trkpt>
      <trkpt lat="45.97894" lon="4.5623">
        <ele>578.4</ele>
        <time>1970-01-01T00:47:35.000Z</time>
      </trkpt>
      <trkpt lat="45.97894" lon="4.5623">
        <ele>578.4</ele>
        <time>1970-01-01T00:47:36.000Z</time>
      </trkpt>
      <trkpt lat="45.97894" lon="4.5623">
        <ele>578.4</ele>
        <time>1970-01-01T00:47:37.000Z</time>
      </trkpt>
      <trkpt lat="45.97896" lon="4.56229">
        <ele>578.3</ele>
        <time>1970-01-01T00:47:38.000Z</time>
      </trkpt>
      <trkpt lat="45.97896" lon="4.56229">
        <ele>578.3</ele>
        <time>1970-01-01T00:47:39.000Z</time>
      </trkpt>
      <trkpt lat="45.97898" lon="4.56226">
        <ele>578.1</ele>
        <time>1970-01-01T00:47:40.000Z</time>
      </trkpt>
      <trkpt lat="45.97898" lon="4.56226">
        <ele>578.1</ele>
        <time>1970-01-01T00:47:41.000Z</time>
      </trkpt>
      <trkpt lat="45.979" lon="4.56224">
        <ele>578</ele>
        <time>1970-01-01T00:47:42.000Z</time>
      </trkpt>
      <trkpt lat="45.979" lon="4.56224">
        <ele>578</ele>
        <time>1970-01-01T00:47:43.000Z</time>
      </trkpt>
      <trkpt lat="45.97902" lon="4.56221">
        <ele>577.8</ele>
        <time>1970-01-01T00:47:44.000Z</time>
      </trkpt>
      <trkpt lat="45.97902" lon="4.56221">
        <ele>577.8</ele>
        <time>1970-01-01T00:47:45.000Z</time>
      </trkpt>
      <trkpt lat="45.97905" lon="4.56219">
        <ele>577.6</ele>
        <time>1970-01-01T00:47:46.000Z</time>
      </trkpt>
      <trkpt lat="45.97905" lon="4.56219">
        <ele>577.6</ele>
        <time>1970-01-01T00:47:47.000Z</time>
      </trkpt>
      <trkpt lat="45.97907" lon="4.56217">
        <ele>577.5</ele>
        <time>1970-01-01T00:47:48.000Z</time>
      </trkpt>
      <trkpt lat="45.97907" lon="4.56217">
        <ele>577.5</ele>
        <time>1970-01-01T00:47:49.000Z</time>
      </trkpt>
      <trkpt lat="45.97909" lon="4.56215">
        <ele>577.3</ele>
        <time>1970-01-01T00:47:50.000Z</time>
      </trkpt>
      <trkpt lat="45.97909" lon="4.56215">
        <ele>577.3</ele>
        <time>1970-01-01T00:47:51.000Z</time>
      </trkpt>
      <trkpt lat="45.97912" lon="4.56213">
        <ele>577.2</ele>
        <time>1970-01-01T00:47:52.000Z</time>
      </trkpt>
      <trkpt lat="45.97912" lon="4.56213">
        <ele>577.2</ele>
        <time>1970-01-01T00:47:53.000Z</time>
      </trkpt>
      <trkpt lat="45.97914" lon="4.56211">
        <ele>577</ele>
        <time>1970-01-01T00:47:54.000Z</time>
      </trkpt>
      <trkpt lat="45.97914" lon="4.56211">
        <ele>577</ele>
        <time>1970-01-01T00:47:55.000Z</time>
      </trkpt>
      <trkpt lat="45.97916" lon="4.56209">
        <ele>576.8</ele>
        <time>1970-01-01T00:47:56.000Z</time>
      </trkpt>
      <trkpt lat="45.97916" lon="4.56209">
        <ele>576.8</ele>
        <time>1970-01-01T00:47:57.000Z</time>
      </trkpt>
      <trkpt lat="45.97919" lon="4.56208">
        <ele>576.7</ele>
        <time>1970-01-01T00:47:58.000Z</time>
      </trkpt>
      <trkpt lat="45.97919" lon="4.56208">
        <ele>576.7</ele>
        <time>1970-01-01T00:47:59.000Z</time>
      </trkpt>
      <trkpt lat="45.97922" lon="4.56207">
        <ele>576.5</ele>
        <time>1970-01-01T00:48:00.000Z</time>
      </trkpt>
      <trkpt lat="45.97922" lon="4.56207">
        <ele>576.5</ele>
        <time>1970-01-01T00:48:01.000Z</time>
      </trkpt>
      <trkpt lat="45.97924" lon="4.56206">
        <ele>576.4</ele>
        <time>1970-01-01T00:48:02.000Z</time>
      </trkpt>
      <trkpt lat="45.97924" lon="4.56206">
        <ele>576.4</ele>
        <time>1970-01-01T00:48:03.000Z</time>
      </trkpt>
      <trkpt lat="45.97924" lon="4.56206">
        <ele>576.4</ele>
        <time>1970-01-01T00:48:04.000Z</time>
      </trkpt>
      <trkpt lat="45.97928" lon="4.56204">
        <ele>576.1</ele>
        <time>1970-01-01T00:48:05.000Z</time>
      </trkpt>
      <trkpt lat="45.97928" lon="4.56204">
        <ele>576.1</ele>
        <time>1970-01-01T00:48:06.000Z</time>
      </trkpt>
      <trkpt lat="45.9793" lon="4.56202">
        <ele>576</ele>
        <time>1970-01-01T00:48:07.000Z</time>
      </trkpt>
      <trkpt lat="45.9793" lon="4.56202">
        <ele>576</ele>
        <time>1970-01-01T00:48:08.000Z</time>
      </trkpt>
      <trkpt lat="45.97932" lon="4.562">
        <ele>575.9</ele>
        <time>1970-01-01T00:48:09.000Z</time>
      </trkpt>
      <trkpt lat="45.97932" lon="4.562">
        <ele>575.9</ele>
        <time>1970-01-01T00:48:10.000Z</time>
      </trkpt>
      <trkpt lat="45.97935" lon="4.56199">
        <ele>575.8</ele>
        <time>1970-01-01T00:48:11.000Z</time>
      </trkpt>
      <trkpt lat="45.97935" lon="4.56199">
        <ele>575.8</ele>
        <time>1970-01-01T00:48:12.000Z</time>
      </trkpt>
      <trkpt lat="45.97937" lon="4.56199">
        <ele>575.7</ele>
        <time>1970-01-01T00:48:13.000Z</time>
      </trkpt>
      <trkpt lat="45.97937" lon="4.56199">
        <ele>575.7</ele>
        <time>1970-01-01T00:48:14.000Z</time>
      </trkpt>
      <trkpt lat="45.9794" lon="4.56198">
        <ele>575.6</ele>
        <time>1970-01-01T00:48:15.000Z</time>
      </trkpt>
      <trkpt lat="45.9794" lon="4.56198">
        <ele>575.6</ele>
        <time>1970-01-01T00:48:16.000Z</time>
      </trkpt>
      <trkpt lat="45.97943" lon="4.56198">
        <ele>575.5</ele>
        <time>1970-01-01T00:48:17.000Z</time>
      </trkpt>
      <trkpt lat="45.97943" lon="4.56198">
        <ele>575.5</ele>
        <time>1970-01-01T00:48:18.000Z</time>
      </trkpt>
      <trkpt lat="45.97946" lon="4.56198">
        <ele>575.4</ele>
        <time>1970-01-01T00:48:19.000Z</time>
      </trkpt>
      <trkpt lat="45.97946" lon="4.56198">
        <ele>575.4</ele>
        <time>1970-01-01T00:48:20.000Z</time>
      </trkpt>
      <trkpt lat="45.97949" lon="4.56197">
        <ele>575.4</ele>
        <time>1970-01-01T00:48:21.000Z</time>
      </trkpt>
      <trkpt lat="45.97949" lon="4.56197">
        <ele>575.4</ele>
        <time>1970-01-01T00:48:22.000Z</time>
      </trkpt>
      <trkpt lat="45.97952" lon="4.56197">
        <ele>575.3</ele>
        <time>1970-01-01T00:48:23.000Z</time>
      </trkpt>
      <trkpt lat="45.97952" lon="4.56197">
        <ele>575.3</ele>
        <time>1970-01-01T00:48:24.000Z</time>
      </trkpt>
      <trkpt lat="45.97955" lon="4.56198">
        <ele>575.3</ele>
        <time>1970-01-01T00:48:25.000Z</time>
      </trkpt>
      <trkpt lat="45.97955" lon="4.56198">
        <ele>575.3</ele>
        <time>1970-01-01T00:48:26.000Z</time>
      </trkpt>
      <trkpt lat="45.97957" lon="4.56198">
        <ele>575.3</ele>
        <time>1970-01-01T00:48:27.000Z</time>
      </trkpt>
      <trkpt lat="45.97958" lon="4.56198">
        <ele>575.3</ele>
        <time>1970-01-01T00:48:28.000Z</time>
      </trkpt>
      <trkpt lat="45.97958" lon="4.56198">
        <ele>575.3</ele>
        <time>1970-01-01T00:48:29.000Z</time>
      </trkpt>
      <trkpt lat="45.97959" lon="4.56198">
        <ele>575.2</ele>
        <time>1970-01-01T00:48:30.000Z</time>
      </trkpt>
      <trkpt lat="45.97959" lon="4.56197">
        <ele>575.2</ele>
        <time>1970-01-01T00:48:31.000Z</time>
      </trkpt>
      <trkpt lat="45.9796" lon="4.56197">
        <ele>575.2</ele>
        <time>1970-01-01T00:48:32.000Z</time>
      </trkpt>
      <trkpt lat="45.97961" lon="4.56197">
        <ele>575.2</ele>
        <time>1970-01-01T00:48:33.000Z</time>
      </trkpt>
      <trkpt lat="45.97961" lon="4.56197">
        <ele>575.2</ele>
        <time>1970-01-01T00:48:34.000Z</time>
      </trkpt>
      <trkpt lat="45.97962" lon="4.56197">
        <ele>575.2</ele>
        <time>1970-01-01T00:48:35.000Z</time>
      </trkpt>
      <trkpt lat="45.97962" lon="4.56197">
        <ele>575.2</ele>
        <time>1970-01-01T00:48:36.000Z</time>
      </trkpt>
      <trkpt lat="45.97969" lon="4.56195">
        <ele>575.3</ele>
        <time>1970-01-01T00:48:37.000Z</time>
      </trkpt>
      <trkpt lat="45.9797" lon="4.56194">
        <ele>575.3</ele>
        <time>1970-01-01T00:48:38.000Z</time>
      </trkpt>
      <trkpt lat="45.97971" lon="4.56194">
        <ele>575.3</ele>
        <time>1970-01-01T00:48:39.000Z</time>
      </trkpt>
      <trkpt lat="45.97972" lon="4.56193">
        <ele>575.3</ele>
        <time>1970-01-01T00:48:40.000Z</time>
      </trkpt>
      <trkpt lat="45.97973" lon="4.56192">
        <ele>575.3</ele>
        <time>1970-01-01T00:48:41.000Z</time>
      </trkpt>
      <trkpt lat="45.97974" lon="4.56191">
        <ele>575.4</ele>
        <time>1970-01-01T00:48:42.000Z</time>
      </trkpt>
      <trkpt lat="45.97975" lon="4.56191">
        <ele>575.4</ele>
        <time>1970-01-01T00:48:43.000Z</time>
      </trkpt>
      <trkpt lat="45.97976" lon="4.5619">
        <ele>575.4</ele>
        <time>1970-01-01T00:48:44.000Z</time>
      </trkpt>
      <trkpt lat="45.97976" lon="4.5619">
        <ele>575.4</ele>
        <time>1970-01-01T00:48:45.000Z</time>
      </trkpt>
      <trkpt lat="45.97978" lon="4.56187">
        <ele>575.5</ele>
        <time>1970-01-01T00:48:46.000Z</time>
      </trkpt>
      <trkpt lat="45.97978" lon="4.56187">
        <ele>575.5</ele>
        <time>1970-01-01T00:48:47.000Z</time>
      </trkpt>
      <trkpt lat="45.9798" lon="4.56186">
        <ele>575.6</ele>
        <time>1970-01-01T00:48:48.000Z</time>
      </trkpt>
      <trkpt lat="45.9798" lon="4.56186">
        <ele>575.6</ele>
        <time>1970-01-01T00:48:49.000Z</time>
      </trkpt>
      <trkpt lat="45.97983" lon="4.56182">
        <ele>575.8</ele>
        <time>1970-01-01T00:48:50.000Z</time>
      </trkpt>
      <trkpt lat="45.97983" lon="4.56182">
        <ele>575.8</ele>
        <time>1970-01-01T00:48:51.000Z</time>
      </trkpt>
      <trkpt lat="45.97985" lon="4.5618">
        <ele>576</ele>
        <time>1970-01-01T00:48:52.000Z</time>
      </trkpt>
      <trkpt lat="45.97985" lon="4.5618">
        <ele>576</ele>
        <time>1970-01-01T00:48:53.000Z</time>
      </trkpt>
      <trkpt lat="45.97988" lon="4.56178">
        <ele>576.1</ele>
        <time>1970-01-01T00:48:54.000Z</time>
      </trkpt>
      <trkpt lat="45.97988" lon="4.56178">
        <ele>576.1</ele>
        <time>1970-01-01T00:48:55.000Z</time>
      </trkpt>
      <trkpt lat="45.9799" lon="4.56177">
        <ele>576.3</ele>
        <time>1970-01-01T00:48:56.000Z</time>
      </trkpt>
      <trkpt lat="45.9799" lon="4.56177">
        <ele>576.3</ele>
        <time>1970-01-01T00:48:57.000Z</time>
      </trkpt>
      <trkpt lat="45.97993" lon="4.56176">
        <ele>576.6</ele>
        <time>1970-01-01T00:48:58.000Z</time>
      </trkpt>
      <trkpt lat="45.97993" lon="4.56176">
        <ele>576.6</ele>
        <time>1970-01-01T00:48:59.000Z</time>
      </trkpt>
      <trkpt lat="45.97995" lon="4.56172">
        <ele>576.9</ele>
        <time>1970-01-01T00:49:00.000Z</time>
      </trkpt>
      <trkpt lat="45.97995" lon="4.56172">
        <ele>576.9</ele>
        <time>1970-01-01T00:49:01.000Z</time>
      </trkpt>
      <trkpt lat="45.97996" lon="4.56168">
        <ele>577.1</ele>
        <time>1970-01-01T00:49:02.000Z</time>
      </trkpt>
      <trkpt lat="45.97996" lon="4.56168">
        <ele>577.1</ele>
        <time>1970-01-01T00:49:03.000Z</time>
      </trkpt>
      <trkpt lat="45.97998" lon="4.56166">
        <ele>577.4</ele>
        <time>1970-01-01T00:49:04.000Z</time>
      </trkpt>
      <trkpt lat="45.97998" lon="4.56166">
        <ele>577.4</ele>
        <time>1970-01-01T00:49:05.000Z</time>
      </trkpt>
      <trkpt lat="45.98" lon="4.56165">
        <ele>577.6</ele>
        <time>1970-01-01T00:49:06.000Z</time>
      </trkpt>
      <trkpt lat="45.98" lon="4.56165">
        <ele>577.6</ele>
        <time>1970-01-01T00:49:07.000Z</time>
      </trkpt>
      <trkpt lat="45.98002" lon="4.56163">
        <ele>577.9</ele>
        <time>1970-01-01T00:49:08.000Z</time>
      </trkpt>
      <trkpt lat="45.98002" lon="4.56163">
        <ele>577.9</ele>
        <time>1970-01-01T00:49:09.000Z</time>
      </trkpt>
      <trkpt lat="45.98004" lon="4.56161">
        <ele>578.2</ele>
        <time>1970-01-01T00:49:10.000Z</time>
      </trkpt>
      <trkpt lat="45.98004" lon="4.56161">
        <ele>578.2</ele>
        <time>1970-01-01T00:49:11.000Z</time>
      </trkpt>
      <trkpt lat="45.98006" lon="4.56159">
        <ele>578.5</ele>
        <time>1970-01-01T00:49:12.000Z</time>
      </trkpt>
      <trkpt lat="45.98006" lon="4.56159">
        <ele>578.5</ele>
        <time>1970-01-01T00:49:13.000Z</time>
      </trkpt>
      <trkpt lat="45.98008" lon="4.56156">
        <ele>578.8</ele>
        <time>1970-01-01T00:49:14.000Z</time>
      </trkpt>
      <trkpt lat="45.98008" lon="4.56156">
        <ele>578.8</ele>
        <time>1970-01-01T00:49:15.000Z</time>
      </trkpt>
      <trkpt lat="45.9801" lon="4.56155">
        <ele>579</ele>
        <time>1970-01-01T00:49:16.000Z</time>
      </trkpt>
      <trkpt lat="45.9801" lon="4.56155">
        <ele>579</ele>
        <time>1970-01-01T00:49:17.000Z</time>
      </trkpt>
      <trkpt lat="45.98012" lon="4.56153">
        <ele>579.3</ele>
        <time>1970-01-01T00:49:18.000Z</time>
      </trkpt>
      <trkpt lat="45.98012" lon="4.56153">
        <ele>579.3</ele>
        <time>1970-01-01T00:49:19.000Z</time>
      </trkpt>
      <trkpt lat="45.98014" lon="4.5615">
        <ele>579.6</ele>
        <time>1970-01-01T00:49:20.000Z</time>
      </trkpt>
      <trkpt lat="45.98014" lon="4.5615">
        <ele>579.6</ele>
        <time>1970-01-01T00:49:21.000Z</time>
      </trkpt>
      <trkpt lat="45.98016" lon="4.56148">
        <ele>580</ele>
        <time>1970-01-01T00:49:22.000Z</time>
      </trkpt>
      <trkpt lat="45.98016" lon="4.56148">
        <ele>580</ele>
        <time>1970-01-01T00:49:23.000Z</time>
      </trkpt>
      <trkpt lat="45.98017" lon="4.56146">
        <ele>580.3</ele>
        <time>1970-01-01T00:49:24.000Z</time>
      </trkpt>
      <trkpt lat="45.98017" lon="4.56146">
        <ele>580.3</ele>
        <time>1970-01-01T00:49:25.000Z</time>
      </trkpt>
      <trkpt lat="45.98019" lon="4.56143">
        <ele>580.6</ele>
        <time>1970-01-01T00:49:26.000Z</time>
      </trkpt>
      <trkpt lat="45.98019" lon="4.56143">
        <ele>580.6</ele>
        <time>1970-01-01T00:49:27.000Z</time>
      </trkpt>
      <trkpt lat="45.98021" lon="4.5614">
        <ele>580.9</ele>
        <time>1970-01-01T00:49:28.000Z</time>
      </trkpt>
      <trkpt lat="45.98021" lon="4.5614">
        <ele>580.9</ele>
        <time>1970-01-01T00:49:29.000Z</time>
      </trkpt>
      <trkpt lat="45.98022" lon="4.56137">
        <ele>581.3</ele>
        <time>1970-01-01T00:49:30.000Z</time>
      </trkpt>
      <trkpt lat="45.98022" lon="4.56137">
        <ele>581.3</ele>
        <time>1970-01-01T00:49:31.000Z</time>
      </trkpt>
      <trkpt lat="45.98023" lon="4.56134">
        <ele>581.7</ele>
        <time>1970-01-01T00:49:32.000Z</time>
      </trkpt>
      <trkpt lat="45.98023" lon="4.56134">
        <ele>581.7</ele>
        <time>1970-01-01T00:49:33.000Z</time>
      </trkpt>
      <trkpt lat="45.98025" lon="4.56131">
        <ele>582</ele>
        <time>1970-01-01T00:49:34.000Z</time>
      </trkpt>
      <trkpt lat="45.98025" lon="4.56131">
        <ele>582</ele>
        <time>1970-01-01T00:49:35.000Z</time>
      </trkpt>
      <trkpt lat="45.98027" lon="4.56129">
        <ele>582.4</ele>
        <time>1970-01-01T00:49:36.000Z</time>
      </trkpt>
      <trkpt lat="45.98027" lon="4.56129">
        <ele>582.4</ele>
        <time>1970-01-01T00:49:37.000Z</time>
      </trkpt>
      <trkpt lat="45.98029" lon="4.56126">
        <ele>582.8</ele>
        <time>1970-01-01T00:49:38.000Z</time>
      </trkpt>
      <trkpt lat="45.98029" lon="4.56126">
        <ele>582.8</ele>
        <time>1970-01-01T00:49:39.000Z</time>
      </trkpt>
      <trkpt lat="45.9803" lon="4.56123">
        <ele>583.2</ele>
        <time>1970-01-01T00:49:40.000Z</time>
      </trkpt>
      <trkpt lat="45.9803" lon="4.56123">
        <ele>583.2</ele>
        <time>1970-01-01T00:49:41.000Z</time>
      </trkpt>
      <trkpt lat="45.98032" lon="4.56119">
        <ele>583.6</ele>
        <time>1970-01-01T00:49:42.000Z</time>
      </trkpt>
      <trkpt lat="45.98032" lon="4.56119">
        <ele>583.6</ele>
        <time>1970-01-01T00:49:43.000Z</time>
      </trkpt>
      <trkpt lat="45.98033" lon="4.56116">
        <ele>583.9</ele>
        <time>1970-01-01T00:49:44.000Z</time>
      </trkpt>
      <trkpt lat="45.98033" lon="4.56116">
        <ele>583.9</ele>
        <time>1970-01-01T00:49:45.000Z</time>
      </trkpt>
      <trkpt lat="45.98034" lon="4.56113">
        <ele>584.3</ele>
        <time>1970-01-01T00:49:46.000Z</time>
      </trkpt>
      <trkpt lat="45.98034" lon="4.56113">
        <ele>584.3</ele>
        <time>1970-01-01T00:49:47.000Z</time>
      </trkpt>
      <trkpt lat="45.98035" lon="4.56109">
        <ele>584.6</ele>
        <time>1970-01-01T00:49:48.000Z</time>
      </trkpt>
      <trkpt lat="45.98035" lon="4.56109">
        <ele>584.6</ele>
        <time>1970-01-01T00:49:49.000Z</time>
      </trkpt>
      <trkpt lat="45.98035" lon="4.56106">
        <ele>585</ele>
        <time>1970-01-01T00:49:50.000Z</time>
      </trkpt>
      <trkpt lat="45.98035" lon="4.56106">
        <ele>585</ele>
        <time>1970-01-01T00:49:51.000Z</time>
      </trkpt>
      <trkpt lat="45.98036" lon="4.56102">
        <ele>585.3</ele>
        <time>1970-01-01T00:49:52.000Z</time>
      </trkpt>
      <trkpt lat="45.98036" lon="4.56102">
        <ele>585.3</ele>
        <time>1970-01-01T00:49:53.000Z</time>
      </trkpt>
      <trkpt lat="45.98036" lon="4.56099">
        <ele>585.6</ele>
        <time>1970-01-01T00:49:54.000Z</time>
      </trkpt>
      <trkpt lat="45.98036" lon="4.56099">
        <ele>585.6</ele>
        <time>1970-01-01T00:49:55.000Z</time>
      </trkpt>
      <trkpt lat="45.98035" lon="4.56096">
        <ele>585.9</ele>
        <time>1970-01-01T00:49:56.000Z</time>
      </trkpt>
      <trkpt lat="45.98035" lon="4.56096">
        <ele>585.9</ele>
        <time>1970-01-01T00:49:57.000Z</time>
      </trkpt>
      <trkpt lat="45.98035" lon="4.56092">
        <ele>586.2</ele>
        <time>1970-01-01T00:49:58.000Z</time>
      </trkpt>
      <trkpt lat="45.98035" lon="4.56092">
        <ele>586.2</ele>
        <time>1970-01-01T00:49:59.000Z</time>
      </trkpt>
      <trkpt lat="45.98034" lon="4.56089">
        <ele>586.4</ele>
        <time>1970-01-01T00:50:00.000Z</time>
      </trkpt>
      <trkpt lat="45.98034" lon="4.56089">
        <ele>586.4</ele>
        <time>1970-01-01T00:50:01.000Z</time>
      </trkpt>
      <trkpt lat="45.98034" lon="4.56086">
        <ele>586.6</ele>
        <time>1970-01-01T00:50:02.000Z</time>
      </trkpt>
      <trkpt lat="45.98034" lon="4.56086">
        <ele>586.6</ele>
        <time>1970-01-01T00:50:03.000Z</time>
      </trkpt>
      <trkpt lat="45.98033" lon="4.56083">
        <ele>586.8</ele>
        <time>1970-01-01T00:50:04.000Z</time>
      </trkpt>
      <trkpt lat="45.98033" lon="4.56083">
        <ele>586.8</ele>
        <time>1970-01-01T00:50:05.000Z</time>
      </trkpt>
      <trkpt lat="45.98033" lon="4.56079">
        <ele>587</ele>
        <time>1970-01-01T00:50:06.000Z</time>
      </trkpt>
      <trkpt lat="45.98033" lon="4.56079">
        <ele>587</ele>
        <time>1970-01-01T00:50:07.000Z</time>
      </trkpt>
      <trkpt lat="45.98033" lon="4.56076">
        <ele>587.2</ele>
        <time>1970-01-01T00:50:08.000Z</time>
      </trkpt>
      <trkpt lat="45.98033" lon="4.56076">
        <ele>587.2</ele>
        <time>1970-01-01T00:50:09.000Z</time>
      </trkpt>
      <trkpt lat="45.98034" lon="4.56072">
        <ele>587.4</ele>
        <time>1970-01-01T00:50:10.000Z</time>
      </trkpt>
      <trkpt lat="45.98034" lon="4.56072">
        <ele>587.4</ele>
        <time>1970-01-01T00:50:11.000Z</time>
      </trkpt>
      <trkpt lat="45.98034" lon="4.56069">
        <ele>587.5</ele>
        <time>1970-01-01T00:50:12.000Z</time>
      </trkpt>
      <trkpt lat="45.98034" lon="4.56069">
        <ele>587.5</ele>
        <time>1970-01-01T00:50:13.000Z</time>
      </trkpt>
      <trkpt lat="45.98035" lon="4.56066">
        <ele>587.6</ele>
        <time>1970-01-01T00:50:14.000Z</time>
      </trkpt>
      <trkpt lat="45.98035" lon="4.56066">
        <ele>587.6</ele>
        <time>1970-01-01T00:50:15.000Z</time>
      </trkpt>
      <trkpt lat="45.98036" lon="4.56062">
        <ele>587.7</ele>
        <time>1970-01-01T00:50:16.000Z</time>
      </trkpt>
      <trkpt lat="45.98036" lon="4.56062">
        <ele>587.7</ele>
        <time>1970-01-01T00:50:17.000Z</time>
      </trkpt>
      <trkpt lat="45.98036" lon="4.56059">
        <ele>587.8</ele>
        <time>1970-01-01T00:50:18.000Z</time>
      </trkpt>
      <trkpt lat="45.98036" lon="4.56059">
        <ele>587.8</ele>
        <time>1970-01-01T00:50:19.000Z</time>
      </trkpt>
      <trkpt lat="45.98036" lon="4.56056">
        <ele>587.9</ele>
        <time>1970-01-01T00:50:20.000Z</time>
      </trkpt>
      <trkpt lat="45.98036" lon="4.56056">
        <ele>587.9</ele>
        <time>1970-01-01T00:50:21.000Z</time>
      </trkpt>
      <trkpt lat="45.98037" lon="4.56052">
        <ele>588</ele>
        <time>1970-01-01T00:50:22.000Z</time>
      </trkpt>
      <trkpt lat="45.98037" lon="4.56052">
        <ele>588</ele>
        <time>1970-01-01T00:50:23.000Z</time>
      </trkpt>
      <trkpt lat="45.98038" lon="4.56049">
        <ele>588.1</ele>
        <time>1970-01-01T00:50:24.000Z</time>
      </trkpt>
      <trkpt lat="45.98038" lon="4.56049">
        <ele>588.1</ele>
        <time>1970-01-01T00:50:25.000Z</time>
      </trkpt>
      <trkpt lat="45.98039" lon="4.56046">
        <ele>588.1</ele>
        <time>1970-01-01T00:50:26.000Z</time>
      </trkpt>
      <trkpt lat="45.98039" lon="4.56046">
        <ele>588.1</ele>
        <time>1970-01-01T00:50:27.000Z</time>
      </trkpt>
      <trkpt lat="45.9804" lon="4.56043">
        <ele>588.2</ele>
        <time>1970-01-01T00:50:28.000Z</time>
      </trkpt>
      <trkpt lat="45.9804" lon="4.56043">
        <ele>588.2</ele>
        <time>1970-01-01T00:50:29.000Z</time>
      </trkpt>
      <trkpt lat="45.98041" lon="4.5604">
        <ele>588.2</ele>
        <time>1970-01-01T00:50:30.000Z</time>
      </trkpt>
      <trkpt lat="45.98041" lon="4.5604">
        <ele>588.2</ele>
        <time>1970-01-01T00:50:31.000Z</time>
      </trkpt>
      <trkpt lat="45.98042" lon="4.56037">
        <ele>588.3</ele>
        <time>1970-01-01T00:50:32.000Z</time>
      </trkpt>
      <trkpt lat="45.98042" lon="4.56037">
        <ele>588.3</ele>
        <time>1970-01-01T00:50:33.000Z</time>
      </trkpt>
      <trkpt lat="45.98044" lon="4.56034">
        <ele>588.4</ele>
        <time>1970-01-01T00:50:34.000Z</time>
      </trkpt>
      <trkpt lat="45.98044" lon="4.56034">
        <ele>588.4</ele>
        <time>1970-01-01T00:50:35.000Z</time>
      </trkpt>
      <trkpt lat="45.98045" lon="4.56032">
        <ele>588.4</ele>
        <time>1970-01-01T00:50:36.000Z</time>
      </trkpt>
      <trkpt lat="45.98045" lon="4.56032">
        <ele>588.4</ele>
        <time>1970-01-01T00:50:37.000Z</time>
      </trkpt>
      <trkpt lat="45.98047" lon="4.56028">
        <ele>588.5</ele>
        <time>1970-01-01T00:50:38.000Z</time>
      </trkpt>
      <trkpt lat="45.98047" lon="4.56028">
        <ele>588.5</ele>
        <time>1970-01-01T00:50:39.000Z</time>
      </trkpt>
      <trkpt lat="45.98048" lon="4.56024">
        <ele>588.6</ele>
        <time>1970-01-01T00:50:40.000Z</time>
      </trkpt>
      <trkpt lat="45.98048" lon="4.56024">
        <ele>588.6</ele>
        <time>1970-01-01T00:50:41.000Z</time>
      </trkpt>
      <trkpt lat="45.9805" lon="4.56021">
        <ele>588.7</ele>
        <time>1970-01-01T00:50:42.000Z</time>
      </trkpt>
      <trkpt lat="45.9805" lon="4.56021">
        <ele>588.7</ele>
        <time>1970-01-01T00:50:43.000Z</time>
      </trkpt>
      <trkpt lat="45.98051" lon="4.56017">
        <ele>588.9</ele>
        <time>1970-01-01T00:50:44.000Z</time>
      </trkpt>
      <trkpt lat="45.98051" lon="4.56017">
        <ele>588.9</ele>
        <time>1970-01-01T00:50:45.000Z</time>
      </trkpt>
      <trkpt lat="45.98053" lon="4.56014">
        <ele>589</ele>
        <time>1970-01-01T00:50:46.000Z</time>
      </trkpt>
      <trkpt lat="45.98053" lon="4.56014">
        <ele>589</ele>
        <time>1970-01-01T00:50:47.000Z</time>
      </trkpt>
      <trkpt lat="45.98054" lon="4.56011">
        <ele>589.1</ele>
        <time>1970-01-01T00:50:48.000Z</time>
      </trkpt>
      <trkpt lat="45.98054" lon="4.56011">
        <ele>589.1</ele>
        <time>1970-01-01T00:50:49.000Z</time>
      </trkpt>
      <trkpt lat="45.98056" lon="4.56008">
        <ele>589.2</ele>
        <time>1970-01-01T00:50:50.000Z</time>
      </trkpt>
      <trkpt lat="45.98056" lon="4.56008">
        <ele>589.2</ele>
        <time>1970-01-01T00:50:51.000Z</time>
      </trkpt>
      <trkpt lat="45.98058" lon="4.56005">
        <ele>589.3</ele>
        <time>1970-01-01T00:50:52.000Z</time>
      </trkpt>
      <trkpt lat="45.98058" lon="4.56005">
        <ele>589.3</ele>
        <time>1970-01-01T00:50:53.000Z</time>
      </trkpt>
      <trkpt lat="45.9806" lon="4.56002">
        <ele>589.5</ele>
        <time>1970-01-01T00:50:54.000Z</time>
      </trkpt>
      <trkpt lat="45.9806" lon="4.56002">
        <ele>589.5</ele>
        <time>1970-01-01T00:50:55.000Z</time>
      </trkpt>
      <trkpt lat="45.98062" lon="4.55999">
        <ele>589.6</ele>
        <time>1970-01-01T00:50:56.000Z</time>
      </trkpt>
      <trkpt lat="45.98062" lon="4.55999">
        <ele>589.6</ele>
        <time>1970-01-01T00:50:57.000Z</time>
      </trkpt>
      <trkpt lat="45.98064" lon="4.55996">
        <ele>589.8</ele>
        <time>1970-01-01T00:50:58.000Z</time>
      </trkpt>
      <trkpt lat="45.98064" lon="4.55996">
        <ele>589.8</ele>
        <time>1970-01-01T00:50:59.000Z</time>
      </trkpt>
      <trkpt lat="45.98066" lon="4.55994">
        <ele>589.9</ele>
        <time>1970-01-01T00:51:00.000Z</time>
      </trkpt>
      <trkpt lat="45.98066" lon="4.55994">
        <ele>589.9</ele>
        <time>1970-01-01T00:51:01.000Z</time>
      </trkpt>
      <trkpt lat="45.98068" lon="4.55991">
        <ele>590.1</ele>
        <time>1970-01-01T00:51:02.000Z</time>
      </trkpt>
      <trkpt lat="45.98068" lon="4.55991">
        <ele>590.1</ele>
        <time>1970-01-01T00:51:03.000Z</time>
      </trkpt>
      <trkpt lat="45.9807" lon="4.55988">
        <ele>590.2</ele>
        <time>1970-01-01T00:51:04.000Z</time>
      </trkpt>
      <trkpt lat="45.9807" lon="4.55988">
        <ele>590.2</ele>
        <time>1970-01-01T00:51:05.000Z</time>
      </trkpt>
      <trkpt lat="45.98072" lon="4.55986">
        <ele>590.4</ele>
        <time>1970-01-01T00:51:06.000Z</time>
      </trkpt>
      <trkpt lat="45.98072" lon="4.55986">
        <ele>590.4</ele>
        <time>1970-01-01T00:51:07.000Z</time>
      </trkpt>
      <trkpt lat="45.98074" lon="4.55983">
        <ele>590.5</ele>
        <time>1970-01-01T00:51:08.000Z</time>
      </trkpt>
      <trkpt lat="45.98074" lon="4.55983">
        <ele>590.5</ele>
        <time>1970-01-01T00:51:09.000Z</time>
      </trkpt>
      <trkpt lat="45.98076" lon="4.55981">
        <ele>590.6</ele>
        <time>1970-01-01T00:51:10.000Z</time>
      </trkpt>
      <trkpt lat="45.98076" lon="4.55981">
        <ele>590.6</ele>
        <time>1970-01-01T00:51:11.000Z</time>
      </trkpt>
      <trkpt lat="45.98078" lon="4.55979">
        <ele>590.8</ele>
        <time>1970-01-01T00:51:12.000Z</time>
      </trkpt>
      <trkpt lat="45.98078" lon="4.55979">
        <ele>590.8</ele>
        <time>1970-01-01T00:51:13.000Z</time>
      </trkpt>
      <trkpt lat="45.9808" lon="4.55977">
        <ele>590.9</ele>
        <time>1970-01-01T00:51:14.000Z</time>
      </trkpt>
      <trkpt lat="45.9808" lon="4.55977">
        <ele>590.9</ele>
        <time>1970-01-01T00:51:15.000Z</time>
      </trkpt>
      <trkpt lat="45.98083" lon="4.55975">
        <ele>591</ele>
        <time>1970-01-01T00:51:16.000Z</time>
      </trkpt>
      <trkpt lat="45.98083" lon="4.55975">
        <ele>591</ele>
        <time>1970-01-01T00:51:17.000Z</time>
      </trkpt>
      <trkpt lat="45.98085" lon="4.55973">
        <ele>591.2</ele>
        <time>1970-01-01T00:51:18.000Z</time>
      </trkpt>
      <trkpt lat="45.98085" lon="4.55973">
        <ele>591.2</ele>
        <time>1970-01-01T00:51:19.000Z</time>
      </trkpt>
      <trkpt lat="45.98086" lon="4.5597">
        <ele>591.3</ele>
        <time>1970-01-01T00:51:20.000Z</time>
      </trkpt>
      <trkpt lat="45.98086" lon="4.5597">
        <ele>591.3</ele>
        <time>1970-01-01T00:51:21.000Z</time>
      </trkpt>
      <trkpt lat="45.98089" lon="4.55968">
        <ele>591.4</ele>
        <time>1970-01-01T00:51:22.000Z</time>
      </trkpt>
      <trkpt lat="45.98089" lon="4.55968">
        <ele>591.4</ele>
        <time>1970-01-01T00:51:23.000Z</time>
      </trkpt>
      <trkpt lat="45.98091" lon="4.55966">
        <ele>591.5</ele>
        <time>1970-01-01T00:51:24.000Z</time>
      </trkpt>
      <trkpt lat="45.98091" lon="4.55966">
        <ele>591.5</ele>
        <time>1970-01-01T00:51:25.000Z</time>
      </trkpt>
      <trkpt lat="45.98093" lon="4.55964">
        <ele>591.7</ele>
        <time>1970-01-01T00:51:26.000Z</time>
      </trkpt>
      <trkpt lat="45.98093" lon="4.55964">
        <ele>591.7</ele>
        <time>1970-01-01T00:51:27.000Z</time>
      </trkpt>
      <trkpt lat="45.98096" lon="4.55963">
        <ele>591.8</ele>
        <time>1970-01-01T00:51:28.000Z</time>
      </trkpt>
      <trkpt lat="45.98096" lon="4.55963">
        <ele>591.8</ele>
        <time>1970-01-01T00:51:29.000Z</time>
      </trkpt>
      <trkpt lat="45.98098" lon="4.55962">
        <ele>591.9</ele>
        <time>1970-01-01T00:51:30.000Z</time>
      </trkpt>
      <trkpt lat="45.98098" lon="4.55962">
        <ele>591.9</ele>
        <time>1970-01-01T00:51:31.000Z</time>
      </trkpt>
      <trkpt lat="45.981" lon="4.5596">
        <ele>592</ele>
        <time>1970-01-01T00:51:32.000Z</time>
      </trkpt>
      <trkpt lat="45.981" lon="4.5596">
        <ele>592</ele>
        <time>1970-01-01T00:51:33.000Z</time>
      </trkpt>
      <trkpt lat="45.98103" lon="4.55959">
        <ele>592.1</ele>
        <time>1970-01-01T00:51:34.000Z</time>
      </trkpt>
      <trkpt lat="45.98103" lon="4.55959">
        <ele>592.1</ele>
        <time>1970-01-01T00:51:35.000Z</time>
      </trkpt>
      <trkpt lat="45.98105" lon="4.55957">
        <ele>592.1</ele>
        <time>1970-01-01T00:51:36.000Z</time>
      </trkpt>
      <trkpt lat="45.98105" lon="4.55957">
        <ele>592.1</ele>
        <time>1970-01-01T00:51:37.000Z</time>
      </trkpt>
      <trkpt lat="45.98107" lon="4.55956">
        <ele>592.2</ele>
        <time>1970-01-01T00:51:38.000Z</time>
      </trkpt>
      <trkpt lat="45.98107" lon="4.55956">
        <ele>592.2</ele>
        <time>1970-01-01T00:51:39.000Z</time>
      </trkpt>
      <trkpt lat="45.98109" lon="4.55954">
        <ele>592.3</ele>
        <time>1970-01-01T00:51:40.000Z</time>
      </trkpt>
      <trkpt lat="45.98109" lon="4.55954">
        <ele>592.3</ele>
        <time>1970-01-01T00:51:41.000Z</time>
      </trkpt>
      <trkpt lat="45.9811" lon="4.55953">
        <ele>592.3</ele>
        <time>1970-01-01T00:51:42.000Z</time>
      </trkpt>
      <trkpt lat="45.9811" lon="4.55953">
        <ele>592.3</ele>
        <time>1970-01-01T00:51:43.000Z</time>
      </trkpt>
      <trkpt lat="45.98112" lon="4.55951">
        <ele>592.3</ele>
        <time>1970-01-01T00:51:44.000Z</time>
      </trkpt>
      <trkpt lat="45.98112" lon="4.55951">
        <ele>592.3</ele>
        <time>1970-01-01T00:51:45.000Z</time>
      </trkpt>
      <trkpt lat="45.98114" lon="4.5595">
        <ele>592.3</ele>
        <time>1970-01-01T00:51:46.000Z</time>
      </trkpt>
      <trkpt lat="45.98114" lon="4.5595">
        <ele>592.3</ele>
        <time>1970-01-01T00:51:47.000Z</time>
      </trkpt>
      <trkpt lat="45.98117" lon="4.55948">
        <ele>592.3</ele>
        <time>1970-01-01T00:51:48.000Z</time>
      </trkpt>
      <trkpt lat="45.98117" lon="4.55948">
        <ele>592.3</ele>
        <time>1970-01-01T00:51:49.000Z</time>
      </trkpt>
      <trkpt lat="45.98119" lon="4.55947">
        <ele>592.3</ele>
        <time>1970-01-01T00:51:50.000Z</time>
      </trkpt>
      <trkpt lat="45.98119" lon="4.55947">
        <ele>592.3</ele>
        <time>1970-01-01T00:51:51.000Z</time>
      </trkpt>
      <trkpt lat="45.98121" lon="4.55946">
        <ele>592.3</ele>
        <time>1970-01-01T00:51:52.000Z</time>
      </trkpt>
      <trkpt lat="45.98121" lon="4.55946">
        <ele>592.3</ele>
        <time>1970-01-01T00:51:53.000Z</time>
      </trkpt>
      <trkpt lat="45.98123" lon="4.55944">
        <ele>592.3</ele>
        <time>1970-01-01T00:51:54.000Z</time>
      </trkpt>
      <trkpt lat="45.98123" lon="4.55944">
        <ele>592.3</ele>
        <time>1970-01-01T00:51:55.000Z</time>
      </trkpt>
      <trkpt lat="45.98125" lon="4.55943">
        <ele>592.3</ele>
        <time>1970-01-01T00:51:56.000Z</time>
      </trkpt>
      <trkpt lat="45.98125" lon="4.55943">
        <ele>592.3</ele>
        <time>1970-01-01T00:51:57.000Z</time>
      </trkpt>
      <trkpt lat="45.98128" lon="4.55942">
        <ele>592.2</ele>
        <time>1970-01-01T00:51:58.000Z</time>
      </trkpt>
      <trkpt lat="45.98128" lon="4.55942">
        <ele>592.2</ele>
        <time>1970-01-01T00:51:59.000Z</time>
      </trkpt>
      <trkpt lat="45.9813" lon="4.55941">
        <ele>592.1</ele>
        <time>1970-01-01T00:52:00.000Z</time>
      </trkpt>
      <trkpt lat="45.9813" lon="4.55941">
        <ele>592.1</ele>
        <time>1970-01-01T00:52:01.000Z</time>
      </trkpt>
      <trkpt lat="45.98132" lon="4.5594">
        <ele>592.1</ele>
        <time>1970-01-01T00:52:02.000Z</time>
      </trkpt>
      <trkpt lat="45.98132" lon="4.5594">
        <ele>592.1</ele>
        <time>1970-01-01T00:52:03.000Z</time>
      </trkpt>
      <trkpt lat="45.98135" lon="4.55939">
        <ele>592</ele>
        <time>1970-01-01T00:52:04.000Z</time>
      </trkpt>
      <trkpt lat="45.98135" lon="4.55939">
        <ele>592</ele>
        <time>1970-01-01T00:52:05.000Z</time>
      </trkpt>
      <trkpt lat="45.98137" lon="4.55938">
        <ele>591.9</ele>
        <time>1970-01-01T00:52:06.000Z</time>
      </trkpt>
      <trkpt lat="45.98137" lon="4.55938">
        <ele>591.9</ele>
        <time>1970-01-01T00:52:07.000Z</time>
      </trkpt>
      <trkpt lat="45.9814" lon="4.55937">
        <ele>591.8</ele>
        <time>1970-01-01T00:52:08.000Z</time>
      </trkpt>
      <trkpt lat="45.9814" lon="4.55937">
        <ele>591.8</ele>
        <time>1970-01-01T00:52:09.000Z</time>
      </trkpt>
      <trkpt lat="45.98143" lon="4.55936">
        <ele>591.7</ele>
        <time>1970-01-01T00:52:10.000Z</time>
      </trkpt>
      <trkpt lat="45.98143" lon="4.55936">
        <ele>591.7</ele>
        <time>1970-01-01T00:52:11.000Z</time>
      </trkpt>
      <trkpt lat="45.98146" lon="4.55935">
        <ele>591.6</ele>
        <time>1970-01-01T00:52:12.000Z</time>
      </trkpt>
      <trkpt lat="45.98146" lon="4.55935">
        <ele>591.6</ele>
        <time>1970-01-01T00:52:13.000Z</time>
      </trkpt>
      <trkpt lat="45.98149" lon="4.55934">
        <ele>591.5</ele>
        <time>1970-01-01T00:52:14.000Z</time>
      </trkpt>
      <trkpt lat="45.98149" lon="4.55934">
        <ele>591.5</ele>
        <time>1970-01-01T00:52:15.000Z</time>
      </trkpt>
      <trkpt lat="45.98151" lon="4.55934">
        <ele>591.4</ele>
        <time>1970-01-01T00:52:16.000Z</time>
      </trkpt>
      <trkpt lat="45.98151" lon="4.55934">
        <ele>591.4</ele>
        <time>1970-01-01T00:52:17.000Z</time>
      </trkpt>
      <trkpt lat="45.98154" lon="4.55933">
        <ele>591.3</ele>
        <time>1970-01-01T00:52:18.000Z</time>
      </trkpt>
      <trkpt lat="45.98154" lon="4.55933">
        <ele>591.3</ele>
        <time>1970-01-01T00:52:19.000Z</time>
      </trkpt>
      <trkpt lat="45.98157" lon="4.55933">
        <ele>591.2</ele>
        <time>1970-01-01T00:52:20.000Z</time>
      </trkpt>
      <trkpt lat="45.98157" lon="4.55933">
        <ele>591.2</ele>
        <time>1970-01-01T00:52:21.000Z</time>
      </trkpt>
      <trkpt lat="45.9816" lon="4.55934">
        <ele>591.1</ele>
        <time>1970-01-01T00:52:22.000Z</time>
      </trkpt>
      <trkpt lat="45.9816" lon="4.55934">
        <ele>591.1</ele>
        <time>1970-01-01T00:52:23.000Z</time>
      </trkpt>
      <trkpt lat="45.98163" lon="4.55933">
        <ele>591</ele>
        <time>1970-01-01T00:52:24.000Z</time>
      </trkpt>
      <trkpt lat="45.98163" lon="4.55933">
        <ele>591</ele>
        <time>1970-01-01T00:52:25.000Z</time>
      </trkpt>
      <trkpt lat="45.98165" lon="4.55934">
        <ele>591</ele>
        <time>1970-01-01T00:52:26.000Z</time>
      </trkpt>
      <trkpt lat="45.98165" lon="4.55934">
        <ele>591</ele>
        <time>1970-01-01T00:52:27.000Z</time>
      </trkpt>
      <trkpt lat="45.98168" lon="4.55933">
        <ele>590.9</ele>
        <time>1970-01-01T00:52:28.000Z</time>
      </trkpt>
      <trkpt lat="45.98168" lon="4.55933">
        <ele>590.9</ele>
        <time>1970-01-01T00:52:29.000Z</time>
      </trkpt>
      <trkpt lat="45.98171" lon="4.55932">
        <ele>590.8</ele>
        <time>1970-01-01T00:52:30.000Z</time>
      </trkpt>
      <trkpt lat="45.98171" lon="4.55932">
        <ele>590.8</ele>
        <time>1970-01-01T00:52:31.000Z</time>
      </trkpt>
      <trkpt lat="45.98174" lon="4.55932">
        <ele>590.8</ele>
        <time>1970-01-01T00:52:32.000Z</time>
      </trkpt>
      <trkpt lat="45.98174" lon="4.55932">
        <ele>590.8</ele>
        <time>1970-01-01T00:52:33.000Z</time>
      </trkpt>
      <trkpt lat="45.98176" lon="4.55932">
        <ele>590.7</ele>
        <time>1970-01-01T00:52:34.000Z</time>
      </trkpt>
      <trkpt lat="45.98176" lon="4.55932">
        <ele>590.7</ele>
        <time>1970-01-01T00:52:35.000Z</time>
      </trkpt>
      <trkpt lat="45.98179" lon="4.55932">
        <ele>590.7</ele>
        <time>1970-01-01T00:52:36.000Z</time>
      </trkpt>
      <trkpt lat="45.98179" lon="4.55932">
        <ele>590.7</ele>
        <time>1970-01-01T00:52:37.000Z</time>
      </trkpt>
      <trkpt lat="45.98182" lon="4.55932">
        <ele>590.6</ele>
        <time>1970-01-01T00:52:38.000Z</time>
      </trkpt>
      <trkpt lat="45.98182" lon="4.55932">
        <ele>590.6</ele>
        <time>1970-01-01T00:52:39.000Z</time>
      </trkpt>
      <trkpt lat="45.98185" lon="4.55932">
        <ele>590.6</ele>
        <time>1970-01-01T00:52:40.000Z</time>
      </trkpt>
      <trkpt lat="45.98185" lon="4.55932">
        <ele>590.6</ele>
        <time>1970-01-01T00:52:41.000Z</time>
      </trkpt>
      <trkpt lat="45.98187" lon="4.55933">
        <ele>590.5</ele>
        <time>1970-01-01T00:52:42.000Z</time>
      </trkpt>
      <trkpt lat="45.98187" lon="4.55933">
        <ele>590.5</ele>
        <time>1970-01-01T00:52:43.000Z</time>
      </trkpt>
      <trkpt lat="45.98189" lon="4.55933">
        <ele>590.5</ele>
        <time>1970-01-01T00:52:44.000Z</time>
      </trkpt>
      <trkpt lat="45.98189" lon="4.55933">
        <ele>590.5</ele>
        <time>1970-01-01T00:52:45.000Z</time>
      </trkpt>
      <trkpt lat="45.98192" lon="4.55933">
        <ele>590.5</ele>
        <time>1970-01-01T00:52:46.000Z</time>
      </trkpt>
      <trkpt lat="45.98192" lon="4.55933">
        <ele>590.5</ele>
        <time>1970-01-01T00:52:47.000Z</time>
      </trkpt>
      <trkpt lat="45.98195" lon="4.55934">
        <ele>590.4</ele>
        <time>1970-01-01T00:52:48.000Z</time>
      </trkpt>
      <trkpt lat="45.98195" lon="4.55934">
        <ele>590.4</ele>
        <time>1970-01-01T00:52:49.000Z</time>
      </trkpt>
      <trkpt lat="45.98198" lon="4.55935">
        <ele>590.4</ele>
        <time>1970-01-01T00:52:50.000Z</time>
      </trkpt>
      <trkpt lat="45.98198" lon="4.55935">
        <ele>590.4</ele>
        <time>1970-01-01T00:52:51.000Z</time>
      </trkpt>
      <trkpt lat="45.982" lon="4.55937">
        <ele>590.3</ele>
        <time>1970-01-01T00:52:52.000Z</time>
      </trkpt>
      <trkpt lat="45.982" lon="4.55937">
        <ele>590.3</ele>
        <time>1970-01-01T00:52:53.000Z</time>
      </trkpt>
      <trkpt lat="45.98203" lon="4.55938">
        <ele>590.3</ele>
        <time>1970-01-01T00:52:54.000Z</time>
      </trkpt>
      <trkpt lat="45.98203" lon="4.55938">
        <ele>590.3</ele>
        <time>1970-01-01T00:52:55.000Z</time>
      </trkpt>
      <trkpt lat="45.98205" lon="4.55938">
        <ele>590.2</ele>
        <time>1970-01-01T00:52:56.000Z</time>
      </trkpt>
      <trkpt lat="45.98205" lon="4.55938">
        <ele>590.2</ele>
        <time>1970-01-01T00:52:57.000Z</time>
      </trkpt>
      <trkpt lat="45.98207" lon="4.55938">
        <ele>590.2</ele>
        <time>1970-01-01T00:52:58.000Z</time>
      </trkpt>
      <trkpt lat="45.98207" lon="4.55938">
        <ele>590.2</ele>
        <time>1970-01-01T00:52:59.000Z</time>
      </trkpt>
      <trkpt lat="45.9821" lon="4.55939">
        <ele>590.1</ele>
        <time>1970-01-01T00:53:00.000Z</time>
      </trkpt>
      <trkpt lat="45.9821" lon="4.55939">
        <ele>590.1</ele>
        <time>1970-01-01T00:53:01.000Z</time>
      </trkpt>
      <trkpt lat="45.98212" lon="4.55939">
        <ele>590.1</ele>
        <time>1970-01-01T00:53:02.000Z</time>
      </trkpt>
      <trkpt lat="45.98212" lon="4.55939">
        <ele>590.1</ele>
        <time>1970-01-01T00:53:03.000Z</time>
      </trkpt>
      <trkpt lat="45.98215" lon="4.5594">
        <ele>590</ele>
        <time>1970-01-01T00:53:04.000Z</time>
      </trkpt>
      <trkpt lat="45.98215" lon="4.5594">
        <ele>590</ele>
        <time>1970-01-01T00:53:05.000Z</time>
      </trkpt>
      <trkpt lat="45.98217" lon="4.55941">
        <ele>590</ele>
        <time>1970-01-01T00:53:06.000Z</time>
      </trkpt>
      <trkpt lat="45.98217" lon="4.55941">
        <ele>590</ele>
        <time>1970-01-01T00:53:07.000Z</time>
      </trkpt>
      <trkpt lat="45.9822" lon="4.55941">
        <ele>589.9</ele>
        <time>1970-01-01T00:53:08.000Z</time>
      </trkpt>
      <trkpt lat="45.9822" lon="4.55941">
        <ele>589.9</ele>
        <time>1970-01-01T00:53:09.000Z</time>
      </trkpt>
      <trkpt lat="45.98222" lon="4.55942">
        <ele>589.9</ele>
        <time>1970-01-01T00:53:10.000Z</time>
      </trkpt>
      <trkpt lat="45.98222" lon="4.55942">
        <ele>589.9</ele>
        <time>1970-01-01T00:53:11.000Z</time>
      </trkpt>
      <trkpt lat="45.98224" lon="4.55942">
        <ele>589.8</ele>
        <time>1970-01-01T00:53:12.000Z</time>
      </trkpt>
      <trkpt lat="45.98224" lon="4.55942">
        <ele>589.8</ele>
        <time>1970-01-01T00:53:13.000Z</time>
      </trkpt>
      <trkpt lat="45.98226" lon="4.55943">
        <ele>589.8</ele>
        <time>1970-01-01T00:53:14.000Z</time>
      </trkpt>
      <trkpt lat="45.98228" lon="4.55944">
        <ele>589.7</ele>
        <time>1970-01-01T00:53:15.000Z</time>
      </trkpt>
      <trkpt lat="45.98228" lon="4.55944">
        <ele>589.7</ele>
        <time>1970-01-01T00:53:16.000Z</time>
      </trkpt>
      <trkpt lat="45.98232" lon="4.55945">
        <ele>589.6</ele>
        <time>1970-01-01T00:53:17.000Z</time>
      </trkpt>
      <trkpt lat="45.98232" lon="4.55945">
        <ele>589.6</ele>
        <time>1970-01-01T00:53:18.000Z</time>
      </trkpt>
      <trkpt lat="45.98234" lon="4.55946">
        <ele>589.5</ele>
        <time>1970-01-01T00:53:19.000Z</time>
      </trkpt>
      <trkpt lat="45.98234" lon="4.55946">
        <ele>589.5</ele>
        <time>1970-01-01T00:53:20.000Z</time>
      </trkpt>
      <trkpt lat="45.98236" lon="4.55947">
        <ele>589.4</ele>
        <time>1970-01-01T00:53:21.000Z</time>
      </trkpt>
      <trkpt lat="45.98236" lon="4.55947">
        <ele>589.4</ele>
        <time>1970-01-01T00:53:22.000Z</time>
      </trkpt>
      <trkpt lat="45.98239" lon="4.55948">
        <ele>589.2</ele>
        <time>1970-01-01T00:53:23.000Z</time>
      </trkpt>
      <trkpt lat="45.98239" lon="4.55948">
        <ele>589.2</ele>
        <time>1970-01-01T00:53:24.000Z</time>
      </trkpt>
      <trkpt lat="45.98242" lon="4.55949">
        <ele>589.1</ele>
        <time>1970-01-01T00:53:25.000Z</time>
      </trkpt>
      <trkpt lat="45.98242" lon="4.55949">
        <ele>589.1</ele>
        <time>1970-01-01T00:53:26.000Z</time>
      </trkpt>
      <trkpt lat="45.98244" lon="4.5595">
        <ele>588.9</ele>
        <time>1970-01-01T00:53:27.000Z</time>
      </trkpt>
      <trkpt lat="45.98244" lon="4.5595">
        <ele>588.9</ele>
        <time>1970-01-01T00:53:28.000Z</time>
      </trkpt>
      <trkpt lat="45.98246" lon="4.55951">
        <ele>588.7</ele>
        <time>1970-01-01T00:53:29.000Z</time>
      </trkpt>
      <trkpt lat="45.98246" lon="4.55951">
        <ele>588.7</ele>
        <time>1970-01-01T00:53:30.000Z</time>
      </trkpt>
      <trkpt lat="45.98248" lon="4.55951">
        <ele>588.6</ele>
        <time>1970-01-01T00:53:31.000Z</time>
      </trkpt>
      <trkpt lat="45.98248" lon="4.55951">
        <ele>588.6</ele>
        <time>1970-01-01T00:53:32.000Z</time>
      </trkpt>
      <trkpt lat="45.98251" lon="4.55952">
        <ele>588.4</ele>
        <time>1970-01-01T00:53:33.000Z</time>
      </trkpt>
      <trkpt lat="45.98251" lon="4.55952">
        <ele>588.4</ele>
        <time>1970-01-01T00:53:34.000Z</time>
      </trkpt>
      <trkpt lat="45.98253" lon="4.55953">
        <ele>588.2</ele>
        <time>1970-01-01T00:53:35.000Z</time>
      </trkpt>
      <trkpt lat="45.98253" lon="4.55953">
        <ele>588.2</ele>
        <time>1970-01-01T00:53:36.000Z</time>
      </trkpt>
      <trkpt lat="45.98256" lon="4.55953">
        <ele>588</ele>
        <time>1970-01-01T00:53:37.000Z</time>
      </trkpt>
      <trkpt lat="45.98256" lon="4.55953">
        <ele>588</ele>
        <time>1970-01-01T00:53:38.000Z</time>
      </trkpt>
      <trkpt lat="45.98258" lon="4.55954">
        <ele>587.9</ele>
        <time>1970-01-01T00:53:39.000Z</time>
      </trkpt>
      <trkpt lat="45.98258" lon="4.55954">
        <ele>587.9</ele>
        <time>1970-01-01T00:53:40.000Z</time>
      </trkpt>
      <trkpt lat="45.9826" lon="4.55954">
        <ele>587.7</ele>
        <time>1970-01-01T00:53:41.000Z</time>
      </trkpt>
      <trkpt lat="45.9826" lon="4.55954">
        <ele>587.7</ele>
        <time>1970-01-01T00:53:42.000Z</time>
      </trkpt>
      <trkpt lat="45.98263" lon="4.55955">
        <ele>587.5</ele>
        <time>1970-01-01T00:53:43.000Z</time>
      </trkpt>
      <trkpt lat="45.98263" lon="4.55955">
        <ele>587.5</ele>
        <time>1970-01-01T00:53:44.000Z</time>
      </trkpt>
      <trkpt lat="45.98265" lon="4.55956">
        <ele>587.2</ele>
        <time>1970-01-01T00:53:45.000Z</time>
      </trkpt>
      <trkpt lat="45.98265" lon="4.55956">
        <ele>587.2</ele>
        <time>1970-01-01T00:53:46.000Z</time>
      </trkpt>
      <trkpt lat="45.98267" lon="4.55957">
        <ele>587</ele>
        <time>1970-01-01T00:53:47.000Z</time>
      </trkpt>
      <trkpt lat="45.98267" lon="4.55957">
        <ele>587</ele>
        <time>1970-01-01T00:53:48.000Z</time>
      </trkpt>
      <trkpt lat="45.9827" lon="4.55958">
        <ele>586.8</ele>
        <time>1970-01-01T00:53:49.000Z</time>
      </trkpt>
      <trkpt lat="45.9827" lon="4.55958">
        <ele>586.8</ele>
        <time>1970-01-01T00:53:50.000Z</time>
      </trkpt>
      <trkpt lat="45.98272" lon="4.55959">
        <ele>586.6</ele>
        <time>1970-01-01T00:53:51.000Z</time>
      </trkpt>
      <trkpt lat="45.98272" lon="4.55959">
        <ele>586.6</ele>
        <time>1970-01-01T00:53:52.000Z</time>
      </trkpt>
      <trkpt lat="45.98274" lon="4.5596">
        <ele>586.5</ele>
        <time>1970-01-01T00:53:53.000Z</time>
      </trkpt>
      <trkpt lat="45.98274" lon="4.5596">
        <ele>586.5</ele>
        <time>1970-01-01T00:53:54.000Z</time>
      </trkpt>
      <trkpt lat="45.98276" lon="4.5596">
        <ele>586.3</ele>
        <time>1970-01-01T00:53:55.000Z</time>
      </trkpt>
      <trkpt lat="45.98276" lon="4.5596">
        <ele>586.3</ele>
        <time>1970-01-01T00:53:56.000Z</time>
      </trkpt>
      <trkpt lat="45.98279" lon="4.55961">
        <ele>586</ele>
        <time>1970-01-01T00:53:57.000Z</time>
      </trkpt>
      <trkpt lat="45.98279" lon="4.55961">
        <ele>586</ele>
        <time>1970-01-01T00:53:58.000Z</time>
      </trkpt>
      <trkpt lat="45.98282" lon="4.55962">
        <ele>585.8</ele>
        <time>1970-01-01T00:53:59.000Z</time>
      </trkpt>
      <trkpt lat="45.98282" lon="4.55962">
        <ele>585.8</ele>
        <time>1970-01-01T00:54:00.000Z</time>
      </trkpt>
      <trkpt lat="45.98285" lon="4.55963">
        <ele>585.7</ele>
        <time>1970-01-01T00:54:01.000Z</time>
      </trkpt>
      <trkpt lat="45.98285" lon="4.55963">
        <ele>585.7</ele>
        <time>1970-01-01T00:54:02.000Z</time>
      </trkpt>
      <trkpt lat="45.98288" lon="4.55964">
        <ele>585.5</ele>
        <time>1970-01-01T00:54:03.000Z</time>
      </trkpt>
      <trkpt lat="45.98288" lon="4.55964">
        <ele>585.5</ele>
        <time>1970-01-01T00:54:04.000Z</time>
      </trkpt>
      <trkpt lat="45.9829" lon="4.55965">
        <ele>585.4</ele>
        <time>1970-01-01T00:54:05.000Z</time>
      </trkpt>
      <trkpt lat="45.9829" lon="4.55965">
        <ele>585.4</ele>
        <time>1970-01-01T00:54:06.000Z</time>
      </trkpt>
      <trkpt lat="45.98292" lon="4.55965">
        <ele>585.3</ele>
        <time>1970-01-01T00:54:07.000Z</time>
      </trkpt>
      <trkpt lat="45.98292" lon="4.55965">
        <ele>585.3</ele>
        <time>1970-01-01T00:54:08.000Z</time>
      </trkpt>
      <trkpt lat="45.98294" lon="4.55965">
        <ele>585.3</ele>
        <time>1970-01-01T00:54:09.000Z</time>
      </trkpt>
      <trkpt lat="45.98294" lon="4.55965">
        <ele>585.3</ele>
        <time>1970-01-01T00:54:10.000Z</time>
      </trkpt>
      <trkpt lat="45.98297" lon="4.55966">
        <ele>585.2</ele>
        <time>1970-01-01T00:54:11.000Z</time>
      </trkpt>
      <trkpt lat="45.98297" lon="4.55966">
        <ele>585.2</ele>
        <time>1970-01-01T00:54:12.000Z</time>
      </trkpt>
      <trkpt lat="45.98299" lon="4.55967">
        <ele>585.1</ele>
        <time>1970-01-01T00:54:13.000Z</time>
      </trkpt>
      <trkpt lat="45.98299" lon="4.55967">
        <ele>585.1</ele>
        <time>1970-01-01T00:54:14.000Z</time>
      </trkpt>
      <trkpt lat="45.98302" lon="4.55969">
        <ele>585.1</ele>
        <time>1970-01-01T00:54:15.000Z</time>
      </trkpt>
      <trkpt lat="45.98302" lon="4.55969">
        <ele>585.1</ele>
        <time>1970-01-01T00:54:16.000Z</time>
      </trkpt>
      <trkpt lat="45.98304" lon="4.55971">
        <ele>585</ele>
        <time>1970-01-01T00:54:17.000Z</time>
      </trkpt>
      <trkpt lat="45.98304" lon="4.55971">
        <ele>585</ele>
        <time>1970-01-01T00:54:18.000Z</time>
      </trkpt>
      <trkpt lat="45.98304" lon="4.55971">
        <ele>585</ele>
        <time>1970-01-01T00:54:19.000Z</time>
      </trkpt>
      <trkpt lat="45.98306" lon="4.55972">
        <ele>585</ele>
        <time>1970-01-01T00:54:20.000Z</time>
      </trkpt>
      <trkpt lat="45.98306" lon="4.55972">
        <ele>585</ele>
        <time>1970-01-01T00:54:21.000Z</time>
      </trkpt>
      <trkpt lat="45.98309" lon="4.55973">
        <ele>584.9</ele>
        <time>1970-01-01T00:54:22.000Z</time>
      </trkpt>
      <trkpt lat="45.98309" lon="4.55973">
        <ele>584.9</ele>
        <time>1970-01-01T00:54:23.000Z</time>
      </trkpt>
      <trkpt lat="45.98311" lon="4.55975">
        <ele>584.9</ele>
        <time>1970-01-01T00:54:24.000Z</time>
      </trkpt>
      <trkpt lat="45.98311" lon="4.55975">
        <ele>584.9</ele>
        <time>1970-01-01T00:54:25.000Z</time>
      </trkpt>
      <trkpt lat="45.98313" lon="4.55975">
        <ele>584.8</ele>
        <time>1970-01-01T00:54:26.000Z</time>
      </trkpt>
      <trkpt lat="45.98313" lon="4.55975">
        <ele>584.8</ele>
        <time>1970-01-01T00:54:27.000Z</time>
      </trkpt>
      <trkpt lat="45.98315" lon="4.55975">
        <ele>584.8</ele>
        <time>1970-01-01T00:54:28.000Z</time>
      </trkpt>
      <trkpt lat="45.98315" lon="4.55975">
        <ele>584.8</ele>
        <time>1970-01-01T00:54:29.000Z</time>
      </trkpt>
      <trkpt lat="45.98315" lon="4.55975">
        <ele>584.8</ele>
        <time>1970-01-01T00:54:30.000Z</time>
      </trkpt>
      <trkpt lat="45.98315" lon="4.55975">
        <ele>584.8</ele>
        <time>1970-01-01T00:54:31.000Z</time>
      </trkpt>
      <trkpt lat="45.98318" lon="4.55976">
        <ele>584.8</ele>
        <time>1970-01-01T00:54:32.000Z</time>
      </trkpt>
      <trkpt lat="45.98318" lon="4.55976">
        <ele>584.8</ele>
        <time>1970-01-01T00:54:33.000Z</time>
      </trkpt>
      <trkpt lat="45.9832" lon="4.55977">
        <ele>584.8</ele>
        <time>1970-01-01T00:54:34.000Z</time>
      </trkpt>
      <trkpt lat="45.9832" lon="4.55977">
        <ele>584.8</ele>
        <time>1970-01-01T00:54:35.000Z</time>
      </trkpt>
      <trkpt lat="45.9832" lon="4.55977">
        <ele>584.8</ele>
        <time>1970-01-01T00:54:36.000Z</time>
      </trkpt>
      <trkpt lat="45.98323" lon="4.55978">
        <ele>584.7</ele>
        <time>1970-01-01T00:54:37.000Z</time>
      </trkpt>
      <trkpt lat="45.98323" lon="4.55978">
        <ele>584.7</ele>
        <time>1970-01-01T00:54:38.000Z</time>
      </trkpt>
      <trkpt lat="45.98325" lon="4.5598">
        <ele>584.7</ele>
        <time>1970-01-01T00:54:39.000Z</time>
      </trkpt>
      <trkpt lat="45.98327" lon="4.55981">
        <ele>584.7</ele>
        <time>1970-01-01T00:54:40.000Z</time>
      </trkpt>
      <trkpt lat="45.98327" lon="4.55981">
        <ele>584.7</ele>
        <time>1970-01-01T00:54:41.000Z</time>
      </trkpt>
      <trkpt lat="45.98329" lon="4.55983">
        <ele>584.7</ele>
        <time>1970-01-01T00:54:42.000Z</time>
      </trkpt>
      <trkpt lat="45.98331" lon="4.55983">
        <ele>584.7</ele>
        <time>1970-01-01T00:54:43.000Z</time>
      </trkpt>
      <trkpt lat="45.98332" lon="4.55984">
        <ele>584.7</ele>
        <time>1970-01-01T00:54:44.000Z</time>
      </trkpt>
      <trkpt lat="45.98333" lon="4.55984">
        <ele>584.7</ele>
        <time>1970-01-01T00:54:45.000Z</time>
      </trkpt>
      <trkpt lat="45.98334" lon="4.55985">
        <ele>584.7</ele>
        <time>1970-01-01T00:54:46.000Z</time>
      </trkpt>
      <trkpt lat="45.98336" lon="4.55985">
        <ele>584.7</ele>
        <time>1970-01-01T00:54:47.000Z</time>
      </trkpt>
      <trkpt lat="45.98336" lon="4.55985">
        <ele>584.7</ele>
        <time>1970-01-01T00:54:48.000Z</time>
      </trkpt>
      <trkpt lat="45.98339" lon="4.55985">
        <ele>584.7</ele>
        <time>1970-01-01T00:54:49.000Z</time>
      </trkpt>
      <trkpt lat="45.98339" lon="4.55985">
        <ele>584.7</ele>
        <time>1970-01-01T00:54:50.000Z</time>
      </trkpt>
      <trkpt lat="45.98343" lon="4.55984">
        <ele>584.8</ele>
        <time>1970-01-01T00:54:51.000Z</time>
      </trkpt>
      <trkpt lat="45.98345" lon="4.55984">
        <ele>584.8</ele>
        <time>1970-01-01T00:54:52.000Z</time>
      </trkpt>
      <trkpt lat="45.98345" lon="4.55984">
        <ele>584.8</ele>
        <time>1970-01-01T00:54:53.000Z</time>
      </trkpt>
      <trkpt lat="45.98348" lon="4.55983">
        <ele>584.9</ele>
        <time>1970-01-01T00:54:54.000Z</time>
      </trkpt>
      <trkpt lat="45.98348" lon="4.55983">
        <ele>584.9</ele>
        <time>1970-01-01T00:54:55.000Z</time>
      </trkpt>
      <trkpt lat="45.9835" lon="4.55982">
        <ele>585</ele>
        <time>1970-01-01T00:54:56.000Z</time>
      </trkpt>
      <trkpt lat="45.98351" lon="4.55981">
        <ele>585</ele>
        <time>1970-01-01T00:54:57.000Z</time>
      </trkpt>
      <trkpt lat="45.98352" lon="4.5598">
        <ele>585</ele>
        <time>1970-01-01T00:54:58.000Z</time>
      </trkpt>
      <trkpt lat="45.98352" lon="4.55979">
        <ele>585.1</ele>
        <time>1970-01-01T00:54:59.000Z</time>
      </trkpt>
      <trkpt lat="45.98353" lon="4.55978">
        <ele>585.1</ele>
        <time>1970-01-01T00:55:00.000Z</time>
      </trkpt>
      <trkpt lat="45.98354" lon="4.55977">
        <ele>585.1</ele>
        <time>1970-01-01T00:55:01.000Z</time>
      </trkpt>
      <trkpt lat="45.98355" lon="4.55977">
        <ele>585.1</ele>
        <time>1970-01-01T00:55:02.000Z</time>
      </trkpt>
      <trkpt lat="45.98355" lon="4.55977">
        <ele>585.1</ele>
        <time>1970-01-01T00:55:03.000Z</time>
      </trkpt>
      <trkpt lat="45.98357" lon="4.55974">
        <ele>585.2</ele>
        <time>1970-01-01T00:55:04.000Z</time>
      </trkpt>
      <trkpt lat="45.98357" lon="4.55974">
        <ele>585.2</ele>
        <time>1970-01-01T00:55:05.000Z</time>
      </trkpt>
      <trkpt lat="45.98359" lon="4.55972">
        <ele>585.4</ele>
        <time>1970-01-01T00:55:06.000Z</time>
      </trkpt>
      <trkpt lat="45.98359" lon="4.55972">
        <ele>585.4</ele>
        <time>1970-01-01T00:55:07.000Z</time>
      </trkpt>
      <trkpt lat="45.98361" lon="4.55968">
        <ele>585.5</ele>
        <time>1970-01-01T00:55:08.000Z</time>
      </trkpt>
      <trkpt lat="45.98361" lon="4.55968">
        <ele>585.5</ele>
        <time>1970-01-01T00:55:09.000Z</time>
      </trkpt>
      <trkpt lat="45.98362" lon="4.55965">
        <ele>585.7</ele>
        <time>1970-01-01T00:55:10.000Z</time>
      </trkpt>
      <trkpt lat="45.98362" lon="4.55965">
        <ele>585.7</ele>
        <time>1970-01-01T00:55:11.000Z</time>
      </trkpt>
      <trkpt lat="45.98364" lon="4.55962">
        <ele>585.8</ele>
        <time>1970-01-01T00:55:12.000Z</time>
      </trkpt>
      <trkpt lat="45.98364" lon="4.55962">
        <ele>585.8</ele>
        <time>1970-01-01T00:55:13.000Z</time>
      </trkpt>
      <trkpt lat="45.98365" lon="4.55959">
        <ele>586</ele>
        <time>1970-01-01T00:55:14.000Z</time>
      </trkpt>
      <trkpt lat="45.98366" lon="4.55957">
        <ele>586.1</ele>
        <time>1970-01-01T00:55:15.000Z</time>
      </trkpt>
      <trkpt lat="45.98366" lon="4.55957">
        <ele>586.1</ele>
        <time>1970-01-01T00:55:16.000Z</time>
      </trkpt>
      <trkpt lat="45.98368" lon="4.55954">
        <ele>586.3</ele>
        <time>1970-01-01T00:55:17.000Z</time>
      </trkpt>
      <trkpt lat="45.98368" lon="4.55954">
        <ele>586.3</ele>
        <time>1970-01-01T00:55:18.000Z</time>
      </trkpt>
      <trkpt lat="45.9837" lon="4.55951">
        <ele>586.5</ele>
        <time>1970-01-01T00:55:19.000Z</time>
      </trkpt>
      <trkpt lat="45.9837" lon="4.55951">
        <ele>586.5</ele>
        <time>1970-01-01T00:55:20.000Z</time>
      </trkpt>
      <trkpt lat="45.98372" lon="4.55948">
        <ele>586.8</ele>
        <time>1970-01-01T00:55:21.000Z</time>
      </trkpt>
      <trkpt lat="45.98372" lon="4.55948">
        <ele>586.8</ele>
        <time>1970-01-01T00:55:22.000Z</time>
      </trkpt>
      <trkpt lat="45.98373" lon="4.55945">
        <ele>587</ele>
        <time>1970-01-01T00:55:23.000Z</time>
      </trkpt>
      <trkpt lat="45.98373" lon="4.55945">
        <ele>587</ele>
        <time>1970-01-01T00:55:24.000Z</time>
      </trkpt>
      <trkpt lat="45.98376" lon="4.55944">
        <ele>587.2</ele>
        <time>1970-01-01T00:55:25.000Z</time>
      </trkpt>
      <trkpt lat="45.98376" lon="4.55944">
        <ele>587.2</ele>
        <time>1970-01-01T00:55:26.000Z</time>
      </trkpt>
      <trkpt lat="45.98378" lon="4.55941">
        <ele>587.5</ele>
        <time>1970-01-01T00:55:27.000Z</time>
      </trkpt>
      <trkpt lat="45.98378" lon="4.55941">
        <ele>587.5</ele>
        <time>1970-01-01T00:55:28.000Z</time>
      </trkpt>
      <trkpt lat="45.98381" lon="4.55939">
        <ele>587.9</ele>
        <time>1970-01-01T00:55:29.000Z</time>
      </trkpt>
      <trkpt lat="45.98381" lon="4.55939">
        <ele>587.9</ele>
        <time>1970-01-01T00:55:30.000Z</time>
      </trkpt>
      <trkpt lat="45.98383" lon="4.55936">
        <ele>588.2</ele>
        <time>1970-01-01T00:55:31.000Z</time>
      </trkpt>
      <trkpt lat="45.98383" lon="4.55936">
        <ele>588.2</ele>
        <time>1970-01-01T00:55:32.000Z</time>
      </trkpt>
      <trkpt lat="45.98385" lon="4.55934">
        <ele>588.5</ele>
        <time>1970-01-01T00:55:33.000Z</time>
      </trkpt>
      <trkpt lat="45.98385" lon="4.55934">
        <ele>588.5</ele>
        <time>1970-01-01T00:55:34.000Z</time>
      </trkpt>
      <trkpt lat="45.98387" lon="4.55932">
        <ele>588.9</ele>
        <time>1970-01-01T00:55:35.000Z</time>
      </trkpt>
      <trkpt lat="45.98387" lon="4.55932">
        <ele>588.9</ele>
        <time>1970-01-01T00:55:36.000Z</time>
      </trkpt>
      <trkpt lat="45.98389" lon="4.5593">
        <ele>589.2</ele>
        <time>1970-01-01T00:55:37.000Z</time>
      </trkpt>
      <trkpt lat="45.98389" lon="4.5593">
        <ele>589.2</ele>
        <time>1970-01-01T00:55:38.000Z</time>
      </trkpt>
      <trkpt lat="45.98391" lon="4.55928">
        <ele>589.5</ele>
        <time>1970-01-01T00:55:39.000Z</time>
      </trkpt>
      <trkpt lat="45.98391" lon="4.55928">
        <ele>589.5</ele>
        <time>1970-01-01T00:55:40.000Z</time>
      </trkpt>
      <trkpt lat="45.98393" lon="4.55927">
        <ele>589.8</ele>
        <time>1970-01-01T00:55:41.000Z</time>
      </trkpt>
      <trkpt lat="45.98393" lon="4.55927">
        <ele>589.8</ele>
        <time>1970-01-01T00:55:42.000Z</time>
      </trkpt>
      <trkpt lat="45.98395" lon="4.55927">
        <ele>590.1</ele>
        <time>1970-01-01T00:55:43.000Z</time>
      </trkpt>
      <trkpt lat="45.98395" lon="4.55927">
        <ele>590.1</ele>
        <time>1970-01-01T00:55:44.000Z</time>
      </trkpt>
      <trkpt lat="45.98397" lon="4.55926">
        <ele>590.4</ele>
        <time>1970-01-01T00:55:45.000Z</time>
      </trkpt>
      <trkpt lat="45.98397" lon="4.55926">
        <ele>590.4</ele>
        <time>1970-01-01T00:55:46.000Z</time>
      </trkpt>
      <trkpt lat="45.98399" lon="4.55924">
        <ele>590.7</ele>
        <time>1970-01-01T00:55:47.000Z</time>
      </trkpt>
      <trkpt lat="45.98399" lon="4.55924">
        <ele>590.7</ele>
        <time>1970-01-01T00:55:48.000Z</time>
      </trkpt>
      <trkpt lat="45.98401" lon="4.55923">
        <ele>591</ele>
        <time>1970-01-01T00:55:49.000Z</time>
      </trkpt>
      <trkpt lat="45.98401" lon="4.55923">
        <ele>591</ele>
        <time>1970-01-01T00:55:50.000Z</time>
      </trkpt>
      <trkpt lat="45.98403" lon="4.55922">
        <ele>591.3</ele>
        <time>1970-01-01T00:55:51.000Z</time>
      </trkpt>
      <trkpt lat="45.98403" lon="4.55922">
        <ele>591.3</ele>
        <time>1970-01-01T00:55:52.000Z</time>
      </trkpt>
      <trkpt lat="45.98406" lon="4.5592">
        <ele>591.6</ele>
        <time>1970-01-01T00:55:53.000Z</time>
      </trkpt>
      <trkpt lat="45.98406" lon="4.5592">
        <ele>591.6</ele>
        <time>1970-01-01T00:55:54.000Z</time>
      </trkpt>
      <trkpt lat="45.98408" lon="4.55919">
        <ele>591.9</ele>
        <time>1970-01-01T00:55:55.000Z</time>
      </trkpt>
      <trkpt lat="45.98408" lon="4.55919">
        <ele>591.9</ele>
        <time>1970-01-01T00:55:56.000Z</time>
      </trkpt>
      <trkpt lat="45.9841" lon="4.55919">
        <ele>592.1</ele>
        <time>1970-01-01T00:55:57.000Z</time>
      </trkpt>
      <trkpt lat="45.9841" lon="4.55919">
        <ele>592.1</ele>
        <time>1970-01-01T00:55:58.000Z</time>
      </trkpt>
      <trkpt lat="45.98412" lon="4.55919">
        <ele>592.4</ele>
        <time>1970-01-01T00:55:59.000Z</time>
      </trkpt>
      <trkpt lat="45.98412" lon="4.55919">
        <ele>592.4</ele>
        <time>1970-01-01T00:56:00.000Z</time>
      </trkpt>
      <trkpt lat="45.98414" lon="4.55918">
        <ele>592.6</ele>
        <time>1970-01-01T00:56:01.000Z</time>
      </trkpt>
      <trkpt lat="45.98414" lon="4.55918">
        <ele>592.6</ele>
        <time>1970-01-01T00:56:02.000Z</time>
      </trkpt>
      <trkpt lat="45.98416" lon="4.55918">
        <ele>592.8</ele>
        <time>1970-01-01T00:56:03.000Z</time>
      </trkpt>
      <trkpt lat="45.98416" lon="4.55918">
        <ele>592.8</ele>
        <time>1970-01-01T00:56:04.000Z</time>
      </trkpt>
      <trkpt lat="45.98418" lon="4.55919">
        <ele>593</ele>
        <time>1970-01-01T00:56:05.000Z</time>
      </trkpt>
      <trkpt lat="45.98418" lon="4.55919">
        <ele>593</ele>
        <time>1970-01-01T00:56:06.000Z</time>
      </trkpt>
      <trkpt lat="45.98418" lon="4.55919">
        <ele>593</ele>
        <time>1970-01-01T00:56:07.000Z</time>
      </trkpt>
      <trkpt lat="45.98418" lon="4.55919">
        <ele>593</ele>
        <time>1970-01-01T00:56:08.000Z</time>
      </trkpt>
      <trkpt lat="45.98418" lon="4.55919">
        <ele>593</ele>
        <time>1970-01-01T00:56:09.000Z</time>
      </trkpt>
      <trkpt lat="45.98418" lon="4.55919">
        <ele>593</ele>
        <time>1970-01-01T00:56:10.000Z</time>
      </trkpt>
      <trkpt lat="45.98419" lon="4.55921">
        <ele>593.3</ele>
        <time>1970-01-01T00:56:11.000Z</time>
      </trkpt>
      <trkpt lat="45.98419" lon="4.55921">
        <ele>593.3</ele>
        <time>1970-01-01T00:56:12.000Z</time>
      </trkpt>
      <trkpt lat="45.98419" lon="4.55921">
        <ele>593.3</ele>
        <time>1970-01-01T00:56:13.000Z</time>
      </trkpt>
      <trkpt lat="45.98421" lon="4.55922">
        <ele>593.5</ele>
        <time>1970-01-01T00:56:14.000Z</time>
      </trkpt>
      <trkpt lat="45.98421" lon="4.55922">
        <ele>593.5</ele>
        <time>1970-01-01T00:56:15.000Z</time>
      </trkpt>
      <trkpt lat="45.98423" lon="4.55923">
        <ele>593.8</ele>
        <time>1970-01-01T00:56:16.000Z</time>
      </trkpt>
      <trkpt lat="45.98423" lon="4.55923">
        <ele>593.8</ele>
        <time>1970-01-01T00:56:17.000Z</time>
      </trkpt>
      <trkpt lat="45.98426" lon="4.55923">
        <ele>594.1</ele>
        <time>1970-01-01T00:56:18.000Z</time>
      </trkpt>
      <trkpt lat="45.98426" lon="4.55923">
        <ele>594.1</ele>
        <time>1970-01-01T00:56:19.000Z</time>
      </trkpt>
      <trkpt lat="45.98428" lon="4.55925">
        <ele>594.4</ele>
        <time>1970-01-01T00:56:20.000Z</time>
      </trkpt>
      <trkpt lat="45.98428" lon="4.55925">
        <ele>594.4</ele>
        <time>1970-01-01T00:56:21.000Z</time>
      </trkpt>
      <trkpt lat="45.98431" lon="4.55926">
        <ele>594.6</ele>
        <time>1970-01-01T00:56:22.000Z</time>
      </trkpt>
      <trkpt lat="45.98431" lon="4.55926">
        <ele>594.6</ele>
        <time>1970-01-01T00:56:23.000Z</time>
      </trkpt>
      <trkpt lat="45.98433" lon="4.55927">
        <ele>594.9</ele>
        <time>1970-01-01T00:56:24.000Z</time>
      </trkpt>
      <trkpt lat="45.98433" lon="4.55927">
        <ele>594.9</ele>
        <time>1970-01-01T00:56:25.000Z</time>
      </trkpt>
      <trkpt lat="45.98435" lon="4.55929">
        <ele>595.1</ele>
        <time>1970-01-01T00:56:26.000Z</time>
      </trkpt>
      <trkpt lat="45.98435" lon="4.55929">
        <ele>595.1</ele>
        <time>1970-01-01T00:56:27.000Z</time>
      </trkpt>
      <trkpt lat="45.98438" lon="4.5593">
        <ele>595.4</ele>
        <time>1970-01-01T00:56:28.000Z</time>
      </trkpt>
      <trkpt lat="45.98438" lon="4.5593">
        <ele>595.4</ele>
        <time>1970-01-01T00:56:29.000Z</time>
      </trkpt>
      <trkpt lat="45.9844" lon="4.55932">
        <ele>595.7</ele>
        <time>1970-01-01T00:56:30.000Z</time>
      </trkpt>
      <trkpt lat="45.9844" lon="4.55932">
        <ele>595.7</ele>
        <time>1970-01-01T00:56:31.000Z</time>
      </trkpt>
      <trkpt lat="45.98442" lon="4.55934">
        <ele>595.9</ele>
        <time>1970-01-01T00:56:32.000Z</time>
      </trkpt>
      <trkpt lat="45.98442" lon="4.55934">
        <ele>595.9</ele>
        <time>1970-01-01T00:56:33.000Z</time>
      </trkpt>
      <trkpt lat="45.98444" lon="4.55936">
        <ele>596</ele>
        <time>1970-01-01T00:56:34.000Z</time>
      </trkpt>
      <trkpt lat="45.98444" lon="4.55936">
        <ele>596</ele>
        <time>1970-01-01T00:56:35.000Z</time>
      </trkpt>
      <trkpt lat="45.98446" lon="4.55938">
        <ele>596.3</ele>
        <time>1970-01-01T00:56:36.000Z</time>
      </trkpt>
      <trkpt lat="45.98446" lon="4.55938">
        <ele>596.3</ele>
        <time>1970-01-01T00:56:37.000Z</time>
      </trkpt>
      <trkpt lat="45.98448" lon="4.5594">
        <ele>596.5</ele>
        <time>1970-01-01T00:56:38.000Z</time>
      </trkpt>
      <trkpt lat="45.98448" lon="4.5594">
        <ele>596.5</ele>
        <time>1970-01-01T00:56:39.000Z</time>
      </trkpt>
      <trkpt lat="45.9845" lon="4.55943">
        <ele>596.7</ele>
        <time>1970-01-01T00:56:40.000Z</time>
      </trkpt>
      <trkpt lat="45.9845" lon="4.55943">
        <ele>596.7</ele>
        <time>1970-01-01T00:56:41.000Z</time>
      </trkpt>
      <trkpt lat="45.98451" lon="4.55946">
        <ele>596.8</ele>
        <time>1970-01-01T00:56:42.000Z</time>
      </trkpt>
      <trkpt lat="45.98451" lon="4.55946">
        <ele>596.8</ele>
        <time>1970-01-01T00:56:43.000Z</time>
      </trkpt>
      <trkpt lat="45.98453" lon="4.55949">
        <ele>597</ele>
        <time>1970-01-01T00:56:44.000Z</time>
      </trkpt>
      <trkpt lat="45.98453" lon="4.55949">
        <ele>597</ele>
        <time>1970-01-01T00:56:45.000Z</time>
      </trkpt>
      <trkpt lat="45.98455" lon="4.55952">
        <ele>597.1</ele>
        <time>1970-01-01T00:56:46.000Z</time>
      </trkpt>
      <trkpt lat="45.98455" lon="4.55952">
        <ele>597.1</ele>
        <time>1970-01-01T00:56:47.000Z</time>
      </trkpt>
      <trkpt lat="45.98456" lon="4.55955">
        <ele>597.2</ele>
        <time>1970-01-01T00:56:48.000Z</time>
      </trkpt>
      <trkpt lat="45.98456" lon="4.55955">
        <ele>597.2</ele>
        <time>1970-01-01T00:56:49.000Z</time>
      </trkpt>
      <trkpt lat="45.98458" lon="4.55957">
        <ele>597.3</ele>
        <time>1970-01-01T00:56:50.000Z</time>
      </trkpt>
      <trkpt lat="45.98458" lon="4.55957">
        <ele>597.3</ele>
        <time>1970-01-01T00:56:51.000Z</time>
      </trkpt>
      <trkpt lat="45.98459" lon="4.5596">
        <ele>597.4</ele>
        <time>1970-01-01T00:56:52.000Z</time>
      </trkpt>
      <trkpt lat="45.98459" lon="4.5596">
        <ele>597.4</ele>
        <time>1970-01-01T00:56:53.000Z</time>
      </trkpt>
      <trkpt lat="45.98461" lon="4.55962">
        <ele>597.4</ele>
        <time>1970-01-01T00:56:54.000Z</time>
      </trkpt>
      <trkpt lat="45.98461" lon="4.55962">
        <ele>597.4</ele>
        <time>1970-01-01T00:56:55.000Z</time>
      </trkpt>
      <trkpt lat="45.98462" lon="4.55965">
        <ele>597.5</ele>
        <time>1970-01-01T00:56:56.000Z</time>
      </trkpt>
      <trkpt lat="45.98462" lon="4.55965">
        <ele>597.5</ele>
        <time>1970-01-01T00:56:57.000Z</time>
      </trkpt>
      <trkpt lat="45.98464" lon="4.55968">
        <ele>597.5</ele>
        <time>1970-01-01T00:56:58.000Z</time>
      </trkpt>
      <trkpt lat="45.98464" lon="4.55968">
        <ele>597.5</ele>
        <time>1970-01-01T00:56:59.000Z</time>
      </trkpt>
      <trkpt lat="45.98466" lon="4.5597">
        <ele>597.5</ele>
        <time>1970-01-01T00:57:00.000Z</time>
      </trkpt>
      <trkpt lat="45.98466" lon="4.5597">
        <ele>597.5</ele>
        <time>1970-01-01T00:57:01.000Z</time>
      </trkpt>
      <trkpt lat="45.98468" lon="4.55972">
        <ele>597.6</ele>
        <time>1970-01-01T00:57:02.000Z</time>
      </trkpt>
      <trkpt lat="45.98468" lon="4.55972">
        <ele>597.6</ele>
        <time>1970-01-01T00:57:03.000Z</time>
      </trkpt>
      <trkpt lat="45.9847" lon="4.55976">
        <ele>597.6</ele>
        <time>1970-01-01T00:57:04.000Z</time>
      </trkpt>
      <trkpt lat="45.9847" lon="4.55976">
        <ele>597.6</ele>
        <time>1970-01-01T00:57:05.000Z</time>
      </trkpt>
      <trkpt lat="45.98473" lon="4.55979">
        <ele>597.7</ele>
        <time>1970-01-01T00:57:06.000Z</time>
      </trkpt>
      <trkpt lat="45.98473" lon="4.55979">
        <ele>597.7</ele>
        <time>1970-01-01T00:57:07.000Z</time>
      </trkpt>
      <trkpt lat="45.98475" lon="4.55982">
        <ele>597.7</ele>
        <time>1970-01-01T00:57:08.000Z</time>
      </trkpt>
      <trkpt lat="45.98475" lon="4.55982">
        <ele>597.7</ele>
        <time>1970-01-01T00:57:09.000Z</time>
      </trkpt>
      <trkpt lat="45.98477" lon="4.55985">
        <ele>597.8</ele>
        <time>1970-01-01T00:57:10.000Z</time>
      </trkpt>
      <trkpt lat="45.98477" lon="4.55985">
        <ele>597.8</ele>
        <time>1970-01-01T00:57:11.000Z</time>
      </trkpt>
      <trkpt lat="45.98479" lon="4.55987">
        <ele>597.8</ele>
        <time>1970-01-01T00:57:12.000Z</time>
      </trkpt>
      <trkpt lat="45.98479" lon="4.55987">
        <ele>597.8</ele>
        <time>1970-01-01T00:57:13.000Z</time>
      </trkpt>
      <trkpt lat="45.98481" lon="4.55988">
        <ele>597.9</ele>
        <time>1970-01-01T00:57:14.000Z</time>
      </trkpt>
      <trkpt lat="45.98481" lon="4.55988">
        <ele>597.9</ele>
        <time>1970-01-01T00:57:15.000Z</time>
      </trkpt>
      <trkpt lat="45.98484" lon="4.55991">
        <ele>598</ele>
        <time>1970-01-01T00:57:16.000Z</time>
      </trkpt>
      <trkpt lat="45.98484" lon="4.55991">
        <ele>598</ele>
        <time>1970-01-01T00:57:17.000Z</time>
      </trkpt>
      <trkpt lat="45.98486" lon="4.55993">
        <ele>598.1</ele>
        <time>1970-01-01T00:57:18.000Z</time>
      </trkpt>
      <trkpt lat="45.98486" lon="4.55993">
        <ele>598.1</ele>
        <time>1970-01-01T00:57:19.000Z</time>
      </trkpt>
      <trkpt lat="45.98489" lon="4.55996">
        <ele>598.2</ele>
        <time>1970-01-01T00:57:20.000Z</time>
      </trkpt>
      <trkpt lat="45.98489" lon="4.55996">
        <ele>598.2</ele>
        <time>1970-01-01T00:57:21.000Z</time>
      </trkpt>
      <trkpt lat="45.98491" lon="4.55997">
        <ele>598.3</ele>
        <time>1970-01-01T00:57:22.000Z</time>
      </trkpt>
      <trkpt lat="45.98491" lon="4.55997">
        <ele>598.3</ele>
        <time>1970-01-01T00:57:23.000Z</time>
      </trkpt>
      <trkpt lat="45.98494" lon="4.55999">
        <ele>598.3</ele>
        <time>1970-01-01T00:57:24.000Z</time>
      </trkpt>
      <trkpt lat="45.98494" lon="4.55999">
        <ele>598.3</ele>
        <time>1970-01-01T00:57:25.000Z</time>
      </trkpt>
      <trkpt lat="45.98494" lon="4.55999">
        <ele>598.3</ele>
        <time>1970-01-01T00:57:26.000Z</time>
      </trkpt>
      <trkpt lat="45.98496" lon="4.56001">
        <ele>598.4</ele>
        <time>1970-01-01T00:57:27.000Z</time>
      </trkpt>
      <trkpt lat="45.98496" lon="4.56001">
        <ele>598.4</ele>
        <time>1970-01-01T00:57:28.000Z</time>
      </trkpt>
      <trkpt lat="45.98496" lon="4.56001">
        <ele>598.4</ele>
        <time>1970-01-01T00:57:29.000Z</time>
      </trkpt>
      <trkpt lat="45.98498" lon="4.56003">
        <ele>598.6</ele>
        <time>1970-01-01T00:57:30.000Z</time>
      </trkpt>
      <trkpt lat="45.98498" lon="4.56003">
        <ele>598.6</ele>
        <time>1970-01-01T00:57:31.000Z</time>
      </trkpt>
      <trkpt lat="45.985" lon="4.56004">
        <ele>598.6</ele>
        <time>1970-01-01T00:57:32.000Z</time>
      </trkpt>
      <trkpt lat="45.985" lon="4.56004">
        <ele>598.6</ele>
        <time>1970-01-01T00:57:33.000Z</time>
      </trkpt>
      <trkpt lat="45.98502" lon="4.56004">
        <ele>598.7</ele>
        <time>1970-01-01T00:57:34.000Z</time>
      </trkpt>
      <trkpt lat="45.98502" lon="4.56004">
        <ele>598.7</ele>
        <time>1970-01-01T00:57:35.000Z</time>
      </trkpt>
      <trkpt lat="45.98504" lon="4.56005">
        <ele>598.8</ele>
        <time>1970-01-01T00:57:36.000Z</time>
      </trkpt>
      <trkpt lat="45.98504" lon="4.56005">
        <ele>598.8</ele>
        <time>1970-01-01T00:57:37.000Z</time>
      </trkpt>
      <trkpt lat="45.98504" lon="4.56005">
        <ele>598.8</ele>
        <time>1970-01-01T00:57:38.000Z</time>
      </trkpt>
      <trkpt lat="45.98506" lon="4.56007">
        <ele>598.9</ele>
        <time>1970-01-01T00:57:39.000Z</time>
      </trkpt>
      <trkpt lat="45.98506" lon="4.56007">
        <ele>598.9</ele>
        <time>1970-01-01T00:57:40.000Z</time>
      </trkpt>
      <trkpt lat="45.98508" lon="4.56009">
        <ele>599</ele>
        <time>1970-01-01T00:57:41.000Z</time>
      </trkpt>
      <trkpt lat="45.98508" lon="4.56009">
        <ele>599</ele>
        <time>1970-01-01T00:57:42.000Z</time>
      </trkpt>
      <trkpt lat="45.9851" lon="4.5601">
        <ele>599.1</ele>
        <time>1970-01-01T00:57:43.000Z</time>
      </trkpt>
      <trkpt lat="45.9851" lon="4.5601">
        <ele>599.1</ele>
        <time>1970-01-01T00:57:44.000Z</time>
      </trkpt>
      <trkpt lat="45.98512" lon="4.56012">
        <ele>599.2</ele>
        <time>1970-01-01T00:57:45.000Z</time>
      </trkpt>
      <trkpt lat="45.98512" lon="4.56012">
        <ele>599.2</ele>
        <time>1970-01-01T00:57:46.000Z</time>
      </trkpt>
      <trkpt lat="45.98512" lon="4.56012">
        <ele>599.2</ele>
        <time>1970-01-01T00:57:47.000Z</time>
      </trkpt>
      <trkpt lat="45.98515" lon="4.56013">
        <ele>599.4</ele>
        <time>1970-01-01T00:57:48.000Z</time>
      </trkpt>
      <trkpt lat="45.98515" lon="4.56013">
        <ele>599.4</ele>
        <time>1970-01-01T00:57:49.000Z</time>
      </trkpt>
      <trkpt lat="45.98517" lon="4.56014">
        <ele>599.5</ele>
        <time>1970-01-01T00:57:50.000Z</time>
      </trkpt>
      <trkpt lat="45.98517" lon="4.56014">
        <ele>599.5</ele>
        <time>1970-01-01T00:57:51.000Z</time>
      </trkpt>
      <trkpt lat="45.98519" lon="4.56016">
        <ele>599.6</ele>
        <time>1970-01-01T00:57:52.000Z</time>
      </trkpt>
      <trkpt lat="45.98519" lon="4.56016">
        <ele>599.6</ele>
        <time>1970-01-01T00:57:53.000Z</time>
      </trkpt>
      <trkpt lat="45.98521" lon="4.56016">
        <ele>599.7</ele>
        <time>1970-01-01T00:57:54.000Z</time>
      </trkpt>
      <trkpt lat="45.98522" lon="4.56016">
        <ele>599.8</ele>
        <time>1970-01-01T00:57:55.000Z</time>
      </trkpt>
      <trkpt lat="45.98523" lon="4.56016">
        <ele>599.8</ele>
        <time>1970-01-01T00:57:56.000Z</time>
      </trkpt>
      <trkpt lat="45.98524" lon="4.56015">
        <ele>599.9</ele>
        <time>1970-01-01T00:57:57.000Z</time>
      </trkpt>
      <trkpt lat="45.98525" lon="4.56015">
        <ele>600</ele>
        <time>1970-01-01T00:57:58.000Z</time>
      </trkpt>
      <trkpt lat="45.98526" lon="4.56015">
        <ele>600</ele>
        <time>1970-01-01T00:57:59.000Z</time>
      </trkpt>
      <trkpt lat="45.98527" lon="4.56014">
        <ele>600.1</ele>
        <time>1970-01-01T00:58:00.000Z</time>
      </trkpt>
      <trkpt lat="45.98528" lon="4.56014">
        <ele>600.2</ele>
        <time>1970-01-01T00:58:01.000Z</time>
      </trkpt>
      <trkpt lat="45.98529" lon="4.56014">
        <ele>600.2</ele>
        <time>1970-01-01T00:58:02.000Z</time>
      </trkpt>
      <trkpt lat="45.9853" lon="4.56014">
        <ele>600.3</ele>
        <time>1970-01-01T00:58:03.000Z</time>
      </trkpt>
      <trkpt lat="45.9853" lon="4.56013">
        <ele>600.4</ele>
        <time>1970-01-01T00:58:04.000Z</time>
      </trkpt>
      <trkpt lat="45.98531" lon="4.56011">
        <ele>600.5</ele>
        <time>1970-01-01T00:58:05.000Z</time>
      </trkpt>
      <trkpt lat="45.98532" lon="4.56009">
        <ele>600.6</ele>
        <time>1970-01-01T00:58:06.000Z</time>
      </trkpt>
      <trkpt lat="45.98532" lon="4.56007">
        <ele>600.8</ele>
        <time>1970-01-01T00:58:07.000Z</time>
      </trkpt>
      <trkpt lat="45.98533" lon="4.56005">
        <ele>600.9</ele>
        <time>1970-01-01T00:58:08.000Z</time>
      </trkpt>
      <trkpt lat="45.98533" lon="4.56003">
        <ele>601.1</ele>
        <time>1970-01-01T00:58:09.000Z</time>
      </trkpt>
      <trkpt lat="45.98534" lon="4.56001">
        <ele>601.2</ele>
        <time>1970-01-01T00:58:10.000Z</time>
      </trkpt>
      <trkpt lat="45.98534" lon="4.56001">
        <ele>601.2</ele>
        <time>1970-01-01T00:58:11.000Z</time>
      </trkpt>
      <trkpt lat="45.98535" lon="4.55997">
        <ele>601.5</ele>
        <time>1970-01-01T00:58:12.000Z</time>
      </trkpt>
      <trkpt lat="45.98535" lon="4.55997">
        <ele>601.5</ele>
        <time>1970-01-01T00:58:13.000Z</time>
      </trkpt>
      <trkpt lat="45.98537" lon="4.55993">
        <ele>601.9</ele>
        <time>1970-01-01T00:58:14.000Z</time>
      </trkpt>
      <trkpt lat="45.98537" lon="4.55993">
        <ele>601.9</ele>
        <time>1970-01-01T00:58:15.000Z</time>
      </trkpt>
      <trkpt lat="45.98538" lon="4.55989">
        <ele>602.2</ele>
        <time>1970-01-01T00:58:16.000Z</time>
      </trkpt>
      <trkpt lat="45.98538" lon="4.55989">
        <ele>602.2</ele>
        <time>1970-01-01T00:58:17.000Z</time>
      </trkpt>
      <trkpt lat="45.98539" lon="4.55987">
        <ele>602.5</ele>
        <time>1970-01-01T00:58:18.000Z</time>
      </trkpt>
      <trkpt lat="45.98539" lon="4.55987">
        <ele>602.5</ele>
        <time>1970-01-01T00:58:19.000Z</time>
      </trkpt>
      <trkpt lat="45.9854" lon="4.55984">
        <ele>602.8</ele>
        <time>1970-01-01T00:58:20.000Z</time>
      </trkpt>
      <trkpt lat="45.9854" lon="4.55984">
        <ele>602.8</ele>
        <time>1970-01-01T00:58:21.000Z</time>
      </trkpt>
      <trkpt lat="45.98541" lon="4.55982">
        <ele>603</ele>
        <time>1970-01-01T00:58:22.000Z</time>
      </trkpt>
      <trkpt lat="45.98541" lon="4.55982">
        <ele>603</ele>
        <time>1970-01-01T00:58:23.000Z</time>
      </trkpt>
      <trkpt lat="45.98542" lon="4.55979">
        <ele>603.3</ele>
        <time>1970-01-01T00:58:24.000Z</time>
      </trkpt>
      <trkpt lat="45.98542" lon="4.55979">
        <ele>603.3</ele>
        <time>1970-01-01T00:58:25.000Z</time>
      </trkpt>
      <trkpt lat="45.98544" lon="4.55977">
        <ele>603.6</ele>
        <time>1970-01-01T00:58:26.000Z</time>
      </trkpt>
      <trkpt lat="45.98544" lon="4.55977">
        <ele>603.6</ele>
        <time>1970-01-01T00:58:27.000Z</time>
      </trkpt>
      <trkpt lat="45.98546" lon="4.55975">
        <ele>604</ele>
        <time>1970-01-01T00:58:28.000Z</time>
      </trkpt>
      <trkpt lat="45.98546" lon="4.55975">
        <ele>604</ele>
        <time>1970-01-01T00:58:29.000Z</time>
      </trkpt>
      <trkpt lat="45.98546" lon="4.55975">
        <ele>604</ele>
        <time>1970-01-01T00:58:30.000Z</time>
      </trkpt>
      <trkpt lat="45.98548" lon="4.55971">
        <ele>604.5</ele>
        <time>1970-01-01T00:58:31.000Z</time>
      </trkpt>
      <trkpt lat="45.98548" lon="4.55971">
        <ele>604.5</ele>
        <time>1970-01-01T00:58:32.000Z</time>
      </trkpt>
      <trkpt lat="45.98549" lon="4.55968">
        <ele>604.8</ele>
        <time>1970-01-01T00:58:33.000Z</time>
      </trkpt>
      <trkpt lat="45.9855" lon="4.55967">
        <ele>605</ele>
        <time>1970-01-01T00:58:34.000Z</time>
      </trkpt>
      <trkpt lat="45.9855" lon="4.55965">
        <ele>605.1</ele>
        <time>1970-01-01T00:58:35.000Z</time>
      </trkpt>
      <trkpt lat="45.98551" lon="4.55964">
        <ele>605.3</ele>
        <time>1970-01-01T00:58:36.000Z</time>
      </trkpt>
      <trkpt lat="45.98552" lon="4.55963">
        <ele>605.5</ele>
        <time>1970-01-01T00:58:37.000Z</time>
      </trkpt>
      <trkpt lat="45.98552" lon="4.55961">
        <ele>605.6</ele>
        <time>1970-01-01T00:58:38.000Z</time>
      </trkpt>
      <trkpt lat="45.98553" lon="4.5596">
        <ele>605.8</ele>
        <time>1970-01-01T00:58:39.000Z</time>
      </trkpt>
      <trkpt lat="45.98553" lon="4.55958">
        <ele>606</ele>
        <time>1970-01-01T00:58:40.000Z</time>
      </trkpt>
      <trkpt lat="45.98554" lon="4.55957">
        <ele>606.1</ele>
        <time>1970-01-01T00:58:41.000Z</time>
      </trkpt>
      <trkpt lat="45.98554" lon="4.55956">
        <ele>606.3</ele>
        <time>1970-01-01T00:58:42.000Z</time>
      </trkpt>
      <trkpt lat="45.98555" lon="4.55955">
        <ele>606.4</ele>
        <time>1970-01-01T00:58:43.000Z</time>
      </trkpt>
      <trkpt lat="45.98556" lon="4.55954">
        <ele>606.6</ele>
        <time>1970-01-01T00:58:44.000Z</time>
      </trkpt>
      <trkpt lat="45.98557" lon="4.55953">
        <ele>606.7</ele>
        <time>1970-01-01T00:58:45.000Z</time>
      </trkpt>
      <trkpt lat="45.98557" lon="4.55952">
        <ele>606.8</ele>
        <time>1970-01-01T00:58:46.000Z</time>
      </trkpt>
      <trkpt lat="45.98558" lon="4.55952">
        <ele>607</ele>
        <time>1970-01-01T00:58:47.000Z</time>
      </trkpt>
      <trkpt lat="45.98558" lon="4.55952">
        <ele>607</ele>
        <time>1970-01-01T00:58:48.000Z</time>
      </trkpt>
      <trkpt lat="45.9856" lon="4.5595">
        <ele>607.3</ele>
        <time>1970-01-01T00:58:49.000Z</time>
      </trkpt>
      <trkpt lat="45.9856" lon="4.5595">
        <ele>607.3</ele>
        <time>1970-01-01T00:58:50.000Z</time>
      </trkpt>
      <trkpt lat="45.98561" lon="4.55947">
        <ele>607.6</ele>
        <time>1970-01-01T00:58:51.000Z</time>
      </trkpt>
      <trkpt lat="45.98561" lon="4.55947">
        <ele>607.6</ele>
        <time>1970-01-01T00:58:52.000Z</time>
      </trkpt>
      <trkpt lat="45.98563" lon="4.55945">
        <ele>607.9</ele>
        <time>1970-01-01T00:58:53.000Z</time>
      </trkpt>
      <trkpt lat="45.98563" lon="4.55945">
        <ele>607.9</ele>
        <time>1970-01-01T00:58:54.000Z</time>
      </trkpt>
      <trkpt lat="45.98564" lon="4.55943">
        <ele>608.2</ele>
        <time>1970-01-01T00:58:55.000Z</time>
      </trkpt>
      <trkpt lat="45.98564" lon="4.55943">
        <ele>608.2</ele>
        <time>1970-01-01T00:58:56.000Z</time>
      </trkpt>
      <trkpt lat="45.98566" lon="4.55942">
        <ele>608.5</ele>
        <time>1970-01-01T00:58:57.000Z</time>
      </trkpt>
      <trkpt lat="45.98566" lon="4.55942">
        <ele>608.5</ele>
        <time>1970-01-01T00:58:58.000Z</time>
      </trkpt>
      <trkpt lat="45.98566" lon="4.55942">
        <ele>608.5</ele>
        <time>1970-01-01T00:58:59.000Z</time>
      </trkpt>
      <trkpt lat="45.98568" lon="4.55939">
        <ele>608.9</ele>
        <time>1970-01-01T00:59:00.000Z</time>
      </trkpt>
      <trkpt lat="45.98568" lon="4.55939">
        <ele>608.9</ele>
        <time>1970-01-01T00:59:01.000Z</time>
      </trkpt>
      <trkpt lat="45.98569" lon="4.55937">
        <ele>609.1</ele>
        <time>1970-01-01T00:59:02.000Z</time>
      </trkpt>
      <trkpt lat="45.98569" lon="4.55937">
        <ele>609.1</ele>
        <time>1970-01-01T00:59:03.000Z</time>
      </trkpt>
      <trkpt lat="45.98571" lon="4.55935">
        <ele>609.4</ele>
        <time>1970-01-01T00:59:04.000Z</time>
      </trkpt>
      <trkpt lat="45.98571" lon="4.55935">
        <ele>609.4</ele>
        <time>1970-01-01T00:59:05.000Z</time>
      </trkpt>
      <trkpt lat="45.98572" lon="4.55933">
        <ele>609.7</ele>
        <time>1970-01-01T00:59:06.000Z</time>
      </trkpt>
      <trkpt lat="45.98572" lon="4.55933">
        <ele>609.7</ele>
        <time>1970-01-01T00:59:07.000Z</time>
      </trkpt>
      <trkpt lat="45.98574" lon="4.55931">
        <ele>610</ele>
        <time>1970-01-01T00:59:08.000Z</time>
      </trkpt>
      <trkpt lat="45.98574" lon="4.55931">
        <ele>610</ele>
        <time>1970-01-01T00:59:09.000Z</time>
      </trkpt>
      <trkpt lat="45.98576" lon="4.55929">
        <ele>610.3</ele>
        <time>1970-01-01T00:59:10.000Z</time>
      </trkpt>
      <trkpt lat="45.98576" lon="4.55929">
        <ele>610.3</ele>
        <time>1970-01-01T00:59:11.000Z</time>
      </trkpt>
      <trkpt lat="45.98577" lon="4.55927">
        <ele>610.5</ele>
        <time>1970-01-01T00:59:12.000Z</time>
      </trkpt>
      <trkpt lat="45.98577" lon="4.55927">
        <ele>610.5</ele>
        <time>1970-01-01T00:59:13.000Z</time>
      </trkpt>
      <trkpt lat="45.98579" lon="4.55924">
        <ele>610.8</ele>
        <time>1970-01-01T00:59:14.000Z</time>
      </trkpt>
      <trkpt lat="45.98579" lon="4.55924">
        <ele>610.8</ele>
        <time>1970-01-01T00:59:15.000Z</time>
      </trkpt>
      <trkpt lat="45.98581" lon="4.55923">
        <ele>611.1</ele>
        <time>1970-01-01T00:59:16.000Z</time>
      </trkpt>
      <trkpt lat="45.98581" lon="4.55923">
        <ele>611.1</ele>
        <time>1970-01-01T00:59:17.000Z</time>
      </trkpt>
      <trkpt lat="45.98582" lon="4.55921">
        <ele>611.3</ele>
        <time>1970-01-01T00:59:18.000Z</time>
      </trkpt>
      <trkpt lat="45.98582" lon="4.55921">
        <ele>611.3</ele>
        <time>1970-01-01T00:59:19.000Z</time>
      </trkpt>
      <trkpt lat="45.98584" lon="4.5592">
        <ele>611.5</ele>
        <time>1970-01-01T00:59:20.000Z</time>
      </trkpt>
      <trkpt lat="45.98584" lon="4.5592">
        <ele>611.5</ele>
        <time>1970-01-01T00:59:21.000Z</time>
      </trkpt>
      <trkpt lat="45.98586" lon="4.55919">
        <ele>611.8</ele>
        <time>1970-01-01T00:59:22.000Z</time>
      </trkpt>
      <trkpt lat="45.98586" lon="4.55919">
        <ele>611.8</ele>
        <time>1970-01-01T00:59:23.000Z</time>
      </trkpt>
      <trkpt lat="45.98588" lon="4.55917">
        <ele>612</ele>
        <time>1970-01-01T00:59:24.000Z</time>
      </trkpt>
      <trkpt lat="45.98588" lon="4.55917">
        <ele>612</ele>
        <time>1970-01-01T00:59:25.000Z</time>
      </trkpt>
      <trkpt lat="45.98589" lon="4.55915">
        <ele>612.2</ele>
        <time>1970-01-01T00:59:26.000Z</time>
      </trkpt>
      <trkpt lat="45.98589" lon="4.55915">
        <ele>612.2</ele>
        <time>1970-01-01T00:59:27.000Z</time>
      </trkpt>
      <trkpt lat="45.98591" lon="4.55914">
        <ele>612.4</ele>
        <time>1970-01-01T00:59:28.000Z</time>
      </trkpt>
      <trkpt lat="45.98591" lon="4.55914">
        <ele>612.4</ele>
        <time>1970-01-01T00:59:29.000Z</time>
      </trkpt>
      <trkpt lat="45.98592" lon="4.55912">
        <ele>612.6</ele>
        <time>1970-01-01T00:59:30.000Z</time>
      </trkpt>
      <trkpt lat="45.98592" lon="4.55912">
        <ele>612.6</ele>
        <time>1970-01-01T00:59:31.000Z</time>
      </trkpt>
      <trkpt lat="45.98595" lon="4.55911">
        <ele>612.9</ele>
        <time>1970-01-01T00:59:32.000Z</time>
      </trkpt>
      <trkpt lat="45.98595" lon="4.55911">
        <ele>612.9</ele>
        <time>1970-01-01T00:59:33.000Z</time>
      </trkpt>
      <trkpt lat="45.98597" lon="4.5591">
        <ele>613.1</ele>
        <time>1970-01-01T00:59:34.000Z</time>
      </trkpt>
      <trkpt lat="45.98597" lon="4.5591">
        <ele>613.1</ele>
        <time>1970-01-01T00:59:35.000Z</time>
      </trkpt>
      <trkpt lat="45.98598" lon="4.55908">
        <ele>613.3</ele>
        <time>1970-01-01T00:59:36.000Z</time>
      </trkpt>
      <trkpt lat="45.98598" lon="4.55908">
        <ele>613.3</ele>
        <time>1970-01-01T00:59:37.000Z</time>
      </trkpt>
      <trkpt lat="45.98601" lon="4.55906">
        <ele>613.6</ele>
        <time>1970-01-01T00:59:38.000Z</time>
      </trkpt>
      <trkpt lat="45.98601" lon="4.55906">
        <ele>613.6</ele>
        <time>1970-01-01T00:59:39.000Z</time>
      </trkpt>
      <trkpt lat="45.98603" lon="4.55905">
        <ele>613.8</ele>
        <time>1970-01-01T00:59:40.000Z</time>
      </trkpt>
      <trkpt lat="45.98603" lon="4.55905">
        <ele>613.8</ele>
        <time>1970-01-01T00:59:41.000Z</time>
      </trkpt>
      <trkpt lat="45.98605" lon="4.55904">
        <ele>614.1</ele>
        <time>1970-01-01T00:59:42.000Z</time>
      </trkpt>
      <trkpt lat="45.98605" lon="4.55904">
        <ele>614.1</ele>
        <time>1970-01-01T00:59:43.000Z</time>
      </trkpt>
      <trkpt lat="45.98607" lon="4.55902">
        <ele>614.3</ele>
        <time>1970-01-01T00:59:44.000Z</time>
      </trkpt>
      <trkpt lat="45.98607" lon="4.55902">
        <ele>614.3</ele>
        <time>1970-01-01T00:59:45.000Z</time>
      </trkpt>
      <trkpt lat="45.98609" lon="4.55901">
        <ele>614.5</ele>
        <time>1970-01-01T00:59:46.000Z</time>
      </trkpt>
      <trkpt lat="45.98609" lon="4.55901">
        <ele>614.5</ele>
        <time>1970-01-01T00:59:47.000Z</time>
      </trkpt>
      <trkpt lat="45.98611" lon="4.55899">
        <ele>614.8</ele>
        <time>1970-01-01T00:59:48.000Z</time>
      </trkpt>
      <trkpt lat="45.98611" lon="4.55899">
        <ele>614.8</ele>
        <time>1970-01-01T00:59:49.000Z</time>
      </trkpt>
      <trkpt lat="45.98613" lon="4.55898">
        <ele>615.1</ele>
        <time>1970-01-01T00:59:50.000Z</time>
      </trkpt>
      <trkpt lat="45.98613" lon="4.55898">
        <ele>615.1</ele>
        <time>1970-01-01T00:59:51.000Z</time>
      </trkpt>
      <trkpt lat="45.98615" lon="4.55898">
        <ele>615.3</ele>
        <time>1970-01-01T00:59:52.000Z</time>
      </trkpt>
      <trkpt lat="45.98615" lon="4.55898">
        <ele>615.3</ele>
        <time>1970-01-01T00:59:53.000Z</time>
      </trkpt>
      <trkpt lat="45.98618" lon="4.55897">
        <ele>615.6</ele>
        <time>1970-01-01T00:59:54.000Z</time>
      </trkpt>
      <trkpt lat="45.98618" lon="4.55897">
        <ele>615.6</ele>
        <time>1970-01-01T00:59:55.000Z</time>
      </trkpt>
      <trkpt lat="45.98621" lon="4.55897">
        <ele>615.9</ele>
        <time>1970-01-01T00:59:56.000Z</time>
      </trkpt>
      <trkpt lat="45.98621" lon="4.55897">
        <ele>615.9</ele>
        <time>1970-01-01T00:59:57.000Z</time>
      </trkpt>
      <trkpt lat="45.98623" lon="4.55895">
        <ele>616.1</ele>
        <time>1970-01-01T00:59:58.000Z</time>
      </trkpt>
      <trkpt lat="45.98623" lon="4.55895">
        <ele>616.1</ele>
        <time>1970-01-01T00:59:59.000Z</time>
      </trkpt>
      <trkpt lat="45.98625" lon="4.55894">
        <ele>616.3</ele>
        <time>1970-01-01T01:00:00.000Z</time>
      </trkpt>
      <trkpt lat="45.98625" lon="4.55894">
        <ele>616.3</ele>
        <time>1970-01-01T01:00:01.000Z</time>
      </trkpt>
      <trkpt lat="45.98626" lon="4.55892">
        <ele>616.5</ele>
        <time>1970-01-01T01:00:02.000Z</time>
      </trkpt>
      <trkpt lat="45.98626" lon="4.55892">
        <ele>616.5</ele>
        <time>1970-01-01T01:00:03.000Z</time>
      </trkpt>
      <trkpt lat="45.98628" lon="4.55891">
        <ele>616.7</ele>
        <time>1970-01-01T01:00:04.000Z</time>
      </trkpt>
      <trkpt lat="45.98628" lon="4.55891">
        <ele>616.7</ele>
        <time>1970-01-01T01:00:05.000Z</time>
      </trkpt>
      <trkpt lat="45.98631" lon="4.5589">
        <ele>616.9</ele>
        <time>1970-01-01T01:00:06.000Z</time>
      </trkpt>
      <trkpt lat="45.98631" lon="4.5589">
        <ele>616.9</ele>
        <time>1970-01-01T01:00:07.000Z</time>
      </trkpt>
      <trkpt lat="45.98633" lon="4.55889">
        <ele>617.1</ele>
        <time>1970-01-01T01:00:08.000Z</time>
      </trkpt>
      <trkpt lat="45.98633" lon="4.55889">
        <ele>617.1</ele>
        <time>1970-01-01T01:00:09.000Z</time>
      </trkpt>
      <trkpt lat="45.98636" lon="4.55889">
        <ele>617.3</ele>
        <time>1970-01-01T01:00:10.000Z</time>
      </trkpt>
      <trkpt lat="45.98636" lon="4.55889">
        <ele>617.3</ele>
        <time>1970-01-01T01:00:11.000Z</time>
      </trkpt>
      <trkpt lat="45.98638" lon="4.5589">
        <ele>617.5</ele>
        <time>1970-01-01T01:00:12.000Z</time>
      </trkpt>
      <trkpt lat="45.98638" lon="4.5589">
        <ele>617.5</ele>
        <time>1970-01-01T01:00:13.000Z</time>
      </trkpt>
      <trkpt lat="45.9864" lon="4.55889">
        <ele>617.6</ele>
        <time>1970-01-01T01:00:14.000Z</time>
      </trkpt>
      <trkpt lat="45.9864" lon="4.55889">
        <ele>617.6</ele>
        <time>1970-01-01T01:00:15.000Z</time>
      </trkpt>
      <trkpt lat="45.98643" lon="4.55889">
        <ele>617.8</ele>
        <time>1970-01-01T01:00:16.000Z</time>
      </trkpt>
      <trkpt lat="45.98643" lon="4.55889">
        <ele>617.8</ele>
        <time>1970-01-01T01:00:17.000Z</time>
      </trkpt>
      <trkpt lat="45.98645" lon="4.55888">
        <ele>618</ele>
        <time>1970-01-01T01:00:18.000Z</time>
      </trkpt>
      <trkpt lat="45.98645" lon="4.55888">
        <ele>618</ele>
        <time>1970-01-01T01:00:19.000Z</time>
      </trkpt>
      <trkpt lat="45.98647" lon="4.55888">
        <ele>618.1</ele>
        <time>1970-01-01T01:00:20.000Z</time>
      </trkpt>
      <trkpt lat="45.98647" lon="4.55888">
        <ele>618.1</ele>
        <time>1970-01-01T01:00:21.000Z</time>
      </trkpt>
      <trkpt lat="45.9865" lon="4.55888">
        <ele>618.3</ele>
        <time>1970-01-01T01:00:22.000Z</time>
      </trkpt>
      <trkpt lat="45.9865" lon="4.55888">
        <ele>618.3</ele>
        <time>1970-01-01T01:00:23.000Z</time>
      </trkpt>
      <trkpt lat="45.98653" lon="4.55888">
        <ele>618.5</ele>
        <time>1970-01-01T01:00:24.000Z</time>
      </trkpt>
      <trkpt lat="45.98653" lon="4.55888">
        <ele>618.5</ele>
        <time>1970-01-01T01:00:25.000Z</time>
      </trkpt>
      <trkpt lat="45.98655" lon="4.55889">
        <ele>618.6</ele>
        <time>1970-01-01T01:00:26.000Z</time>
      </trkpt>
      <trkpt lat="45.98655" lon="4.55889">
        <ele>618.6</ele>
        <time>1970-01-01T01:00:27.000Z</time>
      </trkpt>
      <trkpt lat="45.98657" lon="4.55889">
        <ele>618.8</ele>
        <time>1970-01-01T01:00:28.000Z</time>
      </trkpt>
      <trkpt lat="45.98657" lon="4.55889">
        <ele>618.8</ele>
        <time>1970-01-01T01:00:29.000Z</time>
      </trkpt>
      <trkpt lat="45.9866" lon="4.55891">
        <ele>618.9</ele>
        <time>1970-01-01T01:00:30.000Z</time>
      </trkpt>
      <trkpt lat="45.9866" lon="4.55891">
        <ele>618.9</ele>
        <time>1970-01-01T01:00:31.000Z</time>
      </trkpt>
      <trkpt lat="45.98662" lon="4.55892">
        <ele>619.1</ele>
        <time>1970-01-01T01:00:32.000Z</time>
      </trkpt>
      <trkpt lat="45.98662" lon="4.55892">
        <ele>619.1</ele>
        <time>1970-01-01T01:00:33.000Z</time>
      </trkpt>
      <trkpt lat="45.98664" lon="4.55893">
        <ele>619.3</ele>
        <time>1970-01-01T01:00:34.000Z</time>
      </trkpt>
      <trkpt lat="45.98664" lon="4.55893">
        <ele>619.3</ele>
        <time>1970-01-01T01:00:35.000Z</time>
      </trkpt>
      <trkpt lat="45.98666" lon="4.55894">
        <ele>619.4</ele>
        <time>1970-01-01T01:00:36.000Z</time>
      </trkpt>
      <trkpt lat="45.98666" lon="4.55894">
        <ele>619.4</ele>
        <time>1970-01-01T01:00:37.000Z</time>
      </trkpt>
      <trkpt lat="45.98668" lon="4.55894">
        <ele>619.5</ele>
        <time>1970-01-01T01:00:38.000Z</time>
      </trkpt>
      <trkpt lat="45.98668" lon="4.55894">
        <ele>619.5</ele>
        <time>1970-01-01T01:00:39.000Z</time>
      </trkpt>
      <trkpt lat="45.9867" lon="4.55895">
        <ele>619.7</ele>
        <time>1970-01-01T01:00:40.000Z</time>
      </trkpt>
      <trkpt lat="45.9867" lon="4.55895">
        <ele>619.7</ele>
        <time>1970-01-01T01:00:41.000Z</time>
      </trkpt>
      <trkpt lat="45.98672" lon="4.55896">
        <ele>619.8</ele>
        <time>1970-01-01T01:00:42.000Z</time>
      </trkpt>
      <trkpt lat="45.98672" lon="4.55896">
        <ele>619.8</ele>
        <time>1970-01-01T01:00:43.000Z</time>
      </trkpt>
      <trkpt lat="45.98674" lon="4.55897">
        <ele>620</ele>
        <time>1970-01-01T01:00:44.000Z</time>
      </trkpt>
      <trkpt lat="45.98674" lon="4.55897">
        <ele>620</ele>
        <time>1970-01-01T01:00:45.000Z</time>
      </trkpt>
      <trkpt lat="45.98676" lon="4.55898">
        <ele>620.1</ele>
        <time>1970-01-01T01:00:46.000Z</time>
      </trkpt>
      <trkpt lat="45.98676" lon="4.55898">
        <ele>620.1</ele>
        <time>1970-01-01T01:00:47.000Z</time>
      </trkpt>
      <trkpt lat="45.98679" lon="4.559">
        <ele>620.3</ele>
        <time>1970-01-01T01:00:48.000Z</time>
      </trkpt>
      <trkpt lat="45.98679" lon="4.559">
        <ele>620.3</ele>
        <time>1970-01-01T01:00:49.000Z</time>
      </trkpt>
      <trkpt lat="45.98681" lon="4.55902">
        <ele>620.5</ele>
        <time>1970-01-01T01:00:50.000Z</time>
      </trkpt>
      <trkpt lat="45.98681" lon="4.55902">
        <ele>620.5</ele>
        <time>1970-01-01T01:00:51.000Z</time>
      </trkpt>
      <trkpt lat="45.98684" lon="4.55903">
        <ele>620.7</ele>
        <time>1970-01-01T01:00:52.000Z</time>
      </trkpt>
      <trkpt lat="45.98684" lon="4.55903">
        <ele>620.7</ele>
        <time>1970-01-01T01:00:53.000Z</time>
      </trkpt>
      <trkpt lat="45.98686" lon="4.55905">
        <ele>620.9</ele>
        <time>1970-01-01T01:00:54.000Z</time>
      </trkpt>
      <trkpt lat="45.98686" lon="4.55905">
        <ele>620.9</ele>
        <time>1970-01-01T01:00:55.000Z</time>
      </trkpt>
      <trkpt lat="45.98688" lon="4.55906">
        <ele>621.1</ele>
        <time>1970-01-01T01:00:56.000Z</time>
      </trkpt>
      <trkpt lat="45.98688" lon="4.55906">
        <ele>621.1</ele>
        <time>1970-01-01T01:00:57.000Z</time>
      </trkpt>
      <trkpt lat="45.98691" lon="4.55908">
        <ele>621.3</ele>
        <time>1970-01-01T01:00:58.000Z</time>
      </trkpt>
      <trkpt lat="45.98691" lon="4.55908">
        <ele>621.3</ele>
        <time>1970-01-01T01:00:59.000Z</time>
      </trkpt>
      <trkpt lat="45.98694" lon="4.5591">
        <ele>621.5</ele>
        <time>1970-01-01T01:01:00.000Z</time>
      </trkpt>
      <trkpt lat="45.98694" lon="4.5591">
        <ele>621.5</ele>
        <time>1970-01-01T01:01:01.000Z</time>
      </trkpt>
      <trkpt lat="45.98696" lon="4.55912">
        <ele>621.7</ele>
        <time>1970-01-01T01:01:02.000Z</time>
      </trkpt>
      <trkpt lat="45.98696" lon="4.55912">
        <ele>621.7</ele>
        <time>1970-01-01T01:01:03.000Z</time>
      </trkpt>
      <trkpt lat="45.98696" lon="4.55912">
        <ele>621.7</ele>
        <time>1970-01-01T01:01:04.000Z</time>
      </trkpt>
      <trkpt lat="45.98696" lon="4.55912">
        <ele>621.7</ele>
        <time>1970-01-01T01:01:05.000Z</time>
      </trkpt>
      <trkpt lat="45.98697" lon="4.55914">
        <ele>621.9</ele>
        <time>1970-01-01T01:01:06.000Z</time>
      </trkpt>
      <trkpt lat="45.98697" lon="4.55914">
        <ele>621.9</ele>
        <time>1970-01-01T01:01:07.000Z</time>
      </trkpt>
      <trkpt lat="45.98699" lon="4.55916">
        <ele>622.1</ele>
        <time>1970-01-01T01:01:08.000Z</time>
      </trkpt>
      <trkpt lat="45.98699" lon="4.55916">
        <ele>622.1</ele>
        <time>1970-01-01T01:01:09.000Z</time>
      </trkpt>
      <trkpt lat="45.98701" lon="4.55918">
        <ele>622.3</ele>
        <time>1970-01-01T01:01:10.000Z</time>
      </trkpt>
      <trkpt lat="45.98701" lon="4.55918">
        <ele>622.3</ele>
        <time>1970-01-01T01:01:11.000Z</time>
      </trkpt>
      <trkpt lat="45.98703" lon="4.5592">
        <ele>622.4</ele>
        <time>1970-01-01T01:01:12.000Z</time>
      </trkpt>
      <trkpt lat="45.98703" lon="4.5592">
        <ele>622.4</ele>
        <time>1970-01-01T01:01:13.000Z</time>
      </trkpt>
      <trkpt lat="45.98705" lon="4.55923">
        <ele>622.6</ele>
        <time>1970-01-01T01:01:14.000Z</time>
      </trkpt>
      <trkpt lat="45.98705" lon="4.55923">
        <ele>622.6</ele>
        <time>1970-01-01T01:01:15.000Z</time>
      </trkpt>
      <trkpt lat="45.98707" lon="4.55925">
        <ele>622.8</ele>
        <time>1970-01-01T01:01:16.000Z</time>
      </trkpt>
      <trkpt lat="45.98707" lon="4.55925">
        <ele>622.8</ele>
        <time>1970-01-01T01:01:17.000Z</time>
      </trkpt>
      <trkpt lat="45.98709" lon="4.55927">
        <ele>623</ele>
        <time>1970-01-01T01:01:18.000Z</time>
      </trkpt>
      <trkpt lat="45.98709" lon="4.55927">
        <ele>623</ele>
        <time>1970-01-01T01:01:19.000Z</time>
      </trkpt>
      <trkpt lat="45.98711" lon="4.55929">
        <ele>623.2</ele>
        <time>1970-01-01T01:01:20.000Z</time>
      </trkpt>
      <trkpt lat="45.98711" lon="4.55929">
        <ele>623.2</ele>
        <time>1970-01-01T01:01:21.000Z</time>
      </trkpt>
      <trkpt lat="45.98713" lon="4.55932">
        <ele>623.3</ele>
        <time>1970-01-01T01:01:22.000Z</time>
      </trkpt>
      <trkpt lat="45.98713" lon="4.55932">
        <ele>623.3</ele>
        <time>1970-01-01T01:01:23.000Z</time>
      </trkpt>
      <trkpt lat="45.98713" lon="4.55932">
        <ele>623.3</ele>
        <time>1970-01-01T01:01:24.000Z</time>
      </trkpt>
      <trkpt lat="45.98714" lon="4.55934">
        <ele>623.5</ele>
        <time>1970-01-01T01:01:25.000Z</time>
      </trkpt>
      <trkpt lat="45.98714" lon="4.55934">
        <ele>623.5</ele>
        <time>1970-01-01T01:01:26.000Z</time>
      </trkpt>
      <trkpt lat="45.98715" lon="4.55937">
        <ele>623.6</ele>
        <time>1970-01-01T01:01:27.000Z</time>
      </trkpt>
      <trkpt lat="45.98715" lon="4.55937">
        <ele>623.6</ele>
        <time>1970-01-01T01:01:28.000Z</time>
      </trkpt>
      <trkpt lat="45.98715" lon="4.55937">
        <ele>623.6</ele>
        <time>1970-01-01T01:01:29.000Z</time>
      </trkpt>
      <trkpt lat="45.98717" lon="4.55941">
        <ele>623.7</ele>
        <time>1970-01-01T01:01:30.000Z</time>
      </trkpt>
      <trkpt lat="45.98717" lon="4.55941">
        <ele>623.7</ele>
        <time>1970-01-01T01:01:31.000Z</time>
      </trkpt>
      <trkpt lat="45.98719" lon="4.55944">
        <ele>623.9</ele>
        <time>1970-01-01T01:01:32.000Z</time>
      </trkpt>
      <trkpt lat="45.98719" lon="4.55944">
        <ele>623.9</ele>
        <time>1970-01-01T01:01:33.000Z</time>
      </trkpt>
      <trkpt lat="45.9872" lon="4.55947">
        <ele>624</ele>
        <time>1970-01-01T01:01:34.000Z</time>
      </trkpt>
      <trkpt lat="45.9872" lon="4.55947">
        <ele>624</ele>
        <time>1970-01-01T01:01:35.000Z</time>
      </trkpt>
      <trkpt lat="45.98722" lon="4.55949">
        <ele>624.1</ele>
        <time>1970-01-01T01:01:36.000Z</time>
      </trkpt>
      <trkpt lat="45.98722" lon="4.55949">
        <ele>624.1</ele>
        <time>1970-01-01T01:01:37.000Z</time>
      </trkpt>
      <trkpt lat="45.98724" lon="4.5595">
        <ele>624.2</ele>
        <time>1970-01-01T01:01:38.000Z</time>
      </trkpt>
      <trkpt lat="45.98724" lon="4.5595">
        <ele>624.2</ele>
        <time>1970-01-01T01:01:39.000Z</time>
      </trkpt>
      <trkpt lat="45.98726" lon="4.55953">
        <ele>624.3</ele>
        <time>1970-01-01T01:01:40.000Z</time>
      </trkpt>
      <trkpt lat="45.98726" lon="4.55953">
        <ele>624.3</ele>
        <time>1970-01-01T01:01:41.000Z</time>
      </trkpt>
      <trkpt lat="45.98727" lon="4.55957">
        <ele>624.4</ele>
        <time>1970-01-01T01:01:42.000Z</time>
      </trkpt>
      <trkpt lat="45.98727" lon="4.55957">
        <ele>624.4</ele>
        <time>1970-01-01T01:01:43.000Z</time>
      </trkpt>
      <trkpt lat="45.98729" lon="4.55958">
        <ele>624.5</ele>
        <time>1970-01-01T01:01:44.000Z</time>
      </trkpt>
      <trkpt lat="45.98729" lon="4.55958">
        <ele>624.5</ele>
        <time>1970-01-01T01:01:45.000Z</time>
      </trkpt>
      <trkpt lat="45.98731" lon="4.5596">
        <ele>624.6</ele>
        <time>1970-01-01T01:01:46.000Z</time>
      </trkpt>
      <trkpt lat="45.98731" lon="4.5596">
        <ele>624.6</ele>
        <time>1970-01-01T01:01:47.000Z</time>
      </trkpt>
      <trkpt lat="45.98732" lon="4.55963">
        <ele>624.7</ele>
        <time>1970-01-01T01:01:48.000Z</time>
      </trkpt>
      <trkpt lat="45.98732" lon="4.55963">
        <ele>624.7</ele>
        <time>1970-01-01T01:01:49.000Z</time>
      </trkpt>
      <trkpt lat="45.98734" lon="4.55966">
        <ele>624.8</ele>
        <time>1970-01-01T01:01:50.000Z</time>
      </trkpt>
      <trkpt lat="45.98735" lon="4.55969">
        <ele>624.9</ele>
        <time>1970-01-01T01:01:51.000Z</time>
      </trkpt>
      <trkpt lat="45.98735" lon="4.55969">
        <ele>624.9</ele>
        <time>1970-01-01T01:01:52.000Z</time>
      </trkpt>
      <trkpt lat="45.98738" lon="4.55972">
        <ele>625.1</ele>
        <time>1970-01-01T01:01:53.000Z</time>
      </trkpt>
      <trkpt lat="45.98739" lon="4.55973">
        <ele>625.1</ele>
        <time>1970-01-01T01:01:54.000Z</time>
      </trkpt>
      <trkpt lat="45.9874" lon="4.55974">
        <ele>625.2</ele>
        <time>1970-01-01T01:01:55.000Z</time>
      </trkpt>
      <trkpt lat="45.98741" lon="4.55975">
        <ele>625.3</ele>
        <time>1970-01-01T01:01:56.000Z</time>
      </trkpt>
      <trkpt lat="45.98742" lon="4.55977">
        <ele>625.3</ele>
        <time>1970-01-01T01:01:57.000Z</time>
      </trkpt>
      <trkpt lat="45.98743" lon="4.55978">
        <ele>625.4</ele>
        <time>1970-01-01T01:01:58.000Z</time>
      </trkpt>
      <trkpt lat="45.98743" lon="4.55978">
        <ele>625.4</ele>
        <time>1970-01-01T01:01:59.000Z</time>
      </trkpt>
      <trkpt lat="45.98743" lon="4.55978">
        <ele>625.4</ele>
        <time>1970-01-01T01:02:00.000Z</time>
      </trkpt>
      <trkpt lat="45.98745" lon="4.55981">
        <ele>625.6</ele>
        <time>1970-01-01T01:02:01.000Z</time>
      </trkpt>
      <trkpt lat="45.98745" lon="4.55981">
        <ele>625.6</ele>
        <time>1970-01-01T01:02:02.000Z</time>
      </trkpt>
      <trkpt lat="45.98747" lon="4.55986">
        <ele>625.8</ele>
        <time>1970-01-01T01:02:03.000Z</time>
      </trkpt>
      <trkpt lat="45.98747" lon="4.55986">
        <ele>625.8</ele>
        <time>1970-01-01T01:02:04.000Z</time>
      </trkpt>
      <trkpt lat="45.98747" lon="4.55986">
        <ele>625.8</ele>
        <time>1970-01-01T01:02:05.000Z</time>
      </trkpt>
      <trkpt lat="45.9875" lon="4.55989">
        <ele>626</ele>
        <time>1970-01-01T01:02:06.000Z</time>
      </trkpt>
      <trkpt lat="45.9875" lon="4.55989">
        <ele>626</ele>
        <time>1970-01-01T01:02:07.000Z</time>
      </trkpt>
      <trkpt lat="45.9875" lon="4.55989">
        <ele>626</ele>
        <time>1970-01-01T01:02:08.000Z</time>
      </trkpt>
      <trkpt lat="45.98752" lon="4.55993">
        <ele>626.2</ele>
        <time>1970-01-01T01:02:09.000Z</time>
      </trkpt>
      <trkpt lat="45.98753" lon="4.55994">
        <ele>626.3</ele>
        <time>1970-01-01T01:02:10.000Z</time>
      </trkpt>
      <trkpt lat="45.98753" lon="4.55995">
        <ele>626.4</ele>
        <time>1970-01-01T01:02:11.000Z</time>
      </trkpt>
      <trkpt lat="45.98754" lon="4.55996">
        <ele>626.4</ele>
        <time>1970-01-01T01:02:12.000Z</time>
      </trkpt>
      <trkpt lat="45.98755" lon="4.55998">
        <ele>626.5</ele>
        <time>1970-01-01T01:02:13.000Z</time>
      </trkpt>
      <trkpt lat="45.98756" lon="4.55999">
        <ele>626.6</ele>
        <time>1970-01-01T01:02:14.000Z</time>
      </trkpt>
      <trkpt lat="45.98757" lon="4.56">
        <ele>626.6</ele>
        <time>1970-01-01T01:02:15.000Z</time>
      </trkpt>
      <trkpt lat="45.98757" lon="4.56001">
        <ele>626.7</ele>
        <time>1970-01-01T01:02:16.000Z</time>
      </trkpt>
      <trkpt lat="45.98757" lon="4.56001">
        <ele>626.7</ele>
        <time>1970-01-01T01:02:17.000Z</time>
      </trkpt>
      <trkpt lat="45.98757" lon="4.56001">
        <ele>626.7</ele>
        <time>1970-01-01T01:02:18.000Z</time>
      </trkpt>
      <trkpt lat="45.98757" lon="4.56001">
        <ele>626.7</ele>
        <time>1970-01-01T01:02:19.000Z</time>
      </trkpt>
      <trkpt lat="45.9876" lon="4.56002">
        <ele>626.9</ele>
        <time>1970-01-01T01:02:20.000Z</time>
      </trkpt>
      <trkpt lat="45.9876" lon="4.56002">
        <ele>626.9</ele>
        <time>1970-01-01T01:02:21.000Z</time>
      </trkpt>
      <trkpt lat="45.98762" lon="4.56005">
        <ele>627.1</ele>
        <time>1970-01-01T01:02:22.000Z</time>
      </trkpt>
      <trkpt lat="45.98763" lon="4.56007">
        <ele>627.2</ele>
        <time>1970-01-01T01:02:23.000Z</time>
      </trkpt>
      <trkpt lat="45.98763" lon="4.56007">
        <ele>627.2</ele>
        <time>1970-01-01T01:02:24.000Z</time>
      </trkpt>
      <trkpt lat="45.98766" lon="4.56009">
        <ele>627.4</ele>
        <time>1970-01-01T01:02:25.000Z</time>
      </trkpt>
      <trkpt lat="45.98766" lon="4.56009">
        <ele>627.4</ele>
        <time>1970-01-01T01:02:26.000Z</time>
      </trkpt>
      <trkpt lat="45.98767" lon="4.56011">
        <ele>627.5</ele>
        <time>1970-01-01T01:02:27.000Z</time>
      </trkpt>
      <trkpt lat="45.98767" lon="4.56011">
        <ele>627.5</ele>
        <time>1970-01-01T01:02:28.000Z</time>
      </trkpt>
      <trkpt lat="45.98771" lon="4.56014">
        <ele>627.7</ele>
        <time>1970-01-01T01:02:29.000Z</time>
      </trkpt>
      <trkpt lat="45.98771" lon="4.56014">
        <ele>627.7</ele>
        <time>1970-01-01T01:02:30.000Z</time>
      </trkpt>
      <trkpt lat="45.98773" lon="4.56017">
        <ele>627.9</ele>
        <time>1970-01-01T01:02:31.000Z</time>
      </trkpt>
      <trkpt lat="45.98773" lon="4.56017">
        <ele>627.9</ele>
        <time>1970-01-01T01:02:32.000Z</time>
      </trkpt>
      <trkpt lat="45.98775" lon="4.56019">
        <ele>628</ele>
        <time>1970-01-01T01:02:33.000Z</time>
      </trkpt>
      <trkpt lat="45.98775" lon="4.56019">
        <ele>628</ele>
        <time>1970-01-01T01:02:34.000Z</time>
      </trkpt>
      <trkpt lat="45.98778" lon="4.56022">
        <ele>628.2</ele>
        <time>1970-01-01T01:02:35.000Z</time>
      </trkpt>
      <trkpt lat="45.98778" lon="4.56022">
        <ele>628.2</ele>
        <time>1970-01-01T01:02:36.000Z</time>
      </trkpt>
      <trkpt lat="45.98781" lon="4.56025">
        <ele>628.3</ele>
        <time>1970-01-01T01:02:37.000Z</time>
      </trkpt>
      <trkpt lat="45.98781" lon="4.56025">
        <ele>628.3</ele>
        <time>1970-01-01T01:02:38.000Z</time>
      </trkpt>
      <trkpt lat="45.98783" lon="4.56027">
        <ele>628.5</ele>
        <time>1970-01-01T01:02:39.000Z</time>
      </trkpt>
      <trkpt lat="45.98785" lon="4.56029">
        <ele>628.6</ele>
        <time>1970-01-01T01:02:40.000Z</time>
      </trkpt>
      <trkpt lat="45.98785" lon="4.56029">
        <ele>628.6</ele>
        <time>1970-01-01T01:02:41.000Z</time>
      </trkpt>
      <trkpt lat="45.98787" lon="4.56031">
        <ele>628.7</ele>
        <time>1970-01-01T01:02:42.000Z</time>
      </trkpt>
      <trkpt lat="45.98787" lon="4.56031">
        <ele>628.7</ele>
        <time>1970-01-01T01:02:43.000Z</time>
      </trkpt>
      <trkpt lat="45.98789" lon="4.56033">
        <ele>628.8</ele>
        <time>1970-01-01T01:02:44.000Z</time>
      </trkpt>
      <trkpt lat="45.98789" lon="4.56033">
        <ele>628.8</ele>
        <time>1970-01-01T01:02:45.000Z</time>
      </trkpt>
      <trkpt lat="45.98791" lon="4.56035">
        <ele>629</ele>
        <time>1970-01-01T01:02:46.000Z</time>
      </trkpt>
      <trkpt lat="45.98791" lon="4.56035">
        <ele>629</ele>
        <time>1970-01-01T01:02:47.000Z</time>
      </trkpt>
      <trkpt lat="45.98793" lon="4.56037">
        <ele>629.1</ele>
        <time>1970-01-01T01:02:48.000Z</time>
      </trkpt>
      <trkpt lat="45.98793" lon="4.56037">
        <ele>629.1</ele>
        <time>1970-01-01T01:02:49.000Z</time>
      </trkpt>
      <trkpt lat="45.98795" lon="4.56039">
        <ele>629.2</ele>
        <time>1970-01-01T01:02:50.000Z</time>
      </trkpt>
      <trkpt lat="45.98795" lon="4.56039">
        <ele>629.2</ele>
        <time>1970-01-01T01:02:51.000Z</time>
      </trkpt>
      <trkpt lat="45.98797" lon="4.56041">
        <ele>629.4</ele>
        <time>1970-01-01T01:02:52.000Z</time>
      </trkpt>
      <trkpt lat="45.98797" lon="4.56041">
        <ele>629.4</ele>
        <time>1970-01-01T01:02:53.000Z</time>
      </trkpt>
      <trkpt lat="45.98799" lon="4.56043">
        <ele>629.5</ele>
        <time>1970-01-01T01:02:54.000Z</time>
      </trkpt>
      <trkpt lat="45.98799" lon="4.56043">
        <ele>629.5</ele>
        <time>1970-01-01T01:02:55.000Z</time>
      </trkpt>
      <trkpt lat="45.98801" lon="4.56045">
        <ele>629.7</ele>
        <time>1970-01-01T01:02:56.000Z</time>
      </trkpt>
      <trkpt lat="45.98801" lon="4.56045">
        <ele>629.7</ele>
        <time>1970-01-01T01:02:57.000Z</time>
      </trkpt>
      <trkpt lat="45.98803" lon="4.56047">
        <ele>629.8</ele>
        <time>1970-01-01T01:02:58.000Z</time>
      </trkpt>
      <trkpt lat="45.98803" lon="4.56047">
        <ele>629.8</ele>
        <time>1970-01-01T01:02:59.000Z</time>
      </trkpt>
      <trkpt lat="45.98804" lon="4.56049">
        <ele>630</ele>
        <time>1970-01-01T01:03:00.000Z</time>
      </trkpt>
      <trkpt lat="45.98804" lon="4.56049">
        <ele>630</ele>
        <time>1970-01-01T01:03:01.000Z</time>
      </trkpt>
      <trkpt lat="45.98806" lon="4.56051">
        <ele>630.1</ele>
        <time>1970-01-01T01:03:02.000Z</time>
      </trkpt>
      <trkpt lat="45.98806" lon="4.56051">
        <ele>630.1</ele>
        <time>1970-01-01T01:03:03.000Z</time>
      </trkpt>
      <trkpt lat="45.98808" lon="4.56055">
        <ele>630.3</ele>
        <time>1970-01-01T01:03:04.000Z</time>
      </trkpt>
      <trkpt lat="45.9881" lon="4.56056">
        <ele>630.4</ele>
        <time>1970-01-01T01:03:05.000Z</time>
      </trkpt>
      <trkpt lat="45.9881" lon="4.56056">
        <ele>630.4</ele>
        <time>1970-01-01T01:03:06.000Z</time>
      </trkpt>
      <trkpt lat="45.98811" lon="4.56058">
        <ele>630.6</ele>
        <time>1970-01-01T01:03:07.000Z</time>
      </trkpt>
      <trkpt lat="45.98811" lon="4.56058">
        <ele>630.6</ele>
        <time>1970-01-01T01:03:08.000Z</time>
      </trkpt>
      <trkpt lat="45.98813" lon="4.5606">
        <ele>630.7</ele>
        <time>1970-01-01T01:03:09.000Z</time>
      </trkpt>
      <trkpt lat="45.98813" lon="4.5606">
        <ele>630.7</ele>
        <time>1970-01-01T01:03:10.000Z</time>
      </trkpt>
      <trkpt lat="45.98815" lon="4.56063">
        <ele>630.9</ele>
        <time>1970-01-01T01:03:11.000Z</time>
      </trkpt>
      <trkpt lat="45.98817" lon="4.56064">
        <ele>631</ele>
        <time>1970-01-01T01:03:12.000Z</time>
      </trkpt>
      <trkpt lat="45.98818" lon="4.56066">
        <ele>631.1</ele>
        <time>1970-01-01T01:03:13.000Z</time>
      </trkpt>
      <trkpt lat="45.9882" lon="4.56068">
        <ele>631.2</ele>
        <time>1970-01-01T01:03:14.000Z</time>
      </trkpt>
      <trkpt lat="45.9882" lon="4.56068">
        <ele>631.2</ele>
        <time>1970-01-01T01:03:15.000Z</time>
      </trkpt>
      <trkpt lat="45.98822" lon="4.56071">
        <ele>631.4</ele>
        <time>1970-01-01T01:03:16.000Z</time>
      </trkpt>
      <trkpt lat="45.98822" lon="4.56071">
        <ele>631.4</ele>
        <time>1970-01-01T01:03:17.000Z</time>
      </trkpt>
      <trkpt lat="45.98822" lon="4.56074">
        <ele>631.5</ele>
        <time>1970-01-01T01:03:18.000Z</time>
      </trkpt>
      <trkpt lat="45.98822" lon="4.56074">
        <ele>631.5</ele>
        <time>1970-01-01T01:03:19.000Z</time>
      </trkpt>
      <trkpt lat="45.98823" lon="4.56077">
        <ele>631.6</ele>
        <time>1970-01-01T01:03:20.000Z</time>
      </trkpt>
      <trkpt lat="45.98823" lon="4.56077">
        <ele>631.6</ele>
        <time>1970-01-01T01:03:21.000Z</time>
      </trkpt>
      <trkpt lat="45.98825" lon="4.56078">
        <ele>631.7</ele>
        <time>1970-01-01T01:03:22.000Z</time>
      </trkpt>
      <trkpt lat="45.98825" lon="4.56078">
        <ele>631.7</ele>
        <time>1970-01-01T01:03:23.000Z</time>
      </trkpt>
      <trkpt lat="45.98827" lon="4.5608">
        <ele>631.8</ele>
        <time>1970-01-01T01:03:24.000Z</time>
      </trkpt>
      <trkpt lat="45.98827" lon="4.5608">
        <ele>631.8</ele>
        <time>1970-01-01T01:03:25.000Z</time>
      </trkpt>
      <trkpt lat="45.98827" lon="4.5608">
        <ele>631.8</ele>
        <time>1970-01-01T01:03:26.000Z</time>
      </trkpt>
      <trkpt lat="45.98829" lon="4.56084">
        <ele>631.9</ele>
        <time>1970-01-01T01:03:27.000Z</time>
      </trkpt>
      <trkpt lat="45.98829" lon="4.56084">
        <ele>631.9</ele>
        <time>1970-01-01T01:03:28.000Z</time>
      </trkpt>
      <trkpt lat="45.9883" lon="4.56086">
        <ele>632.1</ele>
        <time>1970-01-01T01:03:29.000Z</time>
      </trkpt>
      <trkpt lat="45.9883" lon="4.56086">
        <ele>632.1</ele>
        <time>1970-01-01T01:03:30.000Z</time>
      </trkpt>
      <trkpt lat="45.98831" lon="4.56089">
        <ele>632.2</ele>
        <time>1970-01-01T01:03:31.000Z</time>
      </trkpt>
      <trkpt lat="45.98831" lon="4.56089">
        <ele>632.2</ele>
        <time>1970-01-01T01:03:32.000Z</time>
      </trkpt>
      <trkpt lat="45.98833" lon="4.56091">
        <ele>632.3</ele>
        <time>1970-01-01T01:03:33.000Z</time>
      </trkpt>
      <trkpt lat="45.98833" lon="4.56091">
        <ele>632.3</ele>
        <time>1970-01-01T01:03:34.000Z</time>
      </trkpt>
      <trkpt lat="45.98833" lon="4.56091">
        <ele>632.3</ele>
        <time>1970-01-01T01:03:35.000Z</time>
      </trkpt>
      <trkpt lat="45.98835" lon="4.56094">
        <ele>632.4</ele>
        <time>1970-01-01T01:03:36.000Z</time>
      </trkpt>
      <trkpt lat="45.98835" lon="4.56094">
        <ele>632.4</ele>
        <time>1970-01-01T01:03:37.000Z</time>
      </trkpt>
      <trkpt lat="45.98838" lon="4.56096">
        <ele>632.6</ele>
        <time>1970-01-01T01:03:38.000Z</time>
      </trkpt>
      <trkpt lat="45.98838" lon="4.56096">
        <ele>632.6</ele>
        <time>1970-01-01T01:03:39.000Z</time>
      </trkpt>
      <trkpt lat="45.9884" lon="4.56099">
        <ele>632.7</ele>
        <time>1970-01-01T01:03:40.000Z</time>
      </trkpt>
      <trkpt lat="45.9884" lon="4.56099">
        <ele>632.7</ele>
        <time>1970-01-01T01:03:41.000Z</time>
      </trkpt>
      <trkpt lat="45.98843" lon="4.56101">
        <ele>632.9</ele>
        <time>1970-01-01T01:03:42.000Z</time>
      </trkpt>
      <trkpt lat="45.98843" lon="4.56101">
        <ele>632.9</ele>
        <time>1970-01-01T01:03:43.000Z</time>
      </trkpt>
      <trkpt lat="45.98845" lon="4.56104">
        <ele>633.1</ele>
        <time>1970-01-01T01:03:44.000Z</time>
      </trkpt>
      <trkpt lat="45.98847" lon="4.56106">
        <ele>633.3</ele>
        <time>1970-01-01T01:03:46.000Z</time>
      </trkpt>
      <trkpt lat="45.98849" lon="4.56108">
        <ele>633.4</ele>
        <time>1970-01-01T01:03:48.000Z</time>
      </trkpt>
      <trkpt lat="45.98849" lon="4.56108">
        <ele>633.4</ele>
        <time>1970-01-01T01:03:49.000Z</time>
      </trkpt>
      <trkpt lat="45.98851" lon="4.5611">
        <ele>633.6</ele>
        <time>1970-01-01T01:03:50.000Z</time>
      </trkpt>
      <trkpt lat="45.98851" lon="4.5611">
        <ele>633.6</ele>
        <time>1970-01-01T01:03:51.000Z</time>
      </trkpt>
      <trkpt lat="45.98852" lon="4.56112">
        <ele>633.8</ele>
        <time>1970-01-01T01:03:52.000Z</time>
      </trkpt>
      <trkpt lat="45.98852" lon="4.56112">
        <ele>633.8</ele>
        <time>1970-01-01T01:03:53.000Z</time>
      </trkpt>
      <trkpt lat="45.98853" lon="4.56114">
        <ele>633.9</ele>
        <time>1970-01-01T01:03:54.000Z</time>
      </trkpt>
      <trkpt lat="45.98853" lon="4.56114">
        <ele>633.9</ele>
        <time>1970-01-01T01:03:55.000Z</time>
      </trkpt>
      <trkpt lat="45.98855" lon="4.56116">
        <ele>634.1</ele>
        <time>1970-01-01T01:03:56.000Z</time>
      </trkpt>
      <trkpt lat="45.98855" lon="4.56116">
        <ele>634.1</ele>
        <time>1970-01-01T01:03:57.000Z</time>
      </trkpt>
      <trkpt lat="45.98856" lon="4.56118">
        <ele>634.3</ele>
        <time>1970-01-01T01:03:58.000Z</time>
      </trkpt>
      <trkpt lat="45.98856" lon="4.56118">
        <ele>634.3</ele>
        <time>1970-01-01T01:03:59.000Z</time>
      </trkpt>
      <trkpt lat="45.98858" lon="4.5612">
        <ele>634.5</ele>
        <time>1970-01-01T01:04:00.000Z</time>
      </trkpt>
      <trkpt lat="45.98858" lon="4.5612">
        <ele>634.5</ele>
        <time>1970-01-01T01:04:01.000Z</time>
      </trkpt>
      <trkpt lat="45.9886" lon="4.56122">
        <ele>634.7</ele>
        <time>1970-01-01T01:04:02.000Z</time>
      </trkpt>
      <trkpt lat="45.9886" lon="4.56122">
        <ele>634.7</ele>
        <time>1970-01-01T01:04:03.000Z</time>
      </trkpt>
      <trkpt lat="45.98863" lon="4.56125">
        <ele>635</ele>
        <time>1970-01-01T01:04:04.000Z</time>
      </trkpt>
      <trkpt lat="45.98863" lon="4.56125">
        <ele>635</ele>
        <time>1970-01-01T01:04:05.000Z</time>
      </trkpt>
      <trkpt lat="45.98865" lon="4.56127">
        <ele>635.2</ele>
        <time>1970-01-01T01:04:06.000Z</time>
      </trkpt>
      <trkpt lat="45.98865" lon="4.56127">
        <ele>635.2</ele>
        <time>1970-01-01T01:04:07.000Z</time>
      </trkpt>
      <trkpt lat="45.98867" lon="4.56129">
        <ele>635.4</ele>
        <time>1970-01-01T01:04:08.000Z</time>
      </trkpt>
      <trkpt lat="45.98867" lon="4.56129">
        <ele>635.4</ele>
        <time>1970-01-01T01:04:09.000Z</time>
      </trkpt>
      <trkpt lat="45.98868" lon="4.56131">
        <ele>635.6</ele>
        <time>1970-01-01T01:04:10.000Z</time>
      </trkpt>
      <trkpt lat="45.98868" lon="4.56131">
        <ele>635.6</ele>
        <time>1970-01-01T01:04:11.000Z</time>
      </trkpt>
      <trkpt lat="45.98868" lon="4.56131">
        <ele>635.6</ele>
        <time>1970-01-01T01:04:12.000Z</time>
      </trkpt>
      <trkpt lat="45.9887" lon="4.56133">
        <ele>635.9</ele>
        <time>1970-01-01T01:04:13.000Z</time>
      </trkpt>
      <trkpt lat="45.9887" lon="4.56133">
        <ele>635.9</ele>
        <time>1970-01-01T01:04:14.000Z</time>
      </trkpt>
      <trkpt lat="45.98872" lon="4.56136">
        <ele>636.1</ele>
        <time>1970-01-01T01:04:15.000Z</time>
      </trkpt>
      <trkpt lat="45.98872" lon="4.56136">
        <ele>636.1</ele>
        <time>1970-01-01T01:04:16.000Z</time>
      </trkpt>
      <trkpt lat="45.98872" lon="4.56136">
        <ele>636.1</ele>
        <time>1970-01-01T01:04:17.000Z</time>
      </trkpt>
      <trkpt lat="45.98874" lon="4.56138">
        <ele>636.4</ele>
        <time>1970-01-01T01:04:18.000Z</time>
      </trkpt>
      <trkpt lat="45.98874" lon="4.56138">
        <ele>636.4</ele>
        <time>1970-01-01T01:04:19.000Z</time>
      </trkpt>
      <trkpt lat="45.98874" lon="4.56138">
        <ele>636.4</ele>
        <time>1970-01-01T01:04:20.000Z</time>
      </trkpt>
      <trkpt lat="45.98874" lon="4.56138">
        <ele>636.4</ele>
        <time>1970-01-01T01:04:21.000Z</time>
      </trkpt>
      <trkpt lat="45.98876" lon="4.5614">
        <ele>636.7</ele>
        <time>1970-01-01T01:04:22.000Z</time>
      </trkpt>
      <trkpt lat="45.98876" lon="4.5614">
        <ele>636.7</ele>
        <time>1970-01-01T01:04:23.000Z</time>
      </trkpt>
      <trkpt lat="45.98878" lon="4.56142">
        <ele>636.9</ele>
        <time>1970-01-01T01:04:24.000Z</time>
      </trkpt>
      <trkpt lat="45.98878" lon="4.56142">
        <ele>636.9</ele>
        <time>1970-01-01T01:04:25.000Z</time>
      </trkpt>
      <trkpt lat="45.9888" lon="4.56145">
        <ele>637.3</ele>
        <time>1970-01-01T01:04:26.000Z</time>
      </trkpt>
      <trkpt lat="45.9888" lon="4.56145">
        <ele>637.3</ele>
        <time>1970-01-01T01:04:27.000Z</time>
      </trkpt>
      <trkpt lat="45.98882" lon="4.56146">
        <ele>637.6</ele>
        <time>1970-01-01T01:04:28.000Z</time>
      </trkpt>
      <trkpt lat="45.98882" lon="4.56146">
        <ele>637.6</ele>
        <time>1970-01-01T01:04:29.000Z</time>
      </trkpt>
      <trkpt lat="45.98885" lon="4.56148">
        <ele>637.9</ele>
        <time>1970-01-01T01:04:30.000Z</time>
      </trkpt>
      <trkpt lat="45.98885" lon="4.56148">
        <ele>637.9</ele>
        <time>1970-01-01T01:04:31.000Z</time>
      </trkpt>
      <trkpt lat="45.98888" lon="4.56149">
        <ele>638.3</ele>
        <time>1970-01-01T01:04:32.000Z</time>
      </trkpt>
      <trkpt lat="45.98888" lon="4.56149">
        <ele>638.3</ele>
        <time>1970-01-01T01:04:33.000Z</time>
      </trkpt>
      <trkpt lat="45.9889" lon="4.56149">
        <ele>638.6</ele>
        <time>1970-01-01T01:04:34.000Z</time>
      </trkpt>
      <trkpt lat="45.9889" lon="4.56149">
        <ele>638.6</ele>
        <time>1970-01-01T01:04:35.000Z</time>
      </trkpt>
      <trkpt lat="45.98893" lon="4.5615">
        <ele>638.9</ele>
        <time>1970-01-01T01:04:36.000Z</time>
      </trkpt>
      <trkpt lat="45.98893" lon="4.5615">
        <ele>638.9</ele>
        <time>1970-01-01T01:04:37.000Z</time>
      </trkpt>
      <trkpt lat="45.98895" lon="4.5615">
        <ele>639.2</ele>
        <time>1970-01-01T01:04:38.000Z</time>
      </trkpt>
      <trkpt lat="45.98895" lon="4.5615">
        <ele>639.2</ele>
        <time>1970-01-01T01:04:39.000Z</time>
      </trkpt>
      <trkpt lat="45.98898" lon="4.56149">
        <ele>639.5</ele>
        <time>1970-01-01T01:04:40.000Z</time>
      </trkpt>
      <trkpt lat="45.98898" lon="4.56149">
        <ele>639.5</ele>
        <time>1970-01-01T01:04:41.000Z</time>
      </trkpt>
      <trkpt lat="45.989" lon="4.56149">
        <ele>639.8</ele>
        <time>1970-01-01T01:04:42.000Z</time>
      </trkpt>
      <trkpt lat="45.989" lon="4.56149">
        <ele>639.8</ele>
        <time>1970-01-01T01:04:43.000Z</time>
      </trkpt>
      <trkpt lat="45.98902" lon="4.56148">
        <ele>640</ele>
        <time>1970-01-01T01:04:44.000Z</time>
      </trkpt>
      <trkpt lat="45.98902" lon="4.56148">
        <ele>640</ele>
        <time>1970-01-01T01:04:45.000Z</time>
      </trkpt>
      <trkpt lat="45.98905" lon="4.56146">
        <ele>640.3</ele>
        <time>1970-01-01T01:04:46.000Z</time>
      </trkpt>
      <trkpt lat="45.98905" lon="4.56146">
        <ele>640.3</ele>
        <time>1970-01-01T01:04:47.000Z</time>
      </trkpt>
      <trkpt lat="45.98906" lon="4.56144">
        <ele>640.6</ele>
        <time>1970-01-01T01:04:48.000Z</time>
      </trkpt>
      <trkpt lat="45.98906" lon="4.56144">
        <ele>640.6</ele>
        <time>1970-01-01T01:04:49.000Z</time>
      </trkpt>
      <trkpt lat="45.98908" lon="4.56143">
        <ele>640.8</ele>
        <time>1970-01-01T01:04:50.000Z</time>
      </trkpt>
      <trkpt lat="45.98908" lon="4.56143">
        <ele>640.8</ele>
        <time>1970-01-01T01:04:51.000Z</time>
      </trkpt>
      <trkpt lat="45.9891" lon="4.56141">
        <ele>641</ele>
        <time>1970-01-01T01:04:52.000Z</time>
      </trkpt>
      <trkpt lat="45.9891" lon="4.56141">
        <ele>641</ele>
        <time>1970-01-01T01:04:53.000Z</time>
      </trkpt>
      <trkpt lat="45.98913" lon="4.56139">
        <ele>641.3</ele>
        <time>1970-01-01T01:04:54.000Z</time>
      </trkpt>
      <trkpt lat="45.98913" lon="4.56139">
        <ele>641.3</ele>
        <time>1970-01-01T01:04:55.000Z</time>
      </trkpt>
      <trkpt lat="45.98914" lon="4.56137">
        <ele>641.5</ele>
        <time>1970-01-01T01:04:56.000Z</time>
      </trkpt>
      <trkpt lat="45.98914" lon="4.56137">
        <ele>641.5</ele>
        <time>1970-01-01T01:04:57.000Z</time>
      </trkpt>
      <trkpt lat="45.98916" lon="4.56135">
        <ele>641.8</ele>
        <time>1970-01-01T01:04:58.000Z</time>
      </trkpt>
      <trkpt lat="45.98916" lon="4.56135">
        <ele>641.8</ele>
        <time>1970-01-01T01:04:59.000Z</time>
      </trkpt>
      <trkpt lat="45.98917" lon="4.56133">
        <ele>642</ele>
        <time>1970-01-01T01:05:00.000Z</time>
      </trkpt>
      <trkpt lat="45.98917" lon="4.56133">
        <ele>642</ele>
        <time>1970-01-01T01:05:01.000Z</time>
      </trkpt>
      <trkpt lat="45.98919" lon="4.5613">
        <ele>642.3</ele>
        <time>1970-01-01T01:05:02.000Z</time>
      </trkpt>
      <trkpt lat="45.98919" lon="4.5613">
        <ele>642.3</ele>
        <time>1970-01-01T01:05:03.000Z</time>
      </trkpt>
      <trkpt lat="45.98921" lon="4.56127">
        <ele>642.6</ele>
        <time>1970-01-01T01:05:04.000Z</time>
      </trkpt>
      <trkpt lat="45.98921" lon="4.56127">
        <ele>642.6</ele>
        <time>1970-01-01T01:05:05.000Z</time>
      </trkpt>
      <trkpt lat="45.98923" lon="4.56125">
        <ele>642.8</ele>
        <time>1970-01-01T01:05:06.000Z</time>
      </trkpt>
      <trkpt lat="45.98923" lon="4.56125">
        <ele>642.8</ele>
        <time>1970-01-01T01:05:07.000Z</time>
      </trkpt>
      <trkpt lat="45.98925" lon="4.56123">
        <ele>643.1</ele>
        <time>1970-01-01T01:05:08.000Z</time>
      </trkpt>
      <trkpt lat="45.98925" lon="4.56123">
        <ele>643.1</ele>
        <time>1970-01-01T01:05:09.000Z</time>
      </trkpt>
      <trkpt lat="45.98926" lon="4.5612">
        <ele>643.4</ele>
        <time>1970-01-01T01:05:10.000Z</time>
      </trkpt>
      <trkpt lat="45.98926" lon="4.5612">
        <ele>643.4</ele>
        <time>1970-01-01T01:05:11.000Z</time>
      </trkpt>
      <trkpt lat="45.98928" lon="4.56118">
        <ele>643.7</ele>
        <time>1970-01-01T01:05:12.000Z</time>
      </trkpt>
      <trkpt lat="45.98928" lon="4.56118">
        <ele>643.7</ele>
        <time>1970-01-01T01:05:13.000Z</time>
      </trkpt>
      <trkpt lat="45.9893" lon="4.56116">
        <ele>644</ele>
        <time>1970-01-01T01:05:14.000Z</time>
      </trkpt>
      <trkpt lat="45.9893" lon="4.56116">
        <ele>644</ele>
        <time>1970-01-01T01:05:15.000Z</time>
      </trkpt>
      <trkpt lat="45.98931" lon="4.56114">
        <ele>644.3</ele>
        <time>1970-01-01T01:05:16.000Z</time>
      </trkpt>
      <trkpt lat="45.98931" lon="4.56114">
        <ele>644.3</ele>
        <time>1970-01-01T01:05:17.000Z</time>
      </trkpt>
      <trkpt lat="45.98933" lon="4.56113">
        <ele>644.6</ele>
        <time>1970-01-01T01:05:18.000Z</time>
      </trkpt>
      <trkpt lat="45.98933" lon="4.56113">
        <ele>644.6</ele>
        <time>1970-01-01T01:05:19.000Z</time>
      </trkpt>
      <trkpt lat="45.98936" lon="4.56113">
        <ele>644.9</ele>
        <time>1970-01-01T01:05:20.000Z</time>
      </trkpt>
      <trkpt lat="45.98936" lon="4.56113">
        <ele>644.9</ele>
        <time>1970-01-01T01:05:21.000Z</time>
      </trkpt>
      <trkpt lat="45.98938" lon="4.56113">
        <ele>645.3</ele>
        <time>1970-01-01T01:05:22.000Z</time>
      </trkpt>
      <trkpt lat="45.98938" lon="4.56113">
        <ele>645.3</ele>
        <time>1970-01-01T01:05:23.000Z</time>
      </trkpt>
      <trkpt lat="45.9894" lon="4.56114">
        <ele>645.7</ele>
        <time>1970-01-01T01:05:24.000Z</time>
      </trkpt>
      <trkpt lat="45.9894" lon="4.56114">
        <ele>645.7</ele>
        <time>1970-01-01T01:05:25.000Z</time>
      </trkpt>
      <trkpt lat="45.98943" lon="4.56114">
        <ele>646.1</ele>
        <time>1970-01-01T01:05:26.000Z</time>
      </trkpt>
      <trkpt lat="45.98943" lon="4.56114">
        <ele>646.1</ele>
        <time>1970-01-01T01:05:27.000Z</time>
      </trkpt>
      <trkpt lat="45.98945" lon="4.56114">
        <ele>646.5</ele>
        <time>1970-01-01T01:05:28.000Z</time>
      </trkpt>
      <trkpt lat="45.98945" lon="4.56114">
        <ele>646.5</ele>
        <time>1970-01-01T01:05:29.000Z</time>
      </trkpt>
      <trkpt lat="45.98947" lon="4.56114">
        <ele>646.9</ele>
        <time>1970-01-01T01:05:30.000Z</time>
      </trkpt>
      <trkpt lat="45.98947" lon="4.56114">
        <ele>646.9</ele>
        <time>1970-01-01T01:05:31.000Z</time>
      </trkpt>
      <trkpt lat="45.98949" lon="4.56116">
        <ele>647.2</ele>
        <time>1970-01-01T01:05:32.000Z</time>
      </trkpt>
      <trkpt lat="45.98949" lon="4.56116">
        <ele>647.2</ele>
        <time>1970-01-01T01:05:33.000Z</time>
      </trkpt>
      <trkpt lat="45.98949" lon="4.56116">
        <ele>647.2</ele>
        <time>1970-01-01T01:05:34.000Z</time>
      </trkpt>
      <trkpt lat="45.98951" lon="4.56117">
        <ele>647.6</ele>
        <time>1970-01-01T01:05:35.000Z</time>
      </trkpt>
      <trkpt lat="45.98951" lon="4.56117">
        <ele>647.6</ele>
        <time>1970-01-01T01:05:36.000Z</time>
      </trkpt>
      <trkpt lat="45.98953" lon="4.56117">
        <ele>648</ele>
        <time>1970-01-01T01:05:37.000Z</time>
      </trkpt>
      <trkpt lat="45.98953" lon="4.56117">
        <ele>648</ele>
        <time>1970-01-01T01:05:38.000Z</time>
      </trkpt>
      <trkpt lat="45.98956" lon="4.56118">
        <ele>648.6</ele>
        <time>1970-01-01T01:05:39.000Z</time>
      </trkpt>
      <trkpt lat="45.98956" lon="4.56118">
        <ele>648.6</ele>
        <time>1970-01-01T01:05:40.000Z</time>
      </trkpt>
      <trkpt lat="45.98959" lon="4.56118">
        <ele>649.1</ele>
        <time>1970-01-01T01:05:41.000Z</time>
      </trkpt>
      <trkpt lat="45.98959" lon="4.56118">
        <ele>649.1</ele>
        <time>1970-01-01T01:05:42.000Z</time>
      </trkpt>
      <trkpt lat="45.98961" lon="4.56118">
        <ele>649.5</ele>
        <time>1970-01-01T01:05:43.000Z</time>
      </trkpt>
      <trkpt lat="45.98961" lon="4.56118">
        <ele>649.5</ele>
        <time>1970-01-01T01:05:44.000Z</time>
      </trkpt>
      <trkpt lat="45.98963" lon="4.56117">
        <ele>649.9</ele>
        <time>1970-01-01T01:05:45.000Z</time>
      </trkpt>
      <trkpt lat="45.98963" lon="4.56117">
        <ele>649.9</ele>
        <time>1970-01-01T01:05:46.000Z</time>
      </trkpt>
      <trkpt lat="45.98965" lon="4.56116">
        <ele>650.2</ele>
        <time>1970-01-01T01:05:47.000Z</time>
      </trkpt>
      <trkpt lat="45.98965" lon="4.56116">
        <ele>650.2</ele>
        <time>1970-01-01T01:05:48.000Z</time>
      </trkpt>
      <trkpt lat="45.98968" lon="4.56115">
        <ele>650.7</ele>
        <time>1970-01-01T01:05:49.000Z</time>
      </trkpt>
      <trkpt lat="45.98968" lon="4.56115">
        <ele>650.7</ele>
        <time>1970-01-01T01:05:50.000Z</time>
      </trkpt>
      <trkpt lat="45.98969" lon="4.56114">
        <ele>651</ele>
        <time>1970-01-01T01:05:51.000Z</time>
      </trkpt>
      <trkpt lat="45.98969" lon="4.56114">
        <ele>651</ele>
        <time>1970-01-01T01:05:52.000Z</time>
      </trkpt>
      <trkpt lat="45.98969" lon="4.56114">
        <ele>651</ele>
        <time>1970-01-01T01:05:53.000Z</time>
      </trkpt>
      <trkpt lat="45.98972" lon="4.56114">
        <ele>651.5</ele>
        <time>1970-01-01T01:05:54.000Z</time>
      </trkpt>
      <trkpt lat="45.98972" lon="4.56114">
        <ele>651.5</ele>
        <time>1970-01-01T01:05:55.000Z</time>
      </trkpt>
      <trkpt lat="45.98974" lon="4.56115">
        <ele>651.9</ele>
        <time>1970-01-01T01:05:56.000Z</time>
      </trkpt>
      <trkpt lat="45.98974" lon="4.56115">
        <ele>651.9</ele>
        <time>1970-01-01T01:05:57.000Z</time>
      </trkpt>
      <trkpt lat="45.98977" lon="4.56114">
        <ele>652.3</ele>
        <time>1970-01-01T01:05:58.000Z</time>
      </trkpt>
      <trkpt lat="45.98977" lon="4.56114">
        <ele>652.3</ele>
        <time>1970-01-01T01:05:59.000Z</time>
      </trkpt>
      <trkpt lat="45.98978" lon="4.56113">
        <ele>652.6</ele>
        <time>1970-01-01T01:06:00.000Z</time>
      </trkpt>
      <trkpt lat="45.98978" lon="4.56113">
        <ele>652.6</ele>
        <time>1970-01-01T01:06:01.000Z</time>
      </trkpt>
      <trkpt lat="45.98978" lon="4.56113">
        <ele>652.6</ele>
        <time>1970-01-01T01:06:02.000Z</time>
      </trkpt>
      <trkpt lat="45.9898" lon="4.56111">
        <ele>653</ele>
        <time>1970-01-01T01:06:03.000Z</time>
      </trkpt>
      <trkpt lat="45.9898" lon="4.56111">
        <ele>653</ele>
        <time>1970-01-01T01:06:04.000Z</time>
      </trkpt>
      <trkpt lat="45.9898" lon="4.56111">
        <ele>653</ele>
        <time>1970-01-01T01:06:05.000Z</time>
      </trkpt>
      <trkpt lat="45.98983" lon="4.56111">
        <ele>653.5</ele>
        <time>1970-01-01T01:06:06.000Z</time>
      </trkpt>
      <trkpt lat="45.98983" lon="4.56111">
        <ele>653.5</ele>
        <time>1970-01-01T01:06:07.000Z</time>
      </trkpt>
      <trkpt lat="45.98985" lon="4.56111">
        <ele>653.8</ele>
        <time>1970-01-01T01:06:08.000Z</time>
      </trkpt>
      <trkpt lat="45.98985" lon="4.56111">
        <ele>653.8</ele>
        <time>1970-01-01T01:06:09.000Z</time>
      </trkpt>
      <trkpt lat="45.98988" lon="4.5611">
        <ele>654.2</ele>
        <time>1970-01-01T01:06:10.000Z</time>
      </trkpt>
      <trkpt lat="45.98989" lon="4.5611">
        <ele>654.4</ele>
        <time>1970-01-01T01:06:11.000Z</time>
      </trkpt>
      <trkpt lat="45.9899" lon="4.5611">
        <ele>654.5</ele>
        <time>1970-01-01T01:06:12.000Z</time>
      </trkpt>
      <trkpt lat="45.98991" lon="4.56109">
        <ele>654.7</ele>
        <time>1970-01-01T01:06:13.000Z</time>
      </trkpt>
      <trkpt lat="45.98992" lon="4.56109">
        <ele>654.9</ele>
        <time>1970-01-01T01:06:14.000Z</time>
      </trkpt>
      <trkpt lat="45.98993" lon="4.56109">
        <ele>655</ele>
        <time>1970-01-01T01:06:15.000Z</time>
      </trkpt>
      <trkpt lat="45.98994" lon="4.56108">
        <ele>655.2</ele>
        <time>1970-01-01T01:06:16.000Z</time>
      </trkpt>
      <trkpt lat="45.98995" lon="4.56108">
        <ele>655.4</ele>
        <time>1970-01-01T01:06:17.000Z</time>
      </trkpt>
      <trkpt lat="45.98996" lon="4.56108">
        <ele>655.5</ele>
        <time>1970-01-01T01:06:18.000Z</time>
      </trkpt>
      <trkpt lat="45.98996" lon="4.56108">
        <ele>655.5</ele>
        <time>1970-01-01T01:06:19.000Z</time>
      </trkpt>
      <trkpt lat="45.98996" lon="4.56108">
        <ele>655.5</ele>
        <time>1970-01-01T01:06:20.000Z</time>
      </trkpt>
      <trkpt lat="45.99" lon="4.5611">
        <ele>656.2</ele>
        <time>1970-01-01T01:06:21.000Z</time>
      </trkpt>
      <trkpt lat="45.99" lon="4.5611">
        <ele>656.2</ele>
        <time>1970-01-01T01:06:22.000Z</time>
      </trkpt>
      <trkpt lat="45.99003" lon="4.5611">
        <ele>656.6</ele>
        <time>1970-01-01T01:06:23.000Z</time>
      </trkpt>
      <trkpt lat="45.99003" lon="4.5611">
        <ele>656.6</ele>
        <time>1970-01-01T01:06:24.000Z</time>
      </trkpt>
      <trkpt lat="45.99005" lon="4.5611">
        <ele>657</ele>
        <time>1970-01-01T01:06:25.000Z</time>
      </trkpt>
      <trkpt lat="45.99005" lon="4.5611">
        <ele>657</ele>
        <time>1970-01-01T01:06:26.000Z</time>
      </trkpt>
      <trkpt lat="45.99007" lon="4.5611">
        <ele>657.3</ele>
        <time>1970-01-01T01:06:27.000Z</time>
      </trkpt>
      <trkpt lat="45.99007" lon="4.5611">
        <ele>657.3</ele>
        <time>1970-01-01T01:06:28.000Z</time>
      </trkpt>
      <trkpt lat="45.99009" lon="4.56109">
        <ele>657.7</ele>
        <time>1970-01-01T01:06:29.000Z</time>
      </trkpt>
      <trkpt lat="45.99009" lon="4.56109">
        <ele>657.7</ele>
        <time>1970-01-01T01:06:30.000Z</time>
      </trkpt>
      <trkpt lat="45.99011" lon="4.56109">
        <ele>658.1</ele>
        <time>1970-01-01T01:06:31.000Z</time>
      </trkpt>
      <trkpt lat="45.99011" lon="4.56109">
        <ele>658.1</ele>
        <time>1970-01-01T01:06:32.000Z</time>
      </trkpt>
      <trkpt lat="45.99011" lon="4.56109">
        <ele>658.1</ele>
        <time>1970-01-01T01:06:33.000Z</time>
      </trkpt>
      <trkpt lat="45.99013" lon="4.56107">
        <ele>658.5</ele>
        <time>1970-01-01T01:06:34.000Z</time>
      </trkpt>
      <trkpt lat="45.99014" lon="4.56107">
        <ele>658.6</ele>
        <time>1970-01-01T01:06:35.000Z</time>
      </trkpt>
      <trkpt lat="45.99015" lon="4.56106">
        <ele>658.8</ele>
        <time>1970-01-01T01:06:36.000Z</time>
      </trkpt>
      <trkpt lat="45.99015" lon="4.56105">
        <ele>659</ele>
        <time>1970-01-01T01:06:37.000Z</time>
      </trkpt>
      <trkpt lat="45.99016" lon="4.56105">
        <ele>659.1</ele>
        <time>1970-01-01T01:06:38.000Z</time>
      </trkpt>
      <trkpt lat="45.99017" lon="4.56104">
        <ele>659.3</ele>
        <time>1970-01-01T01:06:39.000Z</time>
      </trkpt>
      <trkpt lat="45.99018" lon="4.56104">
        <ele>659.4</ele>
        <time>1970-01-01T01:06:40.000Z</time>
      </trkpt>
      <trkpt lat="45.99019" lon="4.56103">
        <ele>659.6</ele>
        <time>1970-01-01T01:06:41.000Z</time>
      </trkpt>
      <trkpt lat="45.99019" lon="4.56103">
        <ele>659.7</ele>
        <time>1970-01-01T01:06:42.000Z</time>
      </trkpt>
      <trkpt lat="45.9902" lon="4.56102">
        <ele>659.9</ele>
        <time>1970-01-01T01:06:43.000Z</time>
      </trkpt>
      <trkpt lat="45.99021" lon="4.56101">
        <ele>660</ele>
        <time>1970-01-01T01:06:44.000Z</time>
      </trkpt>
      <trkpt lat="45.99022" lon="4.56101">
        <ele>660.2</ele>
        <time>1970-01-01T01:06:45.000Z</time>
      </trkpt>
      <trkpt lat="45.99023" lon="4.56101">
        <ele>660.5</ele>
        <time>1970-01-01T01:06:46.000Z</time>
      </trkpt>
      <trkpt lat="45.99025" lon="4.56101">
        <ele>660.7</ele>
        <time>1970-01-01T01:06:47.000Z</time>
      </trkpt>
      <trkpt lat="45.99027" lon="4.56101">
        <ele>661</ele>
        <time>1970-01-01T01:06:48.000Z</time>
      </trkpt>
      <trkpt lat="45.99028" lon="4.56102">
        <ele>661.3</ele>
        <time>1970-01-01T01:06:49.000Z</time>
      </trkpt>
      <trkpt lat="45.9903" lon="4.56102">
        <ele>661.6</ele>
        <time>1970-01-01T01:06:50.000Z</time>
      </trkpt>
      <trkpt lat="45.99032" lon="4.56102">
        <ele>661.9</ele>
        <time>1970-01-01T01:06:51.000Z</time>
      </trkpt>
      <trkpt lat="45.99032" lon="4.56102">
        <ele>661.9</ele>
        <time>1970-01-01T01:06:52.000Z</time>
      </trkpt>
      <trkpt lat="45.99034" lon="4.56103">
        <ele>662.4</ele>
        <time>1970-01-01T01:06:53.000Z</time>
      </trkpt>
      <trkpt lat="45.99034" lon="4.56103">
        <ele>662.4</ele>
        <time>1970-01-01T01:06:54.000Z</time>
      </trkpt>
      <trkpt lat="45.99037" lon="4.56104">
        <ele>662.7</ele>
        <time>1970-01-01T01:06:55.000Z</time>
      </trkpt>
      <trkpt lat="45.99037" lon="4.56104">
        <ele>662.7</ele>
        <time>1970-01-01T01:06:56.000Z</time>
      </trkpt>
      <trkpt lat="45.99039" lon="4.56103">
        <ele>662.9</ele>
        <time>1970-01-01T01:06:57.000Z</time>
      </trkpt>
      <trkpt lat="45.99039" lon="4.56103">
        <ele>662.9</ele>
        <time>1970-01-01T01:06:58.000Z</time>
      </trkpt>
      <trkpt lat="45.99042" lon="4.56102">
        <ele>663.2</ele>
        <time>1970-01-01T01:06:59.000Z</time>
      </trkpt>
      <trkpt lat="45.99042" lon="4.56102">
        <ele>663.2</ele>
        <time>1970-01-01T01:07:00.000Z</time>
      </trkpt>
      <trkpt lat="45.99044" lon="4.561">
        <ele>663.5</ele>
        <time>1970-01-01T01:07:01.000Z</time>
      </trkpt>
      <trkpt lat="45.99044" lon="4.561">
        <ele>663.5</ele>
        <time>1970-01-01T01:07:02.000Z</time>
      </trkpt>
      <trkpt lat="45.99047" lon="4.56098">
        <ele>663.8</ele>
        <time>1970-01-01T01:07:03.000Z</time>
      </trkpt>
      <trkpt lat="45.99048" lon="4.56098">
        <ele>663.9</ele>
        <time>1970-01-01T01:07:04.000Z</time>
      </trkpt>
      <trkpt lat="45.99049" lon="4.56097">
        <ele>664</ele>
        <time>1970-01-01T01:07:05.000Z</time>
      </trkpt>
      <trkpt lat="45.99049" lon="4.56096">
        <ele>664.1</ele>
        <time>1970-01-01T01:07:06.000Z</time>
      </trkpt>
      <trkpt lat="45.9905" lon="4.56095">
        <ele>664.2</ele>
        <time>1970-01-01T01:07:07.000Z</time>
      </trkpt>
      <trkpt lat="45.99051" lon="4.56094">
        <ele>664.3</ele>
        <time>1970-01-01T01:07:08.000Z</time>
      </trkpt>
      <trkpt lat="45.99052" lon="4.56093">
        <ele>664.4</ele>
        <time>1970-01-01T01:07:09.000Z</time>
      </trkpt>
      <trkpt lat="45.99053" lon="4.56092">
        <ele>664.5</ele>
        <time>1970-01-01T01:07:10.000Z</time>
      </trkpt>
      <trkpt lat="45.99054" lon="4.56091">
        <ele>664.6</ele>
        <time>1970-01-01T01:07:11.000Z</time>
      </trkpt>
      <trkpt lat="45.99054" lon="4.56091">
        <ele>664.6</ele>
        <time>1970-01-01T01:07:12.000Z</time>
      </trkpt>
      <trkpt lat="45.99054" lon="4.56091">
        <ele>664.6</ele>
        <time>1970-01-01T01:07:13.000Z</time>
      </trkpt>
      <trkpt lat="45.99054" lon="4.56091">
        <ele>664.6</ele>
        <time>1970-01-01T01:07:14.000Z</time>
      </trkpt>
      <trkpt lat="45.99056" lon="4.56089">
        <ele>664.8</ele>
        <time>1970-01-01T01:07:15.000Z</time>
      </trkpt>
      <trkpt lat="45.99056" lon="4.56089">
        <ele>664.8</ele>
        <time>1970-01-01T01:07:16.000Z</time>
      </trkpt>
      <trkpt lat="45.99057" lon="4.56087">
        <ele>665</ele>
        <time>1970-01-01T01:07:17.000Z</time>
      </trkpt>
      <trkpt lat="45.99057" lon="4.56087">
        <ele>665</ele>
        <time>1970-01-01T01:07:18.000Z</time>
      </trkpt>
      <trkpt lat="45.99058" lon="4.56083">
        <ele>665.2</ele>
        <time>1970-01-01T01:07:19.000Z</time>
      </trkpt>
      <trkpt lat="45.99058" lon="4.56083">
        <ele>665.2</ele>
        <time>1970-01-01T01:07:20.000Z</time>
      </trkpt>
      <trkpt lat="45.9906" lon="4.56081">
        <ele>665.3</ele>
        <time>1970-01-01T01:07:21.000Z</time>
      </trkpt>
      <trkpt lat="45.9906" lon="4.56081">
        <ele>665.3</ele>
        <time>1970-01-01T01:07:22.000Z</time>
      </trkpt>
      <trkpt lat="45.99062" lon="4.56078">
        <ele>665.5</ele>
        <time>1970-01-01T01:07:23.000Z</time>
      </trkpt>
      <trkpt lat="45.99062" lon="4.56078">
        <ele>665.5</ele>
        <time>1970-01-01T01:07:24.000Z</time>
      </trkpt>
      <trkpt lat="45.99064" lon="4.56075">
        <ele>665.6</ele>
        <time>1970-01-01T01:07:25.000Z</time>
      </trkpt>
      <trkpt lat="45.99064" lon="4.56075">
        <ele>665.6</ele>
        <time>1970-01-01T01:07:26.000Z</time>
      </trkpt>
      <trkpt lat="45.99067" lon="4.56073">
        <ele>665.8</ele>
        <time>1970-01-01T01:07:27.000Z</time>
      </trkpt>
      <trkpt lat="45.99067" lon="4.56073">
        <ele>665.8</ele>
        <time>1970-01-01T01:07:28.000Z</time>
      </trkpt>
      <trkpt lat="45.99069" lon="4.5607">
        <ele>666</ele>
        <time>1970-01-01T01:07:29.000Z</time>
      </trkpt>
      <trkpt lat="45.99069" lon="4.5607">
        <ele>666</ele>
        <time>1970-01-01T01:07:30.000Z</time>
      </trkpt>
      <trkpt lat="45.99071" lon="4.56069">
        <ele>666.2</ele>
        <time>1970-01-01T01:07:31.000Z</time>
      </trkpt>
      <trkpt lat="45.99071" lon="4.56069">
        <ele>666.2</ele>
        <time>1970-01-01T01:07:32.000Z</time>
      </trkpt>
      <trkpt lat="45.99073" lon="4.56066">
        <ele>666.4</ele>
        <time>1970-01-01T01:07:33.000Z</time>
      </trkpt>
      <trkpt lat="45.99073" lon="4.56066">
        <ele>666.4</ele>
        <time>1970-01-01T01:07:34.000Z</time>
      </trkpt>
      <trkpt lat="45.99075" lon="4.56063">
        <ele>666.6</ele>
        <time>1970-01-01T01:07:35.000Z</time>
      </trkpt>
      <trkpt lat="45.99075" lon="4.56063">
        <ele>666.6</ele>
        <time>1970-01-01T01:07:36.000Z</time>
      </trkpt>
      <trkpt lat="45.99077" lon="4.56061">
        <ele>666.8</ele>
        <time>1970-01-01T01:07:37.000Z</time>
      </trkpt>
      <trkpt lat="45.99077" lon="4.56061">
        <ele>666.8</ele>
        <time>1970-01-01T01:07:38.000Z</time>
      </trkpt>
      <trkpt lat="45.99078" lon="4.56059">
        <ele>667</ele>
        <time>1970-01-01T01:07:39.000Z</time>
      </trkpt>
      <trkpt lat="45.99079" lon="4.56058">
        <ele>667.1</ele>
        <time>1970-01-01T01:07:40.000Z</time>
      </trkpt>
      <trkpt lat="45.9908" lon="4.56057">
        <ele>667.3</ele>
        <time>1970-01-01T01:07:41.000Z</time>
      </trkpt>
      <trkpt lat="45.99081" lon="4.56056">
        <ele>667.4</ele>
        <time>1970-01-01T01:07:42.000Z</time>
      </trkpt>
      <trkpt lat="45.99082" lon="4.56054">
        <ele>667.5</ele>
        <time>1970-01-01T01:07:43.000Z</time>
      </trkpt>
      <trkpt lat="45.99083" lon="4.56053">
        <ele>667.6</ele>
        <time>1970-01-01T01:07:44.000Z</time>
      </trkpt>
      <trkpt lat="45.99084" lon="4.56052">
        <ele>667.7</ele>
        <time>1970-01-01T01:07:45.000Z</time>
      </trkpt>
      <trkpt lat="45.99084" lon="4.56051">
        <ele>667.8</ele>
        <time>1970-01-01T01:07:46.000Z</time>
      </trkpt>
      <trkpt lat="45.99085" lon="4.56049">
        <ele>668</ele>
        <time>1970-01-01T01:07:47.000Z</time>
      </trkpt>
      <trkpt lat="45.99086" lon="4.56048">
        <ele>668.1</ele>
        <time>1970-01-01T01:07:48.000Z</time>
      </trkpt>
      <trkpt lat="45.99087" lon="4.56047">
        <ele>668.2</ele>
        <time>1970-01-01T01:07:49.000Z</time>
      </trkpt>
      <trkpt lat="45.99088" lon="4.56045">
        <ele>668.3</ele>
        <time>1970-01-01T01:07:50.000Z</time>
      </trkpt>
      <trkpt lat="45.99088" lon="4.56045">
        <ele>668.3</ele>
        <time>1970-01-01T01:07:51.000Z</time>
      </trkpt>
      <trkpt lat="45.9909" lon="4.56044">
        <ele>668.6</ele>
        <time>1970-01-01T01:07:52.000Z</time>
      </trkpt>
      <trkpt lat="45.9909" lon="4.56044">
        <ele>668.6</ele>
        <time>1970-01-01T01:07:53.000Z</time>
      </trkpt>
      <trkpt lat="45.99092" lon="4.56043">
        <ele>668.7</ele>
        <time>1970-01-01T01:07:54.000Z</time>
      </trkpt>
      <trkpt lat="45.99092" lon="4.56043">
        <ele>668.7</ele>
        <time>1970-01-01T01:07:55.000Z</time>
      </trkpt>
      <trkpt lat="45.99094" lon="4.56042">
        <ele>668.9</ele>
        <time>1970-01-01T01:07:56.000Z</time>
      </trkpt>
      <trkpt lat="45.99094" lon="4.56042">
        <ele>668.9</ele>
        <time>1970-01-01T01:07:57.000Z</time>
      </trkpt>
      <trkpt lat="45.99095" lon="4.5604">
        <ele>669.1</ele>
        <time>1970-01-01T01:07:58.000Z</time>
      </trkpt>
      <trkpt lat="45.99095" lon="4.5604">
        <ele>669.1</ele>
        <time>1970-01-01T01:07:59.000Z</time>
      </trkpt>
      <trkpt lat="45.99097" lon="4.56038">
        <ele>669.4</ele>
        <time>1970-01-01T01:08:00.000Z</time>
      </trkpt>
      <trkpt lat="45.99097" lon="4.56038">
        <ele>669.4</ele>
        <time>1970-01-01T01:08:01.000Z</time>
      </trkpt>
      <trkpt lat="45.99099" lon="4.56035">
        <ele>669.6</ele>
        <time>1970-01-01T01:08:02.000Z</time>
      </trkpt>
      <trkpt lat="45.99099" lon="4.56035">
        <ele>669.6</ele>
        <time>1970-01-01T01:08:03.000Z</time>
      </trkpt>
      <trkpt lat="45.991" lon="4.56031">
        <ele>669.9</ele>
        <time>1970-01-01T01:08:04.000Z</time>
      </trkpt>
      <trkpt lat="45.991" lon="4.56031">
        <ele>669.9</ele>
        <time>1970-01-01T01:08:05.000Z</time>
      </trkpt>
      <trkpt lat="45.99101" lon="4.56028">
        <ele>670.1</ele>
        <time>1970-01-01T01:08:06.000Z</time>
      </trkpt>
      <trkpt lat="45.99101" lon="4.56028">
        <ele>670.1</ele>
        <time>1970-01-01T01:08:07.000Z</time>
      </trkpt>
      <trkpt lat="45.99102" lon="4.56025">
        <ele>670.2</ele>
        <time>1970-01-01T01:08:08.000Z</time>
      </trkpt>
      <trkpt lat="45.99102" lon="4.56025">
        <ele>670.2</ele>
        <time>1970-01-01T01:08:09.000Z</time>
      </trkpt>
      <trkpt lat="45.99102" lon="4.56021">
        <ele>670.5</ele>
        <time>1970-01-01T01:08:10.000Z</time>
      </trkpt>
      <trkpt lat="45.99102" lon="4.56021">
        <ele>670.5</ele>
        <time>1970-01-01T01:08:11.000Z</time>
      </trkpt>
      <trkpt lat="45.99103" lon="4.56016">
        <ele>670.7</ele>
        <time>1970-01-01T01:08:12.000Z</time>
      </trkpt>
      <trkpt lat="45.99103" lon="4.56016">
        <ele>670.7</ele>
        <time>1970-01-01T01:08:13.000Z</time>
      </trkpt>
      <trkpt lat="45.99103" lon="4.56012">
        <ele>671</ele>
        <time>1970-01-01T01:08:14.000Z</time>
      </trkpt>
      <trkpt lat="45.99103" lon="4.56012">
        <ele>671</ele>
        <time>1970-01-01T01:08:15.000Z</time>
      </trkpt>
      <trkpt lat="45.99103" lon="4.56008">
        <ele>671.2</ele>
        <time>1970-01-01T01:08:16.000Z</time>
      </trkpt>
      <trkpt lat="45.99103" lon="4.56008">
        <ele>671.2</ele>
        <time>1970-01-01T01:08:17.000Z</time>
      </trkpt>
      <trkpt lat="45.99103" lon="4.56004">
        <ele>671.4</ele>
        <time>1970-01-01T01:08:18.000Z</time>
      </trkpt>
      <trkpt lat="45.99103" lon="4.56001">
        <ele>671.6</ele>
        <time>1970-01-01T01:08:19.000Z</time>
      </trkpt>
      <trkpt lat="45.99103" lon="4.56001">
        <ele>671.6</ele>
        <time>1970-01-01T01:08:20.000Z</time>
      </trkpt>
      <trkpt lat="45.99102" lon="4.55997">
        <ele>671.8</ele>
        <time>1970-01-01T01:08:21.000Z</time>
      </trkpt>
      <trkpt lat="45.99102" lon="4.55997">
        <ele>671.8</ele>
        <time>1970-01-01T01:08:22.000Z</time>
      </trkpt>
      <trkpt lat="45.99102" lon="4.55993">
        <ele>672</ele>
        <time>1970-01-01T01:08:23.000Z</time>
      </trkpt>
      <trkpt lat="45.99102" lon="4.55993">
        <ele>672</ele>
        <time>1970-01-01T01:08:24.000Z</time>
      </trkpt>
      <trkpt lat="45.99102" lon="4.5599">
        <ele>672.2</ele>
        <time>1970-01-01T01:08:25.000Z</time>
      </trkpt>
      <trkpt lat="45.99102" lon="4.5599">
        <ele>672.2</ele>
        <time>1970-01-01T01:08:26.000Z</time>
      </trkpt>
      <trkpt lat="45.99102" lon="4.55986">
        <ele>672.4</ele>
        <time>1970-01-01T01:08:27.000Z</time>
      </trkpt>
      <trkpt lat="45.99102" lon="4.55986">
        <ele>672.4</ele>
        <time>1970-01-01T01:08:28.000Z</time>
      </trkpt>
      <trkpt lat="45.99102" lon="4.55983">
        <ele>672.6</ele>
        <time>1970-01-01T01:08:29.000Z</time>
      </trkpt>
      <trkpt lat="45.99102" lon="4.55983">
        <ele>672.6</ele>
        <time>1970-01-01T01:08:30.000Z</time>
      </trkpt>
      <trkpt lat="45.99102" lon="4.55979">
        <ele>672.9</ele>
        <time>1970-01-01T01:08:31.000Z</time>
      </trkpt>
      <trkpt lat="45.99102" lon="4.55979">
        <ele>672.9</ele>
        <time>1970-01-01T01:08:32.000Z</time>
      </trkpt>
      <trkpt lat="45.99102" lon="4.55975">
        <ele>673.1</ele>
        <time>1970-01-01T01:08:33.000Z</time>
      </trkpt>
      <trkpt lat="45.99102" lon="4.55975">
        <ele>673.1</ele>
        <time>1970-01-01T01:08:34.000Z</time>
      </trkpt>
      <trkpt lat="45.99102" lon="4.55971">
        <ele>673.4</ele>
        <time>1970-01-01T01:08:35.000Z</time>
      </trkpt>
      <trkpt lat="45.99102" lon="4.55971">
        <ele>673.4</ele>
        <time>1970-01-01T01:08:36.000Z</time>
      </trkpt>
      <trkpt lat="45.99101" lon="4.55967">
        <ele>673.6</ele>
        <time>1970-01-01T01:08:37.000Z</time>
      </trkpt>
      <trkpt lat="45.99101" lon="4.55967">
        <ele>673.6</ele>
        <time>1970-01-01T01:08:38.000Z</time>
      </trkpt>
      <trkpt lat="45.991" lon="4.55963">
        <ele>673.9</ele>
        <time>1970-01-01T01:08:39.000Z</time>
      </trkpt>
      <trkpt lat="45.991" lon="4.55963">
        <ele>673.9</ele>
        <time>1970-01-01T01:08:40.000Z</time>
      </trkpt>
      <trkpt lat="45.991" lon="4.55959">
        <ele>674.1</ele>
        <time>1970-01-01T01:08:41.000Z</time>
      </trkpt>
      <trkpt lat="45.991" lon="4.55959">
        <ele>674.1</ele>
        <time>1970-01-01T01:08:42.000Z</time>
      </trkpt>
      <trkpt lat="45.991" lon="4.55955">
        <ele>674.4</ele>
        <time>1970-01-01T01:08:43.000Z</time>
      </trkpt>
      <trkpt lat="45.991" lon="4.55955">
        <ele>674.4</ele>
        <time>1970-01-01T01:08:44.000Z</time>
      </trkpt>
      <trkpt lat="45.99101" lon="4.55951">
        <ele>674.7</ele>
        <time>1970-01-01T01:08:45.000Z</time>
      </trkpt>
      <trkpt lat="45.99101" lon="4.55951">
        <ele>674.7</ele>
        <time>1970-01-01T01:08:46.000Z</time>
      </trkpt>
      <trkpt lat="45.99102" lon="4.55948">
        <ele>674.9</ele>
        <time>1970-01-01T01:08:47.000Z</time>
      </trkpt>
      <trkpt lat="45.99102" lon="4.55948">
        <ele>674.9</ele>
        <time>1970-01-01T01:08:48.000Z</time>
      </trkpt>
      <trkpt lat="45.99102" lon="4.55945">
        <ele>675.2</ele>
        <time>1970-01-01T01:08:49.000Z</time>
      </trkpt>
      <trkpt lat="45.99102" lon="4.55945">
        <ele>675.2</ele>
        <time>1970-01-01T01:08:50.000Z</time>
      </trkpt>
      <trkpt lat="45.99103" lon="4.55942">
        <ele>675.4</ele>
        <time>1970-01-01T01:08:51.000Z</time>
      </trkpt>
      <trkpt lat="45.99103" lon="4.55942">
        <ele>675.4</ele>
        <time>1970-01-01T01:08:52.000Z</time>
      </trkpt>
      <trkpt lat="45.99104" lon="4.55939">
        <ele>675.6</ele>
        <time>1970-01-01T01:08:53.000Z</time>
      </trkpt>
      <trkpt lat="45.99104" lon="4.55939">
        <ele>675.6</ele>
        <time>1970-01-01T01:08:54.000Z</time>
      </trkpt>
      <trkpt lat="45.99105" lon="4.55936">
        <ele>675.9</ele>
        <time>1970-01-01T01:08:55.000Z</time>
      </trkpt>
      <trkpt lat="45.99105" lon="4.55936">
        <ele>675.9</ele>
        <time>1970-01-01T01:08:56.000Z</time>
      </trkpt>
      <trkpt lat="45.99107" lon="4.55934">
        <ele>676.1</ele>
        <time>1970-01-01T01:08:57.000Z</time>
      </trkpt>
      <trkpt lat="45.99107" lon="4.55934">
        <ele>676.1</ele>
        <time>1970-01-01T01:08:58.000Z</time>
      </trkpt>
      <trkpt lat="45.99109" lon="4.55932">
        <ele>676.4</ele>
        <time>1970-01-01T01:08:59.000Z</time>
      </trkpt>
      <trkpt lat="45.99109" lon="4.55932">
        <ele>676.4</ele>
        <time>1970-01-01T01:09:00.000Z</time>
      </trkpt>
      <trkpt lat="45.9911" lon="4.5593">
        <ele>676.6</ele>
        <time>1970-01-01T01:09:01.000Z</time>
      </trkpt>
      <trkpt lat="45.9911" lon="4.5593">
        <ele>676.6</ele>
        <time>1970-01-01T01:09:02.000Z</time>
      </trkpt>
      <trkpt lat="45.99111" lon="4.55928">
        <ele>676.8</ele>
        <time>1970-01-01T01:09:03.000Z</time>
      </trkpt>
      <trkpt lat="45.99111" lon="4.55928">
        <ele>676.8</ele>
        <time>1970-01-01T01:09:04.000Z</time>
      </trkpt>
      <trkpt lat="45.99113" lon="4.55926">
        <ele>677</ele>
        <time>1970-01-01T01:09:05.000Z</time>
      </trkpt>
      <trkpt lat="45.99113" lon="4.55926">
        <ele>677</ele>
        <time>1970-01-01T01:09:06.000Z</time>
      </trkpt>
      <trkpt lat="45.99115" lon="4.55925">
        <ele>677.2</ele>
        <time>1970-01-01T01:09:07.000Z</time>
      </trkpt>
      <trkpt lat="45.99115" lon="4.55925">
        <ele>677.2</ele>
        <time>1970-01-01T01:09:08.000Z</time>
      </trkpt>
      <trkpt lat="45.99117" lon="4.55923">
        <ele>677.4</ele>
        <time>1970-01-01T01:09:09.000Z</time>
      </trkpt>
      <trkpt lat="45.99117" lon="4.55923">
        <ele>677.4</ele>
        <time>1970-01-01T01:09:10.000Z</time>
      </trkpt>
      <trkpt lat="45.99119" lon="4.55922">
        <ele>677.6</ele>
        <time>1970-01-01T01:09:11.000Z</time>
      </trkpt>
      <trkpt lat="45.99119" lon="4.55922">
        <ele>677.6</ele>
        <time>1970-01-01T01:09:12.000Z</time>
      </trkpt>
      <trkpt lat="45.99121" lon="4.55921">
        <ele>677.8</ele>
        <time>1970-01-01T01:09:13.000Z</time>
      </trkpt>
      <trkpt lat="45.99121" lon="4.55921">
        <ele>677.8</ele>
        <time>1970-01-01T01:09:14.000Z</time>
      </trkpt>
      <trkpt lat="45.99123" lon="4.55921">
        <ele>678</ele>
        <time>1970-01-01T01:09:15.000Z</time>
      </trkpt>
      <trkpt lat="45.99123" lon="4.55921">
        <ele>678</ele>
        <time>1970-01-01T01:09:16.000Z</time>
      </trkpt>
      <trkpt lat="45.99125" lon="4.5592">
        <ele>678.1</ele>
        <time>1970-01-01T01:09:17.000Z</time>
      </trkpt>
      <trkpt lat="45.99125" lon="4.5592">
        <ele>678.1</ele>
        <time>1970-01-01T01:09:18.000Z</time>
      </trkpt>
      <trkpt lat="45.99127" lon="4.55919">
        <ele>678.1</ele>
        <time>1970-01-01T01:09:19.000Z</time>
      </trkpt>
      <trkpt lat="45.99127" lon="4.55919">
        <ele>678.1</ele>
        <time>1970-01-01T01:09:20.000Z</time>
      </trkpt>
      <trkpt lat="45.99129" lon="4.55918">
        <ele>678.1</ele>
        <time>1970-01-01T01:09:21.000Z</time>
      </trkpt>
      <trkpt lat="45.99129" lon="4.55918">
        <ele>678.1</ele>
        <time>1970-01-01T01:09:22.000Z</time>
      </trkpt>
      <trkpt lat="45.99132" lon="4.55918">
        <ele>678</ele>
        <time>1970-01-01T01:09:23.000Z</time>
      </trkpt>
      <trkpt lat="45.99132" lon="4.55918">
        <ele>678</ele>
        <time>1970-01-01T01:09:24.000Z</time>
      </trkpt>
      <trkpt lat="45.99134" lon="4.55918">
        <ele>678</ele>
        <time>1970-01-01T01:09:25.000Z</time>
      </trkpt>
      <trkpt lat="45.99134" lon="4.55918">
        <ele>678</ele>
        <time>1970-01-01T01:09:26.000Z</time>
      </trkpt>
      <trkpt lat="45.99136" lon="4.55917">
        <ele>678</ele>
        <time>1970-01-01T01:09:27.000Z</time>
      </trkpt>
      <trkpt lat="45.99136" lon="4.55917">
        <ele>678</ele>
        <time>1970-01-01T01:09:28.000Z</time>
      </trkpt>
      <trkpt lat="45.99139" lon="4.55917">
        <ele>678</ele>
        <time>1970-01-01T01:09:29.000Z</time>
      </trkpt>
      <trkpt lat="45.99139" lon="4.55917">
        <ele>678</ele>
        <time>1970-01-01T01:09:30.000Z</time>
      </trkpt>
      <trkpt lat="45.9914" lon="4.55917">
        <ele>678</ele>
        <time>1970-01-01T01:09:31.000Z</time>
      </trkpt>
      <trkpt lat="45.9914" lon="4.55917">
        <ele>678</ele>
        <time>1970-01-01T01:09:32.000Z</time>
      </trkpt>
      <trkpt lat="45.99142" lon="4.55918">
        <ele>678</ele>
        <time>1970-01-01T01:09:33.000Z</time>
      </trkpt>
      <trkpt lat="45.99142" lon="4.55918">
        <ele>678</ele>
        <time>1970-01-01T01:09:34.000Z</time>
      </trkpt>
      <trkpt lat="45.99145" lon="4.55918">
        <ele>678</ele>
        <time>1970-01-01T01:09:35.000Z</time>
      </trkpt>
      <trkpt lat="45.99145" lon="4.55918">
        <ele>678</ele>
        <time>1970-01-01T01:09:36.000Z</time>
      </trkpt>
      <trkpt lat="45.99147" lon="4.55918">
        <ele>678</ele>
        <time>1970-01-01T01:09:37.000Z</time>
      </trkpt>
      <trkpt lat="45.99147" lon="4.55918">
        <ele>678</ele>
        <time>1970-01-01T01:09:38.000Z</time>
      </trkpt>
      <trkpt lat="45.99149" lon="4.55918">
        <ele>678</ele>
        <time>1970-01-01T01:09:39.000Z</time>
      </trkpt>
      <trkpt lat="45.99149" lon="4.55918">
        <ele>678</ele>
        <time>1970-01-01T01:09:40.000Z</time>
      </trkpt>
      <trkpt lat="45.99151" lon="4.55918">
        <ele>678</ele>
        <time>1970-01-01T01:09:41.000Z</time>
      </trkpt>
      <trkpt lat="45.99151" lon="4.55918">
        <ele>678</ele>
        <time>1970-01-01T01:09:42.000Z</time>
      </trkpt>
      <trkpt lat="45.99154" lon="4.55919">
        <ele>678</ele>
        <time>1970-01-01T01:09:43.000Z</time>
      </trkpt>
      <trkpt lat="45.99154" lon="4.55919">
        <ele>678</ele>
        <time>1970-01-01T01:09:44.000Z</time>
      </trkpt>
      <trkpt lat="45.99156" lon="4.5592">
        <ele>678</ele>
        <time>1970-01-01T01:09:45.000Z</time>
      </trkpt>
      <trkpt lat="45.99156" lon="4.5592">
        <ele>678</ele>
        <time>1970-01-01T01:09:46.000Z</time>
      </trkpt>
      <trkpt lat="45.99159" lon="4.5592">
        <ele>678</ele>
        <time>1970-01-01T01:09:47.000Z</time>
      </trkpt>
      <trkpt lat="45.99159" lon="4.5592">
        <ele>678</ele>
        <time>1970-01-01T01:09:48.000Z</time>
      </trkpt>
      <trkpt lat="45.99161" lon="4.55921">
        <ele>678</ele>
        <time>1970-01-01T01:09:49.000Z</time>
      </trkpt>
      <trkpt lat="45.99161" lon="4.55921">
        <ele>678</ele>
        <time>1970-01-01T01:09:50.000Z</time>
      </trkpt>
      <trkpt lat="45.99164" lon="4.55921">
        <ele>678.1</ele>
        <time>1970-01-01T01:09:51.000Z</time>
      </trkpt>
      <trkpt lat="45.99164" lon="4.55921">
        <ele>678.1</ele>
        <time>1970-01-01T01:09:52.000Z</time>
      </trkpt>
      <trkpt lat="45.99166" lon="4.55921">
        <ele>678.1</ele>
        <time>1970-01-01T01:09:53.000Z</time>
      </trkpt>
      <trkpt lat="45.99166" lon="4.55921">
        <ele>678.1</ele>
        <time>1970-01-01T01:09:54.000Z</time>
      </trkpt>
      <trkpt lat="45.99169" lon="4.55922">
        <ele>678.1</ele>
        <time>1970-01-01T01:09:55.000Z</time>
      </trkpt>
      <trkpt lat="45.99169" lon="4.55922">
        <ele>678.1</ele>
        <time>1970-01-01T01:09:56.000Z</time>
      </trkpt>
      <trkpt lat="45.99169" lon="4.55922">
        <ele>678.1</ele>
        <time>1970-01-01T01:09:57.000Z</time>
      </trkpt>
      <trkpt lat="45.99171" lon="4.55922">
        <ele>678.1</ele>
        <time>1970-01-01T01:09:58.000Z</time>
      </trkpt>
      <trkpt lat="45.99171" lon="4.55922">
        <ele>678.1</ele>
        <time>1970-01-01T01:09:59.000Z</time>
      </trkpt>
      <trkpt lat="45.99171" lon="4.55922">
        <ele>678.1</ele>
        <time>1970-01-01T01:10:00.000Z</time>
      </trkpt>
      <trkpt lat="45.99173" lon="4.55924">
        <ele>678.1</ele>
        <time>1970-01-01T01:10:01.000Z</time>
      </trkpt>
      <trkpt lat="45.99173" lon="4.55924">
        <ele>678.1</ele>
        <time>1970-01-01T01:10:02.000Z</time>
      </trkpt>
      <trkpt lat="45.99175" lon="4.55925">
        <ele>678.1</ele>
        <time>1970-01-01T01:10:03.000Z</time>
      </trkpt>
      <trkpt lat="45.99175" lon="4.55925">
        <ele>678.1</ele>
        <time>1970-01-01T01:10:04.000Z</time>
      </trkpt>
      <trkpt lat="45.99177" lon="4.55926">
        <ele>678.1</ele>
        <time>1970-01-01T01:10:05.000Z</time>
      </trkpt>
      <trkpt lat="45.99177" lon="4.55926">
        <ele>678.1</ele>
        <time>1970-01-01T01:10:06.000Z</time>
      </trkpt>
      <trkpt lat="45.99177" lon="4.55926">
        <ele>678.1</ele>
        <time>1970-01-01T01:10:07.000Z</time>
      </trkpt>
      <trkpt lat="45.99177" lon="4.55926">
        <ele>678.1</ele>
        <time>1970-01-01T01:10:08.000Z</time>
      </trkpt>
      <trkpt lat="45.99179" lon="4.55927">
        <ele>678.1</ele>
        <time>1970-01-01T01:10:09.000Z</time>
      </trkpt>
      <trkpt lat="45.99179" lon="4.55927">
        <ele>678.1</ele>
        <time>1970-01-01T01:10:10.000Z</time>
      </trkpt>
      <trkpt lat="45.99181" lon="4.55928">
        <ele>678.1</ele>
        <time>1970-01-01T01:10:11.000Z</time>
      </trkpt>
      <trkpt lat="45.99181" lon="4.55928">
        <ele>678.1</ele>
        <time>1970-01-01T01:10:12.000Z</time>
      </trkpt>
      <trkpt lat="45.99184" lon="4.55928">
        <ele>678.1</ele>
        <time>1970-01-01T01:10:13.000Z</time>
      </trkpt>
      <trkpt lat="45.99184" lon="4.55928">
        <ele>678.1</ele>
        <time>1970-01-01T01:10:14.000Z</time>
      </trkpt>
      <trkpt lat="45.99186" lon="4.55928">
        <ele>678</ele>
        <time>1970-01-01T01:10:15.000Z</time>
      </trkpt>
      <trkpt lat="45.99186" lon="4.55928">
        <ele>678</ele>
        <time>1970-01-01T01:10:16.000Z</time>
      </trkpt>
      <trkpt lat="45.99189" lon="4.55928">
        <ele>678</ele>
        <time>1970-01-01T01:10:17.000Z</time>
      </trkpt>
      <trkpt lat="45.99189" lon="4.55928">
        <ele>678</ele>
        <time>1970-01-01T01:10:18.000Z</time>
      </trkpt>
      <trkpt lat="45.99191" lon="4.55928">
        <ele>677.9</ele>
        <time>1970-01-01T01:10:19.000Z</time>
      </trkpt>
      <trkpt lat="45.99191" lon="4.55928">
        <ele>677.9</ele>
        <time>1970-01-01T01:10:20.000Z</time>
      </trkpt>
      <trkpt lat="45.99194" lon="4.55929">
        <ele>677.7</ele>
        <time>1970-01-01T01:10:21.000Z</time>
      </trkpt>
      <trkpt lat="45.99194" lon="4.55929">
        <ele>677.7</ele>
        <time>1970-01-01T01:10:22.000Z</time>
      </trkpt>
      <trkpt lat="45.99196" lon="4.55931">
        <ele>677.6</ele>
        <time>1970-01-01T01:10:23.000Z</time>
      </trkpt>
      <trkpt lat="45.99196" lon="4.55931">
        <ele>677.6</ele>
        <time>1970-01-01T01:10:24.000Z</time>
      </trkpt>
      <trkpt lat="45.99199" lon="4.55932">
        <ele>677.4</ele>
        <time>1970-01-01T01:10:25.000Z</time>
      </trkpt>
      <trkpt lat="45.99199" lon="4.55932">
        <ele>677.4</ele>
        <time>1970-01-01T01:10:26.000Z</time>
      </trkpt>
      <trkpt lat="45.99201" lon="4.55932">
        <ele>677.2</ele>
        <time>1970-01-01T01:10:27.000Z</time>
      </trkpt>
      <trkpt lat="45.99201" lon="4.55932">
        <ele>677.2</ele>
        <time>1970-01-01T01:10:28.000Z</time>
      </trkpt>
      <trkpt lat="45.99204" lon="4.55931">
        <ele>676.9</ele>
        <time>1970-01-01T01:10:29.000Z</time>
      </trkpt>
      <trkpt lat="45.99204" lon="4.55931">
        <ele>676.9</ele>
        <time>1970-01-01T01:10:30.000Z</time>
      </trkpt>
      <trkpt lat="45.99204" lon="4.55931">
        <ele>676.9</ele>
        <time>1970-01-01T01:10:31.000Z</time>
      </trkpt>
      <trkpt lat="45.99207" lon="4.55931">
        <ele>676.7</ele>
        <time>1970-01-01T01:10:32.000Z</time>
      </trkpt>
      <trkpt lat="45.99207" lon="4.55931">
        <ele>676.7</ele>
        <time>1970-01-01T01:10:33.000Z</time>
      </trkpt>
      <trkpt lat="45.99209" lon="4.5593">
        <ele>676.5</ele>
        <time>1970-01-01T01:10:34.000Z</time>
      </trkpt>
      <trkpt lat="45.99209" lon="4.5593">
        <ele>676.5</ele>
        <time>1970-01-01T01:10:35.000Z</time>
      </trkpt>
      <trkpt lat="45.99211" lon="4.5593">
        <ele>676.3</ele>
        <time>1970-01-01T01:10:36.000Z</time>
      </trkpt>
      <trkpt lat="45.99211" lon="4.5593">
        <ele>676.3</ele>
        <time>1970-01-01T01:10:37.000Z</time>
      </trkpt>
      <trkpt lat="45.99214" lon="4.55931">
        <ele>675.9</ele>
        <time>1970-01-01T01:10:38.000Z</time>
      </trkpt>
      <trkpt lat="45.99214" lon="4.55931">
        <ele>675.9</ele>
        <time>1970-01-01T01:10:39.000Z</time>
      </trkpt>
      <trkpt lat="45.99214" lon="4.55931">
        <ele>675.9</ele>
        <time>1970-01-01T01:10:40.000Z</time>
      </trkpt>
      <trkpt lat="45.99216" lon="4.55932">
        <ele>675.7</ele>
        <time>1970-01-01T01:10:41.000Z</time>
      </trkpt>
      <trkpt lat="45.99216" lon="4.55932">
        <ele>675.7</ele>
        <time>1970-01-01T01:10:42.000Z</time>
      </trkpt>
      <trkpt lat="45.99219" lon="4.55932">
        <ele>675.4</ele>
        <time>1970-01-01T01:10:43.000Z</time>
      </trkpt>
      <trkpt lat="45.99219" lon="4.55932">
        <ele>675.4</ele>
        <time>1970-01-01T01:10:44.000Z</time>
      </trkpt>
      <trkpt lat="45.99221" lon="4.55934">
        <ele>675.1</ele>
        <time>1970-01-01T01:10:45.000Z</time>
      </trkpt>
      <trkpt lat="45.99221" lon="4.55934">
        <ele>675.1</ele>
        <time>1970-01-01T01:10:46.000Z</time>
      </trkpt>
      <trkpt lat="45.99223" lon="4.55934">
        <ele>674.9</ele>
        <time>1970-01-01T01:10:47.000Z</time>
      </trkpt>
      <trkpt lat="45.99223" lon="4.55934">
        <ele>674.9</ele>
        <time>1970-01-01T01:10:48.000Z</time>
      </trkpt>
      <trkpt lat="45.99225" lon="4.55934">
        <ele>674.7</ele>
        <time>1970-01-01T01:10:49.000Z</time>
      </trkpt>
      <trkpt lat="45.99225" lon="4.55934">
        <ele>674.7</ele>
        <time>1970-01-01T01:10:50.000Z</time>
      </trkpt>
      <trkpt lat="45.99227" lon="4.55935">
        <ele>674.4</ele>
        <time>1970-01-01T01:10:51.000Z</time>
      </trkpt>
      <trkpt lat="45.99227" lon="4.55935">
        <ele>674.4</ele>
        <time>1970-01-01T01:10:52.000Z</time>
      </trkpt>
      <trkpt lat="45.99229" lon="4.55936">
        <ele>674.2</ele>
        <time>1970-01-01T01:10:53.000Z</time>
      </trkpt>
      <trkpt lat="45.99229" lon="4.55936">
        <ele>674.2</ele>
        <time>1970-01-01T01:10:54.000Z</time>
      </trkpt>
      <trkpt lat="45.99232" lon="4.55936">
        <ele>673.9</ele>
        <time>1970-01-01T01:10:55.000Z</time>
      </trkpt>
      <trkpt lat="45.99232" lon="4.55936">
        <ele>673.9</ele>
        <time>1970-01-01T01:10:56.000Z</time>
      </trkpt>
      <trkpt lat="45.99234" lon="4.55937">
        <ele>673.7</ele>
        <time>1970-01-01T01:10:57.000Z</time>
      </trkpt>
      <trkpt lat="45.99234" lon="4.55937">
        <ele>673.7</ele>
        <time>1970-01-01T01:10:58.000Z</time>
      </trkpt>
      <trkpt lat="45.99234" lon="4.55937">
        <ele>673.7</ele>
        <time>1970-01-01T01:10:59.000Z</time>
      </trkpt>
      <trkpt lat="45.99234" lon="4.55937">
        <ele>673.7</ele>
        <time>1970-01-01T01:11:00.000Z</time>
      </trkpt>
      <trkpt lat="45.99234" lon="4.55937">
        <ele>673.7</ele>
        <time>1970-01-01T01:11:01.000Z</time>
      </trkpt>
      <trkpt lat="45.99234" lon="4.55937">
        <ele>673.7</ele>
        <time>1970-01-01T01:11:02.000Z</time>
      </trkpt>
      <trkpt lat="45.99234" lon="4.55937">
        <ele>673.7</ele>
        <time>1970-01-01T01:11:03.000Z</time>
      </trkpt>
      <trkpt lat="45.99234" lon="4.55937">
        <ele>673.7</ele>
        <time>1970-01-01T01:11:04.000Z</time>
      </trkpt>
      <trkpt lat="45.99234" lon="4.55937">
        <ele>673.7</ele>
        <time>1970-01-01T01:11:05.000Z</time>
      </trkpt>
      <trkpt lat="45.99234" lon="4.55937">
        <ele>673.7</ele>
        <time>1970-01-01T01:11:06.000Z</time>
      </trkpt>
      <trkpt lat="45.99234" lon="4.55937">
        <ele>673.7</ele>
        <time>1970-01-01T01:11:07.000Z</time>
      </trkpt>
      <trkpt lat="45.99234" lon="4.55937">
        <ele>673.7</ele>
        <time>1970-01-01T01:11:08.000Z</time>
      </trkpt>
      <trkpt lat="45.99234" lon="4.55937">
        <ele>673.7</ele>
        <time>1970-01-01T01:11:09.000Z</time>
      </trkpt>
      <trkpt lat="45.99235" lon="4.55938">
        <ele>673.5</ele>
        <time>1970-01-01T01:11:10.000Z</time>
      </trkpt>
      <trkpt lat="45.99235" lon="4.55938">
        <ele>673.5</ele>
        <time>1970-01-01T01:11:11.000Z</time>
      </trkpt>
      <trkpt lat="45.99235" lon="4.55938">
        <ele>673.5</ele>
        <time>1970-01-01T01:11:12.000Z</time>
      </trkpt>
      <trkpt lat="45.99235" lon="4.55938">
        <ele>673.5</ele>
        <time>1970-01-01T01:11:13.000Z</time>
      </trkpt>
      <trkpt lat="45.99235" lon="4.55938">
        <ele>673.5</ele>
        <time>1970-01-01T01:11:14.000Z</time>
      </trkpt>
      <trkpt lat="45.99237" lon="4.55938">
        <ele>673.2</ele>
        <time>1970-01-01T01:11:15.000Z</time>
      </trkpt>
      <trkpt lat="45.99237" lon="4.55938">
        <ele>673.2</ele>
        <time>1970-01-01T01:11:16.000Z</time>
      </trkpt>
      <trkpt lat="45.99237" lon="4.55938">
        <ele>673.2</ele>
        <time>1970-01-01T01:11:17.000Z</time>
      </trkpt>
      <trkpt lat="45.99237" lon="4.55938">
        <ele>673.2</ele>
        <time>1970-01-01T01:11:18.000Z</time>
      </trkpt>
      <trkpt lat="45.99237" lon="4.55938">
        <ele>673.2</ele>
        <time>1970-01-01T01:11:19.000Z</time>
      </trkpt>
      <trkpt lat="45.99237" lon="4.55938">
        <ele>673.2</ele>
        <time>1970-01-01T01:11:20.000Z</time>
      </trkpt>
      <trkpt lat="45.99237" lon="4.55938">
        <ele>673.2</ele>
        <time>1970-01-01T01:11:21.000Z</time>
      </trkpt>
      <trkpt lat="45.99237" lon="4.55938">
        <ele>673.2</ele>
        <time>1970-01-01T01:11:22.000Z</time>
      </trkpt>
      <trkpt lat="45.99237" lon="4.55938">
        <ele>673.2</ele>
        <time>1970-01-01T01:11:23.000Z</time>
      </trkpt>
      <trkpt lat="45.99237" lon="4.55938">
        <ele>673.2</ele>
        <time>1970-01-01T01:11:24.000Z</time>
      </trkpt>
      <trkpt lat="45.99237" lon="4.55938">
        <ele>673.2</ele>
        <time>1970-01-01T01:11:25.000Z</time>
      </trkpt>
      <trkpt lat="45.99237" lon="4.55938">
        <ele>673.2</ele>
        <time>1970-01-01T01:11:26.000Z</time>
      </trkpt>
      <trkpt lat="45.99237" lon="4.55938">
        <ele>673.2</ele>
        <time>1970-01-01T01:11:27.000Z</time>
      </trkpt>
      <trkpt lat="45.99237" lon="4.55938">
        <ele>673.2</ele>
        <time>1970-01-01T01:11:28.000Z</time>
      </trkpt>
      <trkpt lat="45.99237" lon="4.55938">
        <ele>673.2</ele>
        <time>1970-01-01T01:11:29.000Z</time>
      </trkpt>
      <trkpt lat="45.99237" lon="4.55938">
        <ele>673.2</ele>
        <time>1970-01-01T01:11:30.000Z</time>
      </trkpt>
      <trkpt lat="45.99237" lon="4.55938">
        <ele>673.2</ele>
        <time>1970-01-01T01:11:31.000Z</time>
      </trkpt>
      <trkpt lat="45.99237" lon="4.55938">
        <ele>673.2</ele>
        <time>1970-01-01T01:11:32.000Z</time>
      </trkpt>
      <trkpt lat="45.99237" lon="4.55938">
        <ele>673.2</ele>
        <time>1970-01-01T01:11:33.000Z</time>
      </trkpt>
      <trkpt lat="45.99237" lon="4.55938">
        <ele>673.2</ele>
        <time>1970-01-01T01:11:34.000Z</time>
      </trkpt>
      <trkpt lat="45.99237" lon="4.55938">
        <ele>673.2</ele>
        <time>1970-01-01T01:11:35.000Z</time>
      </trkpt>
      <trkpt lat="45.99237" lon="4.55938">
        <ele>673.2</ele>
        <time>1970-01-01T01:11:36.000Z</time>
      </trkpt>
      <trkpt lat="45.99237" lon="4.55938">
        <ele>673.2</ele>
        <time>1970-01-01T01:11:37.000Z</time>
      </trkpt>
      <trkpt lat="45.99237" lon="4.55938">
        <ele>673.2</ele>
        <time>1970-01-01T01:11:38.000Z</time>
      </trkpt>
      <trkpt lat="45.99237" lon="4.55938">
        <ele>673.2</ele>
        <time>1970-01-01T01:11:39.000Z</time>
      </trkpt>
      <trkpt lat="45.99237" lon="4.55938">
        <ele>673.2</ele>
        <time>1970-01-01T01:11:40.000Z</time>
      </trkpt>
      <trkpt lat="45.99237" lon="4.55938">
        <ele>673.2</ele>
        <time>1970-01-01T01:11:41.000Z</time>
      </trkpt>
      <trkpt lat="45.99237" lon="4.55938">
        <ele>673.2</ele>
        <time>1970-01-01T01:11:42.000Z</time>
      </trkpt>
      <trkpt lat="45.99237" lon="4.55938">
        <ele>673.2</ele>
        <time>1970-01-01T01:11:43.000Z</time>
      </trkpt>
      <trkpt lat="45.99237" lon="4.55938">
        <ele>673.2</ele>
        <time>1970-01-01T01:11:44.000Z</time>
      </trkpt>
      <trkpt lat="45.99237" lon="4.55938">
        <ele>673.2</ele>
        <time>1970-01-01T01:11:45.000Z</time>
      </trkpt>
      <trkpt lat="45.99237" lon="4.55938">
        <ele>673.2</ele>
        <time>1970-01-01T01:11:46.000Z</time>
      </trkpt>
      <trkpt lat="45.99237" lon="4.55938">
        <ele>673.2</ele>
        <time>1970-01-01T01:11:47.000Z</time>
      </trkpt>
      <trkpt lat="45.99237" lon="4.55938">
        <ele>673.2</ele>
        <time>1970-01-01T01:11:48.000Z</time>
      </trkpt>
      <trkpt lat="45.99237" lon="4.55938">
        <ele>673.2</ele>
        <time>1970-01-01T01:11:49.000Z</time>
      </trkpt>
      <trkpt lat="45.99237" lon="4.55938">
        <ele>673.2</ele>
        <time>1970-01-01T01:11:50.000Z</time>
      </trkpt>
      <trkpt lat="45.99237" lon="4.55938">
        <ele>673.2</ele>
        <time>1970-01-01T01:11:51.000Z</time>
      </trkpt>
      <trkpt lat="45.99237" lon="4.55938">
        <ele>673.2</ele>
        <time>1970-01-01T01:11:52.000Z</time>
      </trkpt>
      <trkpt lat="45.99237" lon="4.55938">
        <ele>673.2</ele>
        <time>1970-01-01T01:11:53.000Z</time>
      </trkpt>
      <trkpt lat="45.99237" lon="4.55938">
        <ele>673.2</ele>
        <time>1970-01-01T01:11:54.000Z</time>
      </trkpt>
      <trkpt lat="45.99237" lon="4.55938">
        <ele>673.2</ele>
        <time>1970-01-01T01:11:55.000Z</time>
      </trkpt>
      <trkpt lat="45.99238" lon="4.55941">
        <ele>673</ele>
        <time>1970-01-01T01:11:56.000Z</time>
      </trkpt>
      <trkpt lat="45.99238" lon="4.55941">
        <ele>673</ele>
        <time>1970-01-01T01:11:57.000Z</time>
      </trkpt>
      <trkpt lat="45.99238" lon="4.55941">
        <ele>673</ele>
        <time>1970-01-01T01:11:58.000Z</time>
      </trkpt>
      <trkpt lat="45.99238" lon="4.55941">
        <ele>673</ele>
        <time>1970-01-01T01:11:59.000Z</time>
      </trkpt>
      <trkpt lat="45.99238" lon="4.55941">
        <ele>673</ele>
        <time>1970-01-01T01:12:00.000Z</time>
      </trkpt>
      <trkpt lat="45.99238" lon="4.55941">
        <ele>673</ele>
        <time>1970-01-01T01:12:01.000Z</time>
      </trkpt>
      <trkpt lat="45.99238" lon="4.55941">
        <ele>673</ele>
        <time>1970-01-01T01:12:02.000Z</time>
      </trkpt>
      <trkpt lat="45.99238" lon="4.55941">
        <ele>673</ele>
        <time>1970-01-01T01:12:03.000Z</time>
      </trkpt>
      <trkpt lat="45.99238" lon="4.55941">
        <ele>673</ele>
        <time>1970-01-01T01:12:04.000Z</time>
      </trkpt>
      <trkpt lat="45.99238" lon="4.55941">
        <ele>673</ele>
        <time>1970-01-01T01:12:05.000Z</time>
      </trkpt>
      <trkpt lat="45.99238" lon="4.55941">
        <ele>673</ele>
        <time>1970-01-01T01:12:06.000Z</time>
      </trkpt>
      <trkpt lat="45.99238" lon="4.55941">
        <ele>673</ele>
        <time>1970-01-01T01:12:07.000Z</time>
      </trkpt>
      <trkpt lat="45.99238" lon="4.55941">
        <ele>673</ele>
        <time>1970-01-01T01:12:08.000Z</time>
      </trkpt>
      <trkpt lat="45.99238" lon="4.55941">
        <ele>673</ele>
        <time>1970-01-01T01:12:09.000Z</time>
      </trkpt>
      <trkpt lat="45.99238" lon="4.55941">
        <ele>673</ele>
        <time>1970-01-01T01:12:10.000Z</time>
      </trkpt>
      <trkpt lat="45.99238" lon="4.55941">
        <ele>673</ele>
        <time>1970-01-01T01:12:11.000Z</time>
      </trkpt>
      <trkpt lat="45.99238" lon="4.55941">
        <ele>673</ele>
        <time>1970-01-01T01:12:12.000Z</time>
      </trkpt>
      <trkpt lat="45.99238" lon="4.55941">
        <ele>673</ele>
        <time>1970-01-01T01:12:13.000Z</time>
      </trkpt>
      <trkpt lat="45.99238" lon="4.55941">
        <ele>673</ele>
        <time>1970-01-01T01:12:14.000Z</time>
      </trkpt>
      <trkpt lat="45.99238" lon="4.55941">
        <ele>673</ele>
        <time>1970-01-01T01:12:15.000Z</time>
      </trkpt>
      <trkpt lat="45.99238" lon="4.55941">
        <ele>673</ele>
        <time>1970-01-01T01:12:16.000Z</time>
      </trkpt>
      <trkpt lat="45.99238" lon="4.55941">
        <ele>673</ele>
        <time>1970-01-01T01:12:17.000Z</time>
      </trkpt>
      <trkpt lat="45.99238" lon="4.55941">
        <ele>673</ele>
        <time>1970-01-01T01:12:18.000Z</time>
      </trkpt>
      <trkpt lat="45.99238" lon="4.55941">
        <ele>673</ele>
        <time>1970-01-01T01:12:19.000Z</time>
      </trkpt>
      <trkpt lat="45.99238" lon="4.55941">
        <ele>673</ele>
        <time>1970-01-01T01:12:20.000Z</time>
      </trkpt>
      <trkpt lat="45.99238" lon="4.55941">
        <ele>673</ele>
        <time>1970-01-01T01:12:21.000Z</time>
      </trkpt>
      <trkpt lat="45.99238" lon="4.55941">
        <ele>673</ele>
        <time>1970-01-01T01:12:22.000Z</time>
      </trkpt>
      <trkpt lat="45.99238" lon="4.55941">
        <ele>673</ele>
        <time>1970-01-01T01:12:23.000Z</time>
      </trkpt>
      <trkpt lat="45.99238" lon="4.55941">
        <ele>673</ele>
        <time>1970-01-01T01:12:24.000Z</time>
      </trkpt>
      <trkpt lat="45.99238" lon="4.55941">
        <ele>673</ele>
        <time>1970-01-01T01:12:25.000Z</time>
      </trkpt>
      <trkpt lat="45.99238" lon="4.55941">
        <ele>673</ele>
        <time>1970-01-01T01:12:26.000Z</time>
      </trkpt>
      <trkpt lat="45.99238" lon="4.55941">
        <ele>673</ele>
        <time>1970-01-01T01:12:27.000Z</time>
      </trkpt>
      <trkpt lat="45.99238" lon="4.55941">
        <ele>673</ele>
        <time>1970-01-01T01:12:28.000Z</time>
      </trkpt>
      <trkpt lat="45.99238" lon="4.55941">
        <ele>673</ele>
        <time>1970-01-01T01:12:29.000Z</time>
      </trkpt>
      <trkpt lat="45.99238" lon="4.55941">
        <ele>673</ele>
        <time>1970-01-01T01:12:30.000Z</time>
      </trkpt>
      <trkpt lat="45.99238" lon="4.55941">
        <ele>673</ele>
        <time>1970-01-01T01:12:31.000Z</time>
      </trkpt>
      <trkpt lat="45.99238" lon="4.55941">
        <ele>673</ele>
        <time>1970-01-01T01:12:32.000Z</time>
      </trkpt>
      <trkpt lat="45.99238" lon="4.55941">
        <ele>673</ele>
        <time>1970-01-01T01:12:33.000Z</time>
      </trkpt>
      <trkpt lat="45.99238" lon="4.55941">
        <ele>673</ele>
        <time>1970-01-01T01:12:34.000Z</time>
      </trkpt>
      <trkpt lat="45.99238" lon="4.55941">
        <ele>673</ele>
        <time>1970-01-01T01:12:35.000Z</time>
      </trkpt>
      <trkpt lat="45.99238" lon="4.55941">
        <ele>673</ele>
        <time>1970-01-01T01:12:36.000Z</time>
      </trkpt>
      <trkpt lat="45.99238" lon="4.55941">
        <ele>673</ele>
        <time>1970-01-01T01:12:37.000Z</time>
      </trkpt>
      <trkpt lat="45.99238" lon="4.55941">
        <ele>673</ele>
        <time>1970-01-01T01:12:38.000Z</time>
      </trkpt>
      <trkpt lat="45.99238" lon="4.55941">
        <ele>673</ele>
        <time>1970-01-01T01:12:39.000Z</time>
      </trkpt>
      <trkpt lat="45.99238" lon="4.55941">
        <ele>673</ele>
        <time>1970-01-01T01:12:40.000Z</time>
      </trkpt>
      <trkpt lat="45.99238" lon="4.55941">
        <ele>673</ele>
        <time>1970-01-01T01:12:41.000Z</time>
      </trkpt>
      <trkpt lat="45.99238" lon="4.55941">
        <ele>673</ele>
        <time>1970-01-01T01:12:42.000Z</time>
      </trkpt>
      <trkpt lat="45.99238" lon="4.55941">
        <ele>673</ele>
        <time>1970-01-01T01:12:43.000Z</time>
      </trkpt>
      <trkpt lat="45.99238" lon="4.55941">
        <ele>673</ele>
        <time>1970-01-01T01:12:44.000Z</time>
      </trkpt>
      <trkpt lat="45.99238" lon="4.55941">
        <ele>673</ele>
        <time>1970-01-01T01:12:45.000Z</time>
      </trkpt>
      <trkpt lat="45.99238" lon="4.55941">
        <ele>673</ele>
        <time>1970-01-01T01:12:46.000Z</time>
      </trkpt>
      <trkpt lat="45.99238" lon="4.55941">
        <ele>673</ele>
        <time>1970-01-01T01:12:47.000Z</time>
      </trkpt>
      <trkpt lat="45.99238" lon="4.55941">
        <ele>673</ele>
        <time>1970-01-01T01:12:48.000Z</time>
      </trkpt>
      <trkpt lat="45.9924" lon="4.5594">
        <ele>672.8</ele>
        <time>1970-01-01T01:12:49.000Z</time>
      </trkpt>
      <trkpt lat="45.9924" lon="4.5594">
        <ele>672.8</ele>
        <time>1970-01-01T01:12:50.000Z</time>
      </trkpt>
      <trkpt lat="45.99242" lon="4.55939">
        <ele>672.6</ele>
        <time>1970-01-01T01:12:51.000Z</time>
      </trkpt>
      <trkpt lat="45.99242" lon="4.55939">
        <ele>672.6</ele>
        <time>1970-01-01T01:12:52.000Z</time>
      </trkpt>
      <trkpt lat="45.99244" lon="4.55939">
        <ele>672.3</ele>
        <time>1970-01-01T01:12:53.000Z</time>
      </trkpt>
      <trkpt lat="45.99244" lon="4.55939">
        <ele>672.3</ele>
        <time>1970-01-01T01:12:54.000Z</time>
      </trkpt>
      <trkpt lat="45.99245" lon="4.55939">
        <ele>672.1</ele>
        <time>1970-01-01T01:12:55.000Z</time>
      </trkpt>
      <trkpt lat="45.99245" lon="4.55939">
        <ele>672.1</ele>
        <time>1970-01-01T01:12:56.000Z</time>
      </trkpt>
      <trkpt lat="45.99247" lon="4.55939">
        <ele>671.9</ele>
        <time>1970-01-01T01:12:57.000Z</time>
      </trkpt>
      <trkpt lat="45.99247" lon="4.55939">
        <ele>671.9</ele>
        <time>1970-01-01T01:12:58.000Z</time>
      </trkpt>
      <trkpt lat="45.9925" lon="4.55938">
        <ele>671.6</ele>
        <time>1970-01-01T01:12:59.000Z</time>
      </trkpt>
      <trkpt lat="45.9925" lon="4.55938">
        <ele>671.6</ele>
        <time>1970-01-01T01:13:00.000Z</time>
      </trkpt>
      <trkpt lat="45.99252" lon="4.55938">
        <ele>671.4</ele>
        <time>1970-01-01T01:13:01.000Z</time>
      </trkpt>
      <trkpt lat="45.99252" lon="4.55938">
        <ele>671.4</ele>
        <time>1970-01-01T01:13:02.000Z</time>
      </trkpt>
      <trkpt lat="45.99254" lon="4.55937">
        <ele>671.2</ele>
        <time>1970-01-01T01:13:03.000Z</time>
      </trkpt>
      <trkpt lat="45.99254" lon="4.55937">
        <ele>671.2</ele>
        <time>1970-01-01T01:13:04.000Z</time>
      </trkpt>
      <trkpt lat="45.99256" lon="4.55937">
        <ele>671</ele>
        <time>1970-01-01T01:13:05.000Z</time>
      </trkpt>
      <trkpt lat="45.99256" lon="4.55937">
        <ele>671</ele>
        <time>1970-01-01T01:13:06.000Z</time>
      </trkpt>
      <trkpt lat="45.99258" lon="4.55936">
        <ele>670.8</ele>
        <time>1970-01-01T01:13:07.000Z</time>
      </trkpt>
      <trkpt lat="45.99258" lon="4.55936">
        <ele>670.8</ele>
        <time>1970-01-01T01:13:08.000Z</time>
      </trkpt>
      <trkpt lat="45.99261" lon="4.55935">
        <ele>670.6</ele>
        <time>1970-01-01T01:13:09.000Z</time>
      </trkpt>
      <trkpt lat="45.99261" lon="4.55935">
        <ele>670.6</ele>
        <time>1970-01-01T01:13:10.000Z</time>
      </trkpt>
      <trkpt lat="45.99263" lon="4.55935">
        <ele>670.4</ele>
        <time>1970-01-01T01:13:11.000Z</time>
      </trkpt>
      <trkpt lat="45.99263" lon="4.55935">
        <ele>670.4</ele>
        <time>1970-01-01T01:13:12.000Z</time>
      </trkpt>
      <trkpt lat="45.99265" lon="4.55933">
        <ele>670.3</ele>
        <time>1970-01-01T01:13:13.000Z</time>
      </trkpt>
      <trkpt lat="45.99265" lon="4.55933">
        <ele>670.3</ele>
        <time>1970-01-01T01:13:14.000Z</time>
      </trkpt>
      <trkpt lat="45.99267" lon="4.55932">
        <ele>670.1</ele>
        <time>1970-01-01T01:13:15.000Z</time>
      </trkpt>
      <trkpt lat="45.99267" lon="4.55932">
        <ele>670.1</ele>
        <time>1970-01-01T01:13:16.000Z</time>
      </trkpt>
      <trkpt lat="45.9927" lon="4.55931">
        <ele>670</ele>
        <time>1970-01-01T01:13:17.000Z</time>
      </trkpt>
      <trkpt lat="45.9927" lon="4.55931">
        <ele>670</ele>
        <time>1970-01-01T01:13:18.000Z</time>
      </trkpt>
      <trkpt lat="45.99272" lon="4.55929">
        <ele>669.8</ele>
        <time>1970-01-01T01:13:19.000Z</time>
      </trkpt>
      <trkpt lat="45.99272" lon="4.55929">
        <ele>669.8</ele>
        <time>1970-01-01T01:13:20.000Z</time>
      </trkpt>
      <trkpt lat="45.99275" lon="4.55929">
        <ele>669.7</ele>
        <time>1970-01-01T01:13:21.000Z</time>
      </trkpt>
      <trkpt lat="45.99275" lon="4.55929">
        <ele>669.7</ele>
        <time>1970-01-01T01:13:22.000Z</time>
      </trkpt>
      <trkpt lat="45.99277" lon="4.5593">
        <ele>669.6</ele>
        <time>1970-01-01T01:13:23.000Z</time>
      </trkpt>
      <trkpt lat="45.99277" lon="4.5593">
        <ele>669.6</ele>
        <time>1970-01-01T01:13:24.000Z</time>
      </trkpt>
      <trkpt lat="45.99279" lon="4.55931">
        <ele>669.5</ele>
        <time>1970-01-01T01:13:25.000Z</time>
      </trkpt>
      <trkpt lat="45.99279" lon="4.55931">
        <ele>669.5</ele>
        <time>1970-01-01T01:13:26.000Z</time>
      </trkpt>
      <trkpt lat="45.99282" lon="4.5593">
        <ele>669.5</ele>
        <time>1970-01-01T01:13:27.000Z</time>
      </trkpt>
      <trkpt lat="45.99282" lon="4.5593">
        <ele>669.5</ele>
        <time>1970-01-01T01:13:28.000Z</time>
      </trkpt>
      <trkpt lat="45.99284" lon="4.55928">
        <ele>669.4</ele>
        <time>1970-01-01T01:13:29.000Z</time>
      </trkpt>
      <trkpt lat="45.99284" lon="4.55928">
        <ele>669.4</ele>
        <time>1970-01-01T01:13:30.000Z</time>
      </trkpt>
      <trkpt lat="45.99286" lon="4.55926">
        <ele>669.3</ele>
        <time>1970-01-01T01:13:31.000Z</time>
      </trkpt>
      <trkpt lat="45.99286" lon="4.55926">
        <ele>669.3</ele>
        <time>1970-01-01T01:13:32.000Z</time>
      </trkpt>
      <trkpt lat="45.99288" lon="4.55925">
        <ele>669.3</ele>
        <time>1970-01-01T01:13:33.000Z</time>
      </trkpt>
      <trkpt lat="45.99288" lon="4.55925">
        <ele>669.3</ele>
        <time>1970-01-01T01:13:34.000Z</time>
      </trkpt>
      <trkpt lat="45.9929" lon="4.55924">
        <ele>669.2</ele>
        <time>1970-01-01T01:13:35.000Z</time>
      </trkpt>
      <trkpt lat="45.9929" lon="4.55924">
        <ele>669.2</ele>
        <time>1970-01-01T01:13:36.000Z</time>
      </trkpt>
      <trkpt lat="45.9929" lon="4.55924">
        <ele>669.2</ele>
        <time>1970-01-01T01:13:37.000Z</time>
      </trkpt>
      <trkpt lat="45.99293" lon="4.55923">
        <ele>669.2</ele>
        <time>1970-01-01T01:13:38.000Z</time>
      </trkpt>
      <trkpt lat="45.99293" lon="4.55923">
        <ele>669.2</ele>
        <time>1970-01-01T01:13:39.000Z</time>
      </trkpt>
      <trkpt lat="45.99295" lon="4.55922">
        <ele>669.2</ele>
        <time>1970-01-01T01:13:40.000Z</time>
      </trkpt>
      <trkpt lat="45.99295" lon="4.55922">
        <ele>669.2</ele>
        <time>1970-01-01T01:13:41.000Z</time>
      </trkpt>
      <trkpt lat="45.99298" lon="4.5592">
        <ele>669.1</ele>
        <time>1970-01-01T01:13:42.000Z</time>
      </trkpt>
      <trkpt lat="45.99298" lon="4.5592">
        <ele>669.1</ele>
        <time>1970-01-01T01:13:43.000Z</time>
      </trkpt>
      <trkpt lat="45.99301" lon="4.5592">
        <ele>669.1</ele>
        <time>1970-01-01T01:13:44.000Z</time>
      </trkpt>
      <trkpt lat="45.99301" lon="4.5592">
        <ele>669.1</ele>
        <time>1970-01-01T01:13:45.000Z</time>
      </trkpt>
      <trkpt lat="45.99303" lon="4.55919">
        <ele>669.1</ele>
        <time>1970-01-01T01:13:46.000Z</time>
      </trkpt>
      <trkpt lat="45.99303" lon="4.55919">
        <ele>669.1</ele>
        <time>1970-01-01T01:13:47.000Z</time>
      </trkpt>
      <trkpt lat="45.99305" lon="4.55918">
        <ele>669.1</ele>
        <time>1970-01-01T01:13:48.000Z</time>
      </trkpt>
      <trkpt lat="45.99305" lon="4.55918">
        <ele>669.1</ele>
        <time>1970-01-01T01:13:49.000Z</time>
      </trkpt>
      <trkpt lat="45.99308" lon="4.55917">
        <ele>669</ele>
        <time>1970-01-01T01:13:50.000Z</time>
      </trkpt>
      <trkpt lat="45.99309" lon="4.55917">
        <ele>669</ele>
        <time>1970-01-01T01:13:51.000Z</time>
      </trkpt>
      <trkpt lat="45.9931" lon="4.55918">
        <ele>669</ele>
        <time>1970-01-01T01:13:52.000Z</time>
      </trkpt>
      <trkpt lat="45.99311" lon="4.55918">
        <ele>669</ele>
        <time>1970-01-01T01:13:53.000Z</time>
      </trkpt>
      <trkpt lat="45.99312" lon="4.55919">
        <ele>669</ele>
        <time>1970-01-01T01:13:54.000Z</time>
      </trkpt>
      <trkpt lat="45.99314" lon="4.55919">
        <ele>669</ele>
        <time>1970-01-01T01:13:55.000Z</time>
      </trkpt>
      <trkpt lat="45.99315" lon="4.5592">
        <ele>669</ele>
        <time>1970-01-01T01:13:56.000Z</time>
      </trkpt>
      <trkpt lat="45.99316" lon="4.5592">
        <ele>669</ele>
        <time>1970-01-01T01:13:57.000Z</time>
      </trkpt>
      <trkpt lat="45.99317" lon="4.55921">
        <ele>669</ele>
        <time>1970-01-01T01:13:58.000Z</time>
      </trkpt>
      <trkpt lat="45.99317" lon="4.55921">
        <ele>669</ele>
        <time>1970-01-01T01:13:59.000Z</time>
      </trkpt>
      <trkpt lat="45.9932" lon="4.5592">
        <ele>669</ele>
        <time>1970-01-01T01:14:00.000Z</time>
      </trkpt>
      <trkpt lat="45.99321" lon="4.55919">
        <ele>669</ele>
        <time>1970-01-01T01:14:01.000Z</time>
      </trkpt>
      <trkpt lat="45.99322" lon="4.55918">
        <ele>669</ele>
        <time>1970-01-01T01:14:02.000Z</time>
      </trkpt>
      <trkpt lat="45.99323" lon="4.55918">
        <ele>669</ele>
        <time>1970-01-01T01:14:03.000Z</time>
      </trkpt>
      <trkpt lat="45.99324" lon="4.55917">
        <ele>669</ele>
        <time>1970-01-01T01:14:04.000Z</time>
      </trkpt>
      <trkpt lat="45.99325" lon="4.55916">
        <ele>669.1</ele>
        <time>1970-01-01T01:14:05.000Z</time>
      </trkpt>
      <trkpt lat="45.99326" lon="4.55915">
        <ele>669.1</ele>
        <time>1970-01-01T01:14:06.000Z</time>
      </trkpt>
      <trkpt lat="45.99327" lon="4.55914">
        <ele>669.1</ele>
        <time>1970-01-01T01:14:07.000Z</time>
      </trkpt>
      <trkpt lat="45.99328" lon="4.55914">
        <ele>669.1</ele>
        <time>1970-01-01T01:14:08.000Z</time>
      </trkpt>
      <trkpt lat="45.99328" lon="4.55911">
        <ele>669.1</ele>
        <time>1970-01-01T01:14:09.000Z</time>
      </trkpt>
      <trkpt lat="45.99328" lon="4.55909">
        <ele>669.1</ele>
        <time>1970-01-01T01:14:10.000Z</time>
      </trkpt>
      <trkpt lat="45.99328" lon="4.55907">
        <ele>669.1</ele>
        <time>1970-01-01T01:14:11.000Z</time>
      </trkpt>
      <trkpt lat="45.99328" lon="4.55905">
        <ele>669.1</ele>
        <time>1970-01-01T01:14:12.000Z</time>
      </trkpt>
      <trkpt lat="45.99328" lon="4.55903">
        <ele>669.1</ele>
        <time>1970-01-01T01:14:13.000Z</time>
      </trkpt>
      <trkpt lat="45.99329" lon="4.55901">
        <ele>669.2</ele>
        <time>1970-01-01T01:14:14.000Z</time>
      </trkpt>
      <trkpt lat="45.99329" lon="4.55901">
        <ele>669.2</ele>
        <time>1970-01-01T01:14:15.000Z</time>
      </trkpt>
      <trkpt lat="45.99328" lon="4.55898">
        <ele>669.2</ele>
        <time>1970-01-01T01:14:16.000Z</time>
      </trkpt>
      <trkpt lat="45.99328" lon="4.55898">
        <ele>669.2</ele>
        <time>1970-01-01T01:14:17.000Z</time>
      </trkpt>
      <trkpt lat="45.99328" lon="4.55894">
        <ele>669.2</ele>
        <time>1970-01-01T01:14:18.000Z</time>
      </trkpt>
      <trkpt lat="45.99328" lon="4.55894">
        <ele>669.2</ele>
        <time>1970-01-01T01:14:19.000Z</time>
      </trkpt>
      <trkpt lat="45.99327" lon="4.55891">
        <ele>669.2</ele>
        <time>1970-01-01T01:14:20.000Z</time>
      </trkpt>
      <trkpt lat="45.99327" lon="4.55891">
        <ele>669.2</ele>
        <time>1970-01-01T01:14:21.000Z</time>
      </trkpt>
      <trkpt lat="45.99326" lon="4.55887">
        <ele>669.3</ele>
        <time>1970-01-01T01:14:22.000Z</time>
      </trkpt>
      <trkpt lat="45.99326" lon="4.55887">
        <ele>669.3</ele>
        <time>1970-01-01T01:14:23.000Z</time>
      </trkpt>
      <trkpt lat="45.99325" lon="4.55883">
        <ele>669.3</ele>
        <time>1970-01-01T01:14:24.000Z</time>
      </trkpt>
      <trkpt lat="45.99325" lon="4.55883">
        <ele>669.3</ele>
        <time>1970-01-01T01:14:25.000Z</time>
      </trkpt>
      <trkpt lat="45.99325" lon="4.55883">
        <ele>669.3</ele>
        <time>1970-01-01T01:14:26.000Z</time>
      </trkpt>
      <trkpt lat="45.99325" lon="4.55879">
        <ele>669.3</ele>
        <time>1970-01-01T01:14:27.000Z</time>
      </trkpt>
      <trkpt lat="45.99325" lon="4.55879">
        <ele>669.3</ele>
        <time>1970-01-01T01:14:28.000Z</time>
      </trkpt>
      <trkpt lat="45.99324" lon="4.55876">
        <ele>669.3</ele>
        <time>1970-01-01T01:14:29.000Z</time>
      </trkpt>
      <trkpt lat="45.99324" lon="4.55876">
        <ele>669.3</ele>
        <time>1970-01-01T01:14:30.000Z</time>
      </trkpt>
      <trkpt lat="45.99323" lon="4.55874">
        <ele>669.3</ele>
        <time>1970-01-01T01:14:31.000Z</time>
      </trkpt>
      <trkpt lat="45.99323" lon="4.55874">
        <ele>669.3</ele>
        <time>1970-01-01T01:14:32.000Z</time>
      </trkpt>
      <trkpt lat="45.99322" lon="4.5587">
        <ele>669.3</ele>
        <time>1970-01-01T01:14:33.000Z</time>
      </trkpt>
      <trkpt lat="45.99322" lon="4.55867">
        <ele>669.3</ele>
        <time>1970-01-01T01:14:34.000Z</time>
      </trkpt>
      <trkpt lat="45.99322" lon="4.55867">
        <ele>669.3</ele>
        <time>1970-01-01T01:14:35.000Z</time>
      </trkpt>
      <trkpt lat="45.9932" lon="4.55863">
        <ele>669.4</ele>
        <time>1970-01-01T01:14:36.000Z</time>
      </trkpt>
      <trkpt lat="45.9932" lon="4.55863">
        <ele>669.4</ele>
        <time>1970-01-01T01:14:37.000Z</time>
      </trkpt>
      <trkpt lat="45.9932" lon="4.55859">
        <ele>669.4</ele>
        <time>1970-01-01T01:14:38.000Z</time>
      </trkpt>
      <trkpt lat="45.9932" lon="4.55859">
        <ele>669.4</ele>
        <time>1970-01-01T01:14:39.000Z</time>
      </trkpt>
      <trkpt lat="45.99319" lon="4.55856">
        <ele>669.4</ele>
        <time>1970-01-01T01:14:40.000Z</time>
      </trkpt>
      <trkpt lat="45.99319" lon="4.55856">
        <ele>669.4</ele>
        <time>1970-01-01T01:14:41.000Z</time>
      </trkpt>
      <trkpt lat="45.99319" lon="4.55856">
        <ele>669.4</ele>
        <time>1970-01-01T01:14:42.000Z</time>
      </trkpt>
      <trkpt lat="45.99319" lon="4.55852">
        <ele>669.4</ele>
        <time>1970-01-01T01:14:43.000Z</time>
      </trkpt>
      <trkpt lat="45.99319" lon="4.55852">
        <ele>669.4</ele>
        <time>1970-01-01T01:14:44.000Z</time>
      </trkpt>
      <trkpt lat="45.99319" lon="4.55849">
        <ele>669.4</ele>
        <time>1970-01-01T01:14:45.000Z</time>
      </trkpt>
      <trkpt lat="45.99319" lon="4.55849">
        <ele>669.4</ele>
        <time>1970-01-01T01:14:46.000Z</time>
      </trkpt>
      <trkpt lat="45.99318" lon="4.55845">
        <ele>669.4</ele>
        <time>1970-01-01T01:14:47.000Z</time>
      </trkpt>
      <trkpt lat="45.99318" lon="4.55845">
        <ele>669.4</ele>
        <time>1970-01-01T01:14:48.000Z</time>
      </trkpt>
      <trkpt lat="45.99317" lon="4.55842">
        <ele>669.4</ele>
        <time>1970-01-01T01:14:49.000Z</time>
      </trkpt>
      <trkpt lat="45.99317" lon="4.55842">
        <ele>669.4</ele>
        <time>1970-01-01T01:14:50.000Z</time>
      </trkpt>
      <trkpt lat="45.99316" lon="4.55838">
        <ele>669.4</ele>
        <time>1970-01-01T01:14:51.000Z</time>
      </trkpt>
      <trkpt lat="45.99316" lon="4.55838">
        <ele>669.4</ele>
        <time>1970-01-01T01:14:52.000Z</time>
      </trkpt>
      <trkpt lat="45.99315" lon="4.55834">
        <ele>669.4</ele>
        <time>1970-01-01T01:14:53.000Z</time>
      </trkpt>
      <trkpt lat="45.99315" lon="4.55834">
        <ele>669.4</ele>
        <time>1970-01-01T01:14:54.000Z</time>
      </trkpt>
      <trkpt lat="45.99313" lon="4.5583">
        <ele>669.4</ele>
        <time>1970-01-01T01:14:55.000Z</time>
      </trkpt>
      <trkpt lat="45.99313" lon="4.5583">
        <ele>669.4</ele>
        <time>1970-01-01T01:14:56.000Z</time>
      </trkpt>
      <trkpt lat="45.99313" lon="4.55827">
        <ele>669.4</ele>
        <time>1970-01-01T01:14:57.000Z</time>
      </trkpt>
      <trkpt lat="45.99313" lon="4.55827">
        <ele>669.4</ele>
        <time>1970-01-01T01:14:58.000Z</time>
      </trkpt>
      <trkpt lat="45.99313" lon="4.55823">
        <ele>669.4</ele>
        <time>1970-01-01T01:14:59.000Z</time>
      </trkpt>
      <trkpt lat="45.99313" lon="4.55823">
        <ele>669.4</ele>
        <time>1970-01-01T01:15:00.000Z</time>
      </trkpt>
      <trkpt lat="45.99313" lon="4.5582">
        <ele>669.4</ele>
        <time>1970-01-01T01:15:01.000Z</time>
      </trkpt>
      <trkpt lat="45.99313" lon="4.5582">
        <ele>669.4</ele>
        <time>1970-01-01T01:15:02.000Z</time>
      </trkpt>
      <trkpt lat="45.99313" lon="4.55816">
        <ele>669.4</ele>
        <time>1970-01-01T01:15:03.000Z</time>
      </trkpt>
      <trkpt lat="45.99313" lon="4.55816">
        <ele>669.4</ele>
        <time>1970-01-01T01:15:04.000Z</time>
      </trkpt>
      <trkpt lat="45.99313" lon="4.55813">
        <ele>669.4</ele>
        <time>1970-01-01T01:15:05.000Z</time>
      </trkpt>
      <trkpt lat="45.99313" lon="4.55813">
        <ele>669.4</ele>
        <time>1970-01-01T01:15:06.000Z</time>
      </trkpt>
      <trkpt lat="45.99313" lon="4.5581">
        <ele>669.4</ele>
        <time>1970-01-01T01:15:07.000Z</time>
      </trkpt>
      <trkpt lat="45.99313" lon="4.5581">
        <ele>669.4</ele>
        <time>1970-01-01T01:15:08.000Z</time>
      </trkpt>
      <trkpt lat="45.99314" lon="4.55807">
        <ele>669.4</ele>
        <time>1970-01-01T01:15:09.000Z</time>
      </trkpt>
      <trkpt lat="45.99314" lon="4.55807">
        <ele>669.4</ele>
        <time>1970-01-01T01:15:10.000Z</time>
      </trkpt>
      <trkpt lat="45.99314" lon="4.55803">
        <ele>669.3</ele>
        <time>1970-01-01T01:15:11.000Z</time>
      </trkpt>
      <trkpt lat="45.99314" lon="4.55803">
        <ele>669.3</ele>
        <time>1970-01-01T01:15:12.000Z</time>
      </trkpt>
      <trkpt lat="45.99314" lon="4.55799">
        <ele>669.2</ele>
        <time>1970-01-01T01:15:13.000Z</time>
      </trkpt>
      <trkpt lat="45.99314" lon="4.55799">
        <ele>669.2</ele>
        <time>1970-01-01T01:15:14.000Z</time>
      </trkpt>
      <trkpt lat="45.99315" lon="4.55796">
        <ele>669.2</ele>
        <time>1970-01-01T01:15:15.000Z</time>
      </trkpt>
      <trkpt lat="45.99315" lon="4.55796">
        <ele>669.2</ele>
        <time>1970-01-01T01:15:16.000Z</time>
      </trkpt>
      <trkpt lat="45.99316" lon="4.55792">
        <ele>669</ele>
        <time>1970-01-01T01:15:17.000Z</time>
      </trkpt>
      <trkpt lat="45.99316" lon="4.55792">
        <ele>669</ele>
        <time>1970-01-01T01:15:18.000Z</time>
      </trkpt>
      <trkpt lat="45.99317" lon="4.55789">
        <ele>668.9</ele>
        <time>1970-01-01T01:15:19.000Z</time>
      </trkpt>
      <trkpt lat="45.99317" lon="4.55789">
        <ele>668.9</ele>
        <time>1970-01-01T01:15:20.000Z</time>
      </trkpt>
      <trkpt lat="45.99319" lon="4.55786">
        <ele>668.8</ele>
        <time>1970-01-01T01:15:21.000Z</time>
      </trkpt>
      <trkpt lat="45.99319" lon="4.55786">
        <ele>668.8</ele>
        <time>1970-01-01T01:15:22.000Z</time>
      </trkpt>
      <trkpt lat="45.99321" lon="4.55784">
        <ele>668.6</ele>
        <time>1970-01-01T01:15:23.000Z</time>
      </trkpt>
      <trkpt lat="45.99321" lon="4.55784">
        <ele>668.6</ele>
        <time>1970-01-01T01:15:24.000Z</time>
      </trkpt>
      <trkpt lat="45.99323" lon="4.55781">
        <ele>668.5</ele>
        <time>1970-01-01T01:15:25.000Z</time>
      </trkpt>
      <trkpt lat="45.99323" lon="4.55781">
        <ele>668.5</ele>
        <time>1970-01-01T01:15:26.000Z</time>
      </trkpt>
      <trkpt lat="45.99324" lon="4.55778">
        <ele>668.3</ele>
        <time>1970-01-01T01:15:27.000Z</time>
      </trkpt>
      <trkpt lat="45.99324" lon="4.55778">
        <ele>668.3</ele>
        <time>1970-01-01T01:15:28.000Z</time>
      </trkpt>
      <trkpt lat="45.99326" lon="4.55776">
        <ele>668.2</ele>
        <time>1970-01-01T01:15:29.000Z</time>
      </trkpt>
      <trkpt lat="45.99326" lon="4.55776">
        <ele>668.2</ele>
        <time>1970-01-01T01:15:30.000Z</time>
      </trkpt>
      <trkpt lat="45.99328" lon="4.55774">
        <ele>668.1</ele>
        <time>1970-01-01T01:15:31.000Z</time>
      </trkpt>
      <trkpt lat="45.99328" lon="4.55774">
        <ele>668.1</ele>
        <time>1970-01-01T01:15:32.000Z</time>
      </trkpt>
      <trkpt lat="45.9933" lon="4.55772">
        <ele>667.9</ele>
        <time>1970-01-01T01:15:33.000Z</time>
      </trkpt>
      <trkpt lat="45.9933" lon="4.55772">
        <ele>667.9</ele>
        <time>1970-01-01T01:15:34.000Z</time>
      </trkpt>
      <trkpt lat="45.99331" lon="4.5577">
        <ele>667.8</ele>
        <time>1970-01-01T01:15:35.000Z</time>
      </trkpt>
      <trkpt lat="45.99331" lon="4.5577">
        <ele>667.8</ele>
        <time>1970-01-01T01:15:36.000Z</time>
      </trkpt>
      <trkpt lat="45.99334" lon="4.55768">
        <ele>667.7</ele>
        <time>1970-01-01T01:15:37.000Z</time>
      </trkpt>
      <trkpt lat="45.99334" lon="4.55768">
        <ele>667.7</ele>
        <time>1970-01-01T01:15:38.000Z</time>
      </trkpt>
      <trkpt lat="45.99336" lon="4.55767">
        <ele>667.5</ele>
        <time>1970-01-01T01:15:39.000Z</time>
      </trkpt>
      <trkpt lat="45.99336" lon="4.55767">
        <ele>667.5</ele>
        <time>1970-01-01T01:15:40.000Z</time>
      </trkpt>
      <trkpt lat="45.99339" lon="4.55765">
        <ele>667.3</ele>
        <time>1970-01-01T01:15:41.000Z</time>
      </trkpt>
      <trkpt lat="45.99339" lon="4.55765">
        <ele>667.3</ele>
        <time>1970-01-01T01:15:42.000Z</time>
      </trkpt>
      <trkpt lat="45.99341" lon="4.55764">
        <ele>667.2</ele>
        <time>1970-01-01T01:15:43.000Z</time>
      </trkpt>
      <trkpt lat="45.99341" lon="4.55764">
        <ele>667.2</ele>
        <time>1970-01-01T01:15:44.000Z</time>
      </trkpt>
      <trkpt lat="45.99344" lon="4.55763">
        <ele>667</ele>
        <time>1970-01-01T01:15:45.000Z</time>
      </trkpt>
      <trkpt lat="45.99344" lon="4.55763">
        <ele>667</ele>
        <time>1970-01-01T01:15:46.000Z</time>
      </trkpt>
      <trkpt lat="45.99346" lon="4.55761">
        <ele>666.8</ele>
        <time>1970-01-01T01:15:47.000Z</time>
      </trkpt>
      <trkpt lat="45.99346" lon="4.55761">
        <ele>666.8</ele>
        <time>1970-01-01T01:15:48.000Z</time>
      </trkpt>
      <trkpt lat="45.99348" lon="4.55761">
        <ele>666.7</ele>
        <time>1970-01-01T01:15:49.000Z</time>
      </trkpt>
      <trkpt lat="45.99348" lon="4.55761">
        <ele>666.7</ele>
        <time>1970-01-01T01:15:50.000Z</time>
      </trkpt>
      <trkpt lat="45.99351" lon="4.5576">
        <ele>666.5</ele>
        <time>1970-01-01T01:15:51.000Z</time>
      </trkpt>
      <trkpt lat="45.99351" lon="4.5576">
        <ele>666.5</ele>
        <time>1970-01-01T01:15:52.000Z</time>
      </trkpt>
      <trkpt lat="45.99353" lon="4.55758">
        <ele>666.3</ele>
        <time>1970-01-01T01:15:53.000Z</time>
      </trkpt>
      <trkpt lat="45.99353" lon="4.55758">
        <ele>666.3</ele>
        <time>1970-01-01T01:15:54.000Z</time>
      </trkpt>
      <trkpt lat="45.99355" lon="4.55758">
        <ele>666.1</ele>
        <time>1970-01-01T01:15:55.000Z</time>
      </trkpt>
      <trkpt lat="45.99355" lon="4.55758">
        <ele>666.1</ele>
        <time>1970-01-01T01:15:56.000Z</time>
      </trkpt>
      <trkpt lat="45.99357" lon="4.55757">
        <ele>665.9</ele>
        <time>1970-01-01T01:15:57.000Z</time>
      </trkpt>
      <trkpt lat="45.99357" lon="4.55757">
        <ele>665.9</ele>
        <time>1970-01-01T01:15:58.000Z</time>
      </trkpt>
      <trkpt lat="45.99359" lon="4.55755">
        <ele>665.7</ele>
        <time>1970-01-01T01:15:59.000Z</time>
      </trkpt>
      <trkpt lat="45.99359" lon="4.55755">
        <ele>665.7</ele>
        <time>1970-01-01T01:16:00.000Z</time>
      </trkpt>
      <trkpt lat="45.99362" lon="4.55754">
        <ele>665.4</ele>
        <time>1970-01-01T01:16:01.000Z</time>
      </trkpt>
      <trkpt lat="45.99362" lon="4.55754">
        <ele>665.4</ele>
        <time>1970-01-01T01:16:02.000Z</time>
      </trkpt>
      <trkpt lat="45.99365" lon="4.55752">
        <ele>665.2</ele>
        <time>1970-01-01T01:16:03.000Z</time>
      </trkpt>
      <trkpt lat="45.99365" lon="4.55752">
        <ele>665.2</ele>
        <time>1970-01-01T01:16:04.000Z</time>
      </trkpt>
      <trkpt lat="45.99367" lon="4.55751">
        <ele>665</ele>
        <time>1970-01-01T01:16:05.000Z</time>
      </trkpt>
      <trkpt lat="45.99367" lon="4.55751">
        <ele>665</ele>
        <time>1970-01-01T01:16:06.000Z</time>
      </trkpt>
      <trkpt lat="45.99369" lon="4.5575">
        <ele>664.8</ele>
        <time>1970-01-01T01:16:07.000Z</time>
      </trkpt>
      <trkpt lat="45.99369" lon="4.5575">
        <ele>664.8</ele>
        <time>1970-01-01T01:16:08.000Z</time>
      </trkpt>
      <trkpt lat="45.99372" lon="4.55749">
        <ele>664.6</ele>
        <time>1970-01-01T01:16:09.000Z</time>
      </trkpt>
      <trkpt lat="45.99372" lon="4.55749">
        <ele>664.6</ele>
        <time>1970-01-01T01:16:10.000Z</time>
      </trkpt>
      <trkpt lat="45.99374" lon="4.55748">
        <ele>664.4</ele>
        <time>1970-01-01T01:16:11.000Z</time>
      </trkpt>
      <trkpt lat="45.99374" lon="4.55748">
        <ele>664.4</ele>
        <time>1970-01-01T01:16:12.000Z</time>
      </trkpt>
      <trkpt lat="45.99377" lon="4.55748">
        <ele>664.2</ele>
        <time>1970-01-01T01:16:13.000Z</time>
      </trkpt>
      <trkpt lat="45.99377" lon="4.55748">
        <ele>664.2</ele>
        <time>1970-01-01T01:16:14.000Z</time>
      </trkpt>
      <trkpt lat="45.99379" lon="4.55748">
        <ele>664</ele>
        <time>1970-01-01T01:16:15.000Z</time>
      </trkpt>
      <trkpt lat="45.99379" lon="4.55748">
        <ele>664</ele>
        <time>1970-01-01T01:16:16.000Z</time>
      </trkpt>
      <trkpt lat="45.99382" lon="4.55746">
        <ele>663.7</ele>
        <time>1970-01-01T01:16:17.000Z</time>
      </trkpt>
      <trkpt lat="45.99382" lon="4.55746">
        <ele>663.7</ele>
        <time>1970-01-01T01:16:18.000Z</time>
      </trkpt>
      <trkpt lat="45.99385" lon="4.55746">
        <ele>663.5</ele>
        <time>1970-01-01T01:16:19.000Z</time>
      </trkpt>
      <trkpt lat="45.99385" lon="4.55746">
        <ele>663.5</ele>
        <time>1970-01-01T01:16:20.000Z</time>
      </trkpt>
      <trkpt lat="45.99388" lon="4.55745">
        <ele>663.3</ele>
        <time>1970-01-01T01:16:21.000Z</time>
      </trkpt>
      <trkpt lat="45.99388" lon="4.55745">
        <ele>663.3</ele>
        <time>1970-01-01T01:16:22.000Z</time>
      </trkpt>
      <trkpt lat="45.9939" lon="4.55744">
        <ele>663.1</ele>
        <time>1970-01-01T01:16:23.000Z</time>
      </trkpt>
      <trkpt lat="45.9939" lon="4.55744">
        <ele>663.1</ele>
        <time>1970-01-01T01:16:24.000Z</time>
      </trkpt>
      <trkpt lat="45.9939" lon="4.55744">
        <ele>663.1</ele>
        <time>1970-01-01T01:16:25.000Z</time>
      </trkpt>
      <trkpt lat="45.99393" lon="4.55743">
        <ele>662.9</ele>
        <time>1970-01-01T01:16:26.000Z</time>
      </trkpt>
      <trkpt lat="45.99393" lon="4.55743">
        <ele>662.9</ele>
        <time>1970-01-01T01:16:27.000Z</time>
      </trkpt>
      <trkpt lat="45.99393" lon="4.55743">
        <ele>662.9</ele>
        <time>1970-01-01T01:16:28.000Z</time>
      </trkpt>
      <trkpt lat="45.99396" lon="4.55741">
        <ele>662.7</ele>
        <time>1970-01-01T01:16:29.000Z</time>
      </trkpt>
      <trkpt lat="45.99396" lon="4.55741">
        <ele>662.7</ele>
        <time>1970-01-01T01:16:30.000Z</time>
      </trkpt>
      <trkpt lat="45.99398" lon="4.55741">
        <ele>662.5</ele>
        <time>1970-01-01T01:16:31.000Z</time>
      </trkpt>
      <trkpt lat="45.99398" lon="4.55741">
        <ele>662.5</ele>
        <time>1970-01-01T01:16:32.000Z</time>
      </trkpt>
      <trkpt lat="45.994" lon="4.5574">
        <ele>662.4</ele>
        <time>1970-01-01T01:16:33.000Z</time>
      </trkpt>
      <trkpt lat="45.994" lon="4.5574">
        <ele>662.4</ele>
        <time>1970-01-01T01:16:34.000Z</time>
      </trkpt>
      <trkpt lat="45.99404" lon="4.5574">
        <ele>662.2</ele>
        <time>1970-01-01T01:16:35.000Z</time>
      </trkpt>
      <trkpt lat="45.99404" lon="4.5574">
        <ele>662.2</ele>
        <time>1970-01-01T01:16:36.000Z</time>
      </trkpt>
      <trkpt lat="45.99407" lon="4.5574">
        <ele>662</ele>
        <time>1970-01-01T01:16:37.000Z</time>
      </trkpt>
      <trkpt lat="45.99407" lon="4.5574">
        <ele>662</ele>
        <time>1970-01-01T01:16:38.000Z</time>
      </trkpt>
      <trkpt lat="45.9941" lon="4.5574">
        <ele>661.9</ele>
        <time>1970-01-01T01:16:39.000Z</time>
      </trkpt>
      <trkpt lat="45.9941" lon="4.5574">
        <ele>661.9</ele>
        <time>1970-01-01T01:16:40.000Z</time>
      </trkpt>
      <trkpt lat="45.99412" lon="4.5574">
        <ele>661.7</ele>
        <time>1970-01-01T01:16:41.000Z</time>
      </trkpt>
      <trkpt lat="45.99412" lon="4.5574">
        <ele>661.7</ele>
        <time>1970-01-01T01:16:42.000Z</time>
      </trkpt>
      <trkpt lat="45.99415" lon="4.5574">
        <ele>661.6</ele>
        <time>1970-01-01T01:16:43.000Z</time>
      </trkpt>
      <trkpt lat="45.99415" lon="4.5574">
        <ele>661.6</ele>
        <time>1970-01-01T01:16:44.000Z</time>
      </trkpt>
      <trkpt lat="45.99417" lon="4.5574">
        <ele>661.5</ele>
        <time>1970-01-01T01:16:45.000Z</time>
      </trkpt>
      <trkpt lat="45.99417" lon="4.5574">
        <ele>661.5</ele>
        <time>1970-01-01T01:16:46.000Z</time>
      </trkpt>
      <trkpt lat="45.9942" lon="4.5574">
        <ele>661.4</ele>
        <time>1970-01-01T01:16:47.000Z</time>
      </trkpt>
      <trkpt lat="45.99421" lon="4.55741">
        <ele>661.4</ele>
        <time>1970-01-01T01:16:48.000Z</time>
      </trkpt>
      <trkpt lat="45.99423" lon="4.55741">
        <ele>661.3</ele>
        <time>1970-01-01T01:16:49.000Z</time>
      </trkpt>
      <trkpt lat="45.99424" lon="4.55741">
        <ele>661.3</ele>
        <time>1970-01-01T01:16:50.000Z</time>
      </trkpt>
      <trkpt lat="45.99425" lon="4.55742">
        <ele>661.2</ele>
        <time>1970-01-01T01:16:51.000Z</time>
      </trkpt>
      <trkpt lat="45.99427" lon="4.55742">
        <ele>661.2</ele>
        <time>1970-01-01T01:16:52.000Z</time>
      </trkpt>
      <trkpt lat="45.99428" lon="4.55743">
        <ele>661.2</ele>
        <time>1970-01-01T01:16:53.000Z</time>
      </trkpt>
      <trkpt lat="45.9943" lon="4.55743">
        <ele>661.1</ele>
        <time>1970-01-01T01:16:54.000Z</time>
      </trkpt>
      <trkpt lat="45.99431" lon="4.55743">
        <ele>661.1</ele>
        <time>1970-01-01T01:16:55.000Z</time>
      </trkpt>
      <trkpt lat="45.99432" lon="4.55743">
        <ele>661.1</ele>
        <time>1970-01-01T01:16:56.000Z</time>
      </trkpt>
      <trkpt lat="45.99433" lon="4.55743">
        <ele>661.1</ele>
        <time>1970-01-01T01:16:57.000Z</time>
      </trkpt>
      <trkpt lat="45.99435" lon="4.55743">
        <ele>661.1</ele>
        <time>1970-01-01T01:16:58.000Z</time>
      </trkpt>
      <trkpt lat="45.99436" lon="4.55744">
        <ele>661</ele>
        <time>1970-01-01T01:16:59.000Z</time>
      </trkpt>
      <trkpt lat="45.99437" lon="4.55744">
        <ele>661</ele>
        <time>1970-01-01T01:17:00.000Z</time>
      </trkpt>
      <trkpt lat="45.99438" lon="4.55744">
        <ele>661</ele>
        <time>1970-01-01T01:17:01.000Z</time>
      </trkpt>
      <trkpt lat="45.99438" lon="4.55744">
        <ele>661</ele>
        <time>1970-01-01T01:17:02.000Z</time>
      </trkpt>
      <trkpt lat="45.99441" lon="4.55745">
        <ele>661</ele>
        <time>1970-01-01T01:17:03.000Z</time>
      </trkpt>
      <trkpt lat="45.99441" lon="4.55745">
        <ele>661</ele>
        <time>1970-01-01T01:17:04.000Z</time>
      </trkpt>
      <trkpt lat="45.99444" lon="4.55744">
        <ele>660.9</ele>
        <time>1970-01-01T01:17:05.000Z</time>
      </trkpt>
      <trkpt lat="45.99444" lon="4.55744">
        <ele>660.9</ele>
        <time>1970-01-01T01:17:06.000Z</time>
      </trkpt>
      <trkpt lat="45.99447" lon="4.55744">
        <ele>660.8</ele>
        <time>1970-01-01T01:17:07.000Z</time>
      </trkpt>
      <trkpt lat="45.99447" lon="4.55744">
        <ele>660.8</ele>
        <time>1970-01-01T01:17:08.000Z</time>
      </trkpt>
      <trkpt lat="45.9945" lon="4.55744">
        <ele>660.7</ele>
        <time>1970-01-01T01:17:09.000Z</time>
      </trkpt>
      <trkpt lat="45.9945" lon="4.55744">
        <ele>660.7</ele>
        <time>1970-01-01T01:17:10.000Z</time>
      </trkpt>
      <trkpt lat="45.99453" lon="4.55744">
        <ele>660.6</ele>
        <time>1970-01-01T01:17:11.000Z</time>
      </trkpt>
      <trkpt lat="45.99453" lon="4.55744">
        <ele>660.6</ele>
        <time>1970-01-01T01:17:12.000Z</time>
      </trkpt>
      <trkpt lat="45.99456" lon="4.55743">
        <ele>660.5</ele>
        <time>1970-01-01T01:17:13.000Z</time>
      </trkpt>
      <trkpt lat="45.99456" lon="4.55743">
        <ele>660.5</ele>
        <time>1970-01-01T01:17:14.000Z</time>
      </trkpt>
      <trkpt lat="45.99458" lon="4.55741">
        <ele>660.4</ele>
        <time>1970-01-01T01:17:15.000Z</time>
      </trkpt>
      <trkpt lat="45.99458" lon="4.55741">
        <ele>660.4</ele>
        <time>1970-01-01T01:17:16.000Z</time>
      </trkpt>
      <trkpt lat="45.99459" lon="4.5574">
        <ele>660.2</ele>
        <time>1970-01-01T01:17:17.000Z</time>
      </trkpt>
      <trkpt lat="45.99459" lon="4.5574">
        <ele>660.2</ele>
        <time>1970-01-01T01:17:18.000Z</time>
      </trkpt>
      <trkpt lat="45.9946" lon="4.55737">
        <ele>660.1</ele>
        <time>1970-01-01T01:17:19.000Z</time>
      </trkpt>
      <trkpt lat="45.9946" lon="4.55736">
        <ele>660</ele>
        <time>1970-01-01T01:17:20.000Z</time>
      </trkpt>
      <trkpt lat="45.9946" lon="4.55734">
        <ele>660</ele>
        <time>1970-01-01T01:17:21.000Z</time>
      </trkpt>
      <trkpt lat="45.9946" lon="4.55732">
        <ele>659.9</ele>
        <time>1970-01-01T01:17:22.000Z</time>
      </trkpt>
      <trkpt lat="45.9946" lon="4.55731">
        <ele>659.8</ele>
        <time>1970-01-01T01:17:23.000Z</time>
      </trkpt>
      <trkpt lat="45.9946" lon="4.55729">
        <ele>659.7</ele>
        <time>1970-01-01T01:17:24.000Z</time>
      </trkpt>
      <trkpt lat="45.9946" lon="4.55727">
        <ele>659.6</ele>
        <time>1970-01-01T01:17:25.000Z</time>
      </trkpt>
      <trkpt lat="45.9946" lon="4.55726">
        <ele>659.5</ele>
        <time>1970-01-01T01:17:26.000Z</time>
      </trkpt>
      <trkpt lat="45.9946" lon="4.55726">
        <ele>659.5</ele>
        <time>1970-01-01T01:17:27.000Z</time>
      </trkpt>
      <trkpt lat="45.99459" lon="4.55722">
        <ele>659.3</ele>
        <time>1970-01-01T01:17:28.000Z</time>
      </trkpt>
      <trkpt lat="45.99459" lon="4.55722">
        <ele>659.3</ele>
        <time>1970-01-01T01:17:29.000Z</time>
      </trkpt>
      <trkpt lat="45.99458" lon="4.55718">
        <ele>659.1</ele>
        <time>1970-01-01T01:17:30.000Z</time>
      </trkpt>
      <trkpt lat="45.99458" lon="4.55718">
        <ele>659.1</ele>
        <time>1970-01-01T01:17:31.000Z</time>
      </trkpt>
      <trkpt lat="45.99458" lon="4.55716">
        <ele>658.9</ele>
        <time>1970-01-01T01:17:32.000Z</time>
      </trkpt>
      <trkpt lat="45.99458" lon="4.55716">
        <ele>658.9</ele>
        <time>1970-01-01T01:17:33.000Z</time>
      </trkpt>
      <trkpt lat="45.99457" lon="4.55712">
        <ele>658.7</ele>
        <time>1970-01-01T01:17:34.000Z</time>
      </trkpt>
      <trkpt lat="45.99457" lon="4.55712">
        <ele>658.7</ele>
        <time>1970-01-01T01:17:35.000Z</time>
      </trkpt>
      <trkpt lat="45.99456" lon="4.55708">
        <ele>658.5</ele>
        <time>1970-01-01T01:17:36.000Z</time>
      </trkpt>
      <trkpt lat="45.99456" lon="4.55708">
        <ele>658.5</ele>
        <time>1970-01-01T01:17:37.000Z</time>
      </trkpt>
      <trkpt lat="45.99455" lon="4.55706">
        <ele>658.3</ele>
        <time>1970-01-01T01:17:38.000Z</time>
      </trkpt>
      <trkpt lat="45.99455" lon="4.55706">
        <ele>658.3</ele>
        <time>1970-01-01T01:17:39.000Z</time>
      </trkpt>
      <trkpt lat="45.99455" lon="4.55702">
        <ele>658.2</ele>
        <time>1970-01-01T01:17:40.000Z</time>
      </trkpt>
      <trkpt lat="45.99455" lon="4.55702">
        <ele>658.2</ele>
        <time>1970-01-01T01:17:41.000Z</time>
      </trkpt>
      <trkpt lat="45.99455" lon="4.55698">
        <ele>658</ele>
        <time>1970-01-01T01:17:42.000Z</time>
      </trkpt>
      <trkpt lat="45.99455" lon="4.55698">
        <ele>658</ele>
        <time>1970-01-01T01:17:43.000Z</time>
      </trkpt>
      <trkpt lat="45.99455" lon="4.55693">
        <ele>657.8</ele>
        <time>1970-01-01T01:17:44.000Z</time>
      </trkpt>
      <trkpt lat="45.99455" lon="4.55693">
        <ele>657.8</ele>
        <time>1970-01-01T01:17:45.000Z</time>
      </trkpt>
      <trkpt lat="45.99455" lon="4.55689">
        <ele>657.7</ele>
        <time>1970-01-01T01:17:46.000Z</time>
      </trkpt>
      <trkpt lat="45.99455" lon="4.55689">
        <ele>657.7</ele>
        <time>1970-01-01T01:17:47.000Z</time>
      </trkpt>
      <trkpt lat="45.99455" lon="4.55686">
        <ele>657.6</ele>
        <time>1970-01-01T01:17:48.000Z</time>
      </trkpt>
      <trkpt lat="45.99455" lon="4.55686">
        <ele>657.6</ele>
        <time>1970-01-01T01:17:49.000Z</time>
      </trkpt>
      <trkpt lat="45.99455" lon="4.55682">
        <ele>657.5</ele>
        <time>1970-01-01T01:17:50.000Z</time>
      </trkpt>
      <trkpt lat="45.99455" lon="4.55682">
        <ele>657.5</ele>
        <time>1970-01-01T01:17:51.000Z</time>
      </trkpt>
      <trkpt lat="45.99454" lon="4.55679">
        <ele>657.4</ele>
        <time>1970-01-01T01:17:52.000Z</time>
      </trkpt>
      <trkpt lat="45.99454" lon="4.55679">
        <ele>657.4</ele>
        <time>1970-01-01T01:17:53.000Z</time>
      </trkpt>
      <trkpt lat="45.99454" lon="4.55676">
        <ele>657.4</ele>
        <time>1970-01-01T01:17:54.000Z</time>
      </trkpt>
      <trkpt lat="45.99454" lon="4.55676">
        <ele>657.4</ele>
        <time>1970-01-01T01:17:55.000Z</time>
      </trkpt>
      <trkpt lat="45.99454" lon="4.55672">
        <ele>657.3</ele>
        <time>1970-01-01T01:17:56.000Z</time>
      </trkpt>
      <trkpt lat="45.99454" lon="4.55672">
        <ele>657.3</ele>
        <time>1970-01-01T01:17:57.000Z</time>
      </trkpt>
      <trkpt lat="45.99454" lon="4.55668">
        <ele>657.3</ele>
        <time>1970-01-01T01:17:58.000Z</time>
      </trkpt>
      <trkpt lat="45.99454" lon="4.55668">
        <ele>657.3</ele>
        <time>1970-01-01T01:17:59.000Z</time>
      </trkpt>
      <trkpt lat="45.99454" lon="4.55665">
        <ele>657.2</ele>
        <time>1970-01-01T01:18:00.000Z</time>
      </trkpt>
      <trkpt lat="45.99454" lon="4.55665">
        <ele>657.2</ele>
        <time>1970-01-01T01:18:01.000Z</time>
      </trkpt>
      <trkpt lat="45.99454" lon="4.55662">
        <ele>657.2</ele>
        <time>1970-01-01T01:18:02.000Z</time>
      </trkpt>
      <trkpt lat="45.99454" lon="4.55662">
        <ele>657.2</ele>
        <time>1970-01-01T01:18:03.000Z</time>
      </trkpt>
      <trkpt lat="45.99453" lon="4.5566">
        <ele>657.2</ele>
        <time>1970-01-01T01:18:04.000Z</time>
      </trkpt>
      <trkpt lat="45.99453" lon="4.5566">
        <ele>657.2</ele>
        <time>1970-01-01T01:18:05.000Z</time>
      </trkpt>
      <trkpt lat="45.99453" lon="4.55656">
        <ele>657.2</ele>
        <time>1970-01-01T01:18:06.000Z</time>
      </trkpt>
      <trkpt lat="45.99453" lon="4.55656">
        <ele>657.2</ele>
        <time>1970-01-01T01:18:07.000Z</time>
      </trkpt>
      <trkpt lat="45.99452" lon="4.55652">
        <ele>657.1</ele>
        <time>1970-01-01T01:18:08.000Z</time>
      </trkpt>
      <trkpt lat="45.99452" lon="4.55652">
        <ele>657.1</ele>
        <time>1970-01-01T01:18:09.000Z</time>
      </trkpt>
      <trkpt lat="45.99452" lon="4.55649">
        <ele>657.1</ele>
        <time>1970-01-01T01:18:10.000Z</time>
      </trkpt>
      <trkpt lat="45.99452" lon="4.55649">
        <ele>657.1</ele>
        <time>1970-01-01T01:18:11.000Z</time>
      </trkpt>
      <trkpt lat="45.99453" lon="4.55646">
        <ele>657.1</ele>
        <time>1970-01-01T01:18:12.000Z</time>
      </trkpt>
      <trkpt lat="45.99453" lon="4.55646">
        <ele>657.1</ele>
        <time>1970-01-01T01:18:13.000Z</time>
      </trkpt>
      <trkpt lat="45.99453" lon="4.55643">
        <ele>657.1</ele>
        <time>1970-01-01T01:18:14.000Z</time>
      </trkpt>
      <trkpt lat="45.99453" lon="4.55643">
        <ele>657.1</ele>
        <time>1970-01-01T01:18:15.000Z</time>
      </trkpt>
      <trkpt lat="45.99452" lon="4.55639">
        <ele>657.1</ele>
        <time>1970-01-01T01:18:16.000Z</time>
      </trkpt>
      <trkpt lat="45.99452" lon="4.55639">
        <ele>657.1</ele>
        <time>1970-01-01T01:18:17.000Z</time>
      </trkpt>
      <trkpt lat="45.9945" lon="4.55636">
        <ele>657</ele>
        <time>1970-01-01T01:18:18.000Z</time>
      </trkpt>
      <trkpt lat="45.9945" lon="4.55636">
        <ele>657</ele>
        <time>1970-01-01T01:18:19.000Z</time>
      </trkpt>
      <trkpt lat="45.9945" lon="4.55632">
        <ele>657</ele>
        <time>1970-01-01T01:18:20.000Z</time>
      </trkpt>
      <trkpt lat="45.9945" lon="4.55632">
        <ele>657</ele>
        <time>1970-01-01T01:18:21.000Z</time>
      </trkpt>
      <trkpt lat="45.9945" lon="4.55628">
        <ele>657</ele>
        <time>1970-01-01T01:18:22.000Z</time>
      </trkpt>
      <trkpt lat="45.9945" lon="4.55628">
        <ele>657</ele>
        <time>1970-01-01T01:18:23.000Z</time>
      </trkpt>
      <trkpt lat="45.99449" lon="4.55624">
        <ele>656.9</ele>
        <time>1970-01-01T01:18:24.000Z</time>
      </trkpt>
      <trkpt lat="45.99449" lon="4.55624">
        <ele>656.9</ele>
        <time>1970-01-01T01:18:25.000Z</time>
      </trkpt>
      <trkpt lat="45.99448" lon="4.55622">
        <ele>656.9</ele>
        <time>1970-01-01T01:18:26.000Z</time>
      </trkpt>
      <trkpt lat="45.99448" lon="4.55622">
        <ele>656.9</ele>
        <time>1970-01-01T01:18:27.000Z</time>
      </trkpt>
      <trkpt lat="45.99447" lon="4.55618">
        <ele>656.8</ele>
        <time>1970-01-01T01:18:28.000Z</time>
      </trkpt>
      <trkpt lat="45.99447" lon="4.55618">
        <ele>656.8</ele>
        <time>1970-01-01T01:18:29.000Z</time>
      </trkpt>
      <trkpt lat="45.99447" lon="4.55614">
        <ele>656.7</ele>
        <time>1970-01-01T01:18:30.000Z</time>
      </trkpt>
      <trkpt lat="45.99447" lon="4.55614">
        <ele>656.7</ele>
        <time>1970-01-01T01:18:31.000Z</time>
      </trkpt>
      <trkpt lat="45.99446" lon="4.5561">
        <ele>656.6</ele>
        <time>1970-01-01T01:18:32.000Z</time>
      </trkpt>
      <trkpt lat="45.99446" lon="4.5561">
        <ele>656.6</ele>
        <time>1970-01-01T01:18:33.000Z</time>
      </trkpt>
      <trkpt lat="45.99446" lon="4.55606">
        <ele>656.5</ele>
        <time>1970-01-01T01:18:34.000Z</time>
      </trkpt>
      <trkpt lat="45.99446" lon="4.55606">
        <ele>656.5</ele>
        <time>1970-01-01T01:18:35.000Z</time>
      </trkpt>
      <trkpt lat="45.99446" lon="4.55603">
        <ele>656.3</ele>
        <time>1970-01-01T01:18:36.000Z</time>
      </trkpt>
      <trkpt lat="45.99446" lon="4.55603">
        <ele>656.3</ele>
        <time>1970-01-01T01:18:37.000Z</time>
      </trkpt>
      <trkpt lat="45.99446" lon="4.55598">
        <ele>656.2</ele>
        <time>1970-01-01T01:18:38.000Z</time>
      </trkpt>
      <trkpt lat="45.99446" lon="4.55598">
        <ele>656.2</ele>
        <time>1970-01-01T01:18:39.000Z</time>
      </trkpt>
      <trkpt lat="45.99446" lon="4.55594">
        <ele>656</ele>
        <time>1970-01-01T01:18:40.000Z</time>
      </trkpt>
      <trkpt lat="45.99446" lon="4.55594">
        <ele>656</ele>
        <time>1970-01-01T01:18:41.000Z</time>
      </trkpt>
      <trkpt lat="45.99445" lon="4.55591">
        <ele>655.9</ele>
        <time>1970-01-01T01:18:42.000Z</time>
      </trkpt>
      <trkpt lat="45.99445" lon="4.55591">
        <ele>655.9</ele>
        <time>1970-01-01T01:18:43.000Z</time>
      </trkpt>
      <trkpt lat="45.99446" lon="4.55587">
        <ele>655.8</ele>
        <time>1970-01-01T01:18:44.000Z</time>
      </trkpt>
      <trkpt lat="45.99446" lon="4.55587">
        <ele>655.8</ele>
        <time>1970-01-01T01:18:45.000Z</time>
      </trkpt>
      <trkpt lat="45.99447" lon="4.55584">
        <ele>655.7</ele>
        <time>1970-01-01T01:18:46.000Z</time>
      </trkpt>
      <trkpt lat="45.99447" lon="4.55584">
        <ele>655.7</ele>
        <time>1970-01-01T01:18:47.000Z</time>
      </trkpt>
      <trkpt lat="45.99448" lon="4.5558">
        <ele>655.6</ele>
        <time>1970-01-01T01:18:48.000Z</time>
      </trkpt>
      <trkpt lat="45.99448" lon="4.5558">
        <ele>655.6</ele>
        <time>1970-01-01T01:18:49.000Z</time>
      </trkpt>
      <trkpt lat="45.99449" lon="4.55577">
        <ele>655.4</ele>
        <time>1970-01-01T01:18:50.000Z</time>
      </trkpt>
      <trkpt lat="45.99449" lon="4.55577">
        <ele>655.4</ele>
        <time>1970-01-01T01:18:51.000Z</time>
      </trkpt>
      <trkpt lat="45.9945" lon="4.55573">
        <ele>655.3</ele>
        <time>1970-01-01T01:18:52.000Z</time>
      </trkpt>
      <trkpt lat="45.9945" lon="4.55573">
        <ele>655.3</ele>
        <time>1970-01-01T01:18:53.000Z</time>
      </trkpt>
      <trkpt lat="45.99451" lon="4.55569">
        <ele>655.2</ele>
        <time>1970-01-01T01:18:54.000Z</time>
      </trkpt>
      <trkpt lat="45.99451" lon="4.55569">
        <ele>655.2</ele>
        <time>1970-01-01T01:18:55.000Z</time>
      </trkpt>
      <trkpt lat="45.99452" lon="4.55566">
        <ele>655.1</ele>
        <time>1970-01-01T01:18:56.000Z</time>
      </trkpt>
      <trkpt lat="45.99452" lon="4.55566">
        <ele>655.1</ele>
        <time>1970-01-01T01:18:57.000Z</time>
      </trkpt>
      <trkpt lat="45.99453" lon="4.55562">
        <ele>655</ele>
        <time>1970-01-01T01:18:58.000Z</time>
      </trkpt>
      <trkpt lat="45.99453" lon="4.55562">
        <ele>655</ele>
        <time>1970-01-01T01:18:59.000Z</time>
      </trkpt>
      <trkpt lat="45.99454" lon="4.5556">
        <ele>655</ele>
        <time>1970-01-01T01:19:00.000Z</time>
      </trkpt>
      <trkpt lat="45.99454" lon="4.5556">
        <ele>655</ele>
        <time>1970-01-01T01:19:01.000Z</time>
      </trkpt>
      <trkpt lat="45.99455" lon="4.55557">
        <ele>654.9</ele>
        <time>1970-01-01T01:19:02.000Z</time>
      </trkpt>
      <trkpt lat="45.99455" lon="4.55557">
        <ele>654.9</ele>
        <time>1970-01-01T01:19:03.000Z</time>
      </trkpt>
      <trkpt lat="45.99456" lon="4.55554">
        <ele>654.8</ele>
        <time>1970-01-01T01:19:04.000Z</time>
      </trkpt>
      <trkpt lat="45.99456" lon="4.55554">
        <ele>654.8</ele>
        <time>1970-01-01T01:19:05.000Z</time>
      </trkpt>
      <trkpt lat="45.99457" lon="4.55551">
        <ele>654.8</ele>
        <time>1970-01-01T01:19:06.000Z</time>
      </trkpt>
      <trkpt lat="45.99457" lon="4.55551">
        <ele>654.8</ele>
        <time>1970-01-01T01:19:07.000Z</time>
      </trkpt>
      <trkpt lat="45.99458" lon="4.55546">
        <ele>654.7</ele>
        <time>1970-01-01T01:19:08.000Z</time>
      </trkpt>
      <trkpt lat="45.99458" lon="4.55546">
        <ele>654.7</ele>
        <time>1970-01-01T01:19:09.000Z</time>
      </trkpt>
      <trkpt lat="45.9946" lon="4.55542">
        <ele>654.6</ele>
        <time>1970-01-01T01:19:10.000Z</time>
      </trkpt>
      <trkpt lat="45.9946" lon="4.55542">
        <ele>654.6</ele>
        <time>1970-01-01T01:19:11.000Z</time>
      </trkpt>
      <trkpt lat="45.99461" lon="4.55538">
        <ele>654.5</ele>
        <time>1970-01-01T01:19:12.000Z</time>
      </trkpt>
      <trkpt lat="45.99461" lon="4.55538">
        <ele>654.5</ele>
        <time>1970-01-01T01:19:13.000Z</time>
      </trkpt>
      <trkpt lat="45.99462" lon="4.55534">
        <ele>654.4</ele>
        <time>1970-01-01T01:19:14.000Z</time>
      </trkpt>
      <trkpt lat="45.99462" lon="4.55534">
        <ele>654.4</ele>
        <time>1970-01-01T01:19:15.000Z</time>
      </trkpt>
      <trkpt lat="45.99462" lon="4.55531">
        <ele>654.3</ele>
        <time>1970-01-01T01:19:16.000Z</time>
      </trkpt>
      <trkpt lat="45.99462" lon="4.55531">
        <ele>654.3</ele>
        <time>1970-01-01T01:19:17.000Z</time>
      </trkpt>
      <trkpt lat="45.99463" lon="4.55527">
        <ele>654.2</ele>
        <time>1970-01-01T01:19:18.000Z</time>
      </trkpt>
      <trkpt lat="45.99463" lon="4.55527">
        <ele>654.2</ele>
        <time>1970-01-01T01:19:19.000Z</time>
      </trkpt>
      <trkpt lat="45.99464" lon="4.55523">
        <ele>654.2</ele>
        <time>1970-01-01T01:19:20.000Z</time>
      </trkpt>
      <trkpt lat="45.99464" lon="4.55523">
        <ele>654.2</ele>
        <time>1970-01-01T01:19:21.000Z</time>
      </trkpt>
      <trkpt lat="45.99464" lon="4.5552">
        <ele>654.1</ele>
        <time>1970-01-01T01:19:22.000Z</time>
      </trkpt>
      <trkpt lat="45.99464" lon="4.5552">
        <ele>654.1</ele>
        <time>1970-01-01T01:19:23.000Z</time>
      </trkpt>
      <trkpt lat="45.99465" lon="4.55517">
        <ele>654.1</ele>
        <time>1970-01-01T01:19:24.000Z</time>
      </trkpt>
      <trkpt lat="45.99465" lon="4.55517">
        <ele>654.1</ele>
        <time>1970-01-01T01:19:25.000Z</time>
      </trkpt>
      <trkpt lat="45.99466" lon="4.55513">
        <ele>654</ele>
        <time>1970-01-01T01:19:26.000Z</time>
      </trkpt>
      <trkpt lat="45.99466" lon="4.55513">
        <ele>654</ele>
        <time>1970-01-01T01:19:27.000Z</time>
      </trkpt>
      <trkpt lat="45.99468" lon="4.55509">
        <ele>653.9</ele>
        <time>1970-01-01T01:19:28.000Z</time>
      </trkpt>
      <trkpt lat="45.99468" lon="4.55509">
        <ele>653.9</ele>
        <time>1970-01-01T01:19:29.000Z</time>
      </trkpt>
      <trkpt lat="45.99469" lon="4.55506">
        <ele>653.8</ele>
        <time>1970-01-01T01:19:30.000Z</time>
      </trkpt>
      <trkpt lat="45.99469" lon="4.55506">
        <ele>653.8</ele>
        <time>1970-01-01T01:19:31.000Z</time>
      </trkpt>
      <trkpt lat="45.9947" lon="4.55503">
        <ele>653.8</ele>
        <time>1970-01-01T01:19:32.000Z</time>
      </trkpt>
      <trkpt lat="45.9947" lon="4.55501">
        <ele>653.8</ele>
        <time>1970-01-01T01:19:33.000Z</time>
      </trkpt>
      <trkpt lat="45.9947" lon="4.55499">
        <ele>653.7</ele>
        <time>1970-01-01T01:19:34.000Z</time>
      </trkpt>
      <trkpt lat="45.9947" lon="4.55497">
        <ele>653.7</ele>
        <time>1970-01-01T01:19:35.000Z</time>
      </trkpt>
      <trkpt lat="45.99471" lon="4.55496">
        <ele>653.6</ele>
        <time>1970-01-01T01:19:36.000Z</time>
      </trkpt>
      <trkpt lat="45.99471" lon="4.55494">
        <ele>653.6</ele>
        <time>1970-01-01T01:19:37.000Z</time>
      </trkpt>
      <trkpt lat="45.99471" lon="4.55492">
        <ele>653.6</ele>
        <time>1970-01-01T01:19:38.000Z</time>
      </trkpt>
      <trkpt lat="45.99471" lon="4.5549">
        <ele>653.5</ele>
        <time>1970-01-01T01:19:39.000Z</time>
      </trkpt>
      <trkpt lat="45.99472" lon="4.55489">
        <ele>653.5</ele>
        <time>1970-01-01T01:19:40.000Z</time>
      </trkpt>
      <trkpt lat="45.99472" lon="4.55489">
        <ele>653.5</ele>
        <time>1970-01-01T01:19:41.000Z</time>
      </trkpt>
      <trkpt lat="45.99472" lon="4.55489">
        <ele>653.5</ele>
        <time>1970-01-01T01:19:42.000Z</time>
      </trkpt>
      <trkpt lat="45.99471" lon="4.55484">
        <ele>653.3</ele>
        <time>1970-01-01T01:19:43.000Z</time>
      </trkpt>
      <trkpt lat="45.99472" lon="4.55482">
        <ele>653.3</ele>
        <time>1970-01-01T01:19:44.000Z</time>
      </trkpt>
      <trkpt lat="45.99472" lon="4.5548">
        <ele>653.2</ele>
        <time>1970-01-01T01:19:45.000Z</time>
      </trkpt>
      <trkpt lat="45.99472" lon="4.55478">
        <ele>653.1</ele>
        <time>1970-01-01T01:19:46.000Z</time>
      </trkpt>
      <trkpt lat="45.99473" lon="4.55476">
        <ele>653.1</ele>
        <time>1970-01-01T01:19:47.000Z</time>
      </trkpt>
      <trkpt lat="45.99473" lon="4.55476">
        <ele>653.1</ele>
        <time>1970-01-01T01:19:48.000Z</time>
      </trkpt>
      <trkpt lat="45.99474" lon="4.55471">
        <ele>652.9</ele>
        <time>1970-01-01T01:19:49.000Z</time>
      </trkpt>
      <trkpt lat="45.99474" lon="4.55471">
        <ele>652.9</ele>
        <time>1970-01-01T01:19:50.000Z</time>
      </trkpt>
      <trkpt lat="45.99474" lon="4.55471">
        <ele>652.9</ele>
        <time>1970-01-01T01:19:51.000Z</time>
      </trkpt>
      <trkpt lat="45.99476" lon="4.55467">
        <ele>652.8</ele>
        <time>1970-01-01T01:19:52.000Z</time>
      </trkpt>
      <trkpt lat="45.99476" lon="4.55465">
        <ele>652.7</ele>
        <time>1970-01-01T01:19:53.000Z</time>
      </trkpt>
      <trkpt lat="45.99477" lon="4.55464">
        <ele>652.6</ele>
        <time>1970-01-01T01:19:54.000Z</time>
      </trkpt>
      <trkpt lat="45.99477" lon="4.55462">
        <ele>652.6</ele>
        <time>1970-01-01T01:19:55.000Z</time>
      </trkpt>
      <trkpt lat="45.99477" lon="4.5546">
        <ele>652.5</ele>
        <time>1970-01-01T01:19:56.000Z</time>
      </trkpt>
      <trkpt lat="45.99477" lon="4.55458">
        <ele>652.5</ele>
        <time>1970-01-01T01:19:57.000Z</time>
      </trkpt>
      <trkpt lat="45.99477" lon="4.55456">
        <ele>652.4</ele>
        <time>1970-01-01T01:19:58.000Z</time>
      </trkpt>
      <trkpt lat="45.99478" lon="4.55455">
        <ele>652.3</ele>
        <time>1970-01-01T01:19:59.000Z</time>
      </trkpt>
      <trkpt lat="45.99478" lon="4.55455">
        <ele>652.3</ele>
        <time>1970-01-01T01:20:00.000Z</time>
      </trkpt>
      <trkpt lat="45.99479" lon="4.55451">
        <ele>652.2</ele>
        <time>1970-01-01T01:20:01.000Z</time>
      </trkpt>
      <trkpt lat="45.99479" lon="4.55451">
        <ele>652.2</ele>
        <time>1970-01-01T01:20:02.000Z</time>
      </trkpt>
      <trkpt lat="45.99481" lon="4.55448">
        <ele>652</ele>
        <time>1970-01-01T01:20:03.000Z</time>
      </trkpt>
      <trkpt lat="45.99481" lon="4.55448">
        <ele>652</ele>
        <time>1970-01-01T01:20:04.000Z</time>
      </trkpt>
      <trkpt lat="45.99481" lon="4.55444">
        <ele>651.9</ele>
        <time>1970-01-01T01:20:05.000Z</time>
      </trkpt>
      <trkpt lat="45.99481" lon="4.55444">
        <ele>651.9</ele>
        <time>1970-01-01T01:20:06.000Z</time>
      </trkpt>
      <trkpt lat="45.99482" lon="4.5544">
        <ele>651.7</ele>
        <time>1970-01-01T01:20:07.000Z</time>
      </trkpt>
      <trkpt lat="45.99482" lon="4.5544">
        <ele>651.7</ele>
        <time>1970-01-01T01:20:08.000Z</time>
      </trkpt>
      <trkpt lat="45.99482" lon="4.55436">
        <ele>651.5</ele>
        <time>1970-01-01T01:20:09.000Z</time>
      </trkpt>
      <trkpt lat="45.99482" lon="4.55436">
        <ele>651.5</ele>
        <time>1970-01-01T01:20:10.000Z</time>
      </trkpt>
      <trkpt lat="45.99483" lon="4.55432">
        <ele>651.4</ele>
        <time>1970-01-01T01:20:11.000Z</time>
      </trkpt>
      <trkpt lat="45.99483" lon="4.55432">
        <ele>651.4</ele>
        <time>1970-01-01T01:20:12.000Z</time>
      </trkpt>
      <trkpt lat="45.99484" lon="4.55429">
        <ele>651.2</ele>
        <time>1970-01-01T01:20:13.000Z</time>
      </trkpt>
      <trkpt lat="45.99484" lon="4.55429">
        <ele>651.2</ele>
        <time>1970-01-01T01:20:14.000Z</time>
      </trkpt>
      <trkpt lat="45.99485" lon="4.55426">
        <ele>651</ele>
        <time>1970-01-01T01:20:15.000Z</time>
      </trkpt>
      <trkpt lat="45.99485" lon="4.55426">
        <ele>651</ele>
        <time>1970-01-01T01:20:16.000Z</time>
      </trkpt>
      <trkpt lat="45.99485" lon="4.55423">
        <ele>650.8</ele>
        <time>1970-01-01T01:20:17.000Z</time>
      </trkpt>
      <trkpt lat="45.99485" lon="4.55423">
        <ele>650.8</ele>
        <time>1970-01-01T01:20:18.000Z</time>
      </trkpt>
      <trkpt lat="45.99486" lon="4.5542">
        <ele>650.6</ele>
        <time>1970-01-01T01:20:19.000Z</time>
      </trkpt>
      <trkpt lat="45.99486" lon="4.5542">
        <ele>650.6</ele>
        <time>1970-01-01T01:20:20.000Z</time>
      </trkpt>
      <trkpt lat="45.99487" lon="4.55416">
        <ele>650.4</ele>
        <time>1970-01-01T01:20:21.000Z</time>
      </trkpt>
      <trkpt lat="45.99488" lon="4.55413">
        <ele>650.2</ele>
        <time>1970-01-01T01:20:22.000Z</time>
      </trkpt>
      <trkpt lat="45.99488" lon="4.55413">
        <ele>650.2</ele>
        <time>1970-01-01T01:20:23.000Z</time>
      </trkpt>
      <trkpt lat="45.99489" lon="4.55409">
        <ele>649.9</ele>
        <time>1970-01-01T01:20:24.000Z</time>
      </trkpt>
      <trkpt lat="45.99489" lon="4.55409">
        <ele>649.9</ele>
        <time>1970-01-01T01:20:25.000Z</time>
      </trkpt>
      <trkpt lat="45.9949" lon="4.55405">
        <ele>649.7</ele>
        <time>1970-01-01T01:20:26.000Z</time>
      </trkpt>
      <trkpt lat="45.9949" lon="4.55405">
        <ele>649.7</ele>
        <time>1970-01-01T01:20:27.000Z</time>
      </trkpt>
      <trkpt lat="45.99491" lon="4.554">
        <ele>649.4</ele>
        <time>1970-01-01T01:20:28.000Z</time>
      </trkpt>
      <trkpt lat="45.99491" lon="4.554">
        <ele>649.4</ele>
        <time>1970-01-01T01:20:29.000Z</time>
      </trkpt>
      <trkpt lat="45.99491" lon="4.55396">
        <ele>649.2</ele>
        <time>1970-01-01T01:20:30.000Z</time>
      </trkpt>
      <trkpt lat="45.99491" lon="4.55396">
        <ele>649.2</ele>
        <time>1970-01-01T01:20:31.000Z</time>
      </trkpt>
      <trkpt lat="45.99492" lon="4.55392">
        <ele>649</ele>
        <time>1970-01-01T01:20:32.000Z</time>
      </trkpt>
      <trkpt lat="45.99492" lon="4.55392">
        <ele>649</ele>
        <time>1970-01-01T01:20:33.000Z</time>
      </trkpt>
      <trkpt lat="45.99492" lon="4.55388">
        <ele>648.8</ele>
        <time>1970-01-01T01:20:34.000Z</time>
      </trkpt>
      <trkpt lat="45.99492" lon="4.55388">
        <ele>648.8</ele>
        <time>1970-01-01T01:20:35.000Z</time>
      </trkpt>
      <trkpt lat="45.99493" lon="4.55385">
        <ele>648.6</ele>
        <time>1970-01-01T01:20:36.000Z</time>
      </trkpt>
      <trkpt lat="45.99493" lon="4.55385">
        <ele>648.6</ele>
        <time>1970-01-01T01:20:37.000Z</time>
      </trkpt>
      <trkpt lat="45.99494" lon="4.55381">
        <ele>648.5</ele>
        <time>1970-01-01T01:20:38.000Z</time>
      </trkpt>
      <trkpt lat="45.99494" lon="4.55381">
        <ele>648.5</ele>
        <time>1970-01-01T01:20:39.000Z</time>
      </trkpt>
      <trkpt lat="45.99496" lon="4.55379">
        <ele>648.3</ele>
        <time>1970-01-01T01:20:40.000Z</time>
      </trkpt>
      <trkpt lat="45.99496" lon="4.55379">
        <ele>648.3</ele>
        <time>1970-01-01T01:20:41.000Z</time>
      </trkpt>
      <trkpt lat="45.99498" lon="4.55376">
        <ele>648.2</ele>
        <time>1970-01-01T01:20:42.000Z</time>
      </trkpt>
      <trkpt lat="45.99498" lon="4.55376">
        <ele>648.2</ele>
        <time>1970-01-01T01:20:43.000Z</time>
      </trkpt>
      <trkpt lat="45.99499" lon="4.55373">
        <ele>648.1</ele>
        <time>1970-01-01T01:20:44.000Z</time>
      </trkpt>
      <trkpt lat="45.99499" lon="4.55373">
        <ele>648.1</ele>
        <time>1970-01-01T01:20:45.000Z</time>
      </trkpt>
      <trkpt lat="45.99501" lon="4.5537">
        <ele>648</ele>
        <time>1970-01-01T01:20:46.000Z</time>
      </trkpt>
      <trkpt lat="45.99501" lon="4.5537">
        <ele>648</ele>
        <time>1970-01-01T01:20:47.000Z</time>
      </trkpt>
      <trkpt lat="45.99503" lon="4.55366">
        <ele>648</ele>
        <time>1970-01-01T01:20:48.000Z</time>
      </trkpt>
      <trkpt lat="45.99503" lon="4.55366">
        <ele>648</ele>
        <time>1970-01-01T01:20:49.000Z</time>
      </trkpt>
      <trkpt lat="45.99504" lon="4.55364">
        <ele>647.9</ele>
        <time>1970-01-01T01:20:50.000Z</time>
      </trkpt>
      <trkpt lat="45.99504" lon="4.55364">
        <ele>647.9</ele>
        <time>1970-01-01T01:20:51.000Z</time>
      </trkpt>
      <trkpt lat="45.99506" lon="4.5536">
        <ele>647.8</ele>
        <time>1970-01-01T01:20:52.000Z</time>
      </trkpt>
      <trkpt lat="45.99506" lon="4.5536">
        <ele>647.8</ele>
        <time>1970-01-01T01:20:53.000Z</time>
      </trkpt>
      <trkpt lat="45.99508" lon="4.55358">
        <ele>647.8</ele>
        <time>1970-01-01T01:20:54.000Z</time>
      </trkpt>
      <trkpt lat="45.99508" lon="4.55358">
        <ele>647.8</ele>
        <time>1970-01-01T01:20:55.000Z</time>
      </trkpt>
      <trkpt lat="45.9951" lon="4.55355">
        <ele>647.8</ele>
        <time>1970-01-01T01:20:56.000Z</time>
      </trkpt>
      <trkpt lat="45.9951" lon="4.55355">
        <ele>647.8</ele>
        <time>1970-01-01T01:20:57.000Z</time>
      </trkpt>
      <trkpt lat="45.99512" lon="4.55352">
        <ele>647.8</ele>
        <time>1970-01-01T01:20:58.000Z</time>
      </trkpt>
      <trkpt lat="45.99512" lon="4.55352">
        <ele>647.8</ele>
        <time>1970-01-01T01:20:59.000Z</time>
      </trkpt>
      <trkpt lat="45.99514" lon="4.5535">
        <ele>647.8</ele>
        <time>1970-01-01T01:21:00.000Z</time>
      </trkpt>
      <trkpt lat="45.99514" lon="4.5535">
        <ele>647.8</ele>
        <time>1970-01-01T01:21:01.000Z</time>
      </trkpt>
      <trkpt lat="45.99516" lon="4.55348">
        <ele>647.9</ele>
        <time>1970-01-01T01:21:02.000Z</time>
      </trkpt>
      <trkpt lat="45.99516" lon="4.55348">
        <ele>647.9</ele>
        <time>1970-01-01T01:21:03.000Z</time>
      </trkpt>
      <trkpt lat="45.99518" lon="4.55346">
        <ele>647.9</ele>
        <time>1970-01-01T01:21:04.000Z</time>
      </trkpt>
      <trkpt lat="45.99518" lon="4.55346">
        <ele>647.9</ele>
        <time>1970-01-01T01:21:05.000Z</time>
      </trkpt>
      <trkpt lat="45.9952" lon="4.55344">
        <ele>647.9</ele>
        <time>1970-01-01T01:21:06.000Z</time>
      </trkpt>
      <trkpt lat="45.9952" lon="4.55344">
        <ele>647.9</ele>
        <time>1970-01-01T01:21:07.000Z</time>
      </trkpt>
      <trkpt lat="45.99522" lon="4.55343">
        <ele>648</ele>
        <time>1970-01-01T01:21:08.000Z</time>
      </trkpt>
      <trkpt lat="45.99522" lon="4.55343">
        <ele>648</ele>
        <time>1970-01-01T01:21:09.000Z</time>
      </trkpt>
      <trkpt lat="45.99524" lon="4.5534">
        <ele>648</ele>
        <time>1970-01-01T01:21:10.000Z</time>
      </trkpt>
      <trkpt lat="45.99524" lon="4.5534">
        <ele>648</ele>
        <time>1970-01-01T01:21:11.000Z</time>
      </trkpt>
      <trkpt lat="45.99526" lon="4.55338">
        <ele>648.1</ele>
        <time>1970-01-01T01:21:12.000Z</time>
      </trkpt>
      <trkpt lat="45.99526" lon="4.55338">
        <ele>648.1</ele>
        <time>1970-01-01T01:21:13.000Z</time>
      </trkpt>
      <trkpt lat="45.99528" lon="4.55336">
        <ele>648.2</ele>
        <time>1970-01-01T01:21:14.000Z</time>
      </trkpt>
      <trkpt lat="45.99528" lon="4.55336">
        <ele>648.2</ele>
        <time>1970-01-01T01:21:15.000Z</time>
      </trkpt>
      <trkpt lat="45.99531" lon="4.55334">
        <ele>648.2</ele>
        <time>1970-01-01T01:21:16.000Z</time>
      </trkpt>
      <trkpt lat="45.99531" lon="4.55334">
        <ele>648.2</ele>
        <time>1970-01-01T01:21:17.000Z</time>
      </trkpt>
      <trkpt lat="45.99533" lon="4.55333">
        <ele>648.3</ele>
        <time>1970-01-01T01:21:18.000Z</time>
      </trkpt>
      <trkpt lat="45.99533" lon="4.55333">
        <ele>648.3</ele>
        <time>1970-01-01T01:21:19.000Z</time>
      </trkpt>
      <trkpt lat="45.99536" lon="4.55332">
        <ele>648.4</ele>
        <time>1970-01-01T01:21:20.000Z</time>
      </trkpt>
      <trkpt lat="45.99536" lon="4.55332">
        <ele>648.4</ele>
        <time>1970-01-01T01:21:21.000Z</time>
      </trkpt>
      <trkpt lat="45.99538" lon="4.55331">
        <ele>648.5</ele>
        <time>1970-01-01T01:21:22.000Z</time>
      </trkpt>
      <trkpt lat="45.99538" lon="4.55331">
        <ele>648.5</ele>
        <time>1970-01-01T01:21:23.000Z</time>
      </trkpt>
      <trkpt lat="45.9954" lon="4.55329">
        <ele>648.5</ele>
        <time>1970-01-01T01:21:24.000Z</time>
      </trkpt>
      <trkpt lat="45.9954" lon="4.55329">
        <ele>648.5</ele>
        <time>1970-01-01T01:21:25.000Z</time>
      </trkpt>
      <trkpt lat="45.99542" lon="4.55326">
        <ele>648.6</ele>
        <time>1970-01-01T01:21:26.000Z</time>
      </trkpt>
      <trkpt lat="45.99542" lon="4.55326">
        <ele>648.6</ele>
        <time>1970-01-01T01:21:27.000Z</time>
      </trkpt>
      <trkpt lat="45.99545" lon="4.55325">
        <ele>648.7</ele>
        <time>1970-01-01T01:21:28.000Z</time>
      </trkpt>
      <trkpt lat="45.99545" lon="4.55325">
        <ele>648.7</ele>
        <time>1970-01-01T01:21:29.000Z</time>
      </trkpt>
      <trkpt lat="45.99547" lon="4.55323">
        <ele>648.8</ele>
        <time>1970-01-01T01:21:30.000Z</time>
      </trkpt>
      <trkpt lat="45.99547" lon="4.55323">
        <ele>648.8</ele>
        <time>1970-01-01T01:21:31.000Z</time>
      </trkpt>
      <trkpt lat="45.99549" lon="4.55322">
        <ele>648.8</ele>
        <time>1970-01-01T01:21:32.000Z</time>
      </trkpt>
      <trkpt lat="45.99549" lon="4.55322">
        <ele>648.8</ele>
        <time>1970-01-01T01:21:33.000Z</time>
      </trkpt>
      <trkpt lat="45.99551" lon="4.5532">
        <ele>648.9</ele>
        <time>1970-01-01T01:21:34.000Z</time>
      </trkpt>
      <trkpt lat="45.99551" lon="4.5532">
        <ele>648.9</ele>
        <time>1970-01-01T01:21:35.000Z</time>
      </trkpt>
      <trkpt lat="45.99553" lon="4.55318">
        <ele>649</ele>
        <time>1970-01-01T01:21:36.000Z</time>
      </trkpt>
      <trkpt lat="45.99553" lon="4.55318">
        <ele>649</ele>
        <time>1970-01-01T01:21:37.000Z</time>
      </trkpt>
      <trkpt lat="45.99556" lon="4.55317">
        <ele>649.1</ele>
        <time>1970-01-01T01:21:38.000Z</time>
      </trkpt>
      <trkpt lat="45.99556" lon="4.55317">
        <ele>649.1</ele>
        <time>1970-01-01T01:21:39.000Z</time>
      </trkpt>
      <trkpt lat="45.99558" lon="4.55315">
        <ele>649.1</ele>
        <time>1970-01-01T01:21:40.000Z</time>
      </trkpt>
      <trkpt lat="45.99558" lon="4.55315">
        <ele>649.1</ele>
        <time>1970-01-01T01:21:41.000Z</time>
      </trkpt>
      <trkpt lat="45.9956" lon="4.55315">
        <ele>649.2</ele>
        <time>1970-01-01T01:21:42.000Z</time>
      </trkpt>
      <trkpt lat="45.9956" lon="4.55315">
        <ele>649.2</ele>
        <time>1970-01-01T01:21:43.000Z</time>
      </trkpt>
      <trkpt lat="45.99563" lon="4.55314">
        <ele>649.3</ele>
        <time>1970-01-01T01:21:44.000Z</time>
      </trkpt>
      <trkpt lat="45.99563" lon="4.55314">
        <ele>649.3</ele>
        <time>1970-01-01T01:21:45.000Z</time>
      </trkpt>
      <trkpt lat="45.99566" lon="4.55313">
        <ele>649.4</ele>
        <time>1970-01-01T01:21:46.000Z</time>
      </trkpt>
      <trkpt lat="45.99566" lon="4.55313">
        <ele>649.4</ele>
        <time>1970-01-01T01:21:47.000Z</time>
      </trkpt>
      <trkpt lat="45.99569" lon="4.55313">
        <ele>649.5</ele>
        <time>1970-01-01T01:21:48.000Z</time>
      </trkpt>
      <trkpt lat="45.99569" lon="4.55313">
        <ele>649.5</ele>
        <time>1970-01-01T01:21:49.000Z</time>
      </trkpt>
      <trkpt lat="45.99571" lon="4.55312">
        <ele>649.6</ele>
        <time>1970-01-01T01:21:50.000Z</time>
      </trkpt>
      <trkpt lat="45.99571" lon="4.55312">
        <ele>649.6</ele>
        <time>1970-01-01T01:21:51.000Z</time>
      </trkpt>
      <trkpt lat="45.99574" lon="4.55311">
        <ele>649.7</ele>
        <time>1970-01-01T01:21:52.000Z</time>
      </trkpt>
      <trkpt lat="45.99574" lon="4.55311">
        <ele>649.7</ele>
        <time>1970-01-01T01:21:53.000Z</time>
      </trkpt>
      <trkpt lat="45.99577" lon="4.55311">
        <ele>649.8</ele>
        <time>1970-01-01T01:21:54.000Z</time>
      </trkpt>
      <trkpt lat="45.99577" lon="4.55311">
        <ele>649.8</ele>
        <time>1970-01-01T01:21:55.000Z</time>
      </trkpt>
      <trkpt lat="45.99579" lon="4.55311">
        <ele>649.9</ele>
        <time>1970-01-01T01:21:56.000Z</time>
      </trkpt>
      <trkpt lat="45.99579" lon="4.55311">
        <ele>649.9</ele>
        <time>1970-01-01T01:21:57.000Z</time>
      </trkpt>
      <trkpt lat="45.99581" lon="4.55311">
        <ele>650</ele>
        <time>1970-01-01T01:21:58.000Z</time>
      </trkpt>
      <trkpt lat="45.99581" lon="4.55311">
        <ele>650</ele>
        <time>1970-01-01T01:21:59.000Z</time>
      </trkpt>
      <trkpt lat="45.99584" lon="4.55311">
        <ele>650.2</ele>
        <time>1970-01-01T01:22:00.000Z</time>
      </trkpt>
      <trkpt lat="45.99584" lon="4.55311">
        <ele>650.2</ele>
        <time>1970-01-01T01:22:01.000Z</time>
      </trkpt>
      <trkpt lat="45.99586" lon="4.55312">
        <ele>650.3</ele>
        <time>1970-01-01T01:22:02.000Z</time>
      </trkpt>
      <trkpt lat="45.99586" lon="4.55312">
        <ele>650.3</ele>
        <time>1970-01-01T01:22:03.000Z</time>
      </trkpt>
      <trkpt lat="45.99588" lon="4.55312">
        <ele>650.4</ele>
        <time>1970-01-01T01:22:04.000Z</time>
      </trkpt>
      <trkpt lat="45.99588" lon="4.55312">
        <ele>650.4</ele>
        <time>1970-01-01T01:22:05.000Z</time>
      </trkpt>
      <trkpt lat="45.99591" lon="4.55313">
        <ele>650.5</ele>
        <time>1970-01-01T01:22:06.000Z</time>
      </trkpt>
      <trkpt lat="45.99591" lon="4.55313">
        <ele>650.5</ele>
        <time>1970-01-01T01:22:07.000Z</time>
      </trkpt>
      <trkpt lat="45.99593" lon="4.55313">
        <ele>650.6</ele>
        <time>1970-01-01T01:22:08.000Z</time>
      </trkpt>
      <trkpt lat="45.99593" lon="4.55313">
        <ele>650.6</ele>
        <time>1970-01-01T01:22:09.000Z</time>
      </trkpt>
      <trkpt lat="45.99595" lon="4.55314">
        <ele>650.7</ele>
        <time>1970-01-01T01:22:10.000Z</time>
      </trkpt>
      <trkpt lat="45.99595" lon="4.55314">
        <ele>650.7</ele>
        <time>1970-01-01T01:22:11.000Z</time>
      </trkpt>
      <trkpt lat="45.99598" lon="4.55315">
        <ele>650.7</ele>
        <time>1970-01-01T01:22:12.000Z</time>
      </trkpt>
      <trkpt lat="45.99598" lon="4.55315">
        <ele>650.7</ele>
        <time>1970-01-01T01:22:13.000Z</time>
      </trkpt>
      <trkpt lat="45.99601" lon="4.55315">
        <ele>650.8</ele>
        <time>1970-01-01T01:22:14.000Z</time>
      </trkpt>
      <trkpt lat="45.99601" lon="4.55315">
        <ele>650.8</ele>
        <time>1970-01-01T01:22:15.000Z</time>
      </trkpt>
      <trkpt lat="45.99603" lon="4.55316">
        <ele>650.9</ele>
        <time>1970-01-01T01:22:16.000Z</time>
      </trkpt>
      <trkpt lat="45.99603" lon="4.55316">
        <ele>650.9</ele>
        <time>1970-01-01T01:22:17.000Z</time>
      </trkpt>
      <trkpt lat="45.99606" lon="4.55316">
        <ele>650.9</ele>
        <time>1970-01-01T01:22:18.000Z</time>
      </trkpt>
      <trkpt lat="45.99606" lon="4.55316">
        <ele>650.9</ele>
        <time>1970-01-01T01:22:19.000Z</time>
      </trkpt>
      <trkpt lat="45.99609" lon="4.55317">
        <ele>651</ele>
        <time>1970-01-01T01:22:20.000Z</time>
      </trkpt>
      <trkpt lat="45.99609" lon="4.55317">
        <ele>651</ele>
        <time>1970-01-01T01:22:21.000Z</time>
      </trkpt>
      <trkpt lat="45.99612" lon="4.55318">
        <ele>651</ele>
        <time>1970-01-01T01:22:22.000Z</time>
      </trkpt>
      <trkpt lat="45.99612" lon="4.55318">
        <ele>651</ele>
        <time>1970-01-01T01:22:23.000Z</time>
      </trkpt>
      <trkpt lat="45.99614" lon="4.55319">
        <ele>651</ele>
        <time>1970-01-01T01:22:24.000Z</time>
      </trkpt>
      <trkpt lat="45.99614" lon="4.55319">
        <ele>651</ele>
        <time>1970-01-01T01:22:25.000Z</time>
      </trkpt>
      <trkpt lat="45.99617" lon="4.5532">
        <ele>651</ele>
        <time>1970-01-01T01:22:26.000Z</time>
      </trkpt>
      <trkpt lat="45.99617" lon="4.5532">
        <ele>651</ele>
        <time>1970-01-01T01:22:27.000Z</time>
      </trkpt>
      <trkpt lat="45.9962" lon="4.55321">
        <ele>651</ele>
        <time>1970-01-01T01:22:28.000Z</time>
      </trkpt>
      <trkpt lat="45.9962" lon="4.55321">
        <ele>651</ele>
        <time>1970-01-01T01:22:29.000Z</time>
      </trkpt>
      <trkpt lat="45.99622" lon="4.55322">
        <ele>651</ele>
        <time>1970-01-01T01:22:30.000Z</time>
      </trkpt>
      <trkpt lat="45.99622" lon="4.55322">
        <ele>651</ele>
        <time>1970-01-01T01:22:31.000Z</time>
      </trkpt>
      <trkpt lat="45.99624" lon="4.55323">
        <ele>651</ele>
        <time>1970-01-01T01:22:32.000Z</time>
      </trkpt>
      <trkpt lat="45.99624" lon="4.55323">
        <ele>651</ele>
        <time>1970-01-01T01:22:33.000Z</time>
      </trkpt>
      <trkpt lat="45.99626" lon="4.55324">
        <ele>651</ele>
        <time>1970-01-01T01:22:34.000Z</time>
      </trkpt>
      <trkpt lat="45.99626" lon="4.55324">
        <ele>651</ele>
        <time>1970-01-01T01:22:35.000Z</time>
      </trkpt>
      <trkpt lat="45.99629" lon="4.55324">
        <ele>650.9</ele>
        <time>1970-01-01T01:22:36.000Z</time>
      </trkpt>
      <trkpt lat="45.99629" lon="4.55324">
        <ele>650.9</ele>
        <time>1970-01-01T01:22:37.000Z</time>
      </trkpt>
      <trkpt lat="45.99631" lon="4.55324">
        <ele>650.9</ele>
        <time>1970-01-01T01:22:38.000Z</time>
      </trkpt>
      <trkpt lat="45.99631" lon="4.55324">
        <ele>650.9</ele>
        <time>1970-01-01T01:22:39.000Z</time>
      </trkpt>
      <trkpt lat="45.99634" lon="4.55322">
        <ele>650.8</ele>
        <time>1970-01-01T01:22:40.000Z</time>
      </trkpt>
      <trkpt lat="45.99634" lon="4.55322">
        <ele>650.8</ele>
        <time>1970-01-01T01:22:41.000Z</time>
      </trkpt>
      <trkpt lat="45.99637" lon="4.5532">
        <ele>650.7</ele>
        <time>1970-01-01T01:22:42.000Z</time>
      </trkpt>
      <trkpt lat="45.99637" lon="4.5532">
        <ele>650.7</ele>
        <time>1970-01-01T01:22:43.000Z</time>
      </trkpt>
      <trkpt lat="45.99639" lon="4.55318">
        <ele>650.7</ele>
        <time>1970-01-01T01:22:44.000Z</time>
      </trkpt>
      <trkpt lat="45.99639" lon="4.55318">
        <ele>650.7</ele>
        <time>1970-01-01T01:22:45.000Z</time>
      </trkpt>
      <trkpt lat="45.99639" lon="4.55318">
        <ele>650.7</ele>
        <time>1970-01-01T01:22:46.000Z</time>
      </trkpt>
      <trkpt lat="45.99641" lon="4.55314">
        <ele>650.6</ele>
        <time>1970-01-01T01:22:47.000Z</time>
      </trkpt>
      <trkpt lat="45.99642" lon="4.55312">
        <ele>650.6</ele>
        <time>1970-01-01T01:22:48.000Z</time>
      </trkpt>
      <trkpt lat="45.99643" lon="4.55311">
        <ele>650.5</ele>
        <time>1970-01-01T01:22:49.000Z</time>
      </trkpt>
      <trkpt lat="45.99644" lon="4.5531">
        <ele>650.5</ele>
        <time>1970-01-01T01:22:50.000Z</time>
      </trkpt>
      <trkpt lat="45.99644" lon="4.5531">
        <ele>650.5</ele>
        <time>1970-01-01T01:22:51.000Z</time>
      </trkpt>
      <trkpt lat="45.99645" lon="4.55307">
        <ele>650.5</ele>
        <time>1970-01-01T01:22:52.000Z</time>
      </trkpt>
      <trkpt lat="45.99645" lon="4.55307">
        <ele>650.5</ele>
        <time>1970-01-01T01:22:53.000Z</time>
      </trkpt>
      <trkpt lat="45.99647" lon="4.55304">
        <ele>650.4</ele>
        <time>1970-01-01T01:22:54.000Z</time>
      </trkpt>
      <trkpt lat="45.99647" lon="4.55304">
        <ele>650.4</ele>
        <time>1970-01-01T01:22:55.000Z</time>
      </trkpt>
      <trkpt lat="45.99649" lon="4.55301">
        <ele>650.4</ele>
        <time>1970-01-01T01:22:56.000Z</time>
      </trkpt>
      <trkpt lat="45.99649" lon="4.55301">
        <ele>650.4</ele>
        <time>1970-01-01T01:22:57.000Z</time>
      </trkpt>
      <trkpt lat="45.99651" lon="4.55298">
        <ele>650.4</ele>
        <time>1970-01-01T01:22:58.000Z</time>
      </trkpt>
      <trkpt lat="45.99651" lon="4.55298">
        <ele>650.4</ele>
        <time>1970-01-01T01:22:59.000Z</time>
      </trkpt>
      <trkpt lat="45.99653" lon="4.55295">
        <ele>650.3</ele>
        <time>1970-01-01T01:23:00.000Z</time>
      </trkpt>
      <trkpt lat="45.99653" lon="4.55295">
        <ele>650.3</ele>
        <time>1970-01-01T01:23:01.000Z</time>
      </trkpt>
      <trkpt lat="45.99654" lon="4.55292">
        <ele>650.3</ele>
        <time>1970-01-01T01:23:02.000Z</time>
      </trkpt>
      <trkpt lat="45.99654" lon="4.55292">
        <ele>650.3</ele>
        <time>1970-01-01T01:23:03.000Z</time>
      </trkpt>
      <trkpt lat="45.99656" lon="4.55289">
        <ele>650.3</ele>
        <time>1970-01-01T01:23:04.000Z</time>
      </trkpt>
      <trkpt lat="45.99656" lon="4.55289">
        <ele>650.3</ele>
        <time>1970-01-01T01:23:05.000Z</time>
      </trkpt>
      <trkpt lat="45.99658" lon="4.55287">
        <ele>650.4</ele>
        <time>1970-01-01T01:23:06.000Z</time>
      </trkpt>
      <trkpt lat="45.99658" lon="4.55287">
        <ele>650.4</ele>
        <time>1970-01-01T01:23:07.000Z</time>
      </trkpt>
      <trkpt lat="45.99659" lon="4.55284">
        <ele>650.4</ele>
        <time>1970-01-01T01:23:08.000Z</time>
      </trkpt>
      <trkpt lat="45.99659" lon="4.55284">
        <ele>650.4</ele>
        <time>1970-01-01T01:23:09.000Z</time>
      </trkpt>
      <trkpt lat="45.99661" lon="4.55281">
        <ele>650.4</ele>
        <time>1970-01-01T01:23:10.000Z</time>
      </trkpt>
      <trkpt lat="45.99661" lon="4.55281">
        <ele>650.4</ele>
        <time>1970-01-01T01:23:11.000Z</time>
      </trkpt>
      <trkpt lat="45.99663" lon="4.55278">
        <ele>650.5</ele>
        <time>1970-01-01T01:23:12.000Z</time>
      </trkpt>
      <trkpt lat="45.99663" lon="4.55278">
        <ele>650.5</ele>
        <time>1970-01-01T01:23:13.000Z</time>
      </trkpt>
      <trkpt lat="45.99665" lon="4.55276">
        <ele>650.5</ele>
        <time>1970-01-01T01:23:14.000Z</time>
      </trkpt>
      <trkpt lat="45.99665" lon="4.55276">
        <ele>650.5</ele>
        <time>1970-01-01T01:23:15.000Z</time>
      </trkpt>
      <trkpt lat="45.99667" lon="4.55273">
        <ele>650.6</ele>
        <time>1970-01-01T01:23:16.000Z</time>
      </trkpt>
      <trkpt lat="45.99667" lon="4.55273">
        <ele>650.6</ele>
        <time>1970-01-01T01:23:17.000Z</time>
      </trkpt>
      <trkpt lat="45.99669" lon="4.55271">
        <ele>650.7</ele>
        <time>1970-01-01T01:23:18.000Z</time>
      </trkpt>
      <trkpt lat="45.99669" lon="4.55271">
        <ele>650.7</ele>
        <time>1970-01-01T01:23:19.000Z</time>
      </trkpt>
      <trkpt lat="45.99671" lon="4.55269">
        <ele>650.8</ele>
        <time>1970-01-01T01:23:20.000Z</time>
      </trkpt>
      <trkpt lat="45.99671" lon="4.55269">
        <ele>650.8</ele>
        <time>1970-01-01T01:23:21.000Z</time>
      </trkpt>
      <trkpt lat="45.99673" lon="4.55267">
        <ele>650.8</ele>
        <time>1970-01-01T01:23:22.000Z</time>
      </trkpt>
      <trkpt lat="45.99673" lon="4.55267">
        <ele>650.8</ele>
        <time>1970-01-01T01:23:23.000Z</time>
      </trkpt>
      <trkpt lat="45.99675" lon="4.55264">
        <ele>651</ele>
        <time>1970-01-01T01:23:24.000Z</time>
      </trkpt>
      <trkpt lat="45.99675" lon="4.55264">
        <ele>651</ele>
        <time>1970-01-01T01:23:25.000Z</time>
      </trkpt>
      <trkpt lat="45.99677" lon="4.55261">
        <ele>651.1</ele>
        <time>1970-01-01T01:23:26.000Z</time>
      </trkpt>
      <trkpt lat="45.99677" lon="4.55261">
        <ele>651.1</ele>
        <time>1970-01-01T01:23:27.000Z</time>
      </trkpt>
      <trkpt lat="45.9968" lon="4.55259">
        <ele>651.2</ele>
        <time>1970-01-01T01:23:28.000Z</time>
      </trkpt>
      <trkpt lat="45.9968" lon="4.55259">
        <ele>651.2</ele>
        <time>1970-01-01T01:23:29.000Z</time>
      </trkpt>
      <trkpt lat="45.99681" lon="4.55258">
        <ele>651.3</ele>
        <time>1970-01-01T01:23:30.000Z</time>
      </trkpt>
      <trkpt lat="45.99682" lon="4.55257">
        <ele>651.3</ele>
        <time>1970-01-01T01:23:31.000Z</time>
      </trkpt>
      <trkpt lat="45.99683" lon="4.55256">
        <ele>651.4</ele>
        <time>1970-01-01T01:23:32.000Z</time>
      </trkpt>
      <trkpt lat="45.99684" lon="4.55255">
        <ele>651.4</ele>
        <time>1970-01-01T01:23:33.000Z</time>
      </trkpt>
      <trkpt lat="45.99685" lon="4.55254">
        <ele>651.5</ele>
        <time>1970-01-01T01:23:34.000Z</time>
      </trkpt>
      <trkpt lat="45.99685" lon="4.55253">
        <ele>651.5</ele>
        <time>1970-01-01T01:23:35.000Z</time>
      </trkpt>
      <trkpt lat="45.99686" lon="4.55252">
        <ele>651.5</ele>
        <time>1970-01-01T01:23:36.000Z</time>
      </trkpt>
      <trkpt lat="45.99687" lon="4.55251">
        <ele>651.6</ele>
        <time>1970-01-01T01:23:37.000Z</time>
      </trkpt>
      <trkpt lat="45.99688" lon="4.5525">
        <ele>651.6</ele>
        <time>1970-01-01T01:23:38.000Z</time>
      </trkpt>
      <trkpt lat="45.99689" lon="4.55249">
        <ele>651.6</ele>
        <time>1970-01-01T01:23:39.000Z</time>
      </trkpt>
      <trkpt lat="45.9969" lon="4.55248">
        <ele>651.7</ele>
        <time>1970-01-01T01:23:40.000Z</time>
      </trkpt>
      <trkpt lat="45.99691" lon="4.55248">
        <ele>651.7</ele>
        <time>1970-01-01T01:23:41.000Z</time>
      </trkpt>
      <trkpt lat="45.99692" lon="4.55247">
        <ele>651.8</ele>
        <time>1970-01-01T01:23:42.000Z</time>
      </trkpt>
      <trkpt lat="45.99693" lon="4.55246">
        <ele>651.8</ele>
        <time>1970-01-01T01:23:43.000Z</time>
      </trkpt>
      <trkpt lat="45.99694" lon="4.55245">
        <ele>651.8</ele>
        <time>1970-01-01T01:23:44.000Z</time>
      </trkpt>
      <trkpt lat="45.99695" lon="4.55245">
        <ele>651.8</ele>
        <time>1970-01-01T01:23:45.000Z</time>
      </trkpt>
      <trkpt lat="45.99696" lon="4.55244">
        <ele>651.9</ele>
        <time>1970-01-01T01:23:46.000Z</time>
      </trkpt>
      <trkpt lat="45.99697" lon="4.55243">
        <ele>651.9</ele>
        <time>1970-01-01T01:23:47.000Z</time>
      </trkpt>
      <trkpt lat="45.99698" lon="4.55242">
        <ele>651.9</ele>
        <time>1970-01-01T01:23:48.000Z</time>
      </trkpt>
      <trkpt lat="45.99698" lon="4.55241">
        <ele>651.9</ele>
        <time>1970-01-01T01:23:49.000Z</time>
      </trkpt>
      <trkpt lat="45.99699" lon="4.5524">
        <ele>651.9</ele>
        <time>1970-01-01T01:23:50.000Z</time>
      </trkpt>
      <trkpt lat="45.997" lon="4.55239">
        <ele>651.9</ele>
        <time>1970-01-01T01:23:51.000Z</time>
      </trkpt>
      <trkpt lat="45.99701" lon="4.55237">
        <ele>651.9</ele>
        <time>1970-01-01T01:23:52.000Z</time>
      </trkpt>
      <trkpt lat="45.99702" lon="4.55236">
        <ele>651.9</ele>
        <time>1970-01-01T01:23:53.000Z</time>
      </trkpt>
      <trkpt lat="45.99703" lon="4.55235">
        <ele>651.9</ele>
        <time>1970-01-01T01:23:54.000Z</time>
      </trkpt>
      <trkpt lat="45.99703" lon="4.55234">
        <ele>651.9</ele>
        <time>1970-01-01T01:23:55.000Z</time>
      </trkpt>
      <trkpt lat="45.99704" lon="4.55233">
        <ele>651.9</ele>
        <time>1970-01-01T01:23:56.000Z</time>
      </trkpt>
      <trkpt lat="45.99705" lon="4.55231">
        <ele>651.9</ele>
        <time>1970-01-01T01:23:57.000Z</time>
      </trkpt>
      <trkpt lat="45.99706" lon="4.5523">
        <ele>651.9</ele>
        <time>1970-01-01T01:23:58.000Z</time>
      </trkpt>
      <trkpt lat="45.99707" lon="4.55229">
        <ele>651.9</ele>
        <time>1970-01-01T01:23:59.000Z</time>
      </trkpt>
      <trkpt lat="45.99708" lon="4.55227">
        <ele>651.9</ele>
        <time>1970-01-01T01:24:00.000Z</time>
      </trkpt>
      <trkpt lat="45.99709" lon="4.55226">
        <ele>651.9</ele>
        <time>1970-01-01T01:24:01.000Z</time>
      </trkpt>
      <trkpt lat="45.99709" lon="4.55225">
        <ele>651.8</ele>
        <time>1970-01-01T01:24:02.000Z</time>
      </trkpt>
      <trkpt lat="45.9971" lon="4.55223">
        <ele>651.8</ele>
        <time>1970-01-01T01:24:03.000Z</time>
      </trkpt>
      <trkpt lat="45.99711" lon="4.55222">
        <ele>651.8</ele>
        <time>1970-01-01T01:24:04.000Z</time>
      </trkpt>
      <trkpt lat="45.99712" lon="4.5522">
        <ele>651.7</ele>
        <time>1970-01-01T01:24:05.000Z</time>
      </trkpt>
      <trkpt lat="45.99713" lon="4.55219">
        <ele>651.7</ele>
        <time>1970-01-01T01:24:06.000Z</time>
      </trkpt>
      <trkpt lat="45.99714" lon="4.55218">
        <ele>651.7</ele>
        <time>1970-01-01T01:24:07.000Z</time>
      </trkpt>
      <trkpt lat="45.99715" lon="4.55216">
        <ele>651.6</ele>
        <time>1970-01-01T01:24:08.000Z</time>
      </trkpt>
      <trkpt lat="45.99716" lon="4.55215">
        <ele>651.6</ele>
        <time>1970-01-01T01:24:09.000Z</time>
      </trkpt>
      <trkpt lat="45.99717" lon="4.55213">
        <ele>651.6</ele>
        <time>1970-01-01T01:24:10.000Z</time>
      </trkpt>
      <trkpt lat="45.99718" lon="4.55212">
        <ele>651.5</ele>
        <time>1970-01-01T01:24:11.000Z</time>
      </trkpt>
      <trkpt lat="45.99718" lon="4.5521">
        <ele>651.5</ele>
        <time>1970-01-01T01:24:12.000Z</time>
      </trkpt>
      <trkpt lat="45.99719" lon="4.55209">
        <ele>651.5</ele>
        <time>1970-01-01T01:24:13.000Z</time>
      </trkpt>
      <trkpt lat="45.9972" lon="4.55208">
        <ele>651.4</ele>
        <time>1970-01-01T01:24:14.000Z</time>
      </trkpt>
      <trkpt lat="45.99721" lon="4.55206">
        <ele>651.4</ele>
        <time>1970-01-01T01:24:15.000Z</time>
      </trkpt>
      <trkpt lat="45.99722" lon="4.55205">
        <ele>651.3</ele>
        <time>1970-01-01T01:24:16.000Z</time>
      </trkpt>
      <trkpt lat="45.99722" lon="4.55203">
        <ele>651.3</ele>
        <time>1970-01-01T01:24:17.000Z</time>
      </trkpt>
      <trkpt lat="45.99723" lon="4.55202">
        <ele>651.3</ele>
        <time>1970-01-01T01:24:18.000Z</time>
      </trkpt>
      <trkpt lat="45.99724" lon="4.55201">
        <ele>651.2</ele>
        <time>1970-01-01T01:24:19.000Z</time>
      </trkpt>
      <trkpt lat="45.99725" lon="4.55199">
        <ele>651.2</ele>
        <time>1970-01-01T01:24:20.000Z</time>
      </trkpt>
      <trkpt lat="45.99726" lon="4.55198">
        <ele>651.1</ele>
        <time>1970-01-01T01:24:21.000Z</time>
      </trkpt>
      <trkpt lat="45.99727" lon="4.55196">
        <ele>651.1</ele>
        <time>1970-01-01T01:24:22.000Z</time>
      </trkpt>
      <trkpt lat="45.99728" lon="4.55195">
        <ele>651</ele>
        <time>1970-01-01T01:24:23.000Z</time>
      </trkpt>
      <trkpt lat="45.99728" lon="4.55193">
        <ele>651</ele>
        <time>1970-01-01T01:24:24.000Z</time>
      </trkpt>
      <trkpt lat="45.99729" lon="4.55192">
        <ele>650.9</ele>
        <time>1970-01-01T01:24:25.000Z</time>
      </trkpt>
      <trkpt lat="45.9973" lon="4.55191">
        <ele>650.9</ele>
        <time>1970-01-01T01:24:26.000Z</time>
      </trkpt>
      <trkpt lat="45.99731" lon="4.5519">
        <ele>650.8</ele>
        <time>1970-01-01T01:24:27.000Z</time>
      </trkpt>
      <trkpt lat="45.99732" lon="4.55188">
        <ele>650.8</ele>
        <time>1970-01-01T01:24:28.000Z</time>
      </trkpt>
      <trkpt lat="45.99733" lon="4.55187">
        <ele>650.7</ele>
        <time>1970-01-01T01:24:29.000Z</time>
      </trkpt>
      <trkpt lat="45.99734" lon="4.55186">
        <ele>650.7</ele>
        <time>1970-01-01T01:24:30.000Z</time>
      </trkpt>
      <trkpt lat="45.99735" lon="4.55184">
        <ele>650.6</ele>
        <time>1970-01-01T01:24:31.000Z</time>
      </trkpt>
      <trkpt lat="45.99736" lon="4.55183">
        <ele>650.6</ele>
        <time>1970-01-01T01:24:32.000Z</time>
      </trkpt>
      <trkpt lat="45.99736" lon="4.55181">
        <ele>650.5</ele>
        <time>1970-01-01T01:24:33.000Z</time>
      </trkpt>
      <trkpt lat="45.99737" lon="4.5518">
        <ele>650.5</ele>
        <time>1970-01-01T01:24:34.000Z</time>
      </trkpt>
      <trkpt lat="45.99737" lon="4.55178">
        <ele>650.4</ele>
        <time>1970-01-01T01:24:35.000Z</time>
      </trkpt>
      <trkpt lat="45.99738" lon="4.55177">
        <ele>650.4</ele>
        <time>1970-01-01T01:24:36.000Z</time>
      </trkpt>
      <trkpt lat="45.99738" lon="4.55175">
        <ele>650.3</ele>
        <time>1970-01-01T01:24:37.000Z</time>
      </trkpt>
      <trkpt lat="45.99739" lon="4.55174">
        <ele>650.3</ele>
        <time>1970-01-01T01:24:38.000Z</time>
      </trkpt>
      <trkpt lat="45.99739" lon="4.55172">
        <ele>650.2</ele>
        <time>1970-01-01T01:24:39.000Z</time>
      </trkpt>
      <trkpt lat="45.9974" lon="4.55171">
        <ele>650.2</ele>
        <time>1970-01-01T01:24:40.000Z</time>
      </trkpt>
      <trkpt lat="45.99741" lon="4.5517">
        <ele>650.2</ele>
        <time>1970-01-01T01:24:41.000Z</time>
      </trkpt>
      <trkpt lat="45.99741" lon="4.55168">
        <ele>650.1</ele>
        <time>1970-01-01T01:24:42.000Z</time>
      </trkpt>
      <trkpt lat="45.99742" lon="4.55167">
        <ele>650.1</ele>
        <time>1970-01-01T01:24:43.000Z</time>
      </trkpt>
      <trkpt lat="45.99743" lon="4.55166">
        <ele>650.1</ele>
        <time>1970-01-01T01:24:44.000Z</time>
      </trkpt>
      <trkpt lat="45.99743" lon="4.55165">
        <ele>650.1</ele>
        <time>1970-01-01T01:24:45.000Z</time>
      </trkpt>
      <trkpt lat="45.99744" lon="4.55164">
        <ele>650.1</ele>
        <time>1970-01-01T01:24:46.000Z</time>
      </trkpt>
      <trkpt lat="45.99745" lon="4.55162">
        <ele>650.1</ele>
        <time>1970-01-01T01:24:47.000Z</time>
      </trkpt>
      <trkpt lat="45.99745" lon="4.55161">
        <ele>650</ele>
        <time>1970-01-01T01:24:48.000Z</time>
      </trkpt>
      <trkpt lat="45.99746" lon="4.5516">
        <ele>650</ele>
        <time>1970-01-01T01:24:49.000Z</time>
      </trkpt>
      <trkpt lat="45.99747" lon="4.55158">
        <ele>650</ele>
        <time>1970-01-01T01:24:50.000Z</time>
      </trkpt>
      <trkpt lat="45.99747" lon="4.55157">
        <ele>650</ele>
        <time>1970-01-01T01:24:51.000Z</time>
      </trkpt>
      <trkpt lat="45.99748" lon="4.55156">
        <ele>650</ele>
        <time>1970-01-01T01:24:52.000Z</time>
      </trkpt>
      <trkpt lat="45.99749" lon="4.55154">
        <ele>650</ele>
        <time>1970-01-01T01:24:53.000Z</time>
      </trkpt>
      <trkpt lat="45.99749" lon="4.55153">
        <ele>650</ele>
        <time>1970-01-01T01:24:54.000Z</time>
      </trkpt>
      <trkpt lat="45.9975" lon="4.55151">
        <ele>650</ele>
        <time>1970-01-01T01:24:55.000Z</time>
      </trkpt>
      <trkpt lat="45.99751" lon="4.5515">
        <ele>650</ele>
        <time>1970-01-01T01:24:56.000Z</time>
      </trkpt>
      <trkpt lat="45.99752" lon="4.55149">
        <ele>650</ele>
        <time>1970-01-01T01:24:57.000Z</time>
      </trkpt>
      <trkpt lat="45.99753" lon="4.55148">
        <ele>650</ele>
        <time>1970-01-01T01:24:58.000Z</time>
      </trkpt>
      <trkpt lat="45.99753" lon="4.55146">
        <ele>650</ele>
        <time>1970-01-01T01:24:59.000Z</time>
      </trkpt>
      <trkpt lat="45.99754" lon="4.55145">
        <ele>650</ele>
        <time>1970-01-01T01:25:00.000Z</time>
      </trkpt>
      <trkpt lat="45.99755" lon="4.55144">
        <ele>650</ele>
        <time>1970-01-01T01:25:01.000Z</time>
      </trkpt>
      <trkpt lat="45.99756" lon="4.55143">
        <ele>650</ele>
        <time>1970-01-01T01:25:02.000Z</time>
      </trkpt>
      <trkpt lat="45.99757" lon="4.55141">
        <ele>650</ele>
        <time>1970-01-01T01:25:03.000Z</time>
      </trkpt>
      <trkpt lat="45.99758" lon="4.5514">
        <ele>650</ele>
        <time>1970-01-01T01:25:04.000Z</time>
      </trkpt>
      <trkpt lat="45.99759" lon="4.55139">
        <ele>650</ele>
        <time>1970-01-01T01:25:05.000Z</time>
      </trkpt>
      <trkpt lat="45.99759" lon="4.55137">
        <ele>650</ele>
        <time>1970-01-01T01:25:06.000Z</time>
      </trkpt>
      <trkpt lat="45.9976" lon="4.55135">
        <ele>650</ele>
        <time>1970-01-01T01:25:07.000Z</time>
      </trkpt>
      <trkpt lat="45.9976" lon="4.55134">
        <ele>650</ele>
        <time>1970-01-01T01:25:08.000Z</time>
      </trkpt>
      <trkpt lat="45.99761" lon="4.55132">
        <ele>650</ele>
        <time>1970-01-01T01:25:09.000Z</time>
      </trkpt>
      <trkpt lat="45.99762" lon="4.55131">
        <ele>650</ele>
        <time>1970-01-01T01:25:10.000Z</time>
      </trkpt>
      <trkpt lat="45.99762" lon="4.55129">
        <ele>650</ele>
        <time>1970-01-01T01:25:11.000Z</time>
      </trkpt>
      <trkpt lat="45.99763" lon="4.55127">
        <ele>650</ele>
        <time>1970-01-01T01:25:12.000Z</time>
      </trkpt>
      <trkpt lat="45.99763" lon="4.55126">
        <ele>650</ele>
        <time>1970-01-01T01:25:13.000Z</time>
      </trkpt>
      <trkpt lat="45.99763" lon="4.55124">
        <ele>650</ele>
        <time>1970-01-01T01:25:14.000Z</time>
      </trkpt>
      <trkpt lat="45.99763" lon="4.55122">
        <ele>650</ele>
        <time>1970-01-01T01:25:15.000Z</time>
      </trkpt>
      <trkpt lat="45.99764" lon="4.55121">
        <ele>649.9</ele>
        <time>1970-01-01T01:25:16.000Z</time>
      </trkpt>
      <trkpt lat="45.99764" lon="4.55119">
        <ele>649.9</ele>
        <time>1970-01-01T01:25:17.000Z</time>
      </trkpt>
      <trkpt lat="45.99764" lon="4.55117">
        <ele>649.9</ele>
        <time>1970-01-01T01:25:18.000Z</time>
      </trkpt>
      <trkpt lat="45.99764" lon="4.55116">
        <ele>649.9</ele>
        <time>1970-01-01T01:25:19.000Z</time>
      </trkpt>
      <trkpt lat="45.99765" lon="4.55114">
        <ele>649.9</ele>
        <time>1970-01-01T01:25:20.000Z</time>
      </trkpt>
      <trkpt lat="45.99765" lon="4.55112">
        <ele>649.9</ele>
        <time>1970-01-01T01:25:21.000Z</time>
      </trkpt>
      <trkpt lat="45.99765" lon="4.5511">
        <ele>649.9</ele>
        <time>1970-01-01T01:25:22.000Z</time>
      </trkpt>
      <trkpt lat="45.99765" lon="4.55109">
        <ele>649.9</ele>
        <time>1970-01-01T01:25:23.000Z</time>
      </trkpt>
      <trkpt lat="45.99765" lon="4.55107">
        <ele>649.9</ele>
        <time>1970-01-01T01:25:24.000Z</time>
      </trkpt>
      <trkpt lat="45.99765" lon="4.55105">
        <ele>649.9</ele>
        <time>1970-01-01T01:25:25.000Z</time>
      </trkpt>
      <trkpt lat="45.99765" lon="4.55103">
        <ele>649.9</ele>
        <time>1970-01-01T01:25:26.000Z</time>
      </trkpt>
      <trkpt lat="45.99765" lon="4.55101">
        <ele>649.9</ele>
        <time>1970-01-01T01:25:27.000Z</time>
      </trkpt>
      <trkpt lat="45.99765" lon="4.551">
        <ele>649.9</ele>
        <time>1970-01-01T01:25:28.000Z</time>
      </trkpt>
      <trkpt lat="45.99765" lon="4.55098">
        <ele>649.9</ele>
        <time>1970-01-01T01:25:29.000Z</time>
      </trkpt>
      <trkpt lat="45.99766" lon="4.55097">
        <ele>650</ele>
        <time>1970-01-01T01:25:30.000Z</time>
      </trkpt>
      <trkpt lat="45.99766" lon="4.55095">
        <ele>650</ele>
        <time>1970-01-01T01:25:31.000Z</time>
      </trkpt>
      <trkpt lat="45.99766" lon="4.55094">
        <ele>650</ele>
        <time>1970-01-01T01:25:32.000Z</time>
      </trkpt>
      <trkpt lat="45.99766" lon="4.55092">
        <ele>650</ele>
        <time>1970-01-01T01:25:33.000Z</time>
      </trkpt>
      <trkpt lat="45.99767" lon="4.55091">
        <ele>650.1</ele>
        <time>1970-01-01T01:25:34.000Z</time>
      </trkpt>
      <trkpt lat="45.99767" lon="4.55089">
        <ele>650.1</ele>
        <time>1970-01-01T01:25:35.000Z</time>
      </trkpt>
      <trkpt lat="45.99767" lon="4.55088">
        <ele>650.1</ele>
        <time>1970-01-01T01:25:36.000Z</time>
      </trkpt>
      <trkpt lat="45.99767" lon="4.55086">
        <ele>650.2</ele>
        <time>1970-01-01T01:25:37.000Z</time>
      </trkpt>
      <trkpt lat="45.99767" lon="4.55084">
        <ele>650.2</ele>
        <time>1970-01-01T01:25:38.000Z</time>
      </trkpt>
      <trkpt lat="45.99767" lon="4.55083">
        <ele>650.3</ele>
        <time>1970-01-01T01:25:39.000Z</time>
      </trkpt>
      <trkpt lat="45.99767" lon="4.55081">
        <ele>650.4</ele>
        <time>1970-01-01T01:25:40.000Z</time>
      </trkpt>
      <trkpt lat="45.99768" lon="4.55079">
        <ele>650.4</ele>
        <time>1970-01-01T01:25:41.000Z</time>
      </trkpt>
      <trkpt lat="45.99768" lon="4.55077">
        <ele>650.5</ele>
        <time>1970-01-01T01:25:42.000Z</time>
      </trkpt>
      <trkpt lat="45.99768" lon="4.55076">
        <ele>650.6</ele>
        <time>1970-01-01T01:25:43.000Z</time>
      </trkpt>
      <trkpt lat="45.99768" lon="4.55074">
        <ele>650.7</ele>
        <time>1970-01-01T01:25:44.000Z</time>
      </trkpt>
      <trkpt lat="45.99768" lon="4.55072">
        <ele>650.8</ele>
        <time>1970-01-01T01:25:45.000Z</time>
      </trkpt>
      <trkpt lat="45.99768" lon="4.55072">
        <ele>650.8</ele>
        <time>1970-01-01T01:25:46.000Z</time>
      </trkpt>
      <trkpt lat="45.99769" lon="4.5507">
        <ele>651</ele>
        <time>1970-01-01T01:25:47.000Z</time>
      </trkpt>
      <trkpt lat="45.9977" lon="4.55068">
        <ele>651.1</ele>
        <time>1970-01-01T01:25:48.000Z</time>
      </trkpt>
      <trkpt lat="45.9977" lon="4.55067">
        <ele>651.2</ele>
        <time>1970-01-01T01:25:49.000Z</time>
      </trkpt>
      <trkpt lat="45.99771" lon="4.55065">
        <ele>651.3</ele>
        <time>1970-01-01T01:25:50.000Z</time>
      </trkpt>
      <trkpt lat="45.99772" lon="4.55064">
        <ele>651.4</ele>
        <time>1970-01-01T01:25:51.000Z</time>
      </trkpt>
      <trkpt lat="45.99772" lon="4.55062">
        <ele>651.5</ele>
        <time>1970-01-01T01:25:52.000Z</time>
      </trkpt>
      <trkpt lat="45.99773" lon="4.55061">
        <ele>651.7</ele>
        <time>1970-01-01T01:25:53.000Z</time>
      </trkpt>
      <trkpt lat="45.99774" lon="4.55059">
        <ele>651.8</ele>
        <time>1970-01-01T01:25:54.000Z</time>
      </trkpt>
      <trkpt lat="45.99774" lon="4.55059">
        <ele>651.8</ele>
        <time>1970-01-01T01:25:55.000Z</time>
      </trkpt>
      <trkpt lat="45.99774" lon="4.55056">
        <ele>652</ele>
        <time>1970-01-01T01:25:56.000Z</time>
      </trkpt>
      <trkpt lat="45.99774" lon="4.55056">
        <ele>652</ele>
        <time>1970-01-01T01:25:57.000Z</time>
      </trkpt>
      <trkpt lat="45.99775" lon="4.55053">
        <ele>652.3</ele>
        <time>1970-01-01T01:25:58.000Z</time>
      </trkpt>
      <trkpt lat="45.99775" lon="4.55052">
        <ele>652.4</ele>
        <time>1970-01-01T01:25:59.000Z</time>
      </trkpt>
      <trkpt lat="45.99775" lon="4.5505">
        <ele>652.5</ele>
        <time>1970-01-01T01:26:00.000Z</time>
      </trkpt>
      <trkpt lat="45.99775" lon="4.55049">
        <ele>652.6</ele>
        <time>1970-01-01T01:26:01.000Z</time>
      </trkpt>
      <trkpt lat="45.99775" lon="4.55048">
        <ele>652.7</ele>
        <time>1970-01-01T01:26:02.000Z</time>
      </trkpt>
      <trkpt lat="45.99776" lon="4.55047">
        <ele>652.8</ele>
        <time>1970-01-01T01:26:03.000Z</time>
      </trkpt>
      <trkpt lat="45.99776" lon="4.55045">
        <ele>652.9</ele>
        <time>1970-01-01T01:26:05.000Z</time>
      </trkpt>
      <trkpt lat="45.99776" lon="4.55044">
        <ele>653</ele>
        <time>1970-01-01T01:26:06.000Z</time>
      </trkpt>
      <trkpt lat="45.99776" lon="4.55043">
        <ele>653.1</ele>
        <time>1970-01-01T01:26:07.000Z</time>
      </trkpt>
      <trkpt lat="45.99776" lon="4.55042">
        <ele>653.2</ele>
        <time>1970-01-01T01:26:08.000Z</time>
      </trkpt>
      <trkpt lat="45.99776" lon="4.5504">
        <ele>653.3</ele>
        <time>1970-01-01T01:26:09.000Z</time>
      </trkpt>
      <trkpt lat="45.99776" lon="4.55039">
        <ele>653.4</ele>
        <time>1970-01-01T01:26:10.000Z</time>
      </trkpt>
      <trkpt lat="45.99776" lon="4.55039">
        <ele>653.4</ele>
        <time>1970-01-01T01:26:11.000Z</time>
      </trkpt>
      <trkpt lat="45.99776" lon="4.55035">
        <ele>653.7</ele>
        <time>1970-01-01T01:26:12.000Z</time>
      </trkpt>
      <trkpt lat="45.99776" lon="4.55035">
        <ele>653.7</ele>
        <time>1970-01-01T01:26:13.000Z</time>
      </trkpt>
      <trkpt lat="45.99776" lon="4.55031">
        <ele>654.1</ele>
        <time>1970-01-01T01:26:14.000Z</time>
      </trkpt>
      <trkpt lat="45.99776" lon="4.55031">
        <ele>654.1</ele>
        <time>1970-01-01T01:26:15.000Z</time>
      </trkpt>
      <trkpt lat="45.99777" lon="4.55027">
        <ele>654.5</ele>
        <time>1970-01-01T01:26:16.000Z</time>
      </trkpt>
      <trkpt lat="45.99777" lon="4.55027">
        <ele>654.5</ele>
        <time>1970-01-01T01:26:17.000Z</time>
      </trkpt>
      <trkpt lat="45.99777" lon="4.55024">
        <ele>654.8</ele>
        <time>1970-01-01T01:26:18.000Z</time>
      </trkpt>
      <trkpt lat="45.99777" lon="4.55024">
        <ele>654.8</ele>
        <time>1970-01-01T01:26:19.000Z</time>
      </trkpt>
      <trkpt lat="45.99777" lon="4.55021">
        <ele>655</ele>
        <time>1970-01-01T01:26:20.000Z</time>
      </trkpt>
      <trkpt lat="45.99777" lon="4.55021">
        <ele>655</ele>
        <time>1970-01-01T01:26:21.000Z</time>
      </trkpt>
      <trkpt lat="45.99777" lon="4.55018">
        <ele>655.3</ele>
        <time>1970-01-01T01:26:22.000Z</time>
      </trkpt>
      <trkpt lat="45.99777" lon="4.55018">
        <ele>655.3</ele>
        <time>1970-01-01T01:26:23.000Z</time>
      </trkpt>
      <trkpt lat="45.99777" lon="4.55018">
        <ele>655.3</ele>
        <time>1970-01-01T01:26:24.000Z</time>
      </trkpt>
      <trkpt lat="45.99778" lon="4.55015">
        <ele>655.7</ele>
        <time>1970-01-01T01:26:25.000Z</time>
      </trkpt>
      <trkpt lat="45.99778" lon="4.55015">
        <ele>655.7</ele>
        <time>1970-01-01T01:26:26.000Z</time>
      </trkpt>
      <trkpt lat="45.99778" lon="4.55012">
        <ele>656</ele>
        <time>1970-01-01T01:26:27.000Z</time>
      </trkpt>
      <trkpt lat="45.99778" lon="4.55012">
        <ele>656</ele>
        <time>1970-01-01T01:26:28.000Z</time>
      </trkpt>
      <trkpt lat="45.99779" lon="4.55009">
        <ele>656.3</ele>
        <time>1970-01-01T01:26:29.000Z</time>
      </trkpt>
      <trkpt lat="45.99779" lon="4.55009">
        <ele>656.3</ele>
        <time>1970-01-01T01:26:30.000Z</time>
      </trkpt>
      <trkpt lat="45.9978" lon="4.55006">
        <ele>656.7</ele>
        <time>1970-01-01T01:26:31.000Z</time>
      </trkpt>
      <trkpt lat="45.9978" lon="4.55006">
        <ele>656.7</ele>
        <time>1970-01-01T01:26:32.000Z</time>
      </trkpt>
      <trkpt lat="45.99781" lon="4.55002">
        <ele>657.1</ele>
        <time>1970-01-01T01:26:33.000Z</time>
      </trkpt>
      <trkpt lat="45.99781" lon="4.55002">
        <ele>657.1</ele>
        <time>1970-01-01T01:26:34.000Z</time>
      </trkpt>
      <trkpt lat="45.99781" lon="4.54999">
        <ele>657.4</ele>
        <time>1970-01-01T01:26:35.000Z</time>
      </trkpt>
      <trkpt lat="45.99781" lon="4.54999">
        <ele>657.4</ele>
        <time>1970-01-01T01:26:36.000Z</time>
      </trkpt>
      <trkpt lat="45.99782" lon="4.54996">
        <ele>657.7</ele>
        <time>1970-01-01T01:26:37.000Z</time>
      </trkpt>
      <trkpt lat="45.99782" lon="4.54996">
        <ele>657.7</ele>
        <time>1970-01-01T01:26:38.000Z</time>
      </trkpt>
      <trkpt lat="45.99782" lon="4.54994">
        <ele>658</ele>
        <time>1970-01-01T01:26:39.000Z</time>
      </trkpt>
      <trkpt lat="45.99782" lon="4.54994">
        <ele>658</ele>
        <time>1970-01-01T01:26:40.000Z</time>
      </trkpt>
      <trkpt lat="45.99783" lon="4.54991">
        <ele>658.3</ele>
        <time>1970-01-01T01:26:41.000Z</time>
      </trkpt>
      <trkpt lat="45.99783" lon="4.54991">
        <ele>658.3</ele>
        <time>1970-01-01T01:26:42.000Z</time>
      </trkpt>
      <trkpt lat="45.99784" lon="4.54988">
        <ele>658.6</ele>
        <time>1970-01-01T01:26:43.000Z</time>
      </trkpt>
      <trkpt lat="45.99784" lon="4.54988">
        <ele>658.6</ele>
        <time>1970-01-01T01:26:44.000Z</time>
      </trkpt>
      <trkpt lat="45.99784" lon="4.54985">
        <ele>659</ele>
        <time>1970-01-01T01:26:45.000Z</time>
      </trkpt>
      <trkpt lat="45.99784" lon="4.54985">
        <ele>659</ele>
        <time>1970-01-01T01:26:46.000Z</time>
      </trkpt>
      <trkpt lat="45.99784" lon="4.54985">
        <ele>659</ele>
        <time>1970-01-01T01:26:47.000Z</time>
      </trkpt>
      <trkpt lat="45.99785" lon="4.54981">
        <ele>659.4</ele>
        <time>1970-01-01T01:26:48.000Z</time>
      </trkpt>
      <trkpt lat="45.99785" lon="4.54981">
        <ele>659.4</ele>
        <time>1970-01-01T01:26:49.000Z</time>
      </trkpt>
      <trkpt lat="45.99785" lon="4.54981">
        <ele>659.4</ele>
        <time>1970-01-01T01:26:50.000Z</time>
      </trkpt>
      <trkpt lat="45.99785" lon="4.54978">
        <ele>659.8</ele>
        <time>1970-01-01T01:26:51.000Z</time>
      </trkpt>
      <trkpt lat="45.99785" lon="4.54978">
        <ele>659.8</ele>
        <time>1970-01-01T01:26:52.000Z</time>
      </trkpt>
      <trkpt lat="45.99785" lon="4.54975">
        <ele>660.1</ele>
        <time>1970-01-01T01:26:53.000Z</time>
      </trkpt>
      <trkpt lat="45.99785" lon="4.54975">
        <ele>660.1</ele>
        <time>1970-01-01T01:26:54.000Z</time>
      </trkpt>
      <trkpt lat="45.99785" lon="4.54972">
        <ele>660.4</ele>
        <time>1970-01-01T01:26:55.000Z</time>
      </trkpt>
      <trkpt lat="45.99785" lon="4.54972">
        <ele>660.4</ele>
        <time>1970-01-01T01:26:56.000Z</time>
      </trkpt>
      <trkpt lat="45.99785" lon="4.54969">
        <ele>660.7</ele>
        <time>1970-01-01T01:26:57.000Z</time>
      </trkpt>
      <trkpt lat="45.99785" lon="4.54969">
        <ele>660.7</ele>
        <time>1970-01-01T01:26:58.000Z</time>
      </trkpt>
      <trkpt lat="45.99785" lon="4.54966">
        <ele>661</ele>
        <time>1970-01-01T01:26:59.000Z</time>
      </trkpt>
      <trkpt lat="45.99785" lon="4.54966">
        <ele>661</ele>
        <time>1970-01-01T01:27:00.000Z</time>
      </trkpt>
      <trkpt lat="45.99786" lon="4.54963">
        <ele>661.3</ele>
        <time>1970-01-01T01:27:01.000Z</time>
      </trkpt>
      <trkpt lat="45.99786" lon="4.54963">
        <ele>661.3</ele>
        <time>1970-01-01T01:27:02.000Z</time>
      </trkpt>
      <trkpt lat="45.99785" lon="4.5496">
        <ele>661.7</ele>
        <time>1970-01-01T01:27:03.000Z</time>
      </trkpt>
      <trkpt lat="45.99785" lon="4.5496">
        <ele>661.7</ele>
        <time>1970-01-01T01:27:04.000Z</time>
      </trkpt>
      <trkpt lat="45.99785" lon="4.54957">
        <ele>662</ele>
        <time>1970-01-01T01:27:05.000Z</time>
      </trkpt>
      <trkpt lat="45.99785" lon="4.54957">
        <ele>662</ele>
        <time>1970-01-01T01:27:06.000Z</time>
      </trkpt>
      <trkpt lat="45.99785" lon="4.54954">
        <ele>662.4</ele>
        <time>1970-01-01T01:27:07.000Z</time>
      </trkpt>
      <trkpt lat="45.99785" lon="4.54954">
        <ele>662.4</ele>
        <time>1970-01-01T01:27:08.000Z</time>
      </trkpt>
      <trkpt lat="45.99785" lon="4.5495">
        <ele>662.8</ele>
        <time>1970-01-01T01:27:09.000Z</time>
      </trkpt>
      <trkpt lat="45.99785" lon="4.5495">
        <ele>662.8</ele>
        <time>1970-01-01T01:27:10.000Z</time>
      </trkpt>
      <trkpt lat="45.99785" lon="4.54947">
        <ele>663.1</ele>
        <time>1970-01-01T01:27:11.000Z</time>
      </trkpt>
      <trkpt lat="45.99785" lon="4.54947">
        <ele>663.1</ele>
        <time>1970-01-01T01:27:12.000Z</time>
      </trkpt>
      <trkpt lat="45.99785" lon="4.54945">
        <ele>663.4</ele>
        <time>1970-01-01T01:27:13.000Z</time>
      </trkpt>
      <trkpt lat="45.99785" lon="4.54945">
        <ele>663.4</ele>
        <time>1970-01-01T01:27:14.000Z</time>
      </trkpt>
      <trkpt lat="45.99786" lon="4.54942">
        <ele>663.7</ele>
        <time>1970-01-01T01:27:15.000Z</time>
      </trkpt>
      <trkpt lat="45.99786" lon="4.54942">
        <ele>663.7</ele>
        <time>1970-01-01T01:27:16.000Z</time>
      </trkpt>
      <trkpt lat="45.99786" lon="4.54939">
        <ele>664</ele>
        <time>1970-01-01T01:27:17.000Z</time>
      </trkpt>
      <trkpt lat="45.99786" lon="4.54939">
        <ele>664</ele>
        <time>1970-01-01T01:27:18.000Z</time>
      </trkpt>
      <trkpt lat="45.99786" lon="4.54939">
        <ele>663.9</ele>
        <time>1970-01-01T01:27:19.000Z</time>
      </trkpt>
      <trkpt lat="45.99787" lon="4.54936">
        <ele>664.3</ele>
        <time>1970-01-01T01:27:20.000Z</time>
      </trkpt>
      <trkpt lat="45.99787" lon="4.54936">
        <ele>664.3</ele>
        <time>1970-01-01T01:27:21.000Z</time>
      </trkpt>
      <trkpt lat="45.99786" lon="4.54933">
        <ele>664.7</ele>
        <time>1970-01-01T01:27:22.000Z</time>
      </trkpt>
      <trkpt lat="45.99786" lon="4.54933">
        <ele>664.7</ele>
        <time>1970-01-01T01:27:23.000Z</time>
      </trkpt>
      <trkpt lat="45.99786" lon="4.5493">
        <ele>665</ele>
        <time>1970-01-01T01:27:24.000Z</time>
      </trkpt>
      <trkpt lat="45.99786" lon="4.5493">
        <ele>665</ele>
        <time>1970-01-01T01:27:25.000Z</time>
      </trkpt>
      <trkpt lat="45.99786" lon="4.5493">
        <ele>665</ele>
        <time>1970-01-01T01:27:26.000Z</time>
      </trkpt>
      <trkpt lat="45.99785" lon="4.54926">
        <ele>665.5</ele>
        <time>1970-01-01T01:27:27.000Z</time>
      </trkpt>
      <trkpt lat="45.99785" lon="4.54926">
        <ele>665.5</ele>
        <time>1970-01-01T01:27:28.000Z</time>
      </trkpt>
      <trkpt lat="45.99784" lon="4.54924">
        <ele>665.8</ele>
        <time>1970-01-01T01:27:29.000Z</time>
      </trkpt>
      <trkpt lat="45.99784" lon="4.54924">
        <ele>665.8</ele>
        <time>1970-01-01T01:27:30.000Z</time>
      </trkpt>
      <trkpt lat="45.99784" lon="4.54924">
        <ele>665.8</ele>
        <time>1970-01-01T01:27:31.000Z</time>
      </trkpt>
      <trkpt lat="45.99784" lon="4.5492">
        <ele>666.1</ele>
        <time>1970-01-01T01:27:32.000Z</time>
      </trkpt>
      <trkpt lat="45.99784" lon="4.5492">
        <ele>666.1</ele>
        <time>1970-01-01T01:27:33.000Z</time>
      </trkpt>
      <trkpt lat="45.99784" lon="4.54918">
        <ele>666.5</ele>
        <time>1970-01-01T01:27:34.000Z</time>
      </trkpt>
      <trkpt lat="45.99784" lon="4.54918">
        <ele>666.5</ele>
        <time>1970-01-01T01:27:35.000Z</time>
      </trkpt>
      <trkpt lat="45.99785" lon="4.54915">
        <ele>666.8</ele>
        <time>1970-01-01T01:27:36.000Z</time>
      </trkpt>
      <trkpt lat="45.99785" lon="4.54915">
        <ele>666.8</ele>
        <time>1970-01-01T01:27:37.000Z</time>
      </trkpt>
      <trkpt lat="45.99784" lon="4.54912">
        <ele>667.1</ele>
        <time>1970-01-01T01:27:38.000Z</time>
      </trkpt>
      <trkpt lat="45.99784" lon="4.54912">
        <ele>667.1</ele>
        <time>1970-01-01T01:27:39.000Z</time>
      </trkpt>
      <trkpt lat="45.99784" lon="4.54912">
        <ele>667.1</ele>
        <time>1970-01-01T01:27:40.000Z</time>
      </trkpt>
      <trkpt lat="45.99783" lon="4.54909">
        <ele>667.6</ele>
        <time>1970-01-01T01:27:41.000Z</time>
      </trkpt>
      <trkpt lat="45.99783" lon="4.54909">
        <ele>667.6</ele>
        <time>1970-01-01T01:27:42.000Z</time>
      </trkpt>
      <trkpt lat="45.99783" lon="4.54906">
        <ele>667.9</ele>
        <time>1970-01-01T01:27:43.000Z</time>
      </trkpt>
      <trkpt lat="45.99783" lon="4.54906">
        <ele>667.9</ele>
        <time>1970-01-01T01:27:44.000Z</time>
      </trkpt>
      <trkpt lat="45.99783" lon="4.54903">
        <ele>668.2</ele>
        <time>1970-01-01T01:27:45.000Z</time>
      </trkpt>
      <trkpt lat="45.99783" lon="4.54903">
        <ele>668.2</ele>
        <time>1970-01-01T01:27:46.000Z</time>
      </trkpt>
      <trkpt lat="45.99783" lon="4.549">
        <ele>668.6</ele>
        <time>1970-01-01T01:27:47.000Z</time>
      </trkpt>
      <trkpt lat="45.99783" lon="4.549">
        <ele>668.6</ele>
        <time>1970-01-01T01:27:48.000Z</time>
      </trkpt>
      <trkpt lat="45.99783" lon="4.549">
        <ele>668.6</ele>
        <time>1970-01-01T01:27:49.000Z</time>
      </trkpt>
      <trkpt lat="45.99783" lon="4.54897">
        <ele>669</ele>
        <time>1970-01-01T01:27:50.000Z</time>
      </trkpt>
      <trkpt lat="45.99783" lon="4.54897">
        <ele>669</ele>
        <time>1970-01-01T01:27:51.000Z</time>
      </trkpt>
      <trkpt lat="45.99783" lon="4.54897">
        <ele>669</ele>
        <time>1970-01-01T01:27:52.000Z</time>
      </trkpt>
      <trkpt lat="45.99783" lon="4.54893">
        <ele>669.4</ele>
        <time>1970-01-01T01:27:53.000Z</time>
      </trkpt>
      <trkpt lat="45.99783" lon="4.54893">
        <ele>669.4</ele>
        <time>1970-01-01T01:27:54.000Z</time>
      </trkpt>
      <trkpt lat="45.99781" lon="4.54891">
        <ele>669.7</ele>
        <time>1970-01-01T01:27:55.000Z</time>
      </trkpt>
      <trkpt lat="45.99781" lon="4.54891">
        <ele>669.7</ele>
        <time>1970-01-01T01:27:56.000Z</time>
      </trkpt>
      <trkpt lat="45.99781" lon="4.54888">
        <ele>670.1</ele>
        <time>1970-01-01T01:27:57.000Z</time>
      </trkpt>
      <trkpt lat="45.99781" lon="4.54888">
        <ele>670.1</ele>
        <time>1970-01-01T01:27:58.000Z</time>
      </trkpt>
      <trkpt lat="45.99781" lon="4.54884">
        <ele>670.5</ele>
        <time>1970-01-01T01:27:59.000Z</time>
      </trkpt>
      <trkpt lat="45.99781" lon="4.54884">
        <ele>670.5</ele>
        <time>1970-01-01T01:28:00.000Z</time>
      </trkpt>
      <trkpt lat="45.99781" lon="4.54881">
        <ele>670.8</ele>
        <time>1970-01-01T01:28:01.000Z</time>
      </trkpt>
      <trkpt lat="45.99781" lon="4.54881">
        <ele>670.8</ele>
        <time>1970-01-01T01:28:02.000Z</time>
      </trkpt>
      <trkpt lat="45.9978" lon="4.54878">
        <ele>671.1</ele>
        <time>1970-01-01T01:28:03.000Z</time>
      </trkpt>
      <trkpt lat="45.9978" lon="4.54878">
        <ele>671.1</ele>
        <time>1970-01-01T01:28:04.000Z</time>
      </trkpt>
      <trkpt lat="45.9978" lon="4.54875">
        <ele>671.4</ele>
        <time>1970-01-01T01:28:05.000Z</time>
      </trkpt>
      <trkpt lat="45.9978" lon="4.54875">
        <ele>671.4</ele>
        <time>1970-01-01T01:28:06.000Z</time>
      </trkpt>
      <trkpt lat="45.9978" lon="4.54873">
        <ele>671.6</ele>
        <time>1970-01-01T01:28:07.000Z</time>
      </trkpt>
      <trkpt lat="45.9978" lon="4.54873">
        <ele>671.6</ele>
        <time>1970-01-01T01:28:08.000Z</time>
      </trkpt>
      <trkpt lat="45.9978" lon="4.54873">
        <ele>671.6</ele>
        <time>1970-01-01T01:28:09.000Z</time>
      </trkpt>
      <trkpt lat="45.9978" lon="4.54869">
        <ele>672</ele>
        <time>1970-01-01T01:28:10.000Z</time>
      </trkpt>
      <trkpt lat="45.9978" lon="4.54869">
        <ele>672</ele>
        <time>1970-01-01T01:28:11.000Z</time>
      </trkpt>
      <trkpt lat="45.99779" lon="4.54866">
        <ele>672.3</ele>
        <time>1970-01-01T01:28:12.000Z</time>
      </trkpt>
      <trkpt lat="45.99779" lon="4.54866">
        <ele>672.3</ele>
        <time>1970-01-01T01:28:13.000Z</time>
      </trkpt>
      <trkpt lat="45.99778" lon="4.54863">
        <ele>672.6</ele>
        <time>1970-01-01T01:28:14.000Z</time>
      </trkpt>
      <trkpt lat="45.99778" lon="4.54863">
        <ele>672.6</ele>
        <time>1970-01-01T01:28:15.000Z</time>
      </trkpt>
      <trkpt lat="45.99777" lon="4.5486">
        <ele>672.9</ele>
        <time>1970-01-01T01:28:16.000Z</time>
      </trkpt>
      <trkpt lat="45.99777" lon="4.5486">
        <ele>672.9</ele>
        <time>1970-01-01T01:28:17.000Z</time>
      </trkpt>
      <trkpt lat="45.99776" lon="4.54857">
        <ele>673.2</ele>
        <time>1970-01-01T01:28:18.000Z</time>
      </trkpt>
      <trkpt lat="45.99776" lon="4.54857">
        <ele>673.2</ele>
        <time>1970-01-01T01:28:19.000Z</time>
      </trkpt>
      <trkpt lat="45.99776" lon="4.54853">
        <ele>673.5</ele>
        <time>1970-01-01T01:28:20.000Z</time>
      </trkpt>
      <trkpt lat="45.99776" lon="4.54853">
        <ele>673.5</ele>
        <time>1970-01-01T01:28:21.000Z</time>
      </trkpt>
      <trkpt lat="45.99777" lon="4.5485">
        <ele>673.8</ele>
        <time>1970-01-01T01:28:22.000Z</time>
      </trkpt>
      <trkpt lat="45.99777" lon="4.5485">
        <ele>673.8</ele>
        <time>1970-01-01T01:28:23.000Z</time>
      </trkpt>
      <trkpt lat="45.99779" lon="4.54847">
        <ele>674.1</ele>
        <time>1970-01-01T01:28:24.000Z</time>
      </trkpt>
      <trkpt lat="45.99779" lon="4.54847">
        <ele>674.1</ele>
        <time>1970-01-01T01:28:25.000Z</time>
      </trkpt>
      <trkpt lat="45.9978" lon="4.54844">
        <ele>674.3</ele>
        <time>1970-01-01T01:28:26.000Z</time>
      </trkpt>
      <trkpt lat="45.9978" lon="4.54844">
        <ele>674.3</ele>
        <time>1970-01-01T01:28:27.000Z</time>
      </trkpt>
      <trkpt lat="45.99782" lon="4.54842">
        <ele>674.6</ele>
        <time>1970-01-01T01:28:28.000Z</time>
      </trkpt>
      <trkpt lat="45.99782" lon="4.54842">
        <ele>674.6</ele>
        <time>1970-01-01T01:28:29.000Z</time>
      </trkpt>
      <trkpt lat="45.99783" lon="4.54839">
        <ele>674.8</ele>
        <time>1970-01-01T01:28:30.000Z</time>
      </trkpt>
      <trkpt lat="45.99783" lon="4.54839">
        <ele>674.8</ele>
        <time>1970-01-01T01:28:31.000Z</time>
      </trkpt>
      <trkpt lat="45.99784" lon="4.54837">
        <ele>675</ele>
        <time>1970-01-01T01:28:32.000Z</time>
      </trkpt>
      <trkpt lat="45.99784" lon="4.54837">
        <ele>675</ele>
        <time>1970-01-01T01:28:33.000Z</time>
      </trkpt>
      <trkpt lat="45.99785" lon="4.54834">
        <ele>675.2</ele>
        <time>1970-01-01T01:28:34.000Z</time>
      </trkpt>
      <trkpt lat="45.99785" lon="4.54834">
        <ele>675.2</ele>
        <time>1970-01-01T01:28:35.000Z</time>
      </trkpt>
      <trkpt lat="45.99787" lon="4.54832">
        <ele>675.4</ele>
        <time>1970-01-01T01:28:36.000Z</time>
      </trkpt>
      <trkpt lat="45.99787" lon="4.54832">
        <ele>675.4</ele>
        <time>1970-01-01T01:28:37.000Z</time>
      </trkpt>
      <trkpt lat="45.99788" lon="4.5483">
        <ele>675.6</ele>
        <time>1970-01-01T01:28:38.000Z</time>
      </trkpt>
      <trkpt lat="45.99788" lon="4.5483">
        <ele>675.6</ele>
        <time>1970-01-01T01:28:39.000Z</time>
      </trkpt>
      <trkpt lat="45.99788" lon="4.5483">
        <ele>675.6</ele>
        <time>1970-01-01T01:28:40.000Z</time>
      </trkpt>
      <trkpt lat="45.99789" lon="4.54827">
        <ele>675.9</ele>
        <time>1970-01-01T01:28:41.000Z</time>
      </trkpt>
      <trkpt lat="45.99789" lon="4.54827">
        <ele>675.9</ele>
        <time>1970-01-01T01:28:42.000Z</time>
      </trkpt>
      <trkpt lat="45.99791" lon="4.54824">
        <ele>676.1</ele>
        <time>1970-01-01T01:28:43.000Z</time>
      </trkpt>
      <trkpt lat="45.99791" lon="4.54824">
        <ele>676.1</ele>
        <time>1970-01-01T01:28:44.000Z</time>
      </trkpt>
      <trkpt lat="45.99792" lon="4.54821">
        <ele>676.4</ele>
        <time>1970-01-01T01:28:45.000Z</time>
      </trkpt>
      <trkpt lat="45.99792" lon="4.54821">
        <ele>676.4</ele>
        <time>1970-01-01T01:28:46.000Z</time>
      </trkpt>
      <trkpt lat="45.99794" lon="4.54818">
        <ele>676.6</ele>
        <time>1970-01-01T01:28:47.000Z</time>
      </trkpt>
      <trkpt lat="45.99794" lon="4.54818">
        <ele>676.6</ele>
        <time>1970-01-01T01:28:48.000Z</time>
      </trkpt>
      <trkpt lat="45.99795" lon="4.54816">
        <ele>676.8</ele>
        <time>1970-01-01T01:28:49.000Z</time>
      </trkpt>
      <trkpt lat="45.99795" lon="4.54816">
        <ele>676.8</ele>
        <time>1970-01-01T01:28:50.000Z</time>
      </trkpt>
      <trkpt lat="45.99796" lon="4.54813">
        <ele>677.1</ele>
        <time>1970-01-01T01:28:51.000Z</time>
      </trkpt>
      <trkpt lat="45.99796" lon="4.54813">
        <ele>677.1</ele>
        <time>1970-01-01T01:28:52.000Z</time>
      </trkpt>
      <trkpt lat="45.99798" lon="4.54811">
        <ele>677.3</ele>
        <time>1970-01-01T01:28:53.000Z</time>
      </trkpt>
      <trkpt lat="45.99798" lon="4.54811">
        <ele>677.3</ele>
        <time>1970-01-01T01:28:54.000Z</time>
      </trkpt>
      <trkpt lat="45.99799" lon="4.54808">
        <ele>677.6</ele>
        <time>1970-01-01T01:28:55.000Z</time>
      </trkpt>
      <trkpt lat="45.99799" lon="4.54808">
        <ele>677.6</ele>
        <time>1970-01-01T01:28:56.000Z</time>
      </trkpt>
      <trkpt lat="45.99801" lon="4.54805">
        <ele>677.8</ele>
        <time>1970-01-01T01:28:57.000Z</time>
      </trkpt>
      <trkpt lat="45.99801" lon="4.54805">
        <ele>677.8</ele>
        <time>1970-01-01T01:28:58.000Z</time>
      </trkpt>
      <trkpt lat="45.99802" lon="4.54803">
        <ele>678.1</ele>
        <time>1970-01-01T01:28:59.000Z</time>
      </trkpt>
      <trkpt lat="45.99802" lon="4.54803">
        <ele>678.1</ele>
        <time>1970-01-01T01:29:00.000Z</time>
      </trkpt>
      <trkpt lat="45.99804" lon="4.54801">
        <ele>678.3</ele>
        <time>1970-01-01T01:29:01.000Z</time>
      </trkpt>
      <trkpt lat="45.99804" lon="4.54801">
        <ele>678.3</ele>
        <time>1970-01-01T01:29:02.000Z</time>
      </trkpt>
      <trkpt lat="45.99806" lon="4.54799">
        <ele>678.6</ele>
        <time>1970-01-01T01:29:03.000Z</time>
      </trkpt>
      <trkpt lat="45.99806" lon="4.54799">
        <ele>678.6</ele>
        <time>1970-01-01T01:29:04.000Z</time>
      </trkpt>
      <trkpt lat="45.99807" lon="4.54796">
        <ele>678.9</ele>
        <time>1970-01-01T01:29:05.000Z</time>
      </trkpt>
      <trkpt lat="45.99807" lon="4.54796">
        <ele>678.9</ele>
        <time>1970-01-01T01:29:06.000Z</time>
      </trkpt>
      <trkpt lat="45.99809" lon="4.54794">
        <ele>679.2</ele>
        <time>1970-01-01T01:29:07.000Z</time>
      </trkpt>
      <trkpt lat="45.99809" lon="4.54794">
        <ele>679.2</ele>
        <time>1970-01-01T01:29:08.000Z</time>
      </trkpt>
      <trkpt lat="45.9981" lon="4.54791">
        <ele>679.4</ele>
        <time>1970-01-01T01:29:09.000Z</time>
      </trkpt>
      <trkpt lat="45.9981" lon="4.54791">
        <ele>679.4</ele>
        <time>1970-01-01T01:29:10.000Z</time>
      </trkpt>
      <trkpt lat="45.99812" lon="4.54788">
        <ele>679.8</ele>
        <time>1970-01-01T01:29:11.000Z</time>
      </trkpt>
      <trkpt lat="45.99812" lon="4.54788">
        <ele>679.8</ele>
        <time>1970-01-01T01:29:12.000Z</time>
      </trkpt>
      <trkpt lat="45.99814" lon="4.54786">
        <ele>680</ele>
        <time>1970-01-01T01:29:13.000Z</time>
      </trkpt>
      <trkpt lat="45.99814" lon="4.54786">
        <ele>680</ele>
        <time>1970-01-01T01:29:14.000Z</time>
      </trkpt>
      <trkpt lat="45.99815" lon="4.54783">
        <ele>680.3</ele>
        <time>1970-01-01T01:29:15.000Z</time>
      </trkpt>
      <trkpt lat="45.99815" lon="4.54783">
        <ele>680.3</ele>
        <time>1970-01-01T01:29:16.000Z</time>
      </trkpt>
      <trkpt lat="45.99816" lon="4.5478">
        <ele>680.6</ele>
        <time>1970-01-01T01:29:17.000Z</time>
      </trkpt>
      <trkpt lat="45.99816" lon="4.5478">
        <ele>680.6</ele>
        <time>1970-01-01T01:29:18.000Z</time>
      </trkpt>
      <trkpt lat="45.99818" lon="4.54778">
        <ele>680.9</ele>
        <time>1970-01-01T01:29:19.000Z</time>
      </trkpt>
      <trkpt lat="45.99818" lon="4.54778">
        <ele>680.9</ele>
        <time>1970-01-01T01:29:20.000Z</time>
      </trkpt>
      <trkpt lat="45.99819" lon="4.54775">
        <ele>681.2</ele>
        <time>1970-01-01T01:29:21.000Z</time>
      </trkpt>
      <trkpt lat="45.99819" lon="4.54775">
        <ele>681.2</ele>
        <time>1970-01-01T01:29:22.000Z</time>
      </trkpt>
      <trkpt lat="45.9982" lon="4.54772">
        <ele>681.4</ele>
        <time>1970-01-01T01:29:23.000Z</time>
      </trkpt>
      <trkpt lat="45.9982" lon="4.54772">
        <ele>681.4</ele>
        <time>1970-01-01T01:29:24.000Z</time>
      </trkpt>
      <trkpt lat="45.99821" lon="4.54769">
        <ele>681.7</ele>
        <time>1970-01-01T01:29:25.000Z</time>
      </trkpt>
      <trkpt lat="45.99821" lon="4.54769">
        <ele>681.7</ele>
        <time>1970-01-01T01:29:26.000Z</time>
      </trkpt>
      <trkpt lat="45.99821" lon="4.54765">
        <ele>682</ele>
        <time>1970-01-01T01:29:27.000Z</time>
      </trkpt>
      <trkpt lat="45.99821" lon="4.54765">
        <ele>682</ele>
        <time>1970-01-01T01:29:28.000Z</time>
      </trkpt>
      <trkpt lat="45.99822" lon="4.54762">
        <ele>682.4</ele>
        <time>1970-01-01T01:29:29.000Z</time>
      </trkpt>
      <trkpt lat="45.99822" lon="4.54762">
        <ele>682.4</ele>
        <time>1970-01-01T01:29:30.000Z</time>
      </trkpt>
      <trkpt lat="45.99823" lon="4.54758">
        <ele>682.7</ele>
        <time>1970-01-01T01:29:31.000Z</time>
      </trkpt>
      <trkpt lat="45.99823" lon="4.54758">
        <ele>682.7</ele>
        <time>1970-01-01T01:29:32.000Z</time>
      </trkpt>
      <trkpt lat="45.99823" lon="4.54755">
        <ele>683</ele>
        <time>1970-01-01T01:29:33.000Z</time>
      </trkpt>
      <trkpt lat="45.99823" lon="4.54755">
        <ele>683</ele>
        <time>1970-01-01T01:29:34.000Z</time>
      </trkpt>
      <trkpt lat="45.99823" lon="4.54752">
        <ele>683.2</ele>
        <time>1970-01-01T01:29:35.000Z</time>
      </trkpt>
      <trkpt lat="45.99823" lon="4.54752">
        <ele>683.2</ele>
        <time>1970-01-01T01:29:36.000Z</time>
      </trkpt>
      <trkpt lat="45.99824" lon="4.54749">
        <ele>683.5</ele>
        <time>1970-01-01T01:29:37.000Z</time>
      </trkpt>
      <trkpt lat="45.99824" lon="4.54749">
        <ele>683.5</ele>
        <time>1970-01-01T01:29:38.000Z</time>
      </trkpt>
      <trkpt lat="45.99825" lon="4.54746">
        <ele>683.8</ele>
        <time>1970-01-01T01:29:39.000Z</time>
      </trkpt>
      <trkpt lat="45.99825" lon="4.54746">
        <ele>683.8</ele>
        <time>1970-01-01T01:29:40.000Z</time>
      </trkpt>
      <trkpt lat="45.99825" lon="4.54743">
        <ele>684</ele>
        <time>1970-01-01T01:29:41.000Z</time>
      </trkpt>
      <trkpt lat="45.99825" lon="4.54743">
        <ele>684</ele>
        <time>1970-01-01T01:29:42.000Z</time>
      </trkpt>
      <trkpt lat="45.99825" lon="4.5474">
        <ele>684.3</ele>
        <time>1970-01-01T01:29:43.000Z</time>
      </trkpt>
      <trkpt lat="45.99825" lon="4.5474">
        <ele>684.3</ele>
        <time>1970-01-01T01:29:44.000Z</time>
      </trkpt>
      <trkpt lat="45.99826" lon="4.54737">
        <ele>684.5</ele>
        <time>1970-01-01T01:29:45.000Z</time>
      </trkpt>
      <trkpt lat="45.99826" lon="4.54737">
        <ele>684.5</ele>
        <time>1970-01-01T01:29:46.000Z</time>
      </trkpt>
      <trkpt lat="45.99826" lon="4.54734">
        <ele>684.8</ele>
        <time>1970-01-01T01:29:47.000Z</time>
      </trkpt>
      <trkpt lat="45.99826" lon="4.54734">
        <ele>684.8</ele>
        <time>1970-01-01T01:29:48.000Z</time>
      </trkpt>
      <trkpt lat="45.99827" lon="4.54731">
        <ele>685</ele>
        <time>1970-01-01T01:29:49.000Z</time>
      </trkpt>
      <trkpt lat="45.99827" lon="4.54731">
        <ele>685</ele>
        <time>1970-01-01T01:29:50.000Z</time>
      </trkpt>
      <trkpt lat="45.99827" lon="4.54727">
        <ele>685.3</ele>
        <time>1970-01-01T01:29:51.000Z</time>
      </trkpt>
      <trkpt lat="45.99827" lon="4.54727">
        <ele>685.3</ele>
        <time>1970-01-01T01:29:52.000Z</time>
      </trkpt>
      <trkpt lat="45.99828" lon="4.54724">
        <ele>685.5</ele>
        <time>1970-01-01T01:29:53.000Z</time>
      </trkpt>
      <trkpt lat="45.99828" lon="4.54724">
        <ele>685.5</ele>
        <time>1970-01-01T01:29:54.000Z</time>
      </trkpt>
      <trkpt lat="45.99828" lon="4.54721">
        <ele>685.8</ele>
        <time>1970-01-01T01:29:55.000Z</time>
      </trkpt>
      <trkpt lat="45.99828" lon="4.54721">
        <ele>685.8</ele>
        <time>1970-01-01T01:29:56.000Z</time>
      </trkpt>
      <trkpt lat="45.99829" lon="4.54718">
        <ele>686</ele>
        <time>1970-01-01T01:29:57.000Z</time>
      </trkpt>
      <trkpt lat="45.99829" lon="4.54718">
        <ele>686</ele>
        <time>1970-01-01T01:29:58.000Z</time>
      </trkpt>
      <trkpt lat="45.9983" lon="4.54715">
        <ele>686.2</ele>
        <time>1970-01-01T01:29:59.000Z</time>
      </trkpt>
      <trkpt lat="45.9983" lon="4.54715">
        <ele>686.2</ele>
        <time>1970-01-01T01:30:00.000Z</time>
      </trkpt>
      <trkpt lat="45.99831" lon="4.54712">
        <ele>686.4</ele>
        <time>1970-01-01T01:30:01.000Z</time>
      </trkpt>
      <trkpt lat="45.99831" lon="4.54712">
        <ele>686.4</ele>
        <time>1970-01-01T01:30:02.000Z</time>
      </trkpt>
      <trkpt lat="45.99831" lon="4.54709">
        <ele>686.6</ele>
        <time>1970-01-01T01:30:03.000Z</time>
      </trkpt>
      <trkpt lat="45.99831" lon="4.54709">
        <ele>686.6</ele>
        <time>1970-01-01T01:30:04.000Z</time>
      </trkpt>
      <trkpt lat="45.99831" lon="4.54705">
        <ele>686.8</ele>
        <time>1970-01-01T01:30:05.000Z</time>
      </trkpt>
      <trkpt lat="45.99831" lon="4.54705">
        <ele>686.8</ele>
        <time>1970-01-01T01:30:06.000Z</time>
      </trkpt>
      <trkpt lat="45.99831" lon="4.54702">
        <ele>687</ele>
        <time>1970-01-01T01:30:07.000Z</time>
      </trkpt>
      <trkpt lat="45.99831" lon="4.54702">
        <ele>687</ele>
        <time>1970-01-01T01:30:08.000Z</time>
      </trkpt>
      <trkpt lat="45.99831" lon="4.54699">
        <ele>687.2</ele>
        <time>1970-01-01T01:30:09.000Z</time>
      </trkpt>
      <trkpt lat="45.99831" lon="4.54699">
        <ele>687.2</ele>
        <time>1970-01-01T01:30:10.000Z</time>
      </trkpt>
      <trkpt lat="45.99831" lon="4.54695">
        <ele>687.4</ele>
        <time>1970-01-01T01:30:11.000Z</time>
      </trkpt>
      <trkpt lat="45.99831" lon="4.54695">
        <ele>687.4</ele>
        <time>1970-01-01T01:30:12.000Z</time>
      </trkpt>
      <trkpt lat="45.99831" lon="4.54692">
        <ele>687.5</ele>
        <time>1970-01-01T01:30:13.000Z</time>
      </trkpt>
      <trkpt lat="45.99831" lon="4.54692">
        <ele>687.5</ele>
        <time>1970-01-01T01:30:14.000Z</time>
      </trkpt>
      <trkpt lat="45.99831" lon="4.54689">
        <ele>687.7</ele>
        <time>1970-01-01T01:30:15.000Z</time>
      </trkpt>
      <trkpt lat="45.99831" lon="4.54689">
        <ele>687.7</ele>
        <time>1970-01-01T01:30:16.000Z</time>
      </trkpt>
      <trkpt lat="45.99831" lon="4.54685">
        <ele>688</ele>
        <time>1970-01-01T01:30:17.000Z</time>
      </trkpt>
      <trkpt lat="45.99831" lon="4.54685">
        <ele>688</ele>
        <time>1970-01-01T01:30:18.000Z</time>
      </trkpt>
      <trkpt lat="45.99831" lon="4.54682">
        <ele>688.2</ele>
        <time>1970-01-01T01:30:19.000Z</time>
      </trkpt>
      <trkpt lat="45.99831" lon="4.54682">
        <ele>688.2</ele>
        <time>1970-01-01T01:30:20.000Z</time>
      </trkpt>
      <trkpt lat="45.99831" lon="4.54678">
        <ele>688.4</ele>
        <time>1970-01-01T01:30:21.000Z</time>
      </trkpt>
      <trkpt lat="45.99831" lon="4.54678">
        <ele>688.4</ele>
        <time>1970-01-01T01:30:22.000Z</time>
      </trkpt>
      <trkpt lat="45.99831" lon="4.54674">
        <ele>688.7</ele>
        <time>1970-01-01T01:30:23.000Z</time>
      </trkpt>
      <trkpt lat="45.99831" lon="4.54674">
        <ele>688.7</ele>
        <time>1970-01-01T01:30:24.000Z</time>
      </trkpt>
      <trkpt lat="45.99832" lon="4.54671">
        <ele>688.9</ele>
        <time>1970-01-01T01:30:25.000Z</time>
      </trkpt>
      <trkpt lat="45.99832" lon="4.54671">
        <ele>688.9</ele>
        <time>1970-01-01T01:30:26.000Z</time>
      </trkpt>
      <trkpt lat="45.99832" lon="4.54667">
        <ele>689.1</ele>
        <time>1970-01-01T01:30:27.000Z</time>
      </trkpt>
      <trkpt lat="45.99832" lon="4.54667">
        <ele>689.1</ele>
        <time>1970-01-01T01:30:28.000Z</time>
      </trkpt>
      <trkpt lat="45.99832" lon="4.54664">
        <ele>689.4</ele>
        <time>1970-01-01T01:30:29.000Z</time>
      </trkpt>
      <trkpt lat="45.99832" lon="4.54664">
        <ele>689.4</ele>
        <time>1970-01-01T01:30:30.000Z</time>
      </trkpt>
      <trkpt lat="45.99832" lon="4.5466">
        <ele>689.7</ele>
        <time>1970-01-01T01:30:31.000Z</time>
      </trkpt>
      <trkpt lat="45.99832" lon="4.5466">
        <ele>689.7</ele>
        <time>1970-01-01T01:30:32.000Z</time>
      </trkpt>
      <trkpt lat="45.99833" lon="4.54657">
        <ele>690</ele>
        <time>1970-01-01T01:30:33.000Z</time>
      </trkpt>
      <trkpt lat="45.99833" lon="4.54657">
        <ele>690</ele>
        <time>1970-01-01T01:30:34.000Z</time>
      </trkpt>
      <trkpt lat="45.99834" lon="4.54653">
        <ele>690.3</ele>
        <time>1970-01-01T01:30:35.000Z</time>
      </trkpt>
      <trkpt lat="45.99834" lon="4.54653">
        <ele>690.3</ele>
        <time>1970-01-01T01:30:36.000Z</time>
      </trkpt>
      <trkpt lat="45.99834" lon="4.5465">
        <ele>690.6</ele>
        <time>1970-01-01T01:30:37.000Z</time>
      </trkpt>
      <trkpt lat="45.99834" lon="4.5465">
        <ele>690.6</ele>
        <time>1970-01-01T01:30:38.000Z</time>
      </trkpt>
      <trkpt lat="45.99836" lon="4.54646">
        <ele>690.9</ele>
        <time>1970-01-01T01:30:39.000Z</time>
      </trkpt>
      <trkpt lat="45.99836" lon="4.54646">
        <ele>690.9</ele>
        <time>1970-01-01T01:30:40.000Z</time>
      </trkpt>
      <trkpt lat="45.99837" lon="4.54643">
        <ele>691.2</ele>
        <time>1970-01-01T01:30:41.000Z</time>
      </trkpt>
      <trkpt lat="45.99837" lon="4.54643">
        <ele>691.2</ele>
        <time>1970-01-01T01:30:42.000Z</time>
      </trkpt>
      <trkpt lat="45.99837" lon="4.5464">
        <ele>691.5</ele>
        <time>1970-01-01T01:30:43.000Z</time>
      </trkpt>
      <trkpt lat="45.99837" lon="4.5464">
        <ele>691.5</ele>
        <time>1970-01-01T01:30:44.000Z</time>
      </trkpt>
      <trkpt lat="45.99838" lon="4.54636">
        <ele>691.8</ele>
        <time>1970-01-01T01:30:45.000Z</time>
      </trkpt>
      <trkpt lat="45.99838" lon="4.54636">
        <ele>691.8</ele>
        <time>1970-01-01T01:30:46.000Z</time>
      </trkpt>
      <trkpt lat="45.99838" lon="4.54632">
        <ele>692.2</ele>
        <time>1970-01-01T01:30:47.000Z</time>
      </trkpt>
      <trkpt lat="45.99838" lon="4.54632">
        <ele>692.2</ele>
        <time>1970-01-01T01:30:48.000Z</time>
      </trkpt>
      <trkpt lat="45.99838" lon="4.54629">
        <ele>692.4</ele>
        <time>1970-01-01T01:30:49.000Z</time>
      </trkpt>
      <trkpt lat="45.99838" lon="4.54629">
        <ele>692.4</ele>
        <time>1970-01-01T01:30:50.000Z</time>
      </trkpt>
      <trkpt lat="45.99839" lon="4.54626">
        <ele>692.7</ele>
        <time>1970-01-01T01:30:51.000Z</time>
      </trkpt>
      <trkpt lat="45.99839" lon="4.54626">
        <ele>692.7</ele>
        <time>1970-01-01T01:30:52.000Z</time>
      </trkpt>
      <trkpt lat="45.99839" lon="4.54623">
        <ele>693</ele>
        <time>1970-01-01T01:30:53.000Z</time>
      </trkpt>
      <trkpt lat="45.99839" lon="4.54623">
        <ele>693</ele>
        <time>1970-01-01T01:30:54.000Z</time>
      </trkpt>
      <trkpt lat="45.9984" lon="4.5462">
        <ele>693.3</ele>
        <time>1970-01-01T01:30:55.000Z</time>
      </trkpt>
      <trkpt lat="45.9984" lon="4.5462">
        <ele>693.3</ele>
        <time>1970-01-01T01:30:56.000Z</time>
      </trkpt>
      <trkpt lat="45.9984" lon="4.54617">
        <ele>693.6</ele>
        <time>1970-01-01T01:30:57.000Z</time>
      </trkpt>
      <trkpt lat="45.9984" lon="4.54617">
        <ele>693.6</ele>
        <time>1970-01-01T01:30:58.000Z</time>
      </trkpt>
      <trkpt lat="45.99841" lon="4.54614">
        <ele>693.9</ele>
        <time>1970-01-01T01:30:59.000Z</time>
      </trkpt>
      <trkpt lat="45.99841" lon="4.54614">
        <ele>693.9</ele>
        <time>1970-01-01T01:31:00.000Z</time>
      </trkpt>
      <trkpt lat="45.99842" lon="4.5461">
        <ele>694.2</ele>
        <time>1970-01-01T01:31:01.000Z</time>
      </trkpt>
      <trkpt lat="45.99842" lon="4.5461">
        <ele>694.2</ele>
        <time>1970-01-01T01:31:02.000Z</time>
      </trkpt>
      <trkpt lat="45.99842" lon="4.54607">
        <ele>694.5</ele>
        <time>1970-01-01T01:31:03.000Z</time>
      </trkpt>
      <trkpt lat="45.99842" lon="4.54607">
        <ele>694.5</ele>
        <time>1970-01-01T01:31:04.000Z</time>
      </trkpt>
      <trkpt lat="45.99843" lon="4.54604">
        <ele>694.8</ele>
        <time>1970-01-01T01:31:05.000Z</time>
      </trkpt>
      <trkpt lat="45.99843" lon="4.54604">
        <ele>694.8</ele>
        <time>1970-01-01T01:31:06.000Z</time>
      </trkpt>
      <trkpt lat="45.99844" lon="4.54601">
        <ele>695.1</ele>
        <time>1970-01-01T01:31:07.000Z</time>
      </trkpt>
      <trkpt lat="45.99844" lon="4.54601">
        <ele>695.1</ele>
        <time>1970-01-01T01:31:08.000Z</time>
      </trkpt>
      <trkpt lat="45.99845" lon="4.54598">
        <ele>695.3</ele>
        <time>1970-01-01T01:31:09.000Z</time>
      </trkpt>
      <trkpt lat="45.99845" lon="4.54598">
        <ele>695.3</ele>
        <time>1970-01-01T01:31:10.000Z</time>
      </trkpt>
      <trkpt lat="45.99846" lon="4.54595">
        <ele>695.6</ele>
        <time>1970-01-01T01:31:11.000Z</time>
      </trkpt>
      <trkpt lat="45.99846" lon="4.54595">
        <ele>695.6</ele>
        <time>1970-01-01T01:31:12.000Z</time>
      </trkpt>
      <trkpt lat="45.99846" lon="4.54595">
        <ele>695.6</ele>
        <time>1970-01-01T01:31:13.000Z</time>
      </trkpt>
      <trkpt lat="45.99847" lon="4.54592">
        <ele>696.5</ele>
        <time>1970-01-01T01:31:14.000Z</time>
      </trkpt>
      <trkpt lat="45.99847" lon="4.54592">
        <ele>696.5</ele>
        <time>1970-01-01T01:31:15.000Z</time>
      </trkpt>
      <trkpt lat="45.99847" lon="4.54592">
        <ele>696.5</ele>
        <time>1970-01-01T01:31:16.000Z</time>
      </trkpt>
      <trkpt lat="45.99847" lon="4.54592">
        <ele>696.5</ele>
        <time>1970-01-01T01:31:17.000Z</time>
      </trkpt>
      <trkpt lat="45.99847" lon="4.54592">
        <ele>696.5</ele>
        <time>1970-01-01T01:31:18.000Z</time>
      </trkpt>
      <trkpt lat="45.99848" lon="4.5459">
        <ele>696.5</ele>
        <time>1970-01-01T01:31:19.000Z</time>
      </trkpt>
      <trkpt lat="45.99848" lon="4.5459">
        <ele>696.5</ele>
        <time>1970-01-01T01:31:20.000Z</time>
      </trkpt>
      <trkpt lat="45.9985" lon="4.54589">
        <ele>696.4</ele>
        <time>1970-01-01T01:31:21.000Z</time>
      </trkpt>
      <trkpt lat="45.9985" lon="4.54589">
        <ele>696.4</ele>
        <time>1970-01-01T01:31:22.000Z</time>
      </trkpt>
      <trkpt lat="45.99852" lon="4.5459">
        <ele>696.4</ele>
        <time>1970-01-01T01:31:23.000Z</time>
      </trkpt>
      <trkpt lat="45.99852" lon="4.5459">
        <ele>696.4</ele>
        <time>1970-01-01T01:31:24.000Z</time>
      </trkpt>
      <trkpt lat="45.99853" lon="4.54594">
        <ele>696.3</ele>
        <time>1970-01-01T01:31:25.000Z</time>
      </trkpt>
      <trkpt lat="45.99853" lon="4.54594">
        <ele>696.3</ele>
        <time>1970-01-01T01:31:26.000Z</time>
      </trkpt>
      <trkpt lat="45.99854" lon="4.54597">
        <ele>696.1</ele>
        <time>1970-01-01T01:31:27.000Z</time>
      </trkpt>
      <trkpt lat="45.99854" lon="4.54597">
        <ele>696.1</ele>
        <time>1970-01-01T01:31:28.000Z</time>
      </trkpt>
      <trkpt lat="45.99856" lon="4.546">
        <ele>695.8</ele>
        <time>1970-01-01T01:31:29.000Z</time>
      </trkpt>
      <trkpt lat="45.99856" lon="4.546">
        <ele>695.7</ele>
        <time>1970-01-01T01:31:30.000Z</time>
      </trkpt>
      <trkpt lat="45.99857" lon="4.54603">
        <ele>696</ele>
        <time>1970-01-01T01:31:31.000Z</time>
      </trkpt>
      <trkpt lat="45.99857" lon="4.54603">
        <ele>696</ele>
        <time>1970-01-01T01:31:32.000Z</time>
      </trkpt>
      <trkpt lat="45.99858" lon="4.54605">
        <ele>696.3</ele>
        <time>1970-01-01T01:31:33.000Z</time>
      </trkpt>
      <trkpt lat="45.99858" lon="4.54605">
        <ele>696.3</ele>
        <time>1970-01-01T01:31:34.000Z</time>
      </trkpt>
      <trkpt lat="45.99858" lon="4.54605">
        <ele>696.3</ele>
        <time>1970-01-01T01:31:35.000Z</time>
      </trkpt>
      <trkpt lat="45.99858" lon="4.54605">
        <ele>696.3</ele>
        <time>1970-01-01T01:31:36.000Z</time>
      </trkpt>
      <trkpt lat="45.99861" lon="4.54607">
        <ele>696.8</ele>
        <time>1970-01-01T01:31:37.000Z</time>
      </trkpt>
      <trkpt lat="45.99861" lon="4.54607">
        <ele>696.8</ele>
        <time>1970-01-01T01:31:38.000Z</time>
      </trkpt>
      <trkpt lat="45.99862" lon="4.54609">
        <ele>697.2</ele>
        <time>1970-01-01T01:31:39.000Z</time>
      </trkpt>
      <trkpt lat="45.99862" lon="4.54609">
        <ele>697.1</ele>
        <time>1970-01-01T01:31:40.000Z</time>
      </trkpt>
      <trkpt lat="45.99864" lon="4.54611">
        <ele>697.1</ele>
        <time>1970-01-01T01:31:41.000Z</time>
      </trkpt>
      <trkpt lat="45.99864" lon="4.54611">
        <ele>697.1</ele>
        <time>1970-01-01T01:31:42.000Z</time>
      </trkpt>
      <trkpt lat="45.99865" lon="4.54613">
        <ele>697</ele>
        <time>1970-01-01T01:31:43.000Z</time>
      </trkpt>
      <trkpt lat="45.99865" lon="4.54613">
        <ele>697</ele>
        <time>1970-01-01T01:31:44.000Z</time>
      </trkpt>
      <trkpt lat="45.99867" lon="4.54615">
        <ele>697</ele>
        <time>1970-01-01T01:31:45.000Z</time>
      </trkpt>
      <trkpt lat="45.99867" lon="4.54615">
        <ele>697</ele>
        <time>1970-01-01T01:31:46.000Z</time>
      </trkpt>
      <trkpt lat="45.99867" lon="4.54615">
        <ele>697</ele>
        <time>1970-01-01T01:31:47.000Z</time>
      </trkpt>
      <trkpt lat="45.99868" lon="4.54618">
        <ele>696.9</ele>
        <time>1970-01-01T01:31:48.000Z</time>
      </trkpt>
      <trkpt lat="45.99868" lon="4.54618">
        <ele>696.9</ele>
        <time>1970-01-01T01:31:49.000Z</time>
      </trkpt>
      <trkpt lat="45.9987" lon="4.5462">
        <ele>696.8</ele>
        <time>1970-01-01T01:31:50.000Z</time>
      </trkpt>
      <trkpt lat="45.9987" lon="4.5462">
        <ele>696.8</ele>
        <time>1970-01-01T01:31:51.000Z</time>
      </trkpt>
      <trkpt lat="45.9987" lon="4.5462">
        <ele>696.8</ele>
        <time>1970-01-01T01:31:52.000Z</time>
      </trkpt>
      <trkpt lat="45.99872" lon="4.54622">
        <ele>696.8</ele>
        <time>1970-01-01T01:31:53.000Z</time>
      </trkpt>
      <trkpt lat="45.99872" lon="4.54622">
        <ele>696.8</ele>
        <time>1970-01-01T01:31:54.000Z</time>
      </trkpt>
      <trkpt lat="45.99872" lon="4.54622">
        <ele>696.8</ele>
        <time>1970-01-01T01:31:55.000Z</time>
      </trkpt>
      <trkpt lat="45.99874" lon="4.54624">
        <ele>696.7</ele>
        <time>1970-01-01T01:31:56.000Z</time>
      </trkpt>
      <trkpt lat="45.99874" lon="4.54624">
        <ele>696.7</ele>
        <time>1970-01-01T01:31:57.000Z</time>
      </trkpt>
      <trkpt lat="45.99874" lon="4.54624">
        <ele>696.7</ele>
        <time>1970-01-01T01:31:58.000Z</time>
      </trkpt>
      <trkpt lat="45.99876" lon="4.54624">
        <ele>696.6</ele>
        <time>1970-01-01T01:31:59.000Z</time>
      </trkpt>
      <trkpt lat="45.99876" lon="4.54624">
        <ele>696.6</ele>
        <time>1970-01-01T01:32:00.000Z</time>
      </trkpt>
      <trkpt lat="45.99876" lon="4.54624">
        <ele>696.6</ele>
        <time>1970-01-01T01:32:01.000Z</time>
      </trkpt>
      <trkpt lat="45.99876" lon="4.54624">
        <ele>696.6</ele>
        <time>1970-01-01T01:32:02.000Z</time>
      </trkpt>
      <trkpt lat="45.99876" lon="4.54627">
        <ele>696.6</ele>
        <time>1970-01-01T01:32:03.000Z</time>
      </trkpt>
      <trkpt lat="45.99876" lon="4.54627">
        <ele>696.6</ele>
        <time>1970-01-01T01:32:04.000Z</time>
      </trkpt>
      <trkpt lat="45.99876" lon="4.54627">
        <ele>696.6</ele>
        <time>1970-01-01T01:32:05.000Z</time>
      </trkpt>
      <trkpt lat="45.99876" lon="4.54627">
        <ele>696.6</ele>
        <time>1970-01-01T01:32:06.000Z</time>
      </trkpt>
      <trkpt lat="45.99876" lon="4.54627">
        <ele>696.6</ele>
        <time>1970-01-01T01:32:07.000Z</time>
      </trkpt>
      <trkpt lat="45.99876" lon="4.54627">
        <ele>696.6</ele>
        <time>1970-01-01T01:32:08.000Z</time>
      </trkpt>
      <trkpt lat="45.99876" lon="4.54627">
        <ele>696.6</ele>
        <time>1970-01-01T01:32:42.000Z</time>
      </trkpt>
      <trkpt lat="45.99876" lon="4.54627">
        <ele>696.6</ele>
        <time>1970-01-01T01:40:39.000Z</time>
      </trkpt>
      <trkpt lat="45.99874" lon="4.54621">
        <ele>696.5</ele>
        <time>1970-01-01T01:40:40.000Z</time>
      </trkpt>
      <trkpt lat="45.99874" lon="4.54621">
        <ele>696.5</ele>
        <time>1970-01-01T01:40:41.000Z</time>
      </trkpt>
      <trkpt lat="45.99874" lon="4.54621">
        <ele>696.5</ele>
        <time>1970-01-01T01:40:42.000Z</time>
      </trkpt>
      <trkpt lat="45.99872" lon="4.5462">
        <ele>696.4</ele>
        <time>1970-01-01T01:40:43.000Z</time>
      </trkpt>
      <trkpt lat="45.99872" lon="4.5462">
        <ele>696.4</ele>
        <time>1970-01-01T01:40:44.000Z</time>
      </trkpt>
      <trkpt lat="45.99872" lon="4.5462">
        <ele>696.4</ele>
        <time>1970-01-01T01:40:45.000Z</time>
      </trkpt>
      <trkpt lat="45.9987" lon="4.54618">
        <ele>696.3</ele>
        <time>1970-01-01T01:40:46.000Z</time>
      </trkpt>
      <trkpt lat="45.9987" lon="4.54618">
        <ele>696.3</ele>
        <time>1970-01-01T01:40:47.000Z</time>
      </trkpt>
      <trkpt lat="45.9987" lon="4.54618">
        <ele>696.3</ele>
        <time>1970-01-01T01:40:48.000Z</time>
      </trkpt>
      <trkpt lat="45.99868" lon="4.54616">
        <ele>696.3</ele>
        <time>1970-01-01T01:40:49.000Z</time>
      </trkpt>
      <trkpt lat="45.99868" lon="4.54616">
        <ele>696.3</ele>
        <time>1970-01-01T01:40:50.000Z</time>
      </trkpt>
      <trkpt lat="45.99868" lon="4.54616">
        <ele>696.3</ele>
        <time>1970-01-01T01:40:51.000Z</time>
      </trkpt>
      <trkpt lat="45.99866" lon="4.54615">
        <ele>696.2</ele>
        <time>1970-01-01T01:40:52.000Z</time>
      </trkpt>
      <trkpt lat="45.99866" lon="4.54615">
        <ele>696.2</ele>
        <time>1970-01-01T01:40:53.000Z</time>
      </trkpt>
      <trkpt lat="45.99866" lon="4.54615">
        <ele>696.2</ele>
        <time>1970-01-01T01:40:54.000Z</time>
      </trkpt>
      <trkpt lat="45.99864" lon="4.54615">
        <ele>696.1</ele>
        <time>1970-01-01T01:40:55.000Z</time>
      </trkpt>
      <trkpt lat="45.99864" lon="4.54615">
        <ele>696.1</ele>
        <time>1970-01-01T01:40:56.000Z</time>
      </trkpt>
      <trkpt lat="45.99862" lon="4.54614">
        <ele>696.1</ele>
        <time>1970-01-01T01:40:57.000Z</time>
      </trkpt>
      <trkpt lat="45.99862" lon="4.54614">
        <ele>696.1</ele>
        <time>1970-01-01T01:40:58.000Z</time>
      </trkpt>
      <trkpt lat="45.99862" lon="4.54614">
        <ele>696.1</ele>
        <time>1970-01-01T01:40:59.000Z</time>
      </trkpt>
      <trkpt lat="45.9986" lon="4.54612">
        <ele>696</ele>
        <time>1970-01-01T01:41:00.000Z</time>
      </trkpt>
      <trkpt lat="45.9986" lon="4.54612">
        <ele>696</ele>
        <time>1970-01-01T01:41:01.000Z</time>
      </trkpt>
      <trkpt lat="45.9986" lon="4.54612">
        <ele>696</ele>
        <time>1970-01-01T01:41:02.000Z</time>
      </trkpt>
      <trkpt lat="45.9986" lon="4.54612">
        <ele>696</ele>
        <time>1970-01-01T01:41:03.000Z</time>
      </trkpt>
      <trkpt lat="45.99858" lon="4.5461">
        <ele>696</ele>
        <time>1970-01-01T01:41:04.000Z</time>
      </trkpt>
      <trkpt lat="45.99858" lon="4.5461">
        <ele>696</ele>
        <time>1970-01-01T01:41:05.000Z</time>
      </trkpt>
      <trkpt lat="45.99858" lon="4.5461">
        <ele>696</ele>
        <time>1970-01-01T01:41:06.000Z</time>
      </trkpt>
      <trkpt lat="45.99856" lon="4.54609">
        <ele>695.9</ele>
        <time>1970-01-01T01:41:07.000Z</time>
      </trkpt>
      <trkpt lat="45.99856" lon="4.54609">
        <ele>695.9</ele>
        <time>1970-01-01T01:41:08.000Z</time>
      </trkpt>
      <trkpt lat="45.99855" lon="4.54606">
        <ele>695.8</ele>
        <time>1970-01-01T01:41:09.000Z</time>
      </trkpt>
      <trkpt lat="45.99855" lon="4.54606">
        <ele>695.8</ele>
        <time>1970-01-01T01:41:10.000Z</time>
      </trkpt>
      <trkpt lat="45.99854" lon="4.54603">
        <ele>695.8</ele>
        <time>1970-01-01T01:41:11.000Z</time>
      </trkpt>
      <trkpt lat="45.99854" lon="4.54603">
        <ele>695.8</ele>
        <time>1970-01-01T01:41:12.000Z</time>
      </trkpt>
      <trkpt lat="45.99853" lon="4.54601">
        <ele>695.7</ele>
        <time>1970-01-01T01:41:13.000Z</time>
      </trkpt>
      <trkpt lat="45.99853" lon="4.54601">
        <ele>695.7</ele>
        <time>1970-01-01T01:41:14.000Z</time>
      </trkpt>
      <trkpt lat="45.99853" lon="4.54601">
        <ele>695.7</ele>
        <time>1970-01-01T01:41:15.000Z</time>
      </trkpt>
      <trkpt lat="45.99853" lon="4.54601">
        <ele>695.7</ele>
        <time>1970-01-01T01:41:16.000Z</time>
      </trkpt>
      <trkpt lat="45.99853" lon="4.54601">
        <ele>695.7</ele>
        <time>1970-01-01T01:41:17.000Z</time>
      </trkpt>
      <trkpt lat="45.99853" lon="4.54601">
        <ele>695.7</ele>
        <time>1970-01-01T01:41:18.000Z</time>
      </trkpt>
      <trkpt lat="45.99853" lon="4.54597">
        <ele>695.8</ele>
        <time>1970-01-01T01:41:19.000Z</time>
      </trkpt>
      <trkpt lat="45.99853" lon="4.54597">
        <ele>695.8</ele>
        <time>1970-01-01T01:41:20.000Z</time>
      </trkpt>
      <trkpt lat="45.99854" lon="4.54594">
        <ele>696.2</ele>
        <time>1970-01-01T01:41:21.000Z</time>
      </trkpt>
      <trkpt lat="45.99854" lon="4.54594">
        <ele>696.2</ele>
        <time>1970-01-01T01:41:22.000Z</time>
      </trkpt>
      <trkpt lat="45.99854" lon="4.54591">
        <ele>696.4</ele>
        <time>1970-01-01T01:41:23.000Z</time>
      </trkpt>
      <trkpt lat="45.99854" lon="4.54591">
        <ele>696.4</ele>
        <time>1970-01-01T01:41:24.000Z</time>
      </trkpt>
      <trkpt lat="45.99854" lon="4.54591">
        <ele>696.4</ele>
        <time>1970-01-01T01:41:25.000Z</time>
      </trkpt>
      <trkpt lat="45.99855" lon="4.54589">
        <ele>696.3</ele>
        <time>1970-01-01T01:41:26.000Z</time>
      </trkpt>
      <trkpt lat="45.99855" lon="4.54589">
        <ele>696.3</ele>
        <time>1970-01-01T01:41:27.000Z</time>
      </trkpt>
      <trkpt lat="45.99855" lon="4.54589">
        <ele>696.3</ele>
        <time>1970-01-01T01:41:28.000Z</time>
      </trkpt>
      <trkpt lat="45.99855" lon="4.54589">
        <ele>696.3</ele>
        <time>1970-01-01T01:41:29.000Z</time>
      </trkpt>
      <trkpt lat="45.99855" lon="4.54589">
        <ele>696.3</ele>
        <time>1970-01-01T01:41:30.000Z</time>
      </trkpt>
      <trkpt lat="45.99855" lon="4.54589">
        <ele>696.3</ele>
        <time>1970-01-01T01:41:31.000Z</time>
      </trkpt>
      <trkpt lat="45.99855" lon="4.54589">
        <ele>696.3</ele>
        <time>1970-01-01T01:41:32.000Z</time>
      </trkpt>
      <trkpt lat="45.99855" lon="4.54589">
        <ele>696.3</ele>
        <time>1970-01-01T01:41:33.000Z</time>
      </trkpt>
      <trkpt lat="45.99857" lon="4.54588">
        <ele>696.2</ele>
        <time>1970-01-01T01:41:34.000Z</time>
      </trkpt>
      <trkpt lat="45.99857" lon="4.54588">
        <ele>696.2</ele>
        <time>1970-01-01T01:41:35.000Z</time>
      </trkpt>
      <trkpt lat="45.99857" lon="4.54588">
        <ele>696.2</ele>
        <time>1970-01-01T01:41:36.000Z</time>
      </trkpt>
      <trkpt lat="45.99857" lon="4.54588">
        <ele>696.2</ele>
        <time>1970-01-01T01:41:37.000Z</time>
      </trkpt>
      <trkpt lat="45.99858" lon="4.54585">
        <ele>696</ele>
        <time>1970-01-01T01:41:38.000Z</time>
      </trkpt>
      <trkpt lat="45.99858" lon="4.54585">
        <ele>696</ele>
        <time>1970-01-01T01:41:39.000Z</time>
      </trkpt>
      <trkpt lat="45.99858" lon="4.54585">
        <ele>696</ele>
        <time>1970-01-01T01:41:40.000Z</time>
      </trkpt>
      <trkpt lat="45.99859" lon="4.54582">
        <ele>695.8</ele>
        <time>1970-01-01T01:41:41.000Z</time>
      </trkpt>
      <trkpt lat="45.99859" lon="4.54582">
        <ele>695.8</ele>
        <time>1970-01-01T01:41:42.000Z</time>
      </trkpt>
      <trkpt lat="45.99859" lon="4.54582">
        <ele>695.8</ele>
        <time>1970-01-01T01:41:43.000Z</time>
      </trkpt>
      <trkpt lat="45.99861" lon="4.54579">
        <ele>695.5</ele>
        <time>1970-01-01T01:41:44.000Z</time>
      </trkpt>
      <trkpt lat="45.99861" lon="4.54579">
        <ele>695.5</ele>
        <time>1970-01-01T01:41:45.000Z</time>
      </trkpt>
      <trkpt lat="45.99861" lon="4.54579">
        <ele>695.5</ele>
        <time>1970-01-01T01:41:46.000Z</time>
      </trkpt>
      <trkpt lat="45.99863" lon="4.54576">
        <ele>695.2</ele>
        <time>1970-01-01T01:41:47.000Z</time>
      </trkpt>
      <trkpt lat="45.99863" lon="4.54576">
        <ele>695.2</ele>
        <time>1970-01-01T01:41:48.000Z</time>
      </trkpt>
      <trkpt lat="45.99863" lon="4.54576">
        <ele>695.2</ele>
        <time>1970-01-01T01:41:49.000Z</time>
      </trkpt>
      <trkpt lat="45.99864" lon="4.54573">
        <ele>694.8</ele>
        <time>1970-01-01T01:41:50.000Z</time>
      </trkpt>
      <trkpt lat="45.99864" lon="4.54573">
        <ele>694.8</ele>
        <time>1970-01-01T01:41:51.000Z</time>
      </trkpt>
      <trkpt lat="45.99866" lon="4.54571">
        <ele>694.5</ele>
        <time>1970-01-01T01:41:52.000Z</time>
      </trkpt>
      <trkpt lat="45.99866" lon="4.54571">
        <ele>694.5</ele>
        <time>1970-01-01T01:41:53.000Z</time>
      </trkpt>
      <trkpt lat="45.99866" lon="4.54571">
        <ele>694.5</ele>
        <time>1970-01-01T01:41:54.000Z</time>
      </trkpt>
      <trkpt lat="45.99867" lon="4.54568">
        <ele>694.1</ele>
        <time>1970-01-01T01:41:55.000Z</time>
      </trkpt>
      <trkpt lat="45.99867" lon="4.54568">
        <ele>694.1</ele>
        <time>1970-01-01T01:41:56.000Z</time>
      </trkpt>
      <trkpt lat="45.99867" lon="4.54568">
        <ele>694.1</ele>
        <time>1970-01-01T01:41:57.000Z</time>
      </trkpt>
      <trkpt lat="45.99868" lon="4.54565">
        <ele>693.7</ele>
        <time>1970-01-01T01:41:58.000Z</time>
      </trkpt>
      <trkpt lat="45.99868" lon="4.54565">
        <ele>693.7</ele>
        <time>1970-01-01T01:41:59.000Z</time>
      </trkpt>
      <trkpt lat="45.99869" lon="4.54562">
        <ele>693.2</ele>
        <time>1970-01-01T01:42:00.000Z</time>
      </trkpt>
      <trkpt lat="45.99869" lon="4.54562">
        <ele>693.2</ele>
        <time>1970-01-01T01:42:01.000Z</time>
      </trkpt>
      <trkpt lat="45.9987" lon="4.5456">
        <ele>692.9</ele>
        <time>1970-01-01T01:42:02.000Z</time>
      </trkpt>
      <trkpt lat="45.9987" lon="4.5456">
        <ele>692.9</ele>
        <time>1970-01-01T01:42:03.000Z</time>
      </trkpt>
      <trkpt lat="45.9987" lon="4.5456">
        <ele>692.9</ele>
        <time>1970-01-01T01:42:04.000Z</time>
      </trkpt>
      <trkpt lat="45.99872" lon="4.54558">
        <ele>692.4</ele>
        <time>1970-01-01T01:42:05.000Z</time>
      </trkpt>
      <trkpt lat="45.99872" lon="4.54558">
        <ele>692.4</ele>
        <time>1970-01-01T01:42:06.000Z</time>
      </trkpt>
      <trkpt lat="45.99873" lon="4.54556">
        <ele>692</ele>
        <time>1970-01-01T01:42:07.000Z</time>
      </trkpt>
      <trkpt lat="45.99873" lon="4.54556">
        <ele>692</ele>
        <time>1970-01-01T01:42:08.000Z</time>
      </trkpt>
      <trkpt lat="45.99875" lon="4.54554">
        <ele>691.6</ele>
        <time>1970-01-01T01:42:09.000Z</time>
      </trkpt>
      <trkpt lat="45.99875" lon="4.54554">
        <ele>691.6</ele>
        <time>1970-01-01T01:42:10.000Z</time>
      </trkpt>
      <trkpt lat="45.99877" lon="4.54553">
        <ele>691.1</ele>
        <time>1970-01-01T01:42:11.000Z</time>
      </trkpt>
      <trkpt lat="45.99877" lon="4.54553">
        <ele>691.1</ele>
        <time>1970-01-01T01:42:12.000Z</time>
      </trkpt>
      <trkpt lat="45.99877" lon="4.54553">
        <ele>691.1</ele>
        <time>1970-01-01T01:42:13.000Z</time>
      </trkpt>
      <trkpt lat="45.99878" lon="4.5455">
        <ele>690.6</ele>
        <time>1970-01-01T01:42:14.000Z</time>
      </trkpt>
      <trkpt lat="45.99878" lon="4.5455">
        <ele>690.6</ele>
        <time>1970-01-01T01:42:15.000Z</time>
      </trkpt>
      <trkpt lat="45.99879" lon="4.54548">
        <ele>690.2</ele>
        <time>1970-01-01T01:42:16.000Z</time>
      </trkpt>
      <trkpt lat="45.99879" lon="4.54548">
        <ele>690.2</ele>
        <time>1970-01-01T01:42:17.000Z</time>
      </trkpt>
      <trkpt lat="45.99879" lon="4.54548">
        <ele>690.2</ele>
        <time>1970-01-01T01:42:18.000Z</time>
      </trkpt>
      <trkpt lat="45.99881" lon="4.54545">
        <ele>689.6</ele>
        <time>1970-01-01T01:42:19.000Z</time>
      </trkpt>
      <trkpt lat="45.99881" lon="4.54545">
        <ele>689.6</ele>
        <time>1970-01-01T01:42:20.000Z</time>
      </trkpt>
      <trkpt lat="45.99882" lon="4.54543">
        <ele>689.2</ele>
        <time>1970-01-01T01:42:21.000Z</time>
      </trkpt>
      <trkpt lat="45.99882" lon="4.54543">
        <ele>689.2</ele>
        <time>1970-01-01T01:42:22.000Z</time>
      </trkpt>
      <trkpt lat="45.99882" lon="4.54543">
        <ele>689.2</ele>
        <time>1970-01-01T01:42:23.000Z</time>
      </trkpt>
      <trkpt lat="45.99882" lon="4.54543">
        <ele>689.2</ele>
        <time>1970-01-01T01:42:24.000Z</time>
      </trkpt>
      <trkpt lat="45.99882" lon="4.54543">
        <ele>689.2</ele>
        <time>1970-01-01T01:42:25.000Z</time>
      </trkpt>
      <trkpt lat="45.99884" lon="4.5454">
        <ele>688.7</ele>
        <time>1970-01-01T01:42:26.000Z</time>
      </trkpt>
      <trkpt lat="45.99884" lon="4.5454">
        <ele>688.7</ele>
        <time>1970-01-01T01:42:27.000Z</time>
      </trkpt>
      <trkpt lat="45.99884" lon="4.5454">
        <ele>688.7</ele>
        <time>1970-01-01T01:42:28.000Z</time>
      </trkpt>
      <trkpt lat="45.99886" lon="4.54538">
        <ele>688.1</ele>
        <time>1970-01-01T01:42:29.000Z</time>
      </trkpt>
      <trkpt lat="45.99886" lon="4.54538">
        <ele>688.1</ele>
        <time>1970-01-01T01:42:30.000Z</time>
      </trkpt>
      <trkpt lat="45.99888" lon="4.54535">
        <ele>687.6</ele>
        <time>1970-01-01T01:42:31.000Z</time>
      </trkpt>
      <trkpt lat="45.99888" lon="4.54535">
        <ele>687.6</ele>
        <time>1970-01-01T01:42:32.000Z</time>
      </trkpt>
      <trkpt lat="45.9989" lon="4.54533">
        <ele>687</ele>
        <time>1970-01-01T01:42:33.000Z</time>
      </trkpt>
      <trkpt lat="45.9989" lon="4.54533">
        <ele>687</ele>
        <time>1970-01-01T01:42:34.000Z</time>
      </trkpt>
      <trkpt lat="45.99892" lon="4.54531">
        <ele>686.5</ele>
        <time>1970-01-01T01:42:35.000Z</time>
      </trkpt>
      <trkpt lat="45.99892" lon="4.54531">
        <ele>686.5</ele>
        <time>1970-01-01T01:42:36.000Z</time>
      </trkpt>
      <trkpt lat="45.99894" lon="4.54529">
        <ele>686</ele>
        <time>1970-01-01T01:42:37.000Z</time>
      </trkpt>
      <trkpt lat="45.99894" lon="4.54529">
        <ele>686</ele>
        <time>1970-01-01T01:42:38.000Z</time>
      </trkpt>
      <trkpt lat="45.99897" lon="4.54527">
        <ele>685.4</ele>
        <time>1970-01-01T01:42:39.000Z</time>
      </trkpt>
      <trkpt lat="45.99897" lon="4.54527">
        <ele>685.4</ele>
        <time>1970-01-01T01:42:40.000Z</time>
      </trkpt>
      <trkpt lat="45.99899" lon="4.54527">
        <ele>685</ele>
        <time>1970-01-01T01:42:41.000Z</time>
      </trkpt>
      <trkpt lat="45.99899" lon="4.54527">
        <ele>685</ele>
        <time>1970-01-01T01:42:42.000Z</time>
      </trkpt>
      <trkpt lat="45.99901" lon="4.54526">
        <ele>684.6</ele>
        <time>1970-01-01T01:42:43.000Z</time>
      </trkpt>
      <trkpt lat="45.99901" lon="4.54526">
        <ele>684.6</ele>
        <time>1970-01-01T01:42:44.000Z</time>
      </trkpt>
      <trkpt lat="45.99901" lon="4.54526">
        <ele>684.6</ele>
        <time>1970-01-01T01:42:45.000Z</time>
      </trkpt>
      <trkpt lat="45.99904" lon="4.54524">
        <ele>684.1</ele>
        <time>1970-01-01T01:42:46.000Z</time>
      </trkpt>
      <trkpt lat="45.99904" lon="4.54524">
        <ele>684.1</ele>
        <time>1970-01-01T01:42:47.000Z</time>
      </trkpt>
      <trkpt lat="45.99906" lon="4.54522">
        <ele>683.6</ele>
        <time>1970-01-01T01:42:48.000Z</time>
      </trkpt>
      <trkpt lat="45.99906" lon="4.54522">
        <ele>683.6</ele>
        <time>1970-01-01T01:42:49.000Z</time>
      </trkpt>
      <trkpt lat="45.99909" lon="4.5452">
        <ele>683.1</ele>
        <time>1970-01-01T01:42:50.000Z</time>
      </trkpt>
      <trkpt lat="45.99909" lon="4.5452">
        <ele>683.1</ele>
        <time>1970-01-01T01:42:51.000Z</time>
      </trkpt>
      <trkpt lat="45.9991" lon="4.54518">
        <ele>682.8</ele>
        <time>1970-01-01T01:42:52.000Z</time>
      </trkpt>
      <trkpt lat="45.9991" lon="4.54518">
        <ele>682.8</ele>
        <time>1970-01-01T01:42:53.000Z</time>
      </trkpt>
      <trkpt lat="45.99912" lon="4.54516">
        <ele>682.4</ele>
        <time>1970-01-01T01:42:54.000Z</time>
      </trkpt>
      <trkpt lat="45.99912" lon="4.54516">
        <ele>682.4</ele>
        <time>1970-01-01T01:42:55.000Z</time>
      </trkpt>
      <trkpt lat="45.99915" lon="4.54514">
        <ele>682</ele>
        <time>1970-01-01T01:42:56.000Z</time>
      </trkpt>
      <trkpt lat="45.99915" lon="4.54514">
        <ele>682</ele>
        <time>1970-01-01T01:42:57.000Z</time>
      </trkpt>
      <trkpt lat="45.99918" lon="4.54513">
        <ele>681.6</ele>
        <time>1970-01-01T01:42:58.000Z</time>
      </trkpt>
      <trkpt lat="45.99918" lon="4.54513">
        <ele>681.6</ele>
        <time>1970-01-01T01:42:59.000Z</time>
      </trkpt>
      <trkpt lat="45.9992" lon="4.54512">
        <ele>681.2</ele>
        <time>1970-01-01T01:43:00.000Z</time>
      </trkpt>
      <trkpt lat="45.9992" lon="4.54512">
        <ele>681.2</ele>
        <time>1970-01-01T01:43:01.000Z</time>
      </trkpt>
      <trkpt lat="45.99923" lon="4.54511">
        <ele>680.9</ele>
        <time>1970-01-01T01:43:02.000Z</time>
      </trkpt>
      <trkpt lat="45.99923" lon="4.54511">
        <ele>680.9</ele>
        <time>1970-01-01T01:43:03.000Z</time>
      </trkpt>
      <trkpt lat="45.99925" lon="4.54511">
        <ele>680.5</ele>
        <time>1970-01-01T01:43:04.000Z</time>
      </trkpt>
      <trkpt lat="45.99925" lon="4.54511">
        <ele>680.5</ele>
        <time>1970-01-01T01:43:05.000Z</time>
      </trkpt>
      <trkpt lat="45.99928" lon="4.5451">
        <ele>680.1</ele>
        <time>1970-01-01T01:43:06.000Z</time>
      </trkpt>
      <trkpt lat="45.99928" lon="4.5451">
        <ele>680.1</ele>
        <time>1970-01-01T01:43:07.000Z</time>
      </trkpt>
      <trkpt lat="45.9993" lon="4.54509">
        <ele>679.7</ele>
        <time>1970-01-01T01:43:08.000Z</time>
      </trkpt>
      <trkpt lat="45.9993" lon="4.54509">
        <ele>679.7</ele>
        <time>1970-01-01T01:43:09.000Z</time>
      </trkpt>
      <trkpt lat="45.99933" lon="4.54509">
        <ele>679.4</ele>
        <time>1970-01-01T01:43:10.000Z</time>
      </trkpt>
      <trkpt lat="45.99933" lon="4.54509">
        <ele>679.4</ele>
        <time>1970-01-01T01:43:11.000Z</time>
      </trkpt>
      <trkpt lat="45.99935" lon="4.54508">
        <ele>679.1</ele>
        <time>1970-01-01T01:43:12.000Z</time>
      </trkpt>
      <trkpt lat="45.99935" lon="4.54508">
        <ele>679.1</ele>
        <time>1970-01-01T01:43:13.000Z</time>
      </trkpt>
      <trkpt lat="45.99935" lon="4.54508">
        <ele>679.1</ele>
        <time>1970-01-01T01:43:14.000Z</time>
      </trkpt>
      <trkpt lat="45.99937" lon="4.54507">
        <ele>678.8</ele>
        <time>1970-01-01T01:43:15.000Z</time>
      </trkpt>
      <trkpt lat="45.99939" lon="4.54506">
        <ele>678.5</ele>
        <time>1970-01-01T01:43:16.000Z</time>
      </trkpt>
      <trkpt lat="45.99939" lon="4.54506">
        <ele>678.5</ele>
        <time>1970-01-01T01:43:17.000Z</time>
      </trkpt>
      <trkpt lat="45.99942" lon="4.54506">
        <ele>678</ele>
        <time>1970-01-01T01:43:18.000Z</time>
      </trkpt>
      <trkpt lat="45.99942" lon="4.54506">
        <ele>678</ele>
        <time>1970-01-01T01:43:19.000Z</time>
      </trkpt>
      <trkpt lat="45.99945" lon="4.54506">
        <ele>677.5</ele>
        <time>1970-01-01T01:43:20.000Z</time>
      </trkpt>
      <trkpt lat="45.99945" lon="4.54506">
        <ele>677.5</ele>
        <time>1970-01-01T01:43:21.000Z</time>
      </trkpt>
      <trkpt lat="45.99948" lon="4.54506">
        <ele>677.1</ele>
        <time>1970-01-01T01:43:22.000Z</time>
      </trkpt>
      <trkpt lat="45.99948" lon="4.54506">
        <ele>677.1</ele>
        <time>1970-01-01T01:43:23.000Z</time>
      </trkpt>
      <trkpt lat="45.9995" lon="4.54507">
        <ele>676.7</ele>
        <time>1970-01-01T01:43:24.000Z</time>
      </trkpt>
      <trkpt lat="45.9995" lon="4.54507">
        <ele>676.7</ele>
        <time>1970-01-01T01:43:25.000Z</time>
      </trkpt>
      <trkpt lat="45.99952" lon="4.54505">
        <ele>676.4</ele>
        <time>1970-01-01T01:43:26.000Z</time>
      </trkpt>
      <trkpt lat="45.99952" lon="4.54505">
        <ele>676.4</ele>
        <time>1970-01-01T01:43:27.000Z</time>
      </trkpt>
      <trkpt lat="45.99955" lon="4.54504">
        <ele>675.9</ele>
        <time>1970-01-01T01:43:28.000Z</time>
      </trkpt>
      <trkpt lat="45.99955" lon="4.54504">
        <ele>675.9</ele>
        <time>1970-01-01T01:43:29.000Z</time>
      </trkpt>
      <trkpt lat="45.99958" lon="4.54503">
        <ele>675.5</ele>
        <time>1970-01-01T01:43:30.000Z</time>
      </trkpt>
      <trkpt lat="45.99958" lon="4.54503">
        <ele>675.5</ele>
        <time>1970-01-01T01:43:31.000Z</time>
      </trkpt>
      <trkpt lat="45.9996" lon="4.54503">
        <ele>675.1</ele>
        <time>1970-01-01T01:43:32.000Z</time>
      </trkpt>
      <trkpt lat="45.9996" lon="4.54503">
        <ele>675.1</ele>
        <time>1970-01-01T01:43:33.000Z</time>
      </trkpt>
      <trkpt lat="45.99962" lon="4.54502">
        <ele>674.8</ele>
        <time>1970-01-01T01:43:34.000Z</time>
      </trkpt>
      <trkpt lat="45.99962" lon="4.54502">
        <ele>674.8</ele>
        <time>1970-01-01T01:43:35.000Z</time>
      </trkpt>
      <trkpt lat="45.99964" lon="4.54502">
        <ele>674.5</ele>
        <time>1970-01-01T01:43:36.000Z</time>
      </trkpt>
      <trkpt lat="45.99964" lon="4.54502">
        <ele>674.5</ele>
        <time>1970-01-01T01:43:37.000Z</time>
      </trkpt>
      <trkpt lat="45.99966" lon="4.54501">
        <ele>674.2</ele>
        <time>1970-01-01T01:43:38.000Z</time>
      </trkpt>
      <trkpt lat="45.99966" lon="4.54501">
        <ele>674.2</ele>
        <time>1970-01-01T01:43:39.000Z</time>
      </trkpt>
      <trkpt lat="45.99968" lon="4.54499">
        <ele>673.8</ele>
        <time>1970-01-01T01:43:40.000Z</time>
      </trkpt>
      <trkpt lat="45.99968" lon="4.54499">
        <ele>673.8</ele>
        <time>1970-01-01T01:43:41.000Z</time>
      </trkpt>
      <trkpt lat="45.9997" lon="4.54497">
        <ele>673.4</ele>
        <time>1970-01-01T01:43:42.000Z</time>
      </trkpt>
      <trkpt lat="45.9997" lon="4.54497">
        <ele>673.4</ele>
        <time>1970-01-01T01:43:43.000Z</time>
      </trkpt>
      <trkpt lat="45.99973" lon="4.54495">
        <ele>672.9</ele>
        <time>1970-01-01T01:43:44.000Z</time>
      </trkpt>
      <trkpt lat="45.99973" lon="4.54495">
        <ele>672.9</ele>
        <time>1970-01-01T01:43:45.000Z</time>
      </trkpt>
      <trkpt lat="45.99975" lon="4.54493">
        <ele>672.5</ele>
        <time>1970-01-01T01:43:46.000Z</time>
      </trkpt>
      <trkpt lat="45.99975" lon="4.54493">
        <ele>672.5</ele>
        <time>1970-01-01T01:43:47.000Z</time>
      </trkpt>
      <trkpt lat="45.99977" lon="4.54492">
        <ele>672.1</ele>
        <time>1970-01-01T01:43:48.000Z</time>
      </trkpt>
      <trkpt lat="45.99977" lon="4.54492">
        <ele>672.1</ele>
        <time>1970-01-01T01:43:49.000Z</time>
      </trkpt>
      <trkpt lat="45.99979" lon="4.54491">
        <ele>671.8</ele>
        <time>1970-01-01T01:43:50.000Z</time>
      </trkpt>
      <trkpt lat="45.99979" lon="4.54491">
        <ele>671.8</ele>
        <time>1970-01-01T01:43:51.000Z</time>
      </trkpt>
      <trkpt lat="45.99979" lon="4.54491">
        <ele>671.8</ele>
        <time>1970-01-01T01:43:52.000Z</time>
      </trkpt>
      <trkpt lat="45.99981" lon="4.54488">
        <ele>671.3</ele>
        <time>1970-01-01T01:43:53.000Z</time>
      </trkpt>
      <trkpt lat="45.99981" lon="4.54488">
        <ele>671.3</ele>
        <time>1970-01-01T01:43:54.000Z</time>
      </trkpt>
      <trkpt lat="45.99983" lon="4.54487">
        <ele>671</ele>
        <time>1970-01-01T01:43:55.000Z</time>
      </trkpt>
      <trkpt lat="45.99983" lon="4.54487">
        <ele>671</ele>
        <time>1970-01-01T01:43:56.000Z</time>
      </trkpt>
      <trkpt lat="45.99985" lon="4.54485">
        <ele>670.6</ele>
        <time>1970-01-01T01:43:57.000Z</time>
      </trkpt>
      <trkpt lat="45.99985" lon="4.54485">
        <ele>670.6</ele>
        <time>1970-01-01T01:43:58.000Z</time>
      </trkpt>
      <trkpt lat="45.99987" lon="4.54484">
        <ele>670.2</ele>
        <time>1970-01-01T01:43:59.000Z</time>
      </trkpt>
      <trkpt lat="45.99987" lon="4.54484">
        <ele>670.2</ele>
        <time>1970-01-01T01:44:00.000Z</time>
      </trkpt>
      <trkpt lat="45.99989" lon="4.54483">
        <ele>669.7</ele>
        <time>1970-01-01T01:44:01.000Z</time>
      </trkpt>
      <trkpt lat="45.99989" lon="4.54483">
        <ele>669.7</ele>
        <time>1970-01-01T01:44:02.000Z</time>
      </trkpt>
      <trkpt lat="45.99991" lon="4.54482">
        <ele>669.4</ele>
        <time>1970-01-01T01:44:03.000Z</time>
      </trkpt>
      <trkpt lat="45.99991" lon="4.54482">
        <ele>669.4</ele>
        <time>1970-01-01T01:44:04.000Z</time>
      </trkpt>
      <trkpt lat="45.99993" lon="4.54481">
        <ele>669.1</ele>
        <time>1970-01-01T01:44:05.000Z</time>
      </trkpt>
      <trkpt lat="45.99993" lon="4.54481">
        <ele>669.1</ele>
        <time>1970-01-01T01:44:06.000Z</time>
      </trkpt>
      <trkpt lat="45.99995" lon="4.5448">
        <ele>668.7</ele>
        <time>1970-01-01T01:44:07.000Z</time>
      </trkpt>
      <trkpt lat="45.99995" lon="4.5448">
        <ele>668.7</ele>
        <time>1970-01-01T01:44:08.000Z</time>
      </trkpt>
      <trkpt lat="45.99997" lon="4.54479">
        <ele>668.3</ele>
        <time>1970-01-01T01:44:09.000Z</time>
      </trkpt>
      <trkpt lat="45.99997" lon="4.54479">
        <ele>668.3</ele>
        <time>1970-01-01T01:44:10.000Z</time>
      </trkpt>
      <trkpt lat="45.99999" lon="4.54478">
        <ele>668</ele>
        <time>1970-01-01T01:44:11.000Z</time>
      </trkpt>
      <trkpt lat="45.99999" lon="4.54478">
        <ele>668</ele>
        <time>1970-01-01T01:44:12.000Z</time>
      </trkpt>
      <trkpt lat="46.00001" lon="4.54477">
        <ele>667.7</ele>
        <time>1970-01-01T01:44:13.000Z</time>
      </trkpt>
      <trkpt lat="46.00001" lon="4.54477">
        <ele>667.7</ele>
        <time>1970-01-01T01:44:14.000Z</time>
      </trkpt>
      <trkpt lat="46.00003" lon="4.54476">
        <ele>667.3</ele>
        <time>1970-01-01T01:44:15.000Z</time>
      </trkpt>
      <trkpt lat="46.00003" lon="4.54476">
        <ele>667.3</ele>
        <time>1970-01-01T01:44:16.000Z</time>
      </trkpt>
      <trkpt lat="46.00006" lon="4.54475">
        <ele>666.9</ele>
        <time>1970-01-01T01:44:17.000Z</time>
      </trkpt>
      <trkpt lat="46.00006" lon="4.54475">
        <ele>666.9</ele>
        <time>1970-01-01T01:44:18.000Z</time>
      </trkpt>
      <trkpt lat="46.00008" lon="4.54474">
        <ele>666.6</ele>
        <time>1970-01-01T01:44:19.000Z</time>
      </trkpt>
      <trkpt lat="46.00008" lon="4.54474">
        <ele>666.6</ele>
        <time>1970-01-01T01:44:20.000Z</time>
      </trkpt>
      <trkpt lat="46.0001" lon="4.54474">
        <ele>666.3</ele>
        <time>1970-01-01T01:44:21.000Z</time>
      </trkpt>
      <trkpt lat="46.0001" lon="4.54474">
        <ele>666.3</ele>
        <time>1970-01-01T01:44:22.000Z</time>
      </trkpt>
      <trkpt lat="46.00012" lon="4.54471">
        <ele>665.9</ele>
        <time>1970-01-01T01:44:23.000Z</time>
      </trkpt>
      <trkpt lat="46.00012" lon="4.54471">
        <ele>665.9</ele>
        <time>1970-01-01T01:44:24.000Z</time>
      </trkpt>
      <trkpt lat="46.00014" lon="4.5447">
        <ele>665.6</ele>
        <time>1970-01-01T01:44:25.000Z</time>
      </trkpt>
      <trkpt lat="46.00014" lon="4.5447">
        <ele>665.6</ele>
        <time>1970-01-01T01:44:26.000Z</time>
      </trkpt>
      <trkpt lat="46.00016" lon="4.54468">
        <ele>665.2</ele>
        <time>1970-01-01T01:44:27.000Z</time>
      </trkpt>
      <trkpt lat="46.00016" lon="4.54468">
        <ele>665.2</ele>
        <time>1970-01-01T01:44:28.000Z</time>
      </trkpt>
      <trkpt lat="46.00018" lon="4.54467">
        <ele>664.9</ele>
        <time>1970-01-01T01:44:29.000Z</time>
      </trkpt>
      <trkpt lat="46.00018" lon="4.54467">
        <ele>664.9</ele>
        <time>1970-01-01T01:44:30.000Z</time>
      </trkpt>
      <trkpt lat="46.0002" lon="4.54465">
        <ele>664.6</ele>
        <time>1970-01-01T01:44:31.000Z</time>
      </trkpt>
      <trkpt lat="46.0002" lon="4.54465">
        <ele>664.6</ele>
        <time>1970-01-01T01:44:32.000Z</time>
      </trkpt>
      <trkpt lat="46.00023" lon="4.54464">
        <ele>664.3</ele>
        <time>1970-01-01T01:44:33.000Z</time>
      </trkpt>
      <trkpt lat="46.00023" lon="4.54464">
        <ele>664.3</ele>
        <time>1970-01-01T01:44:34.000Z</time>
      </trkpt>
      <trkpt lat="46.00025" lon="4.54463">
        <ele>663.9</ele>
        <time>1970-01-01T01:44:35.000Z</time>
      </trkpt>
      <trkpt lat="46.00025" lon="4.54463">
        <ele>663.9</ele>
        <time>1970-01-01T01:44:36.000Z</time>
      </trkpt>
      <trkpt lat="46.00028" lon="4.54461">
        <ele>663.6</ele>
        <time>1970-01-01T01:44:37.000Z</time>
      </trkpt>
      <trkpt lat="46.00028" lon="4.54461">
        <ele>663.6</ele>
        <time>1970-01-01T01:44:38.000Z</time>
      </trkpt>
      <trkpt lat="46.0003" lon="4.5446">
        <ele>663.3</ele>
        <time>1970-01-01T01:44:39.000Z</time>
      </trkpt>
      <trkpt lat="46.0003" lon="4.5446">
        <ele>663.3</ele>
        <time>1970-01-01T01:44:40.000Z</time>
      </trkpt>
      <trkpt lat="46.00031" lon="4.54458">
        <ele>663</ele>
        <time>1970-01-01T01:44:41.000Z</time>
      </trkpt>
      <trkpt lat="46.00031" lon="4.54458">
        <ele>663</ele>
        <time>1970-01-01T01:44:42.000Z</time>
      </trkpt>
      <trkpt lat="46.00034" lon="4.54456">
        <ele>662.7</ele>
        <time>1970-01-01T01:44:43.000Z</time>
      </trkpt>
      <trkpt lat="46.00036" lon="4.54455">
        <ele>662.5</ele>
        <time>1970-01-01T01:44:44.000Z</time>
      </trkpt>
      <trkpt lat="46.00038" lon="4.54454">
        <ele>662.3</ele>
        <time>1970-01-01T01:44:45.000Z</time>
      </trkpt>
      <trkpt lat="46.0004" lon="4.54453">
        <ele>662.1</ele>
        <time>1970-01-01T01:44:46.000Z</time>
      </trkpt>
      <trkpt lat="46.00041" lon="4.54452">
        <ele>661.9</ele>
        <time>1970-01-01T01:44:47.000Z</time>
      </trkpt>
      <trkpt lat="46.00041" lon="4.54452">
        <ele>661.9</ele>
        <time>1970-01-01T01:44:48.000Z</time>
      </trkpt>
      <trkpt lat="46.00043" lon="4.54451">
        <ele>661.6</ele>
        <time>1970-01-01T01:44:49.000Z</time>
      </trkpt>
      <trkpt lat="46.00043" lon="4.54451">
        <ele>661.6</ele>
        <time>1970-01-01T01:44:50.000Z</time>
      </trkpt>
      <trkpt lat="46.00046" lon="4.54449">
        <ele>661.4</ele>
        <time>1970-01-01T01:44:51.000Z</time>
      </trkpt>
      <trkpt lat="46.00046" lon="4.54449">
        <ele>661.4</ele>
        <time>1970-01-01T01:44:52.000Z</time>
      </trkpt>
      <trkpt lat="46.00048" lon="4.54448">
        <ele>661.1</ele>
        <time>1970-01-01T01:44:53.000Z</time>
      </trkpt>
      <trkpt lat="46.00048" lon="4.54448">
        <ele>661.1</ele>
        <time>1970-01-01T01:44:54.000Z</time>
      </trkpt>
      <trkpt lat="46.0005" lon="4.54446">
        <ele>660.8</ele>
        <time>1970-01-01T01:44:55.000Z</time>
      </trkpt>
      <trkpt lat="46.0005" lon="4.54446">
        <ele>660.8</ele>
        <time>1970-01-01T01:44:56.000Z</time>
      </trkpt>
      <trkpt lat="46.00053" lon="4.54444">
        <ele>660.5</ele>
        <time>1970-01-01T01:44:57.000Z</time>
      </trkpt>
      <trkpt lat="46.00053" lon="4.54444">
        <ele>660.5</ele>
        <time>1970-01-01T01:44:58.000Z</time>
      </trkpt>
      <trkpt lat="46.00055" lon="4.54443">
        <ele>660.3</ele>
        <time>1970-01-01T01:44:59.000Z</time>
      </trkpt>
      <trkpt lat="46.00057" lon="4.54442">
        <ele>660.1</ele>
        <time>1970-01-01T01:45:00.000Z</time>
      </trkpt>
      <trkpt lat="46.00058" lon="4.54441">
        <ele>660</ele>
        <time>1970-01-01T01:45:01.000Z</time>
      </trkpt>
      <trkpt lat="46.00059" lon="4.5444">
        <ele>659.9</ele>
        <time>1970-01-01T01:45:02.000Z</time>
      </trkpt>
      <trkpt lat="46.00059" lon="4.5444">
        <ele>659.9</ele>
        <time>1970-01-01T01:45:03.000Z</time>
      </trkpt>
      <trkpt lat="46.00062" lon="4.54438">
        <ele>659.6</ele>
        <time>1970-01-01T01:45:04.000Z</time>
      </trkpt>
      <trkpt lat="46.00062" lon="4.54438">
        <ele>659.6</ele>
        <time>1970-01-01T01:45:05.000Z</time>
      </trkpt>
      <trkpt lat="46.00064" lon="4.54436">
        <ele>659.4</ele>
        <time>1970-01-01T01:45:06.000Z</time>
      </trkpt>
      <trkpt lat="46.00064" lon="4.54436">
        <ele>659.4</ele>
        <time>1970-01-01T01:45:07.000Z</time>
      </trkpt>
      <trkpt lat="46.00066" lon="4.54435">
        <ele>659.2</ele>
        <time>1970-01-01T01:45:08.000Z</time>
      </trkpt>
      <trkpt lat="46.00066" lon="4.54435">
        <ele>659.2</ele>
        <time>1970-01-01T01:45:09.000Z</time>
      </trkpt>
      <trkpt lat="46.00068" lon="4.54433">
        <ele>659</ele>
        <time>1970-01-01T01:45:10.000Z</time>
      </trkpt>
      <trkpt lat="46.00068" lon="4.54433">
        <ele>659</ele>
        <time>1970-01-01T01:45:11.000Z</time>
      </trkpt>
      <trkpt lat="46.0007" lon="4.54432">
        <ele>658.8</ele>
        <time>1970-01-01T01:45:12.000Z</time>
      </trkpt>
      <trkpt lat="46.0007" lon="4.54432">
        <ele>658.8</ele>
        <time>1970-01-01T01:45:13.000Z</time>
      </trkpt>
      <trkpt lat="46.00072" lon="4.54431">
        <ele>658.6</ele>
        <time>1970-01-01T01:45:14.000Z</time>
      </trkpt>
      <trkpt lat="46.00072" lon="4.54431">
        <ele>658.6</ele>
        <time>1970-01-01T01:45:15.000Z</time>
      </trkpt>
      <trkpt lat="46.00074" lon="4.5443">
        <ele>658.4</ele>
        <time>1970-01-01T01:45:16.000Z</time>
      </trkpt>
      <trkpt lat="46.00074" lon="4.5443">
        <ele>658.4</ele>
        <time>1970-01-01T01:45:17.000Z</time>
      </trkpt>
      <trkpt lat="46.00077" lon="4.54428">
        <ele>658.2</ele>
        <time>1970-01-01T01:45:18.000Z</time>
      </trkpt>
      <trkpt lat="46.00077" lon="4.54428">
        <ele>658.2</ele>
        <time>1970-01-01T01:45:19.000Z</time>
      </trkpt>
      <trkpt lat="46.00079" lon="4.54427">
        <ele>658</ele>
        <time>1970-01-01T01:45:20.000Z</time>
      </trkpt>
      <trkpt lat="46.00079" lon="4.54427">
        <ele>658</ele>
        <time>1970-01-01T01:45:21.000Z</time>
      </trkpt>
      <trkpt lat="46.00082" lon="4.54426">
        <ele>657.7</ele>
        <time>1970-01-01T01:45:22.000Z</time>
      </trkpt>
      <trkpt lat="46.00082" lon="4.54426">
        <ele>657.7</ele>
        <time>1970-01-01T01:45:23.000Z</time>
      </trkpt>
      <trkpt lat="46.00085" lon="4.54426">
        <ele>657.5</ele>
        <time>1970-01-01T01:45:24.000Z</time>
      </trkpt>
      <trkpt lat="46.00085" lon="4.54426">
        <ele>657.5</ele>
        <time>1970-01-01T01:45:25.000Z</time>
      </trkpt>
      <trkpt lat="46.00087" lon="4.54425">
        <ele>657.3</ele>
        <time>1970-01-01T01:45:26.000Z</time>
      </trkpt>
      <trkpt lat="46.00087" lon="4.54425">
        <ele>657.3</ele>
        <time>1970-01-01T01:45:27.000Z</time>
      </trkpt>
      <trkpt lat="46.00089" lon="4.54425">
        <ele>657.1</ele>
        <time>1970-01-01T01:45:28.000Z</time>
      </trkpt>
      <trkpt lat="46.00089" lon="4.54425">
        <ele>657.1</ele>
        <time>1970-01-01T01:45:29.000Z</time>
      </trkpt>
      <trkpt lat="46.00091" lon="4.54424">
        <ele>656.9</ele>
        <time>1970-01-01T01:45:30.000Z</time>
      </trkpt>
      <trkpt lat="46.00091" lon="4.54424">
        <ele>656.9</ele>
        <time>1970-01-01T01:45:31.000Z</time>
      </trkpt>
      <trkpt lat="46.00093" lon="4.54423">
        <ele>656.6</ele>
        <time>1970-01-01T01:45:32.000Z</time>
      </trkpt>
      <trkpt lat="46.00093" lon="4.54423">
        <ele>656.6</ele>
        <time>1970-01-01T01:45:33.000Z</time>
      </trkpt>
      <trkpt lat="46.00095" lon="4.54423">
        <ele>656.4</ele>
        <time>1970-01-01T01:45:34.000Z</time>
      </trkpt>
      <trkpt lat="46.00095" lon="4.54423">
        <ele>656.4</ele>
        <time>1970-01-01T01:45:35.000Z</time>
      </trkpt>
      <trkpt lat="46.00097" lon="4.54422">
        <ele>656.2</ele>
        <time>1970-01-01T01:45:36.000Z</time>
      </trkpt>
      <trkpt lat="46.00097" lon="4.54422">
        <ele>656.2</ele>
        <time>1970-01-01T01:45:37.000Z</time>
      </trkpt>
      <trkpt lat="46.00099" lon="4.54421">
        <ele>656</ele>
        <time>1970-01-01T01:45:38.000Z</time>
      </trkpt>
      <trkpt lat="46.00099" lon="4.54421">
        <ele>656</ele>
        <time>1970-01-01T01:45:39.000Z</time>
      </trkpt>
      <trkpt lat="46.00101" lon="4.54419">
        <ele>655.8</ele>
        <time>1970-01-01T01:45:40.000Z</time>
      </trkpt>
      <trkpt lat="46.00101" lon="4.54419">
        <ele>655.8</ele>
        <time>1970-01-01T01:45:41.000Z</time>
      </trkpt>
      <trkpt lat="46.00102" lon="4.54417">
        <ele>655.6</ele>
        <time>1970-01-01T01:45:42.000Z</time>
      </trkpt>
      <trkpt lat="46.00102" lon="4.54417">
        <ele>655.6</ele>
        <time>1970-01-01T01:45:43.000Z</time>
      </trkpt>
      <trkpt lat="46.00104" lon="4.54415">
        <ele>655.3</ele>
        <time>1970-01-01T01:45:44.000Z</time>
      </trkpt>
      <trkpt lat="46.00104" lon="4.54415">
        <ele>655.3</ele>
        <time>1970-01-01T01:45:45.000Z</time>
      </trkpt>
      <trkpt lat="46.00105" lon="4.54412">
        <ele>655.1</ele>
        <time>1970-01-01T01:45:46.000Z</time>
      </trkpt>
      <trkpt lat="46.00105" lon="4.54412">
        <ele>655.1</ele>
        <time>1970-01-01T01:45:47.000Z</time>
      </trkpt>
      <trkpt lat="46.00106" lon="4.54409">
        <ele>654.8</ele>
        <time>1970-01-01T01:45:48.000Z</time>
      </trkpt>
      <trkpt lat="46.00106" lon="4.54409">
        <ele>654.8</ele>
        <time>1970-01-01T01:45:49.000Z</time>
      </trkpt>
      <trkpt lat="46.00107" lon="4.54405">
        <ele>654.5</ele>
        <time>1970-01-01T01:45:50.000Z</time>
      </trkpt>
      <trkpt lat="46.00107" lon="4.54405">
        <ele>654.5</ele>
        <time>1970-01-01T01:45:51.000Z</time>
      </trkpt>
      <trkpt lat="46.00108" lon="4.54402">
        <ele>654.3</ele>
        <time>1970-01-01T01:45:52.000Z</time>
      </trkpt>
      <trkpt lat="46.00108" lon="4.54402">
        <ele>654.3</ele>
        <time>1970-01-01T01:45:53.000Z</time>
      </trkpt>
      <trkpt lat="46.0011" lon="4.544">
        <ele>654</ele>
        <time>1970-01-01T01:45:54.000Z</time>
      </trkpt>
      <trkpt lat="46.0011" lon="4.544">
        <ele>654</ele>
        <time>1970-01-01T01:45:55.000Z</time>
      </trkpt>
      <trkpt lat="46.0011" lon="4.54397">
        <ele>653.8</ele>
        <time>1970-01-01T01:45:56.000Z</time>
      </trkpt>
      <trkpt lat="46.0011" lon="4.54397">
        <ele>653.8</ele>
        <time>1970-01-01T01:45:57.000Z</time>
      </trkpt>
      <trkpt lat="46.00111" lon="4.54395">
        <ele>653.6</ele>
        <time>1970-01-01T01:45:58.000Z</time>
      </trkpt>
      <trkpt lat="46.00111" lon="4.54395">
        <ele>653.6</ele>
        <time>1970-01-01T01:45:59.000Z</time>
      </trkpt>
      <trkpt lat="46.00112" lon="4.54392">
        <ele>653.4</ele>
        <time>1970-01-01T01:46:00.000Z</time>
      </trkpt>
      <trkpt lat="46.00112" lon="4.54392">
        <ele>653.4</ele>
        <time>1970-01-01T01:46:01.000Z</time>
      </trkpt>
      <trkpt lat="46.00113" lon="4.54388">
        <ele>653.1</ele>
        <time>1970-01-01T01:46:02.000Z</time>
      </trkpt>
      <trkpt lat="46.00113" lon="4.54388">
        <ele>653.1</ele>
        <time>1970-01-01T01:46:03.000Z</time>
      </trkpt>
      <trkpt lat="46.00113" lon="4.54385">
        <ele>652.9</ele>
        <time>1970-01-01T01:46:04.000Z</time>
      </trkpt>
      <trkpt lat="46.00113" lon="4.54385">
        <ele>652.9</ele>
        <time>1970-01-01T01:46:05.000Z</time>
      </trkpt>
      <trkpt lat="46.00113" lon="4.54385">
        <ele>652.9</ele>
        <time>1970-01-01T01:46:06.000Z</time>
      </trkpt>
      <trkpt lat="46.00114" lon="4.54381">
        <ele>652.7</ele>
        <time>1970-01-01T01:46:07.000Z</time>
      </trkpt>
      <trkpt lat="46.00114" lon="4.54381">
        <ele>652.7</ele>
        <time>1970-01-01T01:46:08.000Z</time>
      </trkpt>
      <trkpt lat="46.00114" lon="4.54379">
        <ele>652.6</ele>
        <time>1970-01-01T01:46:09.000Z</time>
      </trkpt>
      <trkpt lat="46.00114" lon="4.54379">
        <ele>652.6</ele>
        <time>1970-01-01T01:46:10.000Z</time>
      </trkpt>
      <trkpt lat="46.00114" lon="4.54379">
        <ele>652.6</ele>
        <time>1970-01-01T01:46:11.000Z</time>
      </trkpt>
      <trkpt lat="46.00114" lon="4.54375">
        <ele>652.4</ele>
        <time>1970-01-01T01:46:12.000Z</time>
      </trkpt>
      <trkpt lat="46.00114" lon="4.54375">
        <ele>652.4</ele>
        <time>1970-01-01T01:46:13.000Z</time>
      </trkpt>
      <trkpt lat="46.00114" lon="4.54375">
        <ele>652.4</ele>
        <time>1970-01-01T01:46:14.000Z</time>
      </trkpt>
      <trkpt lat="46.00116" lon="4.54371">
        <ele>652.2</ele>
        <time>1970-01-01T01:46:15.000Z</time>
      </trkpt>
      <trkpt lat="46.00116" lon="4.54371">
        <ele>652.2</ele>
        <time>1970-01-01T01:46:16.000Z</time>
      </trkpt>
      <trkpt lat="46.00117" lon="4.54368">
        <ele>652</ele>
        <time>1970-01-01T01:46:17.000Z</time>
      </trkpt>
      <trkpt lat="46.00117" lon="4.54368">
        <ele>652</ele>
        <time>1970-01-01T01:46:18.000Z</time>
      </trkpt>
      <trkpt lat="46.00118" lon="4.54365">
        <ele>651.9</ele>
        <time>1970-01-01T01:46:19.000Z</time>
      </trkpt>
      <trkpt lat="46.00118" lon="4.54365">
        <ele>651.9</ele>
        <time>1970-01-01T01:46:20.000Z</time>
      </trkpt>
      <trkpt lat="46.00119" lon="4.54361">
        <ele>651.7</ele>
        <time>1970-01-01T01:46:21.000Z</time>
      </trkpt>
      <trkpt lat="46.00119" lon="4.54361">
        <ele>651.7</ele>
        <time>1970-01-01T01:46:22.000Z</time>
      </trkpt>
      <trkpt lat="46.0012" lon="4.54357">
        <ele>651.6</ele>
        <time>1970-01-01T01:46:23.000Z</time>
      </trkpt>
      <trkpt lat="46.0012" lon="4.54357">
        <ele>651.6</ele>
        <time>1970-01-01T01:46:24.000Z</time>
      </trkpt>
      <trkpt lat="46.0012" lon="4.54357">
        <ele>651.6</ele>
        <time>1970-01-01T01:46:25.000Z</time>
      </trkpt>
      <trkpt lat="46.0012" lon="4.54351">
        <ele>651.4</ele>
        <time>1970-01-01T01:46:26.000Z</time>
      </trkpt>
      <trkpt lat="46.0012" lon="4.54351">
        <ele>651.4</ele>
        <time>1970-01-01T01:46:27.000Z</time>
      </trkpt>
      <trkpt lat="46.00121" lon="4.54348">
        <ele>651.2</ele>
        <time>1970-01-01T01:46:28.000Z</time>
      </trkpt>
      <trkpt lat="46.00121" lon="4.54348">
        <ele>651.2</ele>
        <time>1970-01-01T01:46:29.000Z</time>
      </trkpt>
      <trkpt lat="46.00121" lon="4.54344">
        <ele>651.1</ele>
        <time>1970-01-01T01:46:30.000Z</time>
      </trkpt>
      <trkpt lat="46.00121" lon="4.54342">
        <ele>651</ele>
        <time>1970-01-01T01:46:31.000Z</time>
      </trkpt>
      <trkpt lat="46.00121" lon="4.54341">
        <ele>650.9</ele>
        <time>1970-01-01T01:46:32.000Z</time>
      </trkpt>
      <trkpt lat="46.00122" lon="4.54339">
        <ele>650.9</ele>
        <time>1970-01-01T01:46:33.000Z</time>
      </trkpt>
      <trkpt lat="46.00122" lon="4.54337">
        <ele>650.8</ele>
        <time>1970-01-01T01:46:34.000Z</time>
      </trkpt>
      <trkpt lat="46.00122" lon="4.54336">
        <ele>650.8</ele>
        <time>1970-01-01T01:46:35.000Z</time>
      </trkpt>
      <trkpt lat="46.00122" lon="4.54334">
        <ele>650.7</ele>
        <time>1970-01-01T01:46:36.000Z</time>
      </trkpt>
      <trkpt lat="46.00122" lon="4.54332">
        <ele>650.6</ele>
        <time>1970-01-01T01:46:37.000Z</time>
      </trkpt>
      <trkpt lat="46.00122" lon="4.54331">
        <ele>650.6</ele>
        <time>1970-01-01T01:46:38.000Z</time>
      </trkpt>
      <trkpt lat="46.00123" lon="4.54329">
        <ele>650.5</ele>
        <time>1970-01-01T01:46:39.000Z</time>
      </trkpt>
      <trkpt lat="46.00123" lon="4.54327">
        <ele>650.4</ele>
        <time>1970-01-01T01:46:40.000Z</time>
      </trkpt>
      <trkpt lat="46.00124" lon="4.54326">
        <ele>650.4</ele>
        <time>1970-01-01T01:46:41.000Z</time>
      </trkpt>
      <trkpt lat="46.00125" lon="4.54324">
        <ele>650.3</ele>
        <time>1970-01-01T01:46:42.000Z</time>
      </trkpt>
      <trkpt lat="46.00125" lon="4.54322">
        <ele>650.2</ele>
        <time>1970-01-01T01:46:43.000Z</time>
      </trkpt>
      <trkpt lat="46.00126" lon="4.54321">
        <ele>650.1</ele>
        <time>1970-01-01T01:46:44.000Z</time>
      </trkpt>
      <trkpt lat="46.00126" lon="4.5432">
        <ele>650.1</ele>
        <time>1970-01-01T01:46:45.000Z</time>
      </trkpt>
      <trkpt lat="46.00126" lon="4.54319">
        <ele>650</ele>
        <time>1970-01-01T01:46:46.000Z</time>
      </trkpt>
      <trkpt lat="46.00126" lon="4.54318">
        <ele>650</ele>
        <time>1970-01-01T01:46:47.000Z</time>
      </trkpt>
      <trkpt lat="46.00127" lon="4.54317">
        <ele>650</ele>
        <time>1970-01-01T01:46:48.000Z</time>
      </trkpt>
      <trkpt lat="46.00127" lon="4.54316">
        <ele>649.9</ele>
        <time>1970-01-01T01:46:49.000Z</time>
      </trkpt>
      <trkpt lat="46.00127" lon="4.54315">
        <ele>649.9</ele>
        <time>1970-01-01T01:46:50.000Z</time>
      </trkpt>
      <trkpt lat="46.00127" lon="4.54314">
        <ele>649.9</ele>
        <time>1970-01-01T01:46:51.000Z</time>
      </trkpt>
      <trkpt lat="46.00127" lon="4.54314">
        <ele>649.8</ele>
        <time>1970-01-01T01:46:52.000Z</time>
      </trkpt>
      <trkpt lat="46.00129" lon="4.54305">
        <ele>649.4</ele>
        <time>1970-01-01T01:46:53.000Z</time>
      </trkpt>
      <trkpt lat="46.0013" lon="4.54304">
        <ele>649.3</ele>
        <time>1970-01-01T01:46:54.000Z</time>
      </trkpt>
      <trkpt lat="46.0013" lon="4.54302">
        <ele>649.3</ele>
        <time>1970-01-01T01:46:55.000Z</time>
      </trkpt>
      <trkpt lat="46.00131" lon="4.54301">
        <ele>649.2</ele>
        <time>1970-01-01T01:46:56.000Z</time>
      </trkpt>
      <trkpt lat="46.00132" lon="4.543">
        <ele>649.1</ele>
        <time>1970-01-01T01:46:57.000Z</time>
      </trkpt>
      <trkpt lat="46.00132" lon="4.54298">
        <ele>649</ele>
        <time>1970-01-01T01:46:58.000Z</time>
      </trkpt>
      <trkpt lat="46.00133" lon="4.54297">
        <ele>648.9</ele>
        <time>1970-01-01T01:46:59.000Z</time>
      </trkpt>
      <trkpt lat="46.00134" lon="4.54296">
        <ele>648.9</ele>
        <time>1970-01-01T01:47:00.000Z</time>
      </trkpt>
      <trkpt lat="46.00134" lon="4.54293">
        <ele>648.8</ele>
        <time>1970-01-01T01:47:01.000Z</time>
      </trkpt>
      <trkpt lat="46.00135" lon="4.54291">
        <ele>648.6</ele>
        <time>1970-01-01T01:47:02.000Z</time>
      </trkpt>
      <trkpt lat="46.00135" lon="4.54289">
        <ele>648.5</ele>
        <time>1970-01-01T01:47:03.000Z</time>
      </trkpt>
      <trkpt lat="46.00135" lon="4.54287">
        <ele>648.4</ele>
        <time>1970-01-01T01:47:04.000Z</time>
      </trkpt>
      <trkpt lat="46.00136" lon="4.54284">
        <ele>648.3</ele>
        <time>1970-01-01T01:47:05.000Z</time>
      </trkpt>
      <trkpt lat="46.00136" lon="4.54282">
        <ele>648.2</ele>
        <time>1970-01-01T01:47:06.000Z</time>
      </trkpt>
      <trkpt lat="46.00137" lon="4.54281">
        <ele>648.1</ele>
        <time>1970-01-01T01:47:07.000Z</time>
      </trkpt>
      <trkpt lat="46.00138" lon="4.54279">
        <ele>648</ele>
        <time>1970-01-01T01:47:08.000Z</time>
      </trkpt>
      <trkpt lat="46.00138" lon="4.54277">
        <ele>647.9</ele>
        <time>1970-01-01T01:47:09.000Z</time>
      </trkpt>
      <trkpt lat="46.00139" lon="4.54276">
        <ele>647.8</ele>
        <time>1970-01-01T01:47:10.000Z</time>
      </trkpt>
      <trkpt lat="46.0014" lon="4.54274">
        <ele>647.7</ele>
        <time>1970-01-01T01:47:11.000Z</time>
      </trkpt>
      <trkpt lat="46.0014" lon="4.54272">
        <ele>647.6</ele>
        <time>1970-01-01T01:47:12.000Z</time>
      </trkpt>
      <trkpt lat="46.00141" lon="4.54271">
        <ele>647.5</ele>
        <time>1970-01-01T01:47:13.000Z</time>
      </trkpt>
      <trkpt lat="46.00141" lon="4.54269">
        <ele>647.4</ele>
        <time>1970-01-01T01:47:14.000Z</time>
      </trkpt>
      <trkpt lat="46.00141" lon="4.54267">
        <ele>647.3</ele>
        <time>1970-01-01T01:47:15.000Z</time>
      </trkpt>
      <trkpt lat="46.00142" lon="4.54265">
        <ele>647.2</ele>
        <time>1970-01-01T01:47:16.000Z</time>
      </trkpt>
      <trkpt lat="46.00142" lon="4.54264">
        <ele>647.1</ele>
        <time>1970-01-01T01:47:17.000Z</time>
      </trkpt>
      <trkpt lat="46.00142" lon="4.54262">
        <ele>647</ele>
        <time>1970-01-01T01:47:18.000Z</time>
      </trkpt>
      <trkpt lat="46.00142" lon="4.5426">
        <ele>646.9</ele>
        <time>1970-01-01T01:47:19.000Z</time>
      </trkpt>
      <trkpt lat="46.00143" lon="4.54258">
        <ele>646.8</ele>
        <time>1970-01-01T01:47:20.000Z</time>
      </trkpt>
      <trkpt lat="46.00143" lon="4.54258">
        <ele>646.8</ele>
        <time>1970-01-01T01:47:21.000Z</time>
      </trkpt>
      <trkpt lat="46.00143" lon="4.54255">
        <ele>646.7</ele>
        <time>1970-01-01T01:47:22.000Z</time>
      </trkpt>
      <trkpt lat="46.00144" lon="4.54253">
        <ele>646.5</ele>
        <time>1970-01-01T01:47:23.000Z</time>
      </trkpt>
      <trkpt lat="46.00145" lon="4.54252">
        <ele>646.4</ele>
        <time>1970-01-01T01:47:24.000Z</time>
      </trkpt>
      <trkpt lat="46.00146" lon="4.5425">
        <ele>646.3</ele>
        <time>1970-01-01T01:47:25.000Z</time>
      </trkpt>
      <trkpt lat="46.00146" lon="4.5425">
        <ele>646.3</ele>
        <time>1970-01-01T01:47:26.000Z</time>
      </trkpt>
      <trkpt lat="46.00147" lon="4.54247">
        <ele>646.1</ele>
        <time>1970-01-01T01:47:27.000Z</time>
      </trkpt>
      <trkpt lat="46.00147" lon="4.54247">
        <ele>646.1</ele>
        <time>1970-01-01T01:47:28.000Z</time>
      </trkpt>
      <trkpt lat="46.00149" lon="4.54245">
        <ele>645.9</ele>
        <time>1970-01-01T01:47:29.000Z</time>
      </trkpt>
      <trkpt lat="46.00149" lon="4.54245">
        <ele>645.9</ele>
        <time>1970-01-01T01:47:30.000Z</time>
      </trkpt>
      <trkpt lat="46.0015" lon="4.54243">
        <ele>645.7</ele>
        <time>1970-01-01T01:47:31.000Z</time>
      </trkpt>
      <trkpt lat="46.0015" lon="4.54243">
        <ele>645.7</ele>
        <time>1970-01-01T01:47:32.000Z</time>
      </trkpt>
      <trkpt lat="46.00152" lon="4.54241">
        <ele>645.5</ele>
        <time>1970-01-01T01:47:33.000Z</time>
      </trkpt>
      <trkpt lat="46.00152" lon="4.54241">
        <ele>645.5</ele>
        <time>1970-01-01T01:47:34.000Z</time>
      </trkpt>
      <trkpt lat="46.00153" lon="4.54238">
        <ele>645.2</ele>
        <time>1970-01-01T01:47:35.000Z</time>
      </trkpt>
      <trkpt lat="46.00153" lon="4.54238">
        <ele>645.2</ele>
        <time>1970-01-01T01:47:36.000Z</time>
      </trkpt>
      <trkpt lat="46.00155" lon="4.54235">
        <ele>645</ele>
        <time>1970-01-01T01:47:37.000Z</time>
      </trkpt>
      <trkpt lat="46.00155" lon="4.54235">
        <ele>645</ele>
        <time>1970-01-01T01:47:38.000Z</time>
      </trkpt>
      <trkpt lat="46.00155" lon="4.54233">
        <ele>644.8</ele>
        <time>1970-01-01T01:47:39.000Z</time>
      </trkpt>
      <trkpt lat="46.00155" lon="4.54233">
        <ele>644.8</ele>
        <time>1970-01-01T01:47:40.000Z</time>
      </trkpt>
      <trkpt lat="46.00156" lon="4.5423">
        <ele>644.5</ele>
        <time>1970-01-01T01:47:41.000Z</time>
      </trkpt>
      <trkpt lat="46.00156" lon="4.5423">
        <ele>644.5</ele>
        <time>1970-01-01T01:47:42.000Z</time>
      </trkpt>
      <trkpt lat="46.00158" lon="4.54227">
        <ele>644.3</ele>
        <time>1970-01-01T01:47:43.000Z</time>
      </trkpt>
      <trkpt lat="46.00158" lon="4.54227">
        <ele>644.3</ele>
        <time>1970-01-01T01:47:44.000Z</time>
      </trkpt>
      <trkpt lat="46.00158" lon="4.54224">
        <ele>644</ele>
        <time>1970-01-01T01:47:45.000Z</time>
      </trkpt>
      <trkpt lat="46.00158" lon="4.54224">
        <ele>644</ele>
        <time>1970-01-01T01:47:46.000Z</time>
      </trkpt>
      <trkpt lat="46.00159" lon="4.54221">
        <ele>643.8</ele>
        <time>1970-01-01T01:47:47.000Z</time>
      </trkpt>
      <trkpt lat="46.00159" lon="4.54221">
        <ele>643.8</ele>
        <time>1970-01-01T01:47:48.000Z</time>
      </trkpt>
      <trkpt lat="46.00161" lon="4.54219">
        <ele>643.5</ele>
        <time>1970-01-01T01:47:49.000Z</time>
      </trkpt>
      <trkpt lat="46.00161" lon="4.54219">
        <ele>643.5</ele>
        <time>1970-01-01T01:47:50.000Z</time>
      </trkpt>
      <trkpt lat="46.00161" lon="4.54219">
        <ele>643.5</ele>
        <time>1970-01-01T01:47:51.000Z</time>
      </trkpt>
      <trkpt lat="46.00162" lon="4.54216">
        <ele>643.2</ele>
        <time>1970-01-01T01:47:52.000Z</time>
      </trkpt>
      <trkpt lat="46.00162" lon="4.54216">
        <ele>643.2</ele>
        <time>1970-01-01T01:47:53.000Z</time>
      </trkpt>
      <trkpt lat="46.00163" lon="4.54214">
        <ele>643</ele>
        <time>1970-01-01T01:47:54.000Z</time>
      </trkpt>
      <trkpt lat="46.00163" lon="4.54214">
        <ele>643</ele>
        <time>1970-01-01T01:47:55.000Z</time>
      </trkpt>
      <trkpt lat="46.00164" lon="4.54211">
        <ele>642.7</ele>
        <time>1970-01-01T01:47:56.000Z</time>
      </trkpt>
      <trkpt lat="46.00164" lon="4.54211">
        <ele>642.7</ele>
        <time>1970-01-01T01:47:57.000Z</time>
      </trkpt>
      <trkpt lat="46.00165" lon="4.54207">
        <ele>642.4</ele>
        <time>1970-01-01T01:47:58.000Z</time>
      </trkpt>
      <trkpt lat="46.00165" lon="4.54207">
        <ele>642.4</ele>
        <time>1970-01-01T01:47:59.000Z</time>
      </trkpt>
      <trkpt lat="46.00165" lon="4.54204">
        <ele>642.1</ele>
        <time>1970-01-01T01:48:00.000Z</time>
      </trkpt>
      <trkpt lat="46.00165" lon="4.54204">
        <ele>642.1</ele>
        <time>1970-01-01T01:48:01.000Z</time>
      </trkpt>
      <trkpt lat="46.00166" lon="4.54202">
        <ele>641.8</ele>
        <time>1970-01-01T01:48:02.000Z</time>
      </trkpt>
      <trkpt lat="46.00166" lon="4.54202">
        <ele>641.8</ele>
        <time>1970-01-01T01:48:03.000Z</time>
      </trkpt>
      <trkpt lat="46.00167" lon="4.54199">
        <ele>641.6</ele>
        <time>1970-01-01T01:48:04.000Z</time>
      </trkpt>
      <trkpt lat="46.00167" lon="4.54199">
        <ele>641.6</ele>
        <time>1970-01-01T01:48:05.000Z</time>
      </trkpt>
      <trkpt lat="46.00168" lon="4.54197">
        <ele>641.3</ele>
        <time>1970-01-01T01:48:06.000Z</time>
      </trkpt>
      <trkpt lat="46.00168" lon="4.54197">
        <ele>641.3</ele>
        <time>1970-01-01T01:48:07.000Z</time>
      </trkpt>
      <trkpt lat="46.00169" lon="4.54194">
        <ele>641.1</ele>
        <time>1970-01-01T01:48:08.000Z</time>
      </trkpt>
      <trkpt lat="46.00169" lon="4.54194">
        <ele>641.1</ele>
        <time>1970-01-01T01:48:09.000Z</time>
      </trkpt>
      <trkpt lat="46.0017" lon="4.54191">
        <ele>640.8</ele>
        <time>1970-01-01T01:48:10.000Z</time>
      </trkpt>
      <trkpt lat="46.0017" lon="4.54191">
        <ele>640.8</ele>
        <time>1970-01-01T01:48:11.000Z</time>
      </trkpt>
      <trkpt lat="46.00171" lon="4.54189">
        <ele>640.5</ele>
        <time>1970-01-01T01:48:12.000Z</time>
      </trkpt>
      <trkpt lat="46.00171" lon="4.54189">
        <ele>640.5</ele>
        <time>1970-01-01T01:48:13.000Z</time>
      </trkpt>
      <trkpt lat="46.00172" lon="4.54186">
        <ele>640.2</ele>
        <time>1970-01-01T01:48:14.000Z</time>
      </trkpt>
      <trkpt lat="46.00172" lon="4.54186">
        <ele>640.2</ele>
        <time>1970-01-01T01:48:15.000Z</time>
      </trkpt>
      <trkpt lat="46.00173" lon="4.54183">
        <ele>639.9</ele>
        <time>1970-01-01T01:48:16.000Z</time>
      </trkpt>
      <trkpt lat="46.00173" lon="4.54183">
        <ele>639.9</ele>
        <time>1970-01-01T01:48:17.000Z</time>
      </trkpt>
      <trkpt lat="46.00174" lon="4.5418">
        <ele>639.6</ele>
        <time>1970-01-01T01:48:18.000Z</time>
      </trkpt>
      <trkpt lat="46.00174" lon="4.5418">
        <ele>639.6</ele>
        <time>1970-01-01T01:48:19.000Z</time>
      </trkpt>
      <trkpt lat="46.00175" lon="4.54177">
        <ele>639.3</ele>
        <time>1970-01-01T01:48:20.000Z</time>
      </trkpt>
      <trkpt lat="46.00175" lon="4.54177">
        <ele>639.3</ele>
        <time>1970-01-01T01:48:21.000Z</time>
      </trkpt>
      <trkpt lat="46.00176" lon="4.54174">
        <ele>639</ele>
        <time>1970-01-01T01:48:22.000Z</time>
      </trkpt>
      <trkpt lat="46.00176" lon="4.54174">
        <ele>639</ele>
        <time>1970-01-01T01:48:23.000Z</time>
      </trkpt>
      <trkpt lat="46.00177" lon="4.54172">
        <ele>638.7</ele>
        <time>1970-01-01T01:48:24.000Z</time>
      </trkpt>
      <trkpt lat="46.00177" lon="4.54172">
        <ele>638.7</ele>
        <time>1970-01-01T01:48:25.000Z</time>
      </trkpt>
      <trkpt lat="46.00177" lon="4.54169">
        <ele>638.4</ele>
        <time>1970-01-01T01:48:26.000Z</time>
      </trkpt>
      <trkpt lat="46.00177" lon="4.54169">
        <ele>638.4</ele>
        <time>1970-01-01T01:48:27.000Z</time>
      </trkpt>
      <trkpt lat="46.00178" lon="4.54167">
        <ele>638.1</ele>
        <time>1970-01-01T01:48:28.000Z</time>
      </trkpt>
      <trkpt lat="46.00178" lon="4.54167">
        <ele>638.1</ele>
        <time>1970-01-01T01:48:29.000Z</time>
      </trkpt>
      <trkpt lat="46.00178" lon="4.54167">
        <ele>638.1</ele>
        <time>1970-01-01T01:48:30.000Z</time>
      </trkpt>
      <trkpt lat="46.00179" lon="4.54164">
        <ele>637.7</ele>
        <time>1970-01-01T01:48:31.000Z</time>
      </trkpt>
      <trkpt lat="46.00179" lon="4.54164">
        <ele>637.7</ele>
        <time>1970-01-01T01:48:32.000Z</time>
      </trkpt>
      <trkpt lat="46.00179" lon="4.54164">
        <ele>637.7</ele>
        <time>1970-01-01T01:48:33.000Z</time>
      </trkpt>
      <trkpt lat="46.0018" lon="4.54161">
        <ele>637.3</ele>
        <time>1970-01-01T01:48:34.000Z</time>
      </trkpt>
      <trkpt lat="46.0018" lon="4.54161">
        <ele>637.3</ele>
        <time>1970-01-01T01:48:35.000Z</time>
      </trkpt>
      <trkpt lat="46.0018" lon="4.54161">
        <ele>637.3</ele>
        <time>1970-01-01T01:48:36.000Z</time>
      </trkpt>
      <trkpt lat="46.00181" lon="4.54157">
        <ele>636.8</ele>
        <time>1970-01-01T01:48:37.000Z</time>
      </trkpt>
      <trkpt lat="46.00181" lon="4.54157">
        <ele>636.8</ele>
        <time>1970-01-01T01:48:38.000Z</time>
      </trkpt>
      <trkpt lat="46.00182" lon="4.54154">
        <ele>636.4</ele>
        <time>1970-01-01T01:48:39.000Z</time>
      </trkpt>
      <trkpt lat="46.00182" lon="4.54154">
        <ele>636.4</ele>
        <time>1970-01-01T01:48:40.000Z</time>
      </trkpt>
      <trkpt lat="46.00182" lon="4.54151">
        <ele>636</ele>
        <time>1970-01-01T01:48:41.000Z</time>
      </trkpt>
      <trkpt lat="46.00182" lon="4.54151">
        <ele>636</ele>
        <time>1970-01-01T01:48:42.000Z</time>
      </trkpt>
      <trkpt lat="46.00183" lon="4.54148">
        <ele>635.5</ele>
        <time>1970-01-01T01:48:43.000Z</time>
      </trkpt>
      <trkpt lat="46.00183" lon="4.54148">
        <ele>635.5</ele>
        <time>1970-01-01T01:48:44.000Z</time>
      </trkpt>
      <trkpt lat="46.00184" lon="4.54145">
        <ele>633</ele>
        <time>1970-01-01T01:48:45.000Z</time>
      </trkpt>
      <trkpt lat="46.00184" lon="4.54145">
        <ele>633</ele>
        <time>1970-01-01T01:48:46.000Z</time>
      </trkpt>
      <trkpt lat="46.00185" lon="4.54142">
        <ele>632.9</ele>
        <time>1970-01-01T01:48:47.000Z</time>
      </trkpt>
      <trkpt lat="46.00185" lon="4.54142">
        <ele>632.9</ele>
        <time>1970-01-01T01:48:48.000Z</time>
      </trkpt>
      <trkpt lat="46.00185" lon="4.54139">
        <ele>632.7</ele>
        <time>1970-01-01T01:48:49.000Z</time>
      </trkpt>
      <trkpt lat="46.00185" lon="4.54139">
        <ele>632.7</ele>
        <time>1970-01-01T01:48:50.000Z</time>
      </trkpt>
      <trkpt lat="46.00185" lon="4.54139">
        <ele>632.7</ele>
        <time>1970-01-01T01:48:51.000Z</time>
      </trkpt>
      <trkpt lat="46.00183" lon="4.54139">
        <ele>632.6</ele>
        <time>1970-01-01T01:48:52.000Z</time>
      </trkpt>
      <trkpt lat="46.00183" lon="4.54139">
        <ele>632.6</ele>
        <time>1970-01-01T01:48:53.000Z</time>
      </trkpt>
      <trkpt lat="46.00182" lon="4.5414">
        <ele>632.5</ele>
        <time>1970-01-01T01:48:54.000Z</time>
      </trkpt>
      <trkpt lat="46.00182" lon="4.5414">
        <ele>632.5</ele>
        <time>1970-01-01T01:48:55.000Z</time>
      </trkpt>
      <trkpt lat="46.0018" lon="4.54141">
        <ele>632.3</ele>
        <time>1970-01-01T01:48:56.000Z</time>
      </trkpt>
      <trkpt lat="46.0018" lon="4.54141">
        <ele>632.3</ele>
        <time>1970-01-01T01:48:57.000Z</time>
      </trkpt>
      <trkpt lat="46.00178" lon="4.54143">
        <ele>632.1</ele>
        <time>1970-01-01T01:48:58.000Z</time>
      </trkpt>
      <trkpt lat="46.00178" lon="4.54143">
        <ele>632.1</ele>
        <time>1970-01-01T01:48:59.000Z</time>
      </trkpt>
      <trkpt lat="46.00176" lon="4.54145">
        <ele>632</ele>
        <time>1970-01-01T01:49:00.000Z</time>
      </trkpt>
      <trkpt lat="46.00176" lon="4.54145">
        <ele>632</ele>
        <time>1970-01-01T01:49:01.000Z</time>
      </trkpt>
      <trkpt lat="46.00176" lon="4.54145">
        <ele>632</ele>
        <time>1970-01-01T01:49:02.000Z</time>
      </trkpt>
      <trkpt lat="46.00174" lon="4.54147">
        <ele>631.8</ele>
        <time>1970-01-01T01:49:03.000Z</time>
      </trkpt>
      <trkpt lat="46.00174" lon="4.54147">
        <ele>631.8</ele>
        <time>1970-01-01T01:49:04.000Z</time>
      </trkpt>
      <trkpt lat="46.00174" lon="4.54147">
        <ele>631.8</ele>
        <time>1970-01-01T01:49:05.000Z</time>
      </trkpt>
      <trkpt lat="46.00172" lon="4.54149">
        <ele>631.5</ele>
        <time>1970-01-01T01:49:06.000Z</time>
      </trkpt>
      <trkpt lat="46.00172" lon="4.54149">
        <ele>631.5</ele>
        <time>1970-01-01T01:49:07.000Z</time>
      </trkpt>
      <trkpt lat="46.0017" lon="4.54151">
        <ele>631.3</ele>
        <time>1970-01-01T01:49:08.000Z</time>
      </trkpt>
      <trkpt lat="46.0017" lon="4.54151">
        <ele>631.3</ele>
        <time>1970-01-01T01:49:09.000Z</time>
      </trkpt>
      <trkpt lat="46.00169" lon="4.54153">
        <ele>631.1</ele>
        <time>1970-01-01T01:49:10.000Z</time>
      </trkpt>
      <trkpt lat="46.00169" lon="4.54153">
        <ele>631.1</ele>
        <time>1970-01-01T01:49:11.000Z</time>
      </trkpt>
      <trkpt lat="46.00167" lon="4.54155">
        <ele>630.9</ele>
        <time>1970-01-01T01:49:12.000Z</time>
      </trkpt>
      <trkpt lat="46.00167" lon="4.54155">
        <ele>630.9</ele>
        <time>1970-01-01T01:49:13.000Z</time>
      </trkpt>
      <trkpt lat="46.00165" lon="4.54158">
        <ele>630.6</ele>
        <time>1970-01-01T01:49:14.000Z</time>
      </trkpt>
      <trkpt lat="46.00165" lon="4.54158">
        <ele>630.6</ele>
        <time>1970-01-01T01:49:15.000Z</time>
      </trkpt>
      <trkpt lat="46.00163" lon="4.54159">
        <ele>630.4</ele>
        <time>1970-01-01T01:49:16.000Z</time>
      </trkpt>
      <trkpt lat="46.00163" lon="4.54159">
        <ele>630.4</ele>
        <time>1970-01-01T01:49:17.000Z</time>
      </trkpt>
      <trkpt lat="46.00161" lon="4.54161">
        <ele>630.1</ele>
        <time>1970-01-01T01:49:18.000Z</time>
      </trkpt>
      <trkpt lat="46.00161" lon="4.54161">
        <ele>630.1</ele>
        <time>1970-01-01T01:49:19.000Z</time>
      </trkpt>
      <trkpt lat="46.0016" lon="4.54163">
        <ele>629.9</ele>
        <time>1970-01-01T01:49:20.000Z</time>
      </trkpt>
      <trkpt lat="46.0016" lon="4.54163">
        <ele>629.9</ele>
        <time>1970-01-01T01:49:21.000Z</time>
      </trkpt>
      <trkpt lat="46.00158" lon="4.54165">
        <ele>629.7</ele>
        <time>1970-01-01T01:49:22.000Z</time>
      </trkpt>
      <trkpt lat="46.00158" lon="4.54165">
        <ele>629.7</ele>
        <time>1970-01-01T01:49:23.000Z</time>
      </trkpt>
      <trkpt lat="46.00158" lon="4.54165">
        <ele>629.7</ele>
        <time>1970-01-01T01:49:24.000Z</time>
      </trkpt>
      <trkpt lat="46.00155" lon="4.54168">
        <ele>629.3</ele>
        <time>1970-01-01T01:49:25.000Z</time>
      </trkpt>
      <trkpt lat="46.00155" lon="4.54168">
        <ele>629.3</ele>
        <time>1970-01-01T01:49:26.000Z</time>
      </trkpt>
      <trkpt lat="46.00153" lon="4.54169">
        <ele>629</ele>
        <time>1970-01-01T01:49:27.000Z</time>
      </trkpt>
      <trkpt lat="46.00153" lon="4.54169">
        <ele>629</ele>
        <time>1970-01-01T01:49:28.000Z</time>
      </trkpt>
      <trkpt lat="46.0015" lon="4.5417">
        <ele>628.7</ele>
        <time>1970-01-01T01:49:29.000Z</time>
      </trkpt>
      <trkpt lat="46.0015" lon="4.5417">
        <ele>628.7</ele>
        <time>1970-01-01T01:49:30.000Z</time>
      </trkpt>
      <trkpt lat="46.00148" lon="4.54172">
        <ele>628.5</ele>
        <time>1970-01-01T01:49:31.000Z</time>
      </trkpt>
      <trkpt lat="46.00148" lon="4.54172">
        <ele>628.5</ele>
        <time>1970-01-01T01:49:32.000Z</time>
      </trkpt>
      <trkpt lat="46.00146" lon="4.54173">
        <ele>628.1</ele>
        <time>1970-01-01T01:49:33.000Z</time>
      </trkpt>
      <trkpt lat="46.00146" lon="4.54173">
        <ele>628.1</ele>
        <time>1970-01-01T01:49:34.000Z</time>
      </trkpt>
      <trkpt lat="46.00143" lon="4.54175">
        <ele>627.8</ele>
        <time>1970-01-01T01:49:35.000Z</time>
      </trkpt>
      <trkpt lat="46.00143" lon="4.54175">
        <ele>627.8</ele>
        <time>1970-01-01T01:49:36.000Z</time>
      </trkpt>
      <trkpt lat="46.00142" lon="4.54176">
        <ele>627.6</ele>
        <time>1970-01-01T01:49:37.000Z</time>
      </trkpt>
      <trkpt lat="46.00142" lon="4.54176">
        <ele>627.6</ele>
        <time>1970-01-01T01:49:38.000Z</time>
      </trkpt>
      <trkpt lat="46.00139" lon="4.54177">
        <ele>627.3</ele>
        <time>1970-01-01T01:49:39.000Z</time>
      </trkpt>
      <trkpt lat="46.00139" lon="4.54177">
        <ele>627.3</ele>
        <time>1970-01-01T01:49:40.000Z</time>
      </trkpt>
      <trkpt lat="46.00139" lon="4.54177">
        <ele>627.3</ele>
        <time>1970-01-01T01:49:41.000Z</time>
      </trkpt>
      <trkpt lat="46.00137" lon="4.54178">
        <ele>627.1</ele>
        <time>1970-01-01T01:49:42.000Z</time>
      </trkpt>
      <trkpt lat="46.00137" lon="4.54178">
        <ele>627.1</ele>
        <time>1970-01-01T01:49:43.000Z</time>
      </trkpt>
      <trkpt lat="46.00136" lon="4.5418">
        <ele>626.8</ele>
        <time>1970-01-01T01:49:44.000Z</time>
      </trkpt>
      <trkpt lat="46.00136" lon="4.5418">
        <ele>626.8</ele>
        <time>1970-01-01T01:49:45.000Z</time>
      </trkpt>
      <trkpt lat="46.00134" lon="4.54182">
        <ele>626.6</ele>
        <time>1970-01-01T01:49:46.000Z</time>
      </trkpt>
      <trkpt lat="46.00134" lon="4.54182">
        <ele>626.6</ele>
        <time>1970-01-01T01:49:47.000Z</time>
      </trkpt>
      <trkpt lat="46.00132" lon="4.54183">
        <ele>626.3</ele>
        <time>1970-01-01T01:49:48.000Z</time>
      </trkpt>
      <trkpt lat="46.0013" lon="4.54184">
        <ele>626</ele>
        <time>1970-01-01T01:49:49.000Z</time>
      </trkpt>
      <trkpt lat="46.00129" lon="4.54185">
        <ele>625.8</ele>
        <time>1970-01-01T01:49:50.000Z</time>
      </trkpt>
      <trkpt lat="46.00127" lon="4.54187">
        <ele>625.6</ele>
        <time>1970-01-01T01:49:51.000Z</time>
      </trkpt>
      <trkpt lat="46.00126" lon="4.54188">
        <ele>625.4</ele>
        <time>1970-01-01T01:49:52.000Z</time>
      </trkpt>
      <trkpt lat="46.00124" lon="4.54188">
        <ele>625.1</ele>
        <time>1970-01-01T01:49:53.000Z</time>
      </trkpt>
      <trkpt lat="46.00124" lon="4.54188">
        <ele>625.1</ele>
        <time>1970-01-01T01:49:54.000Z</time>
      </trkpt>
      <trkpt lat="46.00121" lon="4.5419">
        <ele>624.6</ele>
        <time>1970-01-01T01:49:55.000Z</time>
      </trkpt>
      <trkpt lat="46.00121" lon="4.5419">
        <ele>624.6</ele>
        <time>1970-01-01T01:49:56.000Z</time>
      </trkpt>
      <trkpt lat="46.00119" lon="4.54192">
        <ele>624.2</ele>
        <time>1970-01-01T01:49:57.000Z</time>
      </trkpt>
      <trkpt lat="46.00119" lon="4.54192">
        <ele>624.2</ele>
        <time>1970-01-01T01:49:58.000Z</time>
      </trkpt>
      <trkpt lat="46.00116" lon="4.54192">
        <ele>623.8</ele>
        <time>1970-01-01T01:49:59.000Z</time>
      </trkpt>
      <trkpt lat="46.00116" lon="4.54192">
        <ele>623.8</ele>
        <time>1970-01-01T01:50:00.000Z</time>
      </trkpt>
      <trkpt lat="46.00114" lon="4.54192">
        <ele>623.2</ele>
        <time>1970-01-01T01:50:01.000Z</time>
      </trkpt>
      <trkpt lat="46.00114" lon="4.54192">
        <ele>623.2</ele>
        <time>1970-01-01T01:50:02.000Z</time>
      </trkpt>
      <trkpt lat="46.00112" lon="4.54193">
        <ele>622.7</ele>
        <time>1970-01-01T01:50:03.000Z</time>
      </trkpt>
      <trkpt lat="46.00112" lon="4.54193">
        <ele>622.7</ele>
        <time>1970-01-01T01:50:04.000Z</time>
      </trkpt>
      <trkpt lat="46.0011" lon="4.54194">
        <ele>622.3</ele>
        <time>1970-01-01T01:50:05.000Z</time>
      </trkpt>
      <trkpt lat="46.0011" lon="4.54194">
        <ele>622.3</ele>
        <time>1970-01-01T01:50:06.000Z</time>
      </trkpt>
      <trkpt lat="46.00108" lon="4.54196">
        <ele>621.9</ele>
        <time>1970-01-01T01:50:07.000Z</time>
      </trkpt>
      <trkpt lat="46.00108" lon="4.54196">
        <ele>621.9</ele>
        <time>1970-01-01T01:50:08.000Z</time>
      </trkpt>
      <trkpt lat="46.00108" lon="4.54196">
        <ele>621.9</ele>
        <time>1970-01-01T01:50:09.000Z</time>
      </trkpt>
      <trkpt lat="46.00108" lon="4.54196">
        <ele>621.9</ele>
        <time>1970-01-01T01:50:10.000Z</time>
      </trkpt>
      <trkpt lat="46.00106" lon="4.54198">
        <ele>621.4</ele>
        <time>1970-01-01T01:50:11.000Z</time>
      </trkpt>
      <trkpt lat="46.00106" lon="4.54198">
        <ele>621.4</ele>
        <time>1970-01-01T01:50:12.000Z</time>
      </trkpt>
      <trkpt lat="46.00104" lon="4.542">
        <ele>621</ele>
        <time>1970-01-01T01:50:13.000Z</time>
      </trkpt>
      <trkpt lat="46.00104" lon="4.542">
        <ele>621</ele>
        <time>1970-01-01T01:50:14.000Z</time>
      </trkpt>
      <trkpt lat="46.00102" lon="4.54203">
        <ele>620.5</ele>
        <time>1970-01-01T01:50:15.000Z</time>
      </trkpt>
      <trkpt lat="46.00102" lon="4.54203">
        <ele>620.5</ele>
        <time>1970-01-01T01:50:16.000Z</time>
      </trkpt>
      <trkpt lat="46.001" lon="4.54204">
        <ele>620.1</ele>
        <time>1970-01-01T01:50:17.000Z</time>
      </trkpt>
      <trkpt lat="46.001" lon="4.54204">
        <ele>620.1</ele>
        <time>1970-01-01T01:50:18.000Z</time>
      </trkpt>
      <trkpt lat="46.00098" lon="4.54205">
        <ele>619.8</ele>
        <time>1970-01-01T01:50:19.000Z</time>
      </trkpt>
      <trkpt lat="46.00098" lon="4.54205">
        <ele>619.8</ele>
        <time>1970-01-01T01:50:20.000Z</time>
      </trkpt>
      <trkpt lat="46.00097" lon="4.54206">
        <ele>619.5</ele>
        <time>1970-01-01T01:50:21.000Z</time>
      </trkpt>
      <trkpt lat="46.00097" lon="4.54206">
        <ele>619.5</ele>
        <time>1970-01-01T01:50:22.000Z</time>
      </trkpt>
      <trkpt lat="46.00095" lon="4.54208">
        <ele>619.1</ele>
        <time>1970-01-01T01:50:23.000Z</time>
      </trkpt>
      <trkpt lat="46.00095" lon="4.54208">
        <ele>619.1</ele>
        <time>1970-01-01T01:50:24.000Z</time>
      </trkpt>
      <trkpt lat="46.00093" lon="4.54209">
        <ele>618.8</ele>
        <time>1970-01-01T01:50:25.000Z</time>
      </trkpt>
      <trkpt lat="46.00093" lon="4.54209">
        <ele>618.8</ele>
        <time>1970-01-01T01:50:26.000Z</time>
      </trkpt>
      <trkpt lat="46.00093" lon="4.54209">
        <ele>618.8</ele>
        <time>1970-01-01T01:50:27.000Z</time>
      </trkpt>
      <trkpt lat="46.0009" lon="4.5421">
        <ele>618.4</ele>
        <time>1970-01-01T01:50:28.000Z</time>
      </trkpt>
      <trkpt lat="46.0009" lon="4.5421">
        <ele>618.4</ele>
        <time>1970-01-01T01:50:29.000Z</time>
      </trkpt>
      <trkpt lat="46.00088" lon="4.54212">
        <ele>618</ele>
        <time>1970-01-01T01:50:30.000Z</time>
      </trkpt>
      <trkpt lat="46.00088" lon="4.54212">
        <ele>618</ele>
        <time>1970-01-01T01:50:31.000Z</time>
      </trkpt>
      <trkpt lat="46.00085" lon="4.54214">
        <ele>617.5</ele>
        <time>1970-01-01T01:50:32.000Z</time>
      </trkpt>
      <trkpt lat="46.00085" lon="4.54214">
        <ele>617.5</ele>
        <time>1970-01-01T01:50:33.000Z</time>
      </trkpt>
      <trkpt lat="46.00084" lon="4.54215">
        <ele>617.2</ele>
        <time>1970-01-01T01:50:34.000Z</time>
      </trkpt>
      <trkpt lat="46.00084" lon="4.54215">
        <ele>617.2</ele>
        <time>1970-01-01T01:50:35.000Z</time>
      </trkpt>
      <trkpt lat="46.00082" lon="4.54216">
        <ele>616.9</ele>
        <time>1970-01-01T01:50:36.000Z</time>
      </trkpt>
      <trkpt lat="46.00082" lon="4.54216">
        <ele>616.9</ele>
        <time>1970-01-01T01:50:37.000Z</time>
      </trkpt>
      <trkpt lat="46.00082" lon="4.54216">
        <ele>616.9</ele>
        <time>1970-01-01T01:50:38.000Z</time>
      </trkpt>
      <trkpt lat="46.00081" lon="4.54218">
        <ele>616.6</ele>
        <time>1970-01-01T01:50:39.000Z</time>
      </trkpt>
      <trkpt lat="46.00081" lon="4.54218">
        <ele>616.6</ele>
        <time>1970-01-01T01:50:40.000Z</time>
      </trkpt>
      <trkpt lat="46.00079" lon="4.5422">
        <ele>616.2</ele>
        <time>1970-01-01T01:50:41.000Z</time>
      </trkpt>
      <trkpt lat="46.00079" lon="4.5422">
        <ele>616.2</ele>
        <time>1970-01-01T01:50:42.000Z</time>
      </trkpt>
      <trkpt lat="46.00077" lon="4.54222">
        <ele>615.9</ele>
        <time>1970-01-01T01:50:43.000Z</time>
      </trkpt>
      <trkpt lat="46.00077" lon="4.54222">
        <ele>615.9</ele>
        <time>1970-01-01T01:50:44.000Z</time>
      </trkpt>
      <trkpt lat="46.00077" lon="4.54222">
        <ele>615.9</ele>
        <time>1970-01-01T01:50:45.000Z</time>
      </trkpt>
      <trkpt lat="46.00074" lon="4.54224">
        <ele>615.5</ele>
        <time>1970-01-01T01:50:46.000Z</time>
      </trkpt>
      <trkpt lat="46.00074" lon="4.54224">
        <ele>615.5</ele>
        <time>1970-01-01T01:50:47.000Z</time>
      </trkpt>
      <trkpt lat="46.00072" lon="4.54226">
        <ele>615.2</ele>
        <time>1970-01-01T01:50:48.000Z</time>
      </trkpt>
      <trkpt lat="46.00072" lon="4.54226">
        <ele>615.2</ele>
        <time>1970-01-01T01:50:49.000Z</time>
      </trkpt>
      <trkpt lat="46.0007" lon="4.54229">
        <ele>614.8</ele>
        <time>1970-01-01T01:50:50.000Z</time>
      </trkpt>
      <trkpt lat="46.0007" lon="4.54229">
        <ele>614.8</ele>
        <time>1970-01-01T01:50:51.000Z</time>
      </trkpt>
      <trkpt lat="46.00068" lon="4.54231">
        <ele>614.5</ele>
        <time>1970-01-01T01:50:52.000Z</time>
      </trkpt>
      <trkpt lat="46.00068" lon="4.54231">
        <ele>614.5</ele>
        <time>1970-01-01T01:50:53.000Z</time>
      </trkpt>
      <trkpt lat="46.00067" lon="4.54233">
        <ele>614.2</ele>
        <time>1970-01-01T01:50:54.000Z</time>
      </trkpt>
      <trkpt lat="46.00067" lon="4.54233">
        <ele>614.2</ele>
        <time>1970-01-01T01:50:55.000Z</time>
      </trkpt>
      <trkpt lat="46.00065" lon="4.54235">
        <ele>614</ele>
        <time>1970-01-01T01:50:56.000Z</time>
      </trkpt>
      <trkpt lat="46.00065" lon="4.54235">
        <ele>614</ele>
        <time>1970-01-01T01:50:57.000Z</time>
      </trkpt>
      <trkpt lat="46.00065" lon="4.54235">
        <ele>614</ele>
        <time>1970-01-01T01:50:58.000Z</time>
      </trkpt>
      <trkpt lat="46.00064" lon="4.54237">
        <ele>613.8</ele>
        <time>1970-01-01T01:50:59.000Z</time>
      </trkpt>
      <trkpt lat="46.00064" lon="4.54237">
        <ele>613.8</ele>
        <time>1970-01-01T01:51:00.000Z</time>
      </trkpt>
      <trkpt lat="46.00064" lon="4.54237">
        <ele>613.8</ele>
        <time>1970-01-01T01:51:01.000Z</time>
      </trkpt>
      <trkpt lat="46.00064" lon="4.54237">
        <ele>613.8</ele>
        <time>1970-01-01T01:51:02.000Z</time>
      </trkpt>
      <trkpt lat="46.00062" lon="4.54239">
        <ele>613.6</ele>
        <time>1970-01-01T01:51:03.000Z</time>
      </trkpt>
      <trkpt lat="46.00062" lon="4.54239">
        <ele>613.6</ele>
        <time>1970-01-01T01:51:04.000Z</time>
      </trkpt>
      <trkpt lat="46.00062" lon="4.54239">
        <ele>613.6</ele>
        <time>1970-01-01T01:51:05.000Z</time>
      </trkpt>
      <trkpt lat="46.00062" lon="4.54239">
        <ele>613.6</ele>
        <time>1970-01-01T01:51:06.000Z</time>
      </trkpt>
      <trkpt lat="46.00062" lon="4.54239">
        <ele>613.6</ele>
        <time>1970-01-01T01:51:07.000Z</time>
      </trkpt>
      <trkpt lat="46.00059" lon="4.54242">
        <ele>613.3</ele>
        <time>1970-01-01T01:51:08.000Z</time>
      </trkpt>
      <trkpt lat="46.00059" lon="4.54243">
        <ele>613.2</ele>
        <time>1970-01-01T01:51:09.000Z</time>
      </trkpt>
      <trkpt lat="46.00058" lon="4.54244">
        <ele>613.1</ele>
        <time>1970-01-01T01:51:10.000Z</time>
      </trkpt>
      <trkpt lat="46.00057" lon="4.54246">
        <ele>613</ele>
        <time>1970-01-01T01:51:11.000Z</time>
      </trkpt>
      <trkpt lat="46.00057" lon="4.54247">
        <ele>613</ele>
        <time>1970-01-01T01:51:12.000Z</time>
      </trkpt>
      <trkpt lat="46.00056" lon="4.54248">
        <ele>612.9</ele>
        <time>1970-01-01T01:51:13.000Z</time>
      </trkpt>
      <trkpt lat="46.00055" lon="4.5425">
        <ele>612.8</ele>
        <time>1970-01-01T01:51:14.000Z</time>
      </trkpt>
      <trkpt lat="46.00055" lon="4.54251">
        <ele>612.8</ele>
        <time>1970-01-01T01:51:15.000Z</time>
      </trkpt>
      <trkpt lat="46.00054" lon="4.54252">
        <ele>612.7</ele>
        <time>1970-01-01T01:51:16.000Z</time>
      </trkpt>
      <trkpt lat="46.00053" lon="4.54254">
        <ele>612.7</ele>
        <time>1970-01-01T01:51:17.000Z</time>
      </trkpt>
      <trkpt lat="46.00052" lon="4.54255">
        <ele>612.6</ele>
        <time>1970-01-01T01:51:18.000Z</time>
      </trkpt>
      <trkpt lat="46.0005" lon="4.54256">
        <ele>612.5</ele>
        <time>1970-01-01T01:51:19.000Z</time>
      </trkpt>
      <trkpt lat="46.00049" lon="4.54258">
        <ele>612.5</ele>
        <time>1970-01-01T01:51:20.000Z</time>
      </trkpt>
      <trkpt lat="46.00048" lon="4.54259">
        <ele>612.4</ele>
        <time>1970-01-01T01:51:21.000Z</time>
      </trkpt>
      <trkpt lat="46.00047" lon="4.5426">
        <ele>612.3</ele>
        <time>1970-01-01T01:51:22.000Z</time>
      </trkpt>
      <trkpt lat="46.00046" lon="4.54261">
        <ele>612.3</ele>
        <time>1970-01-01T01:51:23.000Z</time>
      </trkpt>
      <trkpt lat="46.00045" lon="4.54261">
        <ele>612.2</ele>
        <time>1970-01-01T01:51:24.000Z</time>
      </trkpt>
      <trkpt lat="46.00044" lon="4.54262">
        <ele>612.2</ele>
        <time>1970-01-01T01:51:25.000Z</time>
      </trkpt>
      <trkpt lat="46.00043" lon="4.54262">
        <ele>612.1</ele>
        <time>1970-01-01T01:51:26.000Z</time>
      </trkpt>
      <trkpt lat="46.00042" lon="4.54263">
        <ele>612.1</ele>
        <time>1970-01-01T01:51:27.000Z</time>
      </trkpt>
      <trkpt lat="46.00041" lon="4.54263">
        <ele>612</ele>
        <time>1970-01-01T01:51:28.000Z</time>
      </trkpt>
      <trkpt lat="46.0004" lon="4.54264">
        <ele>611.9</ele>
        <time>1970-01-01T01:51:29.000Z</time>
      </trkpt>
      <trkpt lat="46.00039" lon="4.54264">
        <ele>611.9</ele>
        <time>1970-01-01T01:51:30.000Z</time>
      </trkpt>
      <trkpt lat="46.00038" lon="4.54265">
        <ele>611.8</ele>
        <time>1970-01-01T01:51:31.000Z</time>
      </trkpt>
      <trkpt lat="46.00037" lon="4.54264">
        <ele>611.7</ele>
        <time>1970-01-01T01:51:32.000Z</time>
      </trkpt>
      <trkpt lat="46.00036" lon="4.54264">
        <ele>611.6</ele>
        <time>1970-01-01T01:51:33.000Z</time>
      </trkpt>
      <trkpt lat="46.00036" lon="4.54263">
        <ele>611.6</ele>
        <time>1970-01-01T01:51:34.000Z</time>
      </trkpt>
      <trkpt lat="46.00035" lon="4.54263">
        <ele>611.5</ele>
        <time>1970-01-01T01:51:35.000Z</time>
      </trkpt>
      <trkpt lat="46.00034" lon="4.54263">
        <ele>611.5</ele>
        <time>1970-01-01T01:51:36.000Z</time>
      </trkpt>
      <trkpt lat="46.00034" lon="4.54262">
        <ele>611.4</ele>
        <time>1970-01-01T01:51:37.000Z</time>
      </trkpt>
      <trkpt lat="46.00033" lon="4.54262">
        <ele>611.3</ele>
        <time>1970-01-01T01:51:38.000Z</time>
      </trkpt>
      <trkpt lat="46.00027" lon="4.54258">
        <ele>610.7</ele>
        <time>1970-01-01T01:51:39.000Z</time>
      </trkpt>
      <trkpt lat="46.00025" lon="4.54257">
        <ele>610.5</ele>
        <time>1970-01-01T01:51:41.000Z</time>
      </trkpt>
      <trkpt lat="46.00024" lon="4.54256">
        <ele>610.4</ele>
        <time>1970-01-01T01:51:42.000Z</time>
      </trkpt>
      <trkpt lat="46.00023" lon="4.54254">
        <ele>610.2</ele>
        <time>1970-01-01T01:51:43.000Z</time>
      </trkpt>
      <trkpt lat="46.00021" lon="4.54253">
        <ele>610.1</ele>
        <time>1970-01-01T01:51:44.000Z</time>
      </trkpt>
      <trkpt lat="46.0002" lon="4.54252">
        <ele>609.9</ele>
        <time>1970-01-01T01:51:45.000Z</time>
      </trkpt>
      <trkpt lat="46.00019" lon="4.54251">
        <ele>609.8</ele>
        <time>1970-01-01T01:51:46.000Z</time>
      </trkpt>
      <trkpt lat="46.00018" lon="4.5425">
        <ele>609.7</ele>
        <time>1970-01-01T01:51:47.000Z</time>
      </trkpt>
      <trkpt lat="46.00016" lon="4.54249">
        <ele>609.6</ele>
        <time>1970-01-01T01:51:48.000Z</time>
      </trkpt>
      <trkpt lat="46.00015" lon="4.54247">
        <ele>609.5</ele>
        <time>1970-01-01T01:51:49.000Z</time>
      </trkpt>
      <trkpt lat="46.00014" lon="4.54246">
        <ele>609.5</ele>
        <time>1970-01-01T01:51:50.000Z</time>
      </trkpt>
      <trkpt lat="46.00013" lon="4.54245">
        <ele>609.4</ele>
        <time>1970-01-01T01:51:51.000Z</time>
      </trkpt>
      <trkpt lat="46.00012" lon="4.54244">
        <ele>609.3</ele>
        <time>1970-01-01T01:51:52.000Z</time>
      </trkpt>
      <trkpt lat="46.00011" lon="4.54243">
        <ele>609.2</ele>
        <time>1970-01-01T01:51:53.000Z</time>
      </trkpt>
      <trkpt lat="46.0001" lon="4.54241">
        <ele>609.2</ele>
        <time>1970-01-01T01:51:54.000Z</time>
      </trkpt>
      <trkpt lat="46.0001" lon="4.5424">
        <ele>609.1</ele>
        <time>1970-01-01T01:51:55.000Z</time>
      </trkpt>
      <trkpt lat="46.00009" lon="4.54238">
        <ele>609.1</ele>
        <time>1970-01-01T01:51:56.000Z</time>
      </trkpt>
      <trkpt lat="46.00008" lon="4.54237">
        <ele>609.1</ele>
        <time>1970-01-01T01:51:57.000Z</time>
      </trkpt>
      <trkpt lat="46.00007" lon="4.54235">
        <ele>609</ele>
        <time>1970-01-01T01:51:58.000Z</time>
      </trkpt>
      <trkpt lat="46.00006" lon="4.54234">
        <ele>609</ele>
        <time>1970-01-01T01:51:59.000Z</time>
      </trkpt>
      <trkpt lat="46.00005" lon="4.54232">
        <ele>609</ele>
        <time>1970-01-01T01:52:00.000Z</time>
      </trkpt>
      <trkpt lat="46.00005" lon="4.5423">
        <ele>609</ele>
        <time>1970-01-01T01:52:01.000Z</time>
      </trkpt>
      <trkpt lat="46.00004" lon="4.54228">
        <ele>609</ele>
        <time>1970-01-01T01:52:02.000Z</time>
      </trkpt>
      <trkpt lat="46.00003" lon="4.54226">
        <ele>609</ele>
        <time>1970-01-01T01:52:03.000Z</time>
      </trkpt>
      <trkpt lat="46.00003" lon="4.54224">
        <ele>609</ele>
        <time>1970-01-01T01:52:04.000Z</time>
      </trkpt>
      <trkpt lat="46.00002" lon="4.54222">
        <ele>609</ele>
        <time>1970-01-01T01:52:05.000Z</time>
      </trkpt>
      <trkpt lat="46.00001" lon="4.54221">
        <ele>609</ele>
        <time>1970-01-01T01:52:06.000Z</time>
      </trkpt>
      <trkpt lat="46" lon="4.5422">
        <ele>609</ele>
        <time>1970-01-01T01:52:07.000Z</time>
      </trkpt>
      <trkpt lat="45.99999" lon="4.54218">
        <ele>609</ele>
        <time>1970-01-01T01:52:08.000Z</time>
      </trkpt>
      <trkpt lat="45.99999" lon="4.54217">
        <ele>609</ele>
        <time>1970-01-01T01:52:09.000Z</time>
      </trkpt>
      <trkpt lat="45.99998" lon="4.54216">
        <ele>609.1</ele>
        <time>1970-01-01T01:52:10.000Z</time>
      </trkpt>
      <trkpt lat="45.99997" lon="4.54215">
        <ele>609.1</ele>
        <time>1970-01-01T01:52:11.000Z</time>
      </trkpt>
      <trkpt lat="45.99996" lon="4.54213">
        <ele>609.1</ele>
        <time>1970-01-01T01:52:12.000Z</time>
      </trkpt>
      <trkpt lat="45.99995" lon="4.54212">
        <ele>609.1</ele>
        <time>1970-01-01T01:52:13.000Z</time>
      </trkpt>
      <trkpt lat="45.99995" lon="4.5421">
        <ele>609.2</ele>
        <time>1970-01-01T01:52:14.000Z</time>
      </trkpt>
      <trkpt lat="45.99994" lon="4.54208">
        <ele>609.2</ele>
        <time>1970-01-01T01:52:15.000Z</time>
      </trkpt>
      <trkpt lat="45.99994" lon="4.54206">
        <ele>609.2</ele>
        <time>1970-01-01T01:52:16.000Z</time>
      </trkpt>
      <trkpt lat="45.99994" lon="4.54204">
        <ele>609.2</ele>
        <time>1970-01-01T01:52:17.000Z</time>
      </trkpt>
      <trkpt lat="45.99993" lon="4.54201">
        <ele>609.3</ele>
        <time>1970-01-01T01:52:18.000Z</time>
      </trkpt>
      <trkpt lat="45.99993" lon="4.54199">
        <ele>609.3</ele>
        <time>1970-01-01T01:52:19.000Z</time>
      </trkpt>
      <trkpt lat="45.99992" lon="4.54197">
        <ele>609.3</ele>
        <time>1970-01-01T01:52:20.000Z</time>
      </trkpt>
      <trkpt lat="45.99992" lon="4.54195">
        <ele>609.3</ele>
        <time>1970-01-01T01:52:21.000Z</time>
      </trkpt>
      <trkpt lat="45.99991" lon="4.54193">
        <ele>609.4</ele>
        <time>1970-01-01T01:52:22.000Z</time>
      </trkpt>
      <trkpt lat="45.9999" lon="4.54191">
        <ele>609.4</ele>
        <time>1970-01-01T01:52:23.000Z</time>
      </trkpt>
      <trkpt lat="45.99989" lon="4.54189">
        <ele>609.5</ele>
        <time>1970-01-01T01:52:24.000Z</time>
      </trkpt>
      <trkpt lat="45.99989" lon="4.54187">
        <ele>609.5</ele>
        <time>1970-01-01T01:52:25.000Z</time>
      </trkpt>
      <trkpt lat="45.99988" lon="4.54185">
        <ele>609.5</ele>
        <time>1970-01-01T01:52:26.000Z</time>
      </trkpt>
      <trkpt lat="45.99988" lon="4.54183">
        <ele>609.6</ele>
        <time>1970-01-01T01:52:27.000Z</time>
      </trkpt>
      <trkpt lat="45.99988" lon="4.54181">
        <ele>609.6</ele>
        <time>1970-01-01T01:52:28.000Z</time>
      </trkpt>
      <trkpt lat="45.99987" lon="4.5418">
        <ele>609.7</ele>
        <time>1970-01-01T01:52:29.000Z</time>
      </trkpt>
      <trkpt lat="45.99987" lon="4.54178">
        <ele>609.7</ele>
        <time>1970-01-01T01:52:30.000Z</time>
      </trkpt>
      <trkpt lat="45.99987" lon="4.54176">
        <ele>609.8</ele>
        <time>1970-01-01T01:52:31.000Z</time>
      </trkpt>
      <trkpt lat="45.99986" lon="4.54174">
        <ele>609.8</ele>
        <time>1970-01-01T01:52:32.000Z</time>
      </trkpt>
      <trkpt lat="45.99986" lon="4.54172">
        <ele>609.9</ele>
        <time>1970-01-01T01:52:33.000Z</time>
      </trkpt>
      <trkpt lat="45.99986" lon="4.5417">
        <ele>610</ele>
        <time>1970-01-01T01:52:34.000Z</time>
      </trkpt>
      <trkpt lat="45.99985" lon="4.54168">
        <ele>610</ele>
        <time>1970-01-01T01:52:35.000Z</time>
      </trkpt>
      <trkpt lat="45.99985" lon="4.54165">
        <ele>610.1</ele>
        <time>1970-01-01T01:52:36.000Z</time>
      </trkpt>
      <trkpt lat="45.99984" lon="4.54163">
        <ele>610.2</ele>
        <time>1970-01-01T01:52:37.000Z</time>
      </trkpt>
      <trkpt lat="45.99984" lon="4.54161">
        <ele>610.2</ele>
        <time>1970-01-01T01:52:38.000Z</time>
      </trkpt>
      <trkpt lat="45.99983" lon="4.5416">
        <ele>610.3</ele>
        <time>1970-01-01T01:52:39.000Z</time>
      </trkpt>
      <trkpt lat="45.99983" lon="4.54158">
        <ele>610.4</ele>
        <time>1970-01-01T01:52:40.000Z</time>
      </trkpt>
      <trkpt lat="45.99982" lon="4.54156">
        <ele>610.4</ele>
        <time>1970-01-01T01:52:41.000Z</time>
      </trkpt>
      <trkpt lat="45.99982" lon="4.54155">
        <ele>610.5</ele>
        <time>1970-01-01T01:52:42.000Z</time>
      </trkpt>
      <trkpt lat="45.99981" lon="4.54153">
        <ele>610.6</ele>
        <time>1970-01-01T01:52:43.000Z</time>
      </trkpt>
      <trkpt lat="45.99981" lon="4.54152">
        <ele>610.7</ele>
        <time>1970-01-01T01:52:44.000Z</time>
      </trkpt>
      <trkpt lat="45.9998" lon="4.5415">
        <ele>610.8</ele>
        <time>1970-01-01T01:52:45.000Z</time>
      </trkpt>
      <trkpt lat="45.9998" lon="4.54148">
        <ele>610.8</ele>
        <time>1970-01-01T01:52:46.000Z</time>
      </trkpt>
      <trkpt lat="45.99979" lon="4.54147">
        <ele>610.9</ele>
        <time>1970-01-01T01:52:47.000Z</time>
      </trkpt>
      <trkpt lat="45.99979" lon="4.54145">
        <ele>611</ele>
        <time>1970-01-01T01:52:48.000Z</time>
      </trkpt>
      <trkpt lat="45.99979" lon="4.54143">
        <ele>611.1</ele>
        <time>1970-01-01T01:52:49.000Z</time>
      </trkpt>
      <trkpt lat="45.99978" lon="4.54142">
        <ele>611.2</ele>
        <time>1970-01-01T01:52:50.000Z</time>
      </trkpt>
      <trkpt lat="45.99978" lon="4.5414">
        <ele>611.3</ele>
        <time>1970-01-01T01:52:51.000Z</time>
      </trkpt>
      <trkpt lat="45.99977" lon="4.54138">
        <ele>611.4</ele>
        <time>1970-01-01T01:52:52.000Z</time>
      </trkpt>
      <trkpt lat="45.99977" lon="4.54137">
        <ele>611.5</ele>
        <time>1970-01-01T01:52:53.000Z</time>
      </trkpt>
      <trkpt lat="45.99976" lon="4.54135">
        <ele>611.6</ele>
        <time>1970-01-01T01:52:54.000Z</time>
      </trkpt>
      <trkpt lat="45.99976" lon="4.54135">
        <ele>611.6</ele>
        <time>1970-01-01T01:52:55.000Z</time>
      </trkpt>
      <trkpt lat="45.99976" lon="4.54132">
        <ele>611.8</ele>
        <time>1970-01-01T01:52:56.000Z</time>
      </trkpt>
      <trkpt lat="45.99975" lon="4.5413">
        <ele>611.9</ele>
        <time>1970-01-01T01:52:57.000Z</time>
      </trkpt>
      <trkpt lat="45.99975" lon="4.54129">
        <ele>612.1</ele>
        <time>1970-01-01T01:52:58.000Z</time>
      </trkpt>
      <trkpt lat="45.99974" lon="4.54127">
        <ele>612.2</ele>
        <time>1970-01-01T01:52:59.000Z</time>
      </trkpt>
      <trkpt lat="45.99974" lon="4.54125">
        <ele>612.3</ele>
        <time>1970-01-01T01:53:00.000Z</time>
      </trkpt>
      <trkpt lat="45.99973" lon="4.54123">
        <ele>612.4</ele>
        <time>1970-01-01T01:53:01.000Z</time>
      </trkpt>
      <trkpt lat="45.99972" lon="4.54122">
        <ele>612.5</ele>
        <time>1970-01-01T01:53:02.000Z</time>
      </trkpt>
      <trkpt lat="45.99972" lon="4.54122">
        <ele>612.5</ele>
        <time>1970-01-01T01:53:03.000Z</time>
      </trkpt>
      <trkpt lat="45.99972" lon="4.54118">
        <ele>612.8</ele>
        <time>1970-01-01T01:53:04.000Z</time>
      </trkpt>
      <trkpt lat="45.99972" lon="4.54118">
        <ele>612.8</ele>
        <time>1970-01-01T01:53:05.000Z</time>
      </trkpt>
      <trkpt lat="45.99971" lon="4.54116">
        <ele>612.9</ele>
        <time>1970-01-01T01:53:06.000Z</time>
      </trkpt>
      <trkpt lat="45.99971" lon="4.54116">
        <ele>612.9</ele>
        <time>1970-01-01T01:53:07.000Z</time>
      </trkpt>
      <trkpt lat="45.99971" lon="4.54116">
        <ele>612.9</ele>
        <time>1970-01-01T01:53:08.000Z</time>
      </trkpt>
      <trkpt lat="45.99971" lon="4.54116">
        <ele>612.9</ele>
        <time>1970-01-01T01:53:09.000Z</time>
      </trkpt>
      <trkpt lat="45.99969" lon="4.54111">
        <ele>613.3</ele>
        <time>1970-01-01T01:53:10.000Z</time>
      </trkpt>
      <trkpt lat="45.99969" lon="4.5411">
        <ele>613.4</ele>
        <time>1970-01-01T01:53:11.000Z</time>
      </trkpt>
      <trkpt lat="45.99969" lon="4.54108">
        <ele>613.5</ele>
        <time>1970-01-01T01:53:12.000Z</time>
      </trkpt>
      <trkpt lat="45.99968" lon="4.54107">
        <ele>613.6</ele>
        <time>1970-01-01T01:53:13.000Z</time>
      </trkpt>
      <trkpt lat="45.99968" lon="4.54106">
        <ele>613.6</ele>
        <time>1970-01-01T01:53:14.000Z</time>
      </trkpt>
      <trkpt lat="45.99967" lon="4.54105">
        <ele>613.7</ele>
        <time>1970-01-01T01:53:15.000Z</time>
      </trkpt>
      <trkpt lat="45.99967" lon="4.54103">
        <ele>613.8</ele>
        <time>1970-01-01T01:53:16.000Z</time>
      </trkpt>
      <trkpt lat="45.99967" lon="4.54102">
        <ele>613.9</ele>
        <time>1970-01-01T01:53:17.000Z</time>
      </trkpt>
      <trkpt lat="45.99966" lon="4.54101">
        <ele>614</ele>
        <time>1970-01-01T01:53:18.000Z</time>
      </trkpt>
      <trkpt lat="45.99966" lon="4.54099">
        <ele>614.1</ele>
        <time>1970-01-01T01:53:19.000Z</time>
      </trkpt>
      <trkpt lat="45.99965" lon="4.54098">
        <ele>614.2</ele>
        <time>1970-01-01T01:53:20.000Z</time>
      </trkpt>
      <trkpt lat="45.99965" lon="4.54096">
        <ele>614.3</ele>
        <time>1970-01-01T01:53:21.000Z</time>
      </trkpt>
      <trkpt lat="45.99965" lon="4.54095">
        <ele>614.4</ele>
        <time>1970-01-01T01:53:22.000Z</time>
      </trkpt>
      <trkpt lat="45.99964" lon="4.54093">
        <ele>614.5</ele>
        <time>1970-01-01T01:53:23.000Z</time>
      </trkpt>
      <trkpt lat="45.99964" lon="4.54091">
        <ele>614.6</ele>
        <time>1970-01-01T01:53:24.000Z</time>
      </trkpt>
      <trkpt lat="45.99963" lon="4.5409">
        <ele>614.7</ele>
        <time>1970-01-01T01:53:25.000Z</time>
      </trkpt>
      <trkpt lat="45.99963" lon="4.54088">
        <ele>614.8</ele>
        <time>1970-01-01T01:53:26.000Z</time>
      </trkpt>
      <trkpt lat="45.99962" lon="4.54086">
        <ele>614.9</ele>
        <time>1970-01-01T01:53:27.000Z</time>
      </trkpt>
      <trkpt lat="45.99962" lon="4.54085">
        <ele>614.9</ele>
        <time>1970-01-01T01:53:28.000Z</time>
      </trkpt>
      <trkpt lat="45.99961" lon="4.54083">
        <ele>615</ele>
        <time>1970-01-01T01:53:29.000Z</time>
      </trkpt>
      <trkpt lat="45.99961" lon="4.54082">
        <ele>615.1</ele>
        <time>1970-01-01T01:53:30.000Z</time>
      </trkpt>
      <trkpt lat="45.9996" lon="4.5408">
        <ele>615.2</ele>
        <time>1970-01-01T01:53:31.000Z</time>
      </trkpt>
      <trkpt lat="45.9996" lon="4.54079">
        <ele>615.2</ele>
        <time>1970-01-01T01:53:32.000Z</time>
      </trkpt>
      <trkpt lat="45.99959" lon="4.54077">
        <ele>615.3</ele>
        <time>1970-01-01T01:53:33.000Z</time>
      </trkpt>
      <trkpt lat="45.99958" lon="4.54076">
        <ele>615.3</ele>
        <time>1970-01-01T01:53:34.000Z</time>
      </trkpt>
      <trkpt lat="45.99958" lon="4.54074">
        <ele>615.3</ele>
        <time>1970-01-01T01:53:35.000Z</time>
      </trkpt>
      <trkpt lat="45.99957" lon="4.54072">
        <ele>615.4</ele>
        <time>1970-01-01T01:53:36.000Z</time>
      </trkpt>
      <trkpt lat="45.99957" lon="4.54071">
        <ele>615.4</ele>
        <time>1970-01-01T01:53:37.000Z</time>
      </trkpt>
      <trkpt lat="45.99956" lon="4.54069">
        <ele>615.4</ele>
        <time>1970-01-01T01:53:38.000Z</time>
      </trkpt>
      <trkpt lat="45.99955" lon="4.54067">
        <ele>615.4</ele>
        <time>1970-01-01T01:53:39.000Z</time>
      </trkpt>
      <trkpt lat="45.99954" lon="4.54065">
        <ele>615.4</ele>
        <time>1970-01-01T01:53:40.000Z</time>
      </trkpt>
      <trkpt lat="45.99953" lon="4.54064">
        <ele>615.3</ele>
        <time>1970-01-01T01:53:41.000Z</time>
      </trkpt>
      <trkpt lat="45.99953" lon="4.54062">
        <ele>615.3</ele>
        <time>1970-01-01T01:53:42.000Z</time>
      </trkpt>
      <trkpt lat="45.99952" lon="4.5406">
        <ele>615.2</ele>
        <time>1970-01-01T01:53:43.000Z</time>
      </trkpt>
      <trkpt lat="45.99951" lon="4.54059">
        <ele>615.1</ele>
        <time>1970-01-01T01:53:44.000Z</time>
      </trkpt>
      <trkpt lat="45.9995" lon="4.54057">
        <ele>615</ele>
        <time>1970-01-01T01:53:45.000Z</time>
      </trkpt>
      <trkpt lat="45.99949" lon="4.54056">
        <ele>614.9</ele>
        <time>1970-01-01T01:53:46.000Z</time>
      </trkpt>
      <trkpt lat="45.99948" lon="4.54055">
        <ele>614.8</ele>
        <time>1970-01-01T01:53:47.000Z</time>
      </trkpt>
      <trkpt lat="45.99947" lon="4.54053">
        <ele>614.6</ele>
        <time>1970-01-01T01:53:48.000Z</time>
      </trkpt>
      <trkpt lat="45.99945" lon="4.54052">
        <ele>614.5</ele>
        <time>1970-01-01T01:53:49.000Z</time>
      </trkpt>
      <trkpt lat="45.99944" lon="4.54051">
        <ele>614.3</ele>
        <time>1970-01-01T01:53:50.000Z</time>
      </trkpt>
      <trkpt lat="45.99944" lon="4.5405">
        <ele>614.2</ele>
        <time>1970-01-01T01:53:51.000Z</time>
      </trkpt>
      <trkpt lat="45.99943" lon="4.54049">
        <ele>614</ele>
        <time>1970-01-01T01:53:52.000Z</time>
      </trkpt>
      <trkpt lat="45.99942" lon="4.54048">
        <ele>613.9</ele>
        <time>1970-01-01T01:53:53.000Z</time>
      </trkpt>
      <trkpt lat="45.99941" lon="4.54048">
        <ele>613.7</ele>
        <time>1970-01-01T01:53:54.000Z</time>
      </trkpt>
      <trkpt lat="45.9994" lon="4.54047">
        <ele>613.6</ele>
        <time>1970-01-01T01:53:55.000Z</time>
      </trkpt>
      <trkpt lat="45.99939" lon="4.54045">
        <ele>613.3</ele>
        <time>1970-01-01T01:53:56.000Z</time>
      </trkpt>
      <trkpt lat="45.99938" lon="4.54044">
        <ele>613.1</ele>
        <time>1970-01-01T01:53:57.000Z</time>
      </trkpt>
      <trkpt lat="45.99937" lon="4.54043">
        <ele>612.9</ele>
        <time>1970-01-01T01:53:58.000Z</time>
      </trkpt>
      <trkpt lat="45.99936" lon="4.54042">
        <ele>612.6</ele>
        <time>1970-01-01T01:53:59.000Z</time>
      </trkpt>
      <trkpt lat="45.99935" lon="4.5404">
        <ele>612.4</ele>
        <time>1970-01-01T01:54:00.000Z</time>
      </trkpt>
      <trkpt lat="45.99934" lon="4.54039">
        <ele>612.1</ele>
        <time>1970-01-01T01:54:01.000Z</time>
      </trkpt>
      <trkpt lat="45.99933" lon="4.54038">
        <ele>611.8</ele>
        <time>1970-01-01T01:54:02.000Z</time>
      </trkpt>
      <trkpt lat="45.99933" lon="4.54037">
        <ele>611.6</ele>
        <time>1970-01-01T01:54:03.000Z</time>
      </trkpt>
      <trkpt lat="45.99932" lon="4.54036">
        <ele>611.4</ele>
        <time>1970-01-01T01:54:04.000Z</time>
      </trkpt>
      <trkpt lat="45.99931" lon="4.54035">
        <ele>611.2</ele>
        <time>1970-01-01T01:54:05.000Z</time>
      </trkpt>
      <trkpt lat="45.9993" lon="4.54034">
        <ele>610.9</ele>
        <time>1970-01-01T01:54:06.000Z</time>
      </trkpt>
      <trkpt lat="45.9993" lon="4.54033">
        <ele>610.7</ele>
        <time>1970-01-01T01:54:07.000Z</time>
      </trkpt>
      <trkpt lat="45.99929" lon="4.54032">
        <ele>610.5</ele>
        <time>1970-01-01T01:54:08.000Z</time>
      </trkpt>
      <trkpt lat="45.99928" lon="4.54031">
        <ele>610.2</ele>
        <time>1970-01-01T01:54:09.000Z</time>
      </trkpt>
      <trkpt lat="45.99927" lon="4.5403">
        <ele>610</ele>
        <time>1970-01-01T01:54:10.000Z</time>
      </trkpt>
      <trkpt lat="45.99927" lon="4.54029">
        <ele>609.7</ele>
        <time>1970-01-01T01:54:11.000Z</time>
      </trkpt>
      <trkpt lat="45.99926" lon="4.54028">
        <ele>609.5</ele>
        <time>1970-01-01T01:54:12.000Z</time>
      </trkpt>
      <trkpt lat="45.99925" lon="4.54027">
        <ele>609.2</ele>
        <time>1970-01-01T01:54:13.000Z</time>
      </trkpt>
      <trkpt lat="45.99924" lon="4.54026">
        <ele>608.8</ele>
        <time>1970-01-01T01:54:14.000Z</time>
      </trkpt>
      <trkpt lat="45.99923" lon="4.54025">
        <ele>608.5</ele>
        <time>1970-01-01T01:54:15.000Z</time>
      </trkpt>
      <trkpt lat="45.99922" lon="4.54024">
        <ele>608.2</ele>
        <time>1970-01-01T01:54:16.000Z</time>
      </trkpt>
      <trkpt lat="45.99921" lon="4.54023">
        <ele>607.9</ele>
        <time>1970-01-01T01:54:17.000Z</time>
      </trkpt>
      <trkpt lat="45.9992" lon="4.54022">
        <ele>607.6</ele>
        <time>1970-01-01T01:54:18.000Z</time>
      </trkpt>
      <trkpt lat="45.99919" lon="4.54021">
        <ele>607.3</ele>
        <time>1970-01-01T01:54:19.000Z</time>
      </trkpt>
      <trkpt lat="45.99918" lon="4.5402">
        <ele>607</ele>
        <time>1970-01-01T01:54:20.000Z</time>
      </trkpt>
      <trkpt lat="45.99917" lon="4.54019">
        <ele>606.7</ele>
        <time>1970-01-01T01:54:21.000Z</time>
      </trkpt>
      <trkpt lat="45.99916" lon="4.54019">
        <ele>606.4</ele>
        <time>1970-01-01T01:54:22.000Z</time>
      </trkpt>
      <trkpt lat="45.99915" lon="4.54018">
        <ele>606</ele>
        <time>1970-01-01T01:54:23.000Z</time>
      </trkpt>
      <trkpt lat="45.99914" lon="4.54017">
        <ele>605.7</ele>
        <time>1970-01-01T01:54:24.000Z</time>
      </trkpt>
      <trkpt lat="45.99913" lon="4.54016">
        <ele>605.4</ele>
        <time>1970-01-01T01:54:25.000Z</time>
      </trkpt>
      <trkpt lat="45.99912" lon="4.54015">
        <ele>605.1</ele>
        <time>1970-01-01T01:54:26.000Z</time>
      </trkpt>
      <trkpt lat="45.99911" lon="4.54014">
        <ele>604.8</ele>
        <time>1970-01-01T01:54:27.000Z</time>
      </trkpt>
      <trkpt lat="45.9991" lon="4.54013">
        <ele>604.6</ele>
        <time>1970-01-01T01:54:28.000Z</time>
      </trkpt>
      <trkpt lat="45.9991" lon="4.54012">
        <ele>604.4</ele>
        <time>1970-01-01T01:54:29.000Z</time>
      </trkpt>
      <trkpt lat="45.99909" lon="4.54011">
        <ele>604.1</ele>
        <time>1970-01-01T01:54:30.000Z</time>
      </trkpt>
      <trkpt lat="45.99909" lon="4.5401">
        <ele>603.9</ele>
        <time>1970-01-01T01:54:31.000Z</time>
      </trkpt>
      <trkpt lat="45.99908" lon="4.54009">
        <ele>603.7</ele>
        <time>1970-01-01T01:54:32.000Z</time>
      </trkpt>
      <trkpt lat="45.99907" lon="4.54008">
        <ele>603.4</ele>
        <time>1970-01-01T01:54:33.000Z</time>
      </trkpt>
      <trkpt lat="45.99907" lon="4.54007">
        <ele>603.2</ele>
        <time>1970-01-01T01:54:34.000Z</time>
      </trkpt>
      <trkpt lat="45.99906" lon="4.54006">
        <ele>603</ele>
        <time>1970-01-01T01:54:35.000Z</time>
      </trkpt>
      <trkpt lat="45.99905" lon="4.54005">
        <ele>602.7</ele>
        <time>1970-01-01T01:54:36.000Z</time>
      </trkpt>
      <trkpt lat="45.99904" lon="4.54004">
        <ele>602.5</ele>
        <time>1970-01-01T01:54:37.000Z</time>
      </trkpt>
      <trkpt lat="45.99904" lon="4.54003">
        <ele>602.3</ele>
        <time>1970-01-01T01:54:38.000Z</time>
      </trkpt>
      <trkpt lat="45.99904" lon="4.54003">
        <ele>602.3</ele>
        <time>1970-01-01T01:54:39.000Z</time>
      </trkpt>
      <trkpt lat="45.99903" lon="4.54">
        <ele>601.8</ele>
        <time>1970-01-01T01:54:40.000Z</time>
      </trkpt>
      <trkpt lat="45.99903" lon="4.54">
        <ele>601.8</ele>
        <time>1970-01-01T01:54:41.000Z</time>
      </trkpt>
      <trkpt lat="45.99901" lon="4.53998">
        <ele>601.4</ele>
        <time>1970-01-01T01:54:42.000Z</time>
      </trkpt>
      <trkpt lat="45.99901" lon="4.53998">
        <ele>601.4</ele>
        <time>1970-01-01T01:54:43.000Z</time>
      </trkpt>
      <trkpt lat="45.99899" lon="4.53996">
        <ele>601</ele>
        <time>1970-01-01T01:54:44.000Z</time>
      </trkpt>
      <trkpt lat="45.99899" lon="4.53995">
        <ele>600.8</ele>
        <time>1970-01-01T01:54:45.000Z</time>
      </trkpt>
      <trkpt lat="45.99898" lon="4.53994">
        <ele>600.6</ele>
        <time>1970-01-01T01:54:46.000Z</time>
      </trkpt>
      <trkpt lat="45.99897" lon="4.53993">
        <ele>600.4</ele>
        <time>1970-01-01T01:54:47.000Z</time>
      </trkpt>
      <trkpt lat="45.99896" lon="4.53992">
        <ele>600.2</ele>
        <time>1970-01-01T01:54:48.000Z</time>
      </trkpt>
      <trkpt lat="45.99895" lon="4.53991">
        <ele>600</ele>
        <time>1970-01-01T01:54:49.000Z</time>
      </trkpt>
      <trkpt lat="45.99894" lon="4.5399">
        <ele>599.8</ele>
        <time>1970-01-01T01:54:50.000Z</time>
      </trkpt>
      <trkpt lat="45.99893" lon="4.53989">
        <ele>599.6</ele>
        <time>1970-01-01T01:54:51.000Z</time>
      </trkpt>
      <trkpt lat="45.99892" lon="4.53989">
        <ele>599.4</ele>
        <time>1970-01-01T01:54:52.000Z</time>
      </trkpt>
      <trkpt lat="45.99891" lon="4.53988">
        <ele>599.2</ele>
        <time>1970-01-01T01:54:53.000Z</time>
      </trkpt>
      <trkpt lat="45.9989" lon="4.53987">
        <ele>599</ele>
        <time>1970-01-01T01:54:54.000Z</time>
      </trkpt>
      <trkpt lat="45.9989" lon="4.53986">
        <ele>598.8</ele>
        <time>1970-01-01T01:54:55.000Z</time>
      </trkpt>
      <trkpt lat="45.99889" lon="4.53985">
        <ele>598.6</ele>
        <time>1970-01-01T01:54:56.000Z</time>
      </trkpt>
      <trkpt lat="45.99888" lon="4.53984">
        <ele>598.5</ele>
        <time>1970-01-01T01:54:57.000Z</time>
      </trkpt>
      <trkpt lat="45.99887" lon="4.53983">
        <ele>598.3</ele>
        <time>1970-01-01T01:54:58.000Z</time>
      </trkpt>
      <trkpt lat="45.99886" lon="4.53982">
        <ele>598.1</ele>
        <time>1970-01-01T01:54:59.000Z</time>
      </trkpt>
      <trkpt lat="45.99885" lon="4.53981">
        <ele>597.9</ele>
        <time>1970-01-01T01:55:00.000Z</time>
      </trkpt>
      <trkpt lat="45.99884" lon="4.5398">
        <ele>597.7</ele>
        <time>1970-01-01T01:55:01.000Z</time>
      </trkpt>
      <trkpt lat="45.99883" lon="4.53979">
        <ele>597.5</ele>
        <time>1970-01-01T01:55:02.000Z</time>
      </trkpt>
      <trkpt lat="45.99882" lon="4.53978">
        <ele>597.3</ele>
        <time>1970-01-01T01:55:03.000Z</time>
      </trkpt>
      <trkpt lat="45.99881" lon="4.53977">
        <ele>597.2</ele>
        <time>1970-01-01T01:55:04.000Z</time>
      </trkpt>
      <trkpt lat="45.9988" lon="4.53976">
        <ele>597</ele>
        <time>1970-01-01T01:55:05.000Z</time>
      </trkpt>
      <trkpt lat="45.99879" lon="4.53974">
        <ele>596.8</ele>
        <time>1970-01-01T01:55:06.000Z</time>
      </trkpt>
      <trkpt lat="45.99879" lon="4.53974">
        <ele>596.8</ele>
        <time>1970-01-01T01:55:07.000Z</time>
      </trkpt>
      <trkpt lat="45.99877" lon="4.53972">
        <ele>596.4</ele>
        <time>1970-01-01T01:55:08.000Z</time>
      </trkpt>
      <trkpt lat="45.99877" lon="4.53972">
        <ele>596.4</ele>
        <time>1970-01-01T01:55:09.000Z</time>
      </trkpt>
      <trkpt lat="45.99875" lon="4.5397">
        <ele>596</ele>
        <time>1970-01-01T01:55:10.000Z</time>
      </trkpt>
      <trkpt lat="45.99875" lon="4.5397">
        <ele>596</ele>
        <time>1970-01-01T01:55:11.000Z</time>
      </trkpt>
      <trkpt lat="45.99873" lon="4.53967">
        <ele>595.7</ele>
        <time>1970-01-01T01:55:12.000Z</time>
      </trkpt>
      <trkpt lat="45.99873" lon="4.53967">
        <ele>595.7</ele>
        <time>1970-01-01T01:55:13.000Z</time>
      </trkpt>
      <trkpt lat="45.99872" lon="4.53965">
        <ele>595.4</ele>
        <time>1970-01-01T01:55:14.000Z</time>
      </trkpt>
      <trkpt lat="45.99872" lon="4.53965">
        <ele>595.4</ele>
        <time>1970-01-01T01:55:15.000Z</time>
      </trkpt>
      <trkpt lat="45.9987" lon="4.53964">
        <ele>595.1</ele>
        <time>1970-01-01T01:55:16.000Z</time>
      </trkpt>
      <trkpt lat="45.9987" lon="4.53964">
        <ele>595.1</ele>
        <time>1970-01-01T01:55:17.000Z</time>
      </trkpt>
      <trkpt lat="45.99868" lon="4.53963">
        <ele>594.6</ele>
        <time>1970-01-01T01:55:18.000Z</time>
      </trkpt>
      <trkpt lat="45.99868" lon="4.53963">
        <ele>594.6</ele>
        <time>1970-01-01T01:55:19.000Z</time>
      </trkpt>
      <trkpt lat="45.99865" lon="4.53962">
        <ele>594.2</ele>
        <time>1970-01-01T01:55:20.000Z</time>
      </trkpt>
      <trkpt lat="45.99863" lon="4.5396">
        <ele>593.9</ele>
        <time>1970-01-01T01:55:21.000Z</time>
      </trkpt>
      <trkpt lat="45.99862" lon="4.53959">
        <ele>593.6</ele>
        <time>1970-01-01T01:55:22.000Z</time>
      </trkpt>
      <trkpt lat="45.9986" lon="4.53957">
        <ele>593.3</ele>
        <time>1970-01-01T01:55:23.000Z</time>
      </trkpt>
      <trkpt lat="45.9986" lon="4.53957">
        <ele>593.3</ele>
        <time>1970-01-01T01:55:24.000Z</time>
      </trkpt>
      <trkpt lat="45.99859" lon="4.53954">
        <ele>592.8</ele>
        <time>1970-01-01T01:55:25.000Z</time>
      </trkpt>
      <trkpt lat="45.99859" lon="4.53954">
        <ele>592.8</ele>
        <time>1970-01-01T01:55:26.000Z</time>
      </trkpt>
      <trkpt lat="45.99857" lon="4.53952">
        <ele>592.4</ele>
        <time>1970-01-01T01:55:27.000Z</time>
      </trkpt>
      <trkpt lat="45.99857" lon="4.53952">
        <ele>592.4</ele>
        <time>1970-01-01T01:55:28.000Z</time>
      </trkpt>
      <trkpt lat="45.99855" lon="4.53951">
        <ele>592</ele>
        <time>1970-01-01T01:55:29.000Z</time>
      </trkpt>
      <trkpt lat="45.99855" lon="4.53951">
        <ele>592</ele>
        <time>1970-01-01T01:55:30.000Z</time>
      </trkpt>
      <trkpt lat="45.99854" lon="4.53948">
        <ele>591.5</ele>
        <time>1970-01-01T01:55:31.000Z</time>
      </trkpt>
      <trkpt lat="45.99854" lon="4.53948">
        <ele>591.5</ele>
        <time>1970-01-01T01:55:32.000Z</time>
      </trkpt>
      <trkpt lat="45.99853" lon="4.53946">
        <ele>591.1</ele>
        <time>1970-01-01T01:55:33.000Z</time>
      </trkpt>
      <trkpt lat="45.99853" lon="4.53946">
        <ele>591.1</ele>
        <time>1970-01-01T01:55:34.000Z</time>
      </trkpt>
      <trkpt lat="45.99851" lon="4.53943">
        <ele>590.7</ele>
        <time>1970-01-01T01:55:35.000Z</time>
      </trkpt>
      <trkpt lat="45.99851" lon="4.53943">
        <ele>590.7</ele>
        <time>1970-01-01T01:55:36.000Z</time>
      </trkpt>
      <trkpt lat="45.99851" lon="4.53943">
        <ele>590.7</ele>
        <time>1970-01-01T01:55:37.000Z</time>
      </trkpt>
      <trkpt lat="45.99849" lon="4.53941">
        <ele>590.2</ele>
        <time>1970-01-01T01:55:38.000Z</time>
      </trkpt>
      <trkpt lat="45.99849" lon="4.53941">
        <ele>590.2</ele>
        <time>1970-01-01T01:55:39.000Z</time>
      </trkpt>
      <trkpt lat="45.99848" lon="4.53939">
        <ele>589.8</ele>
        <time>1970-01-01T01:55:40.000Z</time>
      </trkpt>
      <trkpt lat="45.99848" lon="4.53939">
        <ele>589.8</ele>
        <time>1970-01-01T01:55:41.000Z</time>
      </trkpt>
      <trkpt lat="45.99846" lon="4.53936">
        <ele>589.3</ele>
        <time>1970-01-01T01:55:42.000Z</time>
      </trkpt>
      <trkpt lat="45.99846" lon="4.53936">
        <ele>589.3</ele>
        <time>1970-01-01T01:55:43.000Z</time>
      </trkpt>
      <trkpt lat="45.99845" lon="4.53934">
        <ele>588.9</ele>
        <time>1970-01-01T01:55:44.000Z</time>
      </trkpt>
      <trkpt lat="45.99845" lon="4.53934">
        <ele>588.9</ele>
        <time>1970-01-01T01:55:45.000Z</time>
      </trkpt>
      <trkpt lat="45.99845" lon="4.53934">
        <ele>588.9</ele>
        <time>1970-01-01T01:55:46.000Z</time>
      </trkpt>
      <trkpt lat="45.99845" lon="4.53932">
        <ele>588.6</ele>
        <time>1970-01-01T01:55:47.000Z</time>
      </trkpt>
      <trkpt lat="45.99845" lon="4.53932">
        <ele>588.6</ele>
        <time>1970-01-01T01:55:48.000Z</time>
      </trkpt>
      <trkpt lat="45.99845" lon="4.53932">
        <ele>588.6</ele>
        <time>1970-01-01T01:55:49.000Z</time>
      </trkpt>
      <trkpt lat="45.99845" lon="4.53932">
        <ele>588.6</ele>
        <time>1970-01-01T01:55:50.000Z</time>
      </trkpt>
      <trkpt lat="45.99844" lon="4.53929">
        <ele>588.2</ele>
        <time>1970-01-01T01:55:51.000Z</time>
      </trkpt>
      <trkpt lat="45.99844" lon="4.53929">
        <ele>588.2</ele>
        <time>1970-01-01T01:55:52.000Z</time>
      </trkpt>
      <trkpt lat="45.99843" lon="4.53926">
        <ele>587.8</ele>
        <time>1970-01-01T01:55:53.000Z</time>
      </trkpt>
      <trkpt lat="45.99843" lon="4.53926">
        <ele>587.8</ele>
        <time>1970-01-01T01:55:54.000Z</time>
      </trkpt>
      <trkpt lat="45.99841" lon="4.53923">
        <ele>587.4</ele>
        <time>1970-01-01T01:55:55.000Z</time>
      </trkpt>
      <trkpt lat="45.99841" lon="4.53923">
        <ele>587.4</ele>
        <time>1970-01-01T01:55:56.000Z</time>
      </trkpt>
      <trkpt lat="45.99839" lon="4.53921">
        <ele>587</ele>
        <time>1970-01-01T01:55:57.000Z</time>
      </trkpt>
      <trkpt lat="45.99839" lon="4.53921">
        <ele>587</ele>
        <time>1970-01-01T01:55:58.000Z</time>
      </trkpt>
      <trkpt lat="45.99837" lon="4.5392">
        <ele>586.6</ele>
        <time>1970-01-01T01:55:59.000Z</time>
      </trkpt>
      <trkpt lat="45.99837" lon="4.5392">
        <ele>586.7</ele>
        <time>1970-01-01T01:56:00.000Z</time>
      </trkpt>
      <trkpt lat="45.99837" lon="4.5392">
        <ele>586.7</ele>
        <time>1970-01-01T01:56:01.000Z</time>
      </trkpt>
      <trkpt lat="45.99835" lon="4.53918">
        <ele>586.3</ele>
        <time>1970-01-01T01:56:02.000Z</time>
      </trkpt>
      <trkpt lat="45.99835" lon="4.53918">
        <ele>586.3</ele>
        <time>1970-01-01T01:56:03.000Z</time>
      </trkpt>
      <trkpt lat="45.99833" lon="4.53917">
        <ele>585.9</ele>
        <time>1970-01-01T01:56:04.000Z</time>
      </trkpt>
      <trkpt lat="45.99833" lon="4.53917">
        <ele>585.9</ele>
        <time>1970-01-01T01:56:05.000Z</time>
      </trkpt>
      <trkpt lat="45.99831" lon="4.53915">
        <ele>585.5</ele>
        <time>1970-01-01T01:56:06.000Z</time>
      </trkpt>
      <trkpt lat="45.99831" lon="4.53915">
        <ele>585.5</ele>
        <time>1970-01-01T01:56:07.000Z</time>
      </trkpt>
      <trkpt lat="45.99829" lon="4.53914">
        <ele>585.1</ele>
        <time>1970-01-01T01:56:08.000Z</time>
      </trkpt>
      <trkpt lat="45.99829" lon="4.53914">
        <ele>585.2</ele>
        <time>1970-01-01T01:56:09.000Z</time>
      </trkpt>
      <trkpt lat="45.99827" lon="4.53913">
        <ele>584.8</ele>
        <time>1970-01-01T01:56:10.000Z</time>
      </trkpt>
      <trkpt lat="45.99827" lon="4.53913">
        <ele>584.8</ele>
        <time>1970-01-01T01:56:11.000Z</time>
      </trkpt>
      <trkpt lat="45.99827" lon="4.53913">
        <ele>584.8</ele>
        <time>1970-01-01T01:56:12.000Z</time>
      </trkpt>
      <trkpt lat="45.99825" lon="4.53912">
        <ele>584.5</ele>
        <time>1970-01-01T01:56:13.000Z</time>
      </trkpt>
      <trkpt lat="45.99825" lon="4.53912">
        <ele>584.5</ele>
        <time>1970-01-01T01:56:14.000Z</time>
      </trkpt>
      <trkpt lat="45.99822" lon="4.53911">
        <ele>584.1</ele>
        <time>1970-01-01T01:56:15.000Z</time>
      </trkpt>
      <trkpt lat="45.99822" lon="4.53911">
        <ele>584.1</ele>
        <time>1970-01-01T01:56:16.000Z</time>
      </trkpt>
      <trkpt lat="45.99822" lon="4.53911">
        <ele>584.1</ele>
        <time>1970-01-01T01:56:17.000Z</time>
      </trkpt>
      <trkpt lat="45.9982" lon="4.5391">
        <ele>583.7</ele>
        <time>1970-01-01T01:56:18.000Z</time>
      </trkpt>
      <trkpt lat="45.9982" lon="4.5391">
        <ele>583.7</ele>
        <time>1970-01-01T01:56:19.000Z</time>
      </trkpt>
      <trkpt lat="45.99818" lon="4.5391">
        <ele>583.4</ele>
        <time>1970-01-01T01:56:20.000Z</time>
      </trkpt>
      <trkpt lat="45.99818" lon="4.5391">
        <ele>583.4</ele>
        <time>1970-01-01T01:56:21.000Z</time>
      </trkpt>
      <trkpt lat="45.99815" lon="4.5391">
        <ele>582.9</ele>
        <time>1970-01-01T01:56:22.000Z</time>
      </trkpt>
      <trkpt lat="45.99815" lon="4.5391">
        <ele>582.9</ele>
        <time>1970-01-01T01:56:23.000Z</time>
      </trkpt>
      <trkpt lat="45.99812" lon="4.53911">
        <ele>582.5</ele>
        <time>1970-01-01T01:56:24.000Z</time>
      </trkpt>
      <trkpt lat="45.99812" lon="4.53911">
        <ele>582.5</ele>
        <time>1970-01-01T01:56:25.000Z</time>
      </trkpt>
      <trkpt lat="45.99812" lon="4.53911">
        <ele>582.5</ele>
        <time>1970-01-01T01:56:26.000Z</time>
      </trkpt>
      <trkpt lat="45.9981" lon="4.53911">
        <ele>582.2</ele>
        <time>1970-01-01T01:56:27.000Z</time>
      </trkpt>
      <trkpt lat="45.9981" lon="4.53911">
        <ele>582.2</ele>
        <time>1970-01-01T01:56:28.000Z</time>
      </trkpt>
      <trkpt lat="45.9981" lon="4.53911">
        <ele>582.2</ele>
        <time>1970-01-01T01:56:29.000Z</time>
      </trkpt>
      <trkpt lat="45.9981" lon="4.53911">
        <ele>582.2</ele>
        <time>1970-01-01T01:56:30.000Z</time>
      </trkpt>
      <trkpt lat="45.99808" lon="4.53911">
        <ele>581.9</ele>
        <time>1970-01-01T01:56:31.000Z</time>
      </trkpt>
      <trkpt lat="45.99807" lon="4.53911">
        <ele>581.7</ele>
        <time>1970-01-01T01:56:32.000Z</time>
      </trkpt>
      <trkpt lat="45.99806" lon="4.53912">
        <ele>581.6</ele>
        <time>1970-01-01T01:56:33.000Z</time>
      </trkpt>
      <trkpt lat="45.99805" lon="4.53912">
        <ele>581.4</ele>
        <time>1970-01-01T01:56:34.000Z</time>
      </trkpt>
      <trkpt lat="45.99803" lon="4.53912">
        <ele>581.2</ele>
        <time>1970-01-01T01:56:35.000Z</time>
      </trkpt>
      <trkpt lat="45.99802" lon="4.53913">
        <ele>581.1</ele>
        <time>1970-01-01T01:56:36.000Z</time>
      </trkpt>
      <trkpt lat="45.99802" lon="4.53913">
        <ele>581.1</ele>
        <time>1970-01-01T01:56:37.000Z</time>
      </trkpt>
      <trkpt lat="45.998" lon="4.53912">
        <ele>580.7</ele>
        <time>1970-01-01T01:56:38.000Z</time>
      </trkpt>
      <trkpt lat="45.998" lon="4.53912">
        <ele>580.7</ele>
        <time>1970-01-01T01:56:39.000Z</time>
      </trkpt>
      <trkpt lat="45.99797" lon="4.53913">
        <ele>580.4</ele>
        <time>1970-01-01T01:56:40.000Z</time>
      </trkpt>
      <trkpt lat="45.99797" lon="4.53913">
        <ele>580.4</ele>
        <time>1970-01-01T01:56:41.000Z</time>
      </trkpt>
      <trkpt lat="45.99797" lon="4.53913">
        <ele>580.5</ele>
        <time>1970-01-01T01:56:42.000Z</time>
      </trkpt>
      <trkpt lat="45.99795" lon="4.53914">
        <ele>580.2</ele>
        <time>1970-01-01T01:56:43.000Z</time>
      </trkpt>
      <trkpt lat="45.99795" lon="4.53914">
        <ele>580.2</ele>
        <time>1970-01-01T01:56:44.000Z</time>
      </trkpt>
      <trkpt lat="45.99793" lon="4.53914">
        <ele>579.9</ele>
        <time>1970-01-01T01:56:45.000Z</time>
      </trkpt>
      <trkpt lat="45.99793" lon="4.53914">
        <ele>579.9</ele>
        <time>1970-01-01T01:56:46.000Z</time>
      </trkpt>
      <trkpt lat="45.99793" lon="4.53914">
        <ele>579.9</ele>
        <time>1970-01-01T01:56:47.000Z</time>
      </trkpt>
      <trkpt lat="45.99792" lon="4.53915">
        <ele>579.7</ele>
        <time>1970-01-01T01:56:48.000Z</time>
      </trkpt>
      <trkpt lat="45.99792" lon="4.53915">
        <ele>579.7</ele>
        <time>1970-01-01T01:56:49.000Z</time>
      </trkpt>
      <trkpt lat="45.99792" lon="4.53915">
        <ele>579.7</ele>
        <time>1970-01-01T01:56:50.000Z</time>
      </trkpt>
      <trkpt lat="45.99789" lon="4.53916">
        <ele>579.4</ele>
        <time>1970-01-01T01:56:51.000Z</time>
      </trkpt>
      <trkpt lat="45.99788" lon="4.53917">
        <ele>579.2</ele>
        <time>1970-01-01T01:56:52.000Z</time>
      </trkpt>
      <trkpt lat="45.99787" lon="4.53919">
        <ele>579</ele>
        <time>1970-01-01T01:56:53.000Z</time>
      </trkpt>
      <trkpt lat="45.99786" lon="4.5392">
        <ele>578.8</ele>
        <time>1970-01-01T01:56:54.000Z</time>
      </trkpt>
      <trkpt lat="45.99785" lon="4.53921">
        <ele>578.6</ele>
        <time>1970-01-01T01:56:55.000Z</time>
      </trkpt>
      <trkpt lat="45.99784" lon="4.53923">
        <ele>578.5</ele>
        <time>1970-01-01T01:56:56.000Z</time>
      </trkpt>
      <trkpt lat="45.99783" lon="4.53924">
        <ele>578.3</ele>
        <time>1970-01-01T01:56:57.000Z</time>
      </trkpt>
      <trkpt lat="45.99781" lon="4.53925">
        <ele>578.1</ele>
        <time>1970-01-01T01:56:58.000Z</time>
      </trkpt>
      <trkpt lat="45.99781" lon="4.53926">
        <ele>578</ele>
        <time>1970-01-01T01:56:59.000Z</time>
      </trkpt>
      <trkpt lat="45.9978" lon="4.53928">
        <ele>577.9</ele>
        <time>1970-01-01T01:57:00.000Z</time>
      </trkpt>
      <trkpt lat="45.99779" lon="4.53929">
        <ele>577.7</ele>
        <time>1970-01-01T01:57:01.000Z</time>
      </trkpt>
      <trkpt lat="45.99779" lon="4.5393">
        <ele>577.6</ele>
        <time>1970-01-01T01:57:02.000Z</time>
      </trkpt>
      <trkpt lat="45.99778" lon="4.53931">
        <ele>577.5</ele>
        <time>1970-01-01T01:57:03.000Z</time>
      </trkpt>
      <trkpt lat="45.99777" lon="4.53932">
        <ele>577.4</ele>
        <time>1970-01-01T01:57:04.000Z</time>
      </trkpt>
      <trkpt lat="45.99776" lon="4.53934">
        <ele>577.3</ele>
        <time>1970-01-01T01:57:05.000Z</time>
      </trkpt>
      <trkpt lat="45.99776" lon="4.53935">
        <ele>577.2</ele>
        <time>1970-01-01T01:57:06.000Z</time>
      </trkpt>
      <trkpt lat="45.99775" lon="4.53936">
        <ele>577.1</ele>
        <time>1970-01-01T01:57:07.000Z</time>
      </trkpt>
      <trkpt lat="45.99774" lon="4.53937">
        <ele>576.9</ele>
        <time>1970-01-01T01:57:08.000Z</time>
      </trkpt>
      <trkpt lat="45.99773" lon="4.53939">
        <ele>576.8</ele>
        <time>1970-01-01T01:57:09.000Z</time>
      </trkpt>
      <trkpt lat="45.99772" lon="4.5394">
        <ele>576.7</ele>
        <time>1970-01-01T01:57:10.000Z</time>
      </trkpt>
      <trkpt lat="45.99771" lon="4.53942">
        <ele>576.6</ele>
        <time>1970-01-01T01:57:11.000Z</time>
      </trkpt>
      <trkpt lat="45.99771" lon="4.53943">
        <ele>576.5</ele>
        <time>1970-01-01T01:57:12.000Z</time>
      </trkpt>
      <trkpt lat="45.9977" lon="4.53945">
        <ele>576.4</ele>
        <time>1970-01-01T01:57:13.000Z</time>
      </trkpt>
      <trkpt lat="45.99769" lon="4.53946">
        <ele>576.3</ele>
        <time>1970-01-01T01:57:14.000Z</time>
      </trkpt>
      <trkpt lat="45.99768" lon="4.53947">
        <ele>576.3</ele>
        <time>1970-01-01T01:57:15.000Z</time>
      </trkpt>
      <trkpt lat="45.99768" lon="4.53948">
        <ele>576.2</ele>
        <time>1970-01-01T01:57:16.000Z</time>
      </trkpt>
      <trkpt lat="45.99768" lon="4.5395">
        <ele>576.1</ele>
        <time>1970-01-01T01:57:17.000Z</time>
      </trkpt>
      <trkpt lat="45.99767" lon="4.53951">
        <ele>576.1</ele>
        <time>1970-01-01T01:57:18.000Z</time>
      </trkpt>
      <trkpt lat="45.99767" lon="4.53952">
        <ele>576</ele>
        <time>1970-01-01T01:57:19.000Z</time>
      </trkpt>
      <trkpt lat="45.99767" lon="4.53953">
        <ele>576</ele>
        <time>1970-01-01T01:57:20.000Z</time>
      </trkpt>
      <trkpt lat="45.99766" lon="4.53955">
        <ele>575.9</ele>
        <time>1970-01-01T01:57:21.000Z</time>
      </trkpt>
      <trkpt lat="45.99766" lon="4.53956">
        <ele>575.9</ele>
        <time>1970-01-01T01:57:22.000Z</time>
      </trkpt>
      <trkpt lat="45.99766" lon="4.53957">
        <ele>575.8</ele>
        <time>1970-01-01T01:57:23.000Z</time>
      </trkpt>
      <trkpt lat="45.99766" lon="4.53958">
        <ele>575.8</ele>
        <time>1970-01-01T01:57:24.000Z</time>
      </trkpt>
      <trkpt lat="45.99765" lon="4.5396">
        <ele>575.8</ele>
        <time>1970-01-01T01:57:25.000Z</time>
      </trkpt>
      <trkpt lat="45.99765" lon="4.53961">
        <ele>575.7</ele>
        <time>1970-01-01T01:57:26.000Z</time>
      </trkpt>
      <trkpt lat="45.99765" lon="4.53963">
        <ele>575.7</ele>
        <time>1970-01-01T01:57:27.000Z</time>
      </trkpt>
      <trkpt lat="45.99764" lon="4.53964">
        <ele>575.6</ele>
        <time>1970-01-01T01:57:28.000Z</time>
      </trkpt>
      <trkpt lat="45.99764" lon="4.53966">
        <ele>575.6</ele>
        <time>1970-01-01T01:57:29.000Z</time>
      </trkpt>
      <trkpt lat="45.99764" lon="4.53967">
        <ele>575.5</ele>
        <time>1970-01-01T01:57:30.000Z</time>
      </trkpt>
      <trkpt lat="45.99763" lon="4.53969">
        <ele>575.5</ele>
        <time>1970-01-01T01:57:31.000Z</time>
      </trkpt>
      <trkpt lat="45.99763" lon="4.5397">
        <ele>575.5</ele>
        <time>1970-01-01T01:57:32.000Z</time>
      </trkpt>
      <trkpt lat="45.99763" lon="4.53972">
        <ele>575.5</ele>
        <time>1970-01-01T01:57:33.000Z</time>
      </trkpt>
      <trkpt lat="45.99762" lon="4.53972">
        <ele>575.4</ele>
        <time>1970-01-01T01:57:34.000Z</time>
      </trkpt>
      <trkpt lat="45.99761" lon="4.53973">
        <ele>575.4</ele>
        <time>1970-01-01T01:57:35.000Z</time>
      </trkpt>
      <trkpt lat="45.9976" lon="4.53974">
        <ele>575.4</ele>
        <time>1970-01-01T01:57:36.000Z</time>
      </trkpt>
      <trkpt lat="45.99759" lon="4.53974">
        <ele>575.4</ele>
        <time>1970-01-01T01:57:37.000Z</time>
      </trkpt>
      <trkpt lat="45.99758" lon="4.53975">
        <ele>575.4</ele>
        <time>1970-01-01T01:57:38.000Z</time>
      </trkpt>
      <trkpt lat="45.99758" lon="4.53976">
        <ele>575.4</ele>
        <time>1970-01-01T01:57:39.000Z</time>
      </trkpt>
      <trkpt lat="45.99752" lon="4.53982">
        <ele>575.4</ele>
        <time>1970-01-01T01:57:40.000Z</time>
      </trkpt>
      <trkpt lat="45.99751" lon="4.53983">
        <ele>575.4</ele>
        <time>1970-01-01T01:57:41.000Z</time>
      </trkpt>
      <trkpt lat="45.9975" lon="4.53985">
        <ele>575.4</ele>
        <time>1970-01-01T01:57:42.000Z</time>
      </trkpt>
      <trkpt lat="45.99749" lon="4.53987">
        <ele>575.5</ele>
        <time>1970-01-01T01:57:43.000Z</time>
      </trkpt>
      <trkpt lat="45.99748" lon="4.53989">
        <ele>575.5</ele>
        <time>1970-01-01T01:57:44.000Z</time>
      </trkpt>
      <trkpt lat="45.99747" lon="4.5399">
        <ele>575.6</ele>
        <time>1970-01-01T01:57:45.000Z</time>
      </trkpt>
      <trkpt lat="45.99746" lon="4.53991">
        <ele>575.6</ele>
        <time>1970-01-01T01:57:46.000Z</time>
      </trkpt>
      <trkpt lat="45.99745" lon="4.53992">
        <ele>575.7</ele>
        <time>1970-01-01T01:57:47.000Z</time>
      </trkpt>
      <trkpt lat="45.99744" lon="4.53992">
        <ele>575.7</ele>
        <time>1970-01-01T01:57:48.000Z</time>
      </trkpt>
      <trkpt lat="45.99744" lon="4.53993">
        <ele>575.7</ele>
        <time>1970-01-01T01:57:49.000Z</time>
      </trkpt>
      <trkpt lat="45.99743" lon="4.53994">
        <ele>575.8</ele>
        <time>1970-01-01T01:57:50.000Z</time>
      </trkpt>
      <trkpt lat="45.99742" lon="4.53994">
        <ele>575.8</ele>
        <time>1970-01-01T01:57:51.000Z</time>
      </trkpt>
      <trkpt lat="45.99736" lon="4.53999">
        <ele>576.2</ele>
        <time>1970-01-01T01:57:52.000Z</time>
      </trkpt>
      <trkpt lat="45.99734" lon="4.53999">
        <ele>576.3</ele>
        <time>1970-01-01T01:57:53.000Z</time>
      </trkpt>
      <trkpt lat="45.99732" lon="4.54">
        <ele>576.4</ele>
        <time>1970-01-01T01:57:54.000Z</time>
      </trkpt>
      <trkpt lat="45.9973" lon="4.54001">
        <ele>576.5</ele>
        <time>1970-01-01T01:57:55.000Z</time>
      </trkpt>
      <trkpt lat="45.99728" lon="4.54001">
        <ele>576.6</ele>
        <time>1970-01-01T01:57:56.000Z</time>
      </trkpt>
      <trkpt lat="45.99727" lon="4.54002">
        <ele>576.7</ele>
        <time>1970-01-01T01:57:57.000Z</time>
      </trkpt>
      <trkpt lat="45.99726" lon="4.54003">
        <ele>576.7</ele>
        <time>1970-01-01T01:57:58.000Z</time>
      </trkpt>
      <trkpt lat="45.99725" lon="4.54003">
        <ele>576.8</ele>
        <time>1970-01-01T01:57:59.000Z</time>
      </trkpt>
      <trkpt lat="45.99724" lon="4.54004">
        <ele>576.8</ele>
        <time>1970-01-01T01:58:00.000Z</time>
      </trkpt>
      <trkpt lat="45.99723" lon="4.54005">
        <ele>576.9</ele>
        <time>1970-01-01T01:58:01.000Z</time>
      </trkpt>
      <trkpt lat="45.99722" lon="4.54005">
        <ele>576.9</ele>
        <time>1970-01-01T01:58:02.000Z</time>
      </trkpt>
      <trkpt lat="45.99721" lon="4.54006">
        <ele>577</ele>
        <time>1970-01-01T01:58:03.000Z</time>
      </trkpt>
      <trkpt lat="45.9972" lon="4.54007">
        <ele>577</ele>
        <time>1970-01-01T01:58:04.000Z</time>
      </trkpt>
      <trkpt lat="45.99719" lon="4.54007">
        <ele>577.1</ele>
        <time>1970-01-01T01:58:05.000Z</time>
      </trkpt>
      <trkpt lat="45.99717" lon="4.54008">
        <ele>577.1</ele>
        <time>1970-01-01T01:58:06.000Z</time>
      </trkpt>
      <trkpt lat="45.99716" lon="4.54008">
        <ele>577.2</ele>
        <time>1970-01-01T01:58:07.000Z</time>
      </trkpt>
      <trkpt lat="45.99714" lon="4.54008">
        <ele>577.2</ele>
        <time>1970-01-01T01:58:08.000Z</time>
      </trkpt>
      <trkpt lat="45.99712" lon="4.54008">
        <ele>577.3</ele>
        <time>1970-01-01T01:58:09.000Z</time>
      </trkpt>
      <trkpt lat="45.9971" lon="4.54008">
        <ele>577.4</ele>
        <time>1970-01-01T01:58:10.000Z</time>
      </trkpt>
      <trkpt lat="45.99709" lon="4.54008">
        <ele>577.4</ele>
        <time>1970-01-01T01:58:11.000Z</time>
      </trkpt>
      <trkpt lat="45.99709" lon="4.54009">
        <ele>577.4</ele>
        <time>1970-01-01T01:58:12.000Z</time>
      </trkpt>
      <trkpt lat="45.99708" lon="4.54009">
        <ele>577.4</ele>
        <time>1970-01-01T01:58:13.000Z</time>
      </trkpt>
      <trkpt lat="45.99708" lon="4.5401">
        <ele>577.4</ele>
        <time>1970-01-01T01:58:14.000Z</time>
      </trkpt>
      <trkpt lat="45.99707" lon="4.5401">
        <ele>577.4</ele>
        <time>1970-01-01T01:58:15.000Z</time>
      </trkpt>
      <trkpt lat="45.99706" lon="4.5401">
        <ele>577.4</ele>
        <time>1970-01-01T01:58:16.000Z</time>
      </trkpt>
      <trkpt lat="45.99706" lon="4.54011">
        <ele>577.4</ele>
        <time>1970-01-01T01:58:17.000Z</time>
      </trkpt>
      <trkpt lat="45.99705" lon="4.54011">
        <ele>577.5</ele>
        <time>1970-01-01T01:58:18.000Z</time>
      </trkpt>
      <trkpt lat="45.99699" lon="4.54016">
        <ele>577.6</ele>
        <time>1970-01-01T01:58:19.000Z</time>
      </trkpt>
      <trkpt lat="45.99697" lon="4.54016">
        <ele>577.6</ele>
        <time>1970-01-01T01:58:20.000Z</time>
      </trkpt>
      <trkpt lat="45.99696" lon="4.54017">
        <ele>577.6</ele>
        <time>1970-01-01T01:58:21.000Z</time>
      </trkpt>
      <trkpt lat="45.99694" lon="4.54018">
        <ele>577.6</ele>
        <time>1970-01-01T01:58:22.000Z</time>
      </trkpt>
      <trkpt lat="45.99693" lon="4.54019">
        <ele>577.6</ele>
        <time>1970-01-01T01:58:23.000Z</time>
      </trkpt>
      <trkpt lat="45.99691" lon="4.5402">
        <ele>577.7</ele>
        <time>1970-01-01T01:58:24.000Z</time>
      </trkpt>
      <trkpt lat="45.99691" lon="4.54021">
        <ele>577.7</ele>
        <time>1970-01-01T01:58:25.000Z</time>
      </trkpt>
      <trkpt lat="45.9969" lon="4.54022">
        <ele>577.7</ele>
        <time>1970-01-01T01:58:26.000Z</time>
      </trkpt>
      <trkpt lat="45.99689" lon="4.54023">
        <ele>577.7</ele>
        <time>1970-01-01T01:58:27.000Z</time>
      </trkpt>
      <trkpt lat="45.99688" lon="4.54024">
        <ele>577.7</ele>
        <time>1970-01-01T01:58:28.000Z</time>
      </trkpt>
      <trkpt lat="45.99687" lon="4.54025">
        <ele>577.7</ele>
        <time>1970-01-01T01:58:29.000Z</time>
      </trkpt>
      <trkpt lat="45.99687" lon="4.54026">
        <ele>577.7</ele>
        <time>1970-01-01T01:58:30.000Z</time>
      </trkpt>
      <trkpt lat="45.99686" lon="4.54027">
        <ele>577.8</ele>
        <time>1970-01-01T01:58:31.000Z</time>
      </trkpt>
      <trkpt lat="45.99685" lon="4.54028">
        <ele>577.8</ele>
        <time>1970-01-01T01:58:32.000Z</time>
      </trkpt>
      <trkpt lat="45.99684" lon="4.54029">
        <ele>577.8</ele>
        <time>1970-01-01T01:58:33.000Z</time>
      </trkpt>
      <trkpt lat="45.99684" lon="4.5403">
        <ele>577.8</ele>
        <time>1970-01-01T01:58:34.000Z</time>
      </trkpt>
      <trkpt lat="45.99683" lon="4.54031">
        <ele>577.8</ele>
        <time>1970-01-01T01:58:35.000Z</time>
      </trkpt>
      <trkpt lat="45.99683" lon="4.54031">
        <ele>577.8</ele>
        <time>1970-01-01T01:58:36.000Z</time>
      </trkpt>
      <trkpt lat="45.99682" lon="4.54032">
        <ele>577.8</ele>
        <time>1970-01-01T01:58:37.000Z</time>
      </trkpt>
      <trkpt lat="45.99682" lon="4.54033">
        <ele>577.8</ele>
        <time>1970-01-01T01:58:38.000Z</time>
      </trkpt>
      <trkpt lat="45.99681" lon="4.54034">
        <ele>577.8</ele>
        <time>1970-01-01T01:58:39.000Z</time>
      </trkpt>
      <trkpt lat="45.99681" lon="4.54034">
        <ele>577.8</ele>
        <time>1970-01-01T01:58:40.000Z</time>
      </trkpt>
      <trkpt lat="45.99676" lon="4.5404">
        <ele>577.7</ele>
        <time>1970-01-01T01:58:41.000Z</time>
      </trkpt>
      <trkpt lat="45.99674" lon="4.54042">
        <ele>577.7</ele>
        <time>1970-01-01T01:58:42.000Z</time>
      </trkpt>
      <trkpt lat="45.99673" lon="4.54043">
        <ele>577.7</ele>
        <time>1970-01-01T01:58:43.000Z</time>
      </trkpt>
      <trkpt lat="45.99671" lon="4.54044">
        <ele>577.6</ele>
        <time>1970-01-01T01:58:44.000Z</time>
      </trkpt>
      <trkpt lat="45.9967" lon="4.54045">
        <ele>577.6</ele>
        <time>1970-01-01T01:58:45.000Z</time>
      </trkpt>
      <trkpt lat="45.99668" lon="4.54046">
        <ele>577.5</ele>
        <time>1970-01-01T01:58:46.000Z</time>
      </trkpt>
      <trkpt lat="45.99667" lon="4.54047">
        <ele>577.5</ele>
        <time>1970-01-01T01:58:47.000Z</time>
      </trkpt>
      <trkpt lat="45.99666" lon="4.54049">
        <ele>577.4</ele>
        <time>1970-01-01T01:58:48.000Z</time>
      </trkpt>
      <trkpt lat="45.99665" lon="4.5405">
        <ele>577.4</ele>
        <time>1970-01-01T01:58:49.000Z</time>
      </trkpt>
      <trkpt lat="45.99664" lon="4.54052">
        <ele>577.3</ele>
        <time>1970-01-01T01:58:50.000Z</time>
      </trkpt>
      <trkpt lat="45.99663" lon="4.54054">
        <ele>577.3</ele>
        <time>1970-01-01T01:58:51.000Z</time>
      </trkpt>
      <trkpt lat="45.99662" lon="4.54055">
        <ele>577.2</ele>
        <time>1970-01-01T01:58:52.000Z</time>
      </trkpt>
      <trkpt lat="45.99661" lon="4.54056">
        <ele>577.2</ele>
        <time>1970-01-01T01:58:53.000Z</time>
      </trkpt>
      <trkpt lat="45.99661" lon="4.54057">
        <ele>577.2</ele>
        <time>1970-01-01T01:58:54.000Z</time>
      </trkpt>
      <trkpt lat="45.9966" lon="4.54058">
        <ele>577.1</ele>
        <time>1970-01-01T01:58:55.000Z</time>
      </trkpt>
      <trkpt lat="45.9966" lon="4.5406">
        <ele>577.1</ele>
        <time>1970-01-01T01:58:56.000Z</time>
      </trkpt>
      <trkpt lat="45.99659" lon="4.54061">
        <ele>577.1</ele>
        <time>1970-01-01T01:58:57.000Z</time>
      </trkpt>
      <trkpt lat="45.99659" lon="4.54062">
        <ele>577</ele>
        <time>1970-01-01T01:58:58.000Z</time>
      </trkpt>
      <trkpt lat="45.99658" lon="4.54063">
        <ele>577</ele>
        <time>1970-01-01T01:58:59.000Z</time>
      </trkpt>
      <trkpt lat="45.99658" lon="4.54064">
        <ele>577</ele>
        <time>1970-01-01T01:59:00.000Z</time>
      </trkpt>
      <trkpt lat="45.99657" lon="4.54065">
        <ele>577</ele>
        <time>1970-01-01T01:59:01.000Z</time>
      </trkpt>
      <trkpt lat="45.99657" lon="4.54066">
        <ele>576.9</ele>
        <time>1970-01-01T01:59:02.000Z</time>
      </trkpt>
      <trkpt lat="45.99655" lon="4.54067">
        <ele>576.9</ele>
        <time>1970-01-01T01:59:03.000Z</time>
      </trkpt>
      <trkpt lat="45.99654" lon="4.54069">
        <ele>576.9</ele>
        <time>1970-01-01T01:59:04.000Z</time>
      </trkpt>
      <trkpt lat="45.99653" lon="4.5407">
        <ele>576.8</ele>
        <time>1970-01-01T01:59:05.000Z</time>
      </trkpt>
      <trkpt lat="45.99651" lon="4.54071">
        <ele>576.8</ele>
        <time>1970-01-01T01:59:06.000Z</time>
      </trkpt>
      <trkpt lat="45.9965" lon="4.54072">
        <ele>576.8</ele>
        <time>1970-01-01T01:59:07.000Z</time>
      </trkpt>
      <trkpt lat="45.99649" lon="4.54073">
        <ele>576.7</ele>
        <time>1970-01-01T01:59:08.000Z</time>
      </trkpt>
      <trkpt lat="45.99647" lon="4.54075">
        <ele>576.7</ele>
        <time>1970-01-01T01:59:09.000Z</time>
      </trkpt>
      <trkpt lat="45.99646" lon="4.54076">
        <ele>576.7</ele>
        <time>1970-01-01T01:59:10.000Z</time>
      </trkpt>
      <trkpt lat="45.99644" lon="4.54077">
        <ele>576.7</ele>
        <time>1970-01-01T01:59:11.000Z</time>
      </trkpt>
      <trkpt lat="45.99643" lon="4.54079">
        <ele>576.8</ele>
        <time>1970-01-01T01:59:12.000Z</time>
      </trkpt>
      <trkpt lat="45.99642" lon="4.5408">
        <ele>576.8</ele>
        <time>1970-01-01T01:59:13.000Z</time>
      </trkpt>
      <trkpt lat="45.9964" lon="4.54082">
        <ele>576.9</ele>
        <time>1970-01-01T01:59:14.000Z</time>
      </trkpt>
      <trkpt lat="45.99639" lon="4.54083">
        <ele>576.9</ele>
        <time>1970-01-01T01:59:15.000Z</time>
      </trkpt>
      <trkpt lat="45.99638" lon="4.54085">
        <ele>577</ele>
        <time>1970-01-01T01:59:16.000Z</time>
      </trkpt>
      <trkpt lat="45.99637" lon="4.54086">
        <ele>577</ele>
        <time>1970-01-01T01:59:17.000Z</time>
      </trkpt>
      <trkpt lat="45.99636" lon="4.54088">
        <ele>577.1</ele>
        <time>1970-01-01T01:59:18.000Z</time>
      </trkpt>
      <trkpt lat="45.99635" lon="4.54089">
        <ele>577.2</ele>
        <time>1970-01-01T01:59:19.000Z</time>
      </trkpt>
      <trkpt lat="45.99633" lon="4.54091">
        <ele>577.3</ele>
        <time>1970-01-01T01:59:20.000Z</time>
      </trkpt>
      <trkpt lat="45.99632" lon="4.54092">
        <ele>577.4</ele>
        <time>1970-01-01T01:59:21.000Z</time>
      </trkpt>
      <trkpt lat="45.99632" lon="4.54093">
        <ele>577.5</ele>
        <time>1970-01-01T01:59:22.000Z</time>
      </trkpt>
      <trkpt lat="45.99631" lon="4.54094">
        <ele>577.6</ele>
        <time>1970-01-01T01:59:23.000Z</time>
      </trkpt>
      <trkpt lat="45.9963" lon="4.54095">
        <ele>577.7</ele>
        <time>1970-01-01T01:59:24.000Z</time>
      </trkpt>
      <trkpt lat="45.99629" lon="4.54096">
        <ele>577.8</ele>
        <time>1970-01-01T01:59:25.000Z</time>
      </trkpt>
      <trkpt lat="45.99628" lon="4.54097">
        <ele>577.9</ele>
        <time>1970-01-01T01:59:26.000Z</time>
      </trkpt>
      <trkpt lat="45.99627" lon="4.54098">
        <ele>578</ele>
        <time>1970-01-01T01:59:27.000Z</time>
      </trkpt>
      <trkpt lat="45.99626" lon="4.54099">
        <ele>578.1</ele>
        <time>1970-01-01T01:59:28.000Z</time>
      </trkpt>
      <trkpt lat="45.99625" lon="4.54099">
        <ele>578.3</ele>
        <time>1970-01-01T01:59:29.000Z</time>
      </trkpt>
      <trkpt lat="45.99623" lon="4.541">
        <ele>578.4</ele>
        <time>1970-01-01T01:59:30.000Z</time>
      </trkpt>
      <trkpt lat="45.99622" lon="4.54101">
        <ele>578.6</ele>
        <time>1970-01-01T01:59:31.000Z</time>
      </trkpt>
      <trkpt lat="45.99621" lon="4.54101">
        <ele>578.7</ele>
        <time>1970-01-01T01:59:32.000Z</time>
      </trkpt>
      <trkpt lat="45.99619" lon="4.54102">
        <ele>578.9</ele>
        <time>1970-01-01T01:59:33.000Z</time>
      </trkpt>
      <trkpt lat="45.99618" lon="4.54102">
        <ele>579.1</ele>
        <time>1970-01-01T01:59:34.000Z</time>
      </trkpt>
      <trkpt lat="45.99617" lon="4.54103">
        <ele>579.2</ele>
        <time>1970-01-01T01:59:35.000Z</time>
      </trkpt>
      <trkpt lat="45.99616" lon="4.54103">
        <ele>579.4</ele>
        <time>1970-01-01T01:59:36.000Z</time>
      </trkpt>
      <trkpt lat="45.99615" lon="4.54103">
        <ele>579.5</ele>
        <time>1970-01-01T01:59:37.000Z</time>
      </trkpt>
      <trkpt lat="45.99614" lon="4.54103">
        <ele>579.6</ele>
        <time>1970-01-01T01:59:38.000Z</time>
      </trkpt>
      <trkpt lat="45.99613" lon="4.54104">
        <ele>579.7</ele>
        <time>1970-01-01T01:59:39.000Z</time>
      </trkpt>
      <trkpt lat="45.99612" lon="4.54104">
        <ele>579.9</ele>
        <time>1970-01-01T01:59:40.000Z</time>
      </trkpt>
      <trkpt lat="45.99612" lon="4.54104">
        <ele>580</ele>
        <time>1970-01-01T01:59:41.000Z</time>
      </trkpt>
      <trkpt lat="45.99611" lon="4.54104">
        <ele>580.1</ele>
        <time>1970-01-01T01:59:42.000Z</time>
      </trkpt>
      <trkpt lat="45.9961" lon="4.54105">
        <ele>580.3</ele>
        <time>1970-01-01T01:59:43.000Z</time>
      </trkpt>
      <trkpt lat="45.99609" lon="4.54105">
        <ele>580.4</ele>
        <time>1970-01-01T01:59:44.000Z</time>
      </trkpt>
      <trkpt lat="45.99608" lon="4.54105">
        <ele>580.6</ele>
        <time>1970-01-01T01:59:45.000Z</time>
      </trkpt>
      <trkpt lat="45.99607" lon="4.54106">
        <ele>580.7</ele>
        <time>1970-01-01T01:59:46.000Z</time>
      </trkpt>
      <trkpt lat="45.99606" lon="4.54106">
        <ele>580.9</ele>
        <time>1970-01-01T01:59:47.000Z</time>
      </trkpt>
      <trkpt lat="45.99605" lon="4.54107">
        <ele>581.1</ele>
        <time>1970-01-01T01:59:48.000Z</time>
      </trkpt>
      <trkpt lat="45.99604" lon="4.54108">
        <ele>581.3</ele>
        <time>1970-01-01T01:59:49.000Z</time>
      </trkpt>
      <trkpt lat="45.99603" lon="4.54109">
        <ele>581.5</ele>
        <time>1970-01-01T01:59:50.000Z</time>
      </trkpt>
      <trkpt lat="45.99602" lon="4.54109">
        <ele>581.7</ele>
        <time>1970-01-01T01:59:51.000Z</time>
      </trkpt>
      <trkpt lat="45.996" lon="4.5411">
        <ele>581.9</ele>
        <time>1970-01-01T01:59:52.000Z</time>
      </trkpt>
      <trkpt lat="45.99599" lon="4.54111">
        <ele>582.1</ele>
        <time>1970-01-01T01:59:53.000Z</time>
      </trkpt>
      <trkpt lat="45.99598" lon="4.54112">
        <ele>582.3</ele>
        <time>1970-01-01T01:59:54.000Z</time>
      </trkpt>
      <trkpt lat="45.99597" lon="4.54113">
        <ele>582.6</ele>
        <time>1970-01-01T01:59:55.000Z</time>
      </trkpt>
      <trkpt lat="45.99596" lon="4.54113">
        <ele>582.8</ele>
        <time>1970-01-01T01:59:56.000Z</time>
      </trkpt>
      <trkpt lat="45.99594" lon="4.54114">
        <ele>583.1</ele>
        <time>1970-01-01T01:59:57.000Z</time>
      </trkpt>
      <trkpt lat="45.99593" lon="4.54115">
        <ele>583.3</ele>
        <time>1970-01-01T01:59:58.000Z</time>
      </trkpt>
      <trkpt lat="45.99592" lon="4.54116">
        <ele>583.6</ele>
        <time>1970-01-01T01:59:59.000Z</time>
      </trkpt>
      <trkpt lat="45.99591" lon="4.54117">
        <ele>583.8</ele>
        <time>1970-01-01T02:00:00.000Z</time>
      </trkpt>
      <trkpt lat="45.9959" lon="4.54117">
        <ele>583.9</ele>
        <time>1970-01-01T02:00:01.000Z</time>
      </trkpt>
      <trkpt lat="45.99589" lon="4.54117">
        <ele>584.1</ele>
        <time>1970-01-01T02:00:02.000Z</time>
      </trkpt>
      <trkpt lat="45.99589" lon="4.54118">
        <ele>584.2</ele>
        <time>1970-01-01T02:00:03.000Z</time>
      </trkpt>
      <trkpt lat="45.99588" lon="4.54118">
        <ele>584.3</ele>
        <time>1970-01-01T02:00:04.000Z</time>
      </trkpt>
      <trkpt lat="45.99587" lon="4.54118">
        <ele>584.4</ele>
        <time>1970-01-01T02:00:05.000Z</time>
      </trkpt>
      <trkpt lat="45.99587" lon="4.54118">
        <ele>584.6</ele>
        <time>1970-01-01T02:00:06.000Z</time>
      </trkpt>
      <trkpt lat="45.99586" lon="4.54119">
        <ele>584.7</ele>
        <time>1970-01-01T02:00:07.000Z</time>
      </trkpt>
      <trkpt lat="45.99585" lon="4.54119">
        <ele>584.8</ele>
        <time>1970-01-01T02:00:08.000Z</time>
      </trkpt>
      <trkpt lat="45.99585" lon="4.54119">
        <ele>584.9</ele>
        <time>1970-01-01T02:00:09.000Z</time>
      </trkpt>
      <trkpt lat="45.99584" lon="4.54119">
        <ele>585</ele>
        <time>1970-01-01T02:00:10.000Z</time>
      </trkpt>
      <trkpt lat="45.99583" lon="4.54119">
        <ele>585.1</ele>
        <time>1970-01-01T02:00:11.000Z</time>
      </trkpt>
      <trkpt lat="45.99582" lon="4.5412">
        <ele>585.2</ele>
        <time>1970-01-01T02:00:12.000Z</time>
      </trkpt>
      <trkpt lat="45.99582" lon="4.5412">
        <ele>585.3</ele>
        <time>1970-01-01T02:00:13.000Z</time>
      </trkpt>
      <trkpt lat="45.9958" lon="4.5412">
        <ele>585.6</ele>
        <time>1970-01-01T02:00:14.000Z</time>
      </trkpt>
      <trkpt lat="45.99578" lon="4.54119">
        <ele>585.9</ele>
        <time>1970-01-01T02:00:15.000Z</time>
      </trkpt>
      <trkpt lat="45.99576" lon="4.54119">
        <ele>586.2</ele>
        <time>1970-01-01T02:00:16.000Z</time>
      </trkpt>
      <trkpt lat="45.99574" lon="4.54119">
        <ele>586.5</ele>
        <time>1970-01-01T02:00:17.000Z</time>
      </trkpt>
      <trkpt lat="45.99572" lon="4.54119">
        <ele>586.7</ele>
        <time>1970-01-01T02:00:18.000Z</time>
      </trkpt>
      <trkpt lat="45.9957" lon="4.54118">
        <ele>586.9</ele>
        <time>1970-01-01T02:00:19.000Z</time>
      </trkpt>
      <trkpt lat="45.99569" lon="4.54118">
        <ele>587.1</ele>
        <time>1970-01-01T02:00:20.000Z</time>
      </trkpt>
      <trkpt lat="45.99567" lon="4.54117">
        <ele>587.3</ele>
        <time>1970-01-01T02:00:21.000Z</time>
      </trkpt>
      <trkpt lat="45.99566" lon="4.54117">
        <ele>587.5</ele>
        <time>1970-01-01T02:00:22.000Z</time>
      </trkpt>
      <trkpt lat="45.99564" lon="4.54116">
        <ele>587.7</ele>
        <time>1970-01-01T02:00:23.000Z</time>
      </trkpt>
      <trkpt lat="45.99563" lon="4.54116">
        <ele>587.9</ele>
        <time>1970-01-01T02:00:24.000Z</time>
      </trkpt>
      <trkpt lat="45.99562" lon="4.54114">
        <ele>588</ele>
        <time>1970-01-01T02:00:25.000Z</time>
      </trkpt>
      <trkpt lat="45.99561" lon="4.54113">
        <ele>588.1</ele>
        <time>1970-01-01T02:00:26.000Z</time>
      </trkpt>
      <trkpt lat="45.99561" lon="4.54111">
        <ele>588.3</ele>
        <time>1970-01-01T02:00:27.000Z</time>
      </trkpt>
      <trkpt lat="45.9956" lon="4.5411">
        <ele>588.4</ele>
        <time>1970-01-01T02:00:28.000Z</time>
      </trkpt>
      <trkpt lat="45.99559" lon="4.54109">
        <ele>588.5</ele>
        <time>1970-01-01T02:00:29.000Z</time>
      </trkpt>
      <trkpt lat="45.99559" lon="4.54107">
        <ele>588.6</ele>
        <time>1970-01-01T02:00:30.000Z</time>
      </trkpt>
      <trkpt lat="45.99558" lon="4.54106">
        <ele>588.7</ele>
        <time>1970-01-01T02:00:31.000Z</time>
      </trkpt>
      <trkpt lat="45.99557" lon="4.54105">
        <ele>588.9</ele>
        <time>1970-01-01T02:00:32.000Z</time>
      </trkpt>
      <trkpt lat="45.99557" lon="4.54103">
        <ele>589</ele>
        <time>1970-01-01T02:00:33.000Z</time>
      </trkpt>
      <trkpt lat="45.99556" lon="4.54102">
        <ele>589.1</ele>
        <time>1970-01-01T02:00:34.000Z</time>
      </trkpt>
      <trkpt lat="45.99556" lon="4.541">
        <ele>589.2</ele>
        <time>1970-01-01T02:00:35.000Z</time>
      </trkpt>
      <trkpt lat="45.99555" lon="4.54098">
        <ele>589.4</ele>
        <time>1970-01-01T02:00:36.000Z</time>
      </trkpt>
      <trkpt lat="45.99555" lon="4.54096">
        <ele>589.5</ele>
        <time>1970-01-01T02:00:37.000Z</time>
      </trkpt>
      <trkpt lat="45.99555" lon="4.54094">
        <ele>589.6</ele>
        <time>1970-01-01T02:00:38.000Z</time>
      </trkpt>
      <trkpt lat="45.99554" lon="4.54092">
        <ele>589.7</ele>
        <time>1970-01-01T02:00:39.000Z</time>
      </trkpt>
      <trkpt lat="45.99554" lon="4.54091">
        <ele>589.9</ele>
        <time>1970-01-01T02:00:40.000Z</time>
      </trkpt>
      <trkpt lat="45.99553" lon="4.54088">
        <ele>590</ele>
        <time>1970-01-01T02:00:41.000Z</time>
      </trkpt>
      <trkpt lat="45.99553" lon="4.54086">
        <ele>590.1</ele>
        <time>1970-01-01T02:00:42.000Z</time>
      </trkpt>
      <trkpt lat="45.99553" lon="4.54084">
        <ele>590.2</ele>
        <time>1970-01-01T02:00:43.000Z</time>
      </trkpt>
      <trkpt lat="45.99553" lon="4.54082">
        <ele>590.4</ele>
        <time>1970-01-01T02:00:44.000Z</time>
      </trkpt>
      <trkpt lat="45.99553" lon="4.5408">
        <ele>590.5</ele>
        <time>1970-01-01T02:00:45.000Z</time>
      </trkpt>
      <trkpt lat="45.99552" lon="4.54078">
        <ele>590.6</ele>
        <time>1970-01-01T02:00:46.000Z</time>
      </trkpt>
      <trkpt lat="45.99552" lon="4.54076">
        <ele>590.7</ele>
        <time>1970-01-01T02:00:47.000Z</time>
      </trkpt>
      <trkpt lat="45.99552" lon="4.54075">
        <ele>590.8</ele>
        <time>1970-01-01T02:00:48.000Z</time>
      </trkpt>
      <trkpt lat="45.99551" lon="4.54073">
        <ele>590.9</ele>
        <time>1970-01-01T02:00:49.000Z</time>
      </trkpt>
      <trkpt lat="45.99551" lon="4.54072">
        <ele>591</ele>
        <time>1970-01-01T02:00:50.000Z</time>
      </trkpt>
      <trkpt lat="45.9955" lon="4.5407">
        <ele>591.1</ele>
        <time>1970-01-01T02:00:51.000Z</time>
      </trkpt>
      <trkpt lat="45.9955" lon="4.54069">
        <ele>591.2</ele>
        <time>1970-01-01T02:00:52.000Z</time>
      </trkpt>
      <trkpt lat="45.9955" lon="4.54068">
        <ele>591.3</ele>
        <time>1970-01-01T02:00:53.000Z</time>
      </trkpt>
      <trkpt lat="45.99549" lon="4.54066">
        <ele>591.4</ele>
        <time>1970-01-01T02:00:54.000Z</time>
      </trkpt>
      <trkpt lat="45.99549" lon="4.54065">
        <ele>591.5</ele>
        <time>1970-01-01T02:00:55.000Z</time>
      </trkpt>
      <trkpt lat="45.99548" lon="4.54063">
        <ele>591.6</ele>
        <time>1970-01-01T02:00:56.000Z</time>
      </trkpt>
      <trkpt lat="45.99548" lon="4.54062">
        <ele>591.7</ele>
        <time>1970-01-01T02:00:57.000Z</time>
      </trkpt>
      <trkpt lat="45.99548" lon="4.5406">
        <ele>591.8</ele>
        <time>1970-01-01T02:00:58.000Z</time>
      </trkpt>
      <trkpt lat="45.99547" lon="4.54058">
        <ele>592</ele>
        <time>1970-01-01T02:00:59.000Z</time>
      </trkpt>
      <trkpt lat="45.99547" lon="4.54057">
        <ele>592.1</ele>
        <time>1970-01-01T02:01:00.000Z</time>
      </trkpt>
      <trkpt lat="45.99547" lon="4.54055">
        <ele>592.2</ele>
        <time>1970-01-01T02:01:01.000Z</time>
      </trkpt>
      <trkpt lat="45.99546" lon="4.54053">
        <ele>592.3</ele>
        <time>1970-01-01T02:01:02.000Z</time>
      </trkpt>
      <trkpt lat="45.99546" lon="4.54052">
        <ele>592.4</ele>
        <time>1970-01-01T02:01:03.000Z</time>
      </trkpt>
      <trkpt lat="45.99546" lon="4.5405">
        <ele>592.6</ele>
        <time>1970-01-01T02:01:04.000Z</time>
      </trkpt>
      <trkpt lat="45.99545" lon="4.54049">
        <ele>592.7</ele>
        <time>1970-01-01T02:01:05.000Z</time>
      </trkpt>
      <trkpt lat="45.99545" lon="4.54047">
        <ele>592.8</ele>
        <time>1970-01-01T02:01:06.000Z</time>
      </trkpt>
      <trkpt lat="45.99544" lon="4.54046">
        <ele>593</ele>
        <time>1970-01-01T02:01:07.000Z</time>
      </trkpt>
      <trkpt lat="45.99543" lon="4.54044">
        <ele>593.1</ele>
        <time>1970-01-01T02:01:08.000Z</time>
      </trkpt>
      <trkpt lat="45.99543" lon="4.54043">
        <ele>593.3</ele>
        <time>1970-01-01T02:01:09.000Z</time>
      </trkpt>
      <trkpt lat="45.99542" lon="4.54042">
        <ele>593.4</ele>
        <time>1970-01-01T02:01:10.000Z</time>
      </trkpt>
      <trkpt lat="45.99542" lon="4.5404">
        <ele>593.6</ele>
        <time>1970-01-01T02:01:11.000Z</time>
      </trkpt>
      <trkpt lat="45.99541" lon="4.54039">
        <ele>593.7</ele>
        <time>1970-01-01T02:01:12.000Z</time>
      </trkpt>
      <trkpt lat="45.99541" lon="4.54038">
        <ele>593.8</ele>
        <time>1970-01-01T02:01:13.000Z</time>
      </trkpt>
      <trkpt lat="45.99541" lon="4.54036">
        <ele>593.9</ele>
        <time>1970-01-01T02:01:14.000Z</time>
      </trkpt>
      <trkpt lat="45.9954" lon="4.54035">
        <ele>594</ele>
        <time>1970-01-01T02:01:15.000Z</time>
      </trkpt>
      <trkpt lat="45.9954" lon="4.54034">
        <ele>594.2</ele>
        <time>1970-01-01T02:01:16.000Z</time>
      </trkpt>
      <trkpt lat="45.9954" lon="4.54033">
        <ele>594.3</ele>
        <time>1970-01-01T02:01:17.000Z</time>
      </trkpt>
      <trkpt lat="45.9954" lon="4.54032">
        <ele>594.4</ele>
        <time>1970-01-01T02:01:18.000Z</time>
      </trkpt>
      <trkpt lat="45.9954" lon="4.5403">
        <ele>594.5</ele>
        <time>1970-01-01T02:01:19.000Z</time>
      </trkpt>
      <trkpt lat="45.99539" lon="4.54029">
        <ele>594.6</ele>
        <time>1970-01-01T02:01:20.000Z</time>
      </trkpt>
      <trkpt lat="45.99539" lon="4.54028">
        <ele>594.7</ele>
        <time>1970-01-01T02:01:21.000Z</time>
      </trkpt>
      <trkpt lat="45.99539" lon="4.54027">
        <ele>594.8</ele>
        <time>1970-01-01T02:01:22.000Z</time>
      </trkpt>
      <trkpt lat="45.99539" lon="4.54026">
        <ele>595</ele>
        <time>1970-01-01T02:01:23.000Z</time>
      </trkpt>
      <trkpt lat="45.99538" lon="4.54025">
        <ele>595.1</ele>
        <time>1970-01-01T02:01:24.000Z</time>
      </trkpt>
      <trkpt lat="45.99538" lon="4.54023">
        <ele>595.2</ele>
        <time>1970-01-01T02:01:25.000Z</time>
      </trkpt>
      <trkpt lat="45.99538" lon="4.54021">
        <ele>595.4</ele>
        <time>1970-01-01T02:01:26.000Z</time>
      </trkpt>
      <trkpt lat="45.99538" lon="4.5402">
        <ele>595.5</ele>
        <time>1970-01-01T02:01:27.000Z</time>
      </trkpt>
      <trkpt lat="45.99538" lon="4.54018">
        <ele>595.7</ele>
        <time>1970-01-01T02:01:28.000Z</time>
      </trkpt>
      <trkpt lat="45.99538" lon="4.54017">
        <ele>595.8</ele>
        <time>1970-01-01T02:01:29.000Z</time>
      </trkpt>
      <trkpt lat="45.99538" lon="4.54015">
        <ele>596</ele>
        <time>1970-01-01T02:01:30.000Z</time>
      </trkpt>
      <trkpt lat="45.99538" lon="4.54013">
        <ele>596.2</ele>
        <time>1970-01-01T02:01:31.000Z</time>
      </trkpt>
      <trkpt lat="45.99538" lon="4.54012">
        <ele>596.3</ele>
        <time>1970-01-01T02:01:32.000Z</time>
      </trkpt>
      <trkpt lat="45.99538" lon="4.5401">
        <ele>596.5</ele>
        <time>1970-01-01T02:01:33.000Z</time>
      </trkpt>
      <trkpt lat="45.99537" lon="4.54009">
        <ele>596.6</ele>
        <time>1970-01-01T02:01:34.000Z</time>
      </trkpt>
      <trkpt lat="45.99537" lon="4.54008">
        <ele>596.8</ele>
        <time>1970-01-01T02:01:35.000Z</time>
      </trkpt>
      <trkpt lat="45.99536" lon="4.54007">
        <ele>596.9</ele>
        <time>1970-01-01T02:01:36.000Z</time>
      </trkpt>
      <trkpt lat="45.99536" lon="4.54005">
        <ele>597</ele>
        <time>1970-01-01T02:01:37.000Z</time>
      </trkpt>
      <trkpt lat="45.99536" lon="4.54004">
        <ele>597.2</ele>
        <time>1970-01-01T02:01:38.000Z</time>
      </trkpt>
      <trkpt lat="45.99535" lon="4.54003">
        <ele>597.3</ele>
        <time>1970-01-01T02:01:39.000Z</time>
      </trkpt>
      <trkpt lat="45.99535" lon="4.54002">
        <ele>597.4</ele>
        <time>1970-01-01T02:01:40.000Z</time>
      </trkpt>
      <trkpt lat="45.99534" lon="4.54001">
        <ele>597.6</ele>
        <time>1970-01-01T02:01:41.000Z</time>
      </trkpt>
      <trkpt lat="45.99534" lon="4.53999">
        <ele>597.7</ele>
        <time>1970-01-01T02:01:42.000Z</time>
      </trkpt>
      <trkpt lat="45.99534" lon="4.53998">
        <ele>597.8</ele>
        <time>1970-01-01T02:01:43.000Z</time>
      </trkpt>
      <trkpt lat="45.99533" lon="4.53997">
        <ele>598</ele>
        <time>1970-01-01T02:01:44.000Z</time>
      </trkpt>
      <trkpt lat="45.99533" lon="4.53996">
        <ele>598.1</ele>
        <time>1970-01-01T02:01:45.000Z</time>
      </trkpt>
      <trkpt lat="45.99532" lon="4.53994">
        <ele>598.3</ele>
        <time>1970-01-01T02:01:46.000Z</time>
      </trkpt>
      <trkpt lat="45.99532" lon="4.53993">
        <ele>598.4</ele>
        <time>1970-01-01T02:01:47.000Z</time>
      </trkpt>
      <trkpt lat="45.99531" lon="4.53992">
        <ele>598.6</ele>
        <time>1970-01-01T02:01:48.000Z</time>
      </trkpt>
      <trkpt lat="45.99531" lon="4.5399">
        <ele>598.7</ele>
        <time>1970-01-01T02:01:49.000Z</time>
      </trkpt>
      <trkpt lat="45.9953" lon="4.53989">
        <ele>598.9</ele>
        <time>1970-01-01T02:01:50.000Z</time>
      </trkpt>
      <trkpt lat="45.9953" lon="4.53988">
        <ele>599</ele>
        <time>1970-01-01T02:01:51.000Z</time>
      </trkpt>
      <trkpt lat="45.99529" lon="4.53986">
        <ele>599.2</ele>
        <time>1970-01-01T02:01:52.000Z</time>
      </trkpt>
      <trkpt lat="45.99528" lon="4.53985">
        <ele>599.3</ele>
        <time>1970-01-01T02:01:53.000Z</time>
      </trkpt>
      <trkpt lat="45.99528" lon="4.53984">
        <ele>599.4</ele>
        <time>1970-01-01T02:01:54.000Z</time>
      </trkpt>
      <trkpt lat="45.99527" lon="4.53983">
        <ele>599.6</ele>
        <time>1970-01-01T02:01:55.000Z</time>
      </trkpt>
      <trkpt lat="45.99526" lon="4.53982">
        <ele>599.7</ele>
        <time>1970-01-01T02:01:56.000Z</time>
      </trkpt>
      <trkpt lat="45.99526" lon="4.5398">
        <ele>599.9</ele>
        <time>1970-01-01T02:01:57.000Z</time>
      </trkpt>
      <trkpt lat="45.99525" lon="4.53979">
        <ele>600</ele>
        <time>1970-01-01T02:01:58.000Z</time>
      </trkpt>
      <trkpt lat="45.99525" lon="4.53978">
        <ele>600.1</ele>
        <time>1970-01-01T02:01:59.000Z</time>
      </trkpt>
      <trkpt lat="45.99524" lon="4.53977">
        <ele>600.3</ele>
        <time>1970-01-01T02:02:00.000Z</time>
      </trkpt>
      <trkpt lat="45.99523" lon="4.53976">
        <ele>600.4</ele>
        <time>1970-01-01T02:02:01.000Z</time>
      </trkpt>
      <trkpt lat="45.99523" lon="4.53975">
        <ele>600.5</ele>
        <time>1970-01-01T02:02:02.000Z</time>
      </trkpt>
      <trkpt lat="45.99522" lon="4.53974">
        <ele>600.6</ele>
        <time>1970-01-01T02:02:03.000Z</time>
      </trkpt>
      <trkpt lat="45.99521" lon="4.53973">
        <ele>600.7</ele>
        <time>1970-01-01T02:02:04.000Z</time>
      </trkpt>
      <trkpt lat="45.9952" lon="4.53972">
        <ele>600.8</ele>
        <time>1970-01-01T02:02:05.000Z</time>
      </trkpt>
      <trkpt lat="45.9952" lon="4.53971">
        <ele>600.9</ele>
        <time>1970-01-01T02:02:06.000Z</time>
      </trkpt>
      <trkpt lat="45.99519" lon="4.5397">
        <ele>601</ele>
        <time>1970-01-01T02:02:07.000Z</time>
      </trkpt>
      <trkpt lat="45.99518" lon="4.53969">
        <ele>601.1</ele>
        <time>1970-01-01T02:02:08.000Z</time>
      </trkpt>
      <trkpt lat="45.99518" lon="4.53968">
        <ele>601.2</ele>
        <time>1970-01-01T02:02:09.000Z</time>
      </trkpt>
      <trkpt lat="45.99517" lon="4.53967">
        <ele>601.2</ele>
        <time>1970-01-01T02:02:10.000Z</time>
      </trkpt>
      <trkpt lat="45.99516" lon="4.53966">
        <ele>601.3</ele>
        <time>1970-01-01T02:02:11.000Z</time>
      </trkpt>
      <trkpt lat="45.99516" lon="4.53965">
        <ele>601.4</ele>
        <time>1970-01-01T02:02:12.000Z</time>
      </trkpt>
      <trkpt lat="45.99515" lon="4.53964">
        <ele>601.4</ele>
        <time>1970-01-01T02:02:13.000Z</time>
      </trkpt>
      <trkpt lat="45.99515" lon="4.53963">
        <ele>601.5</ele>
        <time>1970-01-01T02:02:14.000Z</time>
      </trkpt>
      <trkpt lat="45.99514" lon="4.53962">
        <ele>601.5</ele>
        <time>1970-01-01T02:02:15.000Z</time>
      </trkpt>
      <trkpt lat="45.99513" lon="4.53962">
        <ele>601.5</ele>
        <time>1970-01-01T02:02:16.000Z</time>
      </trkpt>
      <trkpt lat="45.99513" lon="4.53961">
        <ele>601.5</ele>
        <time>1970-01-01T02:02:17.000Z</time>
      </trkpt>
      <trkpt lat="45.99513" lon="4.53961">
        <ele>601.5</ele>
        <time>1970-01-01T02:02:18.000Z</time>
      </trkpt>
      <trkpt lat="45.99512" lon="4.53959">
        <ele>601.6</ele>
        <time>1970-01-01T02:02:19.000Z</time>
      </trkpt>
      <trkpt lat="45.99512" lon="4.53959">
        <ele>601.6</ele>
        <time>1970-01-01T02:02:20.000Z</time>
      </trkpt>
      <trkpt lat="45.99511" lon="4.53956">
        <ele>601.6</ele>
        <time>1970-01-01T02:02:21.000Z</time>
      </trkpt>
      <trkpt lat="45.99511" lon="4.53956">
        <ele>601.6</ele>
        <time>1970-01-01T02:02:22.000Z</time>
      </trkpt>
      <trkpt lat="45.99511" lon="4.53956">
        <ele>601.6</ele>
        <time>1970-01-01T02:02:23.000Z</time>
      </trkpt>
      <trkpt lat="45.9951" lon="4.53953">
        <ele>601.5</ele>
        <time>1970-01-01T02:02:24.000Z</time>
      </trkpt>
      <trkpt lat="45.9951" lon="4.53953">
        <ele>601.5</ele>
        <time>1970-01-01T02:02:25.000Z</time>
      </trkpt>
      <trkpt lat="45.9951" lon="4.5395">
        <ele>601.5</ele>
        <time>1970-01-01T02:02:26.000Z</time>
      </trkpt>
      <trkpt lat="45.9951" lon="4.5395">
        <ele>601.5</ele>
        <time>1970-01-01T02:02:27.000Z</time>
      </trkpt>
      <trkpt lat="45.99509" lon="4.53948">
        <ele>601.3</ele>
        <time>1970-01-01T02:02:28.000Z</time>
      </trkpt>
      <trkpt lat="45.99509" lon="4.53948">
        <ele>601.3</ele>
        <time>1970-01-01T02:02:29.000Z</time>
      </trkpt>
      <trkpt lat="45.99509" lon="4.53948">
        <ele>601.3</ele>
        <time>1970-01-01T02:02:30.000Z</time>
      </trkpt>
      <trkpt lat="45.99509" lon="4.53948">
        <ele>601.3</ele>
        <time>1970-01-01T02:02:31.000Z</time>
      </trkpt>
      <trkpt lat="45.99508" lon="4.53946">
        <ele>601.2</ele>
        <time>1970-01-01T02:02:32.000Z</time>
      </trkpt>
      <trkpt lat="45.99508" lon="4.53946">
        <ele>601.2</ele>
        <time>1970-01-01T02:02:33.000Z</time>
      </trkpt>
      <trkpt lat="45.99508" lon="4.53946">
        <ele>601.2</ele>
        <time>1970-01-01T02:02:34.000Z</time>
      </trkpt>
      <trkpt lat="45.99508" lon="4.53946">
        <ele>601.2</ele>
        <time>1970-01-01T02:02:35.000Z</time>
      </trkpt>
      <trkpt lat="45.99508" lon="4.53946">
        <ele>601.2</ele>
        <time>1970-01-01T02:02:36.000Z</time>
      </trkpt>
      <trkpt lat="45.99506" lon="4.53948">
        <ele>601</ele>
        <time>1970-01-01T02:02:37.000Z</time>
      </trkpt>
      <trkpt lat="45.99506" lon="4.53948">
        <ele>601</ele>
        <time>1970-01-01T02:02:38.000Z</time>
      </trkpt>
      <trkpt lat="45.99506" lon="4.53948">
        <ele>601</ele>
        <time>1970-01-01T02:02:39.000Z</time>
      </trkpt>
      <trkpt lat="45.99504" lon="4.53949">
        <ele>600.8</ele>
        <time>1970-01-01T02:02:40.000Z</time>
      </trkpt>
      <trkpt lat="45.99504" lon="4.53949">
        <ele>600.8</ele>
        <time>1970-01-01T02:02:41.000Z</time>
      </trkpt>
      <trkpt lat="45.99504" lon="4.53949">
        <ele>600.8</ele>
        <time>1970-01-01T02:02:42.000Z</time>
      </trkpt>
      <trkpt lat="45.99503" lon="4.53951">
        <ele>600.6</ele>
        <time>1970-01-01T02:02:43.000Z</time>
      </trkpt>
      <trkpt lat="45.99503" lon="4.53951">
        <ele>600.6</ele>
        <time>1970-01-01T02:02:44.000Z</time>
      </trkpt>
      <trkpt lat="45.99503" lon="4.53951">
        <ele>600.6</ele>
        <time>1970-01-01T02:02:45.000Z</time>
      </trkpt>
      <trkpt lat="45.99502" lon="4.53954">
        <ele>600.2</ele>
        <time>1970-01-01T02:02:46.000Z</time>
      </trkpt>
      <trkpt lat="45.99501" lon="4.53954">
        <ele>600.1</ele>
        <time>1970-01-01T02:02:47.000Z</time>
      </trkpt>
      <trkpt lat="45.995" lon="4.53955">
        <ele>599.3</ele>
        <time>1970-01-01T02:02:48.000Z</time>
      </trkpt>
      <trkpt lat="45.995" lon="4.53956">
        <ele>599.2</ele>
        <time>1970-01-01T02:02:49.000Z</time>
      </trkpt>
      <trkpt lat="45.99499" lon="4.53956">
        <ele>599.1</ele>
        <time>1970-01-01T02:02:50.000Z</time>
      </trkpt>
      <trkpt lat="45.99499" lon="4.53957">
        <ele>598.9</ele>
        <time>1970-01-01T02:02:51.000Z</time>
      </trkpt>
      <trkpt lat="45.99498" lon="4.53957">
        <ele>598.8</ele>
        <time>1970-01-01T02:02:52.000Z</time>
      </trkpt>
      <trkpt lat="45.99497" lon="4.53958">
        <ele>598.7</ele>
        <time>1970-01-01T02:02:53.000Z</time>
      </trkpt>
      <trkpt lat="45.99497" lon="4.53958">
        <ele>598.5</ele>
        <time>1970-01-01T02:02:54.000Z</time>
      </trkpt>
      <trkpt lat="45.99496" lon="4.53959">
        <ele>598.4</ele>
        <time>1970-01-01T02:02:55.000Z</time>
      </trkpt>
      <trkpt lat="45.99495" lon="4.5396">
        <ele>598.3</ele>
        <time>1970-01-01T02:02:56.000Z</time>
      </trkpt>
      <trkpt lat="45.99495" lon="4.5396">
        <ele>598.1</ele>
        <time>1970-01-01T02:02:57.000Z</time>
      </trkpt>
      <trkpt lat="45.99494" lon="4.53961">
        <ele>598</ele>
        <time>1970-01-01T02:02:58.000Z</time>
      </trkpt>
      <trkpt lat="45.99494" lon="4.53961">
        <ele>597.9</ele>
        <time>1970-01-01T02:02:59.000Z</time>
      </trkpt>
      <trkpt lat="45.99494" lon="4.53961">
        <ele>597.9</ele>
        <time>1970-01-01T02:03:00.000Z</time>
      </trkpt>
      <trkpt lat="45.99492" lon="4.53963">
        <ele>597.6</ele>
        <time>1970-01-01T02:03:01.000Z</time>
      </trkpt>
      <trkpt lat="45.99492" lon="4.53963">
        <ele>597.6</ele>
        <time>1970-01-01T02:03:02.000Z</time>
      </trkpt>
      <trkpt lat="45.99489" lon="4.53964">
        <ele>597.2</ele>
        <time>1970-01-01T02:03:03.000Z</time>
      </trkpt>
      <trkpt lat="45.99488" lon="4.53964">
        <ele>597.1</ele>
        <time>1970-01-01T02:03:04.000Z</time>
      </trkpt>
      <trkpt lat="45.99488" lon="4.53965">
        <ele>596.9</ele>
        <time>1970-01-01T02:03:05.000Z</time>
      </trkpt>
      <trkpt lat="45.99487" lon="4.53966">
        <ele>596.8</ele>
        <time>1970-01-01T02:03:06.000Z</time>
      </trkpt>
      <trkpt lat="45.99486" lon="4.53966">
        <ele>596.7</ele>
        <time>1970-01-01T02:03:07.000Z</time>
      </trkpt>
      <trkpt lat="45.99485" lon="4.53967">
        <ele>596.6</ele>
        <time>1970-01-01T02:03:08.000Z</time>
      </trkpt>
      <trkpt lat="45.99484" lon="4.53968">
        <ele>596.5</ele>
        <time>1970-01-01T02:03:09.000Z</time>
      </trkpt>
      <trkpt lat="45.99484" lon="4.53969">
        <ele>596.4</ele>
        <time>1970-01-01T02:03:10.000Z</time>
      </trkpt>
      <trkpt lat="45.99483" lon="4.53969">
        <ele>596.3</ele>
        <time>1970-01-01T02:03:11.000Z</time>
      </trkpt>
      <trkpt lat="45.99482" lon="4.5397">
        <ele>596.2</ele>
        <time>1970-01-01T02:03:12.000Z</time>
      </trkpt>
      <trkpt lat="45.99481" lon="4.53971">
        <ele>596.1</ele>
        <time>1970-01-01T02:03:13.000Z</time>
      </trkpt>
      <trkpt lat="45.9948" lon="4.53972">
        <ele>596</ele>
        <time>1970-01-01T02:03:14.000Z</time>
      </trkpt>
      <trkpt lat="45.9948" lon="4.53973">
        <ele>595.9</ele>
        <time>1970-01-01T02:03:15.000Z</time>
      </trkpt>
      <trkpt lat="45.99479" lon="4.53973">
        <ele>595.8</ele>
        <time>1970-01-01T02:03:16.000Z</time>
      </trkpt>
      <trkpt lat="45.99478" lon="4.53974">
        <ele>595.7</ele>
        <time>1970-01-01T02:03:17.000Z</time>
      </trkpt>
      <trkpt lat="45.99477" lon="4.53975">
        <ele>595.7</ele>
        <time>1970-01-01T02:03:18.000Z</time>
      </trkpt>
      <trkpt lat="45.99476" lon="4.53976">
        <ele>595.6</ele>
        <time>1970-01-01T02:03:19.000Z</time>
      </trkpt>
      <trkpt lat="45.99475" lon="4.53977">
        <ele>595.6</ele>
        <time>1970-01-01T02:03:20.000Z</time>
      </trkpt>
      <trkpt lat="45.99474" lon="4.53978">
        <ele>595.5</ele>
        <time>1970-01-01T02:03:21.000Z</time>
      </trkpt>
      <trkpt lat="45.99474" lon="4.53979">
        <ele>595.4</ele>
        <time>1970-01-01T02:03:22.000Z</time>
      </trkpt>
      <trkpt lat="45.99473" lon="4.5398">
        <ele>595.4</ele>
        <time>1970-01-01T02:03:23.000Z</time>
      </trkpt>
      <trkpt lat="45.99473" lon="4.53981">
        <ele>595.4</ele>
        <time>1970-01-01T02:03:24.000Z</time>
      </trkpt>
      <trkpt lat="45.99472" lon="4.53982">
        <ele>595.4</ele>
        <time>1970-01-01T02:03:25.000Z</time>
      </trkpt>
      <trkpt lat="45.99472" lon="4.53982">
        <ele>595.3</ele>
        <time>1970-01-01T02:03:26.000Z</time>
      </trkpt>
      <trkpt lat="45.99471" lon="4.53983">
        <ele>595.3</ele>
        <time>1970-01-01T02:03:27.000Z</time>
      </trkpt>
      <trkpt lat="45.9947" lon="4.53984">
        <ele>595.3</ele>
        <time>1970-01-01T02:03:28.000Z</time>
      </trkpt>
      <trkpt lat="45.9947" lon="4.53985">
        <ele>595.3</ele>
        <time>1970-01-01T02:03:29.000Z</time>
      </trkpt>
      <trkpt lat="45.99465" lon="4.53992">
        <ele>595.2</ele>
        <time>1970-01-01T02:03:30.000Z</time>
      </trkpt>
      <trkpt lat="45.99464" lon="4.53993">
        <ele>595.2</ele>
        <time>1970-01-01T02:03:31.000Z</time>
      </trkpt>
      <trkpt lat="45.99463" lon="4.53994">
        <ele>595.2</ele>
        <time>1970-01-01T02:03:32.000Z</time>
      </trkpt>
      <trkpt lat="45.99462" lon="4.53996">
        <ele>595.3</ele>
        <time>1970-01-01T02:03:33.000Z</time>
      </trkpt>
      <trkpt lat="45.99461" lon="4.53997">
        <ele>595.3</ele>
        <time>1970-01-01T02:03:34.000Z</time>
      </trkpt>
      <trkpt lat="45.9946" lon="4.53998">
        <ele>595.3</ele>
        <time>1970-01-01T02:03:35.000Z</time>
      </trkpt>
      <trkpt lat="45.99459" lon="4.54">
        <ele>595.3</ele>
        <time>1970-01-01T02:03:36.000Z</time>
      </trkpt>
      <trkpt lat="45.99458" lon="4.54001">
        <ele>595.4</ele>
        <time>1970-01-01T02:03:37.000Z</time>
      </trkpt>
      <trkpt lat="45.99457" lon="4.54002">
        <ele>595.4</ele>
        <time>1970-01-01T02:03:38.000Z</time>
      </trkpt>
      <trkpt lat="45.99455" lon="4.54004">
        <ele>595.4</ele>
        <time>1970-01-01T02:03:39.000Z</time>
      </trkpt>
      <trkpt lat="45.99454" lon="4.54005">
        <ele>595.5</ele>
        <time>1970-01-01T02:03:40.000Z</time>
      </trkpt>
      <trkpt lat="45.99453" lon="4.54006">
        <ele>595.5</ele>
        <time>1970-01-01T02:03:41.000Z</time>
      </trkpt>
      <trkpt lat="45.99452" lon="4.54007">
        <ele>595.6</ele>
        <time>1970-01-01T02:03:42.000Z</time>
      </trkpt>
      <trkpt lat="45.99451" lon="4.54009">
        <ele>595.6</ele>
        <time>1970-01-01T02:03:43.000Z</time>
      </trkpt>
      <trkpt lat="45.9945" lon="4.54009">
        <ele>595.7</ele>
        <time>1970-01-01T02:03:44.000Z</time>
      </trkpt>
      <trkpt lat="45.9945" lon="4.5401">
        <ele>595.7</ele>
        <time>1970-01-01T02:03:45.000Z</time>
      </trkpt>
      <trkpt lat="45.99449" lon="4.54011">
        <ele>595.7</ele>
        <time>1970-01-01T02:03:46.000Z</time>
      </trkpt>
      <trkpt lat="45.99449" lon="4.54011">
        <ele>595.7</ele>
        <time>1970-01-01T02:03:47.000Z</time>
      </trkpt>
      <trkpt lat="45.99448" lon="4.54012">
        <ele>595.7</ele>
        <time>1970-01-01T02:03:48.000Z</time>
      </trkpt>
      <trkpt lat="45.99447" lon="4.54013">
        <ele>595.8</ele>
        <time>1970-01-01T02:03:49.000Z</time>
      </trkpt>
      <trkpt lat="45.99447" lon="4.54013">
        <ele>595.8</ele>
        <time>1970-01-01T02:03:50.000Z</time>
      </trkpt>
      <trkpt lat="45.99441" lon="4.54019">
        <ele>596</ele>
        <time>1970-01-01T02:03:51.000Z</time>
      </trkpt>
      <trkpt lat="45.99439" lon="4.54021">
        <ele>596.1</ele>
        <time>1970-01-01T02:03:52.000Z</time>
      </trkpt>
      <trkpt lat="45.99437" lon="4.54022">
        <ele>596.1</ele>
        <time>1970-01-01T02:03:53.000Z</time>
      </trkpt>
      <trkpt lat="45.99436" lon="4.54023">
        <ele>596.2</ele>
        <time>1970-01-01T02:03:54.000Z</time>
      </trkpt>
      <trkpt lat="45.99434" lon="4.54025">
        <ele>596.2</ele>
        <time>1970-01-01T02:03:55.000Z</time>
      </trkpt>
      <trkpt lat="45.99433" lon="4.54026">
        <ele>596.3</ele>
        <time>1970-01-01T02:03:56.000Z</time>
      </trkpt>
      <trkpt lat="45.99433" lon="4.54027">
        <ele>596.3</ele>
        <time>1970-01-01T02:03:57.000Z</time>
      </trkpt>
      <trkpt lat="45.99432" lon="4.54028">
        <ele>596.3</ele>
        <time>1970-01-01T02:03:58.000Z</time>
      </trkpt>
      <trkpt lat="45.99432" lon="4.54029">
        <ele>596.3</ele>
        <time>1970-01-01T02:03:59.000Z</time>
      </trkpt>
      <trkpt lat="45.99432" lon="4.5403">
        <ele>596.4</ele>
        <time>1970-01-01T02:04:00.000Z</time>
      </trkpt>
      <trkpt lat="45.99431" lon="4.54031">
        <ele>596.4</ele>
        <time>1970-01-01T02:04:01.000Z</time>
      </trkpt>
      <trkpt lat="45.99431" lon="4.54032">
        <ele>596.4</ele>
        <time>1970-01-01T02:04:02.000Z</time>
      </trkpt>
      <trkpt lat="45.9943" lon="4.54033">
        <ele>596.4</ele>
        <time>1970-01-01T02:04:03.000Z</time>
      </trkpt>
      <trkpt lat="45.9943" lon="4.54035">
        <ele>596.4</ele>
        <time>1970-01-01T02:04:04.000Z</time>
      </trkpt>
      <trkpt lat="45.99429" lon="4.54036">
        <ele>596.5</ele>
        <time>1970-01-01T02:04:05.000Z</time>
      </trkpt>
      <trkpt lat="45.99429" lon="4.54037">
        <ele>596.5</ele>
        <time>1970-01-01T02:04:06.000Z</time>
      </trkpt>
      <trkpt lat="45.99428" lon="4.54037">
        <ele>596.5</ele>
        <time>1970-01-01T02:04:07.000Z</time>
      </trkpt>
      <trkpt lat="45.99428" lon="4.54038">
        <ele>596.5</ele>
        <time>1970-01-01T02:04:08.000Z</time>
      </trkpt>
      <trkpt lat="45.99427" lon="4.54038">
        <ele>596.6</ele>
        <time>1970-01-01T02:04:09.000Z</time>
      </trkpt>
      <trkpt lat="45.99427" lon="4.54039">
        <ele>596.6</ele>
        <time>1970-01-01T02:04:10.000Z</time>
      </trkpt>
      <trkpt lat="45.99426" lon="4.5404">
        <ele>596.6</ele>
        <time>1970-01-01T02:04:11.000Z</time>
      </trkpt>
      <trkpt lat="45.99426" lon="4.5404">
        <ele>596.6</ele>
        <time>1970-01-01T02:04:12.000Z</time>
      </trkpt>
      <trkpt lat="45.99425" lon="4.54041">
        <ele>596.6</ele>
        <time>1970-01-01T02:04:13.000Z</time>
      </trkpt>
      <trkpt lat="45.99424" lon="4.54041">
        <ele>596.7</ele>
        <time>1970-01-01T02:04:14.000Z</time>
      </trkpt>
      <trkpt lat="45.99419" lon="4.54047">
        <ele>596.9</ele>
        <time>1970-01-01T02:04:15.000Z</time>
      </trkpt>
      <trkpt lat="45.99418" lon="4.54048">
        <ele>596.9</ele>
        <time>1970-01-01T02:04:16.000Z</time>
      </trkpt>
      <trkpt lat="45.99417" lon="4.5405">
        <ele>597</ele>
        <time>1970-01-01T02:04:17.000Z</time>
      </trkpt>
      <trkpt lat="45.99415" lon="4.54051">
        <ele>597</ele>
        <time>1970-01-01T02:04:18.000Z</time>
      </trkpt>
      <trkpt lat="45.99414" lon="4.54052">
        <ele>597</ele>
        <time>1970-01-01T02:04:19.000Z</time>
      </trkpt>
      <trkpt lat="45.99413" lon="4.54053">
        <ele>597.1</ele>
        <time>1970-01-01T02:04:20.000Z</time>
      </trkpt>
      <trkpt lat="45.99412" lon="4.54055">
        <ele>597.1</ele>
        <time>1970-01-01T02:04:21.000Z</time>
      </trkpt>
      <trkpt lat="45.99411" lon="4.54056">
        <ele>597.1</ele>
        <time>1970-01-01T02:04:22.000Z</time>
      </trkpt>
      <trkpt lat="45.9941" lon="4.54058">
        <ele>597.1</ele>
        <time>1970-01-01T02:04:23.000Z</time>
      </trkpt>
      <trkpt lat="45.99408" lon="4.54059">
        <ele>597.2</ele>
        <time>1970-01-01T02:04:24.000Z</time>
      </trkpt>
      <trkpt lat="45.99407" lon="4.54061">
        <ele>597.2</ele>
        <time>1970-01-01T02:04:25.000Z</time>
      </trkpt>
      <trkpt lat="45.99406" lon="4.54062">
        <ele>597.2</ele>
        <time>1970-01-01T02:04:26.000Z</time>
      </trkpt>
      <trkpt lat="45.99405" lon="4.54063">
        <ele>597.2</ele>
        <time>1970-01-01T02:04:27.000Z</time>
      </trkpt>
      <trkpt lat="45.99404" lon="4.54065">
        <ele>597.2</ele>
        <time>1970-01-01T02:04:28.000Z</time>
      </trkpt>
      <trkpt lat="45.99404" lon="4.54066">
        <ele>597.1</ele>
        <time>1970-01-01T02:04:29.000Z</time>
      </trkpt>
      <trkpt lat="45.99403" lon="4.54068">
        <ele>597.1</ele>
        <time>1970-01-01T02:04:30.000Z</time>
      </trkpt>
      <trkpt lat="45.99402" lon="4.54069">
        <ele>597.1</ele>
        <time>1970-01-01T02:04:31.000Z</time>
      </trkpt>
      <trkpt lat="45.99401" lon="4.54071">
        <ele>597</ele>
        <time>1970-01-01T02:04:32.000Z</time>
      </trkpt>
      <trkpt lat="45.994" lon="4.54072">
        <ele>597</ele>
        <time>1970-01-01T02:04:33.000Z</time>
      </trkpt>
      <trkpt lat="45.994" lon="4.54074">
        <ele>596.9</ele>
        <time>1970-01-01T02:04:34.000Z</time>
      </trkpt>
      <trkpt lat="45.99398" lon="4.54075">
        <ele>596.9</ele>
        <time>1970-01-01T02:04:35.000Z</time>
      </trkpt>
      <trkpt lat="45.99397" lon="4.54077">
        <ele>596.8</ele>
        <time>1970-01-01T02:04:36.000Z</time>
      </trkpt>
      <trkpt lat="45.99396" lon="4.54078">
        <ele>596.7</ele>
        <time>1970-01-01T02:04:37.000Z</time>
      </trkpt>
      <trkpt lat="45.99395" lon="4.54079">
        <ele>596.6</ele>
        <time>1970-01-01T02:04:38.000Z</time>
      </trkpt>
      <trkpt lat="45.99394" lon="4.5408">
        <ele>596.5</ele>
        <time>1970-01-01T02:04:39.000Z</time>
      </trkpt>
      <trkpt lat="45.99393" lon="4.54081">
        <ele>596.5</ele>
        <time>1970-01-01T02:04:40.000Z</time>
      </trkpt>
      <trkpt lat="45.99392" lon="4.54082">
        <ele>596.4</ele>
        <time>1970-01-01T02:04:41.000Z</time>
      </trkpt>
      <trkpt lat="45.99391" lon="4.54083">
        <ele>596.3</ele>
        <time>1970-01-01T02:04:42.000Z</time>
      </trkpt>
      <trkpt lat="45.99391" lon="4.54084">
        <ele>596.3</ele>
        <time>1970-01-01T02:04:43.000Z</time>
      </trkpt>
      <trkpt lat="45.9939" lon="4.54085">
        <ele>596.2</ele>
        <time>1970-01-01T02:04:44.000Z</time>
      </trkpt>
      <trkpt lat="45.99389" lon="4.54086">
        <ele>596.1</ele>
        <time>1970-01-01T02:04:45.000Z</time>
      </trkpt>
      <trkpt lat="45.99388" lon="4.54087">
        <ele>596</ele>
        <time>1970-01-01T02:04:46.000Z</time>
      </trkpt>
      <trkpt lat="45.99388" lon="4.54087">
        <ele>596</ele>
        <time>1970-01-01T02:04:47.000Z</time>
      </trkpt>
      <trkpt lat="45.99388" lon="4.54087">
        <ele>596</ele>
        <time>1970-01-01T02:04:48.000Z</time>
      </trkpt>
      <trkpt lat="45.99385" lon="4.54088">
        <ele>595.8</ele>
        <time>1970-01-01T02:04:49.000Z</time>
      </trkpt>
      <trkpt lat="45.99384" lon="4.54088">
        <ele>595.8</ele>
        <time>1970-01-01T02:04:50.000Z</time>
      </trkpt>
      <trkpt lat="45.99383" lon="4.54089">
        <ele>595.7</ele>
        <time>1970-01-01T02:04:51.000Z</time>
      </trkpt>
      <trkpt lat="45.99382" lon="4.54089">
        <ele>595.6</ele>
        <time>1970-01-01T02:04:52.000Z</time>
      </trkpt>
      <trkpt lat="45.99381" lon="4.5409">
        <ele>595.5</ele>
        <time>1970-01-01T02:04:53.000Z</time>
      </trkpt>
      <trkpt lat="45.9938" lon="4.5409">
        <ele>595.5</ele>
        <time>1970-01-01T02:04:54.000Z</time>
      </trkpt>
      <trkpt lat="45.99379" lon="4.54091">
        <ele>595.4</ele>
        <time>1970-01-01T02:04:55.000Z</time>
      </trkpt>
      <trkpt lat="45.99378" lon="4.54091">
        <ele>595.3</ele>
        <time>1970-01-01T02:04:56.000Z</time>
      </trkpt>
      <trkpt lat="45.99377" lon="4.54092">
        <ele>595.2</ele>
        <time>1970-01-01T02:04:57.000Z</time>
      </trkpt>
      <trkpt lat="45.99376" lon="4.54092">
        <ele>595.2</ele>
        <time>1970-01-01T02:04:58.000Z</time>
      </trkpt>
      <trkpt lat="45.99375" lon="4.54092">
        <ele>595.1</ele>
        <time>1970-01-01T02:04:59.000Z</time>
      </trkpt>
      <trkpt lat="45.99374" lon="4.54092">
        <ele>595.1</ele>
        <time>1970-01-01T02:05:00.000Z</time>
      </trkpt>
      <trkpt lat="45.99373" lon="4.54092">
        <ele>595</ele>
        <time>1970-01-01T02:05:01.000Z</time>
      </trkpt>
      <trkpt lat="45.99372" lon="4.54092">
        <ele>595</ele>
        <time>1970-01-01T02:05:02.000Z</time>
      </trkpt>
      <trkpt lat="45.99371" lon="4.54093">
        <ele>594.9</ele>
        <time>1970-01-01T02:05:03.000Z</time>
      </trkpt>
      <trkpt lat="45.9937" lon="4.54093">
        <ele>594.8</ele>
        <time>1970-01-01T02:05:04.000Z</time>
      </trkpt>
      <trkpt lat="45.99369" lon="4.54093">
        <ele>594.8</ele>
        <time>1970-01-01T02:05:05.000Z</time>
      </trkpt>
      <trkpt lat="45.99368" lon="4.54093">
        <ele>594.8</ele>
        <time>1970-01-01T02:05:06.000Z</time>
      </trkpt>
      <trkpt lat="45.99367" lon="4.54093">
        <ele>594.7</ele>
        <time>1970-01-01T02:05:07.000Z</time>
      </trkpt>
      <trkpt lat="45.99366" lon="4.54093">
        <ele>594.7</ele>
        <time>1970-01-01T02:05:08.000Z</time>
      </trkpt>
      <trkpt lat="45.99365" lon="4.54093">
        <ele>594.6</ele>
        <time>1970-01-01T02:05:09.000Z</time>
      </trkpt>
      <trkpt lat="45.99364" lon="4.54093">
        <ele>594.6</ele>
        <time>1970-01-01T02:05:10.000Z</time>
      </trkpt>
      <trkpt lat="45.99363" lon="4.54093">
        <ele>594.5</ele>
        <time>1970-01-01T02:05:11.000Z</time>
      </trkpt>
      <trkpt lat="45.99362" lon="4.54093">
        <ele>594.5</ele>
        <time>1970-01-01T02:05:12.000Z</time>
      </trkpt>
      <trkpt lat="45.9936" lon="4.54093">
        <ele>594.4</ele>
        <time>1970-01-01T02:05:13.000Z</time>
      </trkpt>
      <trkpt lat="45.99359" lon="4.54093">
        <ele>594.4</ele>
        <time>1970-01-01T02:05:14.000Z</time>
      </trkpt>
      <trkpt lat="45.99358" lon="4.54093">
        <ele>594.3</ele>
        <time>1970-01-01T02:05:15.000Z</time>
      </trkpt>
      <trkpt lat="45.99357" lon="4.54092">
        <ele>594.3</ele>
        <time>1970-01-01T02:05:16.000Z</time>
      </trkpt>
      <trkpt lat="45.99355" lon="4.54091">
        <ele>594.2</ele>
        <time>1970-01-01T02:05:17.000Z</time>
      </trkpt>
      <trkpt lat="45.99354" lon="4.54091">
        <ele>594.2</ele>
        <time>1970-01-01T02:05:18.000Z</time>
      </trkpt>
      <trkpt lat="45.99352" lon="4.5409">
        <ele>594.1</ele>
        <time>1970-01-01T02:05:19.000Z</time>
      </trkpt>
      <trkpt lat="45.99351" lon="4.54089">
        <ele>594.1</ele>
        <time>1970-01-01T02:05:20.000Z</time>
      </trkpt>
      <trkpt lat="45.99349" lon="4.54088">
        <ele>594</ele>
        <time>1970-01-01T02:05:21.000Z</time>
      </trkpt>
      <trkpt lat="45.99348" lon="4.54088">
        <ele>594</ele>
        <time>1970-01-01T02:05:22.000Z</time>
      </trkpt>
      <trkpt lat="45.99346" lon="4.54087">
        <ele>593.9</ele>
        <time>1970-01-01T02:05:23.000Z</time>
      </trkpt>
      <trkpt lat="45.99345" lon="4.54086">
        <ele>593.9</ele>
        <time>1970-01-01T02:05:24.000Z</time>
      </trkpt>
      <trkpt lat="45.99343" lon="4.54085">
        <ele>593.8</ele>
        <time>1970-01-01T02:05:25.000Z</time>
      </trkpt>
      <trkpt lat="45.99342" lon="4.54084">
        <ele>593.8</ele>
        <time>1970-01-01T02:05:26.000Z</time>
      </trkpt>
      <trkpt lat="45.99341" lon="4.54083">
        <ele>593.8</ele>
        <time>1970-01-01T02:05:27.000Z</time>
      </trkpt>
      <trkpt lat="45.99339" lon="4.54082">
        <ele>593.8</ele>
        <time>1970-01-01T02:05:28.000Z</time>
      </trkpt>
      <trkpt lat="45.99338" lon="4.54081">
        <ele>593.7</ele>
        <time>1970-01-01T02:05:29.000Z</time>
      </trkpt>
      <trkpt lat="45.99337" lon="4.5408">
        <ele>593.7</ele>
        <time>1970-01-01T02:05:30.000Z</time>
      </trkpt>
      <trkpt lat="45.99336" lon="4.54079">
        <ele>593.7</ele>
        <time>1970-01-01T02:05:31.000Z</time>
      </trkpt>
      <trkpt lat="45.99335" lon="4.54078">
        <ele>593.7</ele>
        <time>1970-01-01T02:05:32.000Z</time>
      </trkpt>
      <trkpt lat="45.99334" lon="4.54077">
        <ele>593.7</ele>
        <time>1970-01-01T02:05:33.000Z</time>
      </trkpt>
      <trkpt lat="45.99333" lon="4.54076">
        <ele>593.7</ele>
        <time>1970-01-01T02:05:34.000Z</time>
      </trkpt>
      <trkpt lat="45.99331" lon="4.54075">
        <ele>593.7</ele>
        <time>1970-01-01T02:05:35.000Z</time>
      </trkpt>
      <trkpt lat="45.9933" lon="4.54074">
        <ele>593.7</ele>
        <time>1970-01-01T02:05:36.000Z</time>
      </trkpt>
      <trkpt lat="45.99329" lon="4.54073">
        <ele>593.7</ele>
        <time>1970-01-01T02:05:37.000Z</time>
      </trkpt>
      <trkpt lat="45.99327" lon="4.54072">
        <ele>593.7</ele>
        <time>1970-01-01T02:05:38.000Z</time>
      </trkpt>
      <trkpt lat="45.99326" lon="4.54071">
        <ele>593.7</ele>
        <time>1970-01-01T02:05:39.000Z</time>
      </trkpt>
      <trkpt lat="45.99325" lon="4.5407">
        <ele>593.7</ele>
        <time>1970-01-01T02:05:40.000Z</time>
      </trkpt>
      <trkpt lat="45.99323" lon="4.5407">
        <ele>593.7</ele>
        <time>1970-01-01T02:05:41.000Z</time>
      </trkpt>
      <trkpt lat="45.99322" lon="4.54069">
        <ele>593.7</ele>
        <time>1970-01-01T02:05:42.000Z</time>
      </trkpt>
      <trkpt lat="45.99322" lon="4.54068">
        <ele>593.8</ele>
        <time>1970-01-01T02:05:43.000Z</time>
      </trkpt>
      <trkpt lat="45.99321" lon="4.54067">
        <ele>593.8</ele>
        <time>1970-01-01T02:05:44.000Z</time>
      </trkpt>
      <trkpt lat="45.9932" lon="4.54066">
        <ele>593.8</ele>
        <time>1970-01-01T02:05:45.000Z</time>
      </trkpt>
      <trkpt lat="45.99319" lon="4.54065">
        <ele>593.8</ele>
        <time>1970-01-01T02:05:46.000Z</time>
      </trkpt>
      <trkpt lat="45.99318" lon="4.54064">
        <ele>593.8</ele>
        <time>1970-01-01T02:05:47.000Z</time>
      </trkpt>
      <trkpt lat="45.99317" lon="4.54063">
        <ele>593.8</ele>
        <time>1970-01-01T02:05:48.000Z</time>
      </trkpt>
      <trkpt lat="45.99317" lon="4.54063">
        <ele>593.8</ele>
        <time>1970-01-01T02:05:49.000Z</time>
      </trkpt>
      <trkpt lat="45.99316" lon="4.54062">
        <ele>593.8</ele>
        <time>1970-01-01T02:05:50.000Z</time>
      </trkpt>
      <trkpt lat="45.99315" lon="4.54061">
        <ele>593.8</ele>
        <time>1970-01-01T02:05:51.000Z</time>
      </trkpt>
      <trkpt lat="45.99314" lon="4.54059">
        <ele>593.8</ele>
        <time>1970-01-01T02:05:52.000Z</time>
      </trkpt>
      <trkpt lat="45.99312" lon="4.54058">
        <ele>593.8</ele>
        <time>1970-01-01T02:05:53.000Z</time>
      </trkpt>
      <trkpt lat="45.99311" lon="4.54057">
        <ele>593.8</ele>
        <time>1970-01-01T02:05:54.000Z</time>
      </trkpt>
      <trkpt lat="45.9931" lon="4.54056">
        <ele>593.8</ele>
        <time>1970-01-01T02:05:55.000Z</time>
      </trkpt>
      <trkpt lat="45.99309" lon="4.54055">
        <ele>593.9</ele>
        <time>1970-01-01T02:05:56.000Z</time>
      </trkpt>
      <trkpt lat="45.99308" lon="4.54053">
        <ele>593.9</ele>
        <time>1970-01-01T02:05:57.000Z</time>
      </trkpt>
      <trkpt lat="45.99307" lon="4.54053">
        <ele>593.9</ele>
        <time>1970-01-01T02:05:58.000Z</time>
      </trkpt>
      <trkpt lat="45.99306" lon="4.54052">
        <ele>593.9</ele>
        <time>1970-01-01T02:05:59.000Z</time>
      </trkpt>
      <trkpt lat="45.99305" lon="4.54051">
        <ele>593.9</ele>
        <time>1970-01-01T02:06:00.000Z</time>
      </trkpt>
      <trkpt lat="45.99304" lon="4.54051">
        <ele>593.9</ele>
        <time>1970-01-01T02:06:01.000Z</time>
      </trkpt>
      <trkpt lat="45.99303" lon="4.5405">
        <ele>593.9</ele>
        <time>1970-01-01T02:06:02.000Z</time>
      </trkpt>
      <trkpt lat="45.99301" lon="4.54049">
        <ele>593.9</ele>
        <time>1970-01-01T02:06:03.000Z</time>
      </trkpt>
      <trkpt lat="45.993" lon="4.54048">
        <ele>593.9</ele>
        <time>1970-01-01T02:06:04.000Z</time>
      </trkpt>
      <trkpt lat="45.99299" lon="4.54048">
        <ele>593.9</ele>
        <time>1970-01-01T02:06:05.000Z</time>
      </trkpt>
      <trkpt lat="45.99298" lon="4.54047">
        <ele>594</ele>
        <time>1970-01-01T02:06:06.000Z</time>
      </trkpt>
      <trkpt lat="45.99297" lon="4.54047">
        <ele>594</ele>
        <time>1970-01-01T02:06:07.000Z</time>
      </trkpt>
      <trkpt lat="45.99296" lon="4.54046">
        <ele>594</ele>
        <time>1970-01-01T02:06:08.000Z</time>
      </trkpt>
      <trkpt lat="45.99295" lon="4.54045">
        <ele>594</ele>
        <time>1970-01-01T02:06:09.000Z</time>
      </trkpt>
      <trkpt lat="45.99293" lon="4.54045">
        <ele>594</ele>
        <time>1970-01-01T02:06:10.000Z</time>
      </trkpt>
      <trkpt lat="45.99292" lon="4.54044">
        <ele>594</ele>
        <time>1970-01-01T02:06:11.000Z</time>
      </trkpt>
      <trkpt lat="45.99291" lon="4.54044">
        <ele>594.1</ele>
        <time>1970-01-01T02:06:12.000Z</time>
      </trkpt>
      <trkpt lat="45.9929" lon="4.54043">
        <ele>594.1</ele>
        <time>1970-01-01T02:06:13.000Z</time>
      </trkpt>
      <trkpt lat="45.99289" lon="4.54043">
        <ele>594.1</ele>
        <time>1970-01-01T02:06:14.000Z</time>
      </trkpt>
      <trkpt lat="45.99288" lon="4.54042">
        <ele>594.1</ele>
        <time>1970-01-01T02:06:15.000Z</time>
      </trkpt>
      <trkpt lat="45.99286" lon="4.54042">
        <ele>594.2</ele>
        <time>1970-01-01T02:06:16.000Z</time>
      </trkpt>
      <trkpt lat="45.99285" lon="4.54041">
        <ele>594.2</ele>
        <time>1970-01-01T02:06:17.000Z</time>
      </trkpt>
      <trkpt lat="45.99284" lon="4.54041">
        <ele>594.2</ele>
        <time>1970-01-01T02:06:18.000Z</time>
      </trkpt>
      <trkpt lat="45.99283" lon="4.54041">
        <ele>594.2</ele>
        <time>1970-01-01T02:06:19.000Z</time>
      </trkpt>
      <trkpt lat="45.99282" lon="4.5404">
        <ele>594.3</ele>
        <time>1970-01-01T02:06:20.000Z</time>
      </trkpt>
      <trkpt lat="45.99281" lon="4.5404">
        <ele>594.3</ele>
        <time>1970-01-01T02:06:21.000Z</time>
      </trkpt>
      <trkpt lat="45.9928" lon="4.54039">
        <ele>594.3</ele>
        <time>1970-01-01T02:06:22.000Z</time>
      </trkpt>
      <trkpt lat="45.99279" lon="4.54038">
        <ele>594.3</ele>
        <time>1970-01-01T02:06:23.000Z</time>
      </trkpt>
      <trkpt lat="45.99278" lon="4.54038">
        <ele>594.3</ele>
        <time>1970-01-01T02:06:24.000Z</time>
      </trkpt>
      <trkpt lat="45.99277" lon="4.54037">
        <ele>594.4</ele>
        <time>1970-01-01T02:06:25.000Z</time>
      </trkpt>
      <trkpt lat="45.99276" lon="4.54037">
        <ele>594.4</ele>
        <time>1970-01-01T02:06:26.000Z</time>
      </trkpt>
      <trkpt lat="45.99275" lon="4.54036">
        <ele>594.4</ele>
        <time>1970-01-01T02:06:27.000Z</time>
      </trkpt>
      <trkpt lat="45.99274" lon="4.54035">
        <ele>594.4</ele>
        <time>1970-01-01T02:06:28.000Z</time>
      </trkpt>
      <trkpt lat="45.99273" lon="4.54035">
        <ele>594.4</ele>
        <time>1970-01-01T02:06:29.000Z</time>
      </trkpt>
      <trkpt lat="45.99273" lon="4.54034">
        <ele>594.5</ele>
        <time>1970-01-01T02:06:30.000Z</time>
      </trkpt>
      <trkpt lat="45.99272" lon="4.54034">
        <ele>594.5</ele>
        <time>1970-01-01T02:06:31.000Z</time>
      </trkpt>
      <trkpt lat="45.99271" lon="4.54034">
        <ele>594.5</ele>
        <time>1970-01-01T02:06:32.000Z</time>
      </trkpt>
      <trkpt lat="45.9927" lon="4.54033">
        <ele>594.5</ele>
        <time>1970-01-01T02:06:33.000Z</time>
      </trkpt>
      <trkpt lat="45.9927" lon="4.54033">
        <ele>594.5</ele>
        <time>1970-01-01T02:06:34.000Z</time>
      </trkpt>
      <trkpt lat="45.99269" lon="4.54033">
        <ele>594.5</ele>
        <time>1970-01-01T02:06:35.000Z</time>
      </trkpt>
      <trkpt lat="45.99268" lon="4.54033">
        <ele>594.5</ele>
        <time>1970-01-01T02:06:36.000Z</time>
      </trkpt>
      <trkpt lat="45.99267" lon="4.54032">
        <ele>594.5</ele>
        <time>1970-01-01T02:06:37.000Z</time>
      </trkpt>
      <trkpt lat="45.99261" lon="4.5403">
        <ele>594.6</ele>
        <time>1970-01-01T02:06:38.000Z</time>
      </trkpt>
      <trkpt lat="45.9926" lon="4.5403">
        <ele>594.7</ele>
        <time>1970-01-01T02:06:39.000Z</time>
      </trkpt>
      <trkpt lat="45.99258" lon="4.5403">
        <ele>594.7</ele>
        <time>1970-01-01T02:06:40.000Z</time>
      </trkpt>
      <trkpt lat="45.99257" lon="4.54029">
        <ele>594.7</ele>
        <time>1970-01-01T02:06:41.000Z</time>
      </trkpt>
      <trkpt lat="45.99255" lon="4.54029">
        <ele>594.7</ele>
        <time>1970-01-01T02:06:42.000Z</time>
      </trkpt>
      <trkpt lat="45.99254" lon="4.54029">
        <ele>594.8</ele>
        <time>1970-01-01T02:06:43.000Z</time>
      </trkpt>
      <trkpt lat="45.99253" lon="4.54028">
        <ele>594.8</ele>
        <time>1970-01-01T02:06:44.000Z</time>
      </trkpt>
      <trkpt lat="45.99251" lon="4.54028">
        <ele>594.8</ele>
        <time>1970-01-01T02:06:45.000Z</time>
      </trkpt>
      <trkpt lat="45.9925" lon="4.54027">
        <ele>594.8</ele>
        <time>1970-01-01T02:06:46.000Z</time>
      </trkpt>
      <trkpt lat="45.99249" lon="4.54027">
        <ele>594.8</ele>
        <time>1970-01-01T02:06:47.000Z</time>
      </trkpt>
      <trkpt lat="45.99248" lon="4.54026">
        <ele>594.9</ele>
        <time>1970-01-01T02:06:48.000Z</time>
      </trkpt>
      <trkpt lat="45.99247" lon="4.54026">
        <ele>594.9</ele>
        <time>1970-01-01T02:06:49.000Z</time>
      </trkpt>
      <trkpt lat="45.99246" lon="4.54026">
        <ele>594.9</ele>
        <time>1970-01-01T02:06:51.000Z</time>
      </trkpt>
      <trkpt lat="45.99245" lon="4.54025">
        <ele>594.9</ele>
        <time>1970-01-01T02:06:52.000Z</time>
      </trkpt>
      <trkpt lat="45.99244" lon="4.54025">
        <ele>594.9</ele>
        <time>1970-01-01T02:06:53.000Z</time>
      </trkpt>
      <trkpt lat="45.99242" lon="4.54024">
        <ele>594.9</ele>
        <time>1970-01-01T02:06:54.000Z</time>
      </trkpt>
      <trkpt lat="45.99241" lon="4.54023">
        <ele>595</ele>
        <time>1970-01-01T02:06:55.000Z</time>
      </trkpt>
      <trkpt lat="45.9924" lon="4.54022">
        <ele>595</ele>
        <time>1970-01-01T02:06:56.000Z</time>
      </trkpt>
      <trkpt lat="45.99239" lon="4.54021">
        <ele>595</ele>
        <time>1970-01-01T02:06:57.000Z</time>
      </trkpt>
      <trkpt lat="45.99238" lon="4.5402">
        <ele>595</ele>
        <time>1970-01-01T02:06:58.000Z</time>
      </trkpt>
      <trkpt lat="45.99237" lon="4.54019">
        <ele>595</ele>
        <time>1970-01-01T02:06:59.000Z</time>
      </trkpt>
      <trkpt lat="45.99236" lon="4.54018">
        <ele>595.1</ele>
        <time>1970-01-01T02:07:00.000Z</time>
      </trkpt>
      <trkpt lat="45.99235" lon="4.54018">
        <ele>595.1</ele>
        <time>1970-01-01T02:07:01.000Z</time>
      </trkpt>
      <trkpt lat="45.99234" lon="4.54017">
        <ele>595.1</ele>
        <time>1970-01-01T02:07:02.000Z</time>
      </trkpt>
      <trkpt lat="45.99233" lon="4.54016">
        <ele>595.1</ele>
        <time>1970-01-01T02:07:03.000Z</time>
      </trkpt>
      <trkpt lat="45.99232" lon="4.54015">
        <ele>595.1</ele>
        <time>1970-01-01T02:07:04.000Z</time>
      </trkpt>
      <trkpt lat="45.99231" lon="4.54015">
        <ele>595.2</ele>
        <time>1970-01-01T02:07:05.000Z</time>
      </trkpt>
      <trkpt lat="45.9923" lon="4.54014">
        <ele>595.2</ele>
        <time>1970-01-01T02:07:06.000Z</time>
      </trkpt>
      <trkpt lat="45.99229" lon="4.54013">
        <ele>595.2</ele>
        <time>1970-01-01T02:07:07.000Z</time>
      </trkpt>
      <trkpt lat="45.99228" lon="4.54013">
        <ele>595.2</ele>
        <time>1970-01-01T02:07:08.000Z</time>
      </trkpt>
      <trkpt lat="45.99227" lon="4.54012">
        <ele>595.2</ele>
        <time>1970-01-01T02:07:09.000Z</time>
      </trkpt>
      <trkpt lat="45.99227" lon="4.54011">
        <ele>595.3</ele>
        <time>1970-01-01T02:07:10.000Z</time>
      </trkpt>
      <trkpt lat="45.99225" lon="4.54011">
        <ele>595.3</ele>
        <time>1970-01-01T02:07:11.000Z</time>
      </trkpt>
      <trkpt lat="45.99224" lon="4.54011">
        <ele>595.3</ele>
        <time>1970-01-01T02:07:12.000Z</time>
      </trkpt>
      <trkpt lat="45.99223" lon="4.5401">
        <ele>595.3</ele>
        <time>1970-01-01T02:07:13.000Z</time>
      </trkpt>
      <trkpt lat="45.99222" lon="4.5401">
        <ele>595.4</ele>
        <time>1970-01-01T02:07:14.000Z</time>
      </trkpt>
      <trkpt lat="45.99221" lon="4.5401">
        <ele>595.4</ele>
        <time>1970-01-01T02:07:15.000Z</time>
      </trkpt>
      <trkpt lat="45.9922" lon="4.54009">
        <ele>595.4</ele>
        <time>1970-01-01T02:07:16.000Z</time>
      </trkpt>
      <trkpt lat="45.99219" lon="4.54009">
        <ele>595.4</ele>
        <time>1970-01-01T02:07:17.000Z</time>
      </trkpt>
      <trkpt lat="45.99217" lon="4.54008">
        <ele>595.5</ele>
        <time>1970-01-01T02:07:18.000Z</time>
      </trkpt>
      <trkpt lat="45.99216" lon="4.54008">
        <ele>595.5</ele>
        <time>1970-01-01T02:07:19.000Z</time>
      </trkpt>
      <trkpt lat="45.99215" lon="4.54007">
        <ele>595.5</ele>
        <time>1970-01-01T02:07:20.000Z</time>
      </trkpt>
      <trkpt lat="45.99214" lon="4.54006">
        <ele>595.6</ele>
        <time>1970-01-01T02:07:21.000Z</time>
      </trkpt>
      <trkpt lat="45.99213" lon="4.54005">
        <ele>595.6</ele>
        <time>1970-01-01T02:07:22.000Z</time>
      </trkpt>
      <trkpt lat="45.99212" lon="4.54005">
        <ele>595.6</ele>
        <time>1970-01-01T02:07:23.000Z</time>
      </trkpt>
      <trkpt lat="45.99211" lon="4.54004">
        <ele>595.7</ele>
        <time>1970-01-01T02:07:24.000Z</time>
      </trkpt>
      <trkpt lat="45.99211" lon="4.54004">
        <ele>595.7</ele>
        <time>1970-01-01T02:07:25.000Z</time>
      </trkpt>
      <trkpt lat="45.99208" lon="4.54003">
        <ele>595.8</ele>
        <time>1970-01-01T02:07:26.000Z</time>
      </trkpt>
      <trkpt lat="45.99208" lon="4.54003">
        <ele>595.8</ele>
        <time>1970-01-01T02:07:27.000Z</time>
      </trkpt>
      <trkpt lat="45.99207" lon="4.54002">
        <ele>595.8</ele>
        <time>1970-01-01T02:07:28.000Z</time>
      </trkpt>
      <trkpt lat="45.99206" lon="4.54001">
        <ele>595.9</ele>
        <time>1970-01-01T02:07:29.000Z</time>
      </trkpt>
      <trkpt lat="45.99205" lon="4.54">
        <ele>595.9</ele>
        <time>1970-01-01T02:07:30.000Z</time>
      </trkpt>
      <trkpt lat="45.99203" lon="4.53999">
        <ele>596</ele>
        <time>1970-01-01T02:07:31.000Z</time>
      </trkpt>
      <trkpt lat="45.99202" lon="4.53998">
        <ele>596</ele>
        <time>1970-01-01T02:07:32.000Z</time>
      </trkpt>
      <trkpt lat="45.99201" lon="4.53997">
        <ele>596.1</ele>
        <time>1970-01-01T02:07:33.000Z</time>
      </trkpt>
      <trkpt lat="45.992" lon="4.53997">
        <ele>596.1</ele>
        <time>1970-01-01T02:07:34.000Z</time>
      </trkpt>
      <trkpt lat="45.99199" lon="4.53996">
        <ele>596.1</ele>
        <time>1970-01-01T02:07:35.000Z</time>
      </trkpt>
      <trkpt lat="45.99198" lon="4.53995">
        <ele>596.2</ele>
        <time>1970-01-01T02:07:36.000Z</time>
      </trkpt>
      <trkpt lat="45.99197" lon="4.53994">
        <ele>596.2</ele>
        <time>1970-01-01T02:07:37.000Z</time>
      </trkpt>
      <trkpt lat="45.99197" lon="4.53993">
        <ele>596.2</ele>
        <time>1970-01-01T02:07:38.000Z</time>
      </trkpt>
      <trkpt lat="45.99196" lon="4.53993">
        <ele>596.3</ele>
        <time>1970-01-01T02:07:39.000Z</time>
      </trkpt>
      <trkpt lat="45.99195" lon="4.53992">
        <ele>596.3</ele>
        <time>1970-01-01T02:07:40.000Z</time>
      </trkpt>
      <trkpt lat="45.99194" lon="4.53991">
        <ele>596.3</ele>
        <time>1970-01-01T02:07:41.000Z</time>
      </trkpt>
      <trkpt lat="45.99194" lon="4.53991">
        <ele>596.3</ele>
        <time>1970-01-01T02:07:42.000Z</time>
      </trkpt>
      <trkpt lat="45.99192" lon="4.5399">
        <ele>596.4</ele>
        <time>1970-01-01T02:07:43.000Z</time>
      </trkpt>
      <trkpt lat="45.99192" lon="4.5399">
        <ele>596.4</ele>
        <time>1970-01-01T02:07:44.000Z</time>
      </trkpt>
      <trkpt lat="45.99189" lon="4.5399">
        <ele>596.5</ele>
        <time>1970-01-01T02:07:45.000Z</time>
      </trkpt>
      <trkpt lat="45.99189" lon="4.5399">
        <ele>596.5</ele>
        <time>1970-01-01T02:07:46.000Z</time>
      </trkpt>
      <trkpt lat="45.99187" lon="4.5399">
        <ele>596.5</ele>
        <time>1970-01-01T02:07:47.000Z</time>
      </trkpt>
      <trkpt lat="45.99187" lon="4.5399">
        <ele>596.5</ele>
        <time>1970-01-01T02:07:48.000Z</time>
      </trkpt>
      <trkpt lat="45.99186" lon="4.53989">
        <ele>596.6</ele>
        <time>1970-01-01T02:07:49.000Z</time>
      </trkpt>
      <trkpt lat="45.99186" lon="4.53989">
        <ele>596.6</ele>
        <time>1970-01-01T02:07:50.000Z</time>
      </trkpt>
      <trkpt lat="45.99186" lon="4.53989">
        <ele>596.6</ele>
        <time>1970-01-01T02:07:51.000Z</time>
      </trkpt>
      <trkpt lat="45.99186" lon="4.53989">
        <ele>596.6</ele>
        <time>1970-01-01T02:07:52.000Z</time>
      </trkpt>
      <trkpt lat="45.99181" lon="4.53988">
        <ele>596.6</ele>
        <time>1970-01-01T02:07:53.000Z</time>
      </trkpt>
      <trkpt lat="45.9918" lon="4.53987">
        <ele>596.6</ele>
        <time>1970-01-01T02:07:54.000Z</time>
      </trkpt>
      <trkpt lat="45.99179" lon="4.53987">
        <ele>596.6</ele>
        <time>1970-01-01T02:07:55.000Z</time>
      </trkpt>
      <trkpt lat="45.99178" lon="4.53986">
        <ele>596.6</ele>
        <time>1970-01-01T02:07:56.000Z</time>
      </trkpt>
      <trkpt lat="45.99177" lon="4.53986">
        <ele>596.6</ele>
        <time>1970-01-01T02:07:57.000Z</time>
      </trkpt>
      <trkpt lat="45.99176" lon="4.53985">
        <ele>596.6</ele>
        <time>1970-01-01T02:07:58.000Z</time>
      </trkpt>
      <trkpt lat="45.99176" lon="4.53985">
        <ele>596.6</ele>
        <time>1970-01-01T02:07:59.000Z</time>
      </trkpt>
      <trkpt lat="45.99176" lon="4.53985">
        <ele>596.6</ele>
        <time>1970-01-01T02:08:00.000Z</time>
      </trkpt>
      <trkpt lat="45.99176" lon="4.53985">
        <ele>596.6</ele>
        <time>1970-01-01T02:08:01.000Z</time>
      </trkpt>
      <trkpt lat="45.99173" lon="4.53984">
        <ele>596.5</ele>
        <time>1970-01-01T02:08:02.000Z</time>
      </trkpt>
      <trkpt lat="45.99173" lon="4.53984">
        <ele>596.5</ele>
        <time>1970-01-01T02:08:03.000Z</time>
      </trkpt>
      <trkpt lat="45.99171" lon="4.53983">
        <ele>596.4</ele>
        <time>1970-01-01T02:08:04.000Z</time>
      </trkpt>
      <trkpt lat="45.99169" lon="4.53982">
        <ele>596.3</ele>
        <time>1970-01-01T02:08:05.000Z</time>
      </trkpt>
      <trkpt lat="45.99168" lon="4.53981">
        <ele>596.2</ele>
        <time>1970-01-01T02:08:06.000Z</time>
      </trkpt>
      <trkpt lat="45.99167" lon="4.5398">
        <ele>596.1</ele>
        <time>1970-01-01T02:08:07.000Z</time>
      </trkpt>
      <trkpt lat="45.99165" lon="4.5398">
        <ele>596</ele>
        <time>1970-01-01T02:08:08.000Z</time>
      </trkpt>
      <trkpt lat="45.99164" lon="4.53979">
        <ele>595.8</ele>
        <time>1970-01-01T02:08:09.000Z</time>
      </trkpt>
      <trkpt lat="45.99162" lon="4.53978">
        <ele>595.7</ele>
        <time>1970-01-01T02:08:10.000Z</time>
      </trkpt>
      <trkpt lat="45.99161" lon="4.53977">
        <ele>595.5</ele>
        <time>1970-01-01T02:08:11.000Z</time>
      </trkpt>
      <trkpt lat="45.99161" lon="4.53977">
        <ele>595.5</ele>
        <time>1970-01-01T02:08:12.000Z</time>
      </trkpt>
      <trkpt lat="45.9916" lon="4.53976">
        <ele>595.4</ele>
        <time>1970-01-01T02:08:13.000Z</time>
      </trkpt>
      <trkpt lat="45.9916" lon="4.53975">
        <ele>595.3</ele>
        <time>1970-01-01T02:08:14.000Z</time>
      </trkpt>
      <trkpt lat="45.99159" lon="4.53975">
        <ele>595.3</ele>
        <time>1970-01-01T02:08:15.000Z</time>
      </trkpt>
      <trkpt lat="45.99159" lon="4.53974">
        <ele>595.2</ele>
        <time>1970-01-01T02:08:16.000Z</time>
      </trkpt>
      <trkpt lat="45.99158" lon="4.53974">
        <ele>595.1</ele>
        <time>1970-01-01T02:08:17.000Z</time>
      </trkpt>
      <trkpt lat="45.99158" lon="4.53973">
        <ele>595</ele>
        <time>1970-01-01T02:08:18.000Z</time>
      </trkpt>
      <trkpt lat="45.99158" lon="4.53972">
        <ele>594.9</ele>
        <time>1970-01-01T02:08:19.000Z</time>
      </trkpt>
      <trkpt lat="45.99153" lon="4.53966">
        <ele>594.1</ele>
        <time>1970-01-01T02:08:20.000Z</time>
      </trkpt>
      <trkpt lat="45.99152" lon="4.53965">
        <ele>594</ele>
        <time>1970-01-01T02:08:21.000Z</time>
      </trkpt>
      <trkpt lat="45.99151" lon="4.53964">
        <ele>593.8</ele>
        <time>1970-01-01T02:08:22.000Z</time>
      </trkpt>
      <trkpt lat="45.9915" lon="4.53963">
        <ele>593.6</ele>
        <time>1970-01-01T02:08:23.000Z</time>
      </trkpt>
      <trkpt lat="45.9915" lon="4.53962">
        <ele>593.5</ele>
        <time>1970-01-01T02:08:24.000Z</time>
      </trkpt>
      <trkpt lat="45.99149" lon="4.53961">
        <ele>593.3</ele>
        <time>1970-01-01T02:08:25.000Z</time>
      </trkpt>
      <trkpt lat="45.99148" lon="4.5396">
        <ele>593.2</ele>
        <time>1970-01-01T02:08:26.000Z</time>
      </trkpt>
      <trkpt lat="45.99147" lon="4.53959">
        <ele>593</ele>
        <time>1970-01-01T02:08:27.000Z</time>
      </trkpt>
      <trkpt lat="45.99146" lon="4.53959">
        <ele>592.8</ele>
        <time>1970-01-01T02:08:28.000Z</time>
      </trkpt>
      <trkpt lat="45.99145" lon="4.53958">
        <ele>592.7</ele>
        <time>1970-01-01T02:08:29.000Z</time>
      </trkpt>
      <trkpt lat="45.99143" lon="4.53957">
        <ele>592.5</ele>
        <time>1970-01-01T02:08:30.000Z</time>
      </trkpt>
      <trkpt lat="45.99142" lon="4.53957">
        <ele>592.3</ele>
        <time>1970-01-01T02:08:31.000Z</time>
      </trkpt>
      <trkpt lat="45.99141" lon="4.53956">
        <ele>592.2</ele>
        <time>1970-01-01T02:08:32.000Z</time>
      </trkpt>
      <trkpt lat="45.9914" lon="4.53955">
        <ele>592</ele>
        <time>1970-01-01T02:08:33.000Z</time>
      </trkpt>
      <trkpt lat="45.99139" lon="4.53954">
        <ele>591.9</ele>
        <time>1970-01-01T02:08:34.000Z</time>
      </trkpt>
      <trkpt lat="45.99138" lon="4.53954">
        <ele>591.7</ele>
        <time>1970-01-01T02:08:35.000Z</time>
      </trkpt>
      <trkpt lat="45.99137" lon="4.53953">
        <ele>591.6</ele>
        <time>1970-01-01T02:08:36.000Z</time>
      </trkpt>
      <trkpt lat="45.99136" lon="4.53952">
        <ele>591.5</ele>
        <time>1970-01-01T02:08:37.000Z</time>
      </trkpt>
      <trkpt lat="45.99135" lon="4.53952">
        <ele>591.3</ele>
        <time>1970-01-01T02:08:38.000Z</time>
      </trkpt>
      <trkpt lat="45.99135" lon="4.53951">
        <ele>591.2</ele>
        <time>1970-01-01T02:08:39.000Z</time>
      </trkpt>
      <trkpt lat="45.99134" lon="4.5395">
        <ele>591.1</ele>
        <time>1970-01-01T02:08:40.000Z</time>
      </trkpt>
      <trkpt lat="45.99133" lon="4.5395">
        <ele>591</ele>
        <time>1970-01-01T02:08:41.000Z</time>
      </trkpt>
      <trkpt lat="45.99132" lon="4.53949">
        <ele>590.8</ele>
        <time>1970-01-01T02:08:42.000Z</time>
      </trkpt>
      <trkpt lat="45.99131" lon="4.53948">
        <ele>590.7</ele>
        <time>1970-01-01T02:08:43.000Z</time>
      </trkpt>
      <trkpt lat="45.9913" lon="4.53947">
        <ele>590.6</ele>
        <time>1970-01-01T02:08:44.000Z</time>
      </trkpt>
      <trkpt lat="45.99129" lon="4.53947">
        <ele>590.5</ele>
        <time>1970-01-01T02:08:45.000Z</time>
      </trkpt>
      <trkpt lat="45.99128" lon="4.53946">
        <ele>590.3</ele>
        <time>1970-01-01T02:08:46.000Z</time>
      </trkpt>
      <trkpt lat="45.99127" lon="4.53945">
        <ele>590.2</ele>
        <time>1970-01-01T02:08:47.000Z</time>
      </trkpt>
      <trkpt lat="45.99126" lon="4.53945">
        <ele>590</ele>
        <time>1970-01-01T02:08:48.000Z</time>
      </trkpt>
      <trkpt lat="45.99125" lon="4.53944">
        <ele>589.9</ele>
        <time>1970-01-01T02:08:49.000Z</time>
      </trkpt>
      <trkpt lat="45.99124" lon="4.53943">
        <ele>589.7</ele>
        <time>1970-01-01T02:08:50.000Z</time>
      </trkpt>
      <trkpt lat="45.99123" lon="4.53942">
        <ele>589.6</ele>
        <time>1970-01-01T02:08:51.000Z</time>
      </trkpt>
      <trkpt lat="45.99122" lon="4.53942">
        <ele>589.4</ele>
        <time>1970-01-01T02:08:52.000Z</time>
      </trkpt>
      <trkpt lat="45.99121" lon="4.53941">
        <ele>589.3</ele>
        <time>1970-01-01T02:08:53.000Z</time>
      </trkpt>
      <trkpt lat="45.9912" lon="4.53941">
        <ele>589.1</ele>
        <time>1970-01-01T02:08:54.000Z</time>
      </trkpt>
      <trkpt lat="45.99119" lon="4.5394">
        <ele>589</ele>
        <time>1970-01-01T02:08:55.000Z</time>
      </trkpt>
      <trkpt lat="45.99118" lon="4.5394">
        <ele>588.8</ele>
        <time>1970-01-01T02:08:56.000Z</time>
      </trkpt>
      <trkpt lat="45.99117" lon="4.5394">
        <ele>588.7</ele>
        <time>1970-01-01T02:08:57.000Z</time>
      </trkpt>
      <trkpt lat="45.99117" lon="4.5394">
        <ele>588.7</ele>
        <time>1970-01-01T02:08:58.000Z</time>
      </trkpt>
      <trkpt lat="45.99115" lon="4.53939">
        <ele>588.4</ele>
        <time>1970-01-01T02:08:59.000Z</time>
      </trkpt>
      <trkpt lat="45.99115" lon="4.53939">
        <ele>588.4</ele>
        <time>1970-01-01T02:09:00.000Z</time>
      </trkpt>
      <trkpt lat="45.99115" lon="4.53939">
        <ele>588.4</ele>
        <time>1970-01-01T02:09:01.000Z</time>
      </trkpt>
      <trkpt lat="45.99112" lon="4.53937">
        <ele>587.9</ele>
        <time>1970-01-01T02:09:02.000Z</time>
      </trkpt>
      <trkpt lat="45.99112" lon="4.53937">
        <ele>587.9</ele>
        <time>1970-01-01T02:09:03.000Z</time>
      </trkpt>
      <trkpt lat="45.99109" lon="4.53937">
        <ele>587.5</ele>
        <time>1970-01-01T02:09:04.000Z</time>
      </trkpt>
      <trkpt lat="45.99109" lon="4.53937">
        <ele>587.5</ele>
        <time>1970-01-01T02:09:05.000Z</time>
      </trkpt>
      <trkpt lat="45.99107" lon="4.53935">
        <ele>587.2</ele>
        <time>1970-01-01T02:09:06.000Z</time>
      </trkpt>
      <trkpt lat="45.99107" lon="4.53935">
        <ele>587.2</ele>
        <time>1970-01-01T02:09:07.000Z</time>
      </trkpt>
      <trkpt lat="45.99106" lon="4.53934">
        <ele>586.9</ele>
        <time>1970-01-01T02:09:08.000Z</time>
      </trkpt>
      <trkpt lat="45.99106" lon="4.53934">
        <ele>586.9</ele>
        <time>1970-01-01T02:09:09.000Z</time>
      </trkpt>
      <trkpt lat="45.99106" lon="4.53934">
        <ele>586.9</ele>
        <time>1970-01-01T02:09:10.000Z</time>
      </trkpt>
      <trkpt lat="45.99102" lon="4.53933">
        <ele>586.3</ele>
        <time>1970-01-01T02:09:11.000Z</time>
      </trkpt>
      <trkpt lat="45.99101" lon="4.53932">
        <ele>586.2</ele>
        <time>1970-01-01T02:09:12.000Z</time>
      </trkpt>
      <trkpt lat="45.991" lon="4.53932">
        <ele>586</ele>
        <time>1970-01-01T02:09:13.000Z</time>
      </trkpt>
      <trkpt lat="45.99099" lon="4.53932">
        <ele>585.9</ele>
        <time>1970-01-01T02:09:14.000Z</time>
      </trkpt>
      <trkpt lat="45.99098" lon="4.53931">
        <ele>585.7</ele>
        <time>1970-01-01T02:09:15.000Z</time>
      </trkpt>
      <trkpt lat="45.99097" lon="4.53931">
        <ele>585.5</ele>
        <time>1970-01-01T02:09:16.000Z</time>
      </trkpt>
      <trkpt lat="45.99096" lon="4.53931">
        <ele>585.4</ele>
        <time>1970-01-01T02:09:17.000Z</time>
      </trkpt>
      <trkpt lat="45.99095" lon="4.5393">
        <ele>585.2</ele>
        <time>1970-01-01T02:09:18.000Z</time>
      </trkpt>
      <trkpt lat="45.99095" lon="4.5393">
        <ele>585.2</ele>
        <time>1970-01-01T02:09:19.000Z</time>
      </trkpt>
      <trkpt lat="45.99093" lon="4.5393">
        <ele>584.9</ele>
        <time>1970-01-01T02:09:20.000Z</time>
      </trkpt>
      <trkpt lat="45.99093" lon="4.5393">
        <ele>584.9</ele>
        <time>1970-01-01T02:09:21.000Z</time>
      </trkpt>
      <trkpt lat="45.9909" lon="4.53928">
        <ele>584.5</ele>
        <time>1970-01-01T02:09:22.000Z</time>
      </trkpt>
      <trkpt lat="45.9909" lon="4.53928">
        <ele>584.5</ele>
        <time>1970-01-01T02:09:23.000Z</time>
      </trkpt>
      <trkpt lat="45.99088" lon="4.53926">
        <ele>584.1</ele>
        <time>1970-01-01T02:09:24.000Z</time>
      </trkpt>
      <trkpt lat="45.99088" lon="4.53926">
        <ele>584.1</ele>
        <time>1970-01-01T02:09:25.000Z</time>
      </trkpt>
      <trkpt lat="45.99086" lon="4.53924">
        <ele>583.8</ele>
        <time>1970-01-01T02:09:26.000Z</time>
      </trkpt>
      <trkpt lat="45.99086" lon="4.53924">
        <ele>583.8</ele>
        <time>1970-01-01T02:09:27.000Z</time>
      </trkpt>
      <trkpt lat="45.99084" lon="4.53922">
        <ele>583.5</ele>
        <time>1970-01-01T02:09:28.000Z</time>
      </trkpt>
      <trkpt lat="45.99084" lon="4.53922">
        <ele>583.5</ele>
        <time>1970-01-01T02:09:29.000Z</time>
      </trkpt>
      <trkpt lat="45.99082" lon="4.53921">
        <ele>583.2</ele>
        <time>1970-01-01T02:09:30.000Z</time>
      </trkpt>
      <trkpt lat="45.99082" lon="4.53921">
        <ele>583.2</ele>
        <time>1970-01-01T02:09:31.000Z</time>
      </trkpt>
      <trkpt lat="45.9908" lon="4.53919">
        <ele>582.9</ele>
        <time>1970-01-01T02:09:32.000Z</time>
      </trkpt>
      <trkpt lat="45.9908" lon="4.53919">
        <ele>582.9</ele>
        <time>1970-01-01T02:09:33.000Z</time>
      </trkpt>
      <trkpt lat="45.99078" lon="4.53917">
        <ele>582.7</ele>
        <time>1970-01-01T02:09:34.000Z</time>
      </trkpt>
      <trkpt lat="45.99078" lon="4.53917">
        <ele>582.7</ele>
        <time>1970-01-01T02:09:35.000Z</time>
      </trkpt>
      <trkpt lat="45.99076" lon="4.53916">
        <ele>582.4</ele>
        <time>1970-01-01T02:09:36.000Z</time>
      </trkpt>
      <trkpt lat="45.99076" lon="4.53916">
        <ele>582.4</ele>
        <time>1970-01-01T02:09:37.000Z</time>
      </trkpt>
      <trkpt lat="45.99076" lon="4.53916">
        <ele>582.4</ele>
        <time>1970-01-01T02:09:38.000Z</time>
      </trkpt>
      <trkpt lat="45.99074" lon="4.53915">
        <ele>582.2</ele>
        <time>1970-01-01T02:09:39.000Z</time>
      </trkpt>
      <trkpt lat="45.99074" lon="4.53915">
        <ele>582.2</ele>
        <time>1970-01-01T02:09:40.000Z</time>
      </trkpt>
      <trkpt lat="45.99074" lon="4.53915">
        <ele>582.2</ele>
        <time>1970-01-01T02:09:41.000Z</time>
      </trkpt>
      <trkpt lat="45.99071" lon="4.53914">
        <ele>581.9</ele>
        <time>1970-01-01T02:09:42.000Z</time>
      </trkpt>
      <trkpt lat="45.99071" lon="4.53914">
        <ele>581.9</ele>
        <time>1970-01-01T02:09:43.000Z</time>
      </trkpt>
      <trkpt lat="45.99069" lon="4.53913">
        <ele>581.7</ele>
        <time>1970-01-01T02:09:44.000Z</time>
      </trkpt>
      <trkpt lat="45.99069" lon="4.53913">
        <ele>581.7</ele>
        <time>1970-01-01T02:09:45.000Z</time>
      </trkpt>
      <trkpt lat="45.99067" lon="4.53912">
        <ele>581.5</ele>
        <time>1970-01-01T02:09:46.000Z</time>
      </trkpt>
      <trkpt lat="45.99067" lon="4.53912">
        <ele>581.5</ele>
        <time>1970-01-01T02:09:47.000Z</time>
      </trkpt>
      <trkpt lat="45.99067" lon="4.53912">
        <ele>581.5</ele>
        <time>1970-01-01T02:09:48.000Z</time>
      </trkpt>
      <trkpt lat="45.99064" lon="4.53911">
        <ele>581.3</ele>
        <time>1970-01-01T02:09:49.000Z</time>
      </trkpt>
      <trkpt lat="45.99064" lon="4.53911">
        <ele>581.3</ele>
        <time>1970-01-01T02:09:50.000Z</time>
      </trkpt>
      <trkpt lat="45.99064" lon="4.53911">
        <ele>581.3</ele>
        <time>1970-01-01T02:09:51.000Z</time>
      </trkpt>
      <trkpt lat="45.99062" lon="4.53911">
        <ele>581.2</ele>
        <time>1970-01-01T02:09:52.000Z</time>
      </trkpt>
      <trkpt lat="45.99062" lon="4.53911">
        <ele>581.2</ele>
        <time>1970-01-01T02:09:53.000Z</time>
      </trkpt>
      <trkpt lat="45.9906" lon="4.53912">
        <ele>581</ele>
        <time>1970-01-01T02:09:54.000Z</time>
      </trkpt>
      <trkpt lat="45.9906" lon="4.53912">
        <ele>581</ele>
        <time>1970-01-01T02:09:55.000Z</time>
      </trkpt>
      <trkpt lat="45.99057" lon="4.53912">
        <ele>580.9</ele>
        <time>1970-01-01T02:09:56.000Z</time>
      </trkpt>
      <trkpt lat="45.99057" lon="4.53912">
        <ele>580.9</ele>
        <time>1970-01-01T02:09:57.000Z</time>
      </trkpt>
      <trkpt lat="45.99054" lon="4.53912">
        <ele>580.7</ele>
        <time>1970-01-01T02:09:58.000Z</time>
      </trkpt>
      <trkpt lat="45.99054" lon="4.53912">
        <ele>580.7</ele>
        <time>1970-01-01T02:09:59.000Z</time>
      </trkpt>
      <trkpt lat="45.99051" lon="4.53911">
        <ele>580.6</ele>
        <time>1970-01-01T02:10:00.000Z</time>
      </trkpt>
      <trkpt lat="45.99051" lon="4.53911">
        <ele>580.6</ele>
        <time>1970-01-01T02:10:01.000Z</time>
      </trkpt>
      <trkpt lat="45.99049" lon="4.53912">
        <ele>580.5</ele>
        <time>1970-01-01T02:10:02.000Z</time>
      </trkpt>
      <trkpt lat="45.99049" lon="4.53912">
        <ele>580.5</ele>
        <time>1970-01-01T02:10:03.000Z</time>
      </trkpt>
      <trkpt lat="45.99046" lon="4.53912">
        <ele>580.4</ele>
        <time>1970-01-01T02:10:04.000Z</time>
      </trkpt>
      <trkpt lat="45.99046" lon="4.53912">
        <ele>580.4</ele>
        <time>1970-01-01T02:10:05.000Z</time>
      </trkpt>
      <trkpt lat="45.99044" lon="4.53913">
        <ele>580.4</ele>
        <time>1970-01-01T02:10:06.000Z</time>
      </trkpt>
      <trkpt lat="45.99044" lon="4.53913">
        <ele>580.4</ele>
        <time>1970-01-01T02:10:07.000Z</time>
      </trkpt>
      <trkpt lat="45.99042" lon="4.53913">
        <ele>580.4</ele>
        <time>1970-01-01T02:10:08.000Z</time>
      </trkpt>
      <trkpt lat="45.99042" lon="4.53913">
        <ele>580.4</ele>
        <time>1970-01-01T02:10:09.000Z</time>
      </trkpt>
      <trkpt lat="45.99039" lon="4.53914">
        <ele>580.3</ele>
        <time>1970-01-01T02:10:10.000Z</time>
      </trkpt>
      <trkpt lat="45.99039" lon="4.53914">
        <ele>580.3</ele>
        <time>1970-01-01T02:10:11.000Z</time>
      </trkpt>
      <trkpt lat="45.99037" lon="4.53916">
        <ele>580.3</ele>
        <time>1970-01-01T02:10:12.000Z</time>
      </trkpt>
      <trkpt lat="45.99037" lon="4.53916">
        <ele>580.3</ele>
        <time>1970-01-01T02:10:13.000Z</time>
      </trkpt>
      <trkpt lat="45.99035" lon="4.53915">
        <ele>580.3</ele>
        <time>1970-01-01T02:10:14.000Z</time>
      </trkpt>
      <trkpt lat="45.99035" lon="4.53915">
        <ele>580.3</ele>
        <time>1970-01-01T02:10:15.000Z</time>
      </trkpt>
      <trkpt lat="45.99033" lon="4.53916">
        <ele>580.3</ele>
        <time>1970-01-01T02:10:16.000Z</time>
      </trkpt>
      <trkpt lat="45.99033" lon="4.53916">
        <ele>580.3</ele>
        <time>1970-01-01T02:10:17.000Z</time>
      </trkpt>
      <trkpt lat="45.99031" lon="4.53917">
        <ele>580.3</ele>
        <time>1970-01-01T02:10:18.000Z</time>
      </trkpt>
      <trkpt lat="45.99031" lon="4.53917">
        <ele>580.3</ele>
        <time>1970-01-01T02:10:19.000Z</time>
      </trkpt>
      <trkpt lat="45.99029" lon="4.5392">
        <ele>580.2</ele>
        <time>1970-01-01T02:10:20.000Z</time>
      </trkpt>
      <trkpt lat="45.99029" lon="4.5392">
        <ele>580.2</ele>
        <time>1970-01-01T02:10:21.000Z</time>
      </trkpt>
      <trkpt lat="45.99027" lon="4.53921">
        <ele>580.1</ele>
        <time>1970-01-01T02:10:22.000Z</time>
      </trkpt>
      <trkpt lat="45.99027" lon="4.53921">
        <ele>580.1</ele>
        <time>1970-01-01T02:10:23.000Z</time>
      </trkpt>
      <trkpt lat="45.99025" lon="4.53922">
        <ele>580</ele>
        <time>1970-01-01T02:10:24.000Z</time>
      </trkpt>
      <trkpt lat="45.99025" lon="4.53922">
        <ele>580</ele>
        <time>1970-01-01T02:10:25.000Z</time>
      </trkpt>
      <trkpt lat="45.99025" lon="4.53922">
        <ele>580</ele>
        <time>1970-01-01T02:10:26.000Z</time>
      </trkpt>
      <trkpt lat="45.99024" lon="4.53925">
        <ele>579.8</ele>
        <time>1970-01-01T02:10:27.000Z</time>
      </trkpt>
      <trkpt lat="45.99024" lon="4.53925">
        <ele>579.8</ele>
        <time>1970-01-01T02:10:28.000Z</time>
      </trkpt>
      <trkpt lat="45.99024" lon="4.53925">
        <ele>579.8</ele>
        <time>1970-01-01T02:10:29.000Z</time>
      </trkpt>
      <trkpt lat="45.99024" lon="4.53925">
        <ele>579.8</ele>
        <time>1970-01-01T02:10:30.000Z</time>
      </trkpt>
      <trkpt lat="45.99023" lon="4.53928">
        <ele>579.6</ele>
        <time>1970-01-01T02:10:31.000Z</time>
      </trkpt>
      <trkpt lat="45.99023" lon="4.53928">
        <ele>579.6</ele>
        <time>1970-01-01T02:10:32.000Z</time>
      </trkpt>
      <trkpt lat="45.99023" lon="4.53928">
        <ele>579.6</ele>
        <time>1970-01-01T02:10:33.000Z</time>
      </trkpt>
      <trkpt lat="45.99022" lon="4.53931">
        <ele>579.4</ele>
        <time>1970-01-01T02:10:34.000Z</time>
      </trkpt>
      <trkpt lat="45.99022" lon="4.53931">
        <ele>579.4</ele>
        <time>1970-01-01T02:10:35.000Z</time>
      </trkpt>
      <trkpt lat="45.99022" lon="4.53934">
        <ele>579.2</ele>
        <time>1970-01-01T02:10:36.000Z</time>
      </trkpt>
      <trkpt lat="45.99022" lon="4.53934">
        <ele>579.2</ele>
        <time>1970-01-01T02:10:37.000Z</time>
      </trkpt>
      <trkpt lat="45.99022" lon="4.53934">
        <ele>579.2</ele>
        <time>1970-01-01T02:10:38.000Z</time>
      </trkpt>
      <trkpt lat="45.99022" lon="4.53938">
        <ele>578.8</ele>
        <time>1970-01-01T02:10:39.000Z</time>
      </trkpt>
      <trkpt lat="45.99022" lon="4.53938">
        <ele>578.8</ele>
        <time>1970-01-01T02:10:40.000Z</time>
      </trkpt>
      <trkpt lat="45.99022" lon="4.53941">
        <ele>578.5</ele>
        <time>1970-01-01T02:10:41.000Z</time>
      </trkpt>
      <trkpt lat="45.99022" lon="4.53941">
        <ele>578.5</ele>
        <time>1970-01-01T02:10:42.000Z</time>
      </trkpt>
      <trkpt lat="45.99022" lon="4.53944">
        <ele>578.2</ele>
        <time>1970-01-01T02:10:43.000Z</time>
      </trkpt>
      <trkpt lat="45.99022" lon="4.53944">
        <ele>578.2</ele>
        <time>1970-01-01T02:10:44.000Z</time>
      </trkpt>
      <trkpt lat="45.99022" lon="4.53944">
        <ele>578.2</ele>
        <time>1970-01-01T02:10:45.000Z</time>
      </trkpt>
      <trkpt lat="45.99021" lon="4.53947">
        <ele>577.7</ele>
        <time>1970-01-01T02:10:46.000Z</time>
      </trkpt>
      <trkpt lat="45.99021" lon="4.53947">
        <ele>577.7</ele>
        <time>1970-01-01T02:10:47.000Z</time>
      </trkpt>
      <trkpt lat="45.9902" lon="4.5395">
        <ele>577.4</ele>
        <time>1970-01-01T02:10:48.000Z</time>
      </trkpt>
      <trkpt lat="45.9902" lon="4.5395">
        <ele>577.4</ele>
        <time>1970-01-01T02:10:49.000Z</time>
      </trkpt>
      <trkpt lat="45.99021" lon="4.53952">
        <ele>577.1</ele>
        <time>1970-01-01T02:10:50.000Z</time>
      </trkpt>
      <trkpt lat="45.99021" lon="4.53952">
        <ele>577.1</ele>
        <time>1970-01-01T02:10:51.000Z</time>
      </trkpt>
      <trkpt lat="45.9902" lon="4.53955">
        <ele>576.7</ele>
        <time>1970-01-01T02:10:52.000Z</time>
      </trkpt>
      <trkpt lat="45.9902" lon="4.53956">
        <ele>576.6</ele>
        <time>1970-01-01T02:10:53.000Z</time>
      </trkpt>
      <trkpt lat="45.9902" lon="4.53958">
        <ele>576.4</ele>
        <time>1970-01-01T02:10:54.000Z</time>
      </trkpt>
      <trkpt lat="45.9902" lon="4.53959">
        <ele>576.2</ele>
        <time>1970-01-01T02:10:55.000Z</time>
      </trkpt>
      <trkpt lat="45.9902" lon="4.53961">
        <ele>576</ele>
        <time>1970-01-01T02:10:56.000Z</time>
      </trkpt>
      <trkpt lat="45.9902" lon="4.53962">
        <ele>575.8</ele>
        <time>1970-01-01T02:10:57.000Z</time>
      </trkpt>
      <trkpt lat="45.9902" lon="4.53963">
        <ele>575.6</ele>
        <time>1970-01-01T02:10:58.000Z</time>
      </trkpt>
      <trkpt lat="45.99019" lon="4.53965">
        <ele>575.5</ele>
        <time>1970-01-01T02:10:59.000Z</time>
      </trkpt>
      <trkpt lat="45.99019" lon="4.53966">
        <ele>575.3</ele>
        <time>1970-01-01T02:11:00.000Z</time>
      </trkpt>
      <trkpt lat="45.99019" lon="4.53967">
        <ele>575.1</ele>
        <time>1970-01-01T02:11:01.000Z</time>
      </trkpt>
      <trkpt lat="45.99019" lon="4.53969">
        <ele>574.9</ele>
        <time>1970-01-01T02:11:02.000Z</time>
      </trkpt>
      <trkpt lat="45.99019" lon="4.53969">
        <ele>574.9</ele>
        <time>1970-01-01T02:11:03.000Z</time>
      </trkpt>
      <trkpt lat="45.99019" lon="4.53969">
        <ele>574.9</ele>
        <time>1970-01-01T02:11:04.000Z</time>
      </trkpt>
      <trkpt lat="45.99018" lon="4.53971">
        <ele>574.5</ele>
        <time>1970-01-01T02:11:05.000Z</time>
      </trkpt>
      <trkpt lat="45.99018" lon="4.53971">
        <ele>574.5</ele>
        <time>1970-01-01T02:11:06.000Z</time>
      </trkpt>
      <trkpt lat="45.99018" lon="4.53971">
        <ele>574.5</ele>
        <time>1970-01-01T02:11:07.000Z</time>
      </trkpt>
      <trkpt lat="45.99018" lon="4.53974">
        <ele>574.1</ele>
        <time>1970-01-01T02:11:08.000Z</time>
      </trkpt>
      <trkpt lat="45.99018" lon="4.53974">
        <ele>574.1</ele>
        <time>1970-01-01T02:11:09.000Z</time>
      </trkpt>
      <trkpt lat="45.99018" lon="4.53974">
        <ele>574.1</ele>
        <time>1970-01-01T02:11:10.000Z</time>
      </trkpt>
      <trkpt lat="45.99017" lon="4.53978">
        <ele>573.6</ele>
        <time>1970-01-01T02:11:11.000Z</time>
      </trkpt>
      <trkpt lat="45.99017" lon="4.53979">
        <ele>573.4</ele>
        <time>1970-01-01T02:11:12.000Z</time>
      </trkpt>
      <trkpt lat="45.99016" lon="4.5398">
        <ele>573.2</ele>
        <time>1970-01-01T02:11:13.000Z</time>
      </trkpt>
      <trkpt lat="45.99015" lon="4.53982">
        <ele>573</ele>
        <time>1970-01-01T02:11:14.000Z</time>
      </trkpt>
      <trkpt lat="45.99014" lon="4.53983">
        <ele>572.8</ele>
        <time>1970-01-01T02:11:15.000Z</time>
      </trkpt>
      <trkpt lat="45.99014" lon="4.53984">
        <ele>572.6</ele>
        <time>1970-01-01T02:11:16.000Z</time>
      </trkpt>
      <trkpt lat="45.99013" lon="4.53986">
        <ele>572.3</ele>
        <time>1970-01-01T02:11:17.000Z</time>
      </trkpt>
      <trkpt lat="45.99012" lon="4.53987">
        <ele>572.2</ele>
        <time>1970-01-01T02:11:18.000Z</time>
      </trkpt>
      <trkpt lat="45.99011" lon="4.53988">
        <ele>572</ele>
        <time>1970-01-01T02:11:19.000Z</time>
      </trkpt>
      <trkpt lat="45.99009" lon="4.5399">
        <ele>571.6</ele>
        <time>1970-01-01T02:11:20.000Z</time>
      </trkpt>
      <trkpt lat="45.99009" lon="4.5399">
        <ele>571.6</ele>
        <time>1970-01-01T02:11:21.000Z</time>
      </trkpt>
      <trkpt lat="45.99007" lon="4.53993">
        <ele>571.2</ele>
        <time>1970-01-01T02:11:22.000Z</time>
      </trkpt>
      <trkpt lat="45.99007" lon="4.53993">
        <ele>571.2</ele>
        <time>1970-01-01T02:11:23.000Z</time>
      </trkpt>
      <trkpt lat="45.99006" lon="4.53995">
        <ele>570.8</ele>
        <time>1970-01-01T02:11:24.000Z</time>
      </trkpt>
      <trkpt lat="45.99006" lon="4.53995">
        <ele>570.8</ele>
        <time>1970-01-01T02:11:25.000Z</time>
      </trkpt>
      <trkpt lat="45.99004" lon="4.53999">
        <ele>570.5</ele>
        <time>1970-01-01T02:11:26.000Z</time>
      </trkpt>
      <trkpt lat="45.99004" lon="4.53999">
        <ele>570.5</ele>
        <time>1970-01-01T02:11:27.000Z</time>
      </trkpt>
      <trkpt lat="45.99003" lon="4.54002">
        <ele>570.2</ele>
        <time>1970-01-01T02:11:28.000Z</time>
      </trkpt>
      <trkpt lat="45.99003" lon="4.54002">
        <ele>570.2</ele>
        <time>1970-01-01T02:11:29.000Z</time>
      </trkpt>
      <trkpt lat="45.99001" lon="4.54004">
        <ele>569.9</ele>
        <time>1970-01-01T02:11:30.000Z</time>
      </trkpt>
      <trkpt lat="45.99001" lon="4.54004">
        <ele>569.9</ele>
        <time>1970-01-01T02:11:31.000Z</time>
      </trkpt>
      <trkpt lat="45.98999" lon="4.54007">
        <ele>569.7</ele>
        <time>1970-01-01T02:11:32.000Z</time>
      </trkpt>
      <trkpt lat="45.98999" lon="4.54007">
        <ele>569.7</ele>
        <time>1970-01-01T02:11:33.000Z</time>
      </trkpt>
      <trkpt lat="45.98997" lon="4.54008">
        <ele>569.5</ele>
        <time>1970-01-01T02:11:34.000Z</time>
      </trkpt>
      <trkpt lat="45.98997" lon="4.54008">
        <ele>569.5</ele>
        <time>1970-01-01T02:11:35.000Z</time>
      </trkpt>
      <trkpt lat="45.98995" lon="4.54011">
        <ele>569.3</ele>
        <time>1970-01-01T02:11:36.000Z</time>
      </trkpt>
      <trkpt lat="45.98993" lon="4.54012">
        <ele>569.2</ele>
        <time>1970-01-01T02:11:37.000Z</time>
      </trkpt>
      <trkpt lat="45.98992" lon="4.54012">
        <ele>569.1</ele>
        <time>1970-01-01T02:11:38.000Z</time>
      </trkpt>
      <trkpt lat="45.98991" lon="4.54013">
        <ele>569.1</ele>
        <time>1970-01-01T02:11:39.000Z</time>
      </trkpt>
      <trkpt lat="45.9899" lon="4.54014">
        <ele>569</ele>
        <time>1970-01-01T02:11:40.000Z</time>
      </trkpt>
      <trkpt lat="45.9899" lon="4.54014">
        <ele>569</ele>
        <time>1970-01-01T02:11:41.000Z</time>
      </trkpt>
      <trkpt lat="45.98988" lon="4.54016">
        <ele>568.9</ele>
        <time>1970-01-01T02:11:42.000Z</time>
      </trkpt>
      <trkpt lat="45.98988" lon="4.54016">
        <ele>568.9</ele>
        <time>1970-01-01T02:11:43.000Z</time>
      </trkpt>
      <trkpt lat="45.98985" lon="4.54017">
        <ele>568.8</ele>
        <time>1970-01-01T02:11:44.000Z</time>
      </trkpt>
      <trkpt lat="45.98985" lon="4.54017">
        <ele>568.8</ele>
        <time>1970-01-01T02:11:45.000Z</time>
      </trkpt>
      <trkpt lat="45.98983" lon="4.54019">
        <ele>568.7</ele>
        <time>1970-01-01T02:11:46.000Z</time>
      </trkpt>
      <trkpt lat="45.98983" lon="4.54019">
        <ele>568.7</ele>
        <time>1970-01-01T02:11:47.000Z</time>
      </trkpt>
      <trkpt lat="45.98981" lon="4.54022">
        <ele>568.7</ele>
        <time>1970-01-01T02:11:48.000Z</time>
      </trkpt>
      <trkpt lat="45.98981" lon="4.54022">
        <ele>568.7</ele>
        <time>1970-01-01T02:11:49.000Z</time>
      </trkpt>
      <trkpt lat="45.98979" lon="4.54024">
        <ele>568.6</ele>
        <time>1970-01-01T02:11:50.000Z</time>
      </trkpt>
      <trkpt lat="45.98979" lon="4.54024">
        <ele>568.6</ele>
        <time>1970-01-01T02:11:51.000Z</time>
      </trkpt>
      <trkpt lat="45.98977" lon="4.54026">
        <ele>568.6</ele>
        <time>1970-01-01T02:11:52.000Z</time>
      </trkpt>
      <trkpt lat="45.98977" lon="4.54026">
        <ele>568.6</ele>
        <time>1970-01-01T02:11:53.000Z</time>
      </trkpt>
      <trkpt lat="45.98977" lon="4.54026">
        <ele>568.6</ele>
        <time>1970-01-01T02:11:54.000Z</time>
      </trkpt>
      <trkpt lat="45.98976" lon="4.54029">
        <ele>568.6</ele>
        <time>1970-01-01T02:11:55.000Z</time>
      </trkpt>
      <trkpt lat="45.98976" lon="4.54029">
        <ele>568.6</ele>
        <time>1970-01-01T02:11:56.000Z</time>
      </trkpt>
      <trkpt lat="45.98975" lon="4.5403">
        <ele>568.6</ele>
        <time>1970-01-01T02:11:57.000Z</time>
      </trkpt>
      <trkpt lat="45.98974" lon="4.5403">
        <ele>568.6</ele>
        <time>1970-01-01T02:11:58.000Z</time>
      </trkpt>
      <trkpt lat="45.98973" lon="4.54031">
        <ele>568.6</ele>
        <time>1970-01-01T02:11:59.000Z</time>
      </trkpt>
      <trkpt lat="45.98973" lon="4.54031">
        <ele>568.6</ele>
        <time>1970-01-01T02:12:00.000Z</time>
      </trkpt>
      <trkpt lat="45.98972" lon="4.54032">
        <ele>568.6</ele>
        <time>1970-01-01T02:12:01.000Z</time>
      </trkpt>
      <trkpt lat="45.98971" lon="4.54032">
        <ele>568.6</ele>
        <time>1970-01-01T02:12:02.000Z</time>
      </trkpt>
      <trkpt lat="45.98971" lon="4.54033">
        <ele>568.6</ele>
        <time>1970-01-01T02:12:03.000Z</time>
      </trkpt>
      <trkpt lat="45.9897" lon="4.54033">
        <ele>568.6</ele>
        <time>1970-01-01T02:12:04.000Z</time>
      </trkpt>
      <trkpt lat="45.98969" lon="4.54034">
        <ele>568.6</ele>
        <time>1970-01-01T02:12:05.000Z</time>
      </trkpt>
      <trkpt lat="45.98969" lon="4.54034">
        <ele>568.6</ele>
        <time>1970-01-01T02:12:06.000Z</time>
      </trkpt>
      <trkpt lat="45.98968" lon="4.54035">
        <ele>568.6</ele>
        <time>1970-01-01T02:12:07.000Z</time>
      </trkpt>
      <trkpt lat="45.98967" lon="4.54034">
        <ele>568.6</ele>
        <time>1970-01-01T02:12:08.000Z</time>
      </trkpt>
      <trkpt lat="45.98966" lon="4.54034">
        <ele>568.6</ele>
        <time>1970-01-01T02:12:09.000Z</time>
      </trkpt>
      <trkpt lat="45.98965" lon="4.54034">
        <ele>568.6</ele>
        <time>1970-01-01T02:12:10.000Z</time>
      </trkpt>
      <trkpt lat="45.98964" lon="4.54033">
        <ele>568.6</ele>
        <time>1970-01-01T02:12:11.000Z</time>
      </trkpt>
      <trkpt lat="45.98964" lon="4.54033">
        <ele>568.6</ele>
        <time>1970-01-01T02:12:12.000Z</time>
      </trkpt>
      <trkpt lat="45.98963" lon="4.54033">
        <ele>568.7</ele>
        <time>1970-01-01T02:12:13.000Z</time>
      </trkpt>
      <trkpt lat="45.98956" lon="4.5403">
        <ele>568.8</ele>
        <time>1970-01-01T02:12:14.000Z</time>
      </trkpt>
      <trkpt lat="45.98954" lon="4.54029">
        <ele>568.8</ele>
        <time>1970-01-01T02:12:15.000Z</time>
      </trkpt>
      <trkpt lat="45.98953" lon="4.54028">
        <ele>568.9</ele>
        <time>1970-01-01T02:12:16.000Z</time>
      </trkpt>
      <trkpt lat="45.98951" lon="4.54027">
        <ele>569</ele>
        <time>1970-01-01T02:12:17.000Z</time>
      </trkpt>
      <trkpt lat="45.98949" lon="4.54026">
        <ele>569</ele>
        <time>1970-01-01T02:12:18.000Z</time>
      </trkpt>
      <trkpt lat="45.98948" lon="4.54025">
        <ele>569.1</ele>
        <time>1970-01-01T02:12:19.000Z</time>
      </trkpt>
      <trkpt lat="45.98947" lon="4.54025">
        <ele>569.1</ele>
        <time>1970-01-01T02:12:20.000Z</time>
      </trkpt>
      <trkpt lat="45.98946" lon="4.54024">
        <ele>569.2</ele>
        <time>1970-01-01T02:12:21.000Z</time>
      </trkpt>
      <trkpt lat="45.98945" lon="4.54023">
        <ele>569.2</ele>
        <time>1970-01-01T02:12:22.000Z</time>
      </trkpt>
      <trkpt lat="45.98944" lon="4.54022">
        <ele>569.3</ele>
        <time>1970-01-01T02:12:23.000Z</time>
      </trkpt>
      <trkpt lat="45.98943" lon="4.54021">
        <ele>569.3</ele>
        <time>1970-01-01T02:12:24.000Z</time>
      </trkpt>
      <trkpt lat="45.98942" lon="4.5402">
        <ele>569.4</ele>
        <time>1970-01-01T02:12:25.000Z</time>
      </trkpt>
      <trkpt lat="45.98941" lon="4.54019">
        <ele>569.4</ele>
        <time>1970-01-01T02:12:26.000Z</time>
      </trkpt>
      <trkpt lat="45.9894" lon="4.54018">
        <ele>569.5</ele>
        <time>1970-01-01T02:12:27.000Z</time>
      </trkpt>
      <trkpt lat="45.98939" lon="4.54018">
        <ele>569.5</ele>
        <time>1970-01-01T02:12:28.000Z</time>
      </trkpt>
      <trkpt lat="45.98938" lon="4.54017">
        <ele>569.6</ele>
        <time>1970-01-01T02:12:29.000Z</time>
      </trkpt>
      <trkpt lat="45.98937" lon="4.54017">
        <ele>569.6</ele>
        <time>1970-01-01T02:12:30.000Z</time>
      </trkpt>
      <trkpt lat="45.98936" lon="4.54016">
        <ele>569.7</ele>
        <time>1970-01-01T02:12:31.000Z</time>
      </trkpt>
      <trkpt lat="45.98935" lon="4.54015">
        <ele>569.7</ele>
        <time>1970-01-01T02:12:32.000Z</time>
      </trkpt>
      <trkpt lat="45.98934" lon="4.54015">
        <ele>569.8</ele>
        <time>1970-01-01T02:12:33.000Z</time>
      </trkpt>
      <trkpt lat="45.98932" lon="4.54014">
        <ele>569.8</ele>
        <time>1970-01-01T02:12:34.000Z</time>
      </trkpt>
      <trkpt lat="45.98931" lon="4.54013">
        <ele>569.9</ele>
        <time>1970-01-01T02:12:35.000Z</time>
      </trkpt>
      <trkpt lat="45.9893" lon="4.54013">
        <ele>569.9</ele>
        <time>1970-01-01T02:12:36.000Z</time>
      </trkpt>
      <trkpt lat="45.98929" lon="4.54012">
        <ele>570</ele>
        <time>1970-01-01T02:12:37.000Z</time>
      </trkpt>
      <trkpt lat="45.98928" lon="4.54011">
        <ele>570</ele>
        <time>1970-01-01T02:12:38.000Z</time>
      </trkpt>
      <trkpt lat="45.98927" lon="4.54011">
        <ele>570.1</ele>
        <time>1970-01-01T02:12:39.000Z</time>
      </trkpt>
      <trkpt lat="45.98926" lon="4.5401">
        <ele>570.1</ele>
        <time>1970-01-01T02:12:40.000Z</time>
      </trkpt>
      <trkpt lat="45.98925" lon="4.54009">
        <ele>570.2</ele>
        <time>1970-01-01T02:12:41.000Z</time>
      </trkpt>
      <trkpt lat="45.98924" lon="4.54008">
        <ele>570.2</ele>
        <time>1970-01-01T02:12:42.000Z</time>
      </trkpt>
      <trkpt lat="45.98923" lon="4.54008">
        <ele>570.3</ele>
        <time>1970-01-01T02:12:43.000Z</time>
      </trkpt>
      <trkpt lat="45.98922" lon="4.54007">
        <ele>570.3</ele>
        <time>1970-01-01T02:12:44.000Z</time>
      </trkpt>
      <trkpt lat="45.98921" lon="4.54006">
        <ele>570.4</ele>
        <time>1970-01-01T02:12:45.000Z</time>
      </trkpt>
      <trkpt lat="45.9892" lon="4.54005">
        <ele>570.4</ele>
        <time>1970-01-01T02:12:46.000Z</time>
      </trkpt>
      <trkpt lat="45.98919" lon="4.54004">
        <ele>570.5</ele>
        <time>1970-01-01T02:12:47.000Z</time>
      </trkpt>
      <trkpt lat="45.98919" lon="4.54003">
        <ele>570.6</ele>
        <time>1970-01-01T02:12:48.000Z</time>
      </trkpt>
      <trkpt lat="45.98918" lon="4.54002">
        <ele>570.6</ele>
        <time>1970-01-01T02:12:49.000Z</time>
      </trkpt>
      <trkpt lat="45.98917" lon="4.54002">
        <ele>570.6</ele>
        <time>1970-01-01T02:12:50.000Z</time>
      </trkpt>
      <trkpt lat="45.98916" lon="4.54001">
        <ele>570.7</ele>
        <time>1970-01-01T02:12:51.000Z</time>
      </trkpt>
      <trkpt lat="45.98915" lon="4.54">
        <ele>570.8</ele>
        <time>1970-01-01T02:12:52.000Z</time>
      </trkpt>
      <trkpt lat="45.98914" lon="4.53999">
        <ele>570.8</ele>
        <time>1970-01-01T02:12:53.000Z</time>
      </trkpt>
      <trkpt lat="45.98913" lon="4.53999">
        <ele>570.9</ele>
        <time>1970-01-01T02:12:54.000Z</time>
      </trkpt>
      <trkpt lat="45.98912" lon="4.53998">
        <ele>570.9</ele>
        <time>1970-01-01T02:12:55.000Z</time>
      </trkpt>
      <trkpt lat="45.98911" lon="4.53998">
        <ele>570.9</ele>
        <time>1970-01-01T02:12:56.000Z</time>
      </trkpt>
      <trkpt lat="45.9891" lon="4.53997">
        <ele>571</ele>
        <time>1970-01-01T02:12:57.000Z</time>
      </trkpt>
      <trkpt lat="45.98909" lon="4.53996">
        <ele>571</ele>
        <time>1970-01-01T02:12:58.000Z</time>
      </trkpt>
      <trkpt lat="45.98908" lon="4.53996">
        <ele>571.1</ele>
        <time>1970-01-01T02:12:59.000Z</time>
      </trkpt>
      <trkpt lat="45.98907" lon="4.53995">
        <ele>571.1</ele>
        <time>1970-01-01T02:13:00.000Z</time>
      </trkpt>
      <trkpt lat="45.98906" lon="4.53995">
        <ele>571.2</ele>
        <time>1970-01-01T02:13:01.000Z</time>
      </trkpt>
      <trkpt lat="45.98905" lon="4.53994">
        <ele>571.2</ele>
        <time>1970-01-01T02:13:02.000Z</time>
      </trkpt>
      <trkpt lat="45.98904" lon="4.53994">
        <ele>571.3</ele>
        <time>1970-01-01T02:13:03.000Z</time>
      </trkpt>
      <trkpt lat="45.98903" lon="4.53993">
        <ele>571.3</ele>
        <time>1970-01-01T02:13:04.000Z</time>
      </trkpt>
      <trkpt lat="45.98901" lon="4.53993">
        <ele>571.4</ele>
        <time>1970-01-01T02:13:05.000Z</time>
      </trkpt>
      <trkpt lat="45.989" lon="4.53992">
        <ele>571.4</ele>
        <time>1970-01-01T02:13:06.000Z</time>
      </trkpt>
      <trkpt lat="45.98899" lon="4.53992">
        <ele>571.5</ele>
        <time>1970-01-01T02:13:07.000Z</time>
      </trkpt>
      <trkpt lat="45.98898" lon="4.53991">
        <ele>571.5</ele>
        <time>1970-01-01T02:13:08.000Z</time>
      </trkpt>
      <trkpt lat="45.98896" lon="4.53991">
        <ele>571.6</ele>
        <time>1970-01-01T02:13:09.000Z</time>
      </trkpt>
      <trkpt lat="45.98896" lon="4.53991">
        <ele>571.6</ele>
        <time>1970-01-01T02:13:10.000Z</time>
      </trkpt>
      <trkpt lat="45.98895" lon="4.53991">
        <ele>571.6</ele>
        <time>1970-01-01T02:13:11.000Z</time>
      </trkpt>
      <trkpt lat="45.98894" lon="4.5399">
        <ele>571.7</ele>
        <time>1970-01-01T02:13:12.000Z</time>
      </trkpt>
      <trkpt lat="45.98894" lon="4.5399">
        <ele>571.7</ele>
        <time>1970-01-01T02:13:13.000Z</time>
      </trkpt>
      <trkpt lat="45.98893" lon="4.5399">
        <ele>571.7</ele>
        <time>1970-01-01T02:13:14.000Z</time>
      </trkpt>
      <trkpt lat="45.98892" lon="4.5399">
        <ele>571.7</ele>
        <time>1970-01-01T02:13:15.000Z</time>
      </trkpt>
      <trkpt lat="45.98891" lon="4.5399">
        <ele>571.8</ele>
        <time>1970-01-01T02:13:16.000Z</time>
      </trkpt>
      <trkpt lat="45.98885" lon="4.53988">
        <ele>571.9</ele>
        <time>1970-01-01T02:13:17.000Z</time>
      </trkpt>
      <trkpt lat="45.98884" lon="4.53988">
        <ele>572</ele>
        <time>1970-01-01T02:13:18.000Z</time>
      </trkpt>
      <trkpt lat="45.98882" lon="4.53987">
        <ele>572</ele>
        <time>1970-01-01T02:13:19.000Z</time>
      </trkpt>
      <trkpt lat="45.98881" lon="4.53986">
        <ele>572.1</ele>
        <time>1970-01-01T02:13:20.000Z</time>
      </trkpt>
      <trkpt lat="45.9888" lon="4.53986">
        <ele>572.1</ele>
        <time>1970-01-01T02:13:21.000Z</time>
      </trkpt>
      <trkpt lat="45.98879" lon="4.53985">
        <ele>572.1</ele>
        <time>1970-01-01T02:13:22.000Z</time>
      </trkpt>
      <trkpt lat="45.98877" lon="4.53985">
        <ele>572.2</ele>
        <time>1970-01-01T02:13:23.000Z</time>
      </trkpt>
      <trkpt lat="45.98876" lon="4.53984">
        <ele>572.2</ele>
        <time>1970-01-01T02:13:24.000Z</time>
      </trkpt>
      <trkpt lat="45.98875" lon="4.53984">
        <ele>572.2</ele>
        <time>1970-01-01T02:13:25.000Z</time>
      </trkpt>
      <trkpt lat="45.98874" lon="4.53984">
        <ele>572.3</ele>
        <time>1970-01-01T02:13:26.000Z</time>
      </trkpt>
      <trkpt lat="45.98873" lon="4.53984">
        <ele>572.3</ele>
        <time>1970-01-01T02:13:27.000Z</time>
      </trkpt>
      <trkpt lat="45.98872" lon="4.53983">
        <ele>572.3</ele>
        <time>1970-01-01T02:13:28.000Z</time>
      </trkpt>
      <trkpt lat="45.98871" lon="4.53983">
        <ele>572.4</ele>
        <time>1970-01-01T02:13:29.000Z</time>
      </trkpt>
      <trkpt lat="45.9887" lon="4.53983">
        <ele>572.4</ele>
        <time>1970-01-01T02:13:30.000Z</time>
      </trkpt>
      <trkpt lat="45.98869" lon="4.53983">
        <ele>572.4</ele>
        <time>1970-01-01T02:13:31.000Z</time>
      </trkpt>
      <trkpt lat="45.98868" lon="4.53983">
        <ele>572.5</ele>
        <time>1970-01-01T02:13:32.000Z</time>
      </trkpt>
      <trkpt lat="45.98867" lon="4.53983">
        <ele>572.5</ele>
        <time>1970-01-01T02:13:33.000Z</time>
      </trkpt>
      <trkpt lat="45.98866" lon="4.53984">
        <ele>572.6</ele>
        <time>1970-01-01T02:13:34.000Z</time>
      </trkpt>
      <trkpt lat="45.98865" lon="4.53984">
        <ele>572.6</ele>
        <time>1970-01-01T02:13:35.000Z</time>
      </trkpt>
      <trkpt lat="45.98864" lon="4.53984">
        <ele>572.7</ele>
        <time>1970-01-01T02:13:36.000Z</time>
      </trkpt>
      <trkpt lat="45.98864" lon="4.53984">
        <ele>572.7</ele>
        <time>1970-01-01T02:13:37.000Z</time>
      </trkpt>
      <trkpt lat="45.98864" lon="4.53984">
        <ele>572.7</ele>
        <time>1970-01-01T02:13:38.000Z</time>
      </trkpt>
      <trkpt lat="45.9886" lon="4.53986">
        <ele>572.8</ele>
        <time>1970-01-01T02:13:39.000Z</time>
      </trkpt>
      <trkpt lat="45.98859" lon="4.53985">
        <ele>572.9</ele>
        <time>1970-01-01T02:13:40.000Z</time>
      </trkpt>
      <trkpt lat="45.98858" lon="4.53985">
        <ele>572.9</ele>
        <time>1970-01-01T02:13:41.000Z</time>
      </trkpt>
      <trkpt lat="45.98857" lon="4.53985">
        <ele>573</ele>
        <time>1970-01-01T02:13:42.000Z</time>
      </trkpt>
      <trkpt lat="45.98856" lon="4.53985">
        <ele>573</ele>
        <time>1970-01-01T02:13:43.000Z</time>
      </trkpt>
      <trkpt lat="45.98855" lon="4.53985">
        <ele>573.1</ele>
        <time>1970-01-01T02:13:44.000Z</time>
      </trkpt>
      <trkpt lat="45.98854" lon="4.53985">
        <ele>573.1</ele>
        <time>1970-01-01T02:13:45.000Z</time>
      </trkpt>
      <trkpt lat="45.98853" lon="4.53984">
        <ele>573.2</ele>
        <time>1970-01-01T02:13:46.000Z</time>
      </trkpt>
      <trkpt lat="45.98852" lon="4.53984">
        <ele>573.3</ele>
        <time>1970-01-01T02:13:47.000Z</time>
      </trkpt>
      <trkpt lat="45.98851" lon="4.53984">
        <ele>573.3</ele>
        <time>1970-01-01T02:13:48.000Z</time>
      </trkpt>
      <trkpt lat="45.9885" lon="4.53984">
        <ele>573.4</ele>
        <time>1970-01-01T02:13:49.000Z</time>
      </trkpt>
      <trkpt lat="45.98849" lon="4.53984">
        <ele>573.5</ele>
        <time>1970-01-01T02:13:50.000Z</time>
      </trkpt>
      <trkpt lat="45.98848" lon="4.53985">
        <ele>573.5</ele>
        <time>1970-01-01T02:13:51.000Z</time>
      </trkpt>
      <trkpt lat="45.98847" lon="4.53985">
        <ele>573.6</ele>
        <time>1970-01-01T02:13:52.000Z</time>
      </trkpt>
      <trkpt lat="45.98846" lon="4.53985">
        <ele>573.7</ele>
        <time>1970-01-01T02:13:53.000Z</time>
      </trkpt>
      <trkpt lat="45.98845" lon="4.53986">
        <ele>573.8</ele>
        <time>1970-01-01T02:13:54.000Z</time>
      </trkpt>
      <trkpt lat="45.98844" lon="4.53986">
        <ele>573.8</ele>
        <time>1970-01-01T02:13:55.000Z</time>
      </trkpt>
      <trkpt lat="45.98843" lon="4.53987">
        <ele>573.9</ele>
        <time>1970-01-01T02:13:56.000Z</time>
      </trkpt>
      <trkpt lat="45.98842" lon="4.53987">
        <ele>574</ele>
        <time>1970-01-01T02:13:57.000Z</time>
      </trkpt>
      <trkpt lat="45.98841" lon="4.53988">
        <ele>574.1</ele>
        <time>1970-01-01T02:13:58.000Z</time>
      </trkpt>
      <trkpt lat="45.98839" lon="4.53988">
        <ele>574.2</ele>
        <time>1970-01-01T02:13:59.000Z</time>
      </trkpt>
      <trkpt lat="45.98838" lon="4.53989">
        <ele>574.3</ele>
        <time>1970-01-01T02:14:00.000Z</time>
      </trkpt>
      <trkpt lat="45.98837" lon="4.53989">
        <ele>574.4</ele>
        <time>1970-01-01T02:14:01.000Z</time>
      </trkpt>
      <trkpt lat="45.98836" lon="4.5399">
        <ele>574.5</ele>
        <time>1970-01-01T02:14:02.000Z</time>
      </trkpt>
      <trkpt lat="45.98835" lon="4.5399">
        <ele>574.6</ele>
        <time>1970-01-01T02:14:03.000Z</time>
      </trkpt>
      <trkpt lat="45.98834" lon="4.53991">
        <ele>574.7</ele>
        <time>1970-01-01T02:14:04.000Z</time>
      </trkpt>
      <trkpt lat="45.98832" lon="4.53991">
        <ele>574.8</ele>
        <time>1970-01-01T02:14:05.000Z</time>
      </trkpt>
      <trkpt lat="45.98831" lon="4.53992">
        <ele>574.9</ele>
        <time>1970-01-01T02:14:06.000Z</time>
      </trkpt>
      <trkpt lat="45.9883" lon="4.53993">
        <ele>575</ele>
        <time>1970-01-01T02:14:07.000Z</time>
      </trkpt>
      <trkpt lat="45.98829" lon="4.53994">
        <ele>575.2</ele>
        <time>1970-01-01T02:14:08.000Z</time>
      </trkpt>
      <trkpt lat="45.98828" lon="4.53994">
        <ele>575.3</ele>
        <time>1970-01-01T02:14:09.000Z</time>
      </trkpt>
      <trkpt lat="45.98826" lon="4.53995">
        <ele>575.4</ele>
        <time>1970-01-01T02:14:10.000Z</time>
      </trkpt>
      <trkpt lat="45.98825" lon="4.53996">
        <ele>575.5</ele>
        <time>1970-01-01T02:14:11.000Z</time>
      </trkpt>
      <trkpt lat="45.98824" lon="4.53997">
        <ele>575.6</ele>
        <time>1970-01-01T02:14:12.000Z</time>
      </trkpt>
      <trkpt lat="45.98823" lon="4.53997">
        <ele>575.8</ele>
        <time>1970-01-01T02:14:13.000Z</time>
      </trkpt>
      <trkpt lat="45.98822" lon="4.53998">
        <ele>575.9</ele>
        <time>1970-01-01T02:14:14.000Z</time>
      </trkpt>
      <trkpt lat="45.9882" lon="4.53999">
        <ele>576</ele>
        <time>1970-01-01T02:14:15.000Z</time>
      </trkpt>
      <trkpt lat="45.98819" lon="4.54">
        <ele>576.2</ele>
        <time>1970-01-01T02:14:16.000Z</time>
      </trkpt>
      <trkpt lat="45.98818" lon="4.54">
        <ele>576.3</ele>
        <time>1970-01-01T02:14:17.000Z</time>
      </trkpt>
      <trkpt lat="45.98817" lon="4.54001">
        <ele>576.4</ele>
        <time>1970-01-01T02:14:18.000Z</time>
      </trkpt>
      <trkpt lat="45.98816" lon="4.54002">
        <ele>576.5</ele>
        <time>1970-01-01T02:14:19.000Z</time>
      </trkpt>
      <trkpt lat="45.98815" lon="4.54003">
        <ele>576.7</ele>
        <time>1970-01-01T02:14:20.000Z</time>
      </trkpt>
      <trkpt lat="45.98814" lon="4.54003">
        <ele>576.8</ele>
        <time>1970-01-01T02:14:21.000Z</time>
      </trkpt>
      <trkpt lat="45.98813" lon="4.54004">
        <ele>576.9</ele>
        <time>1970-01-01T02:14:22.000Z</time>
      </trkpt>
      <trkpt lat="45.98812" lon="4.54005">
        <ele>577</ele>
        <time>1970-01-01T02:14:23.000Z</time>
      </trkpt>
      <trkpt lat="45.98811" lon="4.54006">
        <ele>577.1</ele>
        <time>1970-01-01T02:14:24.000Z</time>
      </trkpt>
      <trkpt lat="45.9881" lon="4.54007">
        <ele>577.2</ele>
        <time>1970-01-01T02:14:25.000Z</time>
      </trkpt>
      <trkpt lat="45.98809" lon="4.54007">
        <ele>577.3</ele>
        <time>1970-01-01T02:14:26.000Z</time>
      </trkpt>
      <trkpt lat="45.98809" lon="4.54008">
        <ele>577.5</ele>
        <time>1970-01-01T02:14:27.000Z</time>
      </trkpt>
      <trkpt lat="45.98808" lon="4.54009">
        <ele>577.6</ele>
        <time>1970-01-01T02:14:28.000Z</time>
      </trkpt>
      <trkpt lat="45.98807" lon="4.5401">
        <ele>577.7</ele>
        <time>1970-01-01T02:14:29.000Z</time>
      </trkpt>
      <trkpt lat="45.98806" lon="4.5401">
        <ele>577.8</ele>
        <time>1970-01-01T02:14:30.000Z</time>
      </trkpt>
      <trkpt lat="45.98805" lon="4.54011">
        <ele>578</ele>
        <time>1970-01-01T02:14:31.000Z</time>
      </trkpt>
      <trkpt lat="45.98804" lon="4.54012">
        <ele>578.1</ele>
        <time>1970-01-01T02:14:32.000Z</time>
      </trkpt>
      <trkpt lat="45.98803" lon="4.54013">
        <ele>578.3</ele>
        <time>1970-01-01T02:14:33.000Z</time>
      </trkpt>
      <trkpt lat="45.98801" lon="4.54014">
        <ele>578.4</ele>
        <time>1970-01-01T02:14:34.000Z</time>
      </trkpt>
      <trkpt lat="45.988" lon="4.54014">
        <ele>578.6</ele>
        <time>1970-01-01T02:14:35.000Z</time>
      </trkpt>
      <trkpt lat="45.98799" lon="4.54015">
        <ele>578.7</ele>
        <time>1970-01-01T02:14:36.000Z</time>
      </trkpt>
      <trkpt lat="45.98798" lon="4.54016">
        <ele>578.8</ele>
        <time>1970-01-01T02:14:37.000Z</time>
      </trkpt>
      <trkpt lat="45.98798" lon="4.54017">
        <ele>578.9</ele>
        <time>1970-01-01T02:14:38.000Z</time>
      </trkpt>
      <trkpt lat="45.98797" lon="4.54017">
        <ele>579.1</ele>
        <time>1970-01-01T02:14:39.000Z</time>
      </trkpt>
      <trkpt lat="45.98796" lon="4.54018">
        <ele>579.2</ele>
        <time>1970-01-01T02:14:40.000Z</time>
      </trkpt>
      <trkpt lat="45.98795" lon="4.54019">
        <ele>579.3</ele>
        <time>1970-01-01T02:14:41.000Z</time>
      </trkpt>
      <trkpt lat="45.98795" lon="4.54019">
        <ele>579.4</ele>
        <time>1970-01-01T02:14:42.000Z</time>
      </trkpt>
      <trkpt lat="45.98794" lon="4.5402">
        <ele>579.5</ele>
        <time>1970-01-01T02:14:43.000Z</time>
      </trkpt>
      <trkpt lat="45.98789" lon="4.54024">
        <ele>580.2</ele>
        <time>1970-01-01T02:14:44.000Z</time>
      </trkpt>
      <trkpt lat="45.98788" lon="4.54025">
        <ele>580.3</ele>
        <time>1970-01-01T02:14:45.000Z</time>
      </trkpt>
      <trkpt lat="45.98787" lon="4.54026">
        <ele>580.4</ele>
        <time>1970-01-01T02:14:46.000Z</time>
      </trkpt>
      <trkpt lat="45.98786" lon="4.54027">
        <ele>580.6</ele>
        <time>1970-01-01T02:14:47.000Z</time>
      </trkpt>
      <trkpt lat="45.98785" lon="4.54027">
        <ele>580.7</ele>
        <time>1970-01-01T02:14:48.000Z</time>
      </trkpt>
      <trkpt lat="45.98784" lon="4.54028">
        <ele>580.8</ele>
        <time>1970-01-01T02:14:49.000Z</time>
      </trkpt>
      <trkpt lat="45.98783" lon="4.54029">
        <ele>580.9</ele>
        <time>1970-01-01T02:14:50.000Z</time>
      </trkpt>
      <trkpt lat="45.98782" lon="4.54029">
        <ele>581.1</ele>
        <time>1970-01-01T02:14:51.000Z</time>
      </trkpt>
      <trkpt lat="45.98781" lon="4.5403">
        <ele>581.2</ele>
        <time>1970-01-01T02:14:52.000Z</time>
      </trkpt>
      <trkpt lat="45.9878" lon="4.5403">
        <ele>581.3</ele>
        <time>1970-01-01T02:14:53.000Z</time>
      </trkpt>
      <trkpt lat="45.98779" lon="4.54031">
        <ele>581.4</ele>
        <time>1970-01-01T02:14:54.000Z</time>
      </trkpt>
      <trkpt lat="45.98778" lon="4.54031">
        <ele>581.5</ele>
        <time>1970-01-01T02:14:55.000Z</time>
      </trkpt>
      <trkpt lat="45.98777" lon="4.54032">
        <ele>581.6</ele>
        <time>1970-01-01T02:14:56.000Z</time>
      </trkpt>
      <trkpt lat="45.98776" lon="4.54032">
        <ele>581.7</ele>
        <time>1970-01-01T02:14:57.000Z</time>
      </trkpt>
      <trkpt lat="45.98775" lon="4.54032">
        <ele>581.8</ele>
        <time>1970-01-01T02:14:58.000Z</time>
      </trkpt>
      <trkpt lat="45.98774" lon="4.54033">
        <ele>581.9</ele>
        <time>1970-01-01T02:14:59.000Z</time>
      </trkpt>
      <trkpt lat="45.98773" lon="4.54033">
        <ele>582</ele>
        <time>1970-01-01T02:15:00.000Z</time>
      </trkpt>
      <trkpt lat="45.98772" lon="4.54033">
        <ele>582.1</ele>
        <time>1970-01-01T02:15:01.000Z</time>
      </trkpt>
      <trkpt lat="45.98771" lon="4.54034">
        <ele>582.2</ele>
        <time>1970-01-01T02:15:02.000Z</time>
      </trkpt>
      <trkpt lat="45.98771" lon="4.54034">
        <ele>582.3</ele>
        <time>1970-01-01T02:15:03.000Z</time>
      </trkpt>
      <trkpt lat="45.9877" lon="4.54034">
        <ele>582.4</ele>
        <time>1970-01-01T02:15:04.000Z</time>
      </trkpt>
      <trkpt lat="45.98769" lon="4.54034">
        <ele>582.4</ele>
        <time>1970-01-01T02:15:05.000Z</time>
      </trkpt>
      <trkpt lat="45.98769" lon="4.54034">
        <ele>582.5</ele>
        <time>1970-01-01T02:15:06.000Z</time>
      </trkpt>
      <trkpt lat="45.98768" lon="4.54034">
        <ele>582.5</ele>
        <time>1970-01-01T02:15:07.000Z</time>
      </trkpt>
      <trkpt lat="45.98767" lon="4.54034">
        <ele>582.6</ele>
        <time>1970-01-01T02:15:08.000Z</time>
      </trkpt>
      <trkpt lat="45.98767" lon="4.54034">
        <ele>582.7</ele>
        <time>1970-01-01T02:15:09.000Z</time>
      </trkpt>
      <trkpt lat="45.98766" lon="4.54034">
        <ele>582.7</ele>
        <time>1970-01-01T02:15:10.000Z</time>
      </trkpt>
      <trkpt lat="45.98759" lon="4.54033">
        <ele>583.2</ele>
        <time>1970-01-01T02:15:11.000Z</time>
      </trkpt>
      <trkpt lat="45.98758" lon="4.54032">
        <ele>583.3</ele>
        <time>1970-01-01T02:15:12.000Z</time>
      </trkpt>
      <trkpt lat="45.98757" lon="4.54032">
        <ele>583.4</ele>
        <time>1970-01-01T02:15:13.000Z</time>
      </trkpt>
      <trkpt lat="45.98756" lon="4.54031">
        <ele>583.5</ele>
        <time>1970-01-01T02:15:14.000Z</time>
      </trkpt>
      <trkpt lat="45.98755" lon="4.5403">
        <ele>583.5</ele>
        <time>1970-01-01T02:15:15.000Z</time>
      </trkpt>
      <trkpt lat="45.98754" lon="4.5403">
        <ele>583.6</ele>
        <time>1970-01-01T02:15:16.000Z</time>
      </trkpt>
      <trkpt lat="45.98753" lon="4.54029">
        <ele>583.7</ele>
        <time>1970-01-01T02:15:17.000Z</time>
      </trkpt>
      <trkpt lat="45.98751" lon="4.54029">
        <ele>583.7</ele>
        <time>1970-01-01T02:15:18.000Z</time>
      </trkpt>
      <trkpt lat="45.9875" lon="4.54029">
        <ele>583.8</ele>
        <time>1970-01-01T02:15:19.000Z</time>
      </trkpt>
      <trkpt lat="45.98749" lon="4.54028">
        <ele>583.8</ele>
        <time>1970-01-01T02:15:20.000Z</time>
      </trkpt>
      <trkpt lat="45.98748" lon="4.54028">
        <ele>583.8</ele>
        <time>1970-01-01T02:15:21.000Z</time>
      </trkpt>
      <trkpt lat="45.98746" lon="4.54028">
        <ele>583.9</ele>
        <time>1970-01-01T02:15:22.000Z</time>
      </trkpt>
      <trkpt lat="45.98745" lon="4.54028">
        <ele>583.9</ele>
        <time>1970-01-01T02:15:23.000Z</time>
      </trkpt>
      <trkpt lat="45.98744" lon="4.54028">
        <ele>584</ele>
        <time>1970-01-01T02:15:24.000Z</time>
      </trkpt>
      <trkpt lat="45.98742" lon="4.54027">
        <ele>584</ele>
        <time>1970-01-01T02:15:25.000Z</time>
      </trkpt>
      <trkpt lat="45.98742" lon="4.54027">
        <ele>584</ele>
        <time>1970-01-01T02:15:26.000Z</time>
      </trkpt>
      <trkpt lat="45.98741" lon="4.54027">
        <ele>584</ele>
        <time>1970-01-01T02:15:27.000Z</time>
      </trkpt>
      <trkpt lat="45.9874" lon="4.54026">
        <ele>584</ele>
        <time>1970-01-01T02:15:28.000Z</time>
      </trkpt>
      <trkpt lat="45.9874" lon="4.54026">
        <ele>584</ele>
        <time>1970-01-01T02:15:29.000Z</time>
      </trkpt>
      <trkpt lat="45.98739" lon="4.54025">
        <ele>584</ele>
        <time>1970-01-01T02:15:30.000Z</time>
      </trkpt>
      <trkpt lat="45.98739" lon="4.54025">
        <ele>584</ele>
        <time>1970-01-01T02:15:31.000Z</time>
      </trkpt>
      <trkpt lat="45.98738" lon="4.54025">
        <ele>584</ele>
        <time>1970-01-01T02:15:32.000Z</time>
      </trkpt>
      <trkpt lat="45.98737" lon="4.54024">
        <ele>584</ele>
        <time>1970-01-01T02:15:33.000Z</time>
      </trkpt>
      <trkpt lat="45.98737" lon="4.54024">
        <ele>584</ele>
        <time>1970-01-01T02:15:34.000Z</time>
      </trkpt>
      <trkpt lat="45.98736" lon="4.54023">
        <ele>584</ele>
        <time>1970-01-01T02:15:35.000Z</time>
      </trkpt>
      <trkpt lat="45.98735" lon="4.54023">
        <ele>584</ele>
        <time>1970-01-01T02:15:36.000Z</time>
      </trkpt>
      <trkpt lat="45.98735" lon="4.54023">
        <ele>584</ele>
        <time>1970-01-01T02:15:37.000Z</time>
      </trkpt>
      <trkpt lat="45.98734" lon="4.54022">
        <ele>584</ele>
        <time>1970-01-01T02:15:38.000Z</time>
      </trkpt>
      <trkpt lat="45.98733" lon="4.54022">
        <ele>584</ele>
        <time>1970-01-01T02:15:39.000Z</time>
      </trkpt>
      <trkpt lat="45.98731" lon="4.54022">
        <ele>584</ele>
        <time>1970-01-01T02:15:40.000Z</time>
      </trkpt>
      <trkpt lat="45.9873" lon="4.54021">
        <ele>584</ele>
        <time>1970-01-01T02:15:41.000Z</time>
      </trkpt>
      <trkpt lat="45.98728" lon="4.54021">
        <ele>584</ele>
        <time>1970-01-01T02:15:42.000Z</time>
      </trkpt>
      <trkpt lat="45.98727" lon="4.54021">
        <ele>584</ele>
        <time>1970-01-01T02:15:43.000Z</time>
      </trkpt>
      <trkpt lat="45.98726" lon="4.54021">
        <ele>584</ele>
        <time>1970-01-01T02:15:44.000Z</time>
      </trkpt>
      <trkpt lat="45.98724" lon="4.5402">
        <ele>584</ele>
        <time>1970-01-01T02:15:45.000Z</time>
      </trkpt>
      <trkpt lat="45.98723" lon="4.54019">
        <ele>583.9</ele>
        <time>1970-01-01T02:15:46.000Z</time>
      </trkpt>
      <trkpt lat="45.98722" lon="4.54018">
        <ele>583.9</ele>
        <time>1970-01-01T02:15:47.000Z</time>
      </trkpt>
      <trkpt lat="45.98721" lon="4.54018">
        <ele>583.9</ele>
        <time>1970-01-01T02:15:48.000Z</time>
      </trkpt>
      <trkpt lat="45.98719" lon="4.54017">
        <ele>583.8</ele>
        <time>1970-01-01T02:15:49.000Z</time>
      </trkpt>
      <trkpt lat="45.98718" lon="4.54016">
        <ele>583.8</ele>
        <time>1970-01-01T02:15:50.000Z</time>
      </trkpt>
      <trkpt lat="45.98717" lon="4.54015">
        <ele>583.8</ele>
        <time>1970-01-01T02:15:51.000Z</time>
      </trkpt>
      <trkpt lat="45.98715" lon="4.54014">
        <ele>583.7</ele>
        <time>1970-01-01T02:15:52.000Z</time>
      </trkpt>
      <trkpt lat="45.98714" lon="4.54013">
        <ele>583.7</ele>
        <time>1970-01-01T02:15:53.000Z</time>
      </trkpt>
      <trkpt lat="45.98712" lon="4.54012">
        <ele>583.7</ele>
        <time>1970-01-01T02:15:54.000Z</time>
      </trkpt>
      <trkpt lat="45.98711" lon="4.54011">
        <ele>583.7</ele>
        <time>1970-01-01T02:15:55.000Z</time>
      </trkpt>
      <trkpt lat="45.9871" lon="4.5401">
        <ele>583.7</ele>
        <time>1970-01-01T02:15:56.000Z</time>
      </trkpt>
      <trkpt lat="45.98708" lon="4.5401">
        <ele>583.6</ele>
        <time>1970-01-01T02:15:57.000Z</time>
      </trkpt>
      <trkpt lat="45.98707" lon="4.54009">
        <ele>583.6</ele>
        <time>1970-01-01T02:15:58.000Z</time>
      </trkpt>
      <trkpt lat="45.98705" lon="4.54008">
        <ele>583.6</ele>
        <time>1970-01-01T02:15:59.000Z</time>
      </trkpt>
      <trkpt lat="45.98704" lon="4.54007">
        <ele>583.6</ele>
        <time>1970-01-01T02:16:00.000Z</time>
      </trkpt>
      <trkpt lat="45.98702" lon="4.54007">
        <ele>583.6</ele>
        <time>1970-01-01T02:16:01.000Z</time>
      </trkpt>
      <trkpt lat="45.98701" lon="4.54006">
        <ele>583.6</ele>
        <time>1970-01-01T02:16:02.000Z</time>
      </trkpt>
      <trkpt lat="45.987" lon="4.54005">
        <ele>583.6</ele>
        <time>1970-01-01T02:16:03.000Z</time>
      </trkpt>
      <trkpt lat="45.98698" lon="4.54004">
        <ele>583.6</ele>
        <time>1970-01-01T02:16:04.000Z</time>
      </trkpt>
      <trkpt lat="45.98697" lon="4.54004">
        <ele>583.6</ele>
        <time>1970-01-01T02:16:05.000Z</time>
      </trkpt>
      <trkpt lat="45.98696" lon="4.54003">
        <ele>583.6</ele>
        <time>1970-01-01T02:16:06.000Z</time>
      </trkpt>
      <trkpt lat="45.98695" lon="4.54003">
        <ele>583.6</ele>
        <time>1970-01-01T02:16:07.000Z</time>
      </trkpt>
      <trkpt lat="45.98694" lon="4.54003">
        <ele>583.6</ele>
        <time>1970-01-01T02:16:08.000Z</time>
      </trkpt>
      <trkpt lat="45.98693" lon="4.54002">
        <ele>583.6</ele>
        <time>1970-01-01T02:16:09.000Z</time>
      </trkpt>
      <trkpt lat="45.98692" lon="4.54002">
        <ele>583.6</ele>
        <time>1970-01-01T02:16:10.000Z</time>
      </trkpt>
      <trkpt lat="45.98691" lon="4.54001">
        <ele>583.6</ele>
        <time>1970-01-01T02:16:11.000Z</time>
      </trkpt>
      <trkpt lat="45.9869" lon="4.54001">
        <ele>583.6</ele>
        <time>1970-01-01T02:16:12.000Z</time>
      </trkpt>
      <trkpt lat="45.98689" lon="4.54001">
        <ele>583.6</ele>
        <time>1970-01-01T02:16:13.000Z</time>
      </trkpt>
      <trkpt lat="45.98688" lon="4.54">
        <ele>583.6</ele>
        <time>1970-01-01T02:16:14.000Z</time>
      </trkpt>
      <trkpt lat="45.98687" lon="4.54">
        <ele>583.6</ele>
        <time>1970-01-01T02:16:15.000Z</time>
      </trkpt>
      <trkpt lat="45.98686" lon="4.54">
        <ele>583.6</ele>
        <time>1970-01-01T02:16:16.000Z</time>
      </trkpt>
      <trkpt lat="45.98684" lon="4.54">
        <ele>583.6</ele>
        <time>1970-01-01T02:16:17.000Z</time>
      </trkpt>
      <trkpt lat="45.98683" lon="4.54">
        <ele>583.6</ele>
        <time>1970-01-01T02:16:18.000Z</time>
      </trkpt>
      <trkpt lat="45.98682" lon="4.54">
        <ele>583.6</ele>
        <time>1970-01-01T02:16:19.000Z</time>
      </trkpt>
      <trkpt lat="45.98681" lon="4.54">
        <ele>583.6</ele>
        <time>1970-01-01T02:16:20.000Z</time>
      </trkpt>
      <trkpt lat="45.9868" lon="4.54">
        <ele>583.6</ele>
        <time>1970-01-01T02:16:21.000Z</time>
      </trkpt>
      <trkpt lat="45.98678" lon="4.54">
        <ele>583.7</ele>
        <time>1970-01-01T02:16:22.000Z</time>
      </trkpt>
      <trkpt lat="45.98677" lon="4.53999">
        <ele>583.7</ele>
        <time>1970-01-01T02:16:23.000Z</time>
      </trkpt>
      <trkpt lat="45.98676" lon="4.53999">
        <ele>583.7</ele>
        <time>1970-01-01T02:16:24.000Z</time>
      </trkpt>
      <trkpt lat="45.98675" lon="4.53998">
        <ele>583.7</ele>
        <time>1970-01-01T02:16:25.000Z</time>
      </trkpt>
      <trkpt lat="45.98674" lon="4.53998">
        <ele>583.7</ele>
        <time>1970-01-01T02:16:26.000Z</time>
      </trkpt>
      <trkpt lat="45.98672" lon="4.53998">
        <ele>583.8</ele>
        <time>1970-01-01T02:16:27.000Z</time>
      </trkpt>
      <trkpt lat="45.98671" lon="4.53997">
        <ele>583.8</ele>
        <time>1970-01-01T02:16:28.000Z</time>
      </trkpt>
      <trkpt lat="45.9867" lon="4.53997">
        <ele>583.8</ele>
        <time>1970-01-01T02:16:29.000Z</time>
      </trkpt>
      <trkpt lat="45.98669" lon="4.53996">
        <ele>583.9</ele>
        <time>1970-01-01T02:16:30.000Z</time>
      </trkpt>
      <trkpt lat="45.98667" lon="4.53996">
        <ele>583.9</ele>
        <time>1970-01-01T02:16:31.000Z</time>
      </trkpt>
      <trkpt lat="45.98666" lon="4.53996">
        <ele>584</ele>
        <time>1970-01-01T02:16:32.000Z</time>
      </trkpt>
      <trkpt lat="45.98664" lon="4.53996">
        <ele>584</ele>
        <time>1970-01-01T02:16:33.000Z</time>
      </trkpt>
      <trkpt lat="45.98663" lon="4.53996">
        <ele>584</ele>
        <time>1970-01-01T02:16:34.000Z</time>
      </trkpt>
      <trkpt lat="45.98661" lon="4.53996">
        <ele>584.1</ele>
        <time>1970-01-01T02:16:35.000Z</time>
      </trkpt>
      <trkpt lat="45.9866" lon="4.53995">
        <ele>584.1</ele>
        <time>1970-01-01T02:16:36.000Z</time>
      </trkpt>
      <trkpt lat="45.98659" lon="4.53996">
        <ele>584.2</ele>
        <time>1970-01-01T02:16:37.000Z</time>
      </trkpt>
      <trkpt lat="45.98658" lon="4.53996">
        <ele>584.2</ele>
        <time>1970-01-01T02:16:38.000Z</time>
      </trkpt>
      <trkpt lat="45.98657" lon="4.53996">
        <ele>584.2</ele>
        <time>1970-01-01T02:16:39.000Z</time>
      </trkpt>
      <trkpt lat="45.98656" lon="4.53996">
        <ele>584.3</ele>
        <time>1970-01-01T02:16:40.000Z</time>
      </trkpt>
      <trkpt lat="45.98655" lon="4.53996">
        <ele>584.3</ele>
        <time>1970-01-01T02:16:41.000Z</time>
      </trkpt>
      <trkpt lat="45.98654" lon="4.53997">
        <ele>584.3</ele>
        <time>1970-01-01T02:16:42.000Z</time>
      </trkpt>
      <trkpt lat="45.98653" lon="4.53997">
        <ele>584.4</ele>
        <time>1970-01-01T02:16:43.000Z</time>
      </trkpt>
      <trkpt lat="45.98652" lon="4.53997">
        <ele>584.4</ele>
        <time>1970-01-01T02:16:44.000Z</time>
      </trkpt>
      <trkpt lat="45.98651" lon="4.53997">
        <ele>584.4</ele>
        <time>1970-01-01T02:16:45.000Z</time>
      </trkpt>
      <trkpt lat="45.9865" lon="4.53997">
        <ele>584.5</ele>
        <time>1970-01-01T02:16:46.000Z</time>
      </trkpt>
      <trkpt lat="45.98649" lon="4.53998">
        <ele>584.5</ele>
        <time>1970-01-01T02:16:47.000Z</time>
      </trkpt>
      <trkpt lat="45.98648" lon="4.53998">
        <ele>584.5</ele>
        <time>1970-01-01T02:16:48.000Z</time>
      </trkpt>
      <trkpt lat="45.98647" lon="4.53998">
        <ele>584.5</ele>
        <time>1970-01-01T02:16:49.000Z</time>
      </trkpt>
      <trkpt lat="45.98646" lon="4.53998">
        <ele>584.5</ele>
        <time>1970-01-01T02:16:50.000Z</time>
      </trkpt>
      <trkpt lat="45.98645" lon="4.53998">
        <ele>584.4</ele>
        <time>1970-01-01T02:16:51.000Z</time>
      </trkpt>
      <trkpt lat="45.98644" lon="4.53999">
        <ele>584.3</ele>
        <time>1970-01-01T02:16:52.000Z</time>
      </trkpt>
      <trkpt lat="45.98644" lon="4.53999">
        <ele>584.2</ele>
        <time>1970-01-01T02:16:53.000Z</time>
      </trkpt>
      <trkpt lat="45.98643" lon="4.53999">
        <ele>584.1</ele>
        <time>1970-01-01T02:16:54.000Z</time>
      </trkpt>
      <trkpt lat="45.98642" lon="4.53999">
        <ele>583.9</ele>
        <time>1970-01-01T02:16:55.000Z</time>
      </trkpt>
      <trkpt lat="45.98641" lon="4.53999">
        <ele>583.8</ele>
        <time>1970-01-01T02:16:56.000Z</time>
      </trkpt>
      <trkpt lat="45.9864" lon="4.53999">
        <ele>583.7</ele>
        <time>1970-01-01T02:16:57.000Z</time>
      </trkpt>
      <trkpt lat="45.9864" lon="4.53999">
        <ele>583.7</ele>
        <time>1970-01-01T02:16:58.000Z</time>
      </trkpt>
      <trkpt lat="45.98639" lon="4.53999">
        <ele>583.6</ele>
        <time>1970-01-01T02:16:59.000Z</time>
      </trkpt>
      <trkpt lat="45.98638" lon="4.53999">
        <ele>583.5</ele>
        <time>1970-01-01T02:17:00.000Z</time>
      </trkpt>
      <trkpt lat="45.98638" lon="4.53998">
        <ele>583.4</ele>
        <time>1970-01-01T02:17:01.000Z</time>
      </trkpt>
      <trkpt lat="45.98637" lon="4.53998">
        <ele>583.3</ele>
        <time>1970-01-01T02:17:02.000Z</time>
      </trkpt>
      <trkpt lat="45.98637" lon="4.53998">
        <ele>583.2</ele>
        <time>1970-01-01T02:17:03.000Z</time>
      </trkpt>
      <trkpt lat="45.98636" lon="4.53998">
        <ele>583.2</ele>
        <time>1970-01-01T02:17:04.000Z</time>
      </trkpt>
      <trkpt lat="45.98629" lon="4.53997">
        <ele>582.2</ele>
        <time>1970-01-01T02:17:05.000Z</time>
      </trkpt>
      <trkpt lat="45.98627" lon="4.53996">
        <ele>582</ele>
        <time>1970-01-01T02:17:06.000Z</time>
      </trkpt>
      <trkpt lat="45.98625" lon="4.53996">
        <ele>581.7</ele>
        <time>1970-01-01T02:17:07.000Z</time>
      </trkpt>
      <trkpt lat="45.98623" lon="4.53996">
        <ele>581.5</ele>
        <time>1970-01-01T02:17:08.000Z</time>
      </trkpt>
      <trkpt lat="45.98622" lon="4.53996">
        <ele>581.3</ele>
        <time>1970-01-01T02:17:09.000Z</time>
      </trkpt>
      <trkpt lat="45.98619" lon="4.53996">
        <ele>581</ele>
        <time>1970-01-01T02:17:10.000Z</time>
      </trkpt>
      <trkpt lat="45.98617" lon="4.53996">
        <ele>580.8</ele>
        <time>1970-01-01T02:17:11.000Z</time>
      </trkpt>
      <trkpt lat="45.98615" lon="4.53996">
        <ele>580.6</ele>
        <time>1970-01-01T02:17:12.000Z</time>
      </trkpt>
      <trkpt lat="45.98612" lon="4.53996">
        <ele>580.4</ele>
        <time>1970-01-01T02:17:13.000Z</time>
      </trkpt>
      <trkpt lat="45.9861" lon="4.53994">
        <ele>580.2</ele>
        <time>1970-01-01T02:17:14.000Z</time>
      </trkpt>
      <trkpt lat="45.98608" lon="4.53993">
        <ele>580.1</ele>
        <time>1970-01-01T02:17:16.000Z</time>
      </trkpt>
      <trkpt lat="45.98606" lon="4.53992">
        <ele>580</ele>
        <time>1970-01-01T02:17:17.000Z</time>
      </trkpt>
      <trkpt lat="45.98604" lon="4.5399">
        <ele>579.9</ele>
        <time>1970-01-01T02:17:18.000Z</time>
      </trkpt>
      <trkpt lat="45.98603" lon="4.53989">
        <ele>579.8</ele>
        <time>1970-01-01T02:17:19.000Z</time>
      </trkpt>
      <trkpt lat="45.98601" lon="4.53987">
        <ele>579.8</ele>
        <time>1970-01-01T02:17:20.000Z</time>
      </trkpt>
      <trkpt lat="45.986" lon="4.53986">
        <ele>579.7</ele>
        <time>1970-01-01T02:17:21.000Z</time>
      </trkpt>
      <trkpt lat="45.98599" lon="4.53984">
        <ele>579.7</ele>
        <time>1970-01-01T02:17:22.000Z</time>
      </trkpt>
      <trkpt lat="45.98598" lon="4.53983">
        <ele>579.6</ele>
        <time>1970-01-01T02:17:23.000Z</time>
      </trkpt>
      <trkpt lat="45.98597" lon="4.53981">
        <ele>579.6</ele>
        <time>1970-01-01T02:17:24.000Z</time>
      </trkpt>
      <trkpt lat="45.98596" lon="4.5398">
        <ele>579.6</ele>
        <time>1970-01-01T02:17:25.000Z</time>
      </trkpt>
      <trkpt lat="45.98596" lon="4.53978">
        <ele>579.6</ele>
        <time>1970-01-01T02:17:26.000Z</time>
      </trkpt>
      <trkpt lat="45.98595" lon="4.53977">
        <ele>579.5</ele>
        <time>1970-01-01T02:17:27.000Z</time>
      </trkpt>
      <trkpt lat="45.98595" lon="4.53976">
        <ele>579.5</ele>
        <time>1970-01-01T02:17:28.000Z</time>
      </trkpt>
      <trkpt lat="45.98594" lon="4.53974">
        <ele>579.5</ele>
        <time>1970-01-01T02:17:29.000Z</time>
      </trkpt>
      <trkpt lat="45.98593" lon="4.53973">
        <ele>579.5</ele>
        <time>1970-01-01T02:17:30.000Z</time>
      </trkpt>
      <trkpt lat="45.98593" lon="4.53971">
        <ele>579.4</ele>
        <time>1970-01-01T02:17:31.000Z</time>
      </trkpt>
      <trkpt lat="45.98592" lon="4.5397">
        <ele>579.4</ele>
        <time>1970-01-01T02:17:32.000Z</time>
      </trkpt>
      <trkpt lat="45.98591" lon="4.53969">
        <ele>579.4</ele>
        <time>1970-01-01T02:17:33.000Z</time>
      </trkpt>
      <trkpt lat="45.98591" lon="4.53967">
        <ele>579.3</ele>
        <time>1970-01-01T02:17:34.000Z</time>
      </trkpt>
      <trkpt lat="45.9859" lon="4.53966">
        <ele>579.3</ele>
        <time>1970-01-01T02:17:35.000Z</time>
      </trkpt>
      <trkpt lat="45.98589" lon="4.53964">
        <ele>579.2</ele>
        <time>1970-01-01T02:17:36.000Z</time>
      </trkpt>
      <trkpt lat="45.98589" lon="4.53963">
        <ele>579.2</ele>
        <time>1970-01-01T02:17:37.000Z</time>
      </trkpt>
      <trkpt lat="45.98588" lon="4.53962">
        <ele>579.2</ele>
        <time>1970-01-01T02:17:38.000Z</time>
      </trkpt>
      <trkpt lat="45.98587" lon="4.5396">
        <ele>579.1</ele>
        <time>1970-01-01T02:17:39.000Z</time>
      </trkpt>
      <trkpt lat="45.98587" lon="4.53959">
        <ele>579</ele>
        <time>1970-01-01T02:17:40.000Z</time>
      </trkpt>
      <trkpt lat="45.98586" lon="4.53958">
        <ele>579</ele>
        <time>1970-01-01T02:17:41.000Z</time>
      </trkpt>
      <trkpt lat="45.98585" lon="4.53957">
        <ele>578.9</ele>
        <time>1970-01-01T02:17:42.000Z</time>
      </trkpt>
      <trkpt lat="45.98584" lon="4.53955">
        <ele>578.9</ele>
        <time>1970-01-01T02:17:43.000Z</time>
      </trkpt>
      <trkpt lat="45.98584" lon="4.53954">
        <ele>578.8</ele>
        <time>1970-01-01T02:17:44.000Z</time>
      </trkpt>
      <trkpt lat="45.98583" lon="4.53953">
        <ele>578.7</ele>
        <time>1970-01-01T02:17:45.000Z</time>
      </trkpt>
      <trkpt lat="45.98582" lon="4.53952">
        <ele>578.7</ele>
        <time>1970-01-01T02:17:46.000Z</time>
      </trkpt>
      <trkpt lat="45.98581" lon="4.5395">
        <ele>578.6</ele>
        <time>1970-01-01T02:17:47.000Z</time>
      </trkpt>
      <trkpt lat="45.98581" lon="4.53949">
        <ele>578.5</ele>
        <time>1970-01-01T02:17:48.000Z</time>
      </trkpt>
      <trkpt lat="45.9858" lon="4.53948">
        <ele>578.5</ele>
        <time>1970-01-01T02:17:49.000Z</time>
      </trkpt>
      <trkpt lat="45.98579" lon="4.53946">
        <ele>578.4</ele>
        <time>1970-01-01T02:17:50.000Z</time>
      </trkpt>
      <trkpt lat="45.98578" lon="4.53945">
        <ele>578.3</ele>
        <time>1970-01-01T02:17:51.000Z</time>
      </trkpt>
      <trkpt lat="45.98576" lon="4.53943">
        <ele>578.2</ele>
        <time>1970-01-01T02:17:52.000Z</time>
      </trkpt>
      <trkpt lat="45.98575" lon="4.53942">
        <ele>578.1</ele>
        <time>1970-01-01T02:17:53.000Z</time>
      </trkpt>
      <trkpt lat="45.98574" lon="4.5394">
        <ele>578</ele>
        <time>1970-01-01T02:17:54.000Z</time>
      </trkpt>
      <trkpt lat="45.98573" lon="4.53939">
        <ele>577.9</ele>
        <time>1970-01-01T02:17:55.000Z</time>
      </trkpt>
      <trkpt lat="45.98572" lon="4.53938">
        <ele>577.8</ele>
        <time>1970-01-01T02:17:56.000Z</time>
      </trkpt>
      <trkpt lat="45.98571" lon="4.53937">
        <ele>577.7</ele>
        <time>1970-01-01T02:17:57.000Z</time>
      </trkpt>
      <trkpt lat="45.9857" lon="4.53936">
        <ele>577.7</ele>
        <time>1970-01-01T02:17:58.000Z</time>
      </trkpt>
      <trkpt lat="45.98569" lon="4.53935">
        <ele>577.6</ele>
        <time>1970-01-01T02:17:59.000Z</time>
      </trkpt>
      <trkpt lat="45.98568" lon="4.53934">
        <ele>577.5</ele>
        <time>1970-01-01T02:18:00.000Z</time>
      </trkpt>
      <trkpt lat="45.98567" lon="4.53933">
        <ele>577.4</ele>
        <time>1970-01-01T02:18:01.000Z</time>
      </trkpt>
      <trkpt lat="45.98566" lon="4.53932">
        <ele>577.4</ele>
        <time>1970-01-01T02:18:02.000Z</time>
      </trkpt>
      <trkpt lat="45.98565" lon="4.53931">
        <ele>577.3</ele>
        <time>1970-01-01T02:18:03.000Z</time>
      </trkpt>
      <trkpt lat="45.98564" lon="4.53929">
        <ele>577.2</ele>
        <time>1970-01-01T02:18:04.000Z</time>
      </trkpt>
      <trkpt lat="45.98563" lon="4.53928">
        <ele>577.1</ele>
        <time>1970-01-01T02:18:05.000Z</time>
      </trkpt>
      <trkpt lat="45.98562" lon="4.53927">
        <ele>577</ele>
        <time>1970-01-01T02:18:06.000Z</time>
      </trkpt>
      <trkpt lat="45.98561" lon="4.53926">
        <ele>576.9</ele>
        <time>1970-01-01T02:18:07.000Z</time>
      </trkpt>
      <trkpt lat="45.9856" lon="4.53924">
        <ele>576.8</ele>
        <time>1970-01-01T02:18:08.000Z</time>
      </trkpt>
      <trkpt lat="45.98559" lon="4.53923">
        <ele>576.7</ele>
        <time>1970-01-01T02:18:09.000Z</time>
      </trkpt>
      <trkpt lat="45.98558" lon="4.53922">
        <ele>576.7</ele>
        <time>1970-01-01T02:18:10.000Z</time>
      </trkpt>
      <trkpt lat="45.98556" lon="4.53921">
        <ele>576.6</ele>
        <time>1970-01-01T02:18:11.000Z</time>
      </trkpt>
      <trkpt lat="45.98555" lon="4.5392">
        <ele>576.5</ele>
        <time>1970-01-01T02:18:12.000Z</time>
      </trkpt>
      <trkpt lat="45.98554" lon="4.5392">
        <ele>576.4</ele>
        <time>1970-01-01T02:18:13.000Z</time>
      </trkpt>
      <trkpt lat="45.98552" lon="4.53919">
        <ele>576.3</ele>
        <time>1970-01-01T02:18:14.000Z</time>
      </trkpt>
      <trkpt lat="45.98551" lon="4.53918">
        <ele>576.2</ele>
        <time>1970-01-01T02:18:15.000Z</time>
      </trkpt>
      <trkpt lat="45.9855" lon="4.53917">
        <ele>576.1</ele>
        <time>1970-01-01T02:18:16.000Z</time>
      </trkpt>
      <trkpt lat="45.98548" lon="4.53916">
        <ele>576</ele>
        <time>1970-01-01T02:18:17.000Z</time>
      </trkpt>
      <trkpt lat="45.98547" lon="4.53915">
        <ele>575.9</ele>
        <time>1970-01-01T02:18:18.000Z</time>
      </trkpt>
      <trkpt lat="45.98546" lon="4.53914">
        <ele>575.9</ele>
        <time>1970-01-01T02:18:19.000Z</time>
      </trkpt>
      <trkpt lat="45.98545" lon="4.53913">
        <ele>575.8</ele>
        <time>1970-01-01T02:18:20.000Z</time>
      </trkpt>
      <trkpt lat="45.98544" lon="4.53912">
        <ele>575.7</ele>
        <time>1970-01-01T02:18:21.000Z</time>
      </trkpt>
      <trkpt lat="45.98543" lon="4.53911">
        <ele>575.6</ele>
        <time>1970-01-01T02:18:22.000Z</time>
      </trkpt>
      <trkpt lat="45.98542" lon="4.5391">
        <ele>575.5</ele>
        <time>1970-01-01T02:18:23.000Z</time>
      </trkpt>
      <trkpt lat="45.98541" lon="4.53909">
        <ele>575.4</ele>
        <time>1970-01-01T02:18:24.000Z</time>
      </trkpt>
      <trkpt lat="45.9854" lon="4.53908">
        <ele>575.3</ele>
        <time>1970-01-01T02:18:25.000Z</time>
      </trkpt>
      <trkpt lat="45.98539" lon="4.53907">
        <ele>575.2</ele>
        <time>1970-01-01T02:18:26.000Z</time>
      </trkpt>
      <trkpt lat="45.98537" lon="4.53906">
        <ele>575.1</ele>
        <time>1970-01-01T02:18:27.000Z</time>
      </trkpt>
      <trkpt lat="45.98536" lon="4.53905">
        <ele>575</ele>
        <time>1970-01-01T02:18:28.000Z</time>
      </trkpt>
      <trkpt lat="45.98535" lon="4.53904">
        <ele>574.9</ele>
        <time>1970-01-01T02:18:29.000Z</time>
      </trkpt>
      <trkpt lat="45.98534" lon="4.53903">
        <ele>574.8</ele>
        <time>1970-01-01T02:18:30.000Z</time>
      </trkpt>
      <trkpt lat="45.98532" lon="4.53903">
        <ele>574.7</ele>
        <time>1970-01-01T02:18:31.000Z</time>
      </trkpt>
      <trkpt lat="45.98531" lon="4.53902">
        <ele>574.6</ele>
        <time>1970-01-01T02:18:32.000Z</time>
      </trkpt>
      <trkpt lat="45.9853" lon="4.53901">
        <ele>574.5</ele>
        <time>1970-01-01T02:18:33.000Z</time>
      </trkpt>
      <trkpt lat="45.98529" lon="4.539">
        <ele>574.4</ele>
        <time>1970-01-01T02:18:34.000Z</time>
      </trkpt>
      <trkpt lat="45.98528" lon="4.53899">
        <ele>574.4</ele>
        <time>1970-01-01T02:18:35.000Z</time>
      </trkpt>
      <trkpt lat="45.98527" lon="4.53898">
        <ele>574.3</ele>
        <time>1970-01-01T02:18:36.000Z</time>
      </trkpt>
      <trkpt lat="45.98525" lon="4.53898">
        <ele>574.2</ele>
        <time>1970-01-01T02:18:37.000Z</time>
      </trkpt>
      <trkpt lat="45.98524" lon="4.53897">
        <ele>574.1</ele>
        <time>1970-01-01T02:18:38.000Z</time>
      </trkpt>
      <trkpt lat="45.98523" lon="4.53895">
        <ele>574</ele>
        <time>1970-01-01T02:18:39.000Z</time>
      </trkpt>
      <trkpt lat="45.98523" lon="4.53894">
        <ele>573.9</ele>
        <time>1970-01-01T02:18:40.000Z</time>
      </trkpt>
      <trkpt lat="45.98522" lon="4.53892">
        <ele>573.8</ele>
        <time>1970-01-01T02:18:41.000Z</time>
      </trkpt>
      <trkpt lat="45.98521" lon="4.5389">
        <ele>573.7</ele>
        <time>1970-01-01T02:18:42.000Z</time>
      </trkpt>
      <trkpt lat="45.98521" lon="4.53889">
        <ele>573.6</ele>
        <time>1970-01-01T02:18:43.000Z</time>
      </trkpt>
      <trkpt lat="45.9852" lon="4.53887">
        <ele>573.5</ele>
        <time>1970-01-01T02:18:44.000Z</time>
      </trkpt>
      <trkpt lat="45.9852" lon="4.53887">
        <ele>573.5</ele>
        <time>1970-01-01T02:18:45.000Z</time>
      </trkpt>
      <trkpt lat="45.98519" lon="4.53883">
        <ele>573.2</ele>
        <time>1970-01-01T02:18:46.000Z</time>
      </trkpt>
      <trkpt lat="45.98519" lon="4.53883">
        <ele>573.2</ele>
        <time>1970-01-01T02:18:47.000Z</time>
      </trkpt>
      <trkpt lat="45.98517" lon="4.5388">
        <ele>573</ele>
        <time>1970-01-01T02:18:48.000Z</time>
      </trkpt>
      <trkpt lat="45.98517" lon="4.5388">
        <ele>573</ele>
        <time>1970-01-01T02:18:49.000Z</time>
      </trkpt>
      <trkpt lat="45.98517" lon="4.53878">
        <ele>572.9</ele>
        <time>1970-01-01T02:18:50.000Z</time>
      </trkpt>
      <trkpt lat="45.98517" lon="4.53878">
        <ele>572.9</ele>
        <time>1970-01-01T02:18:51.000Z</time>
      </trkpt>
      <trkpt lat="45.98515" lon="4.53875">
        <ele>572.7</ele>
        <time>1970-01-01T02:18:52.000Z</time>
      </trkpt>
      <trkpt lat="45.98515" lon="4.53874">
        <ele>572.6</ele>
        <time>1970-01-01T02:18:53.000Z</time>
      </trkpt>
      <trkpt lat="45.98514" lon="4.53872">
        <ele>572.5</ele>
        <time>1970-01-01T02:18:54.000Z</time>
      </trkpt>
      <trkpt lat="45.98513" lon="4.5387">
        <ele>572.4</ele>
        <time>1970-01-01T02:18:55.000Z</time>
      </trkpt>
      <trkpt lat="45.98513" lon="4.53869">
        <ele>572.3</ele>
        <time>1970-01-01T02:18:56.000Z</time>
      </trkpt>
      <trkpt lat="45.98512" lon="4.53867">
        <ele>572.2</ele>
        <time>1970-01-01T02:18:57.000Z</time>
      </trkpt>
      <trkpt lat="45.98511" lon="4.53866">
        <ele>572.1</ele>
        <time>1970-01-01T02:18:58.000Z</time>
      </trkpt>
      <trkpt lat="45.98511" lon="4.53865">
        <ele>572</ele>
        <time>1970-01-01T02:18:59.000Z</time>
      </trkpt>
      <trkpt lat="45.9851" lon="4.53864">
        <ele>571.9</ele>
        <time>1970-01-01T02:19:00.000Z</time>
      </trkpt>
      <trkpt lat="45.98509" lon="4.53863">
        <ele>571.9</ele>
        <time>1970-01-01T02:19:01.000Z</time>
      </trkpt>
      <trkpt lat="45.98508" lon="4.53861">
        <ele>571.8</ele>
        <time>1970-01-01T02:19:02.000Z</time>
      </trkpt>
      <trkpt lat="45.98507" lon="4.5386">
        <ele>571.7</ele>
        <time>1970-01-01T02:19:03.000Z</time>
      </trkpt>
      <trkpt lat="45.98506" lon="4.53859">
        <ele>571.6</ele>
        <time>1970-01-01T02:19:04.000Z</time>
      </trkpt>
      <trkpt lat="45.98505" lon="4.53858">
        <ele>571.5</ele>
        <time>1970-01-01T02:19:05.000Z</time>
      </trkpt>
      <trkpt lat="45.98504" lon="4.53857">
        <ele>571.4</ele>
        <time>1970-01-01T02:19:06.000Z</time>
      </trkpt>
      <trkpt lat="45.98503" lon="4.53856">
        <ele>571.3</ele>
        <time>1970-01-01T02:19:07.000Z</time>
      </trkpt>
      <trkpt lat="45.98502" lon="4.53854">
        <ele>571.2</ele>
        <time>1970-01-01T02:19:08.000Z</time>
      </trkpt>
      <trkpt lat="45.98501" lon="4.53853">
        <ele>571.1</ele>
        <time>1970-01-01T02:19:09.000Z</time>
      </trkpt>
      <trkpt lat="45.985" lon="4.53851">
        <ele>571</ele>
        <time>1970-01-01T02:19:10.000Z</time>
      </trkpt>
      <trkpt lat="45.98499" lon="4.5385">
        <ele>571</ele>
        <time>1970-01-01T02:19:11.000Z</time>
      </trkpt>
      <trkpt lat="45.98497" lon="4.53849">
        <ele>570.9</ele>
        <time>1970-01-01T02:19:12.000Z</time>
      </trkpt>
      <trkpt lat="45.98497" lon="4.53847">
        <ele>570.8</ele>
        <time>1970-01-01T02:19:13.000Z</time>
      </trkpt>
      <trkpt lat="45.98496" lon="4.53845">
        <ele>570.7</ele>
        <time>1970-01-01T02:19:14.000Z</time>
      </trkpt>
      <trkpt lat="45.98495" lon="4.53843">
        <ele>570.6</ele>
        <time>1970-01-01T02:19:15.000Z</time>
      </trkpt>
      <trkpt lat="45.98494" lon="4.53841">
        <ele>570.5</ele>
        <time>1970-01-01T02:19:16.000Z</time>
      </trkpt>
      <trkpt lat="45.98493" lon="4.53839">
        <ele>570.4</ele>
        <time>1970-01-01T02:19:17.000Z</time>
      </trkpt>
      <trkpt lat="45.98493" lon="4.53837">
        <ele>570.3</ele>
        <time>1970-01-01T02:19:18.000Z</time>
      </trkpt>
      <trkpt lat="45.98492" lon="4.53836">
        <ele>570.3</ele>
        <time>1970-01-01T02:19:19.000Z</time>
      </trkpt>
      <trkpt lat="45.98492" lon="4.53835">
        <ele>570.3</ele>
        <time>1970-01-01T02:19:20.000Z</time>
      </trkpt>
      <trkpt lat="45.98492" lon="4.53834">
        <ele>570.2</ele>
        <time>1970-01-01T02:19:21.000Z</time>
      </trkpt>
      <trkpt lat="45.98491" lon="4.53834">
        <ele>570.2</ele>
        <time>1970-01-01T02:19:22.000Z</time>
      </trkpt>
      <trkpt lat="45.98491" lon="4.53833">
        <ele>570.2</ele>
        <time>1970-01-01T02:19:23.000Z</time>
      </trkpt>
      <trkpt lat="45.98491" lon="4.53832">
        <ele>570.1</ele>
        <time>1970-01-01T02:19:24.000Z</time>
      </trkpt>
      <trkpt lat="45.9849" lon="4.53831">
        <ele>570.1</ele>
        <time>1970-01-01T02:19:25.000Z</time>
      </trkpt>
      <trkpt lat="45.98487" lon="4.53822">
        <ele>569.8</ele>
        <time>1970-01-01T02:19:26.000Z</time>
      </trkpt>
      <trkpt lat="45.98486" lon="4.5382">
        <ele>569.8</ele>
        <time>1970-01-01T02:19:27.000Z</time>
      </trkpt>
      <trkpt lat="45.98485" lon="4.53818">
        <ele>569.7</ele>
        <time>1970-01-01T02:19:28.000Z</time>
      </trkpt>
      <trkpt lat="45.98484" lon="4.53817">
        <ele>569.6</ele>
        <time>1970-01-01T02:19:29.000Z</time>
      </trkpt>
      <trkpt lat="45.98483" lon="4.53815">
        <ele>569.6</ele>
        <time>1970-01-01T02:19:30.000Z</time>
      </trkpt>
      <trkpt lat="45.98482" lon="4.53813">
        <ele>569.5</ele>
        <time>1970-01-01T02:19:31.000Z</time>
      </trkpt>
      <trkpt lat="45.98481" lon="4.53811">
        <ele>569.5</ele>
        <time>1970-01-01T02:19:32.000Z</time>
      </trkpt>
      <trkpt lat="45.9848" lon="4.5381">
        <ele>569.4</ele>
        <time>1970-01-01T02:19:33.000Z</time>
      </trkpt>
      <trkpt lat="45.98479" lon="4.53808">
        <ele>569.4</ele>
        <time>1970-01-01T02:19:34.000Z</time>
      </trkpt>
      <trkpt lat="45.98479" lon="4.53806">
        <ele>569.4</ele>
        <time>1970-01-01T02:19:35.000Z</time>
      </trkpt>
      <trkpt lat="45.98478" lon="4.53805">
        <ele>569.3</ele>
        <time>1970-01-01T02:19:36.000Z</time>
      </trkpt>
      <trkpt lat="45.98478" lon="4.53805">
        <ele>569.3</ele>
        <time>1970-01-01T02:19:37.000Z</time>
      </trkpt>
      <trkpt lat="45.98477" lon="4.53802">
        <ele>569.3</ele>
        <time>1970-01-01T02:19:38.000Z</time>
      </trkpt>
      <trkpt lat="45.98477" lon="4.53802">
        <ele>569.3</ele>
        <time>1970-01-01T02:19:39.000Z</time>
      </trkpt>
      <trkpt lat="45.98474" lon="4.53801">
        <ele>569.2</ele>
        <time>1970-01-01T02:19:40.000Z</time>
      </trkpt>
      <trkpt lat="45.98474" lon="4.53801">
        <ele>569.2</ele>
        <time>1970-01-01T02:19:41.000Z</time>
      </trkpt>
      <trkpt lat="45.98473" lon="4.53798">
        <ele>569.1</ele>
        <time>1970-01-01T02:19:42.000Z</time>
      </trkpt>
      <trkpt lat="45.98473" lon="4.53798">
        <ele>569.1</ele>
        <time>1970-01-01T02:19:43.000Z</time>
      </trkpt>
      <trkpt lat="45.98471" lon="4.53796">
        <ele>569.1</ele>
        <time>1970-01-01T02:19:44.000Z</time>
      </trkpt>
      <trkpt lat="45.98471" lon="4.53796">
        <ele>569.1</ele>
        <time>1970-01-01T02:19:45.000Z</time>
      </trkpt>
      <trkpt lat="45.98469" lon="4.53793">
        <ele>569</ele>
        <time>1970-01-01T02:19:46.000Z</time>
      </trkpt>
      <trkpt lat="45.98469" lon="4.53793">
        <ele>569</ele>
        <time>1970-01-01T02:19:47.000Z</time>
      </trkpt>
      <trkpt lat="45.98467" lon="4.5379">
        <ele>569</ele>
        <time>1970-01-01T02:19:48.000Z</time>
      </trkpt>
      <trkpt lat="45.98467" lon="4.5379">
        <ele>569</ele>
        <time>1970-01-01T02:19:49.000Z</time>
      </trkpt>
      <trkpt lat="45.98465" lon="4.53786">
        <ele>568.9</ele>
        <time>1970-01-01T02:19:50.000Z</time>
      </trkpt>
      <trkpt lat="45.98465" lon="4.53786">
        <ele>568.9</ele>
        <time>1970-01-01T02:19:51.000Z</time>
      </trkpt>
      <trkpt lat="45.98463" lon="4.53784">
        <ele>568.9</ele>
        <time>1970-01-01T02:19:52.000Z</time>
      </trkpt>
      <trkpt lat="45.98463" lon="4.53784">
        <ele>568.9</ele>
        <time>1970-01-01T02:19:53.000Z</time>
      </trkpt>
      <trkpt lat="45.98462" lon="4.53781">
        <ele>568.8</ele>
        <time>1970-01-01T02:19:54.000Z</time>
      </trkpt>
      <trkpt lat="45.98462" lon="4.53781">
        <ele>568.8</ele>
        <time>1970-01-01T02:19:55.000Z</time>
      </trkpt>
      <trkpt lat="45.98461" lon="4.53778">
        <ele>568.7</ele>
        <time>1970-01-01T02:19:56.000Z</time>
      </trkpt>
      <trkpt lat="45.98461" lon="4.53778">
        <ele>568.7</ele>
        <time>1970-01-01T02:19:57.000Z</time>
      </trkpt>
      <trkpt lat="45.98459" lon="4.53775">
        <ele>568.7</ele>
        <time>1970-01-01T02:19:58.000Z</time>
      </trkpt>
      <trkpt lat="45.98459" lon="4.53775">
        <ele>568.7</ele>
        <time>1970-01-01T02:19:59.000Z</time>
      </trkpt>
      <trkpt lat="45.98458" lon="4.53773">
        <ele>568.6</ele>
        <time>1970-01-01T02:20:00.000Z</time>
      </trkpt>
      <trkpt lat="45.98458" lon="4.53773">
        <ele>568.6</ele>
        <time>1970-01-01T02:20:01.000Z</time>
      </trkpt>
      <trkpt lat="45.98456" lon="4.53771">
        <ele>568.5</ele>
        <time>1970-01-01T02:20:02.000Z</time>
      </trkpt>
      <trkpt lat="45.98456" lon="4.53771">
        <ele>568.5</ele>
        <time>1970-01-01T02:20:03.000Z</time>
      </trkpt>
      <trkpt lat="45.98455" lon="4.53769">
        <ele>568.4</ele>
        <time>1970-01-01T02:20:04.000Z</time>
      </trkpt>
      <trkpt lat="45.98455" lon="4.53769">
        <ele>568.4</ele>
        <time>1970-01-01T02:20:05.000Z</time>
      </trkpt>
      <trkpt lat="45.98453" lon="4.53767">
        <ele>568.2</ele>
        <time>1970-01-01T02:20:06.000Z</time>
      </trkpt>
      <trkpt lat="45.98453" lon="4.53767">
        <ele>568.2</ele>
        <time>1970-01-01T02:20:07.000Z</time>
      </trkpt>
      <trkpt lat="45.98451" lon="4.53765">
        <ele>568.1</ele>
        <time>1970-01-01T02:20:08.000Z</time>
      </trkpt>
      <trkpt lat="45.98451" lon="4.53765">
        <ele>568.1</ele>
        <time>1970-01-01T02:20:09.000Z</time>
      </trkpt>
      <trkpt lat="45.98448" lon="4.53763">
        <ele>567.8</ele>
        <time>1970-01-01T02:20:10.000Z</time>
      </trkpt>
      <trkpt lat="45.98448" lon="4.53763">
        <ele>567.8</ele>
        <time>1970-01-01T02:20:11.000Z</time>
      </trkpt>
      <trkpt lat="45.98446" lon="4.53761">
        <ele>567.5</ele>
        <time>1970-01-01T02:20:12.000Z</time>
      </trkpt>
      <trkpt lat="45.98446" lon="4.53761">
        <ele>567.5</ele>
        <time>1970-01-01T02:20:13.000Z</time>
      </trkpt>
      <trkpt lat="45.98444" lon="4.5376">
        <ele>567.3</ele>
        <time>1970-01-01T02:20:14.000Z</time>
      </trkpt>
      <trkpt lat="45.98444" lon="4.5376">
        <ele>567.3</ele>
        <time>1970-01-01T02:20:15.000Z</time>
      </trkpt>
      <trkpt lat="45.98442" lon="4.53758">
        <ele>567</ele>
        <time>1970-01-01T02:20:16.000Z</time>
      </trkpt>
      <trkpt lat="45.98442" lon="4.53758">
        <ele>567</ele>
        <time>1970-01-01T02:20:17.000Z</time>
      </trkpt>
      <trkpt lat="45.9844" lon="4.53756">
        <ele>566.7</ele>
        <time>1970-01-01T02:20:18.000Z</time>
      </trkpt>
      <trkpt lat="45.9844" lon="4.53756">
        <ele>566.7</ele>
        <time>1970-01-01T02:20:19.000Z</time>
      </trkpt>
      <trkpt lat="45.98438" lon="4.53755">
        <ele>566.4</ele>
        <time>1970-01-01T02:20:20.000Z</time>
      </trkpt>
      <trkpt lat="45.98438" lon="4.53755">
        <ele>566.4</ele>
        <time>1970-01-01T02:20:21.000Z</time>
      </trkpt>
      <trkpt lat="45.98435" lon="4.53754">
        <ele>566</ele>
        <time>1970-01-01T02:20:22.000Z</time>
      </trkpt>
      <trkpt lat="45.98435" lon="4.53754">
        <ele>566</ele>
        <time>1970-01-01T02:20:23.000Z</time>
      </trkpt>
      <trkpt lat="45.98433" lon="4.53752">
        <ele>565.7</ele>
        <time>1970-01-01T02:20:24.000Z</time>
      </trkpt>
      <trkpt lat="45.98433" lon="4.53752">
        <ele>565.7</ele>
        <time>1970-01-01T02:20:25.000Z</time>
      </trkpt>
      <trkpt lat="45.98431" lon="4.53751">
        <ele>565.4</ele>
        <time>1970-01-01T02:20:26.000Z</time>
      </trkpt>
      <trkpt lat="45.98431" lon="4.53751">
        <ele>565.4</ele>
        <time>1970-01-01T02:20:27.000Z</time>
      </trkpt>
      <trkpt lat="45.98429" lon="4.53749">
        <ele>565</ele>
        <time>1970-01-01T02:20:28.000Z</time>
      </trkpt>
      <trkpt lat="45.98429" lon="4.53749">
        <ele>565</ele>
        <time>1970-01-01T02:20:29.000Z</time>
      </trkpt>
      <trkpt lat="45.98427" lon="4.53748">
        <ele>564.7</ele>
        <time>1970-01-01T02:20:30.000Z</time>
      </trkpt>
      <trkpt lat="45.98427" lon="4.53748">
        <ele>564.7</ele>
        <time>1970-01-01T02:20:31.000Z</time>
      </trkpt>
      <trkpt lat="45.98424" lon="4.53747">
        <ele>564.3</ele>
        <time>1970-01-01T02:20:32.000Z</time>
      </trkpt>
      <trkpt lat="45.98424" lon="4.53747">
        <ele>564.3</ele>
        <time>1970-01-01T02:20:33.000Z</time>
      </trkpt>
      <trkpt lat="45.98422" lon="4.53745">
        <ele>564</ele>
        <time>1970-01-01T02:20:34.000Z</time>
      </trkpt>
      <trkpt lat="45.98422" lon="4.53745">
        <ele>564</ele>
        <time>1970-01-01T02:20:35.000Z</time>
      </trkpt>
      <trkpt lat="45.9842" lon="4.53745">
        <ele>563.7</ele>
        <time>1970-01-01T02:20:36.000Z</time>
      </trkpt>
      <trkpt lat="45.9842" lon="4.53745">
        <ele>563.7</ele>
        <time>1970-01-01T02:20:37.000Z</time>
      </trkpt>
      <trkpt lat="45.98418" lon="4.53745">
        <ele>563.3</ele>
        <time>1970-01-01T02:20:38.000Z</time>
      </trkpt>
      <trkpt lat="45.98418" lon="4.53745">
        <ele>563.3</ele>
        <time>1970-01-01T02:20:39.000Z</time>
      </trkpt>
      <trkpt lat="45.98416" lon="4.53745">
        <ele>563</ele>
        <time>1970-01-01T02:20:40.000Z</time>
      </trkpt>
      <trkpt lat="45.98416" lon="4.53745">
        <ele>563</ele>
        <time>1970-01-01T02:20:41.000Z</time>
      </trkpt>
      <trkpt lat="45.98413" lon="4.53745">
        <ele>562.7</ele>
        <time>1970-01-01T02:20:42.000Z</time>
      </trkpt>
      <trkpt lat="45.98413" lon="4.53745">
        <ele>562.7</ele>
        <time>1970-01-01T02:20:43.000Z</time>
      </trkpt>
      <trkpt lat="45.98411" lon="4.53744">
        <ele>562.3</ele>
        <time>1970-01-01T02:20:44.000Z</time>
      </trkpt>
      <trkpt lat="45.98411" lon="4.53744">
        <ele>562.3</ele>
        <time>1970-01-01T02:20:45.000Z</time>
      </trkpt>
      <trkpt lat="45.98408" lon="4.53744">
        <ele>562</ele>
        <time>1970-01-01T02:20:46.000Z</time>
      </trkpt>
      <trkpt lat="45.98408" lon="4.53744">
        <ele>562</ele>
        <time>1970-01-01T02:20:47.000Z</time>
      </trkpt>
      <trkpt lat="45.98406" lon="4.53744">
        <ele>561.6</ele>
        <time>1970-01-01T02:20:48.000Z</time>
      </trkpt>
      <trkpt lat="45.98406" lon="4.53744">
        <ele>561.6</ele>
        <time>1970-01-01T02:20:49.000Z</time>
      </trkpt>
      <trkpt lat="45.98403" lon="4.53744">
        <ele>561.2</ele>
        <time>1970-01-01T02:20:50.000Z</time>
      </trkpt>
      <trkpt lat="45.98403" lon="4.53744">
        <ele>561.2</ele>
        <time>1970-01-01T02:20:51.000Z</time>
      </trkpt>
      <trkpt lat="45.98401" lon="4.53744">
        <ele>560.9</ele>
        <time>1970-01-01T02:20:52.000Z</time>
      </trkpt>
      <trkpt lat="45.98401" lon="4.53744">
        <ele>560.9</ele>
        <time>1970-01-01T02:20:53.000Z</time>
      </trkpt>
      <trkpt lat="45.98398" lon="4.53745">
        <ele>560.6</ele>
        <time>1970-01-01T02:20:54.000Z</time>
      </trkpt>
      <trkpt lat="45.98398" lon="4.53745">
        <ele>560.6</ele>
        <time>1970-01-01T02:20:55.000Z</time>
      </trkpt>
      <trkpt lat="45.98396" lon="4.53745">
        <ele>560.3</ele>
        <time>1970-01-01T02:20:56.000Z</time>
      </trkpt>
      <trkpt lat="45.98396" lon="4.53745">
        <ele>560.3</ele>
        <time>1970-01-01T02:20:57.000Z</time>
      </trkpt>
      <trkpt lat="45.98394" lon="4.53746">
        <ele>560</ele>
        <time>1970-01-01T02:20:58.000Z</time>
      </trkpt>
      <trkpt lat="45.98394" lon="4.53746">
        <ele>560</ele>
        <time>1970-01-01T02:20:59.000Z</time>
      </trkpt>
      <trkpt lat="45.98391" lon="4.53746">
        <ele>559.7</ele>
        <time>1970-01-01T02:21:00.000Z</time>
      </trkpt>
      <trkpt lat="45.98391" lon="4.53746">
        <ele>559.7</ele>
        <time>1970-01-01T02:21:01.000Z</time>
      </trkpt>
      <trkpt lat="45.98389" lon="4.53745">
        <ele>559.4</ele>
        <time>1970-01-01T02:21:02.000Z</time>
      </trkpt>
      <trkpt lat="45.98389" lon="4.53745">
        <ele>559.4</ele>
        <time>1970-01-01T02:21:03.000Z</time>
      </trkpt>
      <trkpt lat="45.98386" lon="4.53746">
        <ele>559</ele>
        <time>1970-01-01T02:21:04.000Z</time>
      </trkpt>
      <trkpt lat="45.98386" lon="4.53746">
        <ele>559</ele>
        <time>1970-01-01T02:21:05.000Z</time>
      </trkpt>
      <trkpt lat="45.98384" lon="4.53748">
        <ele>558.7</ele>
        <time>1970-01-01T02:21:06.000Z</time>
      </trkpt>
      <trkpt lat="45.98384" lon="4.53748">
        <ele>558.7</ele>
        <time>1970-01-01T02:21:07.000Z</time>
      </trkpt>
      <trkpt lat="45.98381" lon="4.5375">
        <ele>558.3</ele>
        <time>1970-01-01T02:21:08.000Z</time>
      </trkpt>
      <trkpt lat="45.98381" lon="4.5375">
        <ele>558.3</ele>
        <time>1970-01-01T02:21:09.000Z</time>
      </trkpt>
      <trkpt lat="45.98379" lon="4.53752">
        <ele>558</ele>
        <time>1970-01-01T02:21:10.000Z</time>
      </trkpt>
      <trkpt lat="45.98379" lon="4.53752">
        <ele>558</ele>
        <time>1970-01-01T02:21:11.000Z</time>
      </trkpt>
      <trkpt lat="45.98377" lon="4.53753">
        <ele>557.7</ele>
        <time>1970-01-01T02:21:12.000Z</time>
      </trkpt>
      <trkpt lat="45.98377" lon="4.53753">
        <ele>557.7</ele>
        <time>1970-01-01T02:21:13.000Z</time>
      </trkpt>
      <trkpt lat="45.98375" lon="4.53755">
        <ele>557.4</ele>
        <time>1970-01-01T02:21:14.000Z</time>
      </trkpt>
      <trkpt lat="45.98375" lon="4.53755">
        <ele>557.4</ele>
        <time>1970-01-01T02:21:15.000Z</time>
      </trkpt>
      <trkpt lat="45.98373" lon="4.53758">
        <ele>557</ele>
        <time>1970-01-01T02:21:16.000Z</time>
      </trkpt>
      <trkpt lat="45.98373" lon="4.53758">
        <ele>557</ele>
        <time>1970-01-01T02:21:17.000Z</time>
      </trkpt>
      <trkpt lat="45.98371" lon="4.5376">
        <ele>556.7</ele>
        <time>1970-01-01T02:21:18.000Z</time>
      </trkpt>
      <trkpt lat="45.98371" lon="4.5376">
        <ele>556.7</ele>
        <time>1970-01-01T02:21:19.000Z</time>
      </trkpt>
      <trkpt lat="45.9837" lon="4.53762">
        <ele>556.4</ele>
        <time>1970-01-01T02:21:20.000Z</time>
      </trkpt>
      <trkpt lat="45.9837" lon="4.53762">
        <ele>556.4</ele>
        <time>1970-01-01T02:21:21.000Z</time>
      </trkpt>
      <trkpt lat="45.9837" lon="4.53762">
        <ele>556.4</ele>
        <time>1970-01-01T02:21:22.000Z</time>
      </trkpt>
      <trkpt lat="45.98368" lon="4.53765">
        <ele>556</ele>
        <time>1970-01-01T02:21:23.000Z</time>
      </trkpt>
      <trkpt lat="45.98368" lon="4.53765">
        <ele>556</ele>
        <time>1970-01-01T02:21:24.000Z</time>
      </trkpt>
      <trkpt lat="45.98368" lon="4.53765">
        <ele>556</ele>
        <time>1970-01-01T02:21:25.000Z</time>
      </trkpt>
      <trkpt lat="45.98368" lon="4.53768">
        <ele>555.7</ele>
        <time>1970-01-01T02:21:26.000Z</time>
      </trkpt>
      <trkpt lat="45.98368" lon="4.53768">
        <ele>555.7</ele>
        <time>1970-01-01T02:21:27.000Z</time>
      </trkpt>
      <trkpt lat="45.98367" lon="4.53772">
        <ele>555.3</ele>
        <time>1970-01-01T02:21:28.000Z</time>
      </trkpt>
      <trkpt lat="45.98367" lon="4.53772">
        <ele>555.3</ele>
        <time>1970-01-01T02:21:29.000Z</time>
      </trkpt>
      <trkpt lat="45.98367" lon="4.53774">
        <ele>555</ele>
        <time>1970-01-01T02:21:30.000Z</time>
      </trkpt>
      <trkpt lat="45.98367" lon="4.53774">
        <ele>555</ele>
        <time>1970-01-01T02:21:31.000Z</time>
      </trkpt>
      <trkpt lat="45.98367" lon="4.53777">
        <ele>554.6</ele>
        <time>1970-01-01T02:21:32.000Z</time>
      </trkpt>
      <trkpt lat="45.98367" lon="4.53777">
        <ele>554.6</ele>
        <time>1970-01-01T02:21:33.000Z</time>
      </trkpt>
      <trkpt lat="45.98366" lon="4.5378">
        <ele>554.3</ele>
        <time>1970-01-01T02:21:34.000Z</time>
      </trkpt>
      <trkpt lat="45.98366" lon="4.5378">
        <ele>554.3</ele>
        <time>1970-01-01T02:21:35.000Z</time>
      </trkpt>
      <trkpt lat="45.98365" lon="4.53783">
        <ele>554</ele>
        <time>1970-01-01T02:21:36.000Z</time>
      </trkpt>
      <trkpt lat="45.98365" lon="4.53783">
        <ele>554</ele>
        <time>1970-01-01T02:21:37.000Z</time>
      </trkpt>
      <trkpt lat="45.98364" lon="4.53786">
        <ele>553.6</ele>
        <time>1970-01-01T02:21:38.000Z</time>
      </trkpt>
      <trkpt lat="45.98364" lon="4.53786">
        <ele>553.6</ele>
        <time>1970-01-01T02:21:39.000Z</time>
      </trkpt>
      <trkpt lat="45.98363" lon="4.53788">
        <ele>553.3</ele>
        <time>1970-01-01T02:21:40.000Z</time>
      </trkpt>
      <trkpt lat="45.98363" lon="4.53788">
        <ele>553.3</ele>
        <time>1970-01-01T02:21:41.000Z</time>
      </trkpt>
      <trkpt lat="45.98362" lon="4.53791">
        <ele>552.9</ele>
        <time>1970-01-01T02:21:42.000Z</time>
      </trkpt>
      <trkpt lat="45.98362" lon="4.53791">
        <ele>552.9</ele>
        <time>1970-01-01T02:21:43.000Z</time>
      </trkpt>
      <trkpt lat="45.98362" lon="4.53794">
        <ele>552.6</ele>
        <time>1970-01-01T02:21:44.000Z</time>
      </trkpt>
      <trkpt lat="45.98362" lon="4.53794">
        <ele>552.6</ele>
        <time>1970-01-01T02:21:45.000Z</time>
      </trkpt>
      <trkpt lat="45.98361" lon="4.53797">
        <ele>552.3</ele>
        <time>1970-01-01T02:21:46.000Z</time>
      </trkpt>
      <trkpt lat="45.98361" lon="4.53797">
        <ele>552.3</ele>
        <time>1970-01-01T02:21:47.000Z</time>
      </trkpt>
      <trkpt lat="45.98359" lon="4.538">
        <ele>552</ele>
        <time>1970-01-01T02:21:48.000Z</time>
      </trkpt>
      <trkpt lat="45.98359" lon="4.538">
        <ele>552</ele>
        <time>1970-01-01T02:21:49.000Z</time>
      </trkpt>
      <trkpt lat="45.98358" lon="4.53803">
        <ele>551.6</ele>
        <time>1970-01-01T02:21:50.000Z</time>
      </trkpt>
      <trkpt lat="45.98358" lon="4.53803">
        <ele>551.6</ele>
        <time>1970-01-01T02:21:51.000Z</time>
      </trkpt>
      <trkpt lat="45.98357" lon="4.53807">
        <ele>551.3</ele>
        <time>1970-01-01T02:21:52.000Z</time>
      </trkpt>
      <trkpt lat="45.98357" lon="4.53807">
        <ele>551.3</ele>
        <time>1970-01-01T02:21:53.000Z</time>
      </trkpt>
      <trkpt lat="45.98355" lon="4.5381">
        <ele>551</ele>
        <time>1970-01-01T02:21:54.000Z</time>
      </trkpt>
      <trkpt lat="45.98355" lon="4.5381">
        <ele>551</ele>
        <time>1970-01-01T02:21:55.000Z</time>
      </trkpt>
      <trkpt lat="45.98353" lon="4.53813">
        <ele>550.7</ele>
        <time>1970-01-01T02:21:56.000Z</time>
      </trkpt>
      <trkpt lat="45.98353" lon="4.53813">
        <ele>550.7</ele>
        <time>1970-01-01T02:21:57.000Z</time>
      </trkpt>
      <trkpt lat="45.9835" lon="4.53817">
        <ele>550.3</ele>
        <time>1970-01-01T02:21:58.000Z</time>
      </trkpt>
      <trkpt lat="45.98348" lon="4.53818">
        <ele>550.2</ele>
        <time>1970-01-01T02:21:59.000Z</time>
      </trkpt>
      <trkpt lat="45.98348" lon="4.53818">
        <ele>550.2</ele>
        <time>1970-01-01T02:22:00.000Z</time>
      </trkpt>
      <trkpt lat="45.98346" lon="4.53821">
        <ele>549.9</ele>
        <time>1970-01-01T02:22:01.000Z</time>
      </trkpt>
      <trkpt lat="45.98346" lon="4.53821">
        <ele>549.9</ele>
        <time>1970-01-01T02:22:02.000Z</time>
      </trkpt>
      <trkpt lat="45.98344" lon="4.53824">
        <ele>549.6</ele>
        <time>1970-01-01T02:22:03.000Z</time>
      </trkpt>
      <trkpt lat="45.98344" lon="4.53824">
        <ele>549.6</ele>
        <time>1970-01-01T02:22:04.000Z</time>
      </trkpt>
      <trkpt lat="45.98341" lon="4.53825">
        <ele>549.4</ele>
        <time>1970-01-01T02:22:05.000Z</time>
      </trkpt>
      <trkpt lat="45.98341" lon="4.53825">
        <ele>549.4</ele>
        <time>1970-01-01T02:22:06.000Z</time>
      </trkpt>
      <trkpt lat="45.98339" lon="4.53827">
        <ele>549.2</ele>
        <time>1970-01-01T02:22:07.000Z</time>
      </trkpt>
      <trkpt lat="45.98339" lon="4.53827">
        <ele>549.2</ele>
        <time>1970-01-01T02:22:08.000Z</time>
      </trkpt>
      <trkpt lat="45.98337" lon="4.53829">
        <ele>549</ele>
        <time>1970-01-01T02:22:09.000Z</time>
      </trkpt>
      <trkpt lat="45.98337" lon="4.53829">
        <ele>549</ele>
        <time>1970-01-01T02:22:10.000Z</time>
      </trkpt>
      <trkpt lat="45.98335" lon="4.53832">
        <ele>548.7</ele>
        <time>1970-01-01T02:22:11.000Z</time>
      </trkpt>
      <trkpt lat="45.98335" lon="4.53832">
        <ele>548.7</ele>
        <time>1970-01-01T02:22:12.000Z</time>
      </trkpt>
      <trkpt lat="45.98333" lon="4.53834">
        <ele>548.6</ele>
        <time>1970-01-01T02:22:13.000Z</time>
      </trkpt>
      <trkpt lat="45.98333" lon="4.53834">
        <ele>548.6</ele>
        <time>1970-01-01T02:22:14.000Z</time>
      </trkpt>
      <trkpt lat="45.98333" lon="4.53834">
        <ele>548.6</ele>
        <time>1970-01-01T02:22:15.000Z</time>
      </trkpt>
      <trkpt lat="45.9833" lon="4.53836">
        <ele>548.3</ele>
        <time>1970-01-01T02:22:16.000Z</time>
      </trkpt>
      <trkpt lat="45.9833" lon="4.53836">
        <ele>548.3</ele>
        <time>1970-01-01T02:22:17.000Z</time>
      </trkpt>
      <trkpt lat="45.98327" lon="4.53839">
        <ele>548.1</ele>
        <time>1970-01-01T02:22:18.000Z</time>
      </trkpt>
      <trkpt lat="45.98327" lon="4.53839">
        <ele>548.1</ele>
        <time>1970-01-01T02:22:19.000Z</time>
      </trkpt>
      <trkpt lat="45.98325" lon="4.5384">
        <ele>547.9</ele>
        <time>1970-01-01T02:22:20.000Z</time>
      </trkpt>
      <trkpt lat="45.98324" lon="4.53841">
        <ele>547.8</ele>
        <time>1970-01-01T02:22:21.000Z</time>
      </trkpt>
      <trkpt lat="45.98322" lon="4.53843">
        <ele>547.8</ele>
        <time>1970-01-01T02:22:22.000Z</time>
      </trkpt>
      <trkpt lat="45.98321" lon="4.53844">
        <ele>547.8</ele>
        <time>1970-01-01T02:22:23.000Z</time>
      </trkpt>
      <trkpt lat="45.9832" lon="4.53845">
        <ele>547.8</ele>
        <time>1970-01-01T02:22:24.000Z</time>
      </trkpt>
      <trkpt lat="45.98319" lon="4.53846">
        <ele>547.7</ele>
        <time>1970-01-01T02:22:25.000Z</time>
      </trkpt>
      <trkpt lat="45.98318" lon="4.53847">
        <ele>547.7</ele>
        <time>1970-01-01T02:22:26.000Z</time>
      </trkpt>
      <trkpt lat="45.98317" lon="4.53848">
        <ele>547.7</ele>
        <time>1970-01-01T02:22:27.000Z</time>
      </trkpt>
      <trkpt lat="45.98316" lon="4.53849">
        <ele>547.7</ele>
        <time>1970-01-01T02:22:28.000Z</time>
      </trkpt>
      <trkpt lat="45.98315" lon="4.5385">
        <ele>547.7</ele>
        <time>1970-01-01T02:22:29.000Z</time>
      </trkpt>
      <trkpt lat="45.98313" lon="4.53851">
        <ele>547.7</ele>
        <time>1970-01-01T02:22:30.000Z</time>
      </trkpt>
      <trkpt lat="45.98312" lon="4.53852">
        <ele>547.7</ele>
        <time>1970-01-01T02:22:31.000Z</time>
      </trkpt>
      <trkpt lat="45.98311" lon="4.53854">
        <ele>547.7</ele>
        <time>1970-01-01T02:22:32.000Z</time>
      </trkpt>
      <trkpt lat="45.9831" lon="4.53855">
        <ele>547.7</ele>
        <time>1970-01-01T02:22:33.000Z</time>
      </trkpt>
      <trkpt lat="45.98309" lon="4.53856">
        <ele>547.7</ele>
        <time>1970-01-01T02:22:34.000Z</time>
      </trkpt>
      <trkpt lat="45.98308" lon="4.53857">
        <ele>547.7</ele>
        <time>1970-01-01T02:22:35.000Z</time>
      </trkpt>
      <trkpt lat="45.98307" lon="4.53858">
        <ele>547.8</ele>
        <time>1970-01-01T02:22:36.000Z</time>
      </trkpt>
      <trkpt lat="45.98306" lon="4.53859">
        <ele>547.9</ele>
        <time>1970-01-01T02:22:37.000Z</time>
      </trkpt>
      <trkpt lat="45.98305" lon="4.5386">
        <ele>548</ele>
        <time>1970-01-01T02:22:38.000Z</time>
      </trkpt>
      <trkpt lat="45.98304" lon="4.53861">
        <ele>548</ele>
        <time>1970-01-01T02:22:39.000Z</time>
      </trkpt>
      <trkpt lat="45.98303" lon="4.53861">
        <ele>548.1</ele>
        <time>1970-01-01T02:22:40.000Z</time>
      </trkpt>
      <trkpt lat="45.98302" lon="4.53861">
        <ele>548.1</ele>
        <time>1970-01-01T02:22:41.000Z</time>
      </trkpt>
      <trkpt lat="45.98301" lon="4.53862">
        <ele>548.2</ele>
        <time>1970-01-01T02:22:42.000Z</time>
      </trkpt>
      <trkpt lat="45.983" lon="4.53862">
        <ele>548.3</ele>
        <time>1970-01-01T02:22:43.000Z</time>
      </trkpt>
      <trkpt lat="45.98299" lon="4.53863">
        <ele>548.3</ele>
        <time>1970-01-01T02:22:44.000Z</time>
      </trkpt>
      <trkpt lat="45.98298" lon="4.53863">
        <ele>548.4</ele>
        <time>1970-01-01T02:22:45.000Z</time>
      </trkpt>
      <trkpt lat="45.98297" lon="4.53863">
        <ele>548.4</ele>
        <time>1970-01-01T02:22:46.000Z</time>
      </trkpt>
      <trkpt lat="45.98297" lon="4.53864">
        <ele>548.5</ele>
        <time>1970-01-01T02:22:47.000Z</time>
      </trkpt>
      <trkpt lat="45.98296" lon="4.53864">
        <ele>548.6</ele>
        <time>1970-01-01T02:22:48.000Z</time>
      </trkpt>
      <trkpt lat="45.98295" lon="4.53864">
        <ele>548.6</ele>
        <time>1970-01-01T02:22:49.000Z</time>
      </trkpt>
      <trkpt lat="45.98294" lon="4.53865">
        <ele>548.7</ele>
        <time>1970-01-01T02:22:50.000Z</time>
      </trkpt>
      <trkpt lat="45.98293" lon="4.53865">
        <ele>548.7</ele>
        <time>1970-01-01T02:22:51.000Z</time>
      </trkpt>
      <trkpt lat="45.98292" lon="4.53866">
        <ele>548.8</ele>
        <time>1970-01-01T02:22:52.000Z</time>
      </trkpt>
      <trkpt lat="45.98291" lon="4.53866">
        <ele>548.9</ele>
        <time>1970-01-01T02:22:53.000Z</time>
      </trkpt>
      <trkpt lat="45.9829" lon="4.53867">
        <ele>548.9</ele>
        <time>1970-01-01T02:22:54.000Z</time>
      </trkpt>
      <trkpt lat="45.9829" lon="4.53867">
        <ele>549</ele>
        <time>1970-01-01T02:22:55.000Z</time>
      </trkpt>
      <trkpt lat="45.98289" lon="4.53868">
        <ele>549</ele>
        <time>1970-01-01T02:22:56.000Z</time>
      </trkpt>
      <trkpt lat="45.98288" lon="4.53868">
        <ele>549.1</ele>
        <time>1970-01-01T02:22:57.000Z</time>
      </trkpt>
      <trkpt lat="45.98287" lon="4.53869">
        <ele>549.2</ele>
        <time>1970-01-01T02:22:58.000Z</time>
      </trkpt>
      <trkpt lat="45.98286" lon="4.53869">
        <ele>549.3</ele>
        <time>1970-01-01T02:22:59.000Z</time>
      </trkpt>
      <trkpt lat="45.98285" lon="4.53868">
        <ele>549.3</ele>
        <time>1970-01-01T02:23:00.000Z</time>
      </trkpt>
      <trkpt lat="45.98284" lon="4.53868">
        <ele>549.4</ele>
        <time>1970-01-01T02:23:01.000Z</time>
      </trkpt>
      <trkpt lat="45.98283" lon="4.53868">
        <ele>549.5</ele>
        <time>1970-01-01T02:23:02.000Z</time>
      </trkpt>
      <trkpt lat="45.98282" lon="4.53868">
        <ele>549.6</ele>
        <time>1970-01-01T02:23:03.000Z</time>
      </trkpt>
      <trkpt lat="45.98281" lon="4.53868">
        <ele>549.6</ele>
        <time>1970-01-01T02:23:04.000Z</time>
      </trkpt>
      <trkpt lat="45.9828" lon="4.53868">
        <ele>549.7</ele>
        <time>1970-01-01T02:23:05.000Z</time>
      </trkpt>
      <trkpt lat="45.98279" lon="4.53868">
        <ele>549.8</ele>
        <time>1970-01-01T02:23:06.000Z</time>
      </trkpt>
      <trkpt lat="45.98278" lon="4.53868">
        <ele>549.9</ele>
        <time>1970-01-01T02:23:07.000Z</time>
      </trkpt>
      <trkpt lat="45.98277" lon="4.53868">
        <ele>550</ele>
        <time>1970-01-01T02:23:08.000Z</time>
      </trkpt>
      <trkpt lat="45.98276" lon="4.53868">
        <ele>550.1</ele>
        <time>1970-01-01T02:23:09.000Z</time>
      </trkpt>
      <trkpt lat="45.98274" lon="4.53868">
        <ele>550.2</ele>
        <time>1970-01-01T02:23:10.000Z</time>
      </trkpt>
      <trkpt lat="45.98273" lon="4.53868">
        <ele>550.3</ele>
        <time>1970-01-01T02:23:11.000Z</time>
      </trkpt>
      <trkpt lat="45.98272" lon="4.53869">
        <ele>550.5</ele>
        <time>1970-01-01T02:23:12.000Z</time>
      </trkpt>
      <trkpt lat="45.9827" lon="4.53869">
        <ele>550.6</ele>
        <time>1970-01-01T02:23:13.000Z</time>
      </trkpt>
      <trkpt lat="45.98269" lon="4.53869">
        <ele>550.7</ele>
        <time>1970-01-01T02:23:14.000Z</time>
      </trkpt>
      <trkpt lat="45.98267" lon="4.53869">
        <ele>550.8</ele>
        <time>1970-01-01T02:23:15.000Z</time>
      </trkpt>
      <trkpt lat="45.98267" lon="4.53869">
        <ele>550.9</ele>
        <time>1970-01-01T02:23:16.000Z</time>
      </trkpt>
      <trkpt lat="45.98266" lon="4.53869">
        <ele>551</ele>
        <time>1970-01-01T02:23:17.000Z</time>
      </trkpt>
      <trkpt lat="45.98265" lon="4.53869">
        <ele>551</ele>
        <time>1970-01-01T02:23:18.000Z</time>
      </trkpt>
      <trkpt lat="45.98264" lon="4.53869">
        <ele>551.1</ele>
        <time>1970-01-01T02:23:19.000Z</time>
      </trkpt>
      <trkpt lat="45.98264" lon="4.53869">
        <ele>551.2</ele>
        <time>1970-01-01T02:23:20.000Z</time>
      </trkpt>
      <trkpt lat="45.98263" lon="4.5387">
        <ele>551.3</ele>
        <time>1970-01-01T02:23:21.000Z</time>
      </trkpt>
      <trkpt lat="45.98262" lon="4.5387">
        <ele>551.3</ele>
        <time>1970-01-01T02:23:22.000Z</time>
      </trkpt>
      <trkpt lat="45.98261" lon="4.5387">
        <ele>551.4</ele>
        <time>1970-01-01T02:23:23.000Z</time>
      </trkpt>
      <trkpt lat="45.9826" lon="4.5387">
        <ele>551.5</ele>
        <time>1970-01-01T02:23:24.000Z</time>
      </trkpt>
      <trkpt lat="45.9826" lon="4.5387">
        <ele>551.6</ele>
        <time>1970-01-01T02:23:25.000Z</time>
      </trkpt>
      <trkpt lat="45.98259" lon="4.5387">
        <ele>551.6</ele>
        <time>1970-01-01T02:23:26.000Z</time>
      </trkpt>
      <trkpt lat="45.98258" lon="4.5387">
        <ele>551.7</ele>
        <time>1970-01-01T02:23:27.000Z</time>
      </trkpt>
      <trkpt lat="45.98257" lon="4.5387">
        <ele>551.8</ele>
        <time>1970-01-01T02:23:28.000Z</time>
      </trkpt>
      <trkpt lat="45.98256" lon="4.5387">
        <ele>551.9</ele>
        <time>1970-01-01T02:23:29.000Z</time>
      </trkpt>
      <trkpt lat="45.98255" lon="4.5387">
        <ele>552</ele>
        <time>1970-01-01T02:23:30.000Z</time>
      </trkpt>
      <trkpt lat="45.98254" lon="4.53871">
        <ele>552.1</ele>
        <time>1970-01-01T02:23:31.000Z</time>
      </trkpt>
      <trkpt lat="45.98252" lon="4.53871">
        <ele>552.2</ele>
        <time>1970-01-01T02:23:32.000Z</time>
      </trkpt>
      <trkpt lat="45.98251" lon="4.53871">
        <ele>552.3</ele>
        <time>1970-01-01T02:23:33.000Z</time>
      </trkpt>
      <trkpt lat="45.9825" lon="4.53871">
        <ele>552.4</ele>
        <time>1970-01-01T02:23:34.000Z</time>
      </trkpt>
      <trkpt lat="45.98249" lon="4.53871">
        <ele>552.5</ele>
        <time>1970-01-01T02:23:35.000Z</time>
      </trkpt>
      <trkpt lat="45.98248" lon="4.53872">
        <ele>552.7</ele>
        <time>1970-01-01T02:23:36.000Z</time>
      </trkpt>
      <trkpt lat="45.98247" lon="4.53872">
        <ele>552.7</ele>
        <time>1970-01-01T02:23:37.000Z</time>
      </trkpt>
      <trkpt lat="45.98246" lon="4.53872">
        <ele>552.8</ele>
        <time>1970-01-01T02:23:38.000Z</time>
      </trkpt>
      <trkpt lat="45.98245" lon="4.53872">
        <ele>552.9</ele>
        <time>1970-01-01T02:23:39.000Z</time>
      </trkpt>
      <trkpt lat="45.98244" lon="4.53872">
        <ele>553</ele>
        <time>1970-01-01T02:23:40.000Z</time>
      </trkpt>
      <trkpt lat="45.98243" lon="4.53872">
        <ele>553.1</ele>
        <time>1970-01-01T02:23:41.000Z</time>
      </trkpt>
      <trkpt lat="45.98242" lon="4.53872">
        <ele>553.2</ele>
        <time>1970-01-01T02:23:42.000Z</time>
      </trkpt>
      <trkpt lat="45.98242" lon="4.53872">
        <ele>553.3</ele>
        <time>1970-01-01T02:23:43.000Z</time>
      </trkpt>
      <trkpt lat="45.98241" lon="4.53872">
        <ele>553.3</ele>
        <time>1970-01-01T02:23:44.000Z</time>
      </trkpt>
      <trkpt lat="45.9824" lon="4.53872">
        <ele>553.4</ele>
        <time>1970-01-01T02:23:45.000Z</time>
      </trkpt>
      <trkpt lat="45.98239" lon="4.53873">
        <ele>553.5</ele>
        <time>1970-01-01T02:23:46.000Z</time>
      </trkpt>
      <trkpt lat="45.98238" lon="4.53873">
        <ele>553.6</ele>
        <time>1970-01-01T02:23:47.000Z</time>
      </trkpt>
      <trkpt lat="45.98236" lon="4.53873">
        <ele>553.8</ele>
        <time>1970-01-01T02:23:48.000Z</time>
      </trkpt>
      <trkpt lat="45.98235" lon="4.53873">
        <ele>553.9</ele>
        <time>1970-01-01T02:23:49.000Z</time>
      </trkpt>
      <trkpt lat="45.98234" lon="4.53874">
        <ele>554</ele>
        <time>1970-01-01T02:23:50.000Z</time>
      </trkpt>
      <trkpt lat="45.98232" lon="4.53874">
        <ele>554.1</ele>
        <time>1970-01-01T02:23:51.000Z</time>
      </trkpt>
      <trkpt lat="45.98231" lon="4.53874">
        <ele>554.3</ele>
        <time>1970-01-01T02:23:52.000Z</time>
      </trkpt>
      <trkpt lat="45.9823" lon="4.53874">
        <ele>554.4</ele>
        <time>1970-01-01T02:23:53.000Z</time>
      </trkpt>
      <trkpt lat="45.98229" lon="4.53875">
        <ele>554.5</ele>
        <time>1970-01-01T02:23:54.000Z</time>
      </trkpt>
      <trkpt lat="45.98228" lon="4.53875">
        <ele>554.6</ele>
        <time>1970-01-01T02:23:55.000Z</time>
      </trkpt>
      <trkpt lat="45.98227" lon="4.53875">
        <ele>554.7</ele>
        <time>1970-01-01T02:23:56.000Z</time>
      </trkpt>
      <trkpt lat="45.98226" lon="4.53875">
        <ele>554.8</ele>
        <time>1970-01-01T02:23:57.000Z</time>
      </trkpt>
      <trkpt lat="45.98225" lon="4.53876">
        <ele>554.9</ele>
        <time>1970-01-01T02:23:58.000Z</time>
      </trkpt>
      <trkpt lat="45.98224" lon="4.53876">
        <ele>555</ele>
        <time>1970-01-01T02:23:59.000Z</time>
      </trkpt>
      <trkpt lat="45.98222" lon="4.53876">
        <ele>555.1</ele>
        <time>1970-01-01T02:24:00.000Z</time>
      </trkpt>
      <trkpt lat="45.98221" lon="4.53877">
        <ele>555.2</ele>
        <time>1970-01-01T02:24:01.000Z</time>
      </trkpt>
      <trkpt lat="45.9822" lon="4.53877">
        <ele>555.3</ele>
        <time>1970-01-01T02:24:02.000Z</time>
      </trkpt>
      <trkpt lat="45.98219" lon="4.53877">
        <ele>555.4</ele>
        <time>1970-01-01T02:24:03.000Z</time>
      </trkpt>
      <trkpt lat="45.98218" lon="4.53877">
        <ele>555.5</ele>
        <time>1970-01-01T02:24:04.000Z</time>
      </trkpt>
      <trkpt lat="45.98217" lon="4.53877">
        <ele>555.6</ele>
        <time>1970-01-01T02:24:05.000Z</time>
      </trkpt>
      <trkpt lat="45.98216" lon="4.53877">
        <ele>555.7</ele>
        <time>1970-01-01T02:24:06.000Z</time>
      </trkpt>
      <trkpt lat="45.98215" lon="4.53877">
        <ele>555.7</ele>
        <time>1970-01-01T02:24:07.000Z</time>
      </trkpt>
      <trkpt lat="45.98215" lon="4.53877">
        <ele>555.8</ele>
        <time>1970-01-01T02:24:08.000Z</time>
      </trkpt>
      <trkpt lat="45.98214" lon="4.53877">
        <ele>555.9</ele>
        <time>1970-01-01T02:24:09.000Z</time>
      </trkpt>
      <trkpt lat="45.98213" lon="4.53877">
        <ele>556</ele>
        <time>1970-01-01T02:24:10.000Z</time>
      </trkpt>
      <trkpt lat="45.98212" lon="4.53877">
        <ele>556.1</ele>
        <time>1970-01-01T02:24:11.000Z</time>
      </trkpt>
      <trkpt lat="45.98211" lon="4.53877">
        <ele>556.2</ele>
        <time>1970-01-01T02:24:12.000Z</time>
      </trkpt>
      <trkpt lat="45.9821" lon="4.53877">
        <ele>556.2</ele>
        <time>1970-01-01T02:24:13.000Z</time>
      </trkpt>
      <trkpt lat="45.98209" lon="4.53877">
        <ele>556.3</ele>
        <time>1970-01-01T02:24:14.000Z</time>
      </trkpt>
      <trkpt lat="45.98208" lon="4.53877">
        <ele>556.4</ele>
        <time>1970-01-01T02:24:15.000Z</time>
      </trkpt>
      <trkpt lat="45.98207" lon="4.53877">
        <ele>556.5</ele>
        <time>1970-01-01T02:24:16.000Z</time>
      </trkpt>
      <trkpt lat="45.98206" lon="4.53877">
        <ele>556.5</ele>
        <time>1970-01-01T02:24:17.000Z</time>
      </trkpt>
      <trkpt lat="45.98205" lon="4.53877">
        <ele>556.6</ele>
        <time>1970-01-01T02:24:18.000Z</time>
      </trkpt>
      <trkpt lat="45.98204" lon="4.53877">
        <ele>556.7</ele>
        <time>1970-01-01T02:24:19.000Z</time>
      </trkpt>
      <trkpt lat="45.98203" lon="4.53877">
        <ele>556.8</ele>
        <time>1970-01-01T02:24:20.000Z</time>
      </trkpt>
      <trkpt lat="45.98202" lon="4.53877">
        <ele>556.8</ele>
        <time>1970-01-01T02:24:21.000Z</time>
      </trkpt>
      <trkpt lat="45.98201" lon="4.53877">
        <ele>556.9</ele>
        <time>1970-01-01T02:24:22.000Z</time>
      </trkpt>
      <trkpt lat="45.982" lon="4.53877">
        <ele>557</ele>
        <time>1970-01-01T02:24:23.000Z</time>
      </trkpt>
      <trkpt lat="45.98199" lon="4.53877">
        <ele>557.1</ele>
        <time>1970-01-01T02:24:24.000Z</time>
      </trkpt>
      <trkpt lat="45.98198" lon="4.53877">
        <ele>557.2</ele>
        <time>1970-01-01T02:24:25.000Z</time>
      </trkpt>
      <trkpt lat="45.98197" lon="4.53877">
        <ele>557.3</ele>
        <time>1970-01-01T02:24:26.000Z</time>
      </trkpt>
      <trkpt lat="45.98196" lon="4.53877">
        <ele>557.4</ele>
        <time>1970-01-01T02:24:27.000Z</time>
      </trkpt>
      <trkpt lat="45.98194" lon="4.53877">
        <ele>557.5</ele>
        <time>1970-01-01T02:24:28.000Z</time>
      </trkpt>
      <trkpt lat="45.98193" lon="4.53877">
        <ele>557.6</ele>
        <time>1970-01-01T02:24:29.000Z</time>
      </trkpt>
      <trkpt lat="45.98192" lon="4.53877">
        <ele>557.7</ele>
        <time>1970-01-01T02:24:30.000Z</time>
      </trkpt>
      <trkpt lat="45.98191" lon="4.53877">
        <ele>557.8</ele>
        <time>1970-01-01T02:24:31.000Z</time>
      </trkpt>
      <trkpt lat="45.98189" lon="4.53878">
        <ele>557.9</ele>
        <time>1970-01-01T02:24:32.000Z</time>
      </trkpt>
      <trkpt lat="45.98188" lon="4.53878">
        <ele>558</ele>
        <time>1970-01-01T02:24:33.000Z</time>
      </trkpt>
      <trkpt lat="45.98187" lon="4.53878">
        <ele>558.1</ele>
        <time>1970-01-01T02:24:34.000Z</time>
      </trkpt>
      <trkpt lat="45.98186" lon="4.53878">
        <ele>558.2</ele>
        <time>1970-01-01T02:24:35.000Z</time>
      </trkpt>
      <trkpt lat="45.98184" lon="4.53879">
        <ele>558.3</ele>
        <time>1970-01-01T02:24:36.000Z</time>
      </trkpt>
      <trkpt lat="45.98183" lon="4.53879">
        <ele>558.4</ele>
        <time>1970-01-01T02:24:37.000Z</time>
      </trkpt>
      <trkpt lat="45.98182" lon="4.53879">
        <ele>558.5</ele>
        <time>1970-01-01T02:24:38.000Z</time>
      </trkpt>
      <trkpt lat="45.98181" lon="4.53879">
        <ele>558.5</ele>
        <time>1970-01-01T02:24:39.000Z</time>
      </trkpt>
      <trkpt lat="45.9818" lon="4.53879">
        <ele>558.6</ele>
        <time>1970-01-01T02:24:40.000Z</time>
      </trkpt>
      <trkpt lat="45.98179" lon="4.53879">
        <ele>558.7</ele>
        <time>1970-01-01T02:24:41.000Z</time>
      </trkpt>
      <trkpt lat="45.98178" lon="4.53879">
        <ele>558.7</ele>
        <time>1970-01-01T02:24:42.000Z</time>
      </trkpt>
      <trkpt lat="45.98177" lon="4.53879">
        <ele>558.8</ele>
        <time>1970-01-01T02:24:43.000Z</time>
      </trkpt>
      <trkpt lat="45.98176" lon="4.53879">
        <ele>558.9</ele>
        <time>1970-01-01T02:24:44.000Z</time>
      </trkpt>
      <trkpt lat="45.98175" lon="4.53879">
        <ele>558.9</ele>
        <time>1970-01-01T02:24:45.000Z</time>
      </trkpt>
      <trkpt lat="45.98174" lon="4.53879">
        <ele>559</ele>
        <time>1970-01-01T02:24:46.000Z</time>
      </trkpt>
      <trkpt lat="45.98174" lon="4.53879">
        <ele>559.1</ele>
        <time>1970-01-01T02:24:47.000Z</time>
      </trkpt>
      <trkpt lat="45.98173" lon="4.53879">
        <ele>559.1</ele>
        <time>1970-01-01T02:24:48.000Z</time>
      </trkpt>
      <trkpt lat="45.98172" lon="4.53879">
        <ele>559.2</ele>
        <time>1970-01-01T02:24:49.000Z</time>
      </trkpt>
      <trkpt lat="45.98172" lon="4.53879">
        <ele>559.2</ele>
        <time>1970-01-01T02:24:50.000Z</time>
      </trkpt>
      <trkpt lat="45.98171" lon="4.53879">
        <ele>559.3</ele>
        <time>1970-01-01T02:24:51.000Z</time>
      </trkpt>
      <trkpt lat="45.9817" lon="4.53879">
        <ele>559.3</ele>
        <time>1970-01-01T02:24:52.000Z</time>
      </trkpt>
      <trkpt lat="45.9817" lon="4.53879">
        <ele>559.3</ele>
        <time>1970-01-01T02:24:53.000Z</time>
      </trkpt>
      <trkpt lat="45.98169" lon="4.53879">
        <ele>559.4</ele>
        <time>1970-01-01T02:24:54.000Z</time>
      </trkpt>
      <trkpt lat="45.98168" lon="4.53879">
        <ele>559.4</ele>
        <time>1970-01-01T02:24:55.000Z</time>
      </trkpt>
      <trkpt lat="45.98168" lon="4.53879">
        <ele>559.5</ele>
        <time>1970-01-01T02:24:56.000Z</time>
      </trkpt>
      <trkpt lat="45.98167" lon="4.53879">
        <ele>559.5</ele>
        <time>1970-01-01T02:24:57.000Z</time>
      </trkpt>
      <trkpt lat="45.98166" lon="4.53879">
        <ele>559.6</ele>
        <time>1970-01-01T02:24:58.000Z</time>
      </trkpt>
      <trkpt lat="45.98166" lon="4.53879">
        <ele>559.6</ele>
        <time>1970-01-01T02:24:59.000Z</time>
      </trkpt>
      <trkpt lat="45.98165" lon="4.53878">
        <ele>559.7</ele>
        <time>1970-01-01T02:25:00.000Z</time>
      </trkpt>
      <trkpt lat="45.98164" lon="4.53878">
        <ele>559.7</ele>
        <time>1970-01-01T02:25:01.000Z</time>
      </trkpt>
      <trkpt lat="45.98163" lon="4.53878">
        <ele>559.8</ele>
        <time>1970-01-01T02:25:02.000Z</time>
      </trkpt>
      <trkpt lat="45.98162" lon="4.53878">
        <ele>559.9</ele>
        <time>1970-01-01T02:25:03.000Z</time>
      </trkpt>
      <trkpt lat="45.98161" lon="4.53878">
        <ele>560</ele>
        <time>1970-01-01T02:25:04.000Z</time>
      </trkpt>
      <trkpt lat="45.98159" lon="4.53878">
        <ele>560.1</ele>
        <time>1970-01-01T02:25:05.000Z</time>
      </trkpt>
      <trkpt lat="45.98158" lon="4.53878">
        <ele>560.1</ele>
        <time>1970-01-01T02:25:06.000Z</time>
      </trkpt>
      <trkpt lat="45.98157" lon="4.53878">
        <ele>560.2</ele>
        <time>1970-01-01T02:25:07.000Z</time>
      </trkpt>
      <trkpt lat="45.98156" lon="4.53878">
        <ele>560.3</ele>
        <time>1970-01-01T02:25:08.000Z</time>
      </trkpt>
      <trkpt lat="45.98155" lon="4.53878">
        <ele>560.4</ele>
        <time>1970-01-01T02:25:09.000Z</time>
      </trkpt>
      <trkpt lat="45.98154" lon="4.53878">
        <ele>560.5</ele>
        <time>1970-01-01T02:25:10.000Z</time>
      </trkpt>
      <trkpt lat="45.98153" lon="4.53878">
        <ele>560.6</ele>
        <time>1970-01-01T02:25:11.000Z</time>
      </trkpt>
      <trkpt lat="45.98152" lon="4.53878">
        <ele>560.6</ele>
        <time>1970-01-01T02:25:12.000Z</time>
      </trkpt>
      <trkpt lat="45.98151" lon="4.53878">
        <ele>560.7</ele>
        <time>1970-01-01T02:25:13.000Z</time>
      </trkpt>
      <trkpt lat="45.9815" lon="4.53878">
        <ele>560.8</ele>
        <time>1970-01-01T02:25:14.000Z</time>
      </trkpt>
      <trkpt lat="45.98149" lon="4.53878">
        <ele>560.8</ele>
        <time>1970-01-01T02:25:15.000Z</time>
      </trkpt>
      <trkpt lat="45.98148" lon="4.53878">
        <ele>560.9</ele>
        <time>1970-01-01T02:25:16.000Z</time>
      </trkpt>
      <trkpt lat="45.98147" lon="4.53878">
        <ele>561</ele>
        <time>1970-01-01T02:25:17.000Z</time>
      </trkpt>
      <trkpt lat="45.98146" lon="4.53878">
        <ele>561</ele>
        <time>1970-01-01T02:25:18.000Z</time>
      </trkpt>
      <trkpt lat="45.98145" lon="4.53878">
        <ele>561.1</ele>
        <time>1970-01-01T02:25:19.000Z</time>
      </trkpt>
      <trkpt lat="45.98145" lon="4.53878">
        <ele>561.1</ele>
        <time>1970-01-01T02:25:20.000Z</time>
      </trkpt>
      <trkpt lat="45.98145" lon="4.53878">
        <ele>561.1</ele>
        <time>1970-01-01T02:25:21.000Z</time>
      </trkpt>
      <trkpt lat="45.98143" lon="4.53879">
        <ele>561.3</ele>
        <time>1970-01-01T02:25:22.000Z</time>
      </trkpt>
      <trkpt lat="45.98143" lon="4.53879">
        <ele>561.3</ele>
        <time>1970-01-01T02:25:23.000Z</time>
      </trkpt>
      <trkpt lat="45.98143" lon="4.53879">
        <ele>561.3</ele>
        <time>1970-01-01T02:25:24.000Z</time>
      </trkpt>
      <trkpt lat="45.9814" lon="4.5388">
        <ele>561.4</ele>
        <time>1970-01-01T02:25:25.000Z</time>
      </trkpt>
      <trkpt lat="45.9814" lon="4.5388">
        <ele>561.4</ele>
        <time>1970-01-01T02:25:26.000Z</time>
      </trkpt>
      <trkpt lat="45.98138" lon="4.5388">
        <ele>561.6</ele>
        <time>1970-01-01T02:25:27.000Z</time>
      </trkpt>
      <trkpt lat="45.98138" lon="4.5388">
        <ele>561.6</ele>
        <time>1970-01-01T02:25:28.000Z</time>
      </trkpt>
      <trkpt lat="45.98135" lon="4.53881">
        <ele>561.8</ele>
        <time>1970-01-01T02:25:29.000Z</time>
      </trkpt>
      <trkpt lat="45.98135" lon="4.53881">
        <ele>561.8</ele>
        <time>1970-01-01T02:25:30.000Z</time>
      </trkpt>
      <trkpt lat="45.98133" lon="4.53883">
        <ele>561.9</ele>
        <time>1970-01-01T02:25:31.000Z</time>
      </trkpt>
      <trkpt lat="45.98133" lon="4.53883">
        <ele>561.9</ele>
        <time>1970-01-01T02:25:32.000Z</time>
      </trkpt>
      <trkpt lat="45.98131" lon="4.53883">
        <ele>562.1</ele>
        <time>1970-01-01T02:25:33.000Z</time>
      </trkpt>
      <trkpt lat="45.98131" lon="4.53883">
        <ele>562.1</ele>
        <time>1970-01-01T02:25:34.000Z</time>
      </trkpt>
      <trkpt lat="45.98128" lon="4.53883">
        <ele>562.2</ele>
        <time>1970-01-01T02:25:35.000Z</time>
      </trkpt>
      <trkpt lat="45.98128" lon="4.53883">
        <ele>562.2</ele>
        <time>1970-01-01T02:25:36.000Z</time>
      </trkpt>
      <trkpt lat="45.98126" lon="4.53883">
        <ele>562.3</ele>
        <time>1970-01-01T02:25:37.000Z</time>
      </trkpt>
      <trkpt lat="45.98126" lon="4.53883">
        <ele>562.3</ele>
        <time>1970-01-01T02:25:38.000Z</time>
      </trkpt>
      <trkpt lat="45.98124" lon="4.53884">
        <ele>562.5</ele>
        <time>1970-01-01T02:25:39.000Z</time>
      </trkpt>
      <trkpt lat="45.98124" lon="4.53884">
        <ele>562.5</ele>
        <time>1970-01-01T02:25:40.000Z</time>
      </trkpt>
      <trkpt lat="45.98122" lon="4.53885">
        <ele>562.6</ele>
        <time>1970-01-01T02:25:41.000Z</time>
      </trkpt>
      <trkpt lat="45.98122" lon="4.53885">
        <ele>562.6</ele>
        <time>1970-01-01T02:25:42.000Z</time>
      </trkpt>
      <trkpt lat="45.9812" lon="4.53886">
        <ele>562.7</ele>
        <time>1970-01-01T02:25:43.000Z</time>
      </trkpt>
      <trkpt lat="45.9812" lon="4.53886">
        <ele>562.7</ele>
        <time>1970-01-01T02:25:44.000Z</time>
      </trkpt>
      <trkpt lat="45.9812" lon="4.53886">
        <ele>562.7</ele>
        <time>1970-01-01T02:25:45.000Z</time>
      </trkpt>
      <trkpt lat="45.98118" lon="4.53887">
        <ele>562.8</ele>
        <time>1970-01-01T02:25:46.000Z</time>
      </trkpt>
      <trkpt lat="45.98118" lon="4.53887">
        <ele>562.8</ele>
        <time>1970-01-01T02:25:47.000Z</time>
      </trkpt>
      <trkpt lat="45.98116" lon="4.53888">
        <ele>562.9</ele>
        <time>1970-01-01T02:25:48.000Z</time>
      </trkpt>
      <trkpt lat="45.98116" lon="4.53888">
        <ele>562.9</ele>
        <time>1970-01-01T02:25:49.000Z</time>
      </trkpt>
      <trkpt lat="45.98114" lon="4.53889">
        <ele>563.1</ele>
        <time>1970-01-01T02:25:50.000Z</time>
      </trkpt>
      <trkpt lat="45.98114" lon="4.53889">
        <ele>563.1</ele>
        <time>1970-01-01T02:25:51.000Z</time>
      </trkpt>
      <trkpt lat="45.98112" lon="4.53891">
        <ele>563.2</ele>
        <time>1970-01-01T02:25:52.000Z</time>
      </trkpt>
      <trkpt lat="45.98112" lon="4.53891">
        <ele>563.2</ele>
        <time>1970-01-01T02:25:53.000Z</time>
      </trkpt>
      <trkpt lat="45.9811" lon="4.53893">
        <ele>563.3</ele>
        <time>1970-01-01T02:25:54.000Z</time>
      </trkpt>
      <trkpt lat="45.9811" lon="4.53893">
        <ele>563.3</ele>
        <time>1970-01-01T02:25:55.000Z</time>
      </trkpt>
      <trkpt lat="45.9811" lon="4.53893">
        <ele>563.3</ele>
        <time>1970-01-01T02:25:56.000Z</time>
      </trkpt>
      <trkpt lat="45.98108" lon="4.53895">
        <ele>563.5</ele>
        <time>1970-01-01T02:25:57.000Z</time>
      </trkpt>
      <trkpt lat="45.98108" lon="4.53895">
        <ele>563.5</ele>
        <time>1970-01-01T02:25:58.000Z</time>
      </trkpt>
      <trkpt lat="45.98106" lon="4.53899">
        <ele>563.6</ele>
        <time>1970-01-01T02:25:59.000Z</time>
      </trkpt>
      <trkpt lat="45.98106" lon="4.53899">
        <ele>563.6</ele>
        <time>1970-01-01T02:26:00.000Z</time>
      </trkpt>
      <trkpt lat="45.98105" lon="4.53901">
        <ele>563.7</ele>
        <time>1970-01-01T02:26:01.000Z</time>
      </trkpt>
      <trkpt lat="45.98105" lon="4.53901">
        <ele>563.7</ele>
        <time>1970-01-01T02:26:02.000Z</time>
      </trkpt>
      <trkpt lat="45.98103" lon="4.53904">
        <ele>563.9</ele>
        <time>1970-01-01T02:26:03.000Z</time>
      </trkpt>
      <trkpt lat="45.98103" lon="4.53904">
        <ele>563.9</ele>
        <time>1970-01-01T02:26:04.000Z</time>
      </trkpt>
      <trkpt lat="45.98102" lon="4.53906">
        <ele>563.9</ele>
        <time>1970-01-01T02:26:05.000Z</time>
      </trkpt>
      <trkpt lat="45.98102" lon="4.53906">
        <ele>563.9</ele>
        <time>1970-01-01T02:26:06.000Z</time>
      </trkpt>
      <trkpt lat="45.98101" lon="4.53909">
        <ele>564</ele>
        <time>1970-01-01T02:26:07.000Z</time>
      </trkpt>
      <trkpt lat="45.98101" lon="4.53909">
        <ele>564</ele>
        <time>1970-01-01T02:26:08.000Z</time>
      </trkpt>
      <trkpt lat="45.981" lon="4.53911">
        <ele>564.1</ele>
        <time>1970-01-01T02:26:09.000Z</time>
      </trkpt>
      <trkpt lat="45.981" lon="4.53911">
        <ele>564.1</ele>
        <time>1970-01-01T02:26:10.000Z</time>
      </trkpt>
      <trkpt lat="45.98099" lon="4.53914">
        <ele>564.1</ele>
        <time>1970-01-01T02:26:11.000Z</time>
      </trkpt>
      <trkpt lat="45.98099" lon="4.53914">
        <ele>564.1</ele>
        <time>1970-01-01T02:26:12.000Z</time>
      </trkpt>
      <trkpt lat="45.98097" lon="4.53916">
        <ele>564.2</ele>
        <time>1970-01-01T02:26:13.000Z</time>
      </trkpt>
      <trkpt lat="45.98097" lon="4.53916">
        <ele>564.2</ele>
        <time>1970-01-01T02:26:14.000Z</time>
      </trkpt>
      <trkpt lat="45.98096" lon="4.53918">
        <ele>564.2</ele>
        <time>1970-01-01T02:26:15.000Z</time>
      </trkpt>
      <trkpt lat="45.98096" lon="4.53918">
        <ele>564.2</ele>
        <time>1970-01-01T02:26:16.000Z</time>
      </trkpt>
      <trkpt lat="45.98094" lon="4.53921">
        <ele>564.2</ele>
        <time>1970-01-01T02:26:17.000Z</time>
      </trkpt>
      <trkpt lat="45.98094" lon="4.53921">
        <ele>564.2</ele>
        <time>1970-01-01T02:26:18.000Z</time>
      </trkpt>
      <trkpt lat="45.98092" lon="4.53922">
        <ele>564.2</ele>
        <time>1970-01-01T02:26:19.000Z</time>
      </trkpt>
      <trkpt lat="45.98092" lon="4.53922">
        <ele>564.2</ele>
        <time>1970-01-01T02:26:20.000Z</time>
      </trkpt>
      <trkpt lat="45.98091" lon="4.53924">
        <ele>564.1</ele>
        <time>1970-01-01T02:26:21.000Z</time>
      </trkpt>
      <trkpt lat="45.98091" lon="4.53924">
        <ele>564.1</ele>
        <time>1970-01-01T02:26:22.000Z</time>
      </trkpt>
      <trkpt lat="45.98089" lon="4.53927">
        <ele>564.1</ele>
        <time>1970-01-01T02:26:23.000Z</time>
      </trkpt>
      <trkpt lat="45.98089" lon="4.53927">
        <ele>564.1</ele>
        <time>1970-01-01T02:26:24.000Z</time>
      </trkpt>
      <trkpt lat="45.98087" lon="4.53929">
        <ele>564</ele>
        <time>1970-01-01T02:26:25.000Z</time>
      </trkpt>
      <trkpt lat="45.98086" lon="4.53932">
        <ele>564</ele>
        <time>1970-01-01T02:26:27.000Z</time>
      </trkpt>
      <trkpt lat="45.98086" lon="4.53932">
        <ele>564</ele>
        <time>1970-01-01T02:26:28.000Z</time>
      </trkpt>
      <trkpt lat="45.98086" lon="4.53932">
        <ele>564</ele>
        <time>1970-01-01T02:26:29.000Z</time>
      </trkpt>
      <trkpt lat="45.98085" lon="4.53934">
        <ele>563.9</ele>
        <time>1970-01-01T02:26:30.000Z</time>
      </trkpt>
      <trkpt lat="45.98085" lon="4.53934">
        <ele>563.9</ele>
        <time>1970-01-01T02:26:31.000Z</time>
      </trkpt>
      <trkpt lat="45.98084" lon="4.53936">
        <ele>563.8</ele>
        <time>1970-01-01T02:26:32.000Z</time>
      </trkpt>
      <trkpt lat="45.98084" lon="4.53936">
        <ele>563.8</ele>
        <time>1970-01-01T02:26:33.000Z</time>
      </trkpt>
      <trkpt lat="45.98082" lon="4.53939">
        <ele>563.7</ele>
        <time>1970-01-01T02:26:34.000Z</time>
      </trkpt>
      <trkpt lat="45.98082" lon="4.53939">
        <ele>563.7</ele>
        <time>1970-01-01T02:26:35.000Z</time>
      </trkpt>
      <trkpt lat="45.9808" lon="4.53941">
        <ele>563.6</ele>
        <time>1970-01-01T02:26:36.000Z</time>
      </trkpt>
      <trkpt lat="45.9808" lon="4.53941">
        <ele>563.6</ele>
        <time>1970-01-01T02:26:37.000Z</time>
      </trkpt>
      <trkpt lat="45.98078" lon="4.53943">
        <ele>563.5</ele>
        <time>1970-01-01T02:26:38.000Z</time>
      </trkpt>
      <trkpt lat="45.98078" lon="4.53943">
        <ele>563.5</ele>
        <time>1970-01-01T02:26:39.000Z</time>
      </trkpt>
      <trkpt lat="45.98076" lon="4.53945">
        <ele>563.4</ele>
        <time>1970-01-01T02:26:40.000Z</time>
      </trkpt>
      <trkpt lat="45.98076" lon="4.53945">
        <ele>563.4</ele>
        <time>1970-01-01T02:26:41.000Z</time>
      </trkpt>
      <trkpt lat="45.98075" lon="4.53947">
        <ele>563.3</ele>
        <time>1970-01-01T02:26:42.000Z</time>
      </trkpt>
      <trkpt lat="45.98075" lon="4.53947">
        <ele>563.3</ele>
        <time>1970-01-01T02:26:43.000Z</time>
      </trkpt>
      <trkpt lat="45.98074" lon="4.5395">
        <ele>563.2</ele>
        <time>1970-01-01T02:26:44.000Z</time>
      </trkpt>
      <trkpt lat="45.98074" lon="4.5395">
        <ele>563.2</ele>
        <time>1970-01-01T02:26:45.000Z</time>
      </trkpt>
      <trkpt lat="45.98074" lon="4.5395">
        <ele>563.2</ele>
        <time>1970-01-01T02:26:46.000Z</time>
      </trkpt>
      <trkpt lat="45.98073" lon="4.53953">
        <ele>563.1</ele>
        <time>1970-01-01T02:26:47.000Z</time>
      </trkpt>
      <trkpt lat="45.98073" lon="4.53953">
        <ele>563.1</ele>
        <time>1970-01-01T02:26:48.000Z</time>
      </trkpt>
      <trkpt lat="45.98073" lon="4.53953">
        <ele>563.1</ele>
        <time>1970-01-01T02:26:49.000Z</time>
      </trkpt>
      <trkpt lat="45.98071" lon="4.53954">
        <ele>563</ele>
        <time>1970-01-01T02:26:50.000Z</time>
      </trkpt>
      <trkpt lat="45.98071" lon="4.53954">
        <ele>563</ele>
        <time>1970-01-01T02:26:51.000Z</time>
      </trkpt>
      <trkpt lat="45.98071" lon="4.53954">
        <ele>563</ele>
        <time>1970-01-01T02:26:52.000Z</time>
      </trkpt>
      <trkpt lat="45.98071" lon="4.53954">
        <ele>563</ele>
        <time>1970-01-01T02:26:53.000Z</time>
      </trkpt>
      <trkpt lat="45.9807" lon="4.53957">
        <ele>562.9</ele>
        <time>1970-01-01T02:26:54.000Z</time>
      </trkpt>
      <trkpt lat="45.9807" lon="4.53957">
        <ele>562.9</ele>
        <time>1970-01-01T02:26:55.000Z</time>
      </trkpt>
      <trkpt lat="45.9807" lon="4.53957">
        <ele>562.9</ele>
        <time>1970-01-01T02:26:56.000Z</time>
      </trkpt>
      <trkpt lat="45.9807" lon="4.53957">
        <ele>562.9</ele>
        <time>1970-01-01T02:26:57.000Z</time>
      </trkpt>
      <trkpt lat="45.98069" lon="4.53961">
        <ele>562.8</ele>
        <time>1970-01-01T02:26:58.000Z</time>
      </trkpt>
      <trkpt lat="45.98069" lon="4.53961">
        <ele>562.8</ele>
        <time>1970-01-01T02:26:59.000Z</time>
      </trkpt>
      <trkpt lat="45.98068" lon="4.53964">
        <ele>562.8</ele>
        <time>1970-01-01T02:27:00.000Z</time>
      </trkpt>
      <trkpt lat="45.98068" lon="4.53964">
        <ele>562.8</ele>
        <time>1970-01-01T02:27:01.000Z</time>
      </trkpt>
      <trkpt lat="45.98067" lon="4.53967">
        <ele>562.8</ele>
        <time>1970-01-01T02:27:02.000Z</time>
      </trkpt>
      <trkpt lat="45.98067" lon="4.53967">
        <ele>562.8</ele>
        <time>1970-01-01T02:27:03.000Z</time>
      </trkpt>
      <trkpt lat="45.98066" lon="4.5397">
        <ele>562.8</ele>
        <time>1970-01-01T02:27:04.000Z</time>
      </trkpt>
      <trkpt lat="45.98066" lon="4.5397">
        <ele>562.8</ele>
        <time>1970-01-01T02:27:05.000Z</time>
      </trkpt>
      <trkpt lat="45.98066" lon="4.53973">
        <ele>562.9</ele>
        <time>1970-01-01T02:27:06.000Z</time>
      </trkpt>
      <trkpt lat="45.98066" lon="4.53973">
        <ele>562.9</ele>
        <time>1970-01-01T02:27:07.000Z</time>
      </trkpt>
      <trkpt lat="45.98065" lon="4.53977">
        <ele>563</ele>
        <time>1970-01-01T02:27:08.000Z</time>
      </trkpt>
      <trkpt lat="45.98065" lon="4.53977">
        <ele>563</ele>
        <time>1970-01-01T02:27:09.000Z</time>
      </trkpt>
      <trkpt lat="45.98065" lon="4.5398">
        <ele>563.2</ele>
        <time>1970-01-01T02:27:10.000Z</time>
      </trkpt>
      <trkpt lat="45.98065" lon="4.5398">
        <ele>563.2</ele>
        <time>1970-01-01T02:27:11.000Z</time>
      </trkpt>
      <trkpt lat="45.98065" lon="4.53983">
        <ele>563.3</ele>
        <time>1970-01-01T02:27:12.000Z</time>
      </trkpt>
      <trkpt lat="45.98065" lon="4.53983">
        <ele>563.3</ele>
        <time>1970-01-01T02:27:13.000Z</time>
      </trkpt>
      <trkpt lat="45.98065" lon="4.53986">
        <ele>563.5</ele>
        <time>1970-01-01T02:27:14.000Z</time>
      </trkpt>
      <trkpt lat="45.98065" lon="4.53986">
        <ele>563.5</ele>
        <time>1970-01-01T02:27:15.000Z</time>
      </trkpt>
      <trkpt lat="45.98065" lon="4.53989">
        <ele>563.7</ele>
        <time>1970-01-01T02:27:16.000Z</time>
      </trkpt>
      <trkpt lat="45.98065" lon="4.53991">
        <ele>563.8</ele>
        <time>1970-01-01T02:27:17.000Z</time>
      </trkpt>
      <trkpt lat="45.98064" lon="4.53992">
        <ele>563.9</ele>
        <time>1970-01-01T02:27:18.000Z</time>
      </trkpt>
      <trkpt lat="45.98064" lon="4.53994">
        <ele>564</ele>
        <time>1970-01-01T02:27:19.000Z</time>
      </trkpt>
      <trkpt lat="45.98064" lon="4.53995">
        <ele>564.1</ele>
        <time>1970-01-01T02:27:20.000Z</time>
      </trkpt>
      <trkpt lat="45.98064" lon="4.53997">
        <ele>564.3</ele>
        <time>1970-01-01T02:27:21.000Z</time>
      </trkpt>
      <trkpt lat="45.98064" lon="4.53999">
        <ele>564.4</ele>
        <time>1970-01-01T02:27:22.000Z</time>
      </trkpt>
      <trkpt lat="45.98064" lon="4.54">
        <ele>564.5</ele>
        <time>1970-01-01T02:27:23.000Z</time>
      </trkpt>
      <trkpt lat="45.98063" lon="4.54002">
        <ele>564.6</ele>
        <time>1970-01-01T02:27:24.000Z</time>
      </trkpt>
      <trkpt lat="45.98063" lon="4.54003">
        <ele>564.7</ele>
        <time>1970-01-01T02:27:25.000Z</time>
      </trkpt>
      <trkpt lat="45.98063" lon="4.54005">
        <ele>564.8</ele>
        <time>1970-01-01T02:27:26.000Z</time>
      </trkpt>
      <trkpt lat="45.98062" lon="4.54007">
        <ele>565</ele>
        <time>1970-01-01T02:27:27.000Z</time>
      </trkpt>
      <trkpt lat="45.98062" lon="4.54008">
        <ele>565.1</ele>
        <time>1970-01-01T02:27:28.000Z</time>
      </trkpt>
      <trkpt lat="45.98061" lon="4.5401">
        <ele>565.2</ele>
        <time>1970-01-01T02:27:29.000Z</time>
      </trkpt>
      <trkpt lat="45.98061" lon="4.54012">
        <ele>565.3</ele>
        <time>1970-01-01T02:27:30.000Z</time>
      </trkpt>
      <trkpt lat="45.9806" lon="4.54013">
        <ele>565.4</ele>
        <time>1970-01-01T02:27:31.000Z</time>
      </trkpt>
      <trkpt lat="45.9806" lon="4.54015">
        <ele>565.5</ele>
        <time>1970-01-01T02:27:32.000Z</time>
      </trkpt>
      <trkpt lat="45.9806" lon="4.54015">
        <ele>565.5</ele>
        <time>1970-01-01T02:27:33.000Z</time>
      </trkpt>
      <trkpt lat="45.98059" lon="4.54018">
        <ele>565.7</ele>
        <time>1970-01-01T02:27:34.000Z</time>
      </trkpt>
      <trkpt lat="45.98059" lon="4.54018">
        <ele>565.7</ele>
        <time>1970-01-01T02:27:35.000Z</time>
      </trkpt>
      <trkpt lat="45.98059" lon="4.54018">
        <ele>565.7</ele>
        <time>1970-01-01T02:27:36.000Z</time>
      </trkpt>
      <trkpt lat="45.98058" lon="4.54022">
        <ele>565.9</ele>
        <time>1970-01-01T02:27:37.000Z</time>
      </trkpt>
      <trkpt lat="45.98058" lon="4.54024">
        <ele>565.9</ele>
        <time>1970-01-01T02:27:38.000Z</time>
      </trkpt>
      <trkpt lat="45.98057" lon="4.54026">
        <ele>566</ele>
        <time>1970-01-01T02:27:39.000Z</time>
      </trkpt>
      <trkpt lat="45.98056" lon="4.54028">
        <ele>566.1</ele>
        <time>1970-01-01T02:27:40.000Z</time>
      </trkpt>
      <trkpt lat="45.98056" lon="4.5403">
        <ele>566.2</ele>
        <time>1970-01-01T02:27:41.000Z</time>
      </trkpt>
      <trkpt lat="45.98055" lon="4.54031">
        <ele>566.2</ele>
        <time>1970-01-01T02:27:42.000Z</time>
      </trkpt>
      <trkpt lat="45.98055" lon="4.54033">
        <ele>566.3</ele>
        <time>1970-01-01T02:27:43.000Z</time>
      </trkpt>
      <trkpt lat="45.98054" lon="4.54035">
        <ele>566.4</ele>
        <time>1970-01-01T02:27:44.000Z</time>
      </trkpt>
      <trkpt lat="45.98054" lon="4.54035">
        <ele>566.4</ele>
        <time>1970-01-01T02:27:45.000Z</time>
      </trkpt>
      <trkpt lat="45.98053" lon="4.54039">
        <ele>566.5</ele>
        <time>1970-01-01T02:27:46.000Z</time>
      </trkpt>
      <trkpt lat="45.98053" lon="4.54039">
        <ele>566.5</ele>
        <time>1970-01-01T02:27:47.000Z</time>
      </trkpt>
      <trkpt lat="45.98052" lon="4.54043">
        <ele>566.6</ele>
        <time>1970-01-01T02:27:48.000Z</time>
      </trkpt>
      <trkpt lat="45.98052" lon="4.54043">
        <ele>566.6</ele>
        <time>1970-01-01T02:27:49.000Z</time>
      </trkpt>
      <trkpt lat="45.98051" lon="4.54047">
        <ele>566.6</ele>
        <time>1970-01-01T02:27:50.000Z</time>
      </trkpt>
      <trkpt lat="45.9805" lon="4.54049">
        <ele>566.7</ele>
        <time>1970-01-01T02:27:51.000Z</time>
      </trkpt>
      <trkpt lat="45.9805" lon="4.54051">
        <ele>566.7</ele>
        <time>1970-01-01T02:27:52.000Z</time>
      </trkpt>
      <trkpt lat="45.98049" lon="4.54053">
        <ele>566.7</ele>
        <time>1970-01-01T02:27:53.000Z</time>
      </trkpt>
      <trkpt lat="45.98048" lon="4.54055">
        <ele>566.7</ele>
        <time>1970-01-01T02:27:54.000Z</time>
      </trkpt>
      <trkpt lat="45.98048" lon="4.54057">
        <ele>566.8</ele>
        <time>1970-01-01T02:27:55.000Z</time>
      </trkpt>
      <trkpt lat="45.98047" lon="4.54059">
        <ele>566.8</ele>
        <time>1970-01-01T02:27:56.000Z</time>
      </trkpt>
      <trkpt lat="45.98047" lon="4.54059">
        <ele>566.8</ele>
        <time>1970-01-01T02:27:57.000Z</time>
      </trkpt>
      <trkpt lat="45.98046" lon="4.54062">
        <ele>566.8</ele>
        <time>1970-01-01T02:27:58.000Z</time>
      </trkpt>
      <trkpt lat="45.98046" lon="4.54062">
        <ele>566.8</ele>
        <time>1970-01-01T02:27:59.000Z</time>
      </trkpt>
      <trkpt lat="45.98045" lon="4.54065">
        <ele>566.8</ele>
        <time>1970-01-01T02:28:00.000Z</time>
      </trkpt>
      <trkpt lat="45.98045" lon="4.54065">
        <ele>566.8</ele>
        <time>1970-01-01T02:28:01.000Z</time>
      </trkpt>
      <trkpt lat="45.98043" lon="4.54068">
        <ele>566.9</ele>
        <time>1970-01-01T02:28:02.000Z</time>
      </trkpt>
      <trkpt lat="45.98043" lon="4.54068">
        <ele>566.9</ele>
        <time>1970-01-01T02:28:03.000Z</time>
      </trkpt>
      <trkpt lat="45.98042" lon="4.54072">
        <ele>566.9</ele>
        <time>1970-01-01T02:28:04.000Z</time>
      </trkpt>
      <trkpt lat="45.98042" lon="4.54072">
        <ele>566.9</ele>
        <time>1970-01-01T02:28:05.000Z</time>
      </trkpt>
      <trkpt lat="45.98041" lon="4.54075">
        <ele>567</ele>
        <time>1970-01-01T02:28:06.000Z</time>
      </trkpt>
      <trkpt lat="45.98041" lon="4.54075">
        <ele>567</ele>
        <time>1970-01-01T02:28:07.000Z</time>
      </trkpt>
      <trkpt lat="45.9804" lon="4.54079">
        <ele>567</ele>
        <time>1970-01-01T02:28:08.000Z</time>
      </trkpt>
      <trkpt lat="45.9804" lon="4.54079">
        <ele>567</ele>
        <time>1970-01-01T02:28:09.000Z</time>
      </trkpt>
      <trkpt lat="45.98037" lon="4.54082">
        <ele>567.1</ele>
        <time>1970-01-01T02:28:10.000Z</time>
      </trkpt>
      <trkpt lat="45.98037" lon="4.54082">
        <ele>567.1</ele>
        <time>1970-01-01T02:28:11.000Z</time>
      </trkpt>
      <trkpt lat="45.98036" lon="4.54085">
        <ele>567.2</ele>
        <time>1970-01-01T02:28:12.000Z</time>
      </trkpt>
      <trkpt lat="45.98035" lon="4.54086">
        <ele>567.2</ele>
        <time>1970-01-01T02:28:13.000Z</time>
      </trkpt>
      <trkpt lat="45.98034" lon="4.54087">
        <ele>567.2</ele>
        <time>1970-01-01T02:28:14.000Z</time>
      </trkpt>
      <trkpt lat="45.98033" lon="4.54088">
        <ele>567.2</ele>
        <time>1970-01-01T02:28:15.000Z</time>
      </trkpt>
      <trkpt lat="45.98032" lon="4.5409">
        <ele>567.3</ele>
        <time>1970-01-01T02:28:16.000Z</time>
      </trkpt>
      <trkpt lat="45.98032" lon="4.54091">
        <ele>567.3</ele>
        <time>1970-01-01T02:28:17.000Z</time>
      </trkpt>
      <trkpt lat="45.98031" lon="4.54092">
        <ele>567.3</ele>
        <time>1970-01-01T02:28:18.000Z</time>
      </trkpt>
      <trkpt lat="45.9803" lon="4.54093">
        <ele>567.3</ele>
        <time>1970-01-01T02:28:19.000Z</time>
      </trkpt>
      <trkpt lat="45.98029" lon="4.54094">
        <ele>567.4</ele>
        <time>1970-01-01T02:28:20.000Z</time>
      </trkpt>
      <trkpt lat="45.98028" lon="4.54095">
        <ele>567.4</ele>
        <time>1970-01-01T02:28:21.000Z</time>
      </trkpt>
      <trkpt lat="45.98027" lon="4.54097">
        <ele>567.4</ele>
        <time>1970-01-01T02:28:22.000Z</time>
      </trkpt>
      <trkpt lat="45.98026" lon="4.54098">
        <ele>567.4</ele>
        <time>1970-01-01T02:28:23.000Z</time>
      </trkpt>
      <trkpt lat="45.98025" lon="4.541">
        <ele>567.5</ele>
        <time>1970-01-01T02:28:24.000Z</time>
      </trkpt>
      <trkpt lat="45.98024" lon="4.54101">
        <ele>567.5</ele>
        <time>1970-01-01T02:28:25.000Z</time>
      </trkpt>
      <trkpt lat="45.98023" lon="4.54102">
        <ele>567.5</ele>
        <time>1970-01-01T02:28:26.000Z</time>
      </trkpt>
      <trkpt lat="45.98022" lon="4.54104">
        <ele>567.5</ele>
        <time>1970-01-01T02:28:27.000Z</time>
      </trkpt>
      <trkpt lat="45.98021" lon="4.54106">
        <ele>567.6</ele>
        <time>1970-01-01T02:28:28.000Z</time>
      </trkpt>
      <trkpt lat="45.9802" lon="4.54108">
        <ele>567.6</ele>
        <time>1970-01-01T02:28:29.000Z</time>
      </trkpt>
      <trkpt lat="45.98019" lon="4.5411">
        <ele>567.6</ele>
        <time>1970-01-01T02:28:30.000Z</time>
      </trkpt>
      <trkpt lat="45.98019" lon="4.54112">
        <ele>567.7</ele>
        <time>1970-01-01T02:28:31.000Z</time>
      </trkpt>
      <trkpt lat="45.98019" lon="4.54112">
        <ele>567.7</ele>
        <time>1970-01-01T02:28:32.000Z</time>
      </trkpt>
      <trkpt lat="45.98017" lon="4.54114">
        <ele>567.7</ele>
        <time>1970-01-01T02:28:33.000Z</time>
      </trkpt>
      <trkpt lat="45.98017" lon="4.54114">
        <ele>567.7</ele>
        <time>1970-01-01T02:28:34.000Z</time>
      </trkpt>
      <trkpt lat="45.98015" lon="4.54116">
        <ele>567.8</ele>
        <time>1970-01-01T02:28:35.000Z</time>
      </trkpt>
      <trkpt lat="45.98015" lon="4.54116">
        <ele>567.8</ele>
        <time>1970-01-01T02:28:36.000Z</time>
      </trkpt>
      <trkpt lat="45.98014" lon="4.54118">
        <ele>567.8</ele>
        <time>1970-01-01T02:28:37.000Z</time>
      </trkpt>
      <trkpt lat="45.98014" lon="4.54118">
        <ele>567.8</ele>
        <time>1970-01-01T02:28:38.000Z</time>
      </trkpt>
      <trkpt lat="45.98011" lon="4.54121">
        <ele>567.8</ele>
        <time>1970-01-01T02:28:39.000Z</time>
      </trkpt>
      <trkpt lat="45.98011" lon="4.54121">
        <ele>567.8</ele>
        <time>1970-01-01T02:28:40.000Z</time>
      </trkpt>
      <trkpt lat="45.98009" lon="4.54123">
        <ele>567.8</ele>
        <time>1970-01-01T02:28:41.000Z</time>
      </trkpt>
      <trkpt lat="45.98008" lon="4.54124">
        <ele>567.9</ele>
        <time>1970-01-01T02:28:42.000Z</time>
      </trkpt>
      <trkpt lat="45.98007" lon="4.54126">
        <ele>567.9</ele>
        <time>1970-01-01T02:28:43.000Z</time>
      </trkpt>
      <trkpt lat="45.98006" lon="4.54127">
        <ele>567.9</ele>
        <time>1970-01-01T02:28:44.000Z</time>
      </trkpt>
      <trkpt lat="45.98005" lon="4.54128">
        <ele>567.9</ele>
        <time>1970-01-01T02:28:45.000Z</time>
      </trkpt>
      <trkpt lat="45.98005" lon="4.5413">
        <ele>567.9</ele>
        <time>1970-01-01T02:28:46.000Z</time>
      </trkpt>
      <trkpt lat="45.98004" lon="4.54131">
        <ele>567.9</ele>
        <time>1970-01-01T02:28:47.000Z</time>
      </trkpt>
      <trkpt lat="45.98004" lon="4.54131">
        <ele>567.9</ele>
        <time>1970-01-01T02:28:48.000Z</time>
      </trkpt>
      <trkpt lat="45.98002" lon="4.54134">
        <ele>567.9</ele>
        <time>1970-01-01T02:28:49.000Z</time>
      </trkpt>
      <trkpt lat="45.98001" lon="4.54136">
        <ele>567.9</ele>
        <time>1970-01-01T02:28:50.000Z</time>
      </trkpt>
      <trkpt lat="45.98" lon="4.54137">
        <ele>567.9</ele>
        <time>1970-01-01T02:28:51.000Z</time>
      </trkpt>
      <trkpt lat="45.97998" lon="4.54139">
        <ele>567.9</ele>
        <time>1970-01-01T02:28:52.000Z</time>
      </trkpt>
      <trkpt lat="45.97997" lon="4.54141">
        <ele>567.9</ele>
        <time>1970-01-01T02:28:53.000Z</time>
      </trkpt>
      <trkpt lat="45.97996" lon="4.54143">
        <ele>567.9</ele>
        <time>1970-01-01T02:28:54.000Z</time>
      </trkpt>
      <trkpt lat="45.97995" lon="4.54144">
        <ele>567.9</ele>
        <time>1970-01-01T02:28:55.000Z</time>
      </trkpt>
      <trkpt lat="45.97995" lon="4.54144">
        <ele>567.9</ele>
        <time>1970-01-01T02:28:56.000Z</time>
      </trkpt>
      <trkpt lat="45.97994" lon="4.54147">
        <ele>567.9</ele>
        <time>1970-01-01T02:28:57.000Z</time>
      </trkpt>
      <trkpt lat="45.97994" lon="4.54147">
        <ele>567.9</ele>
        <time>1970-01-01T02:28:58.000Z</time>
      </trkpt>
      <trkpt lat="45.97992" lon="4.54148">
        <ele>567.9</ele>
        <time>1970-01-01T02:28:59.000Z</time>
      </trkpt>
      <trkpt lat="45.97992" lon="4.54148">
        <ele>567.9</ele>
        <time>1970-01-01T02:29:00.000Z</time>
      </trkpt>
      <trkpt lat="45.9799" lon="4.5415">
        <ele>567.9</ele>
        <time>1970-01-01T02:29:01.000Z</time>
      </trkpt>
      <trkpt lat="45.9799" lon="4.5415">
        <ele>567.9</ele>
        <time>1970-01-01T02:29:02.000Z</time>
      </trkpt>
      <trkpt lat="45.97987" lon="4.54152">
        <ele>567.9</ele>
        <time>1970-01-01T02:29:03.000Z</time>
      </trkpt>
      <trkpt lat="45.97987" lon="4.54152">
        <ele>567.9</ele>
        <time>1970-01-01T02:29:04.000Z</time>
      </trkpt>
      <trkpt lat="45.97985" lon="4.54155">
        <ele>567.9</ele>
        <time>1970-01-01T02:29:05.000Z</time>
      </trkpt>
      <trkpt lat="45.97984" lon="4.54156">
        <ele>567.9</ele>
        <time>1970-01-01T02:29:06.000Z</time>
      </trkpt>
      <trkpt lat="45.97983" lon="4.54157">
        <ele>567.9</ele>
        <time>1970-01-01T02:29:07.000Z</time>
      </trkpt>
      <trkpt lat="45.97982" lon="4.54159">
        <ele>567.9</ele>
        <time>1970-01-01T02:29:08.000Z</time>
      </trkpt>
      <trkpt lat="45.97981" lon="4.5416">
        <ele>567.8</ele>
        <time>1970-01-01T02:29:09.000Z</time>
      </trkpt>
      <trkpt lat="45.9798" lon="4.54161">
        <ele>567.8</ele>
        <time>1970-01-01T02:29:10.000Z</time>
      </trkpt>
      <trkpt lat="45.97979" lon="4.54163">
        <ele>567.8</ele>
        <time>1970-01-01T02:29:11.000Z</time>
      </trkpt>
      <trkpt lat="45.97978" lon="4.54164">
        <ele>567.8</ele>
        <time>1970-01-01T02:29:12.000Z</time>
      </trkpt>
      <trkpt lat="45.97978" lon="4.54164">
        <ele>567.8</ele>
        <time>1970-01-01T02:29:13.000Z</time>
      </trkpt>
      <trkpt lat="45.97977" lon="4.54165">
        <ele>567.8</ele>
        <time>1970-01-01T02:29:14.000Z</time>
      </trkpt>
      <trkpt lat="45.97977" lon="4.54165">
        <ele>567.8</ele>
        <time>1970-01-01T02:29:15.000Z</time>
      </trkpt>
      <trkpt lat="45.97977" lon="4.54166">
        <ele>567.8</ele>
        <time>1970-01-01T02:29:16.000Z</time>
      </trkpt>
      <trkpt lat="45.97976" lon="4.54167">
        <ele>567.8</ele>
        <time>1970-01-01T02:29:17.000Z</time>
      </trkpt>
      <trkpt lat="45.97976" lon="4.54167">
        <ele>567.8</ele>
        <time>1970-01-01T02:29:18.000Z</time>
      </trkpt>
      <trkpt lat="45.97975" lon="4.54168">
        <ele>567.8</ele>
        <time>1970-01-01T02:29:19.000Z</time>
      </trkpt>
      <trkpt lat="45.97975" lon="4.54168">
        <ele>567.8</ele>
        <time>1970-01-01T02:29:20.000Z</time>
      </trkpt>
      <trkpt lat="45.97975" lon="4.54169">
        <ele>567.8</ele>
        <time>1970-01-01T02:29:21.000Z</time>
      </trkpt>
      <trkpt lat="45.97974" lon="4.54169">
        <ele>567.8</ele>
        <time>1970-01-01T02:29:22.000Z</time>
      </trkpt>
      <trkpt lat="45.97969" lon="4.54177">
        <ele>567.7</ele>
        <time>1970-01-01T02:29:23.000Z</time>
      </trkpt>
      <trkpt lat="45.97968" lon="4.54179">
        <ele>567.7</ele>
        <time>1970-01-01T02:29:24.000Z</time>
      </trkpt>
      <trkpt lat="45.97967" lon="4.5418">
        <ele>567.7</ele>
        <time>1970-01-01T02:29:25.000Z</time>
      </trkpt>
      <trkpt lat="45.97966" lon="4.54182">
        <ele>567.7</ele>
        <time>1970-01-01T02:29:26.000Z</time>
      </trkpt>
      <trkpt lat="45.97965" lon="4.54183">
        <ele>567.7</ele>
        <time>1970-01-01T02:29:27.000Z</time>
      </trkpt>
      <trkpt lat="45.97963" lon="4.54185">
        <ele>567.7</ele>
        <time>1970-01-01T02:29:28.000Z</time>
      </trkpt>
      <trkpt lat="45.97962" lon="4.54186">
        <ele>567.7</ele>
        <time>1970-01-01T02:29:29.000Z</time>
      </trkpt>
      <trkpt lat="45.97961" lon="4.54187">
        <ele>567.7</ele>
        <time>1970-01-01T02:29:30.000Z</time>
      </trkpt>
      <trkpt lat="45.97959" lon="4.54189">
        <ele>567.7</ele>
        <time>1970-01-01T02:29:31.000Z</time>
      </trkpt>
      <trkpt lat="45.97959" lon="4.54189">
        <ele>567.7</ele>
        <time>1970-01-01T02:29:32.000Z</time>
      </trkpt>
      <trkpt lat="45.97957" lon="4.54192">
        <ele>567.7</ele>
        <time>1970-01-01T02:29:33.000Z</time>
      </trkpt>
      <trkpt lat="45.97957" lon="4.54192">
        <ele>567.7</ele>
        <time>1970-01-01T02:29:34.000Z</time>
      </trkpt>
      <trkpt lat="45.97955" lon="4.54194">
        <ele>567.6</ele>
        <time>1970-01-01T02:29:35.000Z</time>
      </trkpt>
      <trkpt lat="45.97955" lon="4.54194">
        <ele>567.6</ele>
        <time>1970-01-01T02:29:36.000Z</time>
      </trkpt>
      <trkpt lat="45.97953" lon="4.54197">
        <ele>567.6</ele>
        <time>1970-01-01T02:29:37.000Z</time>
      </trkpt>
      <trkpt lat="45.97953" lon="4.54197">
        <ele>567.6</ele>
        <time>1970-01-01T02:29:38.000Z</time>
      </trkpt>
      <trkpt lat="45.97951" lon="4.542">
        <ele>567.6</ele>
        <time>1970-01-01T02:29:39.000Z</time>
      </trkpt>
      <trkpt lat="45.97951" lon="4.542">
        <ele>567.6</ele>
        <time>1970-01-01T02:29:40.000Z</time>
      </trkpt>
      <trkpt lat="45.97949" lon="4.54202">
        <ele>567.6</ele>
        <time>1970-01-01T02:29:41.000Z</time>
      </trkpt>
      <trkpt lat="45.97949" lon="4.54202">
        <ele>567.6</ele>
        <time>1970-01-01T02:29:42.000Z</time>
      </trkpt>
      <trkpt lat="45.97947" lon="4.54204">
        <ele>567.6</ele>
        <time>1970-01-01T02:29:43.000Z</time>
      </trkpt>
      <trkpt lat="45.97947" lon="4.54204">
        <ele>567.6</ele>
        <time>1970-01-01T02:29:44.000Z</time>
      </trkpt>
      <trkpt lat="45.97945" lon="4.54207">
        <ele>567.6</ele>
        <time>1970-01-01T02:29:45.000Z</time>
      </trkpt>
      <trkpt lat="45.97945" lon="4.54207">
        <ele>567.6</ele>
        <time>1970-01-01T02:29:46.000Z</time>
      </trkpt>
      <trkpt lat="45.97944" lon="4.54209">
        <ele>567.6</ele>
        <time>1970-01-01T02:29:47.000Z</time>
      </trkpt>
      <trkpt lat="45.97942" lon="4.5421">
        <ele>567.6</ele>
        <time>1970-01-01T02:29:48.000Z</time>
      </trkpt>
      <trkpt lat="45.97941" lon="4.54211">
        <ele>567.6</ele>
        <time>1970-01-01T02:29:49.000Z</time>
      </trkpt>
      <trkpt lat="45.9794" lon="4.54212">
        <ele>567.6</ele>
        <time>1970-01-01T02:29:50.000Z</time>
      </trkpt>
      <trkpt lat="45.9794" lon="4.54212">
        <ele>567.6</ele>
        <time>1970-01-01T02:29:51.000Z</time>
      </trkpt>
      <trkpt lat="45.97938" lon="4.54215">
        <ele>567.6</ele>
        <time>1970-01-01T02:29:52.000Z</time>
      </trkpt>
      <trkpt lat="45.97938" lon="4.54215">
        <ele>567.6</ele>
        <time>1970-01-01T02:29:53.000Z</time>
      </trkpt>
      <trkpt lat="45.97936" lon="4.54218">
        <ele>567.6</ele>
        <time>1970-01-01T02:29:54.000Z</time>
      </trkpt>
      <trkpt lat="45.97936" lon="4.54218">
        <ele>567.6</ele>
        <time>1970-01-01T02:29:55.000Z</time>
      </trkpt>
      <trkpt lat="45.97934" lon="4.5422">
        <ele>567.5</ele>
        <time>1970-01-01T02:29:56.000Z</time>
      </trkpt>
      <trkpt lat="45.97934" lon="4.5422">
        <ele>567.5</ele>
        <time>1970-01-01T02:29:57.000Z</time>
      </trkpt>
      <trkpt lat="45.97932" lon="4.54222">
        <ele>567.5</ele>
        <time>1970-01-01T02:29:58.000Z</time>
      </trkpt>
      <trkpt lat="45.97932" lon="4.54222">
        <ele>567.5</ele>
        <time>1970-01-01T02:29:59.000Z</time>
      </trkpt>
      <trkpt lat="45.97931" lon="4.54224">
        <ele>567.5</ele>
        <time>1970-01-01T02:30:00.000Z</time>
      </trkpt>
      <trkpt lat="45.97931" lon="4.54224">
        <ele>567.5</ele>
        <time>1970-01-01T02:30:01.000Z</time>
      </trkpt>
      <trkpt lat="45.97929" lon="4.54225">
        <ele>567.4</ele>
        <time>1970-01-01T02:30:02.000Z</time>
      </trkpt>
      <trkpt lat="45.97929" lon="4.54225">
        <ele>567.4</ele>
        <time>1970-01-01T02:30:03.000Z</time>
      </trkpt>
      <trkpt lat="45.97927" lon="4.54227">
        <ele>567.4</ele>
        <time>1970-01-01T02:30:04.000Z</time>
      </trkpt>
      <trkpt lat="45.97927" lon="4.54227">
        <ele>567.4</ele>
        <time>1970-01-01T02:30:05.000Z</time>
      </trkpt>
      <trkpt lat="45.97925" lon="4.54229">
        <ele>567.3</ele>
        <time>1970-01-01T02:30:06.000Z</time>
      </trkpt>
      <trkpt lat="45.97925" lon="4.54229">
        <ele>567.3</ele>
        <time>1970-01-01T02:30:07.000Z</time>
      </trkpt>
      <trkpt lat="45.97923" lon="4.54231">
        <ele>567.2</ele>
        <time>1970-01-01T02:30:08.000Z</time>
      </trkpt>
      <trkpt lat="45.97923" lon="4.54231">
        <ele>567.2</ele>
        <time>1970-01-01T02:30:09.000Z</time>
      </trkpt>
      <trkpt lat="45.97921" lon="4.54233">
        <ele>567</ele>
        <time>1970-01-01T02:30:10.000Z</time>
      </trkpt>
      <trkpt lat="45.97921" lon="4.54233">
        <ele>567</ele>
        <time>1970-01-01T02:30:11.000Z</time>
      </trkpt>
      <trkpt lat="45.97918" lon="4.54235">
        <ele>566.9</ele>
        <time>1970-01-01T02:30:12.000Z</time>
      </trkpt>
      <trkpt lat="45.97918" lon="4.54235">
        <ele>566.9</ele>
        <time>1970-01-01T02:30:13.000Z</time>
      </trkpt>
      <trkpt lat="45.97916" lon="4.54238">
        <ele>566.7</ele>
        <time>1970-01-01T02:30:14.000Z</time>
      </trkpt>
      <trkpt lat="45.97916" lon="4.54238">
        <ele>566.7</ele>
        <time>1970-01-01T02:30:15.000Z</time>
      </trkpt>
      <trkpt lat="45.97914" lon="4.54239">
        <ele>566.5</ele>
        <time>1970-01-01T02:30:16.000Z</time>
      </trkpt>
      <trkpt lat="45.97914" lon="4.54239">
        <ele>566.5</ele>
        <time>1970-01-01T02:30:17.000Z</time>
      </trkpt>
      <trkpt lat="45.97912" lon="4.54241">
        <ele>566.3</ele>
        <time>1970-01-01T02:30:18.000Z</time>
      </trkpt>
      <trkpt lat="45.97912" lon="4.54241">
        <ele>566.3</ele>
        <time>1970-01-01T02:30:19.000Z</time>
      </trkpt>
      <trkpt lat="45.97909" lon="4.54243">
        <ele>566.2</ele>
        <time>1970-01-01T02:30:20.000Z</time>
      </trkpt>
      <trkpt lat="45.97909" lon="4.54243">
        <ele>566.2</ele>
        <time>1970-01-01T02:30:21.000Z</time>
      </trkpt>
      <trkpt lat="45.97908" lon="4.54244">
        <ele>566</ele>
        <time>1970-01-01T02:30:22.000Z</time>
      </trkpt>
      <trkpt lat="45.97908" lon="4.54244">
        <ele>566</ele>
        <time>1970-01-01T02:30:23.000Z</time>
      </trkpt>
      <trkpt lat="45.97906" lon="4.54245">
        <ele>565.9</ele>
        <time>1970-01-01T02:30:24.000Z</time>
      </trkpt>
      <trkpt lat="45.97905" lon="4.54245">
        <ele>565.8</ele>
        <time>1970-01-01T02:30:25.000Z</time>
      </trkpt>
      <trkpt lat="45.97904" lon="4.54246">
        <ele>565.7</ele>
        <time>1970-01-01T02:30:26.000Z</time>
      </trkpt>
      <trkpt lat="45.97903" lon="4.54246">
        <ele>565.6</ele>
        <time>1970-01-01T02:30:27.000Z</time>
      </trkpt>
      <trkpt lat="45.97902" lon="4.54247">
        <ele>565.6</ele>
        <time>1970-01-01T02:30:28.000Z</time>
      </trkpt>
      <trkpt lat="45.97902" lon="4.54247">
        <ele>565.6</ele>
        <time>1970-01-01T02:30:29.000Z</time>
      </trkpt>
      <trkpt lat="45.979" lon="4.54248">
        <ele>565.5</ele>
        <time>1970-01-01T02:30:30.000Z</time>
      </trkpt>
      <trkpt lat="45.979" lon="4.54248">
        <ele>565.5</ele>
        <time>1970-01-01T02:30:31.000Z</time>
      </trkpt>
      <trkpt lat="45.97898" lon="4.54249">
        <ele>565.3</ele>
        <time>1970-01-01T02:30:32.000Z</time>
      </trkpt>
      <trkpt lat="45.97898" lon="4.54249">
        <ele>565.3</ele>
        <time>1970-01-01T02:30:33.000Z</time>
      </trkpt>
      <trkpt lat="45.97896" lon="4.54249">
        <ele>565.2</ele>
        <time>1970-01-01T02:30:34.000Z</time>
      </trkpt>
      <trkpt lat="45.97896" lon="4.54249">
        <ele>565.2</ele>
        <time>1970-01-01T02:30:35.000Z</time>
      </trkpt>
      <trkpt lat="45.97894" lon="4.54249">
        <ele>565.2</ele>
        <time>1970-01-01T02:30:36.000Z</time>
      </trkpt>
      <trkpt lat="45.97894" lon="4.54249">
        <ele>565.2</ele>
        <time>1970-01-01T02:30:37.000Z</time>
      </trkpt>
      <trkpt lat="45.97892" lon="4.5425">
        <ele>565.3</ele>
        <time>1970-01-01T02:30:38.000Z</time>
      </trkpt>
      <trkpt lat="45.97892" lon="4.5425">
        <ele>565.3</ele>
        <time>1970-01-01T02:30:39.000Z</time>
      </trkpt>
      <trkpt lat="45.9789" lon="4.54251">
        <ele>565.3</ele>
        <time>1970-01-01T02:30:40.000Z</time>
      </trkpt>
      <trkpt lat="45.9789" lon="4.54251">
        <ele>565.3</ele>
        <time>1970-01-01T02:30:41.000Z</time>
      </trkpt>
      <trkpt lat="45.97888" lon="4.54253">
        <ele>565.4</ele>
        <time>1970-01-01T02:30:42.000Z</time>
      </trkpt>
      <trkpt lat="45.97888" lon="4.54254">
        <ele>565.4</ele>
        <time>1970-01-01T02:30:43.000Z</time>
      </trkpt>
      <trkpt lat="45.97887" lon="4.54256">
        <ele>565.4</ele>
        <time>1970-01-01T02:30:44.000Z</time>
      </trkpt>
      <trkpt lat="45.97887" lon="4.54257">
        <ele>565.4</ele>
        <time>1970-01-01T02:30:45.000Z</time>
      </trkpt>
      <trkpt lat="45.97886" lon="4.54258">
        <ele>565.5</ele>
        <time>1970-01-01T02:30:46.000Z</time>
      </trkpt>
      <trkpt lat="45.97886" lon="4.54259">
        <ele>565.5</ele>
        <time>1970-01-01T02:30:47.000Z</time>
      </trkpt>
      <trkpt lat="45.97885" lon="4.5426">
        <ele>565.5</ele>
        <time>1970-01-01T02:30:48.000Z</time>
      </trkpt>
      <trkpt lat="45.97885" lon="4.54261">
        <ele>565.6</ele>
        <time>1970-01-01T02:30:49.000Z</time>
      </trkpt>
      <trkpt lat="45.97884" lon="4.54263">
        <ele>565.6</ele>
        <time>1970-01-01T02:30:50.000Z</time>
      </trkpt>
      <trkpt lat="45.97884" lon="4.54263">
        <ele>565.6</ele>
        <time>1970-01-01T02:30:51.000Z</time>
      </trkpt>
      <trkpt lat="45.97883" lon="4.54265">
        <ele>565.7</ele>
        <time>1970-01-01T02:30:52.000Z</time>
      </trkpt>
      <trkpt lat="45.97883" lon="4.54267">
        <ele>565.7</ele>
        <time>1970-01-01T02:30:53.000Z</time>
      </trkpt>
      <trkpt lat="45.97882" lon="4.54268">
        <ele>565.8</ele>
        <time>1970-01-01T02:30:54.000Z</time>
      </trkpt>
      <trkpt lat="45.97881" lon="4.54269">
        <ele>565.9</ele>
        <time>1970-01-01T02:30:55.000Z</time>
      </trkpt>
      <trkpt lat="45.9788" lon="4.54271">
        <ele>565.9</ele>
        <time>1970-01-01T02:30:56.000Z</time>
      </trkpt>
      <trkpt lat="45.97879" lon="4.54272">
        <ele>566</ele>
        <time>1970-01-01T02:30:57.000Z</time>
      </trkpt>
      <trkpt lat="45.97878" lon="4.54273">
        <ele>566.1</ele>
        <time>1970-01-01T02:30:58.000Z</time>
      </trkpt>
      <trkpt lat="45.97878" lon="4.54275">
        <ele>566.1</ele>
        <time>1970-01-01T02:30:59.000Z</time>
      </trkpt>
      <trkpt lat="45.97877" lon="4.54276">
        <ele>566.2</ele>
        <time>1970-01-01T02:31:00.000Z</time>
      </trkpt>
      <trkpt lat="45.97876" lon="4.54277">
        <ele>566.3</ele>
        <time>1970-01-01T02:31:01.000Z</time>
      </trkpt>
      <trkpt lat="45.97876" lon="4.54279">
        <ele>566.3</ele>
        <time>1970-01-01T02:31:02.000Z</time>
      </trkpt>
      <trkpt lat="45.97875" lon="4.5428">
        <ele>566.4</ele>
        <time>1970-01-01T02:31:03.000Z</time>
      </trkpt>
      <trkpt lat="45.97875" lon="4.54281">
        <ele>566.4</ele>
        <time>1970-01-01T02:31:04.000Z</time>
      </trkpt>
      <trkpt lat="45.97875" lon="4.54281">
        <ele>566.4</ele>
        <time>1970-01-01T02:31:05.000Z</time>
      </trkpt>
      <trkpt lat="45.97873" lon="4.54284">
        <ele>566.6</ele>
        <time>1970-01-01T02:31:06.000Z</time>
      </trkpt>
      <trkpt lat="45.97873" lon="4.54284">
        <ele>566.6</ele>
        <time>1970-01-01T02:31:07.000Z</time>
      </trkpt>
      <trkpt lat="45.97872" lon="4.54287">
        <ele>566.8</ele>
        <time>1970-01-01T02:31:08.000Z</time>
      </trkpt>
      <trkpt lat="45.97872" lon="4.54287">
        <ele>566.8</ele>
        <time>1970-01-01T02:31:09.000Z</time>
      </trkpt>
      <trkpt lat="45.97871" lon="4.5429">
        <ele>566.9</ele>
        <time>1970-01-01T02:31:10.000Z</time>
      </trkpt>
      <trkpt lat="45.97871" lon="4.5429">
        <ele>566.9</ele>
        <time>1970-01-01T02:31:11.000Z</time>
      </trkpt>
      <trkpt lat="45.9787" lon="4.54292">
        <ele>567</ele>
        <time>1970-01-01T02:31:12.000Z</time>
      </trkpt>
      <trkpt lat="45.9787" lon="4.54292">
        <ele>567</ele>
        <time>1970-01-01T02:31:13.000Z</time>
      </trkpt>
      <trkpt lat="45.97869" lon="4.54295">
        <ele>567.2</ele>
        <time>1970-01-01T02:31:14.000Z</time>
      </trkpt>
      <trkpt lat="45.97868" lon="4.54296">
        <ele>567.2</ele>
        <time>1970-01-01T02:31:15.000Z</time>
      </trkpt>
      <trkpt lat="45.97868" lon="4.54297">
        <ele>567.3</ele>
        <time>1970-01-01T02:31:16.000Z</time>
      </trkpt>
      <trkpt lat="45.97867" lon="4.54298">
        <ele>567.4</ele>
        <time>1970-01-01T02:31:17.000Z</time>
      </trkpt>
      <trkpt lat="45.97866" lon="4.543">
        <ele>567.4</ele>
        <time>1970-01-01T02:31:18.000Z</time>
      </trkpt>
      <trkpt lat="45.97866" lon="4.54301">
        <ele>567.5</ele>
        <time>1970-01-01T02:31:19.000Z</time>
      </trkpt>
      <trkpt lat="45.97865" lon="4.54302">
        <ele>567.6</ele>
        <time>1970-01-01T02:31:20.000Z</time>
      </trkpt>
      <trkpt lat="45.97864" lon="4.54303">
        <ele>567.7</ele>
        <time>1970-01-01T02:31:21.000Z</time>
      </trkpt>
      <trkpt lat="45.97864" lon="4.54304">
        <ele>567.7</ele>
        <time>1970-01-01T02:31:22.000Z</time>
      </trkpt>
      <trkpt lat="45.97863" lon="4.54305">
        <ele>567.8</ele>
        <time>1970-01-01T02:31:23.000Z</time>
      </trkpt>
      <trkpt lat="45.97862" lon="4.54307">
        <ele>567.9</ele>
        <time>1970-01-01T02:31:24.000Z</time>
      </trkpt>
      <trkpt lat="45.97862" lon="4.54308">
        <ele>568</ele>
        <time>1970-01-01T02:31:25.000Z</time>
      </trkpt>
      <trkpt lat="45.97861" lon="4.5431">
        <ele>568.1</ele>
        <time>1970-01-01T02:31:26.000Z</time>
      </trkpt>
      <trkpt lat="45.97861" lon="4.54312">
        <ele>568.2</ele>
        <time>1970-01-01T02:31:27.000Z</time>
      </trkpt>
      <trkpt lat="45.9786" lon="4.54313">
        <ele>568.2</ele>
        <time>1970-01-01T02:31:28.000Z</time>
      </trkpt>
      <trkpt lat="45.9786" lon="4.54315">
        <ele>568.3</ele>
        <time>1970-01-01T02:31:29.000Z</time>
      </trkpt>
      <trkpt lat="45.97859" lon="4.54316">
        <ele>568.4</ele>
        <time>1970-01-01T02:31:30.000Z</time>
      </trkpt>
      <trkpt lat="45.97859" lon="4.54317">
        <ele>568.5</ele>
        <time>1970-01-01T02:31:31.000Z</time>
      </trkpt>
      <trkpt lat="45.97858" lon="4.54319">
        <ele>568.5</ele>
        <time>1970-01-01T02:31:32.000Z</time>
      </trkpt>
      <trkpt lat="45.97857" lon="4.5432">
        <ele>568.6</ele>
        <time>1970-01-01T02:31:33.000Z</time>
      </trkpt>
      <trkpt lat="45.97857" lon="4.54322">
        <ele>568.7</ele>
        <time>1970-01-01T02:31:34.000Z</time>
      </trkpt>
      <trkpt lat="45.97856" lon="4.54323">
        <ele>568.7</ele>
        <time>1970-01-01T02:31:35.000Z</time>
      </trkpt>
      <trkpt lat="45.97856" lon="4.54324">
        <ele>568.8</ele>
        <time>1970-01-01T02:31:36.000Z</time>
      </trkpt>
      <trkpt lat="45.97855" lon="4.54326">
        <ele>568.9</ele>
        <time>1970-01-01T02:31:37.000Z</time>
      </trkpt>
      <trkpt lat="45.97855" lon="4.54327">
        <ele>568.9</ele>
        <time>1970-01-01T02:31:38.000Z</time>
      </trkpt>
      <trkpt lat="45.97854" lon="4.54329">
        <ele>569</ele>
        <time>1970-01-01T02:31:39.000Z</time>
      </trkpt>
      <trkpt lat="45.97853" lon="4.5433">
        <ele>569</ele>
        <time>1970-01-01T02:31:40.000Z</time>
      </trkpt>
      <trkpt lat="45.97853" lon="4.54332">
        <ele>569.1</ele>
        <time>1970-01-01T02:31:41.000Z</time>
      </trkpt>
      <trkpt lat="45.97852" lon="4.54333">
        <ele>569.1</ele>
        <time>1970-01-01T02:31:42.000Z</time>
      </trkpt>
      <trkpt lat="45.97852" lon="4.54335">
        <ele>569.2</ele>
        <time>1970-01-01T02:31:43.000Z</time>
      </trkpt>
      <trkpt lat="45.97851" lon="4.54336">
        <ele>569.3</ele>
        <time>1970-01-01T02:31:44.000Z</time>
      </trkpt>
      <trkpt lat="45.97851" lon="4.54336">
        <ele>569.3</ele>
        <time>1970-01-01T02:31:45.000Z</time>
      </trkpt>
      <trkpt lat="45.9785" lon="4.54339">
        <ele>569.3</ele>
        <time>1970-01-01T02:31:46.000Z</time>
      </trkpt>
      <trkpt lat="45.9785" lon="4.54339">
        <ele>569.3</ele>
        <time>1970-01-01T02:31:47.000Z</time>
      </trkpt>
      <trkpt lat="45.97849" lon="4.54342">
        <ele>569.4</ele>
        <time>1970-01-01T02:31:48.000Z</time>
      </trkpt>
      <trkpt lat="45.97848" lon="4.54343">
        <ele>569.5</ele>
        <time>1970-01-01T02:31:49.000Z</time>
      </trkpt>
      <trkpt lat="45.97847" lon="4.54344">
        <ele>569.5</ele>
        <time>1970-01-01T02:31:50.000Z</time>
      </trkpt>
      <trkpt lat="45.97846" lon="4.54345">
        <ele>569.6</ele>
        <time>1970-01-01T02:31:51.000Z</time>
      </trkpt>
      <trkpt lat="45.97845" lon="4.54346">
        <ele>569.6</ele>
        <time>1970-01-01T02:31:52.000Z</time>
      </trkpt>
      <trkpt lat="45.97845" lon="4.54347">
        <ele>569.6</ele>
        <time>1970-01-01T02:31:53.000Z</time>
      </trkpt>
      <trkpt lat="45.97844" lon="4.54349">
        <ele>569.7</ele>
        <time>1970-01-01T02:31:54.000Z</time>
      </trkpt>
      <trkpt lat="45.97843" lon="4.5435">
        <ele>569.7</ele>
        <time>1970-01-01T02:31:55.000Z</time>
      </trkpt>
      <trkpt lat="45.97842" lon="4.54351">
        <ele>569.8</ele>
        <time>1970-01-01T02:31:56.000Z</time>
      </trkpt>
      <trkpt lat="45.97842" lon="4.54352">
        <ele>569.8</ele>
        <time>1970-01-01T02:31:57.000Z</time>
      </trkpt>
      <trkpt lat="45.97841" lon="4.54354">
        <ele>569.9</ele>
        <time>1970-01-01T02:31:58.000Z</time>
      </trkpt>
      <trkpt lat="45.97841" lon="4.54356">
        <ele>569.9</ele>
        <time>1970-01-01T02:31:59.000Z</time>
      </trkpt>
      <trkpt lat="45.97841" lon="4.54357">
        <ele>570</ele>
        <time>1970-01-01T02:32:00.000Z</time>
      </trkpt>
      <trkpt lat="45.9784" lon="4.54359">
        <ele>570</ele>
        <time>1970-01-01T02:32:01.000Z</time>
      </trkpt>
      <trkpt lat="45.9784" lon="4.54361">
        <ele>570.1</ele>
        <time>1970-01-01T02:32:02.000Z</time>
      </trkpt>
      <trkpt lat="45.9784" lon="4.54362">
        <ele>570.1</ele>
        <time>1970-01-01T02:32:03.000Z</time>
      </trkpt>
      <trkpt lat="45.97839" lon="4.54364">
        <ele>570.2</ele>
        <time>1970-01-01T02:32:04.000Z</time>
      </trkpt>
      <trkpt lat="45.97839" lon="4.54366">
        <ele>570.2</ele>
        <time>1970-01-01T02:32:05.000Z</time>
      </trkpt>
      <trkpt lat="45.97839" lon="4.54368">
        <ele>570.3</ele>
        <time>1970-01-01T02:32:06.000Z</time>
      </trkpt>
      <trkpt lat="45.97839" lon="4.54369">
        <ele>570.3</ele>
        <time>1970-01-01T02:32:07.000Z</time>
      </trkpt>
      <trkpt lat="45.97839" lon="4.54371">
        <ele>570.4</ele>
        <time>1970-01-01T02:32:08.000Z</time>
      </trkpt>
      <trkpt lat="45.97839" lon="4.54373">
        <ele>570.4</ele>
        <time>1970-01-01T02:32:09.000Z</time>
      </trkpt>
      <trkpt lat="45.97839" lon="4.54373">
        <ele>570.4</ele>
        <time>1970-01-01T02:32:10.000Z</time>
      </trkpt>
      <trkpt lat="45.97838" lon="4.54376">
        <ele>570.5</ele>
        <time>1970-01-01T02:32:11.000Z</time>
      </trkpt>
      <trkpt lat="45.97838" lon="4.54376">
        <ele>570.5</ele>
        <time>1970-01-01T02:32:12.000Z</time>
      </trkpt>
      <trkpt lat="45.97837" lon="4.5438">
        <ele>570.6</ele>
        <time>1970-01-01T02:32:13.000Z</time>
      </trkpt>
      <trkpt lat="45.97836" lon="4.54382">
        <ele>570.6</ele>
        <time>1970-01-01T02:32:14.000Z</time>
      </trkpt>
      <trkpt lat="45.97835" lon="4.54383">
        <ele>570.7</ele>
        <time>1970-01-01T02:32:15.000Z</time>
      </trkpt>
      <trkpt lat="45.97834" lon="4.54385">
        <ele>570.8</ele>
        <time>1970-01-01T02:32:16.000Z</time>
      </trkpt>
      <trkpt lat="45.97834" lon="4.54386">
        <ele>570.8</ele>
        <time>1970-01-01T02:32:17.000Z</time>
      </trkpt>
      <trkpt lat="45.97833" lon="4.54386">
        <ele>570.8</ele>
        <time>1970-01-01T02:32:18.000Z</time>
      </trkpt>
      <trkpt lat="45.97832" lon="4.54387">
        <ele>570.8</ele>
        <time>1970-01-01T02:32:19.000Z</time>
      </trkpt>
      <trkpt lat="45.97832" lon="4.54387">
        <ele>570.9</ele>
        <time>1970-01-01T02:32:20.000Z</time>
      </trkpt>
      <trkpt lat="45.97831" lon="4.54388">
        <ele>570.9</ele>
        <time>1970-01-01T02:32:21.000Z</time>
      </trkpt>
      <trkpt lat="45.97831" lon="4.54388">
        <ele>570.9</ele>
        <time>1970-01-01T02:32:22.000Z</time>
      </trkpt>
      <trkpt lat="45.9783" lon="4.54389">
        <ele>570.9</ele>
        <time>1970-01-01T02:32:23.000Z</time>
      </trkpt>
      <trkpt lat="45.97825" lon="4.54394">
        <ele>571.1</ele>
        <time>1970-01-01T02:32:24.000Z</time>
      </trkpt>
      <trkpt lat="45.97824" lon="4.54396">
        <ele>571.1</ele>
        <time>1970-01-01T02:32:25.000Z</time>
      </trkpt>
      <trkpt lat="45.97823" lon="4.54398">
        <ele>571.1</ele>
        <time>1970-01-01T02:32:26.000Z</time>
      </trkpt>
      <trkpt lat="45.97822" lon="4.544">
        <ele>571.2</ele>
        <time>1970-01-01T02:32:27.000Z</time>
      </trkpt>
      <trkpt lat="45.97822" lon="4.54402">
        <ele>571.2</ele>
        <time>1970-01-01T02:32:28.000Z</time>
      </trkpt>
      <trkpt lat="45.97821" lon="4.54404">
        <ele>571.2</ele>
        <time>1970-01-01T02:32:29.000Z</time>
      </trkpt>
      <trkpt lat="45.9782" lon="4.54406">
        <ele>571.2</ele>
        <time>1970-01-01T02:32:30.000Z</time>
      </trkpt>
      <trkpt lat="45.97819" lon="4.54407">
        <ele>571.3</ele>
        <time>1970-01-01T02:32:31.000Z</time>
      </trkpt>
      <trkpt lat="45.97818" lon="4.54409">
        <ele>571.3</ele>
        <time>1970-01-01T02:32:32.000Z</time>
      </trkpt>
      <trkpt lat="45.97817" lon="4.54411">
        <ele>571.3</ele>
        <time>1970-01-01T02:32:33.000Z</time>
      </trkpt>
      <trkpt lat="45.97816" lon="4.54413">
        <ele>571.3</ele>
        <time>1970-01-01T02:32:34.000Z</time>
      </trkpt>
      <trkpt lat="45.97815" lon="4.54414">
        <ele>571.3</ele>
        <time>1970-01-01T02:32:35.000Z</time>
      </trkpt>
      <trkpt lat="45.97815" lon="4.54416">
        <ele>571.4</ele>
        <time>1970-01-01T02:32:36.000Z</time>
      </trkpt>
      <trkpt lat="45.97814" lon="4.54418">
        <ele>571.4</ele>
        <time>1970-01-01T02:32:37.000Z</time>
      </trkpt>
      <trkpt lat="45.97814" lon="4.5442">
        <ele>571.4</ele>
        <time>1970-01-01T02:32:38.000Z</time>
      </trkpt>
      <trkpt lat="45.97814" lon="4.54421">
        <ele>571.4</ele>
        <time>1970-01-01T02:32:39.000Z</time>
      </trkpt>
      <trkpt lat="45.97813" lon="4.54423">
        <ele>571.5</ele>
        <time>1970-01-01T02:32:40.000Z</time>
      </trkpt>
      <trkpt lat="45.97813" lon="4.54425">
        <ele>571.5</ele>
        <time>1970-01-01T02:32:41.000Z</time>
      </trkpt>
      <trkpt lat="45.97813" lon="4.54427">
        <ele>571.5</ele>
        <time>1970-01-01T02:32:42.000Z</time>
      </trkpt>
      <trkpt lat="45.97812" lon="4.54428">
        <ele>571.6</ele>
        <time>1970-01-01T02:32:43.000Z</time>
      </trkpt>
      <trkpt lat="45.97812" lon="4.54428">
        <ele>571.6</ele>
        <time>1970-01-01T02:32:44.000Z</time>
      </trkpt>
      <trkpt lat="45.9781" lon="4.5443">
        <ele>571.6</ele>
        <time>1970-01-01T02:32:45.000Z</time>
      </trkpt>
      <trkpt lat="45.9781" lon="4.54432">
        <ele>571.7</ele>
        <time>1970-01-01T02:32:46.000Z</time>
      </trkpt>
      <trkpt lat="45.97809" lon="4.54433">
        <ele>571.7</ele>
        <time>1970-01-01T02:32:47.000Z</time>
      </trkpt>
      <trkpt lat="45.97808" lon="4.54435">
        <ele>571.7</ele>
        <time>1970-01-01T02:32:48.000Z</time>
      </trkpt>
      <trkpt lat="45.97808" lon="4.54437">
        <ele>571.8</ele>
        <time>1970-01-01T02:32:49.000Z</time>
      </trkpt>
      <trkpt lat="45.97807" lon="4.54439">
        <ele>571.8</ele>
        <time>1970-01-01T02:32:50.000Z</time>
      </trkpt>
      <trkpt lat="45.97807" lon="4.5444">
        <ele>571.9</ele>
        <time>1970-01-01T02:32:51.000Z</time>
      </trkpt>
      <trkpt lat="45.97806" lon="4.54442">
        <ele>571.9</ele>
        <time>1970-01-01T02:32:52.000Z</time>
      </trkpt>
      <trkpt lat="45.97806" lon="4.54444">
        <ele>572</ele>
        <time>1970-01-01T02:32:53.000Z</time>
      </trkpt>
      <trkpt lat="45.97805" lon="4.54446">
        <ele>572</ele>
        <time>1970-01-01T02:32:54.000Z</time>
      </trkpt>
      <trkpt lat="45.97805" lon="4.54446">
        <ele>572</ele>
        <time>1970-01-01T02:32:55.000Z</time>
      </trkpt>
      <trkpt lat="45.97804" lon="4.54449">
        <ele>572.1</ele>
        <time>1970-01-01T02:32:56.000Z</time>
      </trkpt>
      <trkpt lat="45.97804" lon="4.54449">
        <ele>572.1</ele>
        <time>1970-01-01T02:32:57.000Z</time>
      </trkpt>
      <trkpt lat="45.97804" lon="4.54453">
        <ele>572.2</ele>
        <time>1970-01-01T02:32:58.000Z</time>
      </trkpt>
      <trkpt lat="45.97804" lon="4.54453">
        <ele>572.2</ele>
        <time>1970-01-01T02:32:59.000Z</time>
      </trkpt>
      <trkpt lat="45.97803" lon="4.54456">
        <ele>572.3</ele>
        <time>1970-01-01T02:33:00.000Z</time>
      </trkpt>
      <trkpt lat="45.97803" lon="4.54456">
        <ele>572.3</ele>
        <time>1970-01-01T02:33:01.000Z</time>
      </trkpt>
      <trkpt lat="45.97801" lon="4.54459">
        <ele>572.4</ele>
        <time>1970-01-01T02:33:02.000Z</time>
      </trkpt>
      <trkpt lat="45.97801" lon="4.54459">
        <ele>572.4</ele>
        <time>1970-01-01T02:33:03.000Z</time>
      </trkpt>
      <trkpt lat="45.978" lon="4.54462">
        <ele>572.4</ele>
        <time>1970-01-01T02:33:04.000Z</time>
      </trkpt>
      <trkpt lat="45.978" lon="4.54462">
        <ele>572.4</ele>
        <time>1970-01-01T02:33:05.000Z</time>
      </trkpt>
      <trkpt lat="45.97799" lon="4.54465">
        <ele>572.5</ele>
        <time>1970-01-01T02:33:06.000Z</time>
      </trkpt>
      <trkpt lat="45.97799" lon="4.54465">
        <ele>572.5</ele>
        <time>1970-01-01T02:33:07.000Z</time>
      </trkpt>
      <trkpt lat="45.97797" lon="4.54468">
        <ele>572.5</ele>
        <time>1970-01-01T02:33:08.000Z</time>
      </trkpt>
      <trkpt lat="45.97795" lon="4.54471">
        <ele>572.6</ele>
        <time>1970-01-01T02:33:10.000Z</time>
      </trkpt>
      <trkpt lat="45.97795" lon="4.54471">
        <ele>572.6</ele>
        <time>1970-01-01T02:33:11.000Z</time>
      </trkpt>
      <trkpt lat="45.97792" lon="4.54474">
        <ele>572.7</ele>
        <time>1970-01-01T02:33:12.000Z</time>
      </trkpt>
      <trkpt lat="45.97792" lon="4.54474">
        <ele>572.7</ele>
        <time>1970-01-01T02:33:13.000Z</time>
      </trkpt>
      <trkpt lat="45.97791" lon="4.54477">
        <ele>572.7</ele>
        <time>1970-01-01T02:33:14.000Z</time>
      </trkpt>
      <trkpt lat="45.97791" lon="4.54477">
        <ele>572.7</ele>
        <time>1970-01-01T02:33:15.000Z</time>
      </trkpt>
      <trkpt lat="45.97789" lon="4.5448">
        <ele>572.8</ele>
        <time>1970-01-01T02:33:16.000Z</time>
      </trkpt>
      <trkpt lat="45.97789" lon="4.5448">
        <ele>572.8</ele>
        <time>1970-01-01T02:33:17.000Z</time>
      </trkpt>
      <trkpt lat="45.97787" lon="4.54483">
        <ele>572.8</ele>
        <time>1970-01-01T02:33:18.000Z</time>
      </trkpt>
      <trkpt lat="45.97787" lon="4.54483">
        <ele>572.8</ele>
        <time>1970-01-01T02:33:19.000Z</time>
      </trkpt>
      <trkpt lat="45.97785" lon="4.54485">
        <ele>572.9</ele>
        <time>1970-01-01T02:33:20.000Z</time>
      </trkpt>
      <trkpt lat="45.97785" lon="4.54485">
        <ele>572.9</ele>
        <time>1970-01-01T02:33:21.000Z</time>
      </trkpt>
      <trkpt lat="45.97784" lon="4.54487">
        <ele>572.9</ele>
        <time>1970-01-01T02:33:22.000Z</time>
      </trkpt>
      <trkpt lat="45.97784" lon="4.54487">
        <ele>572.9</ele>
        <time>1970-01-01T02:33:23.000Z</time>
      </trkpt>
      <trkpt lat="45.97782" lon="4.5449">
        <ele>573</ele>
        <time>1970-01-01T02:33:24.000Z</time>
      </trkpt>
      <trkpt lat="45.97782" lon="4.5449">
        <ele>573</ele>
        <time>1970-01-01T02:33:25.000Z</time>
      </trkpt>
      <trkpt lat="45.9778" lon="4.54492">
        <ele>573.1</ele>
        <time>1970-01-01T02:33:26.000Z</time>
      </trkpt>
      <trkpt lat="45.9778" lon="4.54492">
        <ele>573.1</ele>
        <time>1970-01-01T02:33:27.000Z</time>
      </trkpt>
      <trkpt lat="45.97778" lon="4.54495">
        <ele>573.1</ele>
        <time>1970-01-01T02:33:28.000Z</time>
      </trkpt>
      <trkpt lat="45.97778" lon="4.54495">
        <ele>573.1</ele>
        <time>1970-01-01T02:33:29.000Z</time>
      </trkpt>
      <trkpt lat="45.97777" lon="4.54497">
        <ele>573.2</ele>
        <time>1970-01-01T02:33:30.000Z</time>
      </trkpt>
      <trkpt lat="45.97777" lon="4.54497">
        <ele>573.2</ele>
        <time>1970-01-01T02:33:31.000Z</time>
      </trkpt>
      <trkpt lat="45.97777" lon="4.54497">
        <ele>573.2</ele>
        <time>1970-01-01T02:33:32.000Z</time>
      </trkpt>
      <trkpt lat="45.97775" lon="4.545">
        <ele>573.3</ele>
        <time>1970-01-01T02:33:33.000Z</time>
      </trkpt>
      <trkpt lat="45.97775" lon="4.545">
        <ele>573.3</ele>
        <time>1970-01-01T02:33:34.000Z</time>
      </trkpt>
      <trkpt lat="45.97774" lon="4.54503">
        <ele>573.4</ele>
        <time>1970-01-01T02:33:35.000Z</time>
      </trkpt>
      <trkpt lat="45.97774" lon="4.54503">
        <ele>573.4</ele>
        <time>1970-01-01T02:33:36.000Z</time>
      </trkpt>
      <trkpt lat="45.97773" lon="4.54505">
        <ele>573.5</ele>
        <time>1970-01-01T02:33:37.000Z</time>
      </trkpt>
      <trkpt lat="45.97773" lon="4.54505">
        <ele>573.5</ele>
        <time>1970-01-01T02:33:38.000Z</time>
      </trkpt>
      <trkpt lat="45.97771" lon="4.54508">
        <ele>573.6</ele>
        <time>1970-01-01T02:33:39.000Z</time>
      </trkpt>
      <trkpt lat="45.97769" lon="4.5451">
        <ele>573.7</ele>
        <time>1970-01-01T02:33:40.000Z</time>
      </trkpt>
      <trkpt lat="45.97767" lon="4.54511">
        <ele>573.8</ele>
        <time>1970-01-01T02:33:41.000Z</time>
      </trkpt>
      <trkpt lat="45.97765" lon="4.54513">
        <ele>573.4</ele>
        <time>1970-01-01T02:33:42.000Z</time>
      </trkpt>
      <trkpt lat="45.97765" lon="4.54513">
        <ele>573.4</ele>
        <time>1970-01-01T02:33:43.000Z</time>
      </trkpt>
      <trkpt lat="45.97763" lon="4.54516">
        <ele>573.1</ele>
        <time>1970-01-01T02:33:44.000Z</time>
      </trkpt>
      <trkpt lat="45.97763" lon="4.54516">
        <ele>573.1</ele>
        <time>1970-01-01T02:33:45.000Z</time>
      </trkpt>
      <trkpt lat="45.97761" lon="4.54518">
        <ele>572.8</ele>
        <time>1970-01-01T02:33:46.000Z</time>
      </trkpt>
      <trkpt lat="45.97761" lon="4.54518">
        <ele>572.8</ele>
        <time>1970-01-01T02:33:47.000Z</time>
      </trkpt>
      <trkpt lat="45.97758" lon="4.54519">
        <ele>572.5</ele>
        <time>1970-01-01T02:33:48.000Z</time>
      </trkpt>
      <trkpt lat="45.97758" lon="4.54519">
        <ele>572.5</ele>
        <time>1970-01-01T02:33:49.000Z</time>
      </trkpt>
      <trkpt lat="45.97756" lon="4.54519">
        <ele>572.3</ele>
        <time>1970-01-01T02:33:50.000Z</time>
      </trkpt>
      <trkpt lat="45.97756" lon="4.54519">
        <ele>572.3</ele>
        <time>1970-01-01T02:33:51.000Z</time>
      </trkpt>
      <trkpt lat="45.97756" lon="4.54519">
        <ele>572.3</ele>
        <time>1970-01-01T02:33:52.000Z</time>
      </trkpt>
      <trkpt lat="45.97754" lon="4.54518">
        <ele>572</ele>
        <time>1970-01-01T02:33:53.000Z</time>
      </trkpt>
      <trkpt lat="45.97754" lon="4.54518">
        <ele>572</ele>
        <time>1970-01-01T02:33:54.000Z</time>
      </trkpt>
      <trkpt lat="45.97751" lon="4.54518">
        <ele>571.8</ele>
        <time>1970-01-01T02:33:55.000Z</time>
      </trkpt>
      <trkpt lat="45.97751" lon="4.54518">
        <ele>571.8</ele>
        <time>1970-01-01T02:33:56.000Z</time>
      </trkpt>
      <trkpt lat="45.97751" lon="4.54518">
        <ele>571.8</ele>
        <time>1970-01-01T02:33:57.000Z</time>
      </trkpt>
      <trkpt lat="45.97749" lon="4.54515">
        <ele>571.5</ele>
        <time>1970-01-01T02:33:58.000Z</time>
      </trkpt>
      <trkpt lat="45.97747" lon="4.54515">
        <ele>571.4</ele>
        <time>1970-01-01T02:33:59.000Z</time>
      </trkpt>
      <trkpt lat="45.97746" lon="4.54515">
        <ele>571.3</ele>
        <time>1970-01-01T02:34:00.000Z</time>
      </trkpt>
      <trkpt lat="45.97745" lon="4.54515">
        <ele>571.1</ele>
        <time>1970-01-01T02:34:01.000Z</time>
      </trkpt>
      <trkpt lat="45.97743" lon="4.54515">
        <ele>571</ele>
        <time>1970-01-01T02:34:02.000Z</time>
      </trkpt>
      <trkpt lat="45.97742" lon="4.54514">
        <ele>570.9</ele>
        <time>1970-01-01T02:34:03.000Z</time>
      </trkpt>
      <trkpt lat="45.97741" lon="4.54514">
        <ele>570.8</ele>
        <time>1970-01-01T02:34:04.000Z</time>
      </trkpt>
      <trkpt lat="45.97739" lon="4.54514">
        <ele>570.7</ele>
        <time>1970-01-01T02:34:05.000Z</time>
      </trkpt>
      <trkpt lat="45.97738" lon="4.54514">
        <ele>570.6</ele>
        <time>1970-01-01T02:34:06.000Z</time>
      </trkpt>
      <trkpt lat="45.97736" lon="4.54514">
        <ele>570.5</ele>
        <time>1970-01-01T02:34:07.000Z</time>
      </trkpt>
      <trkpt lat="45.97735" lon="4.54515">
        <ele>570.4</ele>
        <time>1970-01-01T02:34:08.000Z</time>
      </trkpt>
      <trkpt lat="45.97733" lon="4.54515">
        <ele>570.2</ele>
        <time>1970-01-01T02:34:09.000Z</time>
      </trkpt>
      <trkpt lat="45.97733" lon="4.54515">
        <ele>570.2</ele>
        <time>1970-01-01T02:34:10.000Z</time>
      </trkpt>
      <trkpt lat="45.9773" lon="4.54514">
        <ele>570</ele>
        <time>1970-01-01T02:34:11.000Z</time>
      </trkpt>
      <trkpt lat="45.9773" lon="4.54514">
        <ele>570</ele>
        <time>1970-01-01T02:34:12.000Z</time>
      </trkpt>
      <trkpt lat="45.97727" lon="4.54513">
        <ele>569.8</ele>
        <time>1970-01-01T02:34:13.000Z</time>
      </trkpt>
      <trkpt lat="45.97727" lon="4.54513">
        <ele>569.8</ele>
        <time>1970-01-01T02:34:14.000Z</time>
      </trkpt>
      <trkpt lat="45.97724" lon="4.54513">
        <ele>569.6</ele>
        <time>1970-01-01T02:34:15.000Z</time>
      </trkpt>
      <trkpt lat="45.97722" lon="4.54513">
        <ele>569.4</ele>
        <time>1970-01-01T02:34:17.000Z</time>
      </trkpt>
      <trkpt lat="45.97722" lon="4.54513">
        <ele>569.4</ele>
        <time>1970-01-01T02:34:18.000Z</time>
      </trkpt>
      <trkpt lat="45.97719" lon="4.54511">
        <ele>569.2</ele>
        <time>1970-01-01T02:34:19.000Z</time>
      </trkpt>
      <trkpt lat="45.97717" lon="4.5451">
        <ele>569.1</ele>
        <time>1970-01-01T02:34:20.000Z</time>
      </trkpt>
      <trkpt lat="45.97717" lon="4.5451">
        <ele>569.1</ele>
        <time>1970-01-01T02:34:21.000Z</time>
      </trkpt>
      <trkpt lat="45.97714" lon="4.5451">
        <ele>568.9</ele>
        <time>1970-01-01T02:34:22.000Z</time>
      </trkpt>
      <trkpt lat="45.97714" lon="4.5451">
        <ele>568.9</ele>
        <time>1970-01-01T02:34:23.000Z</time>
      </trkpt>
      <trkpt lat="45.97711" lon="4.54509">
        <ele>568.7</ele>
        <time>1970-01-01T02:34:24.000Z</time>
      </trkpt>
      <trkpt lat="45.97711" lon="4.54509">
        <ele>568.7</ele>
        <time>1970-01-01T02:34:25.000Z</time>
      </trkpt>
      <trkpt lat="45.97709" lon="4.54508">
        <ele>568.4</ele>
        <time>1970-01-01T02:34:26.000Z</time>
      </trkpt>
      <trkpt lat="45.97709" lon="4.54508">
        <ele>568.4</ele>
        <time>1970-01-01T02:34:27.000Z</time>
      </trkpt>
      <trkpt lat="45.97705" lon="4.54507">
        <ele>568.2</ele>
        <time>1970-01-01T02:34:28.000Z</time>
      </trkpt>
      <trkpt lat="45.97705" lon="4.54507">
        <ele>568.2</ele>
        <time>1970-01-01T02:34:29.000Z</time>
      </trkpt>
      <trkpt lat="45.97702" lon="4.54506">
        <ele>568</ele>
        <time>1970-01-01T02:34:30.000Z</time>
      </trkpt>
      <trkpt lat="45.97702" lon="4.54506">
        <ele>568</ele>
        <time>1970-01-01T02:34:31.000Z</time>
      </trkpt>
      <trkpt lat="45.97699" lon="4.54505">
        <ele>567.7</ele>
        <time>1970-01-01T02:34:32.000Z</time>
      </trkpt>
      <trkpt lat="45.97699" lon="4.54505">
        <ele>567.7</ele>
        <time>1970-01-01T02:34:33.000Z</time>
      </trkpt>
      <trkpt lat="45.97696" lon="4.54504">
        <ele>567.4</ele>
        <time>1970-01-01T02:34:34.000Z</time>
      </trkpt>
      <trkpt lat="45.97696" lon="4.54504">
        <ele>567.4</ele>
        <time>1970-01-01T02:34:35.000Z</time>
      </trkpt>
      <trkpt lat="45.97693" lon="4.54503">
        <ele>567.2</ele>
        <time>1970-01-01T02:34:36.000Z</time>
      </trkpt>
      <trkpt lat="45.97693" lon="4.54503">
        <ele>567.2</ele>
        <time>1970-01-01T02:34:37.000Z</time>
      </trkpt>
      <trkpt lat="45.9769" lon="4.54503">
        <ele>567</ele>
        <time>1970-01-01T02:34:38.000Z</time>
      </trkpt>
      <trkpt lat="45.9769" lon="4.54502">
        <ele>566.9</ele>
        <time>1970-01-01T02:34:39.000Z</time>
      </trkpt>
      <trkpt lat="45.97689" lon="4.54501">
        <ele>566.9</ele>
        <time>1970-01-01T02:34:40.000Z</time>
      </trkpt>
      <trkpt lat="45.97688" lon="4.54501">
        <ele>566.8</ele>
        <time>1970-01-01T02:34:41.000Z</time>
      </trkpt>
      <trkpt lat="45.97687" lon="4.545">
        <ele>566.7</ele>
        <time>1970-01-01T02:34:42.000Z</time>
      </trkpt>
      <trkpt lat="45.97686" lon="4.545">
        <ele>566.6</ele>
        <time>1970-01-01T02:34:43.000Z</time>
      </trkpt>
      <trkpt lat="45.97685" lon="4.54499">
        <ele>566.5</ele>
        <time>1970-01-01T02:34:44.000Z</time>
      </trkpt>
      <trkpt lat="45.97684" lon="4.54498">
        <ele>566.5</ele>
        <time>1970-01-01T02:34:45.000Z</time>
      </trkpt>
      <trkpt lat="45.97683" lon="4.54498">
        <ele>566.4</ele>
        <time>1970-01-01T02:34:46.000Z</time>
      </trkpt>
      <trkpt lat="45.97683" lon="4.54497">
        <ele>566.3</ele>
        <time>1970-01-01T02:34:47.000Z</time>
      </trkpt>
      <trkpt lat="45.97682" lon="4.54497">
        <ele>566.2</ele>
        <time>1970-01-01T02:34:48.000Z</time>
      </trkpt>
      <trkpt lat="45.9768" lon="4.54496">
        <ele>566.1</ele>
        <time>1970-01-01T02:34:49.000Z</time>
      </trkpt>
      <trkpt lat="45.97679" lon="4.54494">
        <ele>565.9</ele>
        <time>1970-01-01T02:34:50.000Z</time>
      </trkpt>
      <trkpt lat="45.97677" lon="4.54493">
        <ele>565.8</ele>
        <time>1970-01-01T02:34:51.000Z</time>
      </trkpt>
      <trkpt lat="45.97675" lon="4.54493">
        <ele>565.6</ele>
        <time>1970-01-01T02:34:52.000Z</time>
      </trkpt>
      <trkpt lat="45.97673" lon="4.54492">
        <ele>565.5</ele>
        <time>1970-01-01T02:34:53.000Z</time>
      </trkpt>
      <trkpt lat="45.97671" lon="4.54491">
        <ele>565.3</ele>
        <time>1970-01-01T02:34:54.000Z</time>
      </trkpt>
      <trkpt lat="45.97671" lon="4.54491">
        <ele>565.3</ele>
        <time>1970-01-01T02:34:55.000Z</time>
      </trkpt>
      <trkpt lat="45.97668" lon="4.5449">
        <ele>565.1</ele>
        <time>1970-01-01T02:34:56.000Z</time>
      </trkpt>
      <trkpt lat="45.97668" lon="4.5449">
        <ele>565.1</ele>
        <time>1970-01-01T02:34:57.000Z</time>
      </trkpt>
      <trkpt lat="45.97666" lon="4.54489">
        <ele>564.8</ele>
        <time>1970-01-01T02:34:58.000Z</time>
      </trkpt>
      <trkpt lat="45.97666" lon="4.54489">
        <ele>564.8</ele>
        <time>1970-01-01T02:34:59.000Z</time>
      </trkpt>
      <trkpt lat="45.97666" lon="4.54489">
        <ele>564.8</ele>
        <time>1970-01-01T02:35:00.000Z</time>
      </trkpt>
      <trkpt lat="45.97664" lon="4.54488">
        <ele>564.7</ele>
        <time>1970-01-01T02:35:01.000Z</time>
      </trkpt>
      <trkpt lat="45.97664" lon="4.54488">
        <ele>564.7</ele>
        <time>1970-01-01T02:35:02.000Z</time>
      </trkpt>
      <trkpt lat="45.97664" lon="4.54488">
        <ele>564.7</ele>
        <time>1970-01-01T02:35:03.000Z</time>
      </trkpt>
      <trkpt lat="45.97661" lon="4.54488">
        <ele>564.5</ele>
        <time>1970-01-01T02:35:04.000Z</time>
      </trkpt>
      <trkpt lat="45.97659" lon="4.54487">
        <ele>564.5</ele>
        <time>1970-01-01T02:35:05.000Z</time>
      </trkpt>
      <trkpt lat="45.97658" lon="4.54487">
        <ele>564.4</ele>
        <time>1970-01-01T02:35:06.000Z</time>
      </trkpt>
      <trkpt lat="45.97657" lon="4.54487">
        <ele>564.3</ele>
        <time>1970-01-01T02:35:07.000Z</time>
      </trkpt>
      <trkpt lat="45.97655" lon="4.54487">
        <ele>564.3</ele>
        <time>1970-01-01T02:35:08.000Z</time>
      </trkpt>
      <trkpt lat="45.97654" lon="4.54486">
        <ele>564.2</ele>
        <time>1970-01-01T02:35:09.000Z</time>
      </trkpt>
      <trkpt lat="45.97652" lon="4.54486">
        <ele>564.1</ele>
        <time>1970-01-01T02:35:10.000Z</time>
      </trkpt>
      <trkpt lat="45.97651" lon="4.54486">
        <ele>564</ele>
        <time>1970-01-01T02:35:11.000Z</time>
      </trkpt>
      <trkpt lat="45.9765" lon="4.54486">
        <ele>564</ele>
        <time>1970-01-01T02:35:12.000Z</time>
      </trkpt>
      <trkpt lat="45.97649" lon="4.54486">
        <ele>563.9</ele>
        <time>1970-01-01T02:35:13.000Z</time>
      </trkpt>
      <trkpt lat="45.97649" lon="4.54486">
        <ele>563.9</ele>
        <time>1970-01-01T02:35:14.000Z</time>
      </trkpt>
      <trkpt lat="45.97648" lon="4.54485">
        <ele>563.8</ele>
        <time>1970-01-01T02:35:15.000Z</time>
      </trkpt>
      <trkpt lat="45.97647" lon="4.54485">
        <ele>563.8</ele>
        <time>1970-01-01T02:35:16.000Z</time>
      </trkpt>
      <trkpt lat="45.97647" lon="4.54485">
        <ele>563.7</ele>
        <time>1970-01-01T02:35:17.000Z</time>
      </trkpt>
      <trkpt lat="45.97646" lon="4.54485">
        <ele>563.7</ele>
        <time>1970-01-01T02:35:18.000Z</time>
      </trkpt>
      <trkpt lat="45.9764" lon="4.54484">
        <ele>563.3</ele>
        <time>1970-01-01T02:35:19.000Z</time>
      </trkpt>
      <trkpt lat="45.97639" lon="4.54484">
        <ele>563.2</ele>
        <time>1970-01-01T02:35:20.000Z</time>
      </trkpt>
      <trkpt lat="45.97638" lon="4.54483">
        <ele>563.1</ele>
        <time>1970-01-01T02:35:21.000Z</time>
      </trkpt>
      <trkpt lat="45.97636" lon="4.54483">
        <ele>563</ele>
        <time>1970-01-01T02:35:22.000Z</time>
      </trkpt>
      <trkpt lat="45.97635" lon="4.54483">
        <ele>563</ele>
        <time>1970-01-01T02:35:23.000Z</time>
      </trkpt>
      <trkpt lat="45.97634" lon="4.54483">
        <ele>562.9</ele>
        <time>1970-01-01T02:35:24.000Z</time>
      </trkpt>
      <trkpt lat="45.97633" lon="4.54483">
        <ele>562.8</ele>
        <time>1970-01-01T02:35:25.000Z</time>
      </trkpt>
      <trkpt lat="45.97632" lon="4.54483">
        <ele>562.7</ele>
        <time>1970-01-01T02:35:26.000Z</time>
      </trkpt>
      <trkpt lat="45.97631" lon="4.54482">
        <ele>562.6</ele>
        <time>1970-01-01T02:35:27.000Z</time>
      </trkpt>
      <trkpt lat="45.9763" lon="4.54482">
        <ele>562.5</ele>
        <time>1970-01-01T02:35:28.000Z</time>
      </trkpt>
      <trkpt lat="45.97628" lon="4.54482">
        <ele>562.4</ele>
        <time>1970-01-01T02:35:29.000Z</time>
      </trkpt>
      <trkpt lat="45.97627" lon="4.54482">
        <ele>562.3</ele>
        <time>1970-01-01T02:35:30.000Z</time>
      </trkpt>
      <trkpt lat="45.97626" lon="4.54482">
        <ele>562.2</ele>
        <time>1970-01-01T02:35:31.000Z</time>
      </trkpt>
      <trkpt lat="45.97625" lon="4.54482">
        <ele>562.1</ele>
        <time>1970-01-01T02:35:32.000Z</time>
      </trkpt>
      <trkpt lat="45.97623" lon="4.54482">
        <ele>562</ele>
        <time>1970-01-01T02:35:33.000Z</time>
      </trkpt>
      <trkpt lat="45.97622" lon="4.54482">
        <ele>561.9</ele>
        <time>1970-01-01T02:35:34.000Z</time>
      </trkpt>
      <trkpt lat="45.97621" lon="4.54482">
        <ele>561.8</ele>
        <time>1970-01-01T02:35:35.000Z</time>
      </trkpt>
      <trkpt lat="45.9762" lon="4.54482">
        <ele>561.7</ele>
        <time>1970-01-01T02:35:36.000Z</time>
      </trkpt>
      <trkpt lat="45.97619" lon="4.54482">
        <ele>561.7</ele>
        <time>1970-01-01T02:35:37.000Z</time>
      </trkpt>
      <trkpt lat="45.97618" lon="4.54482">
        <ele>561.6</ele>
        <time>1970-01-01T02:35:38.000Z</time>
      </trkpt>
      <trkpt lat="45.97617" lon="4.54482">
        <ele>561.5</ele>
        <time>1970-01-01T02:35:39.000Z</time>
      </trkpt>
      <trkpt lat="45.97616" lon="4.54482">
        <ele>561.4</ele>
        <time>1970-01-01T02:35:40.000Z</time>
      </trkpt>
      <trkpt lat="45.97616" lon="4.54483">
        <ele>561.4</ele>
        <time>1970-01-01T02:35:41.000Z</time>
      </trkpt>
      <trkpt lat="45.97615" lon="4.54483">
        <ele>561.3</ele>
        <time>1970-01-01T02:35:42.000Z</time>
      </trkpt>
      <trkpt lat="45.97614" lon="4.54483">
        <ele>561.2</ele>
        <time>1970-01-01T02:35:43.000Z</time>
      </trkpt>
      <trkpt lat="45.97613" lon="4.54483">
        <ele>561.1</ele>
        <time>1970-01-01T02:35:44.000Z</time>
      </trkpt>
      <trkpt lat="45.97611" lon="4.54483">
        <ele>561</ele>
        <time>1970-01-01T02:35:45.000Z</time>
      </trkpt>
      <trkpt lat="45.97609" lon="4.54484">
        <ele>560.9</ele>
        <time>1970-01-01T02:35:46.000Z</time>
      </trkpt>
      <trkpt lat="45.97608" lon="4.54484">
        <ele>560.8</ele>
        <time>1970-01-01T02:35:47.000Z</time>
      </trkpt>
      <trkpt lat="45.97606" lon="4.54484">
        <ele>560.7</ele>
        <time>1970-01-01T02:35:48.000Z</time>
      </trkpt>
      <trkpt lat="45.97604" lon="4.54484">
        <ele>560.6</ele>
        <time>1970-01-01T02:35:49.000Z</time>
      </trkpt>
      <trkpt lat="45.97604" lon="4.54484">
        <ele>560.6</ele>
        <time>1970-01-01T02:35:50.000Z</time>
      </trkpt>
      <trkpt lat="45.97601" lon="4.54485">
        <ele>560.4</ele>
        <time>1970-01-01T02:35:51.000Z</time>
      </trkpt>
      <trkpt lat="45.97601" lon="4.54485">
        <ele>560.4</ele>
        <time>1970-01-01T02:35:52.000Z</time>
      </trkpt>
      <trkpt lat="45.97598" lon="4.54485">
        <ele>560.2</ele>
        <time>1970-01-01T02:35:53.000Z</time>
      </trkpt>
      <trkpt lat="45.97598" lon="4.54485">
        <ele>560.2</ele>
        <time>1970-01-01T02:35:54.000Z</time>
      </trkpt>
      <trkpt lat="45.97595" lon="4.54486">
        <ele>560.1</ele>
        <time>1970-01-01T02:35:55.000Z</time>
      </trkpt>
      <trkpt lat="45.97595" lon="4.54486">
        <ele>560.1</ele>
        <time>1970-01-01T02:35:56.000Z</time>
      </trkpt>
      <trkpt lat="45.97593" lon="4.54487">
        <ele>559.9</ele>
        <time>1970-01-01T02:35:57.000Z</time>
      </trkpt>
      <trkpt lat="45.97593" lon="4.54487">
        <ele>559.9</ele>
        <time>1970-01-01T02:35:58.000Z</time>
      </trkpt>
      <trkpt lat="45.9759" lon="4.54488">
        <ele>559.8</ele>
        <time>1970-01-01T02:35:59.000Z</time>
      </trkpt>
      <trkpt lat="45.9759" lon="4.54488">
        <ele>559.8</ele>
        <time>1970-01-01T02:36:00.000Z</time>
      </trkpt>
      <trkpt lat="45.97588" lon="4.54489">
        <ele>559.7</ele>
        <time>1970-01-01T02:36:01.000Z</time>
      </trkpt>
      <trkpt lat="45.97588" lon="4.54489">
        <ele>559.7</ele>
        <time>1970-01-01T02:36:02.000Z</time>
      </trkpt>
      <trkpt lat="45.97585" lon="4.54489">
        <ele>559.6</ele>
        <time>1970-01-01T02:36:03.000Z</time>
      </trkpt>
      <trkpt lat="45.97584" lon="4.5449">
        <ele>559.5</ele>
        <time>1970-01-01T02:36:04.000Z</time>
      </trkpt>
      <trkpt lat="45.97583" lon="4.5449">
        <ele>559.5</ele>
        <time>1970-01-01T02:36:05.000Z</time>
      </trkpt>
      <trkpt lat="45.97581" lon="4.5449">
        <ele>559.5</ele>
        <time>1970-01-01T02:36:06.000Z</time>
      </trkpt>
      <trkpt lat="45.9758" lon="4.54491">
        <ele>559.4</ele>
        <time>1970-01-01T02:36:07.000Z</time>
      </trkpt>
      <trkpt lat="45.97579" lon="4.54491">
        <ele>559.4</ele>
        <time>1970-01-01T02:36:08.000Z</time>
      </trkpt>
      <trkpt lat="45.97578" lon="4.54491">
        <ele>559.4</ele>
        <time>1970-01-01T02:36:09.000Z</time>
      </trkpt>
      <trkpt lat="45.97576" lon="4.54492">
        <ele>559.4</ele>
        <time>1970-01-01T02:36:10.000Z</time>
      </trkpt>
      <trkpt lat="45.97575" lon="4.54492">
        <ele>559.3</ele>
        <time>1970-01-01T02:36:11.000Z</time>
      </trkpt>
      <trkpt lat="45.97574" lon="4.54493">
        <ele>559.3</ele>
        <time>1970-01-01T02:36:12.000Z</time>
      </trkpt>
      <trkpt lat="45.97572" lon="4.54493">
        <ele>559.3</ele>
        <time>1970-01-01T02:36:13.000Z</time>
      </trkpt>
      <trkpt lat="45.97571" lon="4.54494">
        <ele>559.3</ele>
        <time>1970-01-01T02:36:14.000Z</time>
      </trkpt>
      <trkpt lat="45.9757" lon="4.54494">
        <ele>559.2</ele>
        <time>1970-01-01T02:36:15.000Z</time>
      </trkpt>
      <trkpt lat="45.97568" lon="4.54495">
        <ele>559.2</ele>
        <time>1970-01-01T02:36:16.000Z</time>
      </trkpt>
      <trkpt lat="45.97567" lon="4.54495">
        <ele>559.2</ele>
        <time>1970-01-01T02:36:17.000Z</time>
      </trkpt>
      <trkpt lat="45.97566" lon="4.54496">
        <ele>559.2</ele>
        <time>1970-01-01T02:36:18.000Z</time>
      </trkpt>
      <trkpt lat="45.97565" lon="4.54498">
        <ele>559.2</ele>
        <time>1970-01-01T02:36:19.000Z</time>
      </trkpt>
      <trkpt lat="45.97563" lon="4.54499">
        <ele>559.2</ele>
        <time>1970-01-01T02:36:20.000Z</time>
      </trkpt>
      <trkpt lat="45.97562" lon="4.54501">
        <ele>559.2</ele>
        <time>1970-01-01T02:36:21.000Z</time>
      </trkpt>
      <trkpt lat="45.97561" lon="4.54502">
        <ele>559.2</ele>
        <time>1970-01-01T02:36:22.000Z</time>
      </trkpt>
      <trkpt lat="45.9756" lon="4.54503">
        <ele>559.2</ele>
        <time>1970-01-01T02:36:23.000Z</time>
      </trkpt>
      <trkpt lat="45.9756" lon="4.54503">
        <ele>559.2</ele>
        <time>1970-01-01T02:36:24.000Z</time>
      </trkpt>
      <trkpt lat="45.97558" lon="4.54506">
        <ele>559.2</ele>
        <time>1970-01-01T02:36:25.000Z</time>
      </trkpt>
      <trkpt lat="45.97558" lon="4.54506">
        <ele>559.2</ele>
        <time>1970-01-01T02:36:26.000Z</time>
      </trkpt>
      <trkpt lat="45.97556" lon="4.54508">
        <ele>559.2</ele>
        <time>1970-01-01T02:36:27.000Z</time>
      </trkpt>
      <trkpt lat="45.97555" lon="4.54509">
        <ele>559.2</ele>
        <time>1970-01-01T02:36:28.000Z</time>
      </trkpt>
      <trkpt lat="45.97554" lon="4.5451">
        <ele>559.2</ele>
        <time>1970-01-01T02:36:29.000Z</time>
      </trkpt>
      <trkpt lat="45.97553" lon="4.54511">
        <ele>559.2</ele>
        <time>1970-01-01T02:36:30.000Z</time>
      </trkpt>
      <trkpt lat="45.97552" lon="4.54512">
        <ele>559.3</ele>
        <time>1970-01-01T02:36:31.000Z</time>
      </trkpt>
      <trkpt lat="45.97551" lon="4.54513">
        <ele>559.3</ele>
        <time>1970-01-01T02:36:32.000Z</time>
      </trkpt>
      <trkpt lat="45.9755" lon="4.54514">
        <ele>559.3</ele>
        <time>1970-01-01T02:36:33.000Z</time>
      </trkpt>
      <trkpt lat="45.97549" lon="4.54516">
        <ele>559.3</ele>
        <time>1970-01-01T02:36:34.000Z</time>
      </trkpt>
      <trkpt lat="45.97548" lon="4.54517">
        <ele>559.3</ele>
        <time>1970-01-01T02:36:35.000Z</time>
      </trkpt>
      <trkpt lat="45.97547" lon="4.54518">
        <ele>559.3</ele>
        <time>1970-01-01T02:36:36.000Z</time>
      </trkpt>
      <trkpt lat="45.97545" lon="4.54519">
        <ele>559.3</ele>
        <time>1970-01-01T02:36:37.000Z</time>
      </trkpt>
      <trkpt lat="45.97544" lon="4.5452">
        <ele>559.3</ele>
        <time>1970-01-01T02:36:38.000Z</time>
      </trkpt>
      <trkpt lat="45.97543" lon="4.54522">
        <ele>559.3</ele>
        <time>1970-01-01T02:36:39.000Z</time>
      </trkpt>
      <trkpt lat="45.97543" lon="4.54522">
        <ele>559.3</ele>
        <time>1970-01-01T02:36:40.000Z</time>
      </trkpt>
      <trkpt lat="45.97541" lon="4.54523">
        <ele>559.4</ele>
        <time>1970-01-01T02:36:41.000Z</time>
      </trkpt>
      <trkpt lat="45.97541" lon="4.54523">
        <ele>559.4</ele>
        <time>1970-01-01T02:36:42.000Z</time>
      </trkpt>
      <trkpt lat="45.9754" lon="4.54526">
        <ele>559.4</ele>
        <time>1970-01-01T02:36:43.000Z</time>
      </trkpt>
      <trkpt lat="45.97539" lon="4.54527">
        <ele>559.4</ele>
        <time>1970-01-01T02:36:44.000Z</time>
      </trkpt>
      <trkpt lat="45.97538" lon="4.54528">
        <ele>559.4</ele>
        <time>1970-01-01T02:36:45.000Z</time>
      </trkpt>
      <trkpt lat="45.97537" lon="4.54529">
        <ele>559.4</ele>
        <time>1970-01-01T02:36:46.000Z</time>
      </trkpt>
      <trkpt lat="45.97536" lon="4.5453">
        <ele>559.4</ele>
        <time>1970-01-01T02:36:47.000Z</time>
      </trkpt>
      <trkpt lat="45.97536" lon="4.5453">
        <ele>559.4</ele>
        <time>1970-01-01T02:36:48.000Z</time>
      </trkpt>
      <trkpt lat="45.97534" lon="4.54534">
        <ele>559.4</ele>
        <time>1970-01-01T02:36:49.000Z</time>
      </trkpt>
      <trkpt lat="45.97534" lon="4.54534">
        <ele>559.4</ele>
        <time>1970-01-01T02:36:50.000Z</time>
      </trkpt>
      <trkpt lat="45.97532" lon="4.54536">
        <ele>559.4</ele>
        <time>1970-01-01T02:36:51.000Z</time>
      </trkpt>
      <trkpt lat="45.97532" lon="4.54536">
        <ele>559.4</ele>
        <time>1970-01-01T02:36:52.000Z</time>
      </trkpt>
      <trkpt lat="45.97529" lon="4.54538">
        <ele>559.3</ele>
        <time>1970-01-01T02:36:53.000Z</time>
      </trkpt>
      <trkpt lat="45.97528" lon="4.54539">
        <ele>559.3</ele>
        <time>1970-01-01T02:36:54.000Z</time>
      </trkpt>
      <trkpt lat="45.97527" lon="4.5454">
        <ele>559.3</ele>
        <time>1970-01-01T02:36:55.000Z</time>
      </trkpt>
      <trkpt lat="45.97526" lon="4.54542">
        <ele>559.3</ele>
        <time>1970-01-01T02:36:56.000Z</time>
      </trkpt>
      <trkpt lat="45.97525" lon="4.54543">
        <ele>559.3</ele>
        <time>1970-01-01T02:36:57.000Z</time>
      </trkpt>
      <trkpt lat="45.97525" lon="4.54544">
        <ele>559.3</ele>
        <time>1970-01-01T02:36:58.000Z</time>
      </trkpt>
      <trkpt lat="45.97524" lon="4.54546">
        <ele>559.3</ele>
        <time>1970-01-01T02:36:59.000Z</time>
      </trkpt>
      <trkpt lat="45.97523" lon="4.54547">
        <ele>559.3</ele>
        <time>1970-01-01T02:37:00.000Z</time>
      </trkpt>
      <trkpt lat="45.97523" lon="4.54547">
        <ele>559.3</ele>
        <time>1970-01-01T02:37:01.000Z</time>
      </trkpt>
      <trkpt lat="45.97521" lon="4.5455">
        <ele>559.2</ele>
        <time>1970-01-01T02:37:02.000Z</time>
      </trkpt>
      <trkpt lat="45.9752" lon="4.54551">
        <ele>559.2</ele>
        <time>1970-01-01T02:37:03.000Z</time>
      </trkpt>
      <trkpt lat="45.97519" lon="4.54552">
        <ele>559.2</ele>
        <time>1970-01-01T02:37:04.000Z</time>
      </trkpt>
      <trkpt lat="45.97518" lon="4.54553">
        <ele>559.2</ele>
        <time>1970-01-01T02:37:05.000Z</time>
      </trkpt>
      <trkpt lat="45.97517" lon="4.54555">
        <ele>559.2</ele>
        <time>1970-01-01T02:37:06.000Z</time>
      </trkpt>
      <trkpt lat="45.97515" lon="4.54557">
        <ele>559.1</ele>
        <time>1970-01-01T02:37:07.000Z</time>
      </trkpt>
      <trkpt lat="45.97515" lon="4.54557">
        <ele>559.1</ele>
        <time>1970-01-01T02:37:08.000Z</time>
      </trkpt>
      <trkpt lat="45.97513" lon="4.5456">
        <ele>559.1</ele>
        <time>1970-01-01T02:37:09.000Z</time>
      </trkpt>
      <trkpt lat="45.97513" lon="4.5456">
        <ele>559.1</ele>
        <time>1970-01-01T02:37:10.000Z</time>
      </trkpt>
      <trkpt lat="45.97512" lon="4.54563">
        <ele>559</ele>
        <time>1970-01-01T02:37:11.000Z</time>
      </trkpt>
      <trkpt lat="45.97512" lon="4.54563">
        <ele>559</ele>
        <time>1970-01-01T02:37:12.000Z</time>
      </trkpt>
      <trkpt lat="45.9751" lon="4.54566">
        <ele>558.9</ele>
        <time>1970-01-01T02:37:13.000Z</time>
      </trkpt>
      <trkpt lat="45.9751" lon="4.54566">
        <ele>558.9</ele>
        <time>1970-01-01T02:37:14.000Z</time>
      </trkpt>
      <trkpt lat="45.97508" lon="4.54568">
        <ele>558.9</ele>
        <time>1970-01-01T02:37:15.000Z</time>
      </trkpt>
      <trkpt lat="45.97508" lon="4.54568">
        <ele>558.9</ele>
        <time>1970-01-01T02:37:16.000Z</time>
      </trkpt>
      <trkpt lat="45.97506" lon="4.54571">
        <ele>558.8</ele>
        <time>1970-01-01T02:37:17.000Z</time>
      </trkpt>
      <trkpt lat="45.97506" lon="4.54571">
        <ele>558.8</ele>
        <time>1970-01-01T02:37:18.000Z</time>
      </trkpt>
      <trkpt lat="45.97504" lon="4.54573">
        <ele>558.8</ele>
        <time>1970-01-01T02:37:19.000Z</time>
      </trkpt>
      <trkpt lat="45.97504" lon="4.54573">
        <ele>558.8</ele>
        <time>1970-01-01T02:37:20.000Z</time>
      </trkpt>
      <trkpt lat="45.97502" lon="4.54575">
        <ele>558.7</ele>
        <time>1970-01-01T02:37:21.000Z</time>
      </trkpt>
      <trkpt lat="45.97502" lon="4.54576">
        <ele>558.7</ele>
        <time>1970-01-01T02:37:22.000Z</time>
      </trkpt>
      <trkpt lat="45.97501" lon="4.54577">
        <ele>558.6</ele>
        <time>1970-01-01T02:37:23.000Z</time>
      </trkpt>
      <trkpt lat="45.975" lon="4.54578">
        <ele>558.6</ele>
        <time>1970-01-01T02:37:24.000Z</time>
      </trkpt>
      <trkpt lat="45.97499" lon="4.54579">
        <ele>558.6</ele>
        <time>1970-01-01T02:37:25.000Z</time>
      </trkpt>
      <trkpt lat="45.97498" lon="4.5458">
        <ele>558.6</ele>
        <time>1970-01-01T02:37:26.000Z</time>
      </trkpt>
      <trkpt lat="45.97497" lon="4.54582">
        <ele>558.5</ele>
        <time>1970-01-01T02:37:27.000Z</time>
      </trkpt>
      <trkpt lat="45.97496" lon="4.54583">
        <ele>558.5</ele>
        <time>1970-01-01T02:37:28.000Z</time>
      </trkpt>
      <trkpt lat="45.97496" lon="4.54583">
        <ele>558.5</ele>
        <time>1970-01-01T02:37:29.000Z</time>
      </trkpt>
      <trkpt lat="45.97495" lon="4.54586">
        <ele>558.5</ele>
        <time>1970-01-01T02:37:30.000Z</time>
      </trkpt>
      <trkpt lat="45.97495" lon="4.54586">
        <ele>558.5</ele>
        <time>1970-01-01T02:37:31.000Z</time>
      </trkpt>
      <trkpt lat="45.97494" lon="4.54588">
        <ele>558.4</ele>
        <time>1970-01-01T02:37:32.000Z</time>
      </trkpt>
      <trkpt lat="45.97493" lon="4.5459">
        <ele>558.4</ele>
        <time>1970-01-01T02:37:33.000Z</time>
      </trkpt>
      <trkpt lat="45.97492" lon="4.54591">
        <ele>558.4</ele>
        <time>1970-01-01T02:37:34.000Z</time>
      </trkpt>
      <trkpt lat="45.97491" lon="4.54593">
        <ele>558.4</ele>
        <time>1970-01-01T02:37:35.000Z</time>
      </trkpt>
      <trkpt lat="45.97491" lon="4.54594">
        <ele>558.4</ele>
        <time>1970-01-01T02:37:36.000Z</time>
      </trkpt>
      <trkpt lat="45.9749" lon="4.54596">
        <ele>558.4</ele>
        <time>1970-01-01T02:37:37.000Z</time>
      </trkpt>
      <trkpt lat="45.97489" lon="4.54597">
        <ele>558.3</ele>
        <time>1970-01-01T02:37:38.000Z</time>
      </trkpt>
      <trkpt lat="45.97489" lon="4.54599">
        <ele>558.3</ele>
        <time>1970-01-01T02:37:39.000Z</time>
      </trkpt>
      <trkpt lat="45.97488" lon="4.546">
        <ele>558.3</ele>
        <time>1970-01-01T02:37:40.000Z</time>
      </trkpt>
      <trkpt lat="45.97487" lon="4.54602">
        <ele>558.3</ele>
        <time>1970-01-01T02:37:41.000Z</time>
      </trkpt>
      <trkpt lat="45.97486" lon="4.54604">
        <ele>558.3</ele>
        <time>1970-01-01T02:37:42.000Z</time>
      </trkpt>
      <trkpt lat="45.97486" lon="4.54606">
        <ele>558.3</ele>
        <time>1970-01-01T02:37:43.000Z</time>
      </trkpt>
      <trkpt lat="45.97485" lon="4.54608">
        <ele>558.3</ele>
        <time>1970-01-01T02:37:44.000Z</time>
      </trkpt>
      <trkpt lat="45.97484" lon="4.5461">
        <ele>558.3</ele>
        <time>1970-01-01T02:37:45.000Z</time>
      </trkpt>
      <trkpt lat="45.97484" lon="4.5461">
        <ele>558.3</ele>
        <time>1970-01-01T02:37:46.000Z</time>
      </trkpt>
      <trkpt lat="45.97483" lon="4.54613">
        <ele>558.3</ele>
        <time>1970-01-01T02:37:47.000Z</time>
      </trkpt>
      <trkpt lat="45.97483" lon="4.54613">
        <ele>558.3</ele>
        <time>1970-01-01T02:37:48.000Z</time>
      </trkpt>
      <trkpt lat="45.97482" lon="4.54616">
        <ele>558.3</ele>
        <time>1970-01-01T02:37:49.000Z</time>
      </trkpt>
      <trkpt lat="45.97482" lon="4.54616">
        <ele>558.3</ele>
        <time>1970-01-01T02:37:50.000Z</time>
      </trkpt>
      <trkpt lat="45.97481" lon="4.54619">
        <ele>558.3</ele>
        <time>1970-01-01T02:37:51.000Z</time>
      </trkpt>
      <trkpt lat="45.9748" lon="4.5462">
        <ele>558.3</ele>
        <time>1970-01-01T02:37:52.000Z</time>
      </trkpt>
      <trkpt lat="45.9748" lon="4.54622">
        <ele>558.3</ele>
        <time>1970-01-01T02:37:53.000Z</time>
      </trkpt>
      <trkpt lat="45.97479" lon="4.54624">
        <ele>558.3</ele>
        <time>1970-01-01T02:37:54.000Z</time>
      </trkpt>
      <trkpt lat="45.97479" lon="4.54625">
        <ele>558.3</ele>
        <time>1970-01-01T02:37:55.000Z</time>
      </trkpt>
      <trkpt lat="45.97478" lon="4.54627">
        <ele>558.3</ele>
        <time>1970-01-01T02:37:56.000Z</time>
      </trkpt>
      <trkpt lat="45.97478" lon="4.54629">
        <ele>558.3</ele>
        <time>1970-01-01T02:37:57.000Z</time>
      </trkpt>
      <trkpt lat="45.97477" lon="4.5463">
        <ele>558.3</ele>
        <time>1970-01-01T02:37:58.000Z</time>
      </trkpt>
      <trkpt lat="45.97477" lon="4.54632">
        <ele>558.3</ele>
        <time>1970-01-01T02:37:59.000Z</time>
      </trkpt>
      <trkpt lat="45.97476" lon="4.54634">
        <ele>558.3</ele>
        <time>1970-01-01T02:38:00.000Z</time>
      </trkpt>
      <trkpt lat="45.97476" lon="4.54636">
        <ele>558.2</ele>
        <time>1970-01-01T02:38:01.000Z</time>
      </trkpt>
      <trkpt lat="45.97475" lon="4.54637">
        <ele>558.2</ele>
        <time>1970-01-01T02:38:02.000Z</time>
      </trkpt>
      <trkpt lat="45.97475" lon="4.54639">
        <ele>558.2</ele>
        <time>1970-01-01T02:38:03.000Z</time>
      </trkpt>
      <trkpt lat="45.97474" lon="4.54641">
        <ele>558.2</ele>
        <time>1970-01-01T02:38:04.000Z</time>
      </trkpt>
      <trkpt lat="45.97474" lon="4.54643">
        <ele>558.2</ele>
        <time>1970-01-01T02:38:05.000Z</time>
      </trkpt>
      <trkpt lat="45.97473" lon="4.54645">
        <ele>558.2</ele>
        <time>1970-01-01T02:38:06.000Z</time>
      </trkpt>
      <trkpt lat="45.97473" lon="4.54647">
        <ele>558.2</ele>
        <time>1970-01-01T02:38:07.000Z</time>
      </trkpt>
      <trkpt lat="45.97473" lon="4.54648">
        <ele>558.2</ele>
        <time>1970-01-01T02:38:08.000Z</time>
      </trkpt>
      <trkpt lat="45.97472" lon="4.5465">
        <ele>558.2</ele>
        <time>1970-01-01T02:38:09.000Z</time>
      </trkpt>
      <trkpt lat="45.97472" lon="4.54652">
        <ele>558.2</ele>
        <time>1970-01-01T02:38:10.000Z</time>
      </trkpt>
      <trkpt lat="45.97472" lon="4.54653">
        <ele>558.2</ele>
        <time>1970-01-01T02:38:11.000Z</time>
      </trkpt>
      <trkpt lat="45.97471" lon="4.54655">
        <ele>558.2</ele>
        <time>1970-01-01T02:38:12.000Z</time>
      </trkpt>
      <trkpt lat="45.97471" lon="4.54657">
        <ele>558.2</ele>
        <time>1970-01-01T02:38:13.000Z</time>
      </trkpt>
      <trkpt lat="45.97471" lon="4.54659">
        <ele>558.2</ele>
        <time>1970-01-01T02:38:14.000Z</time>
      </trkpt>
      <trkpt lat="45.9747" lon="4.54661">
        <ele>558.2</ele>
        <time>1970-01-01T02:38:15.000Z</time>
      </trkpt>
      <trkpt lat="45.9747" lon="4.54663">
        <ele>558.2</ele>
        <time>1970-01-01T02:38:16.000Z</time>
      </trkpt>
      <trkpt lat="45.97469" lon="4.54665">
        <ele>558.2</ele>
        <time>1970-01-01T02:38:17.000Z</time>
      </trkpt>
      <trkpt lat="45.97469" lon="4.54667">
        <ele>558.2</ele>
        <time>1970-01-01T02:38:18.000Z</time>
      </trkpt>
      <trkpt lat="45.97468" lon="4.54669">
        <ele>558.2</ele>
        <time>1970-01-01T02:38:19.000Z</time>
      </trkpt>
      <trkpt lat="45.97468" lon="4.54671">
        <ele>558.2</ele>
        <time>1970-01-01T02:38:20.000Z</time>
      </trkpt>
      <trkpt lat="45.97468" lon="4.54673">
        <ele>558.2</ele>
        <time>1970-01-01T02:38:21.000Z</time>
      </trkpt>
      <trkpt lat="45.97468" lon="4.54675">
        <ele>558.1</ele>
        <time>1970-01-01T02:38:22.000Z</time>
      </trkpt>
      <trkpt lat="45.97468" lon="4.54677">
        <ele>558.1</ele>
        <time>1970-01-01T02:38:23.000Z</time>
      </trkpt>
      <trkpt lat="45.97468" lon="4.54679">
        <ele>558.1</ele>
        <time>1970-01-01T02:38:24.000Z</time>
      </trkpt>
      <trkpt lat="45.97467" lon="4.54681">
        <ele>558.1</ele>
        <time>1970-01-01T02:38:25.000Z</time>
      </trkpt>
      <trkpt lat="45.97467" lon="4.54683">
        <ele>558.1</ele>
        <time>1970-01-01T02:38:26.000Z</time>
      </trkpt>
      <trkpt lat="45.97467" lon="4.54685">
        <ele>558.1</ele>
        <time>1970-01-01T02:38:27.000Z</time>
      </trkpt>
      <trkpt lat="45.97467" lon="4.54687">
        <ele>558.1</ele>
        <time>1970-01-01T02:38:28.000Z</time>
      </trkpt>
      <trkpt lat="45.97467" lon="4.54688">
        <ele>558.1</ele>
        <time>1970-01-01T02:38:29.000Z</time>
      </trkpt>
      <trkpt lat="45.97467" lon="4.5469">
        <ele>558.1</ele>
        <time>1970-01-01T02:38:30.000Z</time>
      </trkpt>
      <trkpt lat="45.97467" lon="4.54692">
        <ele>558.1</ele>
        <time>1970-01-01T02:38:31.000Z</time>
      </trkpt>
      <trkpt lat="45.97467" lon="4.54694">
        <ele>558</ele>
        <time>1970-01-01T02:38:32.000Z</time>
      </trkpt>
      <trkpt lat="45.97467" lon="4.54695">
        <ele>558</ele>
        <time>1970-01-01T02:38:33.000Z</time>
      </trkpt>
      <trkpt lat="45.97467" lon="4.54697">
        <ele>558</ele>
        <time>1970-01-01T02:38:34.000Z</time>
      </trkpt>
      <trkpt lat="45.97467" lon="4.54699">
        <ele>558</ele>
        <time>1970-01-01T02:38:35.000Z</time>
      </trkpt>
      <trkpt lat="45.97467" lon="4.54701">
        <ele>557.9</ele>
        <time>1970-01-01T02:38:36.000Z</time>
      </trkpt>
      <trkpt lat="45.97466" lon="4.54702">
        <ele>557.9</ele>
        <time>1970-01-01T02:38:37.000Z</time>
      </trkpt>
      <trkpt lat="45.97466" lon="4.54704">
        <ele>557.9</ele>
        <time>1970-01-01T02:38:38.000Z</time>
      </trkpt>
      <trkpt lat="45.97466" lon="4.54706">
        <ele>557.8</ele>
        <time>1970-01-01T02:38:39.000Z</time>
      </trkpt>
      <trkpt lat="45.97466" lon="4.54708">
        <ele>557.8</ele>
        <time>1970-01-01T02:38:40.000Z</time>
      </trkpt>
      <trkpt lat="45.97466" lon="4.54709">
        <ele>557.7</ele>
        <time>1970-01-01T02:38:41.000Z</time>
      </trkpt>
      <trkpt lat="45.97465" lon="4.54711">
        <ele>557.7</ele>
        <time>1970-01-01T02:38:42.000Z</time>
      </trkpt>
      <trkpt lat="45.97465" lon="4.54713">
        <ele>557.7</ele>
        <time>1970-01-01T02:38:43.000Z</time>
      </trkpt>
      <trkpt lat="45.97465" lon="4.54715">
        <ele>557.6</ele>
        <time>1970-01-01T02:38:44.000Z</time>
      </trkpt>
      <trkpt lat="45.97465" lon="4.54717">
        <ele>557.6</ele>
        <time>1970-01-01T02:38:45.000Z</time>
      </trkpt>
      <trkpt lat="45.97464" lon="4.54719">
        <ele>557.5</ele>
        <time>1970-01-01T02:38:46.000Z</time>
      </trkpt>
      <trkpt lat="45.97464" lon="4.54721">
        <ele>557.5</ele>
        <time>1970-01-01T02:38:47.000Z</time>
      </trkpt>
      <trkpt lat="45.97464" lon="4.54723">
        <ele>557.4</ele>
        <time>1970-01-01T02:38:48.000Z</time>
      </trkpt>
      <trkpt lat="45.97463" lon="4.54725">
        <ele>557.4</ele>
        <time>1970-01-01T02:38:49.000Z</time>
      </trkpt>
      <trkpt lat="45.97463" lon="4.54727">
        <ele>557.3</ele>
        <time>1970-01-01T02:38:50.000Z</time>
      </trkpt>
      <trkpt lat="45.97463" lon="4.54727">
        <ele>557.3</ele>
        <time>1970-01-01T02:38:51.000Z</time>
      </trkpt>
      <trkpt lat="45.97463" lon="4.5473">
        <ele>557.2</ele>
        <time>1970-01-01T02:38:52.000Z</time>
      </trkpt>
      <trkpt lat="45.97463" lon="4.54731">
        <ele>557.2</ele>
        <time>1970-01-01T02:38:53.000Z</time>
      </trkpt>
      <trkpt lat="45.97463" lon="4.54732">
        <ele>557.2</ele>
        <time>1970-01-01T02:38:54.000Z</time>
      </trkpt>
      <trkpt lat="45.97463" lon="4.54733">
        <ele>557.1</ele>
        <time>1970-01-01T02:38:55.000Z</time>
      </trkpt>
      <trkpt lat="45.97463" lon="4.54734">
        <ele>557.1</ele>
        <time>1970-01-01T02:38:56.000Z</time>
      </trkpt>
      <trkpt lat="45.97463" lon="4.54735">
        <ele>557.1</ele>
        <time>1970-01-01T02:38:57.000Z</time>
      </trkpt>
      <trkpt lat="45.97463" lon="4.54736">
        <ele>557.1</ele>
        <time>1970-01-01T02:38:58.000Z</time>
      </trkpt>
      <trkpt lat="45.97463" lon="4.54737">
        <ele>557</ele>
        <time>1970-01-01T02:38:59.000Z</time>
      </trkpt>
      <trkpt lat="45.97463" lon="4.54738">
        <ele>557</ele>
        <time>1970-01-01T02:39:00.000Z</time>
      </trkpt>
      <trkpt lat="45.97463" lon="4.54747">
        <ele>556.7</ele>
        <time>1970-01-01T02:39:01.000Z</time>
      </trkpt>
      <trkpt lat="45.97463" lon="4.54749">
        <ele>556.6</ele>
        <time>1970-01-01T02:39:02.000Z</time>
      </trkpt>
      <trkpt lat="45.97462" lon="4.54751">
        <ele>556.5</ele>
        <time>1970-01-01T02:39:03.000Z</time>
      </trkpt>
      <trkpt lat="45.97462" lon="4.54753">
        <ele>556.5</ele>
        <time>1970-01-01T02:39:04.000Z</time>
      </trkpt>
      <trkpt lat="45.97462" lon="4.54755">
        <ele>556.2</ele>
        <time>1970-01-01T02:39:06.000Z</time>
      </trkpt>
      <trkpt lat="45.97462" lon="4.54757">
        <ele>556</ele>
        <time>1970-01-01T02:39:07.000Z</time>
      </trkpt>
      <trkpt lat="45.97462" lon="4.54759">
        <ele>555.9</ele>
        <time>1970-01-01T02:39:08.000Z</time>
      </trkpt>
      <trkpt lat="45.97462" lon="4.5476">
        <ele>555.8</ele>
        <time>1970-01-01T02:39:09.000Z</time>
      </trkpt>
      <trkpt lat="45.97462" lon="4.54762">
        <ele>555.7</ele>
        <time>1970-01-01T02:39:10.000Z</time>
      </trkpt>
      <trkpt lat="45.97462" lon="4.54763">
        <ele>555.7</ele>
        <time>1970-01-01T02:39:11.000Z</time>
      </trkpt>
      <trkpt lat="45.97462" lon="4.54764">
        <ele>555.6</ele>
        <time>1970-01-01T02:39:12.000Z</time>
      </trkpt>
      <trkpt lat="45.97462" lon="4.54765">
        <ele>555.5</ele>
        <time>1970-01-01T02:39:13.000Z</time>
      </trkpt>
      <trkpt lat="45.97462" lon="4.54767">
        <ele>555.4</ele>
        <time>1970-01-01T02:39:14.000Z</time>
      </trkpt>
      <trkpt lat="45.97463" lon="4.54768">
        <ele>555.3</ele>
        <time>1970-01-01T02:39:15.000Z</time>
      </trkpt>
      <trkpt lat="45.97463" lon="4.54769">
        <ele>555.3</ele>
        <time>1970-01-01T02:39:16.000Z</time>
      </trkpt>
      <trkpt lat="45.97463" lon="4.54771">
        <ele>555.2</ele>
        <time>1970-01-01T02:39:17.000Z</time>
      </trkpt>
      <trkpt lat="45.97463" lon="4.54772">
        <ele>555.1</ele>
        <time>1970-01-01T02:39:18.000Z</time>
      </trkpt>
      <trkpt lat="45.97463" lon="4.54773">
        <ele>555</ele>
        <time>1970-01-01T02:39:19.000Z</time>
      </trkpt>
      <trkpt lat="45.97464" lon="4.54774">
        <ele>554.9</ele>
        <time>1970-01-01T02:39:20.000Z</time>
      </trkpt>
      <trkpt lat="45.97464" lon="4.54775">
        <ele>554.8</ele>
        <time>1970-01-01T02:39:21.000Z</time>
      </trkpt>
      <trkpt lat="45.97465" lon="4.54776">
        <ele>554.7</ele>
        <time>1970-01-01T02:39:22.000Z</time>
      </trkpt>
      <trkpt lat="45.97466" lon="4.54777">
        <ele>554.6</ele>
        <time>1970-01-01T02:39:23.000Z</time>
      </trkpt>
      <trkpt lat="45.97466" lon="4.54778">
        <ele>554.5</ele>
        <time>1970-01-01T02:39:24.000Z</time>
      </trkpt>
      <trkpt lat="45.97467" lon="4.54779">
        <ele>554.4</ele>
        <time>1970-01-01T02:39:25.000Z</time>
      </trkpt>
      <trkpt lat="45.97467" lon="4.5478">
        <ele>554.3</ele>
        <time>1970-01-01T02:39:26.000Z</time>
      </trkpt>
      <trkpt lat="45.97468" lon="4.54781">
        <ele>554.2</ele>
        <time>1970-01-01T02:39:27.000Z</time>
      </trkpt>
      <trkpt lat="45.97469" lon="4.54782">
        <ele>554.1</ele>
        <time>1970-01-01T02:39:28.000Z</time>
      </trkpt>
      <trkpt lat="45.97469" lon="4.54784">
        <ele>554</ele>
        <time>1970-01-01T02:39:29.000Z</time>
      </trkpt>
      <trkpt lat="45.9747" lon="4.54784">
        <ele>553.9</ele>
        <time>1970-01-01T02:39:30.000Z</time>
      </trkpt>
      <trkpt lat="45.9747" lon="4.54785">
        <ele>553.9</ele>
        <time>1970-01-01T02:39:31.000Z</time>
      </trkpt>
      <trkpt lat="45.97471" lon="4.54786">
        <ele>553.8</ele>
        <time>1970-01-01T02:39:32.000Z</time>
      </trkpt>
      <trkpt lat="45.97471" lon="4.54786">
        <ele>553.7</ele>
        <time>1970-01-01T02:39:33.000Z</time>
      </trkpt>
      <trkpt lat="45.97471" lon="4.54787">
        <ele>553.7</ele>
        <time>1970-01-01T02:39:34.000Z</time>
      </trkpt>
      <trkpt lat="45.97472" lon="4.54788">
        <ele>553.6</ele>
        <time>1970-01-01T02:39:35.000Z</time>
      </trkpt>
      <trkpt lat="45.97472" lon="4.54788">
        <ele>553.5</ele>
        <time>1970-01-01T02:39:36.000Z</time>
      </trkpt>
      <trkpt lat="45.97473" lon="4.54789">
        <ele>553.5</ele>
        <time>1970-01-01T02:39:37.000Z</time>
      </trkpt>
      <trkpt lat="45.97477" lon="4.54796">
        <ele>552.8</ele>
        <time>1970-01-01T02:39:38.000Z</time>
      </trkpt>
      <trkpt lat="45.97478" lon="4.54797">
        <ele>552.7</ele>
        <time>1970-01-01T02:39:39.000Z</time>
      </trkpt>
      <trkpt lat="45.97478" lon="4.54799">
        <ele>552.5</ele>
        <time>1970-01-01T02:39:40.000Z</time>
      </trkpt>
      <trkpt lat="45.97479" lon="4.548">
        <ele>552.4</ele>
        <time>1970-01-01T02:39:41.000Z</time>
      </trkpt>
      <trkpt lat="45.9748" lon="4.54801">
        <ele>552.3</ele>
        <time>1970-01-01T02:39:42.000Z</time>
      </trkpt>
      <trkpt lat="45.97481" lon="4.54803">
        <ele>552.1</ele>
        <time>1970-01-01T02:39:43.000Z</time>
      </trkpt>
      <trkpt lat="45.97482" lon="4.54804">
        <ele>552</ele>
        <time>1970-01-01T02:39:44.000Z</time>
      </trkpt>
      <trkpt lat="45.97482" lon="4.54805">
        <ele>551.9</ele>
        <time>1970-01-01T02:39:45.000Z</time>
      </trkpt>
      <trkpt lat="45.97484" lon="4.54807">
        <ele>551.8</ele>
        <time>1970-01-01T02:39:46.000Z</time>
      </trkpt>
      <trkpt lat="45.97485" lon="4.54808">
        <ele>551.6</ele>
        <time>1970-01-01T02:39:47.000Z</time>
      </trkpt>
      <trkpt lat="45.97486" lon="4.54809">
        <ele>551.5</ele>
        <time>1970-01-01T02:39:48.000Z</time>
      </trkpt>
      <trkpt lat="45.97487" lon="4.5481">
        <ele>551.4</ele>
        <time>1970-01-01T02:39:49.000Z</time>
      </trkpt>
      <trkpt lat="45.97488" lon="4.54811">
        <ele>551.2</ele>
        <time>1970-01-01T02:39:50.000Z</time>
      </trkpt>
      <trkpt lat="45.97489" lon="4.54812">
        <ele>551.1</ele>
        <time>1970-01-01T02:39:51.000Z</time>
      </trkpt>
      <trkpt lat="45.9749" lon="4.54814">
        <ele>551</ele>
        <time>1970-01-01T02:39:52.000Z</time>
      </trkpt>
      <trkpt lat="45.97491" lon="4.54814">
        <ele>550.9</ele>
        <time>1970-01-01T02:39:53.000Z</time>
      </trkpt>
      <trkpt lat="45.97492" lon="4.54814">
        <ele>550.8</ele>
        <time>1970-01-01T02:39:54.000Z</time>
      </trkpt>
      <trkpt lat="45.97493" lon="4.54815">
        <ele>550.7</ele>
        <time>1970-01-01T02:39:55.000Z</time>
      </trkpt>
      <trkpt lat="45.97494" lon="4.54815">
        <ele>550.7</ele>
        <time>1970-01-01T02:39:56.000Z</time>
      </trkpt>
      <trkpt lat="45.97495" lon="4.54816">
        <ele>550.6</ele>
        <time>1970-01-01T02:39:57.000Z</time>
      </trkpt>
      <trkpt lat="45.97495" lon="4.54816">
        <ele>550.5</ele>
        <time>1970-01-01T02:39:58.000Z</time>
      </trkpt>
      <trkpt lat="45.97496" lon="4.54816">
        <ele>550.4</ele>
        <time>1970-01-01T02:39:59.000Z</time>
      </trkpt>
      <trkpt lat="45.97497" lon="4.54817">
        <ele>550.3</ele>
        <time>1970-01-01T02:40:00.000Z</time>
      </trkpt>
      <trkpt lat="45.97498" lon="4.54817">
        <ele>550.3</ele>
        <time>1970-01-01T02:40:01.000Z</time>
      </trkpt>
      <trkpt lat="45.97499" lon="4.54818">
        <ele>550.2</ele>
        <time>1970-01-01T02:40:02.000Z</time>
      </trkpt>
      <trkpt lat="45.975" lon="4.54818">
        <ele>550.1</ele>
        <time>1970-01-01T02:40:03.000Z</time>
      </trkpt>
      <trkpt lat="45.97501" lon="4.54819">
        <ele>550</ele>
        <time>1970-01-01T02:40:04.000Z</time>
      </trkpt>
      <trkpt lat="45.97501" lon="4.5482">
        <ele>550</ele>
        <time>1970-01-01T02:40:05.000Z</time>
      </trkpt>
      <trkpt lat="45.97502" lon="4.54821">
        <ele>549.9</ele>
        <time>1970-01-01T02:40:06.000Z</time>
      </trkpt>
      <trkpt lat="45.97503" lon="4.54822">
        <ele>549.8</ele>
        <time>1970-01-01T02:40:07.000Z</time>
      </trkpt>
      <trkpt lat="45.97504" lon="4.54823">
        <ele>549.7</ele>
        <time>1970-01-01T02:40:08.000Z</time>
      </trkpt>
      <trkpt lat="45.97505" lon="4.54824">
        <ele>549.7</ele>
        <time>1970-01-01T02:40:09.000Z</time>
      </trkpt>
      <trkpt lat="45.97506" lon="4.54824">
        <ele>549.6</ele>
        <time>1970-01-01T02:40:10.000Z</time>
      </trkpt>
      <trkpt lat="45.97506" lon="4.54825">
        <ele>549.5</ele>
        <time>1970-01-01T02:40:11.000Z</time>
      </trkpt>
      <trkpt lat="45.97508" lon="4.54826">
        <ele>549.4</ele>
        <time>1970-01-01T02:40:12.000Z</time>
      </trkpt>
      <trkpt lat="45.97509" lon="4.54827">
        <ele>549.3</ele>
        <time>1970-01-01T02:40:13.000Z</time>
      </trkpt>
      <trkpt lat="45.9751" lon="4.54828">
        <ele>549.2</ele>
        <time>1970-01-01T02:40:14.000Z</time>
      </trkpt>
      <trkpt lat="45.97511" lon="4.54828">
        <ele>549.1</ele>
        <time>1970-01-01T02:40:15.000Z</time>
      </trkpt>
      <trkpt lat="45.97512" lon="4.54829">
        <ele>549.1</ele>
        <time>1970-01-01T02:40:16.000Z</time>
      </trkpt>
      <trkpt lat="45.97514" lon="4.5483">
        <ele>549</ele>
        <time>1970-01-01T02:40:17.000Z</time>
      </trkpt>
      <trkpt lat="45.97515" lon="4.5483">
        <ele>548.9</ele>
        <time>1970-01-01T02:40:18.000Z</time>
      </trkpt>
      <trkpt lat="45.97516" lon="4.54831">
        <ele>548.8</ele>
        <time>1970-01-01T02:40:19.000Z</time>
      </trkpt>
      <trkpt lat="45.97517" lon="4.54831">
        <ele>548.7</ele>
        <time>1970-01-01T02:40:20.000Z</time>
      </trkpt>
      <trkpt lat="45.97518" lon="4.54832">
        <ele>548.7</ele>
        <time>1970-01-01T02:40:21.000Z</time>
      </trkpt>
      <trkpt lat="45.97518" lon="4.54832">
        <ele>548.6</ele>
        <time>1970-01-01T02:40:22.000Z</time>
      </trkpt>
      <trkpt lat="45.97519" lon="4.54832">
        <ele>548.6</ele>
        <time>1970-01-01T02:40:23.000Z</time>
      </trkpt>
      <trkpt lat="45.9752" lon="4.54833">
        <ele>548.5</ele>
        <time>1970-01-01T02:40:24.000Z</time>
      </trkpt>
      <trkpt lat="45.97521" lon="4.54833">
        <ele>548.5</ele>
        <time>1970-01-01T02:40:25.000Z</time>
      </trkpt>
      <trkpt lat="45.97527" lon="4.54836">
        <ele>548.1</ele>
        <time>1970-01-01T02:40:26.000Z</time>
      </trkpt>
      <trkpt lat="45.97529" lon="4.54837">
        <ele>548</ele>
        <time>1970-01-01T02:40:27.000Z</time>
      </trkpt>
      <trkpt lat="45.9753" lon="4.54839">
        <ele>548</ele>
        <time>1970-01-01T02:40:28.000Z</time>
      </trkpt>
      <trkpt lat="45.97532" lon="4.5484">
        <ele>547.9</ele>
        <time>1970-01-01T02:40:29.000Z</time>
      </trkpt>
      <trkpt lat="45.97533" lon="4.54841">
        <ele>547.8</ele>
        <time>1970-01-01T02:40:30.000Z</time>
      </trkpt>
      <trkpt lat="45.97535" lon="4.54843">
        <ele>547.8</ele>
        <time>1970-01-01T02:40:31.000Z</time>
      </trkpt>
      <trkpt lat="45.97536" lon="4.54844">
        <ele>547.7</ele>
        <time>1970-01-01T02:40:32.000Z</time>
      </trkpt>
      <trkpt lat="45.97537" lon="4.54844">
        <ele>547.7</ele>
        <time>1970-01-01T02:40:33.000Z</time>
      </trkpt>
      <trkpt lat="45.97539" lon="4.54845">
        <ele>547.6</ele>
        <time>1970-01-01T02:40:34.000Z</time>
      </trkpt>
      <trkpt lat="45.9754" lon="4.54846">
        <ele>547.6</ele>
        <time>1970-01-01T02:40:35.000Z</time>
      </trkpt>
      <trkpt lat="45.97542" lon="4.54847">
        <ele>547.5</ele>
        <time>1970-01-01T02:40:36.000Z</time>
      </trkpt>
      <trkpt lat="45.97543" lon="4.54848">
        <ele>547.5</ele>
        <time>1970-01-01T02:40:37.000Z</time>
      </trkpt>
      <trkpt lat="45.97544" lon="4.54849">
        <ele>547.5</ele>
        <time>1970-01-01T02:40:38.000Z</time>
      </trkpt>
      <trkpt lat="45.97544" lon="4.54849">
        <ele>547.5</ele>
        <time>1970-01-01T02:40:39.000Z</time>
      </trkpt>
      <trkpt lat="45.97545" lon="4.54849">
        <ele>547.4</ele>
        <time>1970-01-01T02:40:40.000Z</time>
      </trkpt>
      <trkpt lat="45.97545" lon="4.5485">
        <ele>547.4</ele>
        <time>1970-01-01T02:40:41.000Z</time>
      </trkpt>
      <trkpt lat="45.97546" lon="4.5485">
        <ele>547.4</ele>
        <time>1970-01-01T02:40:42.000Z</time>
      </trkpt>
      <trkpt lat="45.97547" lon="4.5485">
        <ele>547.4</ele>
        <time>1970-01-01T02:40:43.000Z</time>
      </trkpt>
      <trkpt lat="45.97547" lon="4.54851">
        <ele>547.4</ele>
        <time>1970-01-01T02:40:44.000Z</time>
      </trkpt>
      <trkpt lat="45.97548" lon="4.54851">
        <ele>547.3</ele>
        <time>1970-01-01T02:40:45.000Z</time>
      </trkpt>
      <trkpt lat="45.97554" lon="4.54855">
        <ele>547.2</ele>
        <time>1970-01-01T02:40:46.000Z</time>
      </trkpt>
      <trkpt lat="45.97555" lon="4.54856">
        <ele>547.1</ele>
        <time>1970-01-01T02:40:47.000Z</time>
      </trkpt>
      <trkpt lat="45.97556" lon="4.54857">
        <ele>547.1</ele>
        <time>1970-01-01T02:40:48.000Z</time>
      </trkpt>
      <trkpt lat="45.97557" lon="4.54858">
        <ele>547.1</ele>
        <time>1970-01-01T02:40:49.000Z</time>
      </trkpt>
      <trkpt lat="45.97558" lon="4.54859">
        <ele>547</ele>
        <time>1970-01-01T02:40:50.000Z</time>
      </trkpt>
      <trkpt lat="45.97559" lon="4.5486">
        <ele>547</ele>
        <time>1970-01-01T02:40:51.000Z</time>
      </trkpt>
      <trkpt lat="45.9756" lon="4.54861">
        <ele>546.9</ele>
        <time>1970-01-01T02:40:52.000Z</time>
      </trkpt>
      <trkpt lat="45.97561" lon="4.54862">
        <ele>546.9</ele>
        <time>1970-01-01T02:40:53.000Z</time>
      </trkpt>
      <trkpt lat="45.97562" lon="4.54863">
        <ele>546.8</ele>
        <time>1970-01-01T02:40:54.000Z</time>
      </trkpt>
      <trkpt lat="45.97563" lon="4.54864">
        <ele>546.8</ele>
        <time>1970-01-01T02:40:55.000Z</time>
      </trkpt>
      <trkpt lat="45.97564" lon="4.54865">
        <ele>546.7</ele>
        <time>1970-01-01T02:40:56.000Z</time>
      </trkpt>
      <trkpt lat="45.97565" lon="4.54866">
        <ele>546.7</ele>
        <time>1970-01-01T02:40:57.000Z</time>
      </trkpt>
      <trkpt lat="45.97566" lon="4.54867">
        <ele>546.7</ele>
        <time>1970-01-01T02:40:58.000Z</time>
      </trkpt>
      <trkpt lat="45.97567" lon="4.54868">
        <ele>546.6</ele>
        <time>1970-01-01T02:40:59.000Z</time>
      </trkpt>
      <trkpt lat="45.97568" lon="4.54869">
        <ele>546.6</ele>
        <time>1970-01-01T02:41:00.000Z</time>
      </trkpt>
      <trkpt lat="45.97569" lon="4.54869">
        <ele>546.5</ele>
        <time>1970-01-01T02:41:01.000Z</time>
      </trkpt>
      <trkpt lat="45.9757" lon="4.54869">
        <ele>546.5</ele>
        <time>1970-01-01T02:41:02.000Z</time>
      </trkpt>
      <trkpt lat="45.97571" lon="4.5487">
        <ele>546.4</ele>
        <time>1970-01-01T02:41:03.000Z</time>
      </trkpt>
      <trkpt lat="45.97572" lon="4.5487">
        <ele>546.4</ele>
        <time>1970-01-01T02:41:04.000Z</time>
      </trkpt>
      <trkpt lat="45.97573" lon="4.54871">
        <ele>546.4</ele>
        <time>1970-01-01T02:41:05.000Z</time>
      </trkpt>
      <trkpt lat="45.97575" lon="4.54871">
        <ele>546.3</ele>
        <time>1970-01-01T02:41:06.000Z</time>
      </trkpt>
      <trkpt lat="45.97576" lon="4.54871">
        <ele>546.3</ele>
        <time>1970-01-01T02:41:07.000Z</time>
      </trkpt>
      <trkpt lat="45.97577" lon="4.54872">
        <ele>546.2</ele>
        <time>1970-01-01T02:41:08.000Z</time>
      </trkpt>
      <trkpt lat="45.97578" lon="4.54872">
        <ele>546.2</ele>
        <time>1970-01-01T02:41:09.000Z</time>
      </trkpt>
      <trkpt lat="45.97579" lon="4.54872">
        <ele>546.2</ele>
        <time>1970-01-01T02:41:10.000Z</time>
      </trkpt>
      <trkpt lat="45.9758" lon="4.54873">
        <ele>546.1</ele>
        <time>1970-01-01T02:41:11.000Z</time>
      </trkpt>
      <trkpt lat="45.97581" lon="4.54873">
        <ele>546.1</ele>
        <time>1970-01-01T02:41:12.000Z</time>
      </trkpt>
      <trkpt lat="45.97582" lon="4.54874">
        <ele>546</ele>
        <time>1970-01-01T02:41:13.000Z</time>
      </trkpt>
      <trkpt lat="45.97584" lon="4.54874">
        <ele>546</ele>
        <time>1970-01-01T02:41:14.000Z</time>
      </trkpt>
      <trkpt lat="45.97585" lon="4.54875">
        <ele>545.9</ele>
        <time>1970-01-01T02:41:15.000Z</time>
      </trkpt>
      <trkpt lat="45.97586" lon="4.54875">
        <ele>545.9</ele>
        <time>1970-01-01T02:41:16.000Z</time>
      </trkpt>
      <trkpt lat="45.97587" lon="4.54876">
        <ele>545.9</ele>
        <time>1970-01-01T02:41:17.000Z</time>
      </trkpt>
      <trkpt lat="45.97588" lon="4.54877">
        <ele>545.8</ele>
        <time>1970-01-01T02:41:18.000Z</time>
      </trkpt>
      <trkpt lat="45.97589" lon="4.54877">
        <ele>545.8</ele>
        <time>1970-01-01T02:41:19.000Z</time>
      </trkpt>
      <trkpt lat="45.9759" lon="4.54878">
        <ele>545.7</ele>
        <time>1970-01-01T02:41:20.000Z</time>
      </trkpt>
      <trkpt lat="45.97591" lon="4.54879">
        <ele>545.7</ele>
        <time>1970-01-01T02:41:21.000Z</time>
      </trkpt>
      <trkpt lat="45.97592" lon="4.5488">
        <ele>545.6</ele>
        <time>1970-01-01T02:41:22.000Z</time>
      </trkpt>
      <trkpt lat="45.97593" lon="4.54881">
        <ele>545.6</ele>
        <time>1970-01-01T02:41:23.000Z</time>
      </trkpt>
      <trkpt lat="45.97594" lon="4.54882">
        <ele>545.6</ele>
        <time>1970-01-01T02:41:24.000Z</time>
      </trkpt>
      <trkpt lat="45.97595" lon="4.54882">
        <ele>545.5</ele>
        <time>1970-01-01T02:41:25.000Z</time>
      </trkpt>
      <trkpt lat="45.97596" lon="4.54882">
        <ele>545.5</ele>
        <time>1970-01-01T02:41:26.000Z</time>
      </trkpt>
      <trkpt lat="45.97596" lon="4.54883">
        <ele>545.5</ele>
        <time>1970-01-01T02:41:27.000Z</time>
      </trkpt>
      <trkpt lat="45.97597" lon="4.54883">
        <ele>545.4</ele>
        <time>1970-01-01T02:41:28.000Z</time>
      </trkpt>
      <trkpt lat="45.97598" lon="4.54884">
        <ele>545.4</ele>
        <time>1970-01-01T02:41:29.000Z</time>
      </trkpt>
      <trkpt lat="45.97599" lon="4.54884">
        <ele>545.4</ele>
        <time>1970-01-01T02:41:30.000Z</time>
      </trkpt>
      <trkpt lat="45.97599" lon="4.54885">
        <ele>545.4</ele>
        <time>1970-01-01T02:41:31.000Z</time>
      </trkpt>
      <trkpt lat="45.976" lon="4.54885">
        <ele>545.3</ele>
        <time>1970-01-01T02:41:32.000Z</time>
      </trkpt>
      <trkpt lat="45.97601" lon="4.54886">
        <ele>545.3</ele>
        <time>1970-01-01T02:41:33.000Z</time>
      </trkpt>
      <trkpt lat="45.97602" lon="4.54886">
        <ele>545.3</ele>
        <time>1970-01-01T02:41:34.000Z</time>
      </trkpt>
      <trkpt lat="45.97602" lon="4.54886">
        <ele>545.2</ele>
        <time>1970-01-01T02:41:35.000Z</time>
      </trkpt>
      <trkpt lat="45.97604" lon="4.54887">
        <ele>545.2</ele>
        <time>1970-01-01T02:41:36.000Z</time>
      </trkpt>
      <trkpt lat="45.97605" lon="4.54887">
        <ele>545.2</ele>
        <time>1970-01-01T02:41:37.000Z</time>
      </trkpt>
      <trkpt lat="45.97606" lon="4.54888">
        <ele>545.1</ele>
        <time>1970-01-01T02:41:38.000Z</time>
      </trkpt>
      <trkpt lat="45.97607" lon="4.54888">
        <ele>545.1</ele>
        <time>1970-01-01T02:41:39.000Z</time>
      </trkpt>
      <trkpt lat="45.97608" lon="4.54889">
        <ele>545.1</ele>
        <time>1970-01-01T02:41:40.000Z</time>
      </trkpt>
      <trkpt lat="45.97609" lon="4.54889">
        <ele>545</ele>
        <time>1970-01-01T02:41:41.000Z</time>
      </trkpt>
      <trkpt lat="45.9761" lon="4.5489">
        <ele>545</ele>
        <time>1970-01-01T02:41:42.000Z</time>
      </trkpt>
      <trkpt lat="45.97612" lon="4.5489">
        <ele>545</ele>
        <time>1970-01-01T02:41:43.000Z</time>
      </trkpt>
      <trkpt lat="45.97614" lon="4.54891">
        <ele>544.9</ele>
        <time>1970-01-01T02:41:44.000Z</time>
      </trkpt>
      <trkpt lat="45.97617" lon="4.54891">
        <ele>544.8</ele>
        <time>1970-01-01T02:41:45.000Z</time>
      </trkpt>
      <trkpt lat="45.97619" lon="4.54891">
        <ele>544.8</ele>
        <time>1970-01-01T02:41:46.000Z</time>
      </trkpt>
      <trkpt lat="45.97621" lon="4.54892">
        <ele>544.8</ele>
        <time>1970-01-01T02:41:47.000Z</time>
      </trkpt>
      <trkpt lat="45.97622" lon="4.54892">
        <ele>544.8</ele>
        <time>1970-01-01T02:41:48.000Z</time>
      </trkpt>
      <trkpt lat="45.97624" lon="4.54892">
        <ele>544.8</ele>
        <time>1970-01-01T02:41:49.000Z</time>
      </trkpt>
      <trkpt lat="45.97625" lon="4.54892">
        <ele>544.8</ele>
        <time>1970-01-01T02:41:50.000Z</time>
      </trkpt>
      <trkpt lat="45.97626" lon="4.54893">
        <ele>544.7</ele>
        <time>1970-01-01T02:41:51.000Z</time>
      </trkpt>
      <trkpt lat="45.97627" lon="4.54893">
        <ele>544.7</ele>
        <time>1970-01-01T02:41:52.000Z</time>
      </trkpt>
      <trkpt lat="45.97628" lon="4.54893">
        <ele>544.7</ele>
        <time>1970-01-01T02:41:53.000Z</time>
      </trkpt>
      <trkpt lat="45.97629" lon="4.54894">
        <ele>544.7</ele>
        <time>1970-01-01T02:41:54.000Z</time>
      </trkpt>
      <trkpt lat="45.9763" lon="4.54894">
        <ele>544.7</ele>
        <time>1970-01-01T02:41:55.000Z</time>
      </trkpt>
      <trkpt lat="45.97631" lon="4.54894">
        <ele>544.7</ele>
        <time>1970-01-01T02:41:56.000Z</time>
      </trkpt>
      <trkpt lat="45.97632" lon="4.54895">
        <ele>544.7</ele>
        <time>1970-01-01T02:41:57.000Z</time>
      </trkpt>
      <trkpt lat="45.97634" lon="4.54897">
        <ele>544.7</ele>
        <time>1970-01-01T02:41:58.000Z</time>
      </trkpt>
      <trkpt lat="45.97635" lon="4.54898">
        <ele>544.7</ele>
        <time>1970-01-01T02:41:59.000Z</time>
      </trkpt>
      <trkpt lat="45.97637" lon="4.54899">
        <ele>544.7</ele>
        <time>1970-01-01T02:42:00.000Z</time>
      </trkpt>
      <trkpt lat="45.97638" lon="4.54901">
        <ele>544.8</ele>
        <time>1970-01-01T02:42:01.000Z</time>
      </trkpt>
      <trkpt lat="45.97639" lon="4.54902">
        <ele>544.8</ele>
        <time>1970-01-01T02:42:02.000Z</time>
      </trkpt>
      <trkpt lat="45.9764" lon="4.54902">
        <ele>544.8</ele>
        <time>1970-01-01T02:42:03.000Z</time>
      </trkpt>
      <trkpt lat="45.97642" lon="4.54902">
        <ele>544.8</ele>
        <time>1970-01-01T02:42:04.000Z</time>
      </trkpt>
      <trkpt lat="45.97643" lon="4.54903">
        <ele>544.8</ele>
        <time>1970-01-01T02:42:05.000Z</time>
      </trkpt>
      <trkpt lat="45.97644" lon="4.54903">
        <ele>544.8</ele>
        <time>1970-01-01T02:42:06.000Z</time>
      </trkpt>
      <trkpt lat="45.97645" lon="4.54903">
        <ele>544.9</ele>
        <time>1970-01-01T02:42:07.000Z</time>
      </trkpt>
      <trkpt lat="45.97653" lon="4.54903">
        <ele>545</ele>
        <time>1970-01-01T02:42:08.000Z</time>
      </trkpt>
      <trkpt lat="45.97655" lon="4.54902">
        <ele>545.1</ele>
        <time>1970-01-01T02:42:09.000Z</time>
      </trkpt>
      <trkpt lat="45.97658" lon="4.54901">
        <ele>545.2</ele>
        <time>1970-01-01T02:42:10.000Z</time>
      </trkpt>
      <trkpt lat="45.9766" lon="4.549">
        <ele>545.3</ele>
        <time>1970-01-01T02:42:11.000Z</time>
      </trkpt>
      <trkpt lat="45.97662" lon="4.54901">
        <ele>545.3</ele>
        <time>1970-01-01T02:42:12.000Z</time>
      </trkpt>
      <trkpt lat="45.97663" lon="4.54901">
        <ele>545.4</ele>
        <time>1970-01-01T02:42:13.000Z</time>
      </trkpt>
      <trkpt lat="45.97665" lon="4.54901">
        <ele>545.4</ele>
        <time>1970-01-01T02:42:14.000Z</time>
      </trkpt>
      <trkpt lat="45.97666" lon="4.54901">
        <ele>545.5</ele>
        <time>1970-01-01T02:42:15.000Z</time>
      </trkpt>
      <trkpt lat="45.97668" lon="4.54901">
        <ele>545.6</ele>
        <time>1970-01-01T02:42:16.000Z</time>
      </trkpt>
      <trkpt lat="45.97669" lon="4.54902">
        <ele>545.6</ele>
        <time>1970-01-01T02:42:17.000Z</time>
      </trkpt>
      <trkpt lat="45.9767" lon="4.54902">
        <ele>545.7</ele>
        <time>1970-01-01T02:42:18.000Z</time>
      </trkpt>
      <trkpt lat="45.97672" lon="4.54902">
        <ele>545.7</ele>
        <time>1970-01-01T02:42:19.000Z</time>
      </trkpt>
      <trkpt lat="45.97673" lon="4.54902">
        <ele>545.8</ele>
        <time>1970-01-01T02:42:20.000Z</time>
      </trkpt>
      <trkpt lat="45.97674" lon="4.54902">
        <ele>545.9</ele>
        <time>1970-01-01T02:42:21.000Z</time>
      </trkpt>
      <trkpt lat="45.97676" lon="4.54902">
        <ele>545.9</ele>
        <time>1970-01-01T02:42:22.000Z</time>
      </trkpt>
      <trkpt lat="45.97677" lon="4.54902">
        <ele>546</ele>
        <time>1970-01-01T02:42:23.000Z</time>
      </trkpt>
      <trkpt lat="45.97678" lon="4.54902">
        <ele>546</ele>
        <time>1970-01-01T02:42:24.000Z</time>
      </trkpt>
      <trkpt lat="45.97679" lon="4.54902">
        <ele>546.1</ele>
        <time>1970-01-01T02:42:25.000Z</time>
      </trkpt>
      <trkpt lat="45.9768" lon="4.54903">
        <ele>546.1</ele>
        <time>1970-01-01T02:42:26.000Z</time>
      </trkpt>
      <trkpt lat="45.97681" lon="4.54905">
        <ele>546.2</ele>
        <time>1970-01-01T02:42:27.000Z</time>
      </trkpt>
      <trkpt lat="45.97682" lon="4.54906">
        <ele>546.3</ele>
        <time>1970-01-01T02:42:28.000Z</time>
      </trkpt>
      <trkpt lat="45.97683" lon="4.54908">
        <ele>546.3</ele>
        <time>1970-01-01T02:42:29.000Z</time>
      </trkpt>
      <trkpt lat="45.97684" lon="4.54909">
        <ele>546.4</ele>
        <time>1970-01-01T02:42:30.000Z</time>
      </trkpt>
      <trkpt lat="45.97685" lon="4.5491">
        <ele>546.4</ele>
        <time>1970-01-01T02:42:31.000Z</time>
      </trkpt>
      <trkpt lat="45.97686" lon="4.54912">
        <ele>546.5</ele>
        <time>1970-01-01T02:42:32.000Z</time>
      </trkpt>
      <trkpt lat="45.97687" lon="4.54914">
        <ele>546.6</ele>
        <time>1970-01-01T02:42:33.000Z</time>
      </trkpt>
      <trkpt lat="45.97688" lon="4.54916">
        <ele>546.6</ele>
        <time>1970-01-01T02:42:34.000Z</time>
      </trkpt>
      <trkpt lat="45.97689" lon="4.54918">
        <ele>546.7</ele>
        <time>1970-01-01T02:42:35.000Z</time>
      </trkpt>
      <trkpt lat="45.9769" lon="4.5492">
        <ele>546.8</ele>
        <time>1970-01-01T02:42:36.000Z</time>
      </trkpt>
      <trkpt lat="45.97691" lon="4.54922">
        <ele>546.9</ele>
        <time>1970-01-01T02:42:37.000Z</time>
      </trkpt>
      <trkpt lat="45.97691" lon="4.54924">
        <ele>546.9</ele>
        <time>1970-01-01T02:42:38.000Z</time>
      </trkpt>
      <trkpt lat="45.97693" lon="4.54924">
        <ele>547</ele>
        <time>1970-01-01T02:42:39.000Z</time>
      </trkpt>
      <trkpt lat="45.97694" lon="4.54925">
        <ele>547</ele>
        <time>1970-01-01T02:42:40.000Z</time>
      </trkpt>
      <trkpt lat="45.97696" lon="4.54926">
        <ele>547.1</ele>
        <time>1970-01-01T02:42:41.000Z</time>
      </trkpt>
      <trkpt lat="45.97697" lon="4.54927">
        <ele>547.1</ele>
        <time>1970-01-01T02:42:42.000Z</time>
      </trkpt>
      <trkpt lat="45.97698" lon="4.54928">
        <ele>547.2</ele>
        <time>1970-01-01T02:42:43.000Z</time>
      </trkpt>
      <trkpt lat="45.977" lon="4.54928">
        <ele>547.2</ele>
        <time>1970-01-01T02:42:44.000Z</time>
      </trkpt>
      <trkpt lat="45.97701" lon="4.54929">
        <ele>547.3</ele>
        <time>1970-01-01T02:42:45.000Z</time>
      </trkpt>
      <trkpt lat="45.97703" lon="4.5493">
        <ele>547.3</ele>
        <time>1970-01-01T02:42:46.000Z</time>
      </trkpt>
      <trkpt lat="45.97704" lon="4.54931">
        <ele>547.3</ele>
        <time>1970-01-01T02:42:47.000Z</time>
      </trkpt>
      <trkpt lat="45.97705" lon="4.54931">
        <ele>547.4</ele>
        <time>1970-01-01T02:42:48.000Z</time>
      </trkpt>
      <trkpt lat="45.97707" lon="4.54932">
        <ele>547.4</ele>
        <time>1970-01-01T02:42:49.000Z</time>
      </trkpt>
      <trkpt lat="45.97708" lon="4.54933">
        <ele>547.4</ele>
        <time>1970-01-01T02:42:50.000Z</time>
      </trkpt>
      <trkpt lat="45.9771" lon="4.54933">
        <ele>547.4</ele>
        <time>1970-01-01T02:42:51.000Z</time>
      </trkpt>
      <trkpt lat="45.9771" lon="4.54934">
        <ele>547.5</ele>
        <time>1970-01-01T02:42:52.000Z</time>
      </trkpt>
      <trkpt lat="45.97711" lon="4.54934">
        <ele>547.5</ele>
        <time>1970-01-01T02:42:53.000Z</time>
      </trkpt>
      <trkpt lat="45.97712" lon="4.54935">
        <ele>547.5</ele>
        <time>1970-01-01T02:42:54.000Z</time>
      </trkpt>
      <trkpt lat="45.97713" lon="4.54935">
        <ele>547.5</ele>
        <time>1970-01-01T02:42:55.000Z</time>
      </trkpt>
      <trkpt lat="45.97714" lon="4.54936">
        <ele>547.5</ele>
        <time>1970-01-01T02:42:56.000Z</time>
      </trkpt>
      <trkpt lat="45.97714" lon="4.54936">
        <ele>547.5</ele>
        <time>1970-01-01T02:42:57.000Z</time>
      </trkpt>
      <trkpt lat="45.97721" lon="4.54941">
        <ele>547.7</ele>
        <time>1970-01-01T02:42:58.000Z</time>
      </trkpt>
      <trkpt lat="45.97722" lon="4.54942">
        <ele>547.7</ele>
        <time>1970-01-01T02:42:59.000Z</time>
      </trkpt>
      <trkpt lat="45.97723" lon="4.54944">
        <ele>547.7</ele>
        <time>1970-01-01T02:43:00.000Z</time>
      </trkpt>
      <trkpt lat="45.97724" lon="4.54946">
        <ele>547.8</ele>
        <time>1970-01-01T02:43:01.000Z</time>
      </trkpt>
      <trkpt lat="45.97726" lon="4.54947">
        <ele>547.8</ele>
        <time>1970-01-01T02:43:02.000Z</time>
      </trkpt>
      <trkpt lat="45.97727" lon="4.54949">
        <ele>547.9</ele>
        <time>1970-01-01T02:43:03.000Z</time>
      </trkpt>
      <trkpt lat="45.97728" lon="4.54949">
        <ele>547.9</ele>
        <time>1970-01-01T02:43:04.000Z</time>
      </trkpt>
      <trkpt lat="45.9773" lon="4.5495">
        <ele>547.9</ele>
        <time>1970-01-01T02:43:05.000Z</time>
      </trkpt>
      <trkpt lat="45.97731" lon="4.54951">
        <ele>548</ele>
        <time>1970-01-01T02:43:06.000Z</time>
      </trkpt>
      <trkpt lat="45.97732" lon="4.54951">
        <ele>548</ele>
        <time>1970-01-01T02:43:07.000Z</time>
      </trkpt>
      <trkpt lat="45.97734" lon="4.54952">
        <ele>548.1</ele>
        <time>1970-01-01T02:43:08.000Z</time>
      </trkpt>
      <trkpt lat="45.97735" lon="4.54953">
        <ele>548.1</ele>
        <time>1970-01-01T02:43:09.000Z</time>
      </trkpt>
      <trkpt lat="45.97736" lon="4.54954">
        <ele>548.2</ele>
        <time>1970-01-01T02:43:10.000Z</time>
      </trkpt>
      <trkpt lat="45.97737" lon="4.54955">
        <ele>548.2</ele>
        <time>1970-01-01T02:43:11.000Z</time>
      </trkpt>
      <trkpt lat="45.97739" lon="4.54956">
        <ele>548.3</ele>
        <time>1970-01-01T02:43:12.000Z</time>
      </trkpt>
      <trkpt lat="45.9774" lon="4.54957">
        <ele>548.3</ele>
        <time>1970-01-01T02:43:13.000Z</time>
      </trkpt>
      <trkpt lat="45.97741" lon="4.54958">
        <ele>548.4</ele>
        <time>1970-01-01T02:43:14.000Z</time>
      </trkpt>
      <trkpt lat="45.97742" lon="4.54958">
        <ele>548.4</ele>
        <time>1970-01-01T02:43:15.000Z</time>
      </trkpt>
      <trkpt lat="45.97743" lon="4.54959">
        <ele>548.5</ele>
        <time>1970-01-01T02:43:16.000Z</time>
      </trkpt>
      <trkpt lat="45.97745" lon="4.5496">
        <ele>548.5</ele>
        <time>1970-01-01T02:43:17.000Z</time>
      </trkpt>
      <trkpt lat="45.97746" lon="4.54961">
        <ele>548.6</ele>
        <time>1970-01-01T02:43:18.000Z</time>
      </trkpt>
      <trkpt lat="45.97747" lon="4.54962">
        <ele>548.6</ele>
        <time>1970-01-01T02:43:19.000Z</time>
      </trkpt>
      <trkpt lat="45.97749" lon="4.54963">
        <ele>548.7</ele>
        <time>1970-01-01T02:43:20.000Z</time>
      </trkpt>
      <trkpt lat="45.9775" lon="4.54964">
        <ele>548.7</ele>
        <time>1970-01-01T02:43:21.000Z</time>
      </trkpt>
      <trkpt lat="45.97751" lon="4.54965">
        <ele>548.7</ele>
        <time>1970-01-01T02:43:22.000Z</time>
      </trkpt>
      <trkpt lat="45.97753" lon="4.54966">
        <ele>548.8</ele>
        <time>1970-01-01T02:43:23.000Z</time>
      </trkpt>
      <trkpt lat="45.97754" lon="4.54967">
        <ele>548.8</ele>
        <time>1970-01-01T02:43:24.000Z</time>
      </trkpt>
      <trkpt lat="45.97755" lon="4.54968">
        <ele>548.9</ele>
        <time>1970-01-01T02:43:25.000Z</time>
      </trkpt>
      <trkpt lat="45.97756" lon="4.54968">
        <ele>548.9</ele>
        <time>1970-01-01T02:43:26.000Z</time>
      </trkpt>
      <trkpt lat="45.97757" lon="4.54969">
        <ele>548.9</ele>
        <time>1970-01-01T02:43:27.000Z</time>
      </trkpt>
      <trkpt lat="45.97758" lon="4.5497">
        <ele>548.9</ele>
        <time>1970-01-01T02:43:28.000Z</time>
      </trkpt>
      <trkpt lat="45.97759" lon="4.54971">
        <ele>549</ele>
        <time>1970-01-01T02:43:29.000Z</time>
      </trkpt>
      <trkpt lat="45.9776" lon="4.54972">
        <ele>549</ele>
        <time>1970-01-01T02:43:30.000Z</time>
      </trkpt>
      <trkpt lat="45.97761" lon="4.54972">
        <ele>549</ele>
        <time>1970-01-01T02:43:31.000Z</time>
      </trkpt>
      <trkpt lat="45.97763" lon="4.54972">
        <ele>549</ele>
        <time>1970-01-01T02:43:32.000Z</time>
      </trkpt>
      <trkpt lat="45.97764" lon="4.54973">
        <ele>549</ele>
        <time>1970-01-01T02:43:33.000Z</time>
      </trkpt>
      <trkpt lat="45.97766" lon="4.54973">
        <ele>549</ele>
        <time>1970-01-01T02:43:34.000Z</time>
      </trkpt>
      <trkpt lat="45.97767" lon="4.54973">
        <ele>549</ele>
        <time>1970-01-01T02:43:35.000Z</time>
      </trkpt>
      <trkpt lat="45.97767" lon="4.54973">
        <ele>549</ele>
        <time>1970-01-01T02:43:36.000Z</time>
      </trkpt>
      <trkpt lat="45.9777" lon="4.54973">
        <ele>549</ele>
        <time>1970-01-01T02:43:37.000Z</time>
      </trkpt>
      <trkpt lat="45.9777" lon="4.54973">
        <ele>549</ele>
        <time>1970-01-01T02:43:38.000Z</time>
      </trkpt>
      <trkpt lat="45.9777" lon="4.54973">
        <ele>549</ele>
        <time>1970-01-01T02:43:39.000Z</time>
      </trkpt>
      <trkpt lat="45.97773" lon="4.54973">
        <ele>548.9</ele>
        <time>1970-01-01T02:43:40.000Z</time>
      </trkpt>
      <trkpt lat="45.97773" lon="4.54973">
        <ele>548.9</ele>
        <time>1970-01-01T02:43:41.000Z</time>
      </trkpt>
      <trkpt lat="45.97776" lon="4.54973">
        <ele>548.8</ele>
        <time>1970-01-01T02:43:42.000Z</time>
      </trkpt>
      <trkpt lat="45.97776" lon="4.54973">
        <ele>548.8</ele>
        <time>1970-01-01T02:43:43.000Z</time>
      </trkpt>
      <trkpt lat="45.97778" lon="4.54974">
        <ele>548.7</ele>
        <time>1970-01-01T02:43:44.000Z</time>
      </trkpt>
      <trkpt lat="45.97778" lon="4.54974">
        <ele>548.7</ele>
        <time>1970-01-01T02:43:45.000Z</time>
      </trkpt>
      <trkpt lat="45.97781" lon="4.54975">
        <ele>548.5</ele>
        <time>1970-01-01T02:43:46.000Z</time>
      </trkpt>
      <trkpt lat="45.97783" lon="4.54975">
        <ele>548.4</ele>
        <time>1970-01-01T02:43:47.000Z</time>
      </trkpt>
      <trkpt lat="45.97784" lon="4.54976">
        <ele>548.3</ele>
        <time>1970-01-01T02:43:48.000Z</time>
      </trkpt>
      <trkpt lat="45.97786" lon="4.54977">
        <ele>548.2</ele>
        <time>1970-01-01T02:43:49.000Z</time>
      </trkpt>
      <trkpt lat="45.97788" lon="4.54977">
        <ele>548.1</ele>
        <time>1970-01-01T02:43:50.000Z</time>
      </trkpt>
      <trkpt lat="45.97789" lon="4.54978">
        <ele>547.9</ele>
        <time>1970-01-01T02:43:51.000Z</time>
      </trkpt>
      <trkpt lat="45.97791" lon="4.54979">
        <ele>547.8</ele>
        <time>1970-01-01T02:43:52.000Z</time>
      </trkpt>
      <trkpt lat="45.97792" lon="4.54979">
        <ele>547.7</ele>
        <time>1970-01-01T02:43:53.000Z</time>
      </trkpt>
      <trkpt lat="45.97793" lon="4.54979">
        <ele>547.7</ele>
        <time>1970-01-01T02:43:54.000Z</time>
      </trkpt>
      <trkpt lat="45.97794" lon="4.54979">
        <ele>547.6</ele>
        <time>1970-01-01T02:43:55.000Z</time>
      </trkpt>
      <trkpt lat="45.97795" lon="4.54979">
        <ele>547.5</ele>
        <time>1970-01-01T02:43:56.000Z</time>
      </trkpt>
      <trkpt lat="45.97796" lon="4.5498">
        <ele>547.4</ele>
        <time>1970-01-01T02:43:57.000Z</time>
      </trkpt>
      <trkpt lat="45.97798" lon="4.5498">
        <ele>547.3</ele>
        <time>1970-01-01T02:43:58.000Z</time>
      </trkpt>
      <trkpt lat="45.97799" lon="4.5498">
        <ele>547.3</ele>
        <time>1970-01-01T02:43:59.000Z</time>
      </trkpt>
      <trkpt lat="45.97799" lon="4.5498">
        <ele>547.3</ele>
        <time>1970-01-01T02:44:00.000Z</time>
      </trkpt>
      <trkpt lat="45.97801" lon="4.54979">
        <ele>547.1</ele>
        <time>1970-01-01T02:44:01.000Z</time>
      </trkpt>
      <trkpt lat="45.97801" lon="4.54979">
        <ele>547.1</ele>
        <time>1970-01-01T02:44:02.000Z</time>
      </trkpt>
      <trkpt lat="45.97804" lon="4.5498">
        <ele>546.9</ele>
        <time>1970-01-01T02:44:03.000Z</time>
      </trkpt>
      <trkpt lat="45.97804" lon="4.5498">
        <ele>546.9</ele>
        <time>1970-01-01T02:44:04.000Z</time>
      </trkpt>
      <trkpt lat="45.97806" lon="4.54981">
        <ele>546.7</ele>
        <time>1970-01-01T02:44:05.000Z</time>
      </trkpt>
      <trkpt lat="45.97806" lon="4.54981">
        <ele>546.7</ele>
        <time>1970-01-01T02:44:06.000Z</time>
      </trkpt>
      <trkpt lat="45.97809" lon="4.54983">
        <ele>546.6</ele>
        <time>1970-01-01T02:44:07.000Z</time>
      </trkpt>
      <trkpt lat="45.9781" lon="4.54983">
        <ele>546.5</ele>
        <time>1970-01-01T02:44:08.000Z</time>
      </trkpt>
      <trkpt lat="45.97811" lon="4.54984">
        <ele>546.4</ele>
        <time>1970-01-01T02:44:09.000Z</time>
      </trkpt>
      <trkpt lat="45.97813" lon="4.54984">
        <ele>546.3</ele>
        <time>1970-01-01T02:44:10.000Z</time>
      </trkpt>
      <trkpt lat="45.97814" lon="4.54984">
        <ele>546.2</ele>
        <time>1970-01-01T02:44:11.000Z</time>
      </trkpt>
      <trkpt lat="45.97816" lon="4.54985">
        <ele>546.1</ele>
        <time>1970-01-01T02:44:12.000Z</time>
      </trkpt>
      <trkpt lat="45.97817" lon="4.54985">
        <ele>546.1</ele>
        <time>1970-01-01T02:44:13.000Z</time>
      </trkpt>
      <trkpt lat="45.97819" lon="4.54986">
        <ele>546</ele>
        <time>1970-01-01T02:44:14.000Z</time>
      </trkpt>
      <trkpt lat="45.97819" lon="4.54986">
        <ele>546</ele>
        <time>1970-01-01T02:44:15.000Z</time>
      </trkpt>
      <trkpt lat="45.97821" lon="4.54984">
        <ele>545.9</ele>
        <time>1970-01-01T02:44:16.000Z</time>
      </trkpt>
      <trkpt lat="45.97822" lon="4.54985">
        <ele>545.8</ele>
        <time>1970-01-01T02:44:17.000Z</time>
      </trkpt>
      <trkpt lat="45.97823" lon="4.54985">
        <ele>545.8</ele>
        <time>1970-01-01T02:44:18.000Z</time>
      </trkpt>
      <trkpt lat="45.97824" lon="4.54985">
        <ele>545.7</ele>
        <time>1970-01-01T02:44:19.000Z</time>
      </trkpt>
      <trkpt lat="45.97825" lon="4.54985">
        <ele>545.7</ele>
        <time>1970-01-01T02:44:20.000Z</time>
      </trkpt>
      <trkpt lat="45.97826" lon="4.54986">
        <ele>545.6</ele>
        <time>1970-01-01T02:44:21.000Z</time>
      </trkpt>
      <trkpt lat="45.97827" lon="4.54986">
        <ele>545.6</ele>
        <time>1970-01-01T02:44:22.000Z</time>
      </trkpt>
      <trkpt lat="45.97828" lon="4.54986">
        <ele>545.6</ele>
        <time>1970-01-01T02:44:23.000Z</time>
      </trkpt>
      <trkpt lat="45.97829" lon="4.54987">
        <ele>545.5</ele>
        <time>1970-01-01T02:44:24.000Z</time>
      </trkpt>
      <trkpt lat="45.9783" lon="4.54987">
        <ele>545.5</ele>
        <time>1970-01-01T02:44:25.000Z</time>
      </trkpt>
      <trkpt lat="45.9783" lon="4.54987">
        <ele>545.5</ele>
        <time>1970-01-01T02:44:26.000Z</time>
      </trkpt>
      <trkpt lat="45.97831" lon="4.54987">
        <ele>545.4</ele>
        <time>1970-01-01T02:44:27.000Z</time>
      </trkpt>
      <trkpt lat="45.97832" lon="4.54987">
        <ele>545.4</ele>
        <time>1970-01-01T02:44:28.000Z</time>
      </trkpt>
      <trkpt lat="45.97832" lon="4.54986">
        <ele>545.4</ele>
        <time>1970-01-01T02:44:29.000Z</time>
      </trkpt>
      <trkpt lat="45.97833" lon="4.54986">
        <ele>545.4</ele>
        <time>1970-01-01T02:44:30.000Z</time>
      </trkpt>
      <trkpt lat="45.97833" lon="4.54986">
        <ele>545.3</ele>
        <time>1970-01-01T02:44:31.000Z</time>
      </trkpt>
      <trkpt lat="45.97834" lon="4.54986">
        <ele>545.3</ele>
        <time>1970-01-01T02:44:32.000Z</time>
      </trkpt>
      <trkpt lat="45.97835" lon="4.54986">
        <ele>545.3</ele>
        <time>1970-01-01T02:44:33.000Z</time>
      </trkpt>
      <trkpt lat="45.97835" lon="4.54986">
        <ele>545.3</ele>
        <time>1970-01-01T02:44:34.000Z</time>
      </trkpt>
      <trkpt lat="45.97836" lon="4.54986">
        <ele>545.2</ele>
        <time>1970-01-01T02:44:35.000Z</time>
      </trkpt>
      <trkpt lat="45.97837" lon="4.54986">
        <ele>545.2</ele>
        <time>1970-01-01T02:44:36.000Z</time>
      </trkpt>
      <trkpt lat="45.97837" lon="4.54986">
        <ele>545.2</ele>
        <time>1970-01-01T02:44:37.000Z</time>
      </trkpt>
      <trkpt lat="45.97838" lon="4.54986">
        <ele>545.2</ele>
        <time>1970-01-01T02:44:38.000Z</time>
      </trkpt>
      <trkpt lat="45.97838" lon="4.54986">
        <ele>545.1</ele>
        <time>1970-01-01T02:44:39.000Z</time>
      </trkpt>
      <trkpt lat="45.97839" lon="4.54985">
        <ele>545.1</ele>
        <time>1970-01-01T02:44:40.000Z</time>
      </trkpt>
      <trkpt lat="45.9784" lon="4.54985">
        <ele>545.1</ele>
        <time>1970-01-01T02:44:41.000Z</time>
      </trkpt>
      <trkpt lat="45.97841" lon="4.54985">
        <ele>545</ele>
        <time>1970-01-01T02:44:42.000Z</time>
      </trkpt>
      <trkpt lat="45.97842" lon="4.54984">
        <ele>545</ele>
        <time>1970-01-01T02:44:43.000Z</time>
      </trkpt>
      <trkpt lat="45.97843" lon="4.54984">
        <ele>545</ele>
        <time>1970-01-01T02:44:44.000Z</time>
      </trkpt>
      <trkpt lat="45.97844" lon="4.54984">
        <ele>544.9</ele>
        <time>1970-01-01T02:44:45.000Z</time>
      </trkpt>
      <trkpt lat="45.97844" lon="4.54983">
        <ele>544.9</ele>
        <time>1970-01-01T02:44:46.000Z</time>
      </trkpt>
      <trkpt lat="45.97851" lon="4.5498">
        <ele>544.6</ele>
        <time>1970-01-01T02:44:47.000Z</time>
      </trkpt>
      <trkpt lat="45.97852" lon="4.5498">
        <ele>544.5</ele>
        <time>1970-01-01T02:44:48.000Z</time>
      </trkpt>
      <trkpt lat="45.97854" lon="4.54979">
        <ele>544.4</ele>
        <time>1970-01-01T02:44:49.000Z</time>
      </trkpt>
      <trkpt lat="45.97855" lon="4.54979">
        <ele>544.4</ele>
        <time>1970-01-01T02:44:50.000Z</time>
      </trkpt>
      <trkpt lat="45.97862" lon="4.54976">
        <ele>543.9</ele>
        <time>1970-01-01T02:44:51.000Z</time>
      </trkpt>
      <trkpt lat="45.97863" lon="4.54975">
        <ele>543.8</ele>
        <time>1970-01-01T02:44:52.000Z</time>
      </trkpt>
      <trkpt lat="45.97865" lon="4.54975">
        <ele>543.6</ele>
        <time>1970-01-01T02:44:53.000Z</time>
      </trkpt>
      <trkpt lat="45.97867" lon="4.54974">
        <ele>543.5</ele>
        <time>1970-01-01T02:44:54.000Z</time>
      </trkpt>
      <trkpt lat="45.97869" lon="4.54973">
        <ele>543.3</ele>
        <time>1970-01-01T02:44:55.000Z</time>
      </trkpt>
      <trkpt lat="45.9787" lon="4.54972">
        <ele>543.2</ele>
        <time>1970-01-01T02:44:56.000Z</time>
      </trkpt>
      <trkpt lat="45.9787" lon="4.54972">
        <ele>543.1</ele>
        <time>1970-01-01T02:44:57.000Z</time>
      </trkpt>
      <trkpt lat="45.97871" lon="4.54971">
        <ele>543</ele>
        <time>1970-01-01T02:44:58.000Z</time>
      </trkpt>
      <trkpt lat="45.97872" lon="4.5497">
        <ele>542.9</ele>
        <time>1970-01-01T02:44:59.000Z</time>
      </trkpt>
      <trkpt lat="45.97873" lon="4.5497">
        <ele>542.8</ele>
        <time>1970-01-01T02:45:00.000Z</time>
      </trkpt>
      <trkpt lat="45.97874" lon="4.54969">
        <ele>542.7</ele>
        <time>1970-01-01T02:45:01.000Z</time>
      </trkpt>
      <trkpt lat="45.97875" lon="4.54968">
        <ele>542.6</ele>
        <time>1970-01-01T02:45:02.000Z</time>
      </trkpt>
      <trkpt lat="45.97876" lon="4.54967">
        <ele>542.5</ele>
        <time>1970-01-01T02:45:03.000Z</time>
      </trkpt>
      <trkpt lat="45.97876" lon="4.54967">
        <ele>542.4</ele>
        <time>1970-01-01T02:45:04.000Z</time>
      </trkpt>
      <trkpt lat="45.97877" lon="4.54966">
        <ele>542.3</ele>
        <time>1970-01-01T02:45:05.000Z</time>
      </trkpt>
      <trkpt lat="45.97878" lon="4.54965">
        <ele>542.2</ele>
        <time>1970-01-01T02:45:06.000Z</time>
      </trkpt>
      <trkpt lat="45.97879" lon="4.54965">
        <ele>542.1</ele>
        <time>1970-01-01T02:45:07.000Z</time>
      </trkpt>
      <trkpt lat="45.97879" lon="4.54964">
        <ele>542</ele>
        <time>1970-01-01T02:45:08.000Z</time>
      </trkpt>
      <trkpt lat="45.9788" lon="4.54964">
        <ele>541.9</ele>
        <time>1970-01-01T02:45:09.000Z</time>
      </trkpt>
      <trkpt lat="45.97881" lon="4.54963">
        <ele>541.8</ele>
        <time>1970-01-01T02:45:10.000Z</time>
      </trkpt>
      <trkpt lat="45.97881" lon="4.54962">
        <ele>541.7</ele>
        <time>1970-01-01T02:45:11.000Z</time>
      </trkpt>
      <trkpt lat="45.97882" lon="4.54962">
        <ele>541.6</ele>
        <time>1970-01-01T02:45:12.000Z</time>
      </trkpt>
      <trkpt lat="45.97888" lon="4.54956">
        <ele>540.8</ele>
        <time>1970-01-01T02:45:13.000Z</time>
      </trkpt>
      <trkpt lat="45.97889" lon="4.54956">
        <ele>540.6</ele>
        <time>1970-01-01T02:45:14.000Z</time>
      </trkpt>
      <trkpt lat="45.9789" lon="4.54955">
        <ele>540.4</ele>
        <time>1970-01-01T02:45:15.000Z</time>
      </trkpt>
      <trkpt lat="45.97891" lon="4.54954">
        <ele>540.3</ele>
        <time>1970-01-01T02:45:16.000Z</time>
      </trkpt>
      <trkpt lat="45.97892" lon="4.54953">
        <ele>540.1</ele>
        <time>1970-01-01T02:45:17.000Z</time>
      </trkpt>
      <trkpt lat="45.97893" lon="4.54952">
        <ele>539.9</ele>
        <time>1970-01-01T02:45:18.000Z</time>
      </trkpt>
      <trkpt lat="45.97895" lon="4.54951">
        <ele>539.8</ele>
        <time>1970-01-01T02:45:19.000Z</time>
      </trkpt>
      <trkpt lat="45.97895" lon="4.54951">
        <ele>539.7</ele>
        <time>1970-01-01T02:45:20.000Z</time>
      </trkpt>
      <trkpt lat="45.97896" lon="4.5495">
        <ele>539.6</ele>
        <time>1970-01-01T02:45:21.000Z</time>
      </trkpt>
      <trkpt lat="45.97896" lon="4.5495">
        <ele>539.6</ele>
        <time>1970-01-01T02:45:22.000Z</time>
      </trkpt>
      <trkpt lat="45.97896" lon="4.5495">
        <ele>539.5</ele>
        <time>1970-01-01T02:45:23.000Z</time>
      </trkpt>
      <trkpt lat="45.97897" lon="4.54949">
        <ele>539.4</ele>
        <time>1970-01-01T02:45:24.000Z</time>
      </trkpt>
      <trkpt lat="45.97897" lon="4.54949">
        <ele>539.4</ele>
        <time>1970-01-01T02:45:25.000Z</time>
      </trkpt>
      <trkpt lat="45.97898" lon="4.54948">
        <ele>539.3</ele>
        <time>1970-01-01T02:45:26.000Z</time>
      </trkpt>
      <trkpt lat="45.97898" lon="4.54948">
        <ele>539.2</ele>
        <time>1970-01-01T02:45:27.000Z</time>
      </trkpt>
      <trkpt lat="45.97899" lon="4.54948">
        <ele>539.2</ele>
        <time>1970-01-01T02:45:28.000Z</time>
      </trkpt>
      <trkpt lat="45.97899" lon="4.54947">
        <ele>539.1</ele>
        <time>1970-01-01T02:45:29.000Z</time>
      </trkpt>
      <trkpt lat="45.97904" lon="4.54943">
        <ele>538.3</ele>
        <time>1970-01-01T02:45:30.000Z</time>
      </trkpt>
      <trkpt lat="45.97905" lon="4.54943">
        <ele>538.2</ele>
        <time>1970-01-01T02:45:31.000Z</time>
      </trkpt>
      <trkpt lat="45.97905" lon="4.54942">
        <ele>538.2</ele>
        <time>1970-01-01T02:45:32.000Z</time>
      </trkpt>
      <trkpt lat="45.97906" lon="4.54942">
        <ele>538.1</ele>
        <time>1970-01-01T02:45:33.000Z</time>
      </trkpt>
      <trkpt lat="45.97907" lon="4.54941">
        <ele>538</ele>
        <time>1970-01-01T02:45:34.000Z</time>
      </trkpt>
      <trkpt lat="45.97907" lon="4.54941">
        <ele>537.9</ele>
        <time>1970-01-01T02:45:35.000Z</time>
      </trkpt>
      <trkpt lat="45.97908" lon="4.5494">
        <ele>537.8</ele>
        <time>1970-01-01T02:45:36.000Z</time>
      </trkpt>
      <trkpt lat="45.97908" lon="4.5494">
        <ele>537.7</ele>
        <time>1970-01-01T02:45:37.000Z</time>
      </trkpt>
      <trkpt lat="45.97914" lon="4.54934">
        <ele>536.9</ele>
        <time>1970-01-01T02:45:38.000Z</time>
      </trkpt>
      <trkpt lat="45.97915" lon="4.54933">
        <ele>536.7</ele>
        <time>1970-01-01T02:45:39.000Z</time>
      </trkpt>
      <trkpt lat="45.97916" lon="4.54932">
        <ele>536.5</ele>
        <time>1970-01-01T02:45:40.000Z</time>
      </trkpt>
      <trkpt lat="45.97917" lon="4.54932">
        <ele>536.3</ele>
        <time>1970-01-01T02:45:41.000Z</time>
      </trkpt>
      <trkpt lat="45.97919" lon="4.54931">
        <ele>536.1</ele>
        <time>1970-01-01T02:45:42.000Z</time>
      </trkpt>
      <trkpt lat="45.9792" lon="4.5493">
        <ele>535.9</ele>
        <time>1970-01-01T02:45:43.000Z</time>
      </trkpt>
      <trkpt lat="45.97921" lon="4.54929">
        <ele>535.6</ele>
        <time>1970-01-01T02:45:44.000Z</time>
      </trkpt>
      <trkpt lat="45.97923" lon="4.54928">
        <ele>535.4</ele>
        <time>1970-01-01T02:45:45.000Z</time>
      </trkpt>
      <trkpt lat="45.97924" lon="4.54927">
        <ele>535.1</ele>
        <time>1970-01-01T02:45:46.000Z</time>
      </trkpt>
      <trkpt lat="45.97925" lon="4.54926">
        <ele>534.9</ele>
        <time>1970-01-01T02:45:47.000Z</time>
      </trkpt>
      <trkpt lat="45.97927" lon="4.54925">
        <ele>534.6</ele>
        <time>1970-01-01T02:45:48.000Z</time>
      </trkpt>
      <trkpt lat="45.97928" lon="4.54924">
        <ele>534.4</ele>
        <time>1970-01-01T02:45:49.000Z</time>
      </trkpt>
      <trkpt lat="45.9793" lon="4.54923">
        <ele>534.1</ele>
        <time>1970-01-01T02:45:50.000Z</time>
      </trkpt>
      <trkpt lat="45.9793" lon="4.54923">
        <ele>533.9</ele>
        <time>1970-01-01T02:45:51.000Z</time>
      </trkpt>
      <trkpt lat="45.97931" lon="4.54922">
        <ele>533.8</ele>
        <time>1970-01-01T02:45:52.000Z</time>
      </trkpt>
      <trkpt lat="45.97932" lon="4.54921">
        <ele>533.6</ele>
        <time>1970-01-01T02:45:53.000Z</time>
      </trkpt>
      <trkpt lat="45.97932" lon="4.54921">
        <ele>533.5</ele>
        <time>1970-01-01T02:45:54.000Z</time>
      </trkpt>
      <trkpt lat="45.97933" lon="4.5492">
        <ele>533.3</ele>
        <time>1970-01-01T02:45:55.000Z</time>
      </trkpt>
      <trkpt lat="45.97934" lon="4.54919">
        <ele>533.1</ele>
        <time>1970-01-01T02:45:56.000Z</time>
      </trkpt>
      <trkpt lat="45.97934" lon="4.54919">
        <ele>533</ele>
        <time>1970-01-01T02:45:57.000Z</time>
      </trkpt>
      <trkpt lat="45.97935" lon="4.54918">
        <ele>532.8</ele>
        <time>1970-01-01T02:45:58.000Z</time>
      </trkpt>
      <trkpt lat="45.97936" lon="4.54917">
        <ele>532.7</ele>
        <time>1970-01-01T02:45:59.000Z</time>
      </trkpt>
      <trkpt lat="45.97936" lon="4.54917">
        <ele>532.5</ele>
        <time>1970-01-01T02:46:00.000Z</time>
      </trkpt>
      <trkpt lat="45.97937" lon="4.54916">
        <ele>532.3</ele>
        <time>1970-01-01T02:46:01.000Z</time>
      </trkpt>
      <trkpt lat="45.97938" lon="4.54915">
        <ele>532.2</ele>
        <time>1970-01-01T02:46:02.000Z</time>
      </trkpt>
      <trkpt lat="45.97939" lon="4.54915">
        <ele>531.9</ele>
        <time>1970-01-01T02:46:03.000Z</time>
      </trkpt>
      <trkpt lat="45.9794" lon="4.54914">
        <ele>531.7</ele>
        <time>1970-01-01T02:46:04.000Z</time>
      </trkpt>
      <trkpt lat="45.97941" lon="4.54913">
        <ele>531.4</ele>
        <time>1970-01-01T02:46:05.000Z</time>
      </trkpt>
      <trkpt lat="45.97942" lon="4.54912">
        <ele>531.2</ele>
        <time>1970-01-01T02:46:06.000Z</time>
      </trkpt>
      <trkpt lat="45.97943" lon="4.54912">
        <ele>531</ele>
        <time>1970-01-01T02:46:07.000Z</time>
      </trkpt>
      <trkpt lat="45.97944" lon="4.54911">
        <ele>530.7</ele>
        <time>1970-01-01T02:46:08.000Z</time>
      </trkpt>
      <trkpt lat="45.97945" lon="4.5491">
        <ele>530.5</ele>
        <time>1970-01-01T02:46:09.000Z</time>
      </trkpt>
      <trkpt lat="45.97946" lon="4.54909">
        <ele>530.3</ele>
        <time>1970-01-01T02:46:10.000Z</time>
      </trkpt>
      <trkpt lat="45.97947" lon="4.54909">
        <ele>530.1</ele>
        <time>1970-01-01T02:46:11.000Z</time>
      </trkpt>
      <trkpt lat="45.97947" lon="4.54908">
        <ele>530</ele>
        <time>1970-01-01T02:46:12.000Z</time>
      </trkpt>
      <trkpt lat="45.97948" lon="4.54908">
        <ele>529.8</ele>
        <time>1970-01-01T02:46:13.000Z</time>
      </trkpt>
      <trkpt lat="45.97949" lon="4.54908">
        <ele>529.7</ele>
        <time>1970-01-01T02:46:15.000Z</time>
      </trkpt>
      <trkpt lat="45.97949" lon="4.54907">
        <ele>529.5</ele>
        <time>1970-01-01T02:46:16.000Z</time>
      </trkpt>
      <trkpt lat="45.9795" lon="4.54907">
        <ele>529.4</ele>
        <time>1970-01-01T02:46:17.000Z</time>
      </trkpt>
      <trkpt lat="45.97951" lon="4.54906">
        <ele>529.3</ele>
        <time>1970-01-01T02:46:18.000Z</time>
      </trkpt>
      <trkpt lat="45.97956" lon="4.54903">
        <ele>528</ele>
        <time>1970-01-01T02:46:19.000Z</time>
      </trkpt>
      <trkpt lat="45.97957" lon="4.54903">
        <ele>527.7</ele>
        <time>1970-01-01T02:46:20.000Z</time>
      </trkpt>
      <trkpt lat="45.97959" lon="4.54902">
        <ele>527.4</ele>
        <time>1970-01-01T02:46:21.000Z</time>
      </trkpt>
      <trkpt lat="45.9796" lon="4.54902">
        <ele>527.2</ele>
        <time>1970-01-01T02:46:22.000Z</time>
      </trkpt>
      <trkpt lat="45.97961" lon="4.54901">
        <ele>526.9</ele>
        <time>1970-01-01T02:46:23.000Z</time>
      </trkpt>
      <trkpt lat="45.97962" lon="4.54901">
        <ele>526.7</ele>
        <time>1970-01-01T02:46:24.000Z</time>
      </trkpt>
      <trkpt lat="45.97963" lon="4.549">
        <ele>526.4</ele>
        <time>1970-01-01T02:46:25.000Z</time>
      </trkpt>
      <trkpt lat="45.97964" lon="4.549">
        <ele>526.1</ele>
        <time>1970-01-01T02:46:26.000Z</time>
      </trkpt>
      <trkpt lat="45.97965" lon="4.549">
        <ele>525.9</ele>
        <time>1970-01-01T02:46:27.000Z</time>
      </trkpt>
      <trkpt lat="45.97966" lon="4.549">
        <ele>525.6</ele>
        <time>1970-01-01T02:46:28.000Z</time>
      </trkpt>
      <trkpt lat="45.97968" lon="4.549">
        <ele>525.3</ele>
        <time>1970-01-01T02:46:29.000Z</time>
      </trkpt>
      <trkpt lat="45.97969" lon="4.549">
        <ele>525.1</ele>
        <time>1970-01-01T02:46:30.000Z</time>
      </trkpt>
      <trkpt lat="45.9797" lon="4.549">
        <ele>524.8</ele>
        <time>1970-01-01T02:46:31.000Z</time>
      </trkpt>
      <trkpt lat="45.97971" lon="4.549">
        <ele>524.5</ele>
        <time>1970-01-01T02:46:32.000Z</time>
      </trkpt>
      <trkpt lat="45.97972" lon="4.549">
        <ele>524.2</ele>
        <time>1970-01-01T02:46:33.000Z</time>
      </trkpt>
      <trkpt lat="45.97973" lon="4.549">
        <ele>523.9</ele>
        <time>1970-01-01T02:46:34.000Z</time>
      </trkpt>
      <trkpt lat="45.97974" lon="4.549">
        <ele>523.6</ele>
        <time>1970-01-01T02:46:35.000Z</time>
      </trkpt>
      <trkpt lat="45.97976" lon="4.54901">
        <ele>523.4</ele>
        <time>1970-01-01T02:46:36.000Z</time>
      </trkpt>
      <trkpt lat="45.97977" lon="4.54902">
        <ele>523.1</ele>
        <time>1970-01-01T02:46:37.000Z</time>
      </trkpt>
      <trkpt lat="45.97978" lon="4.54903">
        <ele>522.8</ele>
        <time>1970-01-01T02:46:38.000Z</time>
      </trkpt>
      <trkpt lat="45.97979" lon="4.54903">
        <ele>522.5</ele>
        <time>1970-01-01T02:46:39.000Z</time>
      </trkpt>
      <trkpt lat="45.9798" lon="4.54904">
        <ele>522.2</ele>
        <time>1970-01-01T02:46:40.000Z</time>
      </trkpt>
      <trkpt lat="45.97981" lon="4.54905">
        <ele>521.9</ele>
        <time>1970-01-01T02:46:41.000Z</time>
      </trkpt>
      <trkpt lat="45.97982" lon="4.54906">
        <ele>521.7</ele>
        <time>1970-01-01T02:46:42.000Z</time>
      </trkpt>
      <trkpt lat="45.97983" lon="4.54906">
        <ele>521.5</ele>
        <time>1970-01-01T02:46:43.000Z</time>
      </trkpt>
      <trkpt lat="45.97983" lon="4.54906">
        <ele>521.3</ele>
        <time>1970-01-01T02:46:44.000Z</time>
      </trkpt>
      <trkpt lat="45.97984" lon="4.54907">
        <ele>521.2</ele>
        <time>1970-01-01T02:46:45.000Z</time>
      </trkpt>
      <trkpt lat="45.97985" lon="4.54907">
        <ele>521</ele>
        <time>1970-01-01T02:46:46.000Z</time>
      </trkpt>
      <trkpt lat="45.97985" lon="4.54908">
        <ele>520.9</ele>
        <time>1970-01-01T02:46:47.000Z</time>
      </trkpt>
      <trkpt lat="45.97986" lon="4.54908">
        <ele>520.7</ele>
        <time>1970-01-01T02:46:48.000Z</time>
      </trkpt>
      <trkpt lat="45.97986" lon="4.54909">
        <ele>520.6</ele>
        <time>1970-01-01T02:46:49.000Z</time>
      </trkpt>
      <trkpt lat="45.97992" lon="4.54913">
        <ele>519.3</ele>
        <time>1970-01-01T02:46:50.000Z</time>
      </trkpt>
      <trkpt lat="45.97993" lon="4.54913">
        <ele>519.1</ele>
        <time>1970-01-01T02:46:51.000Z</time>
      </trkpt>
      <trkpt lat="45.97994" lon="4.54914">
        <ele>518.8</ele>
        <time>1970-01-01T02:46:52.000Z</time>
      </trkpt>
      <trkpt lat="45.97995" lon="4.54915">
        <ele>518.6</ele>
        <time>1970-01-01T02:46:53.000Z</time>
      </trkpt>
      <trkpt lat="45.97996" lon="4.54916">
        <ele>518.4</ele>
        <time>1970-01-01T02:46:54.000Z</time>
      </trkpt>
      <trkpt lat="45.97997" lon="4.54917">
        <ele>518.2</ele>
        <time>1970-01-01T02:46:55.000Z</time>
      </trkpt>
      <trkpt lat="45.97998" lon="4.54918">
        <ele>518</ele>
        <time>1970-01-01T02:46:56.000Z</time>
      </trkpt>
      <trkpt lat="45.97999" lon="4.54919">
        <ele>517.8</ele>
        <time>1970-01-01T02:46:57.000Z</time>
      </trkpt>
      <trkpt lat="45.98" lon="4.5492">
        <ele>517.6</ele>
        <time>1970-01-01T02:46:58.000Z</time>
      </trkpt>
      <trkpt lat="45.98002" lon="4.5492">
        <ele>517.4</ele>
        <time>1970-01-01T02:46:59.000Z</time>
      </trkpt>
      <trkpt lat="45.98003" lon="4.54921">
        <ele>517.2</ele>
        <time>1970-01-01T02:47:00.000Z</time>
      </trkpt>
      <trkpt lat="45.98004" lon="4.54921">
        <ele>517</ele>
        <time>1970-01-01T02:47:01.000Z</time>
      </trkpt>
      <trkpt lat="45.98006" lon="4.54922">
        <ele>516.8</ele>
        <time>1970-01-01T02:47:02.000Z</time>
      </trkpt>
      <trkpt lat="45.98007" lon="4.54922">
        <ele>516.7</ele>
        <time>1970-01-01T02:47:03.000Z</time>
      </trkpt>
      <trkpt lat="45.98008" lon="4.54923">
        <ele>516.5</ele>
        <time>1970-01-01T02:47:04.000Z</time>
      </trkpt>
      <trkpt lat="45.98008" lon="4.54923">
        <ele>516.5</ele>
        <time>1970-01-01T02:47:05.000Z</time>
      </trkpt>
      <trkpt lat="45.98008" lon="4.54923">
        <ele>516.5</ele>
        <time>1970-01-01T02:47:06.000Z</time>
      </trkpt>
      <trkpt lat="45.98011" lon="4.54925">
        <ele>516.2</ele>
        <time>1970-01-01T02:47:07.000Z</time>
      </trkpt>
      <trkpt lat="45.98011" lon="4.54925">
        <ele>516.2</ele>
        <time>1970-01-01T02:47:08.000Z</time>
      </trkpt>
      <trkpt lat="45.98012" lon="4.54926">
        <ele>516</ele>
        <time>1970-01-01T02:47:09.000Z</time>
      </trkpt>
      <trkpt lat="45.98012" lon="4.54928">
        <ele>515.8</ele>
        <time>1970-01-01T02:47:10.000Z</time>
      </trkpt>
      <trkpt lat="45.98013" lon="4.54929">
        <ele>515.7</ele>
        <time>1970-01-01T02:47:11.000Z</time>
      </trkpt>
      <trkpt lat="45.98013" lon="4.54931">
        <ele>515.6</ele>
        <time>1970-01-01T02:47:12.000Z</time>
      </trkpt>
      <trkpt lat="45.98013" lon="4.54932">
        <ele>515.5</ele>
        <time>1970-01-01T02:47:13.000Z</time>
      </trkpt>
      <trkpt lat="45.98013" lon="4.54934">
        <ele>515.4</ele>
        <time>1970-01-01T02:47:14.000Z</time>
      </trkpt>
      <trkpt lat="45.98014" lon="4.54936">
        <ele>515.3</ele>
        <time>1970-01-01T02:47:15.000Z</time>
      </trkpt>
      <trkpt lat="45.98014" lon="4.54937">
        <ele>515.2</ele>
        <time>1970-01-01T02:47:16.000Z</time>
      </trkpt>
      <trkpt lat="45.98014" lon="4.54939">
        <ele>515.1</ele>
        <time>1970-01-01T02:47:17.000Z</time>
      </trkpt>
      <trkpt lat="45.98015" lon="4.5494">
        <ele>515.1</ele>
        <time>1970-01-01T02:47:18.000Z</time>
      </trkpt>
      <trkpt lat="45.98015" lon="4.5494">
        <ele>515</ele>
        <time>1970-01-01T02:47:19.000Z</time>
      </trkpt>
      <trkpt lat="45.98015" lon="4.54941">
        <ele>515</ele>
        <time>1970-01-01T02:47:20.000Z</time>
      </trkpt>
      <trkpt lat="45.98016" lon="4.54942">
        <ele>514.9</ele>
        <time>1970-01-01T02:47:21.000Z</time>
      </trkpt>
      <trkpt lat="45.98016" lon="4.54943">
        <ele>514.9</ele>
        <time>1970-01-01T02:47:22.000Z</time>
      </trkpt>
      <trkpt lat="45.98016" lon="4.54943">
        <ele>514.9</ele>
        <time>1970-01-01T02:47:23.000Z</time>
      </trkpt>
      <trkpt lat="45.98017" lon="4.54944">
        <ele>514.8</ele>
        <time>1970-01-01T02:47:24.000Z</time>
      </trkpt>
      <trkpt lat="45.98017" lon="4.54945">
        <ele>514.8</ele>
        <time>1970-01-01T02:47:25.000Z</time>
      </trkpt>
      <trkpt lat="45.98021" lon="4.54953">
        <ele>514.4</ele>
        <time>1970-01-01T02:47:26.000Z</time>
      </trkpt>
      <trkpt lat="45.98022" lon="4.54955">
        <ele>514.3</ele>
        <time>1970-01-01T02:47:27.000Z</time>
      </trkpt>
      <trkpt lat="45.98023" lon="4.54958">
        <ele>514.3</ele>
        <time>1970-01-01T02:47:28.000Z</time>
      </trkpt>
      <trkpt lat="45.98024" lon="4.5496">
        <ele>514.2</ele>
        <time>1970-01-01T02:47:29.000Z</time>
      </trkpt>
      <trkpt lat="45.98025" lon="4.54962">
        <ele>514.1</ele>
        <time>1970-01-01T02:47:30.000Z</time>
      </trkpt>
      <trkpt lat="45.98026" lon="4.54963">
        <ele>514.1</ele>
        <time>1970-01-01T02:47:31.000Z</time>
      </trkpt>
      <trkpt lat="45.98026" lon="4.54965">
        <ele>514.1</ele>
        <time>1970-01-01T02:47:32.000Z</time>
      </trkpt>
      <trkpt lat="45.98027" lon="4.54966">
        <ele>514</ele>
        <time>1970-01-01T02:47:33.000Z</time>
      </trkpt>
      <trkpt lat="45.98028" lon="4.54967">
        <ele>514</ele>
        <time>1970-01-01T02:47:34.000Z</time>
      </trkpt>
      <trkpt lat="45.98029" lon="4.54969">
        <ele>514</ele>
        <time>1970-01-01T02:47:35.000Z</time>
      </trkpt>
      <trkpt lat="45.9803" lon="4.5497">
        <ele>514</ele>
        <time>1970-01-01T02:47:36.000Z</time>
      </trkpt>
      <trkpt lat="45.98031" lon="4.54972">
        <ele>513.9</ele>
        <time>1970-01-01T02:47:37.000Z</time>
      </trkpt>
      <trkpt lat="45.98031" lon="4.54974">
        <ele>513.9</ele>
        <time>1970-01-01T02:47:38.000Z</time>
      </trkpt>
      <trkpt lat="45.98032" lon="4.54976">
        <ele>513.9</ele>
        <time>1970-01-01T02:47:39.000Z</time>
      </trkpt>
      <trkpt lat="45.98033" lon="4.54977">
        <ele>513.9</ele>
        <time>1970-01-01T02:47:40.000Z</time>
      </trkpt>
      <trkpt lat="45.98033" lon="4.54979">
        <ele>513.9</ele>
        <time>1970-01-01T02:47:41.000Z</time>
      </trkpt>
      <trkpt lat="45.98034" lon="4.54981">
        <ele>513.9</ele>
        <time>1970-01-01T02:47:42.000Z</time>
      </trkpt>
      <trkpt lat="45.98035" lon="4.54983">
        <ele>513.9</ele>
        <time>1970-01-01T02:47:43.000Z</time>
      </trkpt>
      <trkpt lat="45.98035" lon="4.54986">
        <ele>513.9</ele>
        <time>1970-01-01T02:47:44.000Z</time>
      </trkpt>
      <trkpt lat="45.98036" lon="4.54988">
        <ele>513.9</ele>
        <time>1970-01-01T02:47:45.000Z</time>
      </trkpt>
      <trkpt lat="45.98036" lon="4.54991">
        <ele>513.9</ele>
        <time>1970-01-01T02:47:46.000Z</time>
      </trkpt>
      <trkpt lat="45.98037" lon="4.54994">
        <ele>513.9</ele>
        <time>1970-01-01T02:47:47.000Z</time>
      </trkpt>
      <trkpt lat="45.98037" lon="4.54996">
        <ele>513.9</ele>
        <time>1970-01-01T02:47:48.000Z</time>
      </trkpt>
      <trkpt lat="45.98038" lon="4.54997">
        <ele>513.9</ele>
        <time>1970-01-01T02:47:49.000Z</time>
      </trkpt>
      <trkpt lat="45.98038" lon="4.54998">
        <ele>513.9</ele>
        <time>1970-01-01T02:47:50.000Z</time>
      </trkpt>
      <trkpt lat="45.98038" lon="4.54999">
        <ele>513.9</ele>
        <time>1970-01-01T02:47:51.000Z</time>
      </trkpt>
      <trkpt lat="45.98039" lon="4.55">
        <ele>513.9</ele>
        <time>1970-01-01T02:47:52.000Z</time>
      </trkpt>
      <trkpt lat="45.98039" lon="4.55001">
        <ele>513.9</ele>
        <time>1970-01-01T02:47:53.000Z</time>
      </trkpt>
      <trkpt lat="45.98039" lon="4.55002">
        <ele>513.9</ele>
        <time>1970-01-01T02:47:54.000Z</time>
      </trkpt>
      <trkpt lat="45.9804" lon="4.55003">
        <ele>513.9</ele>
        <time>1970-01-01T02:47:55.000Z</time>
      </trkpt>
      <trkpt lat="45.98043" lon="4.55011">
        <ele>513.9</ele>
        <time>1970-01-01T02:47:56.000Z</time>
      </trkpt>
      <trkpt lat="45.98043" lon="4.55013">
        <ele>513.8</ele>
        <time>1970-01-01T02:47:57.000Z</time>
      </trkpt>
      <trkpt lat="45.98043" lon="4.55015">
        <ele>513.8</ele>
        <time>1970-01-01T02:47:58.000Z</time>
      </trkpt>
      <trkpt lat="45.98044" lon="4.55017">
        <ele>513.8</ele>
        <time>1970-01-01T02:47:59.000Z</time>
      </trkpt>
      <trkpt lat="45.98044" lon="4.55019">
        <ele>513.7</ele>
        <time>1970-01-01T02:48:00.000Z</time>
      </trkpt>
      <trkpt lat="45.98044" lon="4.55021">
        <ele>513.7</ele>
        <time>1970-01-01T02:48:01.000Z</time>
      </trkpt>
      <trkpt lat="45.98045" lon="4.55023">
        <ele>513.7</ele>
        <time>1970-01-01T02:48:02.000Z</time>
      </trkpt>
      <trkpt lat="45.98045" lon="4.55025">
        <ele>513.6</ele>
        <time>1970-01-01T02:48:03.000Z</time>
      </trkpt>
      <trkpt lat="45.98046" lon="4.55027">
        <ele>513.6</ele>
        <time>1970-01-01T02:48:04.000Z</time>
      </trkpt>
      <trkpt lat="45.98046" lon="4.55028">
        <ele>513.6</ele>
        <time>1970-01-01T02:48:05.000Z</time>
      </trkpt>
      <trkpt lat="45.98047" lon="4.5503">
        <ele>513.5</ele>
        <time>1970-01-01T02:48:06.000Z</time>
      </trkpt>
      <trkpt lat="45.98047" lon="4.55032">
        <ele>513.5</ele>
        <time>1970-01-01T02:48:07.000Z</time>
      </trkpt>
      <trkpt lat="45.98048" lon="4.55034">
        <ele>513.5</ele>
        <time>1970-01-01T02:48:08.000Z</time>
      </trkpt>
      <trkpt lat="45.98048" lon="4.55035">
        <ele>513.4</ele>
        <time>1970-01-01T02:48:09.000Z</time>
      </trkpt>
      <trkpt lat="45.98048" lon="4.55037">
        <ele>513.4</ele>
        <time>1970-01-01T02:48:10.000Z</time>
      </trkpt>
      <trkpt lat="45.98049" lon="4.55039">
        <ele>513.4</ele>
        <time>1970-01-01T02:48:11.000Z</time>
      </trkpt>
      <trkpt lat="45.98049" lon="4.55041">
        <ele>513.3</ele>
        <time>1970-01-01T02:48:12.000Z</time>
      </trkpt>
      <trkpt lat="45.98049" lon="4.55043">
        <ele>513.3</ele>
        <time>1970-01-01T02:48:13.000Z</time>
      </trkpt>
      <trkpt lat="45.98049" lon="4.55045">
        <ele>513.3</ele>
        <time>1970-01-01T02:48:14.000Z</time>
      </trkpt>
      <trkpt lat="45.9805" lon="4.55047">
        <ele>513.2</ele>
        <time>1970-01-01T02:48:15.000Z</time>
      </trkpt>
      <trkpt lat="45.9805" lon="4.55049">
        <ele>513.2</ele>
        <time>1970-01-01T02:48:16.000Z</time>
      </trkpt>
      <trkpt lat="45.9805" lon="4.5505">
        <ele>513.2</ele>
        <time>1970-01-01T02:48:17.000Z</time>
      </trkpt>
      <trkpt lat="45.98051" lon="4.55052">
        <ele>513.2</ele>
        <time>1970-01-01T02:48:18.000Z</time>
      </trkpt>
      <trkpt lat="45.98051" lon="4.55053">
        <ele>513.1</ele>
        <time>1970-01-01T02:48:19.000Z</time>
      </trkpt>
      <trkpt lat="45.98052" lon="4.55054">
        <ele>513.1</ele>
        <time>1970-01-01T02:48:20.000Z</time>
      </trkpt>
      <trkpt lat="45.98053" lon="4.55055">
        <ele>513.1</ele>
        <time>1970-01-01T02:48:21.000Z</time>
      </trkpt>
      <trkpt lat="45.98053" lon="4.55056">
        <ele>513.1</ele>
        <time>1970-01-01T02:48:22.000Z</time>
      </trkpt>
      <trkpt lat="45.98054" lon="4.55058">
        <ele>513.1</ele>
        <time>1970-01-01T02:48:23.000Z</time>
      </trkpt>
      <trkpt lat="45.98054" lon="4.55059">
        <ele>513</ele>
        <time>1970-01-01T02:48:24.000Z</time>
      </trkpt>
      <trkpt lat="45.98055" lon="4.5506">
        <ele>513</ele>
        <time>1970-01-01T02:48:25.000Z</time>
      </trkpt>
      <trkpt lat="45.98056" lon="4.55062">
        <ele>513</ele>
        <time>1970-01-01T02:48:26.000Z</time>
      </trkpt>
      <trkpt lat="45.98056" lon="4.55064">
        <ele>512.9</ele>
        <time>1970-01-01T02:48:27.000Z</time>
      </trkpt>
      <trkpt lat="45.98057" lon="4.55066">
        <ele>512.9</ele>
        <time>1970-01-01T02:48:28.000Z</time>
      </trkpt>
      <trkpt lat="45.98058" lon="4.55068">
        <ele>512.9</ele>
        <time>1970-01-01T02:48:29.000Z</time>
      </trkpt>
      <trkpt lat="45.98059" lon="4.5507">
        <ele>512.8</ele>
        <time>1970-01-01T02:48:30.000Z</time>
      </trkpt>
      <trkpt lat="45.9806" lon="4.55072">
        <ele>512.8</ele>
        <time>1970-01-01T02:48:31.000Z</time>
      </trkpt>
      <trkpt lat="45.9806" lon="4.55074">
        <ele>512.7</ele>
        <time>1970-01-01T02:48:32.000Z</time>
      </trkpt>
      <trkpt lat="45.9806" lon="4.55075">
        <ele>512.7</ele>
        <time>1970-01-01T02:48:33.000Z</time>
      </trkpt>
      <trkpt lat="45.98061" lon="4.55076">
        <ele>512.7</ele>
        <time>1970-01-01T02:48:34.000Z</time>
      </trkpt>
      <trkpt lat="45.98061" lon="4.55078">
        <ele>512.6</ele>
        <time>1970-01-01T02:48:35.000Z</time>
      </trkpt>
      <trkpt lat="45.98061" lon="4.55079">
        <ele>512.6</ele>
        <time>1970-01-01T02:48:36.000Z</time>
      </trkpt>
      <trkpt lat="45.98062" lon="4.55081">
        <ele>512.6</ele>
        <time>1970-01-01T02:48:37.000Z</time>
      </trkpt>
      <trkpt lat="45.98062" lon="4.55082">
        <ele>512.5</ele>
        <time>1970-01-01T02:48:38.000Z</time>
      </trkpt>
      <trkpt lat="45.98062" lon="4.55083">
        <ele>512.5</ele>
        <time>1970-01-01T02:48:39.000Z</time>
      </trkpt>
      <trkpt lat="45.98063" lon="4.55085">
        <ele>512.5</ele>
        <time>1970-01-01T02:48:40.000Z</time>
      </trkpt>
      <trkpt lat="45.98063" lon="4.55086">
        <ele>512.4</ele>
        <time>1970-01-01T02:48:41.000Z</time>
      </trkpt>
      <trkpt lat="45.98064" lon="4.55087">
        <ele>512.4</ele>
        <time>1970-01-01T02:48:42.000Z</time>
      </trkpt>
      <trkpt lat="45.98064" lon="4.55088">
        <ele>512.3</ele>
        <time>1970-01-01T02:48:43.000Z</time>
      </trkpt>
      <trkpt lat="45.98065" lon="4.5509">
        <ele>512.3</ele>
        <time>1970-01-01T02:48:44.000Z</time>
      </trkpt>
      <trkpt lat="45.98065" lon="4.55091">
        <ele>512.3</ele>
        <time>1970-01-01T02:48:45.000Z</time>
      </trkpt>
      <trkpt lat="45.98066" lon="4.55092">
        <ele>512.2</ele>
        <time>1970-01-01T02:48:46.000Z</time>
      </trkpt>
      <trkpt lat="45.98066" lon="4.55093">
        <ele>512.2</ele>
        <time>1970-01-01T02:48:47.000Z</time>
      </trkpt>
      <trkpt lat="45.98067" lon="4.55095">
        <ele>512.1</ele>
        <time>1970-01-01T02:48:48.000Z</time>
      </trkpt>
      <trkpt lat="45.98068" lon="4.55096">
        <ele>512.1</ele>
        <time>1970-01-01T02:48:49.000Z</time>
      </trkpt>
      <trkpt lat="45.98068" lon="4.55097">
        <ele>512</ele>
        <time>1970-01-01T02:48:50.000Z</time>
      </trkpt>
      <trkpt lat="45.98069" lon="4.55099">
        <ele>511.9</ele>
        <time>1970-01-01T02:48:51.000Z</time>
      </trkpt>
      <trkpt lat="45.98069" lon="4.551">
        <ele>511.8</ele>
        <time>1970-01-01T02:48:52.000Z</time>
      </trkpt>
      <trkpt lat="45.9807" lon="4.55102">
        <ele>511.8</ele>
        <time>1970-01-01T02:48:53.000Z</time>
      </trkpt>
      <trkpt lat="45.98071" lon="4.55103">
        <ele>511.7</ele>
        <time>1970-01-01T02:48:54.000Z</time>
      </trkpt>
      <trkpt lat="45.98071" lon="4.55105">
        <ele>511.6</ele>
        <time>1970-01-01T02:48:55.000Z</time>
      </trkpt>
      <trkpt lat="45.98072" lon="4.55106">
        <ele>511.5</ele>
        <time>1970-01-01T02:48:56.000Z</time>
      </trkpt>
      <trkpt lat="45.98073" lon="4.55107">
        <ele>511.4</ele>
        <time>1970-01-01T02:48:57.000Z</time>
      </trkpt>
      <trkpt lat="45.98074" lon="4.55109">
        <ele>511.3</ele>
        <time>1970-01-01T02:48:58.000Z</time>
      </trkpt>
      <trkpt lat="45.98075" lon="4.55111">
        <ele>511.1</ele>
        <time>1970-01-01T02:48:59.000Z</time>
      </trkpt>
      <trkpt lat="45.98076" lon="4.55112">
        <ele>511</ele>
        <time>1970-01-01T02:49:00.000Z</time>
      </trkpt>
      <trkpt lat="45.98077" lon="4.55114">
        <ele>510.8</ele>
        <time>1970-01-01T02:49:01.000Z</time>
      </trkpt>
      <trkpt lat="45.98078" lon="4.55116">
        <ele>510.7</ele>
        <time>1970-01-01T02:49:02.000Z</time>
      </trkpt>
      <trkpt lat="45.9808" lon="4.55118">
        <ele>510.5</ele>
        <time>1970-01-01T02:49:03.000Z</time>
      </trkpt>
      <trkpt lat="45.98081" lon="4.55119">
        <ele>510.3</ele>
        <time>1970-01-01T02:49:04.000Z</time>
      </trkpt>
      <trkpt lat="45.98083" lon="4.5512">
        <ele>510.1</ele>
        <time>1970-01-01T02:49:05.000Z</time>
      </trkpt>
      <trkpt lat="45.98085" lon="4.55122">
        <ele>509.9</ele>
        <time>1970-01-01T02:49:06.000Z</time>
      </trkpt>
      <trkpt lat="45.98086" lon="4.55123">
        <ele>509.7</ele>
        <time>1970-01-01T02:49:07.000Z</time>
      </trkpt>
      <trkpt lat="45.98088" lon="4.55125">
        <ele>509.5</ele>
        <time>1970-01-01T02:49:08.000Z</time>
      </trkpt>
      <trkpt lat="45.98089" lon="4.55126">
        <ele>509.3</ele>
        <time>1970-01-01T02:49:09.000Z</time>
      </trkpt>
      <trkpt lat="45.98091" lon="4.55127">
        <ele>509.2</ele>
        <time>1970-01-01T02:49:10.000Z</time>
      </trkpt>
      <trkpt lat="45.98092" lon="4.55128">
        <ele>509</ele>
        <time>1970-01-01T02:49:11.000Z</time>
      </trkpt>
      <trkpt lat="45.98093" lon="4.5513">
        <ele>508.8</ele>
        <time>1970-01-01T02:49:12.000Z</time>
      </trkpt>
      <trkpt lat="45.98094" lon="4.55131">
        <ele>508.7</ele>
        <time>1970-01-01T02:49:13.000Z</time>
      </trkpt>
      <trkpt lat="45.98096" lon="4.55132">
        <ele>508.5</ele>
        <time>1970-01-01T02:49:14.000Z</time>
      </trkpt>
      <trkpt lat="45.98096" lon="4.55133">
        <ele>508.4</ele>
        <time>1970-01-01T02:49:15.000Z</time>
      </trkpt>
      <trkpt lat="45.98097" lon="4.55134">
        <ele>508.4</ele>
        <time>1970-01-01T02:49:16.000Z</time>
      </trkpt>
      <trkpt lat="45.98097" lon="4.55135">
        <ele>508.3</ele>
        <time>1970-01-01T02:49:17.000Z</time>
      </trkpt>
      <trkpt lat="45.98097" lon="4.55135">
        <ele>508.2</ele>
        <time>1970-01-01T02:49:18.000Z</time>
      </trkpt>
      <trkpt lat="45.98098" lon="4.55136">
        <ele>508.1</ele>
        <time>1970-01-01T02:49:19.000Z</time>
      </trkpt>
      <trkpt lat="45.98098" lon="4.55137">
        <ele>508.1</ele>
        <time>1970-01-01T02:49:20.000Z</time>
      </trkpt>
      <trkpt lat="45.98099" lon="4.55138">
        <ele>508</ele>
        <time>1970-01-01T02:49:21.000Z</time>
      </trkpt>
      <trkpt lat="45.98103" lon="4.55146">
        <ele>507.3</ele>
        <time>1970-01-01T02:49:22.000Z</time>
      </trkpt>
      <trkpt lat="45.98104" lon="4.55147">
        <ele>507.1</ele>
        <time>1970-01-01T02:49:23.000Z</time>
      </trkpt>
      <trkpt lat="45.98106" lon="4.55149">
        <ele>507</ele>
        <time>1970-01-01T02:49:24.000Z</time>
      </trkpt>
      <trkpt lat="45.98107" lon="4.5515">
        <ele>506.8</ele>
        <time>1970-01-01T02:49:25.000Z</time>
      </trkpt>
      <trkpt lat="45.98107" lon="4.5515">
        <ele>506.8</ele>
        <time>1970-01-01T02:49:26.000Z</time>
      </trkpt>
      <trkpt lat="45.98109" lon="4.55153">
        <ele>506.6</ele>
        <time>1970-01-01T02:49:27.000Z</time>
      </trkpt>
      <trkpt lat="45.98109" lon="4.55153">
        <ele>506.6</ele>
        <time>1970-01-01T02:49:28.000Z</time>
      </trkpt>
      <trkpt lat="45.98111" lon="4.55157">
        <ele>506.3</ele>
        <time>1970-01-01T02:49:29.000Z</time>
      </trkpt>
      <trkpt lat="45.98111" lon="4.55157">
        <ele>506.3</ele>
        <time>1970-01-01T02:49:30.000Z</time>
      </trkpt>
      <trkpt lat="45.98113" lon="4.5516">
        <ele>506</ele>
        <time>1970-01-01T02:49:31.000Z</time>
      </trkpt>
      <trkpt lat="45.98113" lon="4.5516">
        <ele>506</ele>
        <time>1970-01-01T02:49:32.000Z</time>
      </trkpt>
      <trkpt lat="45.98114" lon="4.55163">
        <ele>505.8</ele>
        <time>1970-01-01T02:49:33.000Z</time>
      </trkpt>
      <trkpt lat="45.98114" lon="4.55163">
        <ele>505.8</ele>
        <time>1970-01-01T02:49:34.000Z</time>
      </trkpt>
      <trkpt lat="45.98115" lon="4.55165">
        <ele>505.6</ele>
        <time>1970-01-01T02:49:35.000Z</time>
      </trkpt>
      <trkpt lat="45.98115" lon="4.55165">
        <ele>505.6</ele>
        <time>1970-01-01T02:49:36.000Z</time>
      </trkpt>
      <trkpt lat="45.98115" lon="4.55165">
        <ele>505.6</ele>
        <time>1970-01-01T02:49:37.000Z</time>
      </trkpt>
      <trkpt lat="45.98118" lon="4.55169">
        <ele>505.3</ele>
        <time>1970-01-01T02:49:38.000Z</time>
      </trkpt>
      <trkpt lat="45.98118" lon="4.55169">
        <ele>505.3</ele>
        <time>1970-01-01T02:49:39.000Z</time>
      </trkpt>
      <trkpt lat="45.9812" lon="4.55171">
        <ele>505.1</ele>
        <time>1970-01-01T02:49:40.000Z</time>
      </trkpt>
      <trkpt lat="45.9812" lon="4.55171">
        <ele>505.1</ele>
        <time>1970-01-01T02:49:41.000Z</time>
      </trkpt>
      <trkpt lat="45.98122" lon="4.55174">
        <ele>504.9</ele>
        <time>1970-01-01T02:49:42.000Z</time>
      </trkpt>
      <trkpt lat="45.98122" lon="4.55174">
        <ele>504.9</ele>
        <time>1970-01-01T02:49:43.000Z</time>
      </trkpt>
      <trkpt lat="45.98124" lon="4.55176">
        <ele>504.7</ele>
        <time>1970-01-01T02:49:44.000Z</time>
      </trkpt>
      <trkpt lat="45.98124" lon="4.55176">
        <ele>504.7</ele>
        <time>1970-01-01T02:49:45.000Z</time>
      </trkpt>
      <trkpt lat="45.98126" lon="4.55178">
        <ele>504.5</ele>
        <time>1970-01-01T02:49:46.000Z</time>
      </trkpt>
      <trkpt lat="45.98128" lon="4.5518">
        <ele>504.3</ele>
        <time>1970-01-01T02:49:47.000Z</time>
      </trkpt>
      <trkpt lat="45.98129" lon="4.5518">
        <ele>504.2</ele>
        <time>1970-01-01T02:49:48.000Z</time>
      </trkpt>
      <trkpt lat="45.9813" lon="4.5518">
        <ele>504.1</ele>
        <time>1970-01-01T02:49:49.000Z</time>
      </trkpt>
      <trkpt lat="45.9813" lon="4.55181">
        <ele>504.1</ele>
        <time>1970-01-01T02:49:50.000Z</time>
      </trkpt>
      <trkpt lat="45.98131" lon="4.55181">
        <ele>504</ele>
        <time>1970-01-01T02:49:51.000Z</time>
      </trkpt>
      <trkpt lat="45.98132" lon="4.55181">
        <ele>503.9</ele>
        <time>1970-01-01T02:49:52.000Z</time>
      </trkpt>
      <trkpt lat="45.98133" lon="4.55181">
        <ele>503.8</ele>
        <time>1970-01-01T02:49:53.000Z</time>
      </trkpt>
      <trkpt lat="45.98134" lon="4.55182">
        <ele>503.7</ele>
        <time>1970-01-01T02:49:54.000Z</time>
      </trkpt>
      <trkpt lat="45.98135" lon="4.55182">
        <ele>503.6</ele>
        <time>1970-01-01T02:49:55.000Z</time>
      </trkpt>
      <trkpt lat="45.98136" lon="4.55182">
        <ele>503.6</ele>
        <time>1970-01-01T02:49:56.000Z</time>
      </trkpt>
      <trkpt lat="45.98136" lon="4.55182">
        <ele>503.6</ele>
        <time>1970-01-01T02:49:57.000Z</time>
      </trkpt>
      <trkpt lat="45.98139" lon="4.55182">
        <ele>503.4</ele>
        <time>1970-01-01T02:49:58.000Z</time>
      </trkpt>
      <trkpt lat="45.98139" lon="4.55182">
        <ele>503.4</ele>
        <time>1970-01-01T02:49:59.000Z</time>
      </trkpt>
      <trkpt lat="45.98141" lon="4.55182">
        <ele>503.2</ele>
        <time>1970-01-01T02:50:00.000Z</time>
      </trkpt>
      <trkpt lat="45.98142" lon="4.55182">
        <ele>503.1</ele>
        <time>1970-01-01T02:50:01.000Z</time>
      </trkpt>
      <trkpt lat="45.98143" lon="4.55182">
        <ele>502.9</ele>
        <time>1970-01-01T02:50:02.000Z</time>
      </trkpt>
      <trkpt lat="45.98144" lon="4.55181">
        <ele>502.8</ele>
        <time>1970-01-01T02:50:03.000Z</time>
      </trkpt>
      <trkpt lat="45.98146" lon="4.55181">
        <ele>502.7</ele>
        <time>1970-01-01T02:50:04.000Z</time>
      </trkpt>
      <trkpt lat="45.98147" lon="4.55181">
        <ele>502.6</ele>
        <time>1970-01-01T02:50:05.000Z</time>
      </trkpt>
      <trkpt lat="45.98148" lon="4.55181">
        <ele>502.5</ele>
        <time>1970-01-01T02:50:06.000Z</time>
      </trkpt>
      <trkpt lat="45.98149" lon="4.55181">
        <ele>502.4</ele>
        <time>1970-01-01T02:50:07.000Z</time>
      </trkpt>
      <trkpt lat="45.9815" lon="4.55181">
        <ele>502.3</ele>
        <time>1970-01-01T02:50:08.000Z</time>
      </trkpt>
      <trkpt lat="45.98151" lon="4.5518">
        <ele>502.1</ele>
        <time>1970-01-01T02:50:09.000Z</time>
      </trkpt>
      <trkpt lat="45.98153" lon="4.5518">
        <ele>502</ele>
        <time>1970-01-01T02:50:10.000Z</time>
      </trkpt>
      <trkpt lat="45.98154" lon="4.5518">
        <ele>501.9</ele>
        <time>1970-01-01T02:50:11.000Z</time>
      </trkpt>
      <trkpt lat="45.98155" lon="4.55179">
        <ele>501.8</ele>
        <time>1970-01-01T02:50:12.000Z</time>
      </trkpt>
      <trkpt lat="45.98156" lon="4.55179">
        <ele>501.6</ele>
        <time>1970-01-01T02:50:13.000Z</time>
      </trkpt>
      <trkpt lat="45.98158" lon="4.55179">
        <ele>501.5</ele>
        <time>1970-01-01T02:50:14.000Z</time>
      </trkpt>
      <trkpt lat="45.98159" lon="4.55179">
        <ele>501.4</ele>
        <time>1970-01-01T02:50:15.000Z</time>
      </trkpt>
      <trkpt lat="45.98159" lon="4.55179">
        <ele>501.4</ele>
        <time>1970-01-01T02:50:16.000Z</time>
      </trkpt>
      <trkpt lat="45.98159" lon="4.55179">
        <ele>501.4</ele>
        <time>1970-01-01T02:50:17.000Z</time>
      </trkpt>
      <trkpt lat="45.98161" lon="4.55177">
        <ele>501</ele>
        <time>1970-01-01T02:50:18.000Z</time>
      </trkpt>
      <trkpt lat="45.98162" lon="4.55177">
        <ele>500.9</ele>
        <time>1970-01-01T02:50:19.000Z</time>
      </trkpt>
      <trkpt lat="45.98163" lon="4.55177">
        <ele>500.7</ele>
        <time>1970-01-01T02:50:20.000Z</time>
      </trkpt>
      <trkpt lat="45.98165" lon="4.55177">
        <ele>500.5</ele>
        <time>1970-01-01T02:50:21.000Z</time>
      </trkpt>
      <trkpt lat="45.98166" lon="4.55177">
        <ele>500.3</ele>
        <time>1970-01-01T02:50:22.000Z</time>
      </trkpt>
      <trkpt lat="45.98167" lon="4.55177">
        <ele>500.2</ele>
        <time>1970-01-01T02:50:23.000Z</time>
      </trkpt>
      <trkpt lat="45.98167" lon="4.55177">
        <ele>500.2</ele>
        <time>1970-01-01T02:50:24.000Z</time>
      </trkpt>
      <trkpt lat="45.98167" lon="4.55177">
        <ele>500.2</ele>
        <time>1970-01-01T02:50:25.000Z</time>
      </trkpt>
      <trkpt lat="45.98167" lon="4.55177">
        <ele>500.2</ele>
        <time>1970-01-01T02:50:26.000Z</time>
      </trkpt>
      <trkpt lat="45.98167" lon="4.55177">
        <ele>500.2</ele>
        <time>1970-01-01T02:50:27.000Z</time>
      </trkpt>
      <trkpt lat="45.98167" lon="4.55177">
        <ele>500.2</ele>
        <time>1970-01-01T02:50:28.000Z</time>
      </trkpt>
      <trkpt lat="45.98169" lon="4.55181">
        <ele>499.6</ele>
        <time>1970-01-01T02:50:29.000Z</time>
      </trkpt>
      <trkpt lat="45.98169" lon="4.55181">
        <ele>499.6</ele>
        <time>1970-01-01T02:50:30.000Z</time>
      </trkpt>
      <trkpt lat="45.98169" lon="4.55181">
        <ele>499.6</ele>
        <time>1970-01-01T02:50:31.000Z</time>
      </trkpt>
      <trkpt lat="45.98169" lon="4.55181">
        <ele>499.6</ele>
        <time>1970-01-01T02:50:32.000Z</time>
      </trkpt>
      <trkpt lat="45.98169" lon="4.55181">
        <ele>499.6</ele>
        <time>1970-01-01T02:50:33.000Z</time>
      </trkpt>
      <trkpt lat="45.98169" lon="4.55181">
        <ele>499.6</ele>
        <time>1970-01-01T02:50:34.000Z</time>
      </trkpt>
      <trkpt lat="45.98171" lon="4.55183">
        <ele>499.2</ele>
        <time>1970-01-01T02:50:35.000Z</time>
      </trkpt>
      <trkpt lat="45.98171" lon="4.55183">
        <ele>499.2</ele>
        <time>1970-01-01T02:50:36.000Z</time>
      </trkpt>
      <trkpt lat="45.98171" lon="4.55183">
        <ele>499.2</ele>
        <time>1970-01-01T02:50:37.000Z</time>
      </trkpt>
      <trkpt lat="45.98171" lon="4.55183">
        <ele>499.2</ele>
        <time>1970-01-01T02:50:38.000Z</time>
      </trkpt>
      <trkpt lat="45.98174" lon="4.55181">
        <ele>498.1</ele>
        <time>1970-01-01T02:50:39.000Z</time>
      </trkpt>
      <trkpt lat="45.98174" lon="4.55181">
        <ele>498.1</ele>
        <time>1970-01-01T02:50:40.000Z</time>
      </trkpt>
      <trkpt lat="45.98177" lon="4.5518">
        <ele>497.5</ele>
        <time>1970-01-01T02:50:41.000Z</time>
      </trkpt>
      <trkpt lat="45.98177" lon="4.5518">
        <ele>497.4</ele>
        <time>1970-01-01T02:50:42.000Z</time>
      </trkpt>
      <trkpt lat="45.98177" lon="4.5518">
        <ele>497.3</ele>
        <time>1970-01-01T02:50:43.000Z</time>
      </trkpt>
      <trkpt lat="45.98178" lon="4.55179">
        <ele>497.2</ele>
        <time>1970-01-01T02:50:44.000Z</time>
      </trkpt>
      <trkpt lat="45.98178" lon="4.55179">
        <ele>497.1</ele>
        <time>1970-01-01T02:50:45.000Z</time>
      </trkpt>
      <trkpt lat="45.98178" lon="4.55179">
        <ele>497</ele>
        <time>1970-01-01T02:50:46.000Z</time>
      </trkpt>
      <trkpt lat="45.98179" lon="4.55179">
        <ele>496.9</ele>
        <time>1970-01-01T02:50:47.000Z</time>
      </trkpt>
      <trkpt lat="45.98179" lon="4.55178">
        <ele>496.8</ele>
        <time>1970-01-01T02:50:48.000Z</time>
      </trkpt>
      <trkpt lat="45.98179" lon="4.55178">
        <ele>496.7</ele>
        <time>1970-01-01T02:50:49.000Z</time>
      </trkpt>
      <trkpt lat="45.9818" lon="4.55178">
        <ele>496.6</ele>
        <time>1970-01-01T02:50:50.000Z</time>
      </trkpt>
      <trkpt lat="45.9818" lon="4.55177">
        <ele>496.5</ele>
        <time>1970-01-01T02:50:51.000Z</time>
      </trkpt>
      <trkpt lat="45.9818" lon="4.55177">
        <ele>496.4</ele>
        <time>1970-01-01T02:50:52.000Z</time>
      </trkpt>
      <trkpt lat="45.98181" lon="4.55177">
        <ele>496.3</ele>
        <time>1970-01-01T02:50:53.000Z</time>
      </trkpt>
      <trkpt lat="45.98181" lon="4.55177">
        <ele>496.2</ele>
        <time>1970-01-01T02:50:54.000Z</time>
      </trkpt>
      <trkpt lat="45.98181" lon="4.55176">
        <ele>496.1</ele>
        <time>1970-01-01T02:50:55.000Z</time>
      </trkpt>
      <trkpt lat="45.98181" lon="4.55176">
        <ele>496</ele>
        <time>1970-01-01T02:50:56.000Z</time>
      </trkpt>
      <trkpt lat="45.98182" lon="4.55176">
        <ele>495.9</ele>
        <time>1970-01-01T02:50:57.000Z</time>
      </trkpt>
      <trkpt lat="45.98182" lon="4.55175">
        <ele>495.8</ele>
        <time>1970-01-01T02:50:58.000Z</time>
      </trkpt>
      <trkpt lat="45.98182" lon="4.55175">
        <ele>495.7</ele>
        <time>1970-01-01T02:50:59.000Z</time>
      </trkpt>
      <trkpt lat="45.98183" lon="4.55175">
        <ele>495.6</ele>
        <time>1970-01-01T02:51:00.000Z</time>
      </trkpt>
      <trkpt lat="45.98183" lon="4.55175">
        <ele>495.5</ele>
        <time>1970-01-01T02:51:01.000Z</time>
      </trkpt>
      <trkpt lat="45.98183" lon="4.55174">
        <ele>495.4</ele>
        <time>1970-01-01T02:51:02.000Z</time>
      </trkpt>
      <trkpt lat="45.98184" lon="4.55174">
        <ele>495.3</ele>
        <time>1970-01-01T02:51:03.000Z</time>
      </trkpt>
      <trkpt lat="45.98184" lon="4.55174">
        <ele>495.2</ele>
        <time>1970-01-01T02:51:04.000Z</time>
      </trkpt>
      <trkpt lat="45.98184" lon="4.55174">
        <ele>495.1</ele>
        <time>1970-01-01T02:51:05.000Z</time>
      </trkpt>
      <trkpt lat="45.98185" lon="4.55173">
        <ele>495</ele>
        <time>1970-01-01T02:51:06.000Z</time>
      </trkpt>
      <trkpt lat="45.98185" lon="4.55173">
        <ele>495</ele>
        <time>1970-01-01T02:51:07.000Z</time>
      </trkpt>
      <trkpt lat="45.98187" lon="4.55172">
        <ele>494.5</ele>
        <time>1970-01-01T02:51:08.000Z</time>
      </trkpt>
      <trkpt lat="45.98187" lon="4.55172">
        <ele>494.5</ele>
        <time>1970-01-01T02:51:09.000Z</time>
      </trkpt>
      <trkpt lat="45.98188" lon="4.5517">
        <ele>493.9</ele>
        <time>1970-01-01T02:51:10.000Z</time>
      </trkpt>
      <trkpt lat="45.98188" lon="4.5517">
        <ele>493.9</ele>
        <time>1970-01-01T02:51:11.000Z</time>
      </trkpt>
      <trkpt lat="45.98188" lon="4.5517">
        <ele>493.9</ele>
        <time>1970-01-01T02:51:12.000Z</time>
      </trkpt>
      <trkpt lat="45.98191" lon="4.55167">
        <ele>493</ele>
        <time>1970-01-01T02:51:13.000Z</time>
      </trkpt>
      <trkpt lat="45.98192" lon="4.55167">
        <ele>492.7</ele>
        <time>1970-01-01T02:51:14.000Z</time>
      </trkpt>
      <trkpt lat="45.98193" lon="4.55167">
        <ele>492.4</ele>
        <time>1970-01-01T02:51:15.000Z</time>
      </trkpt>
      <trkpt lat="45.98194" lon="4.55167">
        <ele>492.2</ele>
        <time>1970-01-01T02:51:16.000Z</time>
      </trkpt>
      <trkpt lat="45.98195" lon="4.55167">
        <ele>491.9</ele>
        <time>1970-01-01T02:51:17.000Z</time>
      </trkpt>
      <trkpt lat="45.98196" lon="4.55166">
        <ele>491.6</ele>
        <time>1970-01-01T02:51:18.000Z</time>
      </trkpt>
      <trkpt lat="45.98197" lon="4.55166">
        <ele>491.4</ele>
        <time>1970-01-01T02:51:19.000Z</time>
      </trkpt>
      <trkpt lat="45.98198" lon="4.55166">
        <ele>491.1</ele>
        <time>1970-01-01T02:51:20.000Z</time>
      </trkpt>
      <trkpt lat="45.98199" lon="4.55166">
        <ele>490.8</ele>
        <time>1970-01-01T02:51:21.000Z</time>
      </trkpt>
      <trkpt lat="45.982" lon="4.55166">
        <ele>490.6</ele>
        <time>1970-01-01T02:51:22.000Z</time>
      </trkpt>
      <trkpt lat="45.982" lon="4.55166">
        <ele>490.6</ele>
        <time>1970-01-01T02:51:23.000Z</time>
      </trkpt>
      <trkpt lat="45.98204" lon="4.55165">
        <ele>489.7</ele>
        <time>1970-01-01T02:51:24.000Z</time>
      </trkpt>
      <trkpt lat="45.98205" lon="4.55165">
        <ele>489.3</ele>
        <time>1970-01-01T02:51:25.000Z</time>
      </trkpt>
      <trkpt lat="45.98206" lon="4.55165">
        <ele>489</ele>
        <time>1970-01-01T02:51:26.000Z</time>
      </trkpt>
      <trkpt lat="45.98207" lon="4.55164">
        <ele>488.6</ele>
        <time>1970-01-01T02:51:27.000Z</time>
      </trkpt>
      <trkpt lat="45.98209" lon="4.55164">
        <ele>488.3</ele>
        <time>1970-01-01T02:51:28.000Z</time>
      </trkpt>
      <trkpt lat="45.9821" lon="4.55164">
        <ele>488</ele>
        <time>1970-01-01T02:51:29.000Z</time>
      </trkpt>
      <trkpt lat="45.98211" lon="4.55164">
        <ele>487.7</ele>
        <time>1970-01-01T02:51:30.000Z</time>
      </trkpt>
      <trkpt lat="45.98212" lon="4.55163">
        <ele>487.3</ele>
        <time>1970-01-01T02:51:31.000Z</time>
      </trkpt>
      <trkpt lat="45.98214" lon="4.55163">
        <ele>487</ele>
        <time>1970-01-01T02:51:32.000Z</time>
      </trkpt>
      <trkpt lat="45.98215" lon="4.55163">
        <ele>486.6</ele>
        <time>1970-01-01T02:51:33.000Z</time>
      </trkpt>
      <trkpt lat="45.98216" lon="4.55163">
        <ele>486.3</ele>
        <time>1970-01-01T02:51:34.000Z</time>
      </trkpt>
      <trkpt lat="45.98218" lon="4.55163">
        <ele>485.9</ele>
        <time>1970-01-01T02:51:35.000Z</time>
      </trkpt>
      <trkpt lat="45.98219" lon="4.55162">
        <ele>485.6</ele>
        <time>1970-01-01T02:51:36.000Z</time>
      </trkpt>
      <trkpt lat="45.9822" lon="4.55162">
        <ele>485.2</ele>
        <time>1970-01-01T02:51:37.000Z</time>
      </trkpt>
      <trkpt lat="45.98222" lon="4.55162">
        <ele>484.9</ele>
        <time>1970-01-01T02:51:38.000Z</time>
      </trkpt>
      <trkpt lat="45.98223" lon="4.55162">
        <ele>484.5</ele>
        <time>1970-01-01T02:51:39.000Z</time>
      </trkpt>
      <trkpt lat="45.98224" lon="4.55162">
        <ele>484.2</ele>
        <time>1970-01-01T02:51:40.000Z</time>
      </trkpt>
      <trkpt lat="45.98225" lon="4.55162">
        <ele>483.9</ele>
        <time>1970-01-01T02:51:41.000Z</time>
      </trkpt>
      <trkpt lat="45.98226" lon="4.55162">
        <ele>483.6</ele>
        <time>1970-01-01T02:51:42.000Z</time>
      </trkpt>
      <trkpt lat="45.98227" lon="4.55161">
        <ele>483.3</ele>
        <time>1970-01-01T02:51:43.000Z</time>
      </trkpt>
      <trkpt lat="45.98228" lon="4.55161">
        <ele>483</ele>
        <time>1970-01-01T02:51:44.000Z</time>
      </trkpt>
      <trkpt lat="45.98229" lon="4.55161">
        <ele>482.7</ele>
        <time>1970-01-01T02:51:45.000Z</time>
      </trkpt>
      <trkpt lat="45.98231" lon="4.55161">
        <ele>482.4</ele>
        <time>1970-01-01T02:51:46.000Z</time>
      </trkpt>
      <trkpt lat="45.98232" lon="4.55161">
        <ele>482.1</ele>
        <time>1970-01-01T02:51:47.000Z</time>
      </trkpt>
      <trkpt lat="45.98233" lon="4.55161">
        <ele>481.8</ele>
        <time>1970-01-01T02:51:48.000Z</time>
      </trkpt>
      <trkpt lat="45.98234" lon="4.55161">
        <ele>481.3</ele>
        <time>1970-01-01T02:51:49.000Z</time>
      </trkpt>
      <trkpt lat="45.98236" lon="4.5516">
        <ele>480.9</ele>
        <time>1970-01-01T02:51:50.000Z</time>
      </trkpt>
      <trkpt lat="45.98237" lon="4.5516">
        <ele>480.4</ele>
        <time>1970-01-01T02:51:51.000Z</time>
      </trkpt>
      <trkpt lat="45.98239" lon="4.5516">
        <ele>480</ele>
        <time>1970-01-01T02:51:52.000Z</time>
      </trkpt>
      <trkpt lat="45.9824" lon="4.55159">
        <ele>479.6</ele>
        <time>1970-01-01T02:51:53.000Z</time>
      </trkpt>
      <trkpt lat="45.98242" lon="4.55159">
        <ele>479.1</ele>
        <time>1970-01-01T02:51:54.000Z</time>
      </trkpt>
      <trkpt lat="45.98242" lon="4.55159">
        <ele>479</ele>
        <time>1970-01-01T02:51:55.000Z</time>
      </trkpt>
      <trkpt lat="45.98243" lon="4.55159">
        <ele>478.8</ele>
        <time>1970-01-01T02:51:56.000Z</time>
      </trkpt>
      <trkpt lat="45.98244" lon="4.55159">
        <ele>478.6</ele>
        <time>1970-01-01T02:51:57.000Z</time>
      </trkpt>
      <trkpt lat="45.98244" lon="4.55159">
        <ele>478.5</ele>
        <time>1970-01-01T02:51:58.000Z</time>
      </trkpt>
      <trkpt lat="45.98245" lon="4.55159">
        <ele>478.3</ele>
        <time>1970-01-01T02:51:59.000Z</time>
      </trkpt>
      <trkpt lat="45.98245" lon="4.55159">
        <ele>478.2</ele>
        <time>1970-01-01T02:52:00.000Z</time>
      </trkpt>
      <trkpt lat="45.98246" lon="4.55159">
        <ele>478</ele>
        <time>1970-01-01T02:52:01.000Z</time>
      </trkpt>
      <trkpt lat="45.98246" lon="4.55159">
        <ele>477.9</ele>
        <time>1970-01-01T02:52:02.000Z</time>
      </trkpt>
      <trkpt lat="45.98247" lon="4.55159">
        <ele>477.7</ele>
        <time>1970-01-01T02:52:03.000Z</time>
      </trkpt>
      <trkpt lat="45.98253" lon="4.5516">
        <ele>475.9</ele>
        <time>1970-01-01T02:52:04.000Z</time>
      </trkpt>
      <trkpt lat="45.98254" lon="4.5516">
        <ele>475.6</ele>
        <time>1970-01-01T02:52:05.000Z</time>
      </trkpt>
      <trkpt lat="45.98255" lon="4.5516">
        <ele>475.2</ele>
        <time>1970-01-01T02:52:06.000Z</time>
      </trkpt>
      <trkpt lat="45.98257" lon="4.5516">
        <ele>474.9</ele>
        <time>1970-01-01T02:52:07.000Z</time>
      </trkpt>
      <trkpt lat="45.98258" lon="4.5516">
        <ele>474.5</ele>
        <time>1970-01-01T02:52:08.000Z</time>
      </trkpt>
      <trkpt lat="45.98259" lon="4.5516">
        <ele>474.2</ele>
        <time>1970-01-01T02:52:09.000Z</time>
      </trkpt>
      <trkpt lat="45.9826" lon="4.5516">
        <ele>473.8</ele>
        <time>1970-01-01T02:52:10.000Z</time>
      </trkpt>
      <trkpt lat="45.98262" lon="4.5516">
        <ele>473.4</ele>
        <time>1970-01-01T02:52:11.000Z</time>
      </trkpt>
      <trkpt lat="45.98263" lon="4.55159">
        <ele>473</ele>
        <time>1970-01-01T02:52:12.000Z</time>
      </trkpt>
      <trkpt lat="45.98265" lon="4.55159">
        <ele>472.6</ele>
        <time>1970-01-01T02:52:13.000Z</time>
      </trkpt>
      <trkpt lat="45.98266" lon="4.55159">
        <ele>472.1</ele>
        <time>1970-01-01T02:52:14.000Z</time>
      </trkpt>
      <trkpt lat="45.98268" lon="4.55158">
        <ele>471.7</ele>
        <time>1970-01-01T02:52:15.000Z</time>
      </trkpt>
      <trkpt lat="45.98269" lon="4.55158">
        <ele>471.3</ele>
        <time>1970-01-01T02:52:16.000Z</time>
      </trkpt>
      <trkpt lat="45.98271" lon="4.55158">
        <ele>470.8</ele>
        <time>1970-01-01T02:52:17.000Z</time>
      </trkpt>
      <trkpt lat="45.98272" lon="4.55157">
        <ele>470.5</ele>
        <time>1970-01-01T02:52:18.000Z</time>
      </trkpt>
      <trkpt lat="45.98273" lon="4.55157">
        <ele>470.2</ele>
        <time>1970-01-01T02:52:19.000Z</time>
      </trkpt>
      <trkpt lat="45.98274" lon="4.55157">
        <ele>469.9</ele>
        <time>1970-01-01T02:52:20.000Z</time>
      </trkpt>
      <trkpt lat="45.98275" lon="4.55156">
        <ele>469.6</ele>
        <time>1970-01-01T02:52:21.000Z</time>
      </trkpt>
      <trkpt lat="45.98276" lon="4.55156">
        <ele>469.3</ele>
        <time>1970-01-01T02:52:22.000Z</time>
      </trkpt>
      <trkpt lat="45.98277" lon="4.55155">
        <ele>469</ele>
        <time>1970-01-01T02:52:23.000Z</time>
      </trkpt>
      <trkpt lat="45.98279" lon="4.55155">
        <ele>468.7</ele>
        <time>1970-01-01T02:52:24.000Z</time>
      </trkpt>
      <trkpt lat="45.9828" lon="4.55155">
        <ele>468.4</ele>
        <time>1970-01-01T02:52:25.000Z</time>
      </trkpt>
      <trkpt lat="45.98281" lon="4.55154">
        <ele>468.1</ele>
        <time>1970-01-01T02:52:26.000Z</time>
      </trkpt>
      <trkpt lat="45.98281" lon="4.55154">
        <ele>468.1</ele>
        <time>1970-01-01T02:52:27.000Z</time>
      </trkpt>
      <trkpt lat="45.98281" lon="4.55154">
        <ele>468.1</ele>
        <time>1970-01-01T02:52:28.000Z</time>
      </trkpt>
      <trkpt lat="45.98281" lon="4.55154">
        <ele>468.1</ele>
        <time>1970-01-01T02:52:29.000Z</time>
      </trkpt>
      <trkpt lat="45.98281" lon="4.55154">
        <ele>468.1</ele>
        <time>1970-01-01T02:52:30.000Z</time>
      </trkpt>
      <trkpt lat="45.98281" lon="4.55154">
        <ele>468.1</ele>
        <time>1970-01-01T02:52:31.000Z</time>
      </trkpt>
      <trkpt lat="45.9829" lon="4.55152">
        <ele>465.5</ele>
        <time>1970-01-01T02:52:33.000Z</time>
      </trkpt>
      <trkpt lat="45.98291" lon="4.55152">
        <ele>465.2</ele>
        <time>1970-01-01T02:52:34.000Z</time>
      </trkpt>
      <trkpt lat="45.98292" lon="4.55152">
        <ele>464.9</ele>
        <time>1970-01-01T02:52:35.000Z</time>
      </trkpt>
      <trkpt lat="45.98294" lon="4.55152">
        <ele>464.6</ele>
        <time>1970-01-01T02:52:36.000Z</time>
      </trkpt>
      <trkpt lat="45.98295" lon="4.55152">
        <ele>464.3</ele>
        <time>1970-01-01T02:52:37.000Z</time>
      </trkpt>
      <trkpt lat="45.98296" lon="4.55152">
        <ele>464</ele>
        <time>1970-01-01T02:52:38.000Z</time>
      </trkpt>
      <trkpt lat="45.98297" lon="4.55152">
        <ele>463.7</ele>
        <time>1970-01-01T02:52:39.000Z</time>
      </trkpt>
      <trkpt lat="45.98298" lon="4.55152">
        <ele>463.4</ele>
        <time>1970-01-01T02:52:40.000Z</time>
      </trkpt>
      <trkpt lat="45.98299" lon="4.55152">
        <ele>463.1</ele>
        <time>1970-01-01T02:52:41.000Z</time>
      </trkpt>
      <trkpt lat="45.983" lon="4.55152">
        <ele>462.8</ele>
        <time>1970-01-01T02:52:42.000Z</time>
      </trkpt>
      <trkpt lat="45.98301" lon="4.55152">
        <ele>462.6</ele>
        <time>1970-01-01T02:52:43.000Z</time>
      </trkpt>
      <trkpt lat="45.98302" lon="4.55152">
        <ele>462.3</ele>
        <time>1970-01-01T02:52:44.000Z</time>
      </trkpt>
      <trkpt lat="45.98303" lon="4.55152">
        <ele>462</ele>
        <time>1970-01-01T02:52:45.000Z</time>
      </trkpt>
      <trkpt lat="45.98304" lon="4.55152">
        <ele>461.8</ele>
        <time>1970-01-01T02:52:46.000Z</time>
      </trkpt>
      <trkpt lat="45.98305" lon="4.55152">
        <ele>461.5</ele>
        <time>1970-01-01T02:52:47.000Z</time>
      </trkpt>
      <trkpt lat="45.98306" lon="4.55153">
        <ele>461.3</ele>
        <time>1970-01-01T02:52:48.000Z</time>
      </trkpt>
      <trkpt lat="45.98307" lon="4.55153">
        <ele>461</ele>
        <time>1970-01-01T02:52:49.000Z</time>
      </trkpt>
      <trkpt lat="45.98308" lon="4.55153">
        <ele>460.7</ele>
        <time>1970-01-01T02:52:50.000Z</time>
      </trkpt>
      <trkpt lat="45.9831" lon="4.55152">
        <ele>460.3</ele>
        <time>1970-01-01T02:52:51.000Z</time>
      </trkpt>
      <trkpt lat="45.98311" lon="4.55151">
        <ele>460</ele>
        <time>1970-01-01T02:52:52.000Z</time>
      </trkpt>
      <trkpt lat="45.98312" lon="4.55151">
        <ele>459.6</ele>
        <time>1970-01-01T02:52:53.000Z</time>
      </trkpt>
      <trkpt lat="45.98314" lon="4.5515">
        <ele>459.2</ele>
        <time>1970-01-01T02:52:54.000Z</time>
      </trkpt>
      <trkpt lat="45.98315" lon="4.5515">
        <ele>458.8</ele>
        <time>1970-01-01T02:52:55.000Z</time>
      </trkpt>
      <trkpt lat="45.98317" lon="4.55149">
        <ele>458.6</ele>
        <time>1970-01-01T02:52:56.000Z</time>
      </trkpt>
      <trkpt lat="45.98318" lon="4.55149">
        <ele>458.7</ele>
        <time>1970-01-01T02:52:57.000Z</time>
      </trkpt>
      <trkpt lat="45.9832" lon="4.55148">
        <ele>458.8</ele>
        <time>1970-01-01T02:52:58.000Z</time>
      </trkpt>
      <trkpt lat="45.98321" lon="4.55148">
        <ele>458.9</ele>
        <time>1970-01-01T02:52:59.000Z</time>
      </trkpt>
      <trkpt lat="45.98323" lon="4.55148">
        <ele>459</ele>
        <time>1970-01-01T02:53:00.000Z</time>
      </trkpt>
      <trkpt lat="45.98324" lon="4.55148">
        <ele>459.1</ele>
        <time>1970-01-01T02:53:01.000Z</time>
      </trkpt>
      <trkpt lat="45.98326" lon="4.55148">
        <ele>459.2</ele>
        <time>1970-01-01T02:53:02.000Z</time>
      </trkpt>
      <trkpt lat="45.98327" lon="4.55147">
        <ele>459.4</ele>
        <time>1970-01-01T02:53:03.000Z</time>
      </trkpt>
      <trkpt lat="45.98329" lon="4.55146">
        <ele>459.5</ele>
        <time>1970-01-01T02:53:04.000Z</time>
      </trkpt>
      <trkpt lat="45.9833" lon="4.55146">
        <ele>459.6</ele>
        <time>1970-01-01T02:53:05.000Z</time>
      </trkpt>
      <trkpt lat="45.98331" lon="4.55145">
        <ele>459.7</ele>
        <time>1970-01-01T02:53:06.000Z</time>
      </trkpt>
      <trkpt lat="45.98333" lon="4.55144">
        <ele>459.8</ele>
        <time>1970-01-01T02:53:07.000Z</time>
      </trkpt>
      <trkpt lat="45.98334" lon="4.55144">
        <ele>459.9</ele>
        <time>1970-01-01T02:53:08.000Z</time>
      </trkpt>
      <trkpt lat="45.98336" lon="4.55143">
        <ele>460</ele>
        <time>1970-01-01T02:53:09.000Z</time>
      </trkpt>
      <trkpt lat="45.98336" lon="4.55142">
        <ele>460</ele>
        <time>1970-01-01T02:53:10.000Z</time>
      </trkpt>
      <trkpt lat="45.98337" lon="4.55141">
        <ele>460.1</ele>
        <time>1970-01-01T02:53:11.000Z</time>
      </trkpt>
      <trkpt lat="45.98338" lon="4.5514">
        <ele>460</ele>
        <time>1970-01-01T02:53:12.000Z</time>
      </trkpt>
      <trkpt lat="45.98338" lon="4.55139">
        <ele>460</ele>
        <time>1970-01-01T02:53:13.000Z</time>
      </trkpt>
      <trkpt lat="45.98339" lon="4.55138">
        <ele>460</ele>
        <time>1970-01-01T02:53:14.000Z</time>
      </trkpt>
      <trkpt lat="45.9834" lon="4.55137">
        <ele>460</ele>
        <time>1970-01-01T02:53:15.000Z</time>
      </trkpt>
      <trkpt lat="45.98341" lon="4.55136">
        <ele>459.9</ele>
        <time>1970-01-01T02:53:16.000Z</time>
      </trkpt>
      <trkpt lat="45.98341" lon="4.55135">
        <ele>459.9</ele>
        <time>1970-01-01T02:53:17.000Z</time>
      </trkpt>
      <trkpt lat="45.98342" lon="4.55134">
        <ele>459.9</ele>
        <time>1970-01-01T02:53:18.000Z</time>
      </trkpt>
      <trkpt lat="45.98343" lon="4.55135">
        <ele>459.9</ele>
        <time>1970-01-01T02:53:19.000Z</time>
      </trkpt>
      <trkpt lat="45.98343" lon="4.55136">
        <ele>459.8</ele>
        <time>1970-01-01T02:53:20.000Z</time>
      </trkpt>
      <trkpt lat="45.98344" lon="4.55137">
        <ele>459.8</ele>
        <time>1970-01-01T02:53:21.000Z</time>
      </trkpt>
      <trkpt lat="45.98345" lon="4.55138">
        <ele>459.8</ele>
        <time>1970-01-01T02:53:22.000Z</time>
      </trkpt>
      <trkpt lat="45.98345" lon="4.5514">
        <ele>459.8</ele>
        <time>1970-01-01T02:53:23.000Z</time>
      </trkpt>
      <trkpt lat="45.98346" lon="4.55141">
        <ele>459.7</ele>
        <time>1970-01-01T02:53:24.000Z</time>
      </trkpt>
      <trkpt lat="45.98347" lon="4.55142">
        <ele>459.7</ele>
        <time>1970-01-01T02:53:25.000Z</time>
      </trkpt>
      <trkpt lat="45.98347" lon="4.55143">
        <ele>459.7</ele>
        <time>1970-01-01T02:53:26.000Z</time>
      </trkpt>
      <trkpt lat="45.98348" lon="4.55144">
        <ele>459.6</ele>
        <time>1970-01-01T02:53:27.000Z</time>
      </trkpt>
      <trkpt lat="45.98348" lon="4.55146">
        <ele>459.6</ele>
        <time>1970-01-01T02:53:28.000Z</time>
      </trkpt>
      <trkpt lat="45.98348" lon="4.55147">
        <ele>459.6</ele>
        <time>1970-01-01T02:53:29.000Z</time>
      </trkpt>
      <trkpt lat="45.98348" lon="4.55149">
        <ele>459.5</ele>
        <time>1970-01-01T02:53:30.000Z</time>
      </trkpt>
      <trkpt lat="45.98348" lon="4.55151">
        <ele>459.5</ele>
        <time>1970-01-01T02:53:31.000Z</time>
      </trkpt>
      <trkpt lat="45.98348" lon="4.55153">
        <ele>459.5</ele>
        <time>1970-01-01T02:53:32.000Z</time>
      </trkpt>
      <trkpt lat="45.98348" lon="4.55154">
        <ele>459.4</ele>
        <time>1970-01-01T02:53:33.000Z</time>
      </trkpt>
      <trkpt lat="45.98347" lon="4.55156">
        <ele>459.4</ele>
        <time>1970-01-01T02:53:34.000Z</time>
      </trkpt>
      <trkpt lat="45.98347" lon="4.55158">
        <ele>459.4</ele>
        <time>1970-01-01T02:53:35.000Z</time>
      </trkpt>
      <trkpt lat="45.98347" lon="4.55159">
        <ele>459.3</ele>
        <time>1970-01-01T02:53:36.000Z</time>
      </trkpt>
      <trkpt lat="45.98347" lon="4.55159">
        <ele>459.3</ele>
        <time>1970-01-01T02:53:37.000Z</time>
      </trkpt>
      <trkpt lat="45.98347" lon="4.5516">
        <ele>459.3</ele>
        <time>1970-01-01T02:53:38.000Z</time>
      </trkpt>
      <trkpt lat="45.98346" lon="4.5516">
        <ele>459.3</ele>
        <time>1970-01-01T02:53:39.000Z</time>
      </trkpt>
      <trkpt lat="45.98346" lon="4.55161">
        <ele>459.3</ele>
        <time>1970-01-01T02:53:40.000Z</time>
      </trkpt>
      <trkpt lat="45.98346" lon="4.55161">
        <ele>459.3</ele>
        <time>1970-01-01T02:53:41.000Z</time>
      </trkpt>
      <trkpt lat="45.98346" lon="4.55162">
        <ele>459.3</ele>
        <time>1970-01-01T02:53:42.000Z</time>
      </trkpt>
      <trkpt lat="45.98346" lon="4.55162">
        <ele>459.3</ele>
        <time>1970-01-01T02:53:43.000Z</time>
      </trkpt>
      <trkpt lat="45.98345" lon="4.55163">
        <ele>459.2</ele>
        <time>1970-01-01T02:53:44.000Z</time>
      </trkpt>
      <trkpt lat="45.98345" lon="4.55164">
        <ele>459.2</ele>
        <time>1970-01-01T02:53:45.000Z</time>
      </trkpt>
      <trkpt lat="45.98345" lon="4.55164">
        <ele>459.2</ele>
        <time>1970-01-01T02:53:46.000Z</time>
      </trkpt>
      <trkpt lat="45.98341" lon="4.55171">
        <ele>459</ele>
        <time>1970-01-01T02:53:47.000Z</time>
      </trkpt>
      <trkpt lat="45.98341" lon="4.55173">
        <ele>459</ele>
        <time>1970-01-01T02:53:48.000Z</time>
      </trkpt>
      <trkpt lat="45.9834" lon="4.55174">
        <ele>459</ele>
        <time>1970-01-01T02:53:49.000Z</time>
      </trkpt>
      <trkpt lat="45.98339" lon="4.55175">
        <ele>458.9</ele>
        <time>1970-01-01T02:53:50.000Z</time>
      </trkpt>
      <trkpt lat="45.98338" lon="4.55176">
        <ele>458.9</ele>
        <time>1970-01-01T02:53:51.000Z</time>
      </trkpt>
      <trkpt lat="45.98337" lon="4.55178">
        <ele>458.9</ele>
        <time>1970-01-01T02:53:52.000Z</time>
      </trkpt>
      <trkpt lat="45.98336" lon="4.55179">
        <ele>458.8</ele>
        <time>1970-01-01T02:53:53.000Z</time>
      </trkpt>
      <trkpt lat="45.98334" lon="4.5518">
        <ele>458.8</ele>
        <time>1970-01-01T02:53:54.000Z</time>
      </trkpt>
      <trkpt lat="45.98333" lon="4.55181">
        <ele>458.7</ele>
        <time>1970-01-01T02:53:55.000Z</time>
      </trkpt>
      <trkpt lat="45.98332" lon="4.55182">
        <ele>458.7</ele>
        <time>1970-01-01T02:53:56.000Z</time>
      </trkpt>
      <trkpt lat="45.9833" lon="4.55183">
        <ele>458.6</ele>
        <time>1970-01-01T02:53:57.000Z</time>
      </trkpt>
      <trkpt lat="45.98329" lon="4.55184">
        <ele>458.6</ele>
        <time>1970-01-01T02:53:58.000Z</time>
      </trkpt>
      <trkpt lat="45.98328" lon="4.55185">
        <ele>458</ele>
        <time>1970-01-01T02:53:59.000Z</time>
      </trkpt>
      <trkpt lat="45.98327" lon="4.55187">
        <ele>457.8</ele>
        <time>1970-01-01T02:54:00.000Z</time>
      </trkpt>
      <trkpt lat="45.98326" lon="4.55189">
        <ele>457.7</ele>
        <time>1970-01-01T02:54:01.000Z</time>
      </trkpt>
      <trkpt lat="45.98326" lon="4.5519">
        <ele>457.5</ele>
        <time>1970-01-01T02:54:02.000Z</time>
      </trkpt>
      <trkpt lat="45.98325" lon="4.55192">
        <ele>457.4</ele>
        <time>1970-01-01T02:54:03.000Z</time>
      </trkpt>
      <trkpt lat="45.98324" lon="4.55194">
        <ele>457.2</ele>
        <time>1970-01-01T02:54:04.000Z</time>
      </trkpt>
      <trkpt lat="45.98324" lon="4.55195">
        <ele>457.1</ele>
        <time>1970-01-01T02:54:05.000Z</time>
      </trkpt>
      <trkpt lat="45.98323" lon="4.55197">
        <ele>456.9</ele>
        <time>1970-01-01T02:54:06.000Z</time>
      </trkpt>
      <trkpt lat="45.98322" lon="4.55198">
        <ele>456.8</ele>
        <time>1970-01-01T02:54:07.000Z</time>
      </trkpt>
      <trkpt lat="45.98322" lon="4.55199">
        <ele>456.7</ele>
        <time>1970-01-01T02:54:08.000Z</time>
      </trkpt>
      <trkpt lat="45.98321" lon="4.552">
        <ele>456.6</ele>
        <time>1970-01-01T02:54:09.000Z</time>
      </trkpt>
      <trkpt lat="45.9832" lon="4.55201">
        <ele>456.5</ele>
        <time>1970-01-01T02:54:10.000Z</time>
      </trkpt>
      <trkpt lat="45.9832" lon="4.55202">
        <ele>456.4</ele>
        <time>1970-01-01T02:54:11.000Z</time>
      </trkpt>
      <trkpt lat="45.98319" lon="4.55203">
        <ele>456.3</ele>
        <time>1970-01-01T02:54:12.000Z</time>
      </trkpt>
      <trkpt lat="45.98318" lon="4.55204">
        <ele>456.2</ele>
        <time>1970-01-01T02:54:13.000Z</time>
      </trkpt>
      <trkpt lat="45.98318" lon="4.55205">
        <ele>456.1</ele>
        <time>1970-01-01T02:54:14.000Z</time>
      </trkpt>
      <trkpt lat="45.98317" lon="4.55206">
        <ele>456</ele>
        <time>1970-01-01T02:54:15.000Z</time>
      </trkpt>
      <trkpt lat="45.98316" lon="4.55207">
        <ele>455.9</ele>
        <time>1970-01-01T02:54:16.000Z</time>
      </trkpt>
      <trkpt lat="45.98316" lon="4.55208">
        <ele>455.7</ele>
        <time>1970-01-01T02:54:17.000Z</time>
      </trkpt>
      <trkpt lat="45.98315" lon="4.5521">
        <ele>455.6</ele>
        <time>1970-01-01T02:54:18.000Z</time>
      </trkpt>
      <trkpt lat="45.98314" lon="4.55211">
        <ele>455.5</ele>
        <time>1970-01-01T02:54:19.000Z</time>
      </trkpt>
      <trkpt lat="45.98314" lon="4.55212">
        <ele>455.3</ele>
        <time>1970-01-01T02:54:20.000Z</time>
      </trkpt>
      <trkpt lat="45.98313" lon="4.55214">
        <ele>455.2</ele>
        <time>1970-01-01T02:54:21.000Z</time>
      </trkpt>
      <trkpt lat="45.98312" lon="4.55215">
        <ele>455.1</ele>
        <time>1970-01-01T02:54:22.000Z</time>
      </trkpt>
      <trkpt lat="45.98312" lon="4.55217">
        <ele>454.9</ele>
        <time>1970-01-01T02:54:23.000Z</time>
      </trkpt>
      <trkpt lat="45.98311" lon="4.55218">
        <ele>454.8</ele>
        <time>1970-01-01T02:54:24.000Z</time>
      </trkpt>
      <trkpt lat="45.9831" lon="4.55218">
        <ele>454.7</ele>
        <time>1970-01-01T02:54:25.000Z</time>
      </trkpt>
      <trkpt lat="45.9831" lon="4.55219">
        <ele>454.6</ele>
        <time>1970-01-01T02:54:26.000Z</time>
      </trkpt>
      <trkpt lat="45.98309" lon="4.5522">
        <ele>454.5</ele>
        <time>1970-01-01T02:54:27.000Z</time>
      </trkpt>
      <trkpt lat="45.98309" lon="4.5522">
        <ele>454.5</ele>
        <time>1970-01-01T02:54:28.000Z</time>
      </trkpt>
      <trkpt lat="45.98308" lon="4.55221">
        <ele>454.4</ele>
        <time>1970-01-01T02:54:29.000Z</time>
      </trkpt>
      <trkpt lat="45.98307" lon="4.55221">
        <ele>454.3</ele>
        <time>1970-01-01T02:54:30.000Z</time>
      </trkpt>
      <trkpt lat="45.98307" lon="4.55222">
        <ele>454.2</ele>
        <time>1970-01-01T02:54:31.000Z</time>
      </trkpt>
      <trkpt lat="45.98302" lon="4.55226">
        <ele>453.5</ele>
        <time>1970-01-01T02:54:32.000Z</time>
      </trkpt>
      <trkpt lat="45.98301" lon="4.55227">
        <ele>453.5</ele>
        <time>1970-01-01T02:54:33.000Z</time>
      </trkpt>
      <trkpt lat="45.98301" lon="4.55227">
        <ele>453.4</ele>
        <time>1970-01-01T02:54:34.000Z</time>
      </trkpt>
      <trkpt lat="45.983" lon="4.55228">
        <ele>453.3</ele>
        <time>1970-01-01T02:54:35.000Z</time>
      </trkpt>
      <trkpt lat="45.983" lon="4.55228">
        <ele>453.3</ele>
        <time>1970-01-01T02:54:36.000Z</time>
      </trkpt>
      <trkpt lat="45.98299" lon="4.55229">
        <ele>453.2</ele>
        <time>1970-01-01T02:54:37.000Z</time>
      </trkpt>
      <trkpt lat="45.98298" lon="4.55229">
        <ele>453.1</ele>
        <time>1970-01-01T02:54:38.000Z</time>
      </trkpt>
      <trkpt lat="45.98298" lon="4.55229">
        <ele>453</ele>
        <time>1970-01-01T02:54:39.000Z</time>
      </trkpt>
      <trkpt lat="45.98291" lon="4.55235">
        <ele>452.2</ele>
        <time>1970-01-01T02:54:40.000Z</time>
      </trkpt>
      <trkpt lat="45.9829" lon="4.55236">
        <ele>452</ele>
        <time>1970-01-01T02:54:41.000Z</time>
      </trkpt>
      <trkpt lat="45.98288" lon="4.55237">
        <ele>451.7</ele>
        <time>1970-01-01T02:54:42.000Z</time>
      </trkpt>
      <trkpt lat="45.98286" lon="4.55239">
        <ele>451.5</ele>
        <time>1970-01-01T02:54:43.000Z</time>
      </trkpt>
      <trkpt lat="45.98284" lon="4.5524">
        <ele>451.2</ele>
        <time>1970-01-01T02:54:44.000Z</time>
      </trkpt>
      <trkpt lat="45.98283" lon="4.55241">
        <ele>451.1</ele>
        <time>1970-01-01T02:54:45.000Z</time>
      </trkpt>
      <trkpt lat="45.98282" lon="4.55241">
        <ele>451</ele>
        <time>1970-01-01T02:54:46.000Z</time>
      </trkpt>
      <trkpt lat="45.98281" lon="4.55242">
        <ele>450.9</ele>
        <time>1970-01-01T02:54:47.000Z</time>
      </trkpt>
      <trkpt lat="45.98281" lon="4.55242">
        <ele>450.8</ele>
        <time>1970-01-01T02:54:48.000Z</time>
      </trkpt>
      <trkpt lat="45.9828" lon="4.55243">
        <ele>450.7</ele>
        <time>1970-01-01T02:54:49.000Z</time>
      </trkpt>
      <trkpt lat="45.98279" lon="4.55244">
        <ele>450.6</ele>
        <time>1970-01-01T02:54:50.000Z</time>
      </trkpt>
      <trkpt lat="45.98272" lon="4.55247">
        <ele>449.8</ele>
        <time>1970-01-01T02:54:51.000Z</time>
      </trkpt>
      <trkpt lat="45.9827" lon="4.55247">
        <ele>449.5</ele>
        <time>1970-01-01T02:54:52.000Z</time>
      </trkpt>
      <trkpt lat="45.98267" lon="4.55248">
        <ele>449.2</ele>
        <time>1970-01-01T02:54:53.000Z</time>
      </trkpt>
      <trkpt lat="45.98265" lon="4.55248">
        <ele>449.4</ele>
        <time>1970-01-01T02:54:54.000Z</time>
      </trkpt>
      <trkpt lat="45.98262" lon="4.55247">
        <ele>449.6</ele>
        <time>1970-01-01T02:54:55.000Z</time>
      </trkpt>
      <trkpt lat="45.9826" lon="4.55247">
        <ele>449.8</ele>
        <time>1970-01-01T02:54:56.000Z</time>
      </trkpt>
      <trkpt lat="45.98258" lon="4.55246">
        <ele>450.1</ele>
        <time>1970-01-01T02:54:57.000Z</time>
      </trkpt>
      <trkpt lat="45.98256" lon="4.55246">
        <ele>450.3</ele>
        <time>1970-01-01T02:54:58.000Z</time>
      </trkpt>
      <trkpt lat="45.98255" lon="4.55246">
        <ele>450.4</ele>
        <time>1970-01-01T02:54:59.000Z</time>
      </trkpt>
      <trkpt lat="45.98254" lon="4.55247">
        <ele>450.5</ele>
        <time>1970-01-01T02:55:00.000Z</time>
      </trkpt>
      <trkpt lat="45.98253" lon="4.55247">
        <ele>450.6</ele>
        <time>1970-01-01T02:55:01.000Z</time>
      </trkpt>
      <trkpt lat="45.98252" lon="4.55248">
        <ele>450.7</ele>
        <time>1970-01-01T02:55:02.000Z</time>
      </trkpt>
      <trkpt lat="45.98251" lon="4.55248">
        <ele>450.8</ele>
        <time>1970-01-01T02:55:03.000Z</time>
      </trkpt>
      <trkpt lat="45.98251" lon="4.55249">
        <ele>450.9</ele>
        <time>1970-01-01T02:55:04.000Z</time>
      </trkpt>
      <trkpt lat="45.9825" lon="4.55249">
        <ele>451</ele>
        <time>1970-01-01T02:55:05.000Z</time>
      </trkpt>
      <trkpt lat="45.98249" lon="4.55249">
        <ele>451.1</ele>
        <time>1970-01-01T02:55:06.000Z</time>
      </trkpt>
      <trkpt lat="45.98248" lon="4.5525">
        <ele>451.2</ele>
        <time>1970-01-01T02:55:07.000Z</time>
      </trkpt>
      <trkpt lat="45.98247" lon="4.5525">
        <ele>451.3</ele>
        <time>1970-01-01T02:55:08.000Z</time>
      </trkpt>
      <trkpt lat="45.98246" lon="4.55251">
        <ele>451.5</ele>
        <time>1970-01-01T02:55:09.000Z</time>
      </trkpt>
      <trkpt lat="45.98245" lon="4.55252">
        <ele>451.6</ele>
        <time>1970-01-01T02:55:10.000Z</time>
      </trkpt>
      <trkpt lat="45.98244" lon="4.55252">
        <ele>451.7</ele>
        <time>1970-01-01T02:55:11.000Z</time>
      </trkpt>
      <trkpt lat="45.98243" lon="4.55253">
        <ele>451.9</ele>
        <time>1970-01-01T02:55:12.000Z</time>
      </trkpt>
      <trkpt lat="45.98242" lon="4.55254">
        <ele>452</ele>
        <time>1970-01-01T02:55:13.000Z</time>
      </trkpt>
      <trkpt lat="45.98241" lon="4.55255">
        <ele>452.2</ele>
        <time>1970-01-01T02:55:14.000Z</time>
      </trkpt>
      <trkpt lat="45.9824" lon="4.55255">
        <ele>452.3</ele>
        <time>1970-01-01T02:55:15.000Z</time>
      </trkpt>
      <trkpt lat="45.98239" lon="4.55256">
        <ele>452.5</ele>
        <time>1970-01-01T02:55:16.000Z</time>
      </trkpt>
      <trkpt lat="45.98237" lon="4.55256">
        <ele>452.6</ele>
        <time>1970-01-01T02:55:17.000Z</time>
      </trkpt>
      <trkpt lat="45.98236" lon="4.55256">
        <ele>452.8</ele>
        <time>1970-01-01T02:55:18.000Z</time>
      </trkpt>
      <trkpt lat="45.98235" lon="4.55257">
        <ele>453</ele>
        <time>1970-01-01T02:55:19.000Z</time>
      </trkpt>
      <trkpt lat="45.98234" lon="4.55257">
        <ele>453.2</ele>
        <time>1970-01-01T02:55:20.000Z</time>
      </trkpt>
      <trkpt lat="45.98232" lon="4.55257">
        <ele>453.3</ele>
        <time>1970-01-01T02:55:21.000Z</time>
      </trkpt>
      <trkpt lat="45.98231" lon="4.55257">
        <ele>453.5</ele>
        <time>1970-01-01T02:55:22.000Z</time>
      </trkpt>
      <trkpt lat="45.9823" lon="4.55257">
        <ele>453.7</ele>
        <time>1970-01-01T02:55:23.000Z</time>
      </trkpt>
      <trkpt lat="45.98228" lon="4.55259">
        <ele>453.9</ele>
        <time>1970-01-01T02:55:24.000Z</time>
      </trkpt>
      <trkpt lat="45.98227" lon="4.5526">
        <ele>454.1</ele>
        <time>1970-01-01T02:55:25.000Z</time>
      </trkpt>
      <trkpt lat="45.98226" lon="4.55261">
        <ele>454.3</ele>
        <time>1970-01-01T02:55:26.000Z</time>
      </trkpt>
      <trkpt lat="45.98225" lon="4.55262">
        <ele>454.5</ele>
        <time>1970-01-01T02:55:27.000Z</time>
      </trkpt>
      <trkpt lat="45.98223" lon="4.55264">
        <ele>454.7</ele>
        <time>1970-01-01T02:55:28.000Z</time>
      </trkpt>
      <trkpt lat="45.98222" lon="4.55265">
        <ele>454.9</ele>
        <time>1970-01-01T02:55:29.000Z</time>
      </trkpt>
      <trkpt lat="45.98221" lon="4.55266">
        <ele>455.1</ele>
        <time>1970-01-01T02:55:30.000Z</time>
      </trkpt>
      <trkpt lat="45.98221" lon="4.55267">
        <ele>455.2</ele>
        <time>1970-01-01T02:55:31.000Z</time>
      </trkpt>
      <trkpt lat="45.9822" lon="4.55268">
        <ele>455.3</ele>
        <time>1970-01-01T02:55:32.000Z</time>
      </trkpt>
      <trkpt lat="45.9822" lon="4.55269">
        <ele>455.4</ele>
        <time>1970-01-01T02:55:33.000Z</time>
      </trkpt>
      <trkpt lat="45.98219" lon="4.5527">
        <ele>455.5</ele>
        <time>1970-01-01T02:55:34.000Z</time>
      </trkpt>
      <trkpt lat="45.98219" lon="4.55271">
        <ele>455.7</ele>
        <time>1970-01-01T02:55:35.000Z</time>
      </trkpt>
      <trkpt lat="45.98218" lon="4.55272">
        <ele>455.8</ele>
        <time>1970-01-01T02:55:36.000Z</time>
      </trkpt>
      <trkpt lat="45.98218" lon="4.55273">
        <ele>455.9</ele>
        <time>1970-01-01T02:55:37.000Z</time>
      </trkpt>
      <trkpt lat="45.98217" lon="4.55274">
        <ele>456</ele>
        <time>1970-01-01T02:55:38.000Z</time>
      </trkpt>
      <trkpt lat="45.98217" lon="4.55275">
        <ele>456.1</ele>
        <time>1970-01-01T02:55:39.000Z</time>
      </trkpt>
      <trkpt lat="45.98216" lon="4.55276">
        <ele>456.3</ele>
        <time>1970-01-01T02:55:40.000Z</time>
      </trkpt>
      <trkpt lat="45.98215" lon="4.55277">
        <ele>456.5</ele>
        <time>1970-01-01T02:55:41.000Z</time>
      </trkpt>
      <trkpt lat="45.98214" lon="4.55278">
        <ele>456.7</ele>
        <time>1970-01-01T02:55:42.000Z</time>
      </trkpt>
      <trkpt lat="45.98212" lon="4.55279">
        <ele>456.9</ele>
        <time>1970-01-01T02:55:43.000Z</time>
      </trkpt>
      <trkpt lat="45.98211" lon="4.5528">
        <ele>457.1</ele>
        <time>1970-01-01T02:55:44.000Z</time>
      </trkpt>
      <trkpt lat="45.9821" lon="4.55281">
        <ele>457.3</ele>
        <time>1970-01-01T02:55:45.000Z</time>
      </trkpt>
      <trkpt lat="45.98208" lon="4.55282">
        <ele>457.5</ele>
        <time>1970-01-01T02:55:46.000Z</time>
      </trkpt>
      <trkpt lat="45.98207" lon="4.55283">
        <ele>457.7</ele>
        <time>1970-01-01T02:55:47.000Z</time>
      </trkpt>
      <trkpt lat="45.98206" lon="4.55284">
        <ele>457.8</ele>
        <time>1970-01-01T02:55:48.000Z</time>
      </trkpt>
      <trkpt lat="45.98206" lon="4.55285">
        <ele>457.9</ele>
        <time>1970-01-01T02:55:49.000Z</time>
      </trkpt>
      <trkpt lat="45.98206" lon="4.55286">
        <ele>458</ele>
        <time>1970-01-01T02:55:50.000Z</time>
      </trkpt>
      <trkpt lat="45.98205" lon="4.55287">
        <ele>458.1</ele>
        <time>1970-01-01T02:55:51.000Z</time>
      </trkpt>
      <trkpt lat="45.98205" lon="4.55288">
        <ele>458.2</ele>
        <time>1970-01-01T02:55:52.000Z</time>
      </trkpt>
      <trkpt lat="45.98204" lon="4.5529">
        <ele>458.4</ele>
        <time>1970-01-01T02:55:53.000Z</time>
      </trkpt>
      <trkpt lat="45.98204" lon="4.55291">
        <ele>458.5</ele>
        <time>1970-01-01T02:55:54.000Z</time>
      </trkpt>
      <trkpt lat="45.98204" lon="4.55292">
        <ele>458.6</ele>
        <time>1970-01-01T02:55:55.000Z</time>
      </trkpt>
      <trkpt lat="45.98203" lon="4.55293">
        <ele>458.7</ele>
        <time>1970-01-01T02:55:56.000Z</time>
      </trkpt>
      <trkpt lat="45.98203" lon="4.55294">
        <ele>458.8</ele>
        <time>1970-01-01T02:55:57.000Z</time>
      </trkpt>
      <trkpt lat="45.98202" lon="4.55295">
        <ele>458.9</ele>
        <time>1970-01-01T02:55:58.000Z</time>
      </trkpt>
      <trkpt lat="45.98201" lon="4.55296">
        <ele>459.1</ele>
        <time>1970-01-01T02:55:59.000Z</time>
      </trkpt>
      <trkpt lat="45.982" lon="4.55297">
        <ele>459.3</ele>
        <time>1970-01-01T02:56:00.000Z</time>
      </trkpt>
      <trkpt lat="45.98198" lon="4.55298">
        <ele>459.5</ele>
        <time>1970-01-01T02:56:01.000Z</time>
      </trkpt>
      <trkpt lat="45.98197" lon="4.55299">
        <ele>459.7</ele>
        <time>1970-01-01T02:56:02.000Z</time>
      </trkpt>
      <trkpt lat="45.98195" lon="4.553">
        <ele>459.9</ele>
        <time>1970-01-01T02:56:03.000Z</time>
      </trkpt>
      <trkpt lat="45.98194" lon="4.553">
        <ele>460.1</ele>
        <time>1970-01-01T02:56:04.000Z</time>
      </trkpt>
      <trkpt lat="45.98192" lon="4.55301">
        <ele>460.3</ele>
        <time>1970-01-01T02:56:05.000Z</time>
      </trkpt>
      <trkpt lat="45.98191" lon="4.55301">
        <ele>460.4</ele>
        <time>1970-01-01T02:56:06.000Z</time>
      </trkpt>
      <trkpt lat="45.9819" lon="4.55302">
        <ele>460.6</ele>
        <time>1970-01-01T02:56:07.000Z</time>
      </trkpt>
      <trkpt lat="45.98188" lon="4.55303">
        <ele>460.7</ele>
        <time>1970-01-01T02:56:08.000Z</time>
      </trkpt>
      <trkpt lat="45.98187" lon="4.55303">
        <ele>460.9</ele>
        <time>1970-01-01T02:56:09.000Z</time>
      </trkpt>
      <trkpt lat="45.98186" lon="4.55304">
        <ele>461</ele>
        <time>1970-01-01T02:56:10.000Z</time>
      </trkpt>
      <trkpt lat="45.98184" lon="4.55304">
        <ele>461.2</ele>
        <time>1970-01-01T02:56:11.000Z</time>
      </trkpt>
      <trkpt lat="45.98183" lon="4.55305">
        <ele>461.3</ele>
        <time>1970-01-01T02:56:12.000Z</time>
      </trkpt>
      <trkpt lat="45.98182" lon="4.55306">
        <ele>461.4</ele>
        <time>1970-01-01T02:56:13.000Z</time>
      </trkpt>
      <trkpt lat="45.9818" lon="4.55307">
        <ele>461.6</ele>
        <time>1970-01-01T02:56:14.000Z</time>
      </trkpt>
      <trkpt lat="45.98179" lon="4.55308">
        <ele>461.7</ele>
        <time>1970-01-01T02:56:15.000Z</time>
      </trkpt>
      <trkpt lat="45.98178" lon="4.55309">
        <ele>461.8</ele>
        <time>1970-01-01T02:56:16.000Z</time>
      </trkpt>
      <trkpt lat="45.98176" lon="4.5531">
        <ele>462</ele>
        <time>1970-01-01T02:56:17.000Z</time>
      </trkpt>
      <trkpt lat="45.98175" lon="4.55311">
        <ele>462.1</ele>
        <time>1970-01-01T02:56:18.000Z</time>
      </trkpt>
      <trkpt lat="45.98174" lon="4.55312">
        <ele>462.1</ele>
        <time>1970-01-01T02:56:19.000Z</time>
      </trkpt>
      <trkpt lat="45.98174" lon="4.55312">
        <ele>462.2</ele>
        <time>1970-01-01T02:56:20.000Z</time>
      </trkpt>
      <trkpt lat="45.98173" lon="4.55312">
        <ele>462.3</ele>
        <time>1970-01-01T02:56:21.000Z</time>
      </trkpt>
      <trkpt lat="45.98172" lon="4.55313">
        <ele>462.3</ele>
        <time>1970-01-01T02:56:22.000Z</time>
      </trkpt>
      <trkpt lat="45.98172" lon="4.55313">
        <ele>462.4</ele>
        <time>1970-01-01T02:56:23.000Z</time>
      </trkpt>
      <trkpt lat="45.98171" lon="4.55313">
        <ele>462.4</ele>
        <time>1970-01-01T02:56:24.000Z</time>
      </trkpt>
      <trkpt lat="45.9817" lon="4.55314">
        <ele>462.5</ele>
        <time>1970-01-01T02:56:25.000Z</time>
      </trkpt>
      <trkpt lat="45.98163" lon="4.55316">
        <ele>463</ele>
        <time>1970-01-01T02:56:26.000Z</time>
      </trkpt>
      <trkpt lat="45.98162" lon="4.55316">
        <ele>463.1</ele>
        <time>1970-01-01T02:56:27.000Z</time>
      </trkpt>
      <trkpt lat="45.9816" lon="4.55317">
        <ele>463.2</ele>
        <time>1970-01-01T02:56:28.000Z</time>
      </trkpt>
      <trkpt lat="45.98158" lon="4.55317">
        <ele>463.4</ele>
        <time>1970-01-01T02:56:29.000Z</time>
      </trkpt>
      <trkpt lat="45.98156" lon="4.55318">
        <ele>463.5</ele>
        <time>1970-01-01T02:56:30.000Z</time>
      </trkpt>
      <trkpt lat="45.98155" lon="4.55318">
        <ele>463.6</ele>
        <time>1970-01-01T02:56:31.000Z</time>
      </trkpt>
      <trkpt lat="45.98155" lon="4.55318">
        <ele>463.6</ele>
        <time>1970-01-01T02:56:32.000Z</time>
      </trkpt>
      <trkpt lat="45.98154" lon="4.55319">
        <ele>463.7</ele>
        <time>1970-01-01T02:56:33.000Z</time>
      </trkpt>
      <trkpt lat="45.98153" lon="4.55319">
        <ele>463.7</ele>
        <time>1970-01-01T02:56:34.000Z</time>
      </trkpt>
      <trkpt lat="45.98153" lon="4.55319">
        <ele>463.8</ele>
        <time>1970-01-01T02:56:35.000Z</time>
      </trkpt>
      <trkpt lat="45.98152" lon="4.5532">
        <ele>463.8</ele>
        <time>1970-01-01T02:56:36.000Z</time>
      </trkpt>
      <trkpt lat="45.98152" lon="4.5532">
        <ele>463.9</ele>
        <time>1970-01-01T02:56:37.000Z</time>
      </trkpt>
      <trkpt lat="45.98151" lon="4.5532">
        <ele>463.9</ele>
        <time>1970-01-01T02:56:38.000Z</time>
      </trkpt>
      <trkpt lat="45.98145" lon="4.55323">
        <ele>464.5</ele>
        <time>1970-01-01T02:56:39.000Z</time>
      </trkpt>
      <trkpt lat="45.98144" lon="4.55323">
        <ele>464.5</ele>
        <time>1970-01-01T02:56:40.000Z</time>
      </trkpt>
      <trkpt lat="45.98144" lon="4.55324">
        <ele>464.6</ele>
        <time>1970-01-01T02:56:41.000Z</time>
      </trkpt>
      <trkpt lat="45.98143" lon="4.55324">
        <ele>464.7</ele>
        <time>1970-01-01T02:56:42.000Z</time>
      </trkpt>
      <trkpt lat="45.98142" lon="4.55324">
        <ele>464.7</ele>
        <time>1970-01-01T02:56:43.000Z</time>
      </trkpt>
      <trkpt lat="45.98142" lon="4.55325">
        <ele>464.8</ele>
        <time>1970-01-01T02:56:44.000Z</time>
      </trkpt>
      <trkpt lat="45.98141" lon="4.55325">
        <ele>464.9</ele>
        <time>1970-01-01T02:56:45.000Z</time>
      </trkpt>
      <trkpt lat="45.98135" lon="4.55328">
        <ele>465.5</ele>
        <time>1970-01-01T02:56:46.000Z</time>
      </trkpt>
      <trkpt lat="45.98133" lon="4.55328">
        <ele>465.6</ele>
        <time>1970-01-01T02:56:47.000Z</time>
      </trkpt>
      <trkpt lat="45.98132" lon="4.55329">
        <ele>465.7</ele>
        <time>1970-01-01T02:56:48.000Z</time>
      </trkpt>
      <trkpt lat="45.98131" lon="4.5533">
        <ele>465.8</ele>
        <time>1970-01-01T02:56:49.000Z</time>
      </trkpt>
      <trkpt lat="45.98129" lon="4.5533">
        <ele>466</ele>
        <time>1970-01-01T02:56:50.000Z</time>
      </trkpt>
      <trkpt lat="45.98128" lon="4.55331">
        <ele>466.1</ele>
        <time>1970-01-01T02:56:51.000Z</time>
      </trkpt>
      <trkpt lat="45.98127" lon="4.55331">
        <ele>466.2</ele>
        <time>1970-01-01T02:56:52.000Z</time>
      </trkpt>
      <trkpt lat="45.98125" lon="4.55332">
        <ele>466.3</ele>
        <time>1970-01-01T02:56:53.000Z</time>
      </trkpt>
      <trkpt lat="45.98124" lon="4.55332">
        <ele>466.5</ele>
        <time>1970-01-01T02:56:54.000Z</time>
      </trkpt>
      <trkpt lat="45.98122" lon="4.55333">
        <ele>466.6</ele>
        <time>1970-01-01T02:56:55.000Z</time>
      </trkpt>
      <trkpt lat="45.98121" lon="4.55333">
        <ele>466.7</ele>
        <time>1970-01-01T02:56:56.000Z</time>
      </trkpt>
      <trkpt lat="45.98119" lon="4.55334">
        <ele>466.9</ele>
        <time>1970-01-01T02:56:57.000Z</time>
      </trkpt>
      <trkpt lat="45.98118" lon="4.55334">
        <ele>467</ele>
        <time>1970-01-01T02:56:58.000Z</time>
      </trkpt>
      <trkpt lat="45.98115" lon="4.55335">
        <ele>467.2</ele>
        <time>1970-01-01T02:56:59.000Z</time>
      </trkpt>
      <trkpt lat="45.98113" lon="4.55336">
        <ele>467.4</ele>
        <time>1970-01-01T02:57:00.000Z</time>
      </trkpt>
      <trkpt lat="45.98111" lon="4.55337">
        <ele>467.6</ele>
        <time>1970-01-01T02:57:01.000Z</time>
      </trkpt>
      <trkpt lat="45.98108" lon="4.55338">
        <ele>467.8</ele>
        <time>1970-01-01T02:57:02.000Z</time>
      </trkpt>
      <trkpt lat="45.98107" lon="4.55339">
        <ele>467.9</ele>
        <time>1970-01-01T02:57:03.000Z</time>
      </trkpt>
      <trkpt lat="45.98106" lon="4.55339">
        <ele>468</ele>
        <time>1970-01-01T02:57:04.000Z</time>
      </trkpt>
      <trkpt lat="45.98104" lon="4.55339">
        <ele>468.1</ele>
        <time>1970-01-01T02:57:05.000Z</time>
      </trkpt>
      <trkpt lat="45.98103" lon="4.5534">
        <ele>468.3</ele>
        <time>1970-01-01T02:57:06.000Z</time>
      </trkpt>
      <trkpt lat="45.98101" lon="4.5534">
        <ele>468.4</ele>
        <time>1970-01-01T02:57:07.000Z</time>
      </trkpt>
      <trkpt lat="45.981" lon="4.5534">
        <ele>468.5</ele>
        <time>1970-01-01T02:57:08.000Z</time>
      </trkpt>
      <trkpt lat="45.98099" lon="4.5534">
        <ele>468.7</ele>
        <time>1970-01-01T02:57:09.000Z</time>
      </trkpt>
      <trkpt lat="45.98097" lon="4.5534">
        <ele>468.8</ele>
        <time>1970-01-01T02:57:10.000Z</time>
      </trkpt>
      <trkpt lat="45.98096" lon="4.55339">
        <ele>468.9</ele>
        <time>1970-01-01T02:57:11.000Z</time>
      </trkpt>
      <trkpt lat="45.98095" lon="4.55339">
        <ele>469</ele>
        <time>1970-01-01T02:57:12.000Z</time>
      </trkpt>
      <trkpt lat="45.98094" lon="4.55338">
        <ele>469.1</ele>
        <time>1970-01-01T02:57:13.000Z</time>
      </trkpt>
      <trkpt lat="45.98093" lon="4.55338">
        <ele>469.3</ele>
        <time>1970-01-01T02:57:14.000Z</time>
      </trkpt>
      <trkpt lat="45.98092" lon="4.55337">
        <ele>469.4</ele>
        <time>1970-01-01T02:57:15.000Z</time>
      </trkpt>
      <trkpt lat="45.98091" lon="4.55337">
        <ele>469.5</ele>
        <time>1970-01-01T02:57:16.000Z</time>
      </trkpt>
      <trkpt lat="45.9809" lon="4.55336">
        <ele>469.6</ele>
        <time>1970-01-01T02:57:17.000Z</time>
      </trkpt>
      <trkpt lat="45.98089" lon="4.55335">
        <ele>469.7</ele>
        <time>1970-01-01T02:57:18.000Z</time>
      </trkpt>
      <trkpt lat="45.98088" lon="4.55333">
        <ele>469.8</ele>
        <time>1970-01-01T02:57:19.000Z</time>
      </trkpt>
      <trkpt lat="45.98088" lon="4.55331">
        <ele>470</ele>
        <time>1970-01-01T02:57:20.000Z</time>
      </trkpt>
      <trkpt lat="45.98087" lon="4.5533">
        <ele>470.1</ele>
        <time>1970-01-01T02:57:21.000Z</time>
      </trkpt>
      <trkpt lat="45.98086" lon="4.55328">
        <ele>470.2</ele>
        <time>1970-01-01T02:57:22.000Z</time>
      </trkpt>
      <trkpt lat="45.98085" lon="4.55327">
        <ele>470.3</ele>
        <time>1970-01-01T02:57:23.000Z</time>
      </trkpt>
      <trkpt lat="45.98085" lon="4.55325">
        <ele>470.4</ele>
        <time>1970-01-01T02:57:24.000Z</time>
      </trkpt>
      <trkpt lat="45.98084" lon="4.55324">
        <ele>470.5</ele>
        <time>1970-01-01T02:57:25.000Z</time>
      </trkpt>
      <trkpt lat="45.98084" lon="4.55323">
        <ele>470.6</ele>
        <time>1970-01-01T02:57:26.000Z</time>
      </trkpt>
      <trkpt lat="45.98083" lon="4.55321">
        <ele>470.7</ele>
        <time>1970-01-01T02:57:27.000Z</time>
      </trkpt>
      <trkpt lat="45.98083" lon="4.5532">
        <ele>470.8</ele>
        <time>1970-01-01T02:57:28.000Z</time>
      </trkpt>
      <trkpt lat="45.98082" lon="4.55319">
        <ele>470.9</ele>
        <time>1970-01-01T02:57:29.000Z</time>
      </trkpt>
      <trkpt lat="45.98079" lon="4.55311">
        <ele>471.4</ele>
        <time>1970-01-01T02:57:30.000Z</time>
      </trkpt>
      <trkpt lat="45.98079" lon="4.55309">
        <ele>471.5</ele>
        <time>1970-01-01T02:57:31.000Z</time>
      </trkpt>
      <trkpt lat="45.98079" lon="4.55307">
        <ele>471.6</ele>
        <time>1970-01-01T02:57:32.000Z</time>
      </trkpt>
      <trkpt lat="45.98079" lon="4.55306">
        <ele>471.7</ele>
        <time>1970-01-01T02:57:33.000Z</time>
      </trkpt>
      <trkpt lat="45.98079" lon="4.55304">
        <ele>471.8</ele>
        <time>1970-01-01T02:57:34.000Z</time>
      </trkpt>
      <trkpt lat="45.98078" lon="4.55302">
        <ele>472</ele>
        <time>1970-01-01T02:57:35.000Z</time>
      </trkpt>
      <trkpt lat="45.98078" lon="4.553">
        <ele>472.1</ele>
        <time>1970-01-01T02:57:36.000Z</time>
      </trkpt>
      <trkpt lat="45.98078" lon="4.55298">
        <ele>472.2</ele>
        <time>1970-01-01T02:57:37.000Z</time>
      </trkpt>
      <trkpt lat="45.98078" lon="4.55296">
        <ele>472.3</ele>
        <time>1970-01-01T02:57:38.000Z</time>
      </trkpt>
      <trkpt lat="45.98078" lon="4.55294">
        <ele>472.5</ele>
        <time>1970-01-01T02:57:39.000Z</time>
      </trkpt>
      <trkpt lat="45.98078" lon="4.55292">
        <ele>472.6</ele>
        <time>1970-01-01T02:57:40.000Z</time>
      </trkpt>
      <trkpt lat="45.98078" lon="4.5529">
        <ele>472.7</ele>
        <time>1970-01-01T02:57:41.000Z</time>
      </trkpt>
      <trkpt lat="45.98078" lon="4.55288">
        <ele>472.9</ele>
        <time>1970-01-01T02:57:42.000Z</time>
      </trkpt>
      <trkpt lat="45.98078" lon="4.55285">
        <ele>473</ele>
        <time>1970-01-01T02:57:43.000Z</time>
      </trkpt>
      <trkpt lat="45.98078" lon="4.55284">
        <ele>473.1</ele>
        <time>1970-01-01T02:57:44.000Z</time>
      </trkpt>
      <trkpt lat="45.98077" lon="4.55282">
        <ele>473.2</ele>
        <time>1970-01-01T02:57:45.000Z</time>
      </trkpt>
      <trkpt lat="45.98076" lon="4.5528">
        <ele>473.4</ele>
        <time>1970-01-01T02:57:46.000Z</time>
      </trkpt>
      <trkpt lat="45.98076" lon="4.55279">
        <ele>473.5</ele>
        <time>1970-01-01T02:57:47.000Z</time>
      </trkpt>
      <trkpt lat="45.98075" lon="4.55277">
        <ele>473.6</ele>
        <time>1970-01-01T02:57:48.000Z</time>
      </trkpt>
      <trkpt lat="45.98074" lon="4.55275">
        <ele>473.7</ele>
        <time>1970-01-01T02:57:49.000Z</time>
      </trkpt>
      <trkpt lat="45.98074" lon="4.55273">
        <ele>473.8</ele>
        <time>1970-01-01T02:57:50.000Z</time>
      </trkpt>
      <trkpt lat="45.98073" lon="4.55272">
        <ele>473.9</ele>
        <time>1970-01-01T02:57:51.000Z</time>
      </trkpt>
      <trkpt lat="45.98072" lon="4.55271">
        <ele>474</ele>
        <time>1970-01-01T02:57:52.000Z</time>
      </trkpt>
      <trkpt lat="45.98072" lon="4.55269">
        <ele>474.1</ele>
        <time>1970-01-01T02:57:53.000Z</time>
      </trkpt>
      <trkpt lat="45.98071" lon="4.55268">
        <ele>474.2</ele>
        <time>1970-01-01T02:57:54.000Z</time>
      </trkpt>
      <trkpt lat="45.9807" lon="4.55266">
        <ele>474.3</ele>
        <time>1970-01-01T02:57:55.000Z</time>
      </trkpt>
      <trkpt lat="45.9807" lon="4.55265">
        <ele>474.4</ele>
        <time>1970-01-01T02:57:56.000Z</time>
      </trkpt>
      <trkpt lat="45.98069" lon="4.55264">
        <ele>474.5</ele>
        <time>1970-01-01T02:57:57.000Z</time>
      </trkpt>
      <trkpt lat="45.98068" lon="4.55262">
        <ele>474.6</ele>
        <time>1970-01-01T02:57:58.000Z</time>
      </trkpt>
      <trkpt lat="45.98068" lon="4.55261">
        <ele>474.7</ele>
        <time>1970-01-01T02:57:59.000Z</time>
      </trkpt>
      <trkpt lat="45.98067" lon="4.55259">
        <ele>474.8</ele>
        <time>1970-01-01T02:58:00.000Z</time>
      </trkpt>
      <trkpt lat="45.98066" lon="4.55258">
        <ele>474.9</ele>
        <time>1970-01-01T02:58:01.000Z</time>
      </trkpt>
      <trkpt lat="45.98065" lon="4.55256">
        <ele>475.1</ele>
        <time>1970-01-01T02:58:02.000Z</time>
      </trkpt>
      <trkpt lat="45.98064" lon="4.55255">
        <ele>475.2</ele>
        <time>1970-01-01T02:58:03.000Z</time>
      </trkpt>
      <trkpt lat="45.98064" lon="4.55253">
        <ele>475.3</ele>
        <time>1970-01-01T02:58:04.000Z</time>
      </trkpt>
      <trkpt lat="45.98063" lon="4.55252">
        <ele>475.4</ele>
        <time>1970-01-01T02:58:05.000Z</time>
      </trkpt>
      <trkpt lat="45.98062" lon="4.5525">
        <ele>475.5</ele>
        <time>1970-01-01T02:58:06.000Z</time>
      </trkpt>
      <trkpt lat="45.98061" lon="4.55249">
        <ele>475.6</ele>
        <time>1970-01-01T02:58:07.000Z</time>
      </trkpt>
      <trkpt lat="45.9806" lon="4.55247">
        <ele>475.7</ele>
        <time>1970-01-01T02:58:08.000Z</time>
      </trkpt>
      <trkpt lat="45.98059" lon="4.55246">
        <ele>475.8</ele>
        <time>1970-01-01T02:58:09.000Z</time>
      </trkpt>
      <trkpt lat="45.98059" lon="4.55244">
        <ele>475.9</ele>
        <time>1970-01-01T02:58:10.000Z</time>
      </trkpt>
      <trkpt lat="45.98058" lon="4.55243">
        <ele>476</ele>
        <time>1970-01-01T02:58:11.000Z</time>
      </trkpt>
      <trkpt lat="45.98057" lon="4.55242">
        <ele>476.2</ele>
        <time>1970-01-01T02:58:12.000Z</time>
      </trkpt>
      <trkpt lat="45.98056" lon="4.5524">
        <ele>476.3</ele>
        <time>1970-01-01T02:58:13.000Z</time>
      </trkpt>
      <trkpt lat="45.98055" lon="4.55239">
        <ele>476.4</ele>
        <time>1970-01-01T02:58:14.000Z</time>
      </trkpt>
      <trkpt lat="45.98055" lon="4.55237">
        <ele>476.5</ele>
        <time>1970-01-01T02:58:15.000Z</time>
      </trkpt>
      <trkpt lat="45.98054" lon="4.55236">
        <ele>476.6</ele>
        <time>1970-01-01T02:58:16.000Z</time>
      </trkpt>
      <trkpt lat="45.98053" lon="4.55235">
        <ele>476.8</ele>
        <time>1970-01-01T02:58:17.000Z</time>
      </trkpt>
      <trkpt lat="45.98052" lon="4.55233">
        <ele>476.9</ele>
        <time>1970-01-01T02:58:18.000Z</time>
      </trkpt>
      <trkpt lat="45.98051" lon="4.55232">
        <ele>477</ele>
        <time>1970-01-01T02:58:19.000Z</time>
      </trkpt>
      <trkpt lat="45.9805" lon="4.5523">
        <ele>477.1</ele>
        <time>1970-01-01T02:58:20.000Z</time>
      </trkpt>
      <trkpt lat="45.98049" lon="4.55229">
        <ele>477.3</ele>
        <time>1970-01-01T02:58:21.000Z</time>
      </trkpt>
      <trkpt lat="45.98048" lon="4.55228">
        <ele>477.4</ele>
        <time>1970-01-01T02:58:22.000Z</time>
      </trkpt>
      <trkpt lat="45.98048" lon="4.55228">
        <ele>477.4</ele>
        <time>1970-01-01T02:58:23.000Z</time>
      </trkpt>
      <trkpt lat="45.98047" lon="4.55227">
        <ele>477.5</ele>
        <time>1970-01-01T02:58:24.000Z</time>
      </trkpt>
      <trkpt lat="45.98046" lon="4.55227">
        <ele>477.6</ele>
        <time>1970-01-01T02:58:25.000Z</time>
      </trkpt>
      <trkpt lat="45.98046" lon="4.55226">
        <ele>477.7</ele>
        <time>1970-01-01T02:58:26.000Z</time>
      </trkpt>
      <trkpt lat="45.98045" lon="4.55225">
        <ele>477.8</ele>
        <time>1970-01-01T02:58:27.000Z</time>
      </trkpt>
      <trkpt lat="45.98044" lon="4.55225">
        <ele>477.8</ele>
        <time>1970-01-01T02:58:28.000Z</time>
      </trkpt>
      <trkpt lat="45.98039" lon="4.5522">
        <ele>478.5</ele>
        <time>1970-01-01T02:58:29.000Z</time>
      </trkpt>
      <trkpt lat="45.98038" lon="4.55219">
        <ele>478.6</ele>
        <time>1970-01-01T02:58:30.000Z</time>
      </trkpt>
      <trkpt lat="45.98038" lon="4.55218">
        <ele>478.7</ele>
        <time>1970-01-01T02:58:31.000Z</time>
      </trkpt>
      <trkpt lat="45.98037" lon="4.55217">
        <ele>478.8</ele>
        <time>1970-01-01T02:58:32.000Z</time>
      </trkpt>
      <trkpt lat="45.98036" lon="4.55217">
        <ele>478.9</ele>
        <time>1970-01-01T02:58:33.000Z</time>
      </trkpt>
      <trkpt lat="45.98036" lon="4.55216">
        <ele>479</ele>
        <time>1970-01-01T02:58:34.000Z</time>
      </trkpt>
      <trkpt lat="45.98031" lon="4.5521">
        <ele>479.6</ele>
        <time>1970-01-01T02:58:35.000Z</time>
      </trkpt>
      <trkpt lat="45.98031" lon="4.55209">
        <ele>479.7</ele>
        <time>1970-01-01T02:58:36.000Z</time>
      </trkpt>
      <trkpt lat="45.9803" lon="4.55207">
        <ele>479.8</ele>
        <time>1970-01-01T02:58:37.000Z</time>
      </trkpt>
      <trkpt lat="45.9803" lon="4.55206">
        <ele>479.9</ele>
        <time>1970-01-01T02:58:38.000Z</time>
      </trkpt>
      <trkpt lat="45.98029" lon="4.55205">
        <ele>480</ele>
        <time>1970-01-01T02:58:39.000Z</time>
      </trkpt>
      <trkpt lat="45.98028" lon="4.55204">
        <ele>480.1</ele>
        <time>1970-01-01T02:58:40.000Z</time>
      </trkpt>
      <trkpt lat="45.98028" lon="4.55203">
        <ele>480.2</ele>
        <time>1970-01-01T02:58:41.000Z</time>
      </trkpt>
      <trkpt lat="45.98027" lon="4.55202">
        <ele>480.4</ele>
        <time>1970-01-01T02:58:42.000Z</time>
      </trkpt>
      <trkpt lat="45.98027" lon="4.55201">
        <ele>480.5</ele>
        <time>1970-01-01T02:58:43.000Z</time>
      </trkpt>
      <trkpt lat="45.98026" lon="4.552">
        <ele>480.6</ele>
        <time>1970-01-01T02:58:44.000Z</time>
      </trkpt>
      <trkpt lat="45.98025" lon="4.55199">
        <ele>480.8</ele>
        <time>1970-01-01T02:58:45.000Z</time>
      </trkpt>
      <trkpt lat="45.98024" lon="4.55198">
        <ele>481</ele>
        <time>1970-01-01T02:58:46.000Z</time>
      </trkpt>
      <trkpt lat="45.98023" lon="4.55197">
        <ele>481.1</ele>
        <time>1970-01-01T02:58:47.000Z</time>
      </trkpt>
      <trkpt lat="45.98022" lon="4.55195">
        <ele>481.3</ele>
        <time>1970-01-01T02:58:48.000Z</time>
      </trkpt>
      <trkpt lat="45.9802" lon="4.55194">
        <ele>481.5</ele>
        <time>1970-01-01T02:58:49.000Z</time>
      </trkpt>
      <trkpt lat="45.98019" lon="4.55193">
        <ele>481.7</ele>
        <time>1970-01-01T02:58:50.000Z</time>
      </trkpt>
      <trkpt lat="45.98018" lon="4.55192">
        <ele>481.9</ele>
        <time>1970-01-01T02:58:51.000Z</time>
      </trkpt>
      <trkpt lat="45.98018" lon="4.5519">
        <ele>482.1</ele>
        <time>1970-01-01T02:58:52.000Z</time>
      </trkpt>
      <trkpt lat="45.98017" lon="4.55189">
        <ele>482.2</ele>
        <time>1970-01-01T02:58:53.000Z</time>
      </trkpt>
      <trkpt lat="45.98016" lon="4.55188">
        <ele>482.4</ele>
        <time>1970-01-01T02:58:54.000Z</time>
      </trkpt>
      <trkpt lat="45.98016" lon="4.55186">
        <ele>482.5</ele>
        <time>1970-01-01T02:58:55.000Z</time>
      </trkpt>
      <trkpt lat="45.98015" lon="4.55185">
        <ele>482.7</ele>
        <time>1970-01-01T02:58:56.000Z</time>
      </trkpt>
      <trkpt lat="45.98015" lon="4.55184">
        <ele>482.9</ele>
        <time>1970-01-01T02:58:57.000Z</time>
      </trkpt>
      <trkpt lat="45.98014" lon="4.55182">
        <ele>483</ele>
        <time>1970-01-01T02:58:58.000Z</time>
      </trkpt>
      <trkpt lat="45.98013" lon="4.55181">
        <ele>483.2</ele>
        <time>1970-01-01T02:58:59.000Z</time>
      </trkpt>
      <trkpt lat="45.98013" lon="4.5518">
        <ele>483.4</ele>
        <time>1970-01-01T02:59:00.000Z</time>
      </trkpt>
      <trkpt lat="45.98012" lon="4.55178">
        <ele>483.5</ele>
        <time>1970-01-01T02:59:01.000Z</time>
      </trkpt>
      <trkpt lat="45.98012" lon="4.55177">
        <ele>483.6</ele>
        <time>1970-01-01T02:59:02.000Z</time>
      </trkpt>
      <trkpt lat="45.98011" lon="4.55176">
        <ele>483.8</ele>
        <time>1970-01-01T02:59:03.000Z</time>
      </trkpt>
      <trkpt lat="45.98011" lon="4.55174">
        <ele>483.9</ele>
        <time>1970-01-01T02:59:04.000Z</time>
      </trkpt>
      <trkpt lat="45.9801" lon="4.55173">
        <ele>484.1</ele>
        <time>1970-01-01T02:59:05.000Z</time>
      </trkpt>
      <trkpt lat="45.9801" lon="4.55172">
        <ele>484.2</ele>
        <time>1970-01-01T02:59:06.000Z</time>
      </trkpt>
      <trkpt lat="45.98009" lon="4.5517">
        <ele>484.3</ele>
        <time>1970-01-01T02:59:07.000Z</time>
      </trkpt>
      <trkpt lat="45.98009" lon="4.55169">
        <ele>484.4</ele>
        <time>1970-01-01T02:59:08.000Z</time>
      </trkpt>
      <trkpt lat="45.98009" lon="4.5517">
        <ele>484.5</ele>
        <time>1970-01-01T02:59:09.000Z</time>
      </trkpt>
      <trkpt lat="45.98009" lon="4.5517">
        <ele>484.5</ele>
        <time>1970-01-01T02:59:10.000Z</time>
      </trkpt>
      <trkpt lat="45.98009" lon="4.55171">
        <ele>484.6</ele>
        <time>1970-01-01T02:59:11.000Z</time>
      </trkpt>
      <trkpt lat="45.98008" lon="4.55171">
        <ele>484.6</ele>
        <time>1970-01-01T02:59:12.000Z</time>
      </trkpt>
      <trkpt lat="45.98008" lon="4.55172">
        <ele>484.7</ele>
        <time>1970-01-01T02:59:13.000Z</time>
      </trkpt>
      <trkpt lat="45.98008" lon="4.55172">
        <ele>484.7</ele>
        <time>1970-01-01T02:59:14.000Z</time>
      </trkpt>
      <trkpt lat="45.98008" lon="4.55173">
        <ele>484.8</ele>
        <time>1970-01-01T02:59:15.000Z</time>
      </trkpt>
      <trkpt lat="45.98008" lon="4.55174">
        <ele>484.8</ele>
        <time>1970-01-01T02:59:16.000Z</time>
      </trkpt>
      <trkpt lat="45.98008" lon="4.55174">
        <ele>484.9</ele>
        <time>1970-01-01T02:59:17.000Z</time>
      </trkpt>
      <trkpt lat="45.98008" lon="4.55175">
        <ele>484.9</ele>
        <time>1970-01-01T02:59:18.000Z</time>
      </trkpt>
      <trkpt lat="45.98008" lon="4.55175">
        <ele>485</ele>
        <time>1970-01-01T02:59:19.000Z</time>
      </trkpt>
      <trkpt lat="45.98008" lon="4.55176">
        <ele>485</ele>
        <time>1970-01-01T02:59:20.000Z</time>
      </trkpt>
      <trkpt lat="45.98008" lon="4.55176">
        <ele>485.1</ele>
        <time>1970-01-01T02:59:21.000Z</time>
      </trkpt>
      <trkpt lat="45.98008" lon="4.55177">
        <ele>485.1</ele>
        <time>1970-01-01T02:59:22.000Z</time>
      </trkpt>
      <trkpt lat="45.98008" lon="4.55178">
        <ele>485.1</ele>
        <time>1970-01-01T02:59:23.000Z</time>
      </trkpt>
      <trkpt lat="45.98008" lon="4.55178">
        <ele>485.2</ele>
        <time>1970-01-01T02:59:24.000Z</time>
      </trkpt>
      <trkpt lat="45.98008" lon="4.55179">
        <ele>485.2</ele>
        <time>1970-01-01T02:59:25.000Z</time>
      </trkpt>
      <trkpt lat="45.98008" lon="4.55179">
        <ele>485.3</ele>
        <time>1970-01-01T02:59:26.000Z</time>
      </trkpt>
      <trkpt lat="45.98008" lon="4.5518">
        <ele>485.4</ele>
        <time>1970-01-01T02:59:27.000Z</time>
      </trkpt>
      <trkpt lat="45.98008" lon="4.5518">
        <ele>485.4</ele>
        <time>1970-01-01T02:59:28.000Z</time>
      </trkpt>
      <trkpt lat="45.98008" lon="4.55181">
        <ele>485.5</ele>
        <time>1970-01-01T02:59:29.000Z</time>
      </trkpt>
      <trkpt lat="45.98008" lon="4.55182">
        <ele>485.5</ele>
        <time>1970-01-01T02:59:30.000Z</time>
      </trkpt>
      <trkpt lat="45.98008" lon="4.55182">
        <ele>485.6</ele>
        <time>1970-01-01T02:59:31.000Z</time>
      </trkpt>
      <trkpt lat="45.98008" lon="4.55183">
        <ele>485.6</ele>
        <time>1970-01-01T02:59:32.000Z</time>
      </trkpt>
      <trkpt lat="45.98008" lon="4.55183">
        <ele>485.7</ele>
        <time>1970-01-01T02:59:33.000Z</time>
      </trkpt>
      <trkpt lat="45.98008" lon="4.55185">
        <ele>485.9</ele>
        <time>1970-01-01T02:59:34.000Z</time>
      </trkpt>
      <trkpt lat="45.98008" lon="4.55188">
        <ele>486.1</ele>
        <time>1970-01-01T02:59:35.000Z</time>
      </trkpt>
      <trkpt lat="45.98008" lon="4.5519">
        <ele>486.3</ele>
        <time>1970-01-01T02:59:36.000Z</time>
      </trkpt>
      <trkpt lat="45.98008" lon="4.55192">
        <ele>486.5</ele>
        <time>1970-01-01T02:59:37.000Z</time>
      </trkpt>
      <trkpt lat="45.98008" lon="4.55194">
        <ele>486.8</ele>
        <time>1970-01-01T02:59:38.000Z</time>
      </trkpt>
      <trkpt lat="45.98008" lon="4.55197">
        <ele>487</ele>
        <time>1970-01-01T02:59:39.000Z</time>
      </trkpt>
      <trkpt lat="45.98008" lon="4.55199">
        <ele>487.3</ele>
        <time>1970-01-01T02:59:40.000Z</time>
      </trkpt>
      <trkpt lat="45.98008" lon="4.552">
        <ele>487.5</ele>
        <time>1970-01-01T02:59:41.000Z</time>
      </trkpt>
      <trkpt lat="45.98008" lon="4.55202">
        <ele>487.7</ele>
        <time>1970-01-01T02:59:42.000Z</time>
      </trkpt>
      <trkpt lat="45.98008" lon="4.55204">
        <ele>487.8</ele>
        <time>1970-01-01T02:59:43.000Z</time>
      </trkpt>
      <trkpt lat="45.98008" lon="4.55206">
        <ele>487.9</ele>
        <time>1970-01-01T02:59:44.000Z</time>
      </trkpt>
      <trkpt lat="45.98007" lon="4.55208">
        <ele>488.1</ele>
        <time>1970-01-01T02:59:45.000Z</time>
      </trkpt>
      <trkpt lat="45.98007" lon="4.5521">
        <ele>488.2</ele>
        <time>1970-01-01T02:59:46.000Z</time>
      </trkpt>
      <trkpt lat="45.98007" lon="4.55211">
        <ele>488.3</ele>
        <time>1970-01-01T02:59:47.000Z</time>
      </trkpt>
      <trkpt lat="45.98007" lon="4.55212">
        <ele>488.4</ele>
        <time>1970-01-01T02:59:48.000Z</time>
      </trkpt>
      <trkpt lat="45.98007" lon="4.55213">
        <ele>488.4</ele>
        <time>1970-01-01T02:59:49.000Z</time>
      </trkpt>
      <trkpt lat="45.98007" lon="4.55214">
        <ele>488.5</ele>
        <time>1970-01-01T02:59:50.000Z</time>
      </trkpt>
      <trkpt lat="45.98007" lon="4.55215">
        <ele>488.6</ele>
        <time>1970-01-01T02:59:51.000Z</time>
      </trkpt>
      <trkpt lat="45.98007" lon="4.55216">
        <ele>488.7</ele>
        <time>1970-01-01T02:59:52.000Z</time>
      </trkpt>
      <trkpt lat="45.98007" lon="4.55217">
        <ele>488.8</ele>
        <time>1970-01-01T02:59:53.000Z</time>
      </trkpt>
      <trkpt lat="45.98007" lon="4.55219">
        <ele>488.8</ele>
        <time>1970-01-01T02:59:54.000Z</time>
      </trkpt>
      <trkpt lat="45.98007" lon="4.5522">
        <ele>488.9</ele>
        <time>1970-01-01T02:59:55.000Z</time>
      </trkpt>
      <trkpt lat="45.98007" lon="4.55221">
        <ele>489</ele>
        <time>1970-01-01T02:59:56.000Z</time>
      </trkpt>
      <trkpt lat="45.98007" lon="4.55222">
        <ele>489.1</ele>
        <time>1970-01-01T02:59:57.000Z</time>
      </trkpt>
      <trkpt lat="45.98007" lon="4.55223">
        <ele>489.2</ele>
        <time>1970-01-01T02:59:58.000Z</time>
      </trkpt>
      <trkpt lat="45.98007" lon="4.55224">
        <ele>489.2</ele>
        <time>1970-01-01T02:59:59.000Z</time>
      </trkpt>
      <trkpt lat="45.98007" lon="4.55225">
        <ele>489.3</ele>
        <time>1970-01-01T03:00:00.000Z</time>
      </trkpt>
      <trkpt lat="45.98007" lon="4.55226">
        <ele>489.4</ele>
        <time>1970-01-01T03:00:01.000Z</time>
      </trkpt>
      <trkpt lat="45.98006" lon="4.55227">
        <ele>489.5</ele>
        <time>1970-01-01T03:00:03.000Z</time>
      </trkpt>
      <trkpt lat="45.98006" lon="4.55228">
        <ele>489.5</ele>
        <time>1970-01-01T03:00:04.000Z</time>
      </trkpt>
      <trkpt lat="45.98006" lon="4.55229">
        <ele>489.6</ele>
        <time>1970-01-01T03:00:05.000Z</time>
      </trkpt>
      <trkpt lat="45.98006" lon="4.5523">
        <ele>489.7</ele>
        <time>1970-01-01T03:00:06.000Z</time>
      </trkpt>
      <trkpt lat="45.98004" lon="4.55238">
        <ele>490.3</ele>
        <time>1970-01-01T03:00:07.000Z</time>
      </trkpt>
      <trkpt lat="45.98004" lon="4.55239">
        <ele>490.4</ele>
        <time>1970-01-01T03:00:08.000Z</time>
      </trkpt>
      <trkpt lat="45.98004" lon="4.55241">
        <ele>490.4</ele>
        <time>1970-01-01T03:00:09.000Z</time>
      </trkpt>
      <trkpt lat="45.98004" lon="4.55242">
        <ele>490.5</ele>
        <time>1970-01-01T03:00:10.000Z</time>
      </trkpt>
      <trkpt lat="45.98004" lon="4.55243">
        <ele>490.6</ele>
        <time>1970-01-01T03:00:11.000Z</time>
      </trkpt>
      <trkpt lat="45.98004" lon="4.55244">
        <ele>490.7</ele>
        <time>1970-01-01T03:00:12.000Z</time>
      </trkpt>
      <trkpt lat="45.98004" lon="4.55245">
        <ele>490.8</ele>
        <time>1970-01-01T03:00:13.000Z</time>
      </trkpt>
      <trkpt lat="45.98004" lon="4.55246">
        <ele>490.8</ele>
        <time>1970-01-01T03:00:14.000Z</time>
      </trkpt>
      <trkpt lat="45.98004" lon="4.55248">
        <ele>490.9</ele>
        <time>1970-01-01T03:00:15.000Z</time>
      </trkpt>
      <trkpt lat="45.98005" lon="4.55249">
        <ele>491</ele>
        <time>1970-01-01T03:00:16.000Z</time>
      </trkpt>
      <trkpt lat="45.98005" lon="4.5525">
        <ele>491.1</ele>
        <time>1970-01-01T03:00:17.000Z</time>
      </trkpt>
      <trkpt lat="45.98003" lon="4.55252">
        <ele>491.3</ele>
        <time>1970-01-01T03:00:18.000Z</time>
      </trkpt>
      <trkpt lat="45.98002" lon="4.55254">
        <ele>491.5</ele>
        <time>1970-01-01T03:00:19.000Z</time>
      </trkpt>
      <trkpt lat="45.98" lon="4.55256">
        <ele>491.7</ele>
        <time>1970-01-01T03:00:20.000Z</time>
      </trkpt>
      <trkpt lat="45.97999" lon="4.55258">
        <ele>491.8</ele>
        <time>1970-01-01T03:00:21.000Z</time>
      </trkpt>
      <trkpt lat="45.97998" lon="4.55259">
        <ele>492</ele>
        <time>1970-01-01T03:00:22.000Z</time>
      </trkpt>
      <trkpt lat="45.97997" lon="4.5526">
        <ele>492.1</ele>
        <time>1970-01-01T03:00:23.000Z</time>
      </trkpt>
      <trkpt lat="45.97996" lon="4.55261">
        <ele>492.2</ele>
        <time>1970-01-01T03:00:24.000Z</time>
      </trkpt>
      <trkpt lat="45.97995" lon="4.55262">
        <ele>492.3</ele>
        <time>1970-01-01T03:00:25.000Z</time>
      </trkpt>
      <trkpt lat="45.97994" lon="4.55263">
        <ele>492.4</ele>
        <time>1970-01-01T03:00:26.000Z</time>
      </trkpt>
      <trkpt lat="45.97994" lon="4.55264">
        <ele>492.5</ele>
        <time>1970-01-01T03:00:27.000Z</time>
      </trkpt>
      <trkpt lat="45.97993" lon="4.55265">
        <ele>492.6</ele>
        <time>1970-01-01T03:00:28.000Z</time>
      </trkpt>
      <trkpt lat="45.97992" lon="4.55266">
        <ele>492.7</ele>
        <time>1970-01-01T03:00:29.000Z</time>
      </trkpt>
      <trkpt lat="45.97991" lon="4.55267">
        <ele>492.8</ele>
        <time>1970-01-01T03:00:30.000Z</time>
      </trkpt>
      <trkpt lat="45.9799" lon="4.55268">
        <ele>493</ele>
        <time>1970-01-01T03:00:31.000Z</time>
      </trkpt>
      <trkpt lat="45.9799" lon="4.55269">
        <ele>493.1</ele>
        <time>1970-01-01T03:00:32.000Z</time>
      </trkpt>
      <trkpt lat="45.97989" lon="4.5527">
        <ele>493.2</ele>
        <time>1970-01-01T03:00:33.000Z</time>
      </trkpt>
      <trkpt lat="45.97989" lon="4.55271">
        <ele>493.3</ele>
        <time>1970-01-01T03:00:34.000Z</time>
      </trkpt>
      <trkpt lat="45.97988" lon="4.55272">
        <ele>493.4</ele>
        <time>1970-01-01T03:00:35.000Z</time>
      </trkpt>
      <trkpt lat="45.97988" lon="4.55273">
        <ele>493.5</ele>
        <time>1970-01-01T03:00:36.000Z</time>
      </trkpt>
      <trkpt lat="45.97987" lon="4.55274">
        <ele>493.6</ele>
        <time>1970-01-01T03:00:37.000Z</time>
      </trkpt>
      <trkpt lat="45.97987" lon="4.55276">
        <ele>493.7</ele>
        <time>1970-01-01T03:00:38.000Z</time>
      </trkpt>
      <trkpt lat="45.97986" lon="4.55277">
        <ele>493.8</ele>
        <time>1970-01-01T03:00:39.000Z</time>
      </trkpt>
      <trkpt lat="45.97986" lon="4.55278">
        <ele>493.9</ele>
        <time>1970-01-01T03:00:40.000Z</time>
      </trkpt>
      <trkpt lat="45.97985" lon="4.55279">
        <ele>494</ele>
        <time>1970-01-01T03:00:41.000Z</time>
      </trkpt>
      <trkpt lat="45.97984" lon="4.5528">
        <ele>494.1</ele>
        <time>1970-01-01T03:00:42.000Z</time>
      </trkpt>
      <trkpt lat="45.97983" lon="4.55281">
        <ele>494.2</ele>
        <time>1970-01-01T03:00:43.000Z</time>
      </trkpt>
      <trkpt lat="45.97982" lon="4.55282">
        <ele>494.4</ele>
        <time>1970-01-01T03:00:44.000Z</time>
      </trkpt>
      <trkpt lat="45.97981" lon="4.55283">
        <ele>494.5</ele>
        <time>1970-01-01T03:00:45.000Z</time>
      </trkpt>
      <trkpt lat="45.9798" lon="4.55283">
        <ele>494.6</ele>
        <time>1970-01-01T03:00:46.000Z</time>
      </trkpt>
      <trkpt lat="45.97979" lon="4.55284">
        <ele>494.7</ele>
        <time>1970-01-01T03:00:47.000Z</time>
      </trkpt>
      <trkpt lat="45.97978" lon="4.55285">
        <ele>494.8</ele>
        <time>1970-01-01T03:00:48.000Z</time>
      </trkpt>
      <trkpt lat="45.97977" lon="4.55286">
        <ele>494.9</ele>
        <time>1970-01-01T03:00:49.000Z</time>
      </trkpt>
      <trkpt lat="45.97976" lon="4.55286">
        <ele>495</ele>
        <time>1970-01-01T03:00:50.000Z</time>
      </trkpt>
      <trkpt lat="45.97975" lon="4.55287">
        <ele>495.1</ele>
        <time>1970-01-01T03:00:51.000Z</time>
      </trkpt>
      <trkpt lat="45.97974" lon="4.55287">
        <ele>495.2</ele>
        <time>1970-01-01T03:00:52.000Z</time>
      </trkpt>
      <trkpt lat="45.97973" lon="4.55287">
        <ele>495.3</ele>
        <time>1970-01-01T03:00:53.000Z</time>
      </trkpt>
      <trkpt lat="45.97972" lon="4.55287">
        <ele>495.4</ele>
        <time>1970-01-01T03:00:54.000Z</time>
      </trkpt>
      <trkpt lat="45.97971" lon="4.55288">
        <ele>495.4</ele>
        <time>1970-01-01T03:00:55.000Z</time>
      </trkpt>
      <trkpt lat="45.9797" lon="4.55288">
        <ele>495.5</ele>
        <time>1970-01-01T03:00:56.000Z</time>
      </trkpt>
      <trkpt lat="45.97969" lon="4.55288">
        <ele>495.6</ele>
        <time>1970-01-01T03:00:57.000Z</time>
      </trkpt>
      <trkpt lat="45.97968" lon="4.55288">
        <ele>495.7</ele>
        <time>1970-01-01T03:00:58.000Z</time>
      </trkpt>
      <trkpt lat="45.97966" lon="4.55289">
        <ele>495.8</ele>
        <time>1970-01-01T03:00:59.000Z</time>
      </trkpt>
      <trkpt lat="45.97965" lon="4.55289">
        <ele>495.9</ele>
        <time>1970-01-01T03:01:00.000Z</time>
      </trkpt>
      <trkpt lat="45.97964" lon="4.55289">
        <ele>496</ele>
        <time>1970-01-01T03:01:01.000Z</time>
      </trkpt>
      <trkpt lat="45.97963" lon="4.5529">
        <ele>496.1</ele>
        <time>1970-01-01T03:01:02.000Z</time>
      </trkpt>
      <trkpt lat="45.97961" lon="4.5529">
        <ele>496.2</ele>
        <time>1970-01-01T03:01:03.000Z</time>
      </trkpt>
      <trkpt lat="45.9796" lon="4.55291">
        <ele>496.3</ele>
        <time>1970-01-01T03:01:04.000Z</time>
      </trkpt>
      <trkpt lat="45.97959" lon="4.55291">
        <ele>496.4</ele>
        <time>1970-01-01T03:01:05.000Z</time>
      </trkpt>
      <trkpt lat="45.97958" lon="4.55291">
        <ele>496.4</ele>
        <time>1970-01-01T03:01:06.000Z</time>
      </trkpt>
      <trkpt lat="45.97957" lon="4.55292">
        <ele>496.5</ele>
        <time>1970-01-01T03:01:07.000Z</time>
      </trkpt>
      <trkpt lat="45.97956" lon="4.55292">
        <ele>496.6</ele>
        <time>1970-01-01T03:01:08.000Z</time>
      </trkpt>
      <trkpt lat="45.97955" lon="4.55293">
        <ele>496.6</ele>
        <time>1970-01-01T03:01:09.000Z</time>
      </trkpt>
      <trkpt lat="45.97955" lon="4.55293">
        <ele>496.7</ele>
        <time>1970-01-01T03:01:10.000Z</time>
      </trkpt>
      <trkpt lat="45.97954" lon="4.55293">
        <ele>496.8</ele>
        <time>1970-01-01T03:01:11.000Z</time>
      </trkpt>
      <trkpt lat="45.97953" lon="4.55294">
        <ele>496.8</ele>
        <time>1970-01-01T03:01:12.000Z</time>
      </trkpt>
      <trkpt lat="45.97952" lon="4.55294">
        <ele>496.9</ele>
        <time>1970-01-01T03:01:13.000Z</time>
      </trkpt>
      <trkpt lat="45.97951" lon="4.55295">
        <ele>496.9</ele>
        <time>1970-01-01T03:01:14.000Z</time>
      </trkpt>
      <trkpt lat="45.9795" lon="4.55295">
        <ele>497</ele>
        <time>1970-01-01T03:01:15.000Z</time>
      </trkpt>
      <trkpt lat="45.9795" lon="4.55295">
        <ele>497.1</ele>
        <time>1970-01-01T03:01:16.000Z</time>
      </trkpt>
      <trkpt lat="45.97948" lon="4.55296">
        <ele>497.2</ele>
        <time>1970-01-01T03:01:17.000Z</time>
      </trkpt>
      <trkpt lat="45.97946" lon="4.55296">
        <ele>497.3</ele>
        <time>1970-01-01T03:01:18.000Z</time>
      </trkpt>
      <trkpt lat="45.97945" lon="4.55297">
        <ele>497.4</ele>
        <time>1970-01-01T03:01:19.000Z</time>
      </trkpt>
      <trkpt lat="45.97943" lon="4.55297">
        <ele>497.5</ele>
        <time>1970-01-01T03:01:20.000Z</time>
      </trkpt>
      <trkpt lat="45.97942" lon="4.55297">
        <ele>497.5</ele>
        <time>1970-01-01T03:01:21.000Z</time>
      </trkpt>
      <trkpt lat="45.9794" lon="4.55298">
        <ele>497.6</ele>
        <time>1970-01-01T03:01:22.000Z</time>
      </trkpt>
      <trkpt lat="45.97938" lon="4.55298">
        <ele>497.7</ele>
        <time>1970-01-01T03:01:23.000Z</time>
      </trkpt>
      <trkpt lat="45.97935" lon="4.55298">
        <ele>497.8</ele>
        <time>1970-01-01T03:01:24.000Z</time>
      </trkpt>
      <trkpt lat="45.97932" lon="4.55298">
        <ele>497.9</ele>
        <time>1970-01-01T03:01:25.000Z</time>
      </trkpt>
      <trkpt lat="45.9793" lon="4.55298">
        <ele>497.9</ele>
        <time>1970-01-01T03:01:26.000Z</time>
      </trkpt>
      <trkpt lat="45.97928" lon="4.55299">
        <ele>497.9</ele>
        <time>1970-01-01T03:01:27.000Z</time>
      </trkpt>
      <trkpt lat="45.97926" lon="4.553">
        <ele>497.9</ele>
        <time>1970-01-01T03:01:28.000Z</time>
      </trkpt>
      <trkpt lat="45.97924" lon="4.55301">
        <ele>497.9</ele>
        <time>1970-01-01T03:01:29.000Z</time>
      </trkpt>
      <trkpt lat="45.97922" lon="4.55302">
        <ele>497.9</ele>
        <time>1970-01-01T03:01:30.000Z</time>
      </trkpt>
      <trkpt lat="45.9792" lon="4.55303">
        <ele>497.8</ele>
        <time>1970-01-01T03:01:31.000Z</time>
      </trkpt>
      <trkpt lat="45.97919" lon="4.55304">
        <ele>497.8</ele>
        <time>1970-01-01T03:01:32.000Z</time>
      </trkpt>
      <trkpt lat="45.97918" lon="4.55304">
        <ele>497.8</ele>
        <time>1970-01-01T03:01:33.000Z</time>
      </trkpt>
      <trkpt lat="45.97916" lon="4.55304">
        <ele>497.7</ele>
        <time>1970-01-01T03:01:34.000Z</time>
      </trkpt>
      <trkpt lat="45.97915" lon="4.55305">
        <ele>497.6</ele>
        <time>1970-01-01T03:01:35.000Z</time>
      </trkpt>
      <trkpt lat="45.97914" lon="4.55305">
        <ele>497.6</ele>
        <time>1970-01-01T03:01:36.000Z</time>
      </trkpt>
      <trkpt lat="45.97912" lon="4.55306">
        <ele>497.5</ele>
        <time>1970-01-01T03:01:37.000Z</time>
      </trkpt>
      <trkpt lat="45.97911" lon="4.55306">
        <ele>497.5</ele>
        <time>1970-01-01T03:01:38.000Z</time>
      </trkpt>
      <trkpt lat="45.9791" lon="4.55306">
        <ele>497.4</ele>
        <time>1970-01-01T03:01:39.000Z</time>
      </trkpt>
      <trkpt lat="45.97909" lon="4.55306">
        <ele>497.3</ele>
        <time>1970-01-01T03:01:40.000Z</time>
      </trkpt>
      <trkpt lat="45.97908" lon="4.55306">
        <ele>497.3</ele>
        <time>1970-01-01T03:01:41.000Z</time>
      </trkpt>
      <trkpt lat="45.97906" lon="4.55306">
        <ele>497.2</ele>
        <time>1970-01-01T03:01:42.000Z</time>
      </trkpt>
      <trkpt lat="45.97905" lon="4.55306">
        <ele>497.1</ele>
        <time>1970-01-01T03:01:43.000Z</time>
      </trkpt>
      <trkpt lat="45.97904" lon="4.55307">
        <ele>497.1</ele>
        <time>1970-01-01T03:01:44.000Z</time>
      </trkpt>
      <trkpt lat="45.97903" lon="4.55307">
        <ele>497</ele>
        <time>1970-01-01T03:01:45.000Z</time>
      </trkpt>
      <trkpt lat="45.97902" lon="4.55307">
        <ele>496.9</ele>
        <time>1970-01-01T03:01:46.000Z</time>
      </trkpt>
      <trkpt lat="45.979" lon="4.55306">
        <ele>496.8</ele>
        <time>1970-01-01T03:01:47.000Z</time>
      </trkpt>
      <trkpt lat="45.97899" lon="4.55306">
        <ele>496.7</ele>
        <time>1970-01-01T03:01:48.000Z</time>
      </trkpt>
      <trkpt lat="45.97897" lon="4.55306">
        <ele>496.6</ele>
        <time>1970-01-01T03:01:49.000Z</time>
      </trkpt>
      <trkpt lat="45.97896" lon="4.55306">
        <ele>496.5</ele>
        <time>1970-01-01T03:01:50.000Z</time>
      </trkpt>
      <trkpt lat="45.97894" lon="4.55305">
        <ele>496.4</ele>
        <time>1970-01-01T03:01:51.000Z</time>
      </trkpt>
      <trkpt lat="45.97892" lon="4.55305">
        <ele>496.3</ele>
        <time>1970-01-01T03:01:52.000Z</time>
      </trkpt>
      <trkpt lat="45.97891" lon="4.55304">
        <ele>496.3</ele>
        <time>1970-01-01T03:01:53.000Z</time>
      </trkpt>
      <trkpt lat="45.97889" lon="4.55304">
        <ele>496.2</ele>
        <time>1970-01-01T03:01:54.000Z</time>
      </trkpt>
      <trkpt lat="45.97888" lon="4.55303">
        <ele>496.1</ele>
        <time>1970-01-01T03:01:55.000Z</time>
      </trkpt>
      <trkpt lat="45.97886" lon="4.55302">
        <ele>496</ele>
        <time>1970-01-01T03:01:56.000Z</time>
      </trkpt>
      <trkpt lat="45.97885" lon="4.55301">
        <ele>495.9</ele>
        <time>1970-01-01T03:01:57.000Z</time>
      </trkpt>
      <trkpt lat="45.97883" lon="4.553">
        <ele>495.8</ele>
        <time>1970-01-01T03:01:58.000Z</time>
      </trkpt>
      <trkpt lat="45.97882" lon="4.55299">
        <ele>495.7</ele>
        <time>1970-01-01T03:01:59.000Z</time>
      </trkpt>
      <trkpt lat="45.9788" lon="4.55298">
        <ele>495.6</ele>
        <time>1970-01-01T03:02:00.000Z</time>
      </trkpt>
      <trkpt lat="45.97878" lon="4.55298">
        <ele>495.5</ele>
        <time>1970-01-01T03:02:01.000Z</time>
      </trkpt>
      <trkpt lat="45.97876" lon="4.55297">
        <ele>495.4</ele>
        <time>1970-01-01T03:02:02.000Z</time>
      </trkpt>
      <trkpt lat="45.97875" lon="4.55296">
        <ele>495.3</ele>
        <time>1970-01-01T03:02:03.000Z</time>
      </trkpt>
      <trkpt lat="45.97874" lon="4.55295">
        <ele>495.3</ele>
        <time>1970-01-01T03:02:04.000Z</time>
      </trkpt>
      <trkpt lat="45.97874" lon="4.55295">
        <ele>495.3</ele>
        <time>1970-01-01T03:02:05.000Z</time>
      </trkpt>
      <trkpt lat="45.97873" lon="4.55294">
        <ele>495.2</ele>
        <time>1970-01-01T03:02:06.000Z</time>
      </trkpt>
      <trkpt lat="45.97873" lon="4.55294">
        <ele>495.2</ele>
        <time>1970-01-01T03:02:07.000Z</time>
      </trkpt>
      <trkpt lat="45.97872" lon="4.55293">
        <ele>495.2</ele>
        <time>1970-01-01T03:02:08.000Z</time>
      </trkpt>
      <trkpt lat="45.97872" lon="4.55292">
        <ele>495.1</ele>
        <time>1970-01-01T03:02:09.000Z</time>
      </trkpt>
      <trkpt lat="45.97871" lon="4.55292">
        <ele>495.1</ele>
        <time>1970-01-01T03:02:10.000Z</time>
      </trkpt>
      <trkpt lat="45.97871" lon="4.55291">
        <ele>495</ele>
        <time>1970-01-01T03:02:11.000Z</time>
      </trkpt>
      <trkpt lat="45.97865" lon="4.55286">
        <ele>494.5</ele>
        <time>1970-01-01T03:02:12.000Z</time>
      </trkpt>
      <trkpt lat="45.97864" lon="4.55285">
        <ele>494.4</ele>
        <time>1970-01-01T03:02:13.000Z</time>
      </trkpt>
      <trkpt lat="45.97863" lon="4.55284">
        <ele>494.3</ele>
        <time>1970-01-01T03:02:14.000Z</time>
      </trkpt>
      <trkpt lat="45.97862" lon="4.55283">
        <ele>494.2</ele>
        <time>1970-01-01T03:02:15.000Z</time>
      </trkpt>
      <trkpt lat="45.97861" lon="4.55283">
        <ele>494</ele>
        <time>1970-01-01T03:02:16.000Z</time>
      </trkpt>
      <trkpt lat="45.9786" lon="4.55282">
        <ele>493.9</ele>
        <time>1970-01-01T03:02:17.000Z</time>
      </trkpt>
      <trkpt lat="45.97859" lon="4.55281">
        <ele>493.7</ele>
        <time>1970-01-01T03:02:18.000Z</time>
      </trkpt>
      <trkpt lat="45.97858" lon="4.5528">
        <ele>493.6</ele>
        <time>1970-01-01T03:02:19.000Z</time>
      </trkpt>
      <trkpt lat="45.97857" lon="4.5528">
        <ele>493.4</ele>
        <time>1970-01-01T03:02:20.000Z</time>
      </trkpt>
      <trkpt lat="45.97856" lon="4.55279">
        <ele>493.3</ele>
        <time>1970-01-01T03:02:21.000Z</time>
      </trkpt>
      <trkpt lat="45.97855" lon="4.55278">
        <ele>493.1</ele>
        <time>1970-01-01T03:02:22.000Z</time>
      </trkpt>
      <trkpt lat="45.97854" lon="4.55278">
        <ele>492.9</ele>
        <time>1970-01-01T03:02:23.000Z</time>
      </trkpt>
      <trkpt lat="45.97853" lon="4.55277">
        <ele>492.8</ele>
        <time>1970-01-01T03:02:24.000Z</time>
      </trkpt>
      <trkpt lat="45.97851" lon="4.55276">
        <ele>492.6</ele>
        <time>1970-01-01T03:02:25.000Z</time>
      </trkpt>
      <trkpt lat="45.9785" lon="4.55276">
        <ele>492.4</ele>
        <time>1970-01-01T03:02:26.000Z</time>
      </trkpt>
      <trkpt lat="45.97849" lon="4.55275">
        <ele>492.3</ele>
        <time>1970-01-01T03:02:27.000Z</time>
      </trkpt>
      <trkpt lat="45.97848" lon="4.55274">
        <ele>492</ele>
        <time>1970-01-01T03:02:28.000Z</time>
      </trkpt>
      <trkpt lat="45.97847" lon="4.55273">
        <ele>491.9</ele>
        <time>1970-01-01T03:02:29.000Z</time>
      </trkpt>
      <trkpt lat="45.97846" lon="4.55272">
        <ele>491.7</ele>
        <time>1970-01-01T03:02:30.000Z</time>
      </trkpt>
      <trkpt lat="45.97845" lon="4.55271">
        <ele>491.5</ele>
        <time>1970-01-01T03:02:31.000Z</time>
      </trkpt>
      <trkpt lat="45.97844" lon="4.5527">
        <ele>491.3</ele>
        <time>1970-01-01T03:02:32.000Z</time>
      </trkpt>
      <trkpt lat="45.97843" lon="4.55269">
        <ele>491.1</ele>
        <time>1970-01-01T03:02:33.000Z</time>
      </trkpt>
      <trkpt lat="45.97842" lon="4.55267">
        <ele>490.9</ele>
        <time>1970-01-01T03:02:34.000Z</time>
      </trkpt>
      <trkpt lat="45.97841" lon="4.55266">
        <ele>490.7</ele>
        <time>1970-01-01T03:02:35.000Z</time>
      </trkpt>
      <trkpt lat="45.97839" lon="4.55266">
        <ele>490.4</ele>
        <time>1970-01-01T03:02:36.000Z</time>
      </trkpt>
      <trkpt lat="45.97838" lon="4.55265">
        <ele>490.2</ele>
        <time>1970-01-01T03:02:37.000Z</time>
      </trkpt>
      <trkpt lat="45.97836" lon="4.55265">
        <ele>489.9</ele>
        <time>1970-01-01T03:02:38.000Z</time>
      </trkpt>
      <trkpt lat="45.97835" lon="4.55264">
        <ele>489.7</ele>
        <time>1970-01-01T03:02:39.000Z</time>
      </trkpt>
      <trkpt lat="45.97833" lon="4.55264">
        <ele>489.5</ele>
        <time>1970-01-01T03:02:40.000Z</time>
      </trkpt>
      <trkpt lat="45.97832" lon="4.55263">
        <ele>489.3</ele>
        <time>1970-01-01T03:02:41.000Z</time>
      </trkpt>
      <trkpt lat="45.9783" lon="4.55262">
        <ele>489.1</ele>
        <time>1970-01-01T03:02:42.000Z</time>
      </trkpt>
      <trkpt lat="45.97829" lon="4.55261">
        <ele>488.9</ele>
        <time>1970-01-01T03:02:43.000Z</time>
      </trkpt>
      <trkpt lat="45.97828" lon="4.5526">
        <ele>488.6</ele>
        <time>1970-01-01T03:02:44.000Z</time>
      </trkpt>
      <trkpt lat="45.97826" lon="4.55259">
        <ele>488.5</ele>
        <time>1970-01-01T03:02:45.000Z</time>
      </trkpt>
      <trkpt lat="45.97825" lon="4.55257">
        <ele>488.3</ele>
        <time>1970-01-01T03:02:46.000Z</time>
      </trkpt>
      <trkpt lat="45.97824" lon="4.55256">
        <ele>488.1</ele>
        <time>1970-01-01T03:02:47.000Z</time>
      </trkpt>
      <trkpt lat="45.97823" lon="4.55255">
        <ele>488</ele>
        <time>1970-01-01T03:02:48.000Z</time>
      </trkpt>
      <trkpt lat="45.97822" lon="4.55254">
        <ele>487.9</ele>
        <time>1970-01-01T03:02:49.000Z</time>
      </trkpt>
      <trkpt lat="45.97821" lon="4.55253">
        <ele>487.7</ele>
        <time>1970-01-01T03:02:50.000Z</time>
      </trkpt>
      <trkpt lat="45.9782" lon="4.55252">
        <ele>487.6</ele>
        <time>1970-01-01T03:02:51.000Z</time>
      </trkpt>
      <trkpt lat="45.97819" lon="4.55251">
        <ele>487.5</ele>
        <time>1970-01-01T03:02:52.000Z</time>
      </trkpt>
      <trkpt lat="45.97818" lon="4.5525">
        <ele>487.4</ele>
        <time>1970-01-01T03:02:53.000Z</time>
      </trkpt>
      <trkpt lat="45.97817" lon="4.55249">
        <ele>487.3</ele>
        <time>1970-01-01T03:02:54.000Z</time>
      </trkpt>
      <trkpt lat="45.97816" lon="4.55248">
        <ele>487.2</ele>
        <time>1970-01-01T03:02:55.000Z</time>
      </trkpt>
      <trkpt lat="45.97815" lon="4.55248">
        <ele>487.1</ele>
        <time>1970-01-01T03:02:56.000Z</time>
      </trkpt>
      <trkpt lat="45.97814" lon="4.55247">
        <ele>487</ele>
        <time>1970-01-01T03:02:57.000Z</time>
      </trkpt>
      <trkpt lat="45.97813" lon="4.55247">
        <ele>487</ele>
        <time>1970-01-01T03:02:58.000Z</time>
      </trkpt>
      <trkpt lat="45.97812" lon="4.55247">
        <ele>486.9</ele>
        <time>1970-01-01T03:02:59.000Z</time>
      </trkpt>
      <trkpt lat="45.97811" lon="4.55246">
        <ele>486.8</ele>
        <time>1970-01-01T03:03:00.000Z</time>
      </trkpt>
      <trkpt lat="45.9781" lon="4.55246">
        <ele>486.8</ele>
        <time>1970-01-01T03:03:01.000Z</time>
      </trkpt>
      <trkpt lat="45.97809" lon="4.55245">
        <ele>486.7</ele>
        <time>1970-01-01T03:03:02.000Z</time>
      </trkpt>
      <trkpt lat="45.97808" lon="4.55245">
        <ele>486.6</ele>
        <time>1970-01-01T03:03:03.000Z</time>
      </trkpt>
      <trkpt lat="45.97807" lon="4.55244">
        <ele>486.6</ele>
        <time>1970-01-01T03:03:04.000Z</time>
      </trkpt>
      <trkpt lat="45.97806" lon="4.55244">
        <ele>486.5</ele>
        <time>1970-01-01T03:03:05.000Z</time>
      </trkpt>
      <trkpt lat="45.97805" lon="4.55244">
        <ele>486.5</ele>
        <time>1970-01-01T03:03:06.000Z</time>
      </trkpt>
      <trkpt lat="45.97805" lon="4.55244">
        <ele>486.5</ele>
        <time>1970-01-01T03:03:07.000Z</time>
      </trkpt>
      <trkpt lat="45.97804" lon="4.55243">
        <ele>486.4</ele>
        <time>1970-01-01T03:03:08.000Z</time>
      </trkpt>
      <trkpt lat="45.97803" lon="4.55243">
        <ele>486.4</ele>
        <time>1970-01-01T03:03:09.000Z</time>
      </trkpt>
      <trkpt lat="45.97802" lon="4.55243">
        <ele>486.4</ele>
        <time>1970-01-01T03:03:10.000Z</time>
      </trkpt>
      <trkpt lat="45.97802" lon="4.55242">
        <ele>486.3</ele>
        <time>1970-01-01T03:03:11.000Z</time>
      </trkpt>
      <trkpt lat="45.97795" lon="4.5524">
        <ele>486.1</ele>
        <time>1970-01-01T03:03:12.000Z</time>
      </trkpt>
      <trkpt lat="45.97793" lon="4.55239">
        <ele>486.1</ele>
        <time>1970-01-01T03:03:13.000Z</time>
      </trkpt>
      <trkpt lat="45.97791" lon="4.55238">
        <ele>486.1</ele>
        <time>1970-01-01T03:03:14.000Z</time>
      </trkpt>
      <trkpt lat="45.9779" lon="4.55237">
        <ele>486.1</ele>
        <time>1970-01-01T03:03:15.000Z</time>
      </trkpt>
      <trkpt lat="45.97788" lon="4.55236">
        <ele>486.1</ele>
        <time>1970-01-01T03:03:16.000Z</time>
      </trkpt>
      <trkpt lat="45.97786" lon="4.55235">
        <ele>486.1</ele>
        <time>1970-01-01T03:03:17.000Z</time>
      </trkpt>
      <trkpt lat="45.97784" lon="4.55235">
        <ele>486.1</ele>
        <time>1970-01-01T03:03:18.000Z</time>
      </trkpt>
      <trkpt lat="45.97783" lon="4.55234">
        <ele>486.1</ele>
        <time>1970-01-01T03:03:19.000Z</time>
      </trkpt>
      <trkpt lat="45.97781" lon="4.55233">
        <ele>486.1</ele>
        <time>1970-01-01T03:03:20.000Z</time>
      </trkpt>
      <trkpt lat="45.97779" lon="4.55233">
        <ele>486.1</ele>
        <time>1970-01-01T03:03:21.000Z</time>
      </trkpt>
      <trkpt lat="45.97778" lon="4.55232">
        <ele>486.1</ele>
        <time>1970-01-01T03:03:22.000Z</time>
      </trkpt>
      <trkpt lat="45.97777" lon="4.55231">
        <ele>486.1</ele>
        <time>1970-01-01T03:03:23.000Z</time>
      </trkpt>
      <trkpt lat="45.97776" lon="4.55231">
        <ele>486.1</ele>
        <time>1970-01-01T03:03:24.000Z</time>
      </trkpt>
      <trkpt lat="45.97775" lon="4.5523">
        <ele>486.1</ele>
        <time>1970-01-01T03:03:25.000Z</time>
      </trkpt>
      <trkpt lat="45.97774" lon="4.55229">
        <ele>486.1</ele>
        <time>1970-01-01T03:03:26.000Z</time>
      </trkpt>
      <trkpt lat="45.97772" lon="4.55229">
        <ele>486.1</ele>
        <time>1970-01-01T03:03:27.000Z</time>
      </trkpt>
      <trkpt lat="45.97771" lon="4.55228">
        <ele>486.1</ele>
        <time>1970-01-01T03:03:28.000Z</time>
      </trkpt>
      <trkpt lat="45.9777" lon="4.55227">
        <ele>486.1</ele>
        <time>1970-01-01T03:03:29.000Z</time>
      </trkpt>
      <trkpt lat="45.97769" lon="4.55227">
        <ele>486.1</ele>
        <time>1970-01-01T03:03:30.000Z</time>
      </trkpt>
      <trkpt lat="45.97767" lon="4.55227">
        <ele>486.2</ele>
        <time>1970-01-01T03:03:31.000Z</time>
      </trkpt>
      <trkpt lat="45.97766" lon="4.55226">
        <ele>486.2</ele>
        <time>1970-01-01T03:03:32.000Z</time>
      </trkpt>
      <trkpt lat="45.97764" lon="4.55226">
        <ele>486.2</ele>
        <time>1970-01-01T03:03:33.000Z</time>
      </trkpt>
      <trkpt lat="45.97763" lon="4.55226">
        <ele>486.2</ele>
        <time>1970-01-01T03:03:34.000Z</time>
      </trkpt>
      <trkpt lat="45.97761" lon="4.55226">
        <ele>486.2</ele>
        <time>1970-01-01T03:03:35.000Z</time>
      </trkpt>
      <trkpt lat="45.9776" lon="4.55226">
        <ele>486.2</ele>
        <time>1970-01-01T03:03:36.000Z</time>
      </trkpt>
      <trkpt lat="45.9776" lon="4.55225">
        <ele>486.2</ele>
        <time>1970-01-01T03:03:37.000Z</time>
      </trkpt>
      <trkpt lat="45.97759" lon="4.55225">
        <ele>486.2</ele>
        <time>1970-01-01T03:03:38.000Z</time>
      </trkpt>
      <trkpt lat="45.97759" lon="4.55225">
        <ele>486.2</ele>
        <time>1970-01-01T03:03:39.000Z</time>
      </trkpt>
      <trkpt lat="45.97758" lon="4.55225">
        <ele>486.2</ele>
        <time>1970-01-01T03:03:40.000Z</time>
      </trkpt>
      <trkpt lat="45.97757" lon="4.55225">
        <ele>486.3</ele>
        <time>1970-01-01T03:03:41.000Z</time>
      </trkpt>
      <trkpt lat="45.97757" lon="4.55225">
        <ele>486.3</ele>
        <time>1970-01-01T03:03:42.000Z</time>
      </trkpt>
      <trkpt lat="45.97756" lon="4.55225">
        <ele>486.3</ele>
        <time>1970-01-01T03:03:43.000Z</time>
      </trkpt>
      <trkpt lat="45.9775" lon="4.55225">
        <ele>486.3</ele>
        <time>1970-01-01T03:03:44.000Z</time>
      </trkpt>
      <trkpt lat="45.97749" lon="4.55225">
        <ele>486.3</ele>
        <time>1970-01-01T03:03:45.000Z</time>
      </trkpt>
      <trkpt lat="45.97747" lon="4.55224">
        <ele>486.3</ele>
        <time>1970-01-01T03:03:46.000Z</time>
      </trkpt>
      <trkpt lat="45.97746" lon="4.55224">
        <ele>486.3</ele>
        <time>1970-01-01T03:03:47.000Z</time>
      </trkpt>
      <trkpt lat="45.97745" lon="4.55224">
        <ele>486.3</ele>
        <time>1970-01-01T03:03:48.000Z</time>
      </trkpt>
      <trkpt lat="45.97744" lon="4.55223">
        <ele>486.4</ele>
        <time>1970-01-01T03:03:49.000Z</time>
      </trkpt>
      <trkpt lat="45.97743" lon="4.55223">
        <ele>486.4</ele>
        <time>1970-01-01T03:03:50.000Z</time>
      </trkpt>
      <trkpt lat="45.97742" lon="4.55223">
        <ele>486.4</ele>
        <time>1970-01-01T03:03:51.000Z</time>
      </trkpt>
      <trkpt lat="45.97741" lon="4.55223">
        <ele>486.4</ele>
        <time>1970-01-01T03:03:52.000Z</time>
      </trkpt>
      <trkpt lat="45.9774" lon="4.55223">
        <ele>486.4</ele>
        <time>1970-01-01T03:03:53.000Z</time>
      </trkpt>
      <trkpt lat="45.9774" lon="4.55223">
        <ele>486.4</ele>
        <time>1970-01-01T03:03:54.000Z</time>
      </trkpt>
      <trkpt lat="45.97739" lon="4.55222">
        <ele>486.4</ele>
        <time>1970-01-01T03:03:55.000Z</time>
      </trkpt>
      <trkpt lat="45.97738" lon="4.55222">
        <ele>486.4</ele>
        <time>1970-01-01T03:03:56.000Z</time>
      </trkpt>
      <trkpt lat="45.97737" lon="4.55222">
        <ele>486.4</ele>
        <time>1970-01-01T03:03:57.000Z</time>
      </trkpt>
      <trkpt lat="45.97737" lon="4.55222">
        <ele>486.4</ele>
        <time>1970-01-01T03:03:58.000Z</time>
      </trkpt>
      <trkpt lat="45.97736" lon="4.55222">
        <ele>486.4</ele>
        <time>1970-01-01T03:03:59.000Z</time>
      </trkpt>
      <trkpt lat="45.97735" lon="4.55222">
        <ele>486.4</ele>
        <time>1970-01-01T03:04:00.000Z</time>
      </trkpt>
      <trkpt lat="45.97735" lon="4.55222">
        <ele>486.4</ele>
        <time>1970-01-01T03:04:01.000Z</time>
      </trkpt>
      <trkpt lat="45.97734" lon="4.55222">
        <ele>486.4</ele>
        <time>1970-01-01T03:04:02.000Z</time>
      </trkpt>
      <trkpt lat="45.97733" lon="4.55221">
        <ele>486.4</ele>
        <time>1970-01-01T03:04:03.000Z</time>
      </trkpt>
      <trkpt lat="45.97733" lon="4.55221">
        <ele>486.4</ele>
        <time>1970-01-01T03:04:04.000Z</time>
      </trkpt>
      <trkpt lat="45.97732" lon="4.55222">
        <ele>486.4</ele>
        <time>1970-01-01T03:04:05.000Z</time>
      </trkpt>
      <trkpt lat="45.97731" lon="4.55222">
        <ele>486.4</ele>
        <time>1970-01-01T03:04:06.000Z</time>
      </trkpt>
      <trkpt lat="45.97729" lon="4.55223">
        <ele>486.4</ele>
        <time>1970-01-01T03:04:07.000Z</time>
      </trkpt>
      <trkpt lat="45.97728" lon="4.55223">
        <ele>486.4</ele>
        <time>1970-01-01T03:04:08.000Z</time>
      </trkpt>
      <trkpt lat="45.97727" lon="4.55224">
        <ele>486.3</ele>
        <time>1970-01-01T03:04:09.000Z</time>
      </trkpt>
      <trkpt lat="45.97726" lon="4.55224">
        <ele>486.3</ele>
        <time>1970-01-01T03:04:10.000Z</time>
      </trkpt>
      <trkpt lat="45.97725" lon="4.55225">
        <ele>486.3</ele>
        <time>1970-01-01T03:04:11.000Z</time>
      </trkpt>
      <trkpt lat="45.97724" lon="4.55225">
        <ele>486.3</ele>
        <time>1970-01-01T03:04:12.000Z</time>
      </trkpt>
      <trkpt lat="45.97723" lon="4.55226">
        <ele>486.3</ele>
        <time>1970-01-01T03:04:13.000Z</time>
      </trkpt>
      <trkpt lat="45.97722" lon="4.55226">
        <ele>486.3</ele>
        <time>1970-01-01T03:04:14.000Z</time>
      </trkpt>
      <trkpt lat="45.9772" lon="4.55226">
        <ele>486.3</ele>
        <time>1970-01-01T03:04:15.000Z</time>
      </trkpt>
      <trkpt lat="45.97719" lon="4.55226">
        <ele>486.3</ele>
        <time>1970-01-01T03:04:16.000Z</time>
      </trkpt>
      <trkpt lat="45.97717" lon="4.55227">
        <ele>486.3</ele>
        <time>1970-01-01T03:04:17.000Z</time>
      </trkpt>
      <trkpt lat="45.97716" lon="4.55227">
        <ele>486.3</ele>
        <time>1970-01-01T03:04:18.000Z</time>
      </trkpt>
      <trkpt lat="45.97714" lon="4.55227">
        <ele>486.3</ele>
        <time>1970-01-01T03:04:19.000Z</time>
      </trkpt>
      <trkpt lat="45.97713" lon="4.55228">
        <ele>486.3</ele>
        <time>1970-01-01T03:04:20.000Z</time>
      </trkpt>
      <trkpt lat="45.97711" lon="4.55228">
        <ele>486.3</ele>
        <time>1970-01-01T03:04:21.000Z</time>
      </trkpt>
      <trkpt lat="45.97709" lon="4.55228">
        <ele>486.3</ele>
        <time>1970-01-01T03:04:22.000Z</time>
      </trkpt>
      <trkpt lat="45.97708" lon="4.55228">
        <ele>486.3</ele>
        <time>1970-01-01T03:04:23.000Z</time>
      </trkpt>
      <trkpt lat="45.97706" lon="4.55229">
        <ele>486.4</ele>
        <time>1970-01-01T03:04:24.000Z</time>
      </trkpt>
      <trkpt lat="45.97705" lon="4.55229">
        <ele>486.4</ele>
        <time>1970-01-01T03:04:25.000Z</time>
      </trkpt>
      <trkpt lat="45.97703" lon="4.55229">
        <ele>486.4</ele>
        <time>1970-01-01T03:04:26.000Z</time>
      </trkpt>
      <trkpt lat="45.97702" lon="4.55229">
        <ele>486.4</ele>
        <time>1970-01-01T03:04:27.000Z</time>
      </trkpt>
      <trkpt lat="45.97701" lon="4.55229">
        <ele>486.4</ele>
        <time>1970-01-01T03:04:28.000Z</time>
      </trkpt>
      <trkpt lat="45.97701" lon="4.55229">
        <ele>486.4</ele>
        <time>1970-01-01T03:04:29.000Z</time>
      </trkpt>
      <trkpt lat="45.977" lon="4.55229">
        <ele>486.4</ele>
        <time>1970-01-01T03:04:30.000Z</time>
      </trkpt>
      <trkpt lat="45.97699" lon="4.5523">
        <ele>486.4</ele>
        <time>1970-01-01T03:04:31.000Z</time>
      </trkpt>
      <trkpt lat="45.97698" lon="4.5523">
        <ele>486.4</ele>
        <time>1970-01-01T03:04:32.000Z</time>
      </trkpt>
      <trkpt lat="45.97697" lon="4.5523">
        <ele>486.4</ele>
        <time>1970-01-01T03:04:33.000Z</time>
      </trkpt>
      <trkpt lat="45.97696" lon="4.5523">
        <ele>486.4</ele>
        <time>1970-01-01T03:04:34.000Z</time>
      </trkpt>
      <trkpt lat="45.97696" lon="4.5523">
        <ele>486.4</ele>
        <time>1970-01-01T03:04:35.000Z</time>
      </trkpt>
      <trkpt lat="45.97695" lon="4.5523">
        <ele>486.4</ele>
        <time>1970-01-01T03:04:36.000Z</time>
      </trkpt>
      <trkpt lat="45.97694" lon="4.5523">
        <ele>486.4</ele>
        <time>1970-01-01T03:04:37.000Z</time>
      </trkpt>
      <trkpt lat="45.97692" lon="4.55231">
        <ele>486.4</ele>
        <time>1970-01-01T03:04:38.000Z</time>
      </trkpt>
      <trkpt lat="45.9769" lon="4.55231">
        <ele>486.4</ele>
        <time>1970-01-01T03:04:39.000Z</time>
      </trkpt>
      <trkpt lat="45.97688" lon="4.55232">
        <ele>486.4</ele>
        <time>1970-01-01T03:04:40.000Z</time>
      </trkpt>
      <trkpt lat="45.97686" lon="4.55232">
        <ele>486.4</ele>
        <time>1970-01-01T03:04:41.000Z</time>
      </trkpt>
      <trkpt lat="45.97685" lon="4.55233">
        <ele>486.4</ele>
        <time>1970-01-01T03:04:42.000Z</time>
      </trkpt>
      <trkpt lat="45.97683" lon="4.55233">
        <ele>486.4</ele>
        <time>1970-01-01T03:04:43.000Z</time>
      </trkpt>
      <trkpt lat="45.97682" lon="4.55234">
        <ele>486.4</ele>
        <time>1970-01-01T03:04:44.000Z</time>
      </trkpt>
      <trkpt lat="45.9768" lon="4.55235">
        <ele>486.4</ele>
        <time>1970-01-01T03:04:45.000Z</time>
      </trkpt>
      <trkpt lat="45.97679" lon="4.55235">
        <ele>486.3</ele>
        <time>1970-01-01T03:04:46.000Z</time>
      </trkpt>
      <trkpt lat="45.97678" lon="4.55236">
        <ele>486.3</ele>
        <time>1970-01-01T03:04:47.000Z</time>
      </trkpt>
      <trkpt lat="45.97676" lon="4.55237">
        <ele>486.3</ele>
        <time>1970-01-01T03:04:48.000Z</time>
      </trkpt>
      <trkpt lat="45.97675" lon="4.55238">
        <ele>486.3</ele>
        <time>1970-01-01T03:04:49.000Z</time>
      </trkpt>
      <trkpt lat="45.97674" lon="4.55238">
        <ele>486.3</ele>
        <time>1970-01-01T03:04:50.000Z</time>
      </trkpt>
      <trkpt lat="45.97674" lon="4.55238">
        <ele>486.3</ele>
        <time>1970-01-01T03:04:51.000Z</time>
      </trkpt>
      <trkpt lat="45.97673" lon="4.55238">
        <ele>486.3</ele>
        <time>1970-01-01T03:04:52.000Z</time>
      </trkpt>
      <trkpt lat="45.97672" lon="4.55238">
        <ele>486.3</ele>
        <time>1970-01-01T03:04:53.000Z</time>
      </trkpt>
      <trkpt lat="45.97671" lon="4.55238">
        <ele>486.3</ele>
        <time>1970-01-01T03:04:54.000Z</time>
      </trkpt>
      <trkpt lat="45.97671" lon="4.55239">
        <ele>486.3</ele>
        <time>1970-01-01T03:04:55.000Z</time>
      </trkpt>
      <trkpt lat="45.9767" lon="4.55239">
        <ele>486.3</ele>
        <time>1970-01-01T03:04:56.000Z</time>
      </trkpt>
      <trkpt lat="45.97664" lon="4.5524">
        <ele>486.4</ele>
        <time>1970-01-01T03:04:57.000Z</time>
      </trkpt>
      <trkpt lat="45.97663" lon="4.55241">
        <ele>486.4</ele>
        <time>1970-01-01T03:04:58.000Z</time>
      </trkpt>
      <trkpt lat="45.97661" lon="4.55241">
        <ele>486.4</ele>
        <time>1970-01-01T03:04:59.000Z</time>
      </trkpt>
      <trkpt lat="45.9766" lon="4.55242">
        <ele>486.5</ele>
        <time>1970-01-01T03:05:00.000Z</time>
      </trkpt>
      <trkpt lat="45.97659" lon="4.55242">
        <ele>486.5</ele>
        <time>1970-01-01T03:05:01.000Z</time>
      </trkpt>
      <trkpt lat="45.97658" lon="4.55243">
        <ele>486.5</ele>
        <time>1970-01-01T03:05:02.000Z</time>
      </trkpt>
      <trkpt lat="45.97656" lon="4.55243">
        <ele>486.5</ele>
        <time>1970-01-01T03:05:03.000Z</time>
      </trkpt>
      <trkpt lat="45.97655" lon="4.55244">
        <ele>486.6</ele>
        <time>1970-01-01T03:05:04.000Z</time>
      </trkpt>
      <trkpt lat="45.97654" lon="4.55243">
        <ele>486.6</ele>
        <time>1970-01-01T03:05:05.000Z</time>
      </trkpt>
      <trkpt lat="45.97654" lon="4.55243">
        <ele>486.6</ele>
        <time>1970-01-01T03:05:06.000Z</time>
      </trkpt>
      <trkpt lat="45.97653" lon="4.55242">
        <ele>486.7</ele>
        <time>1970-01-01T03:05:07.000Z</time>
      </trkpt>
      <trkpt lat="45.97652" lon="4.55242">
        <ele>486.7</ele>
        <time>1970-01-01T03:05:08.000Z</time>
      </trkpt>
      <trkpt lat="45.97652" lon="4.55241">
        <ele>486.7</ele>
        <time>1970-01-01T03:05:09.000Z</time>
      </trkpt>
      <trkpt lat="45.97651" lon="4.55241">
        <ele>486.7</ele>
        <time>1970-01-01T03:05:10.000Z</time>
      </trkpt>
      <trkpt lat="45.9765" lon="4.5524">
        <ele>486.8</ele>
        <time>1970-01-01T03:05:11.000Z</time>
      </trkpt>
      <trkpt lat="45.97645" lon="4.55236">
        <ele>486.9</ele>
        <time>1970-01-01T03:05:12.000Z</time>
      </trkpt>
      <trkpt lat="45.97644" lon="4.55236">
        <ele>487</ele>
        <time>1970-01-01T03:05:13.000Z</time>
      </trkpt>
      <trkpt lat="45.97643" lon="4.55236">
        <ele>487</ele>
        <time>1970-01-01T03:05:14.000Z</time>
      </trkpt>
      <trkpt lat="45.97643" lon="4.55236">
        <ele>487</ele>
        <time>1970-01-01T03:05:15.000Z</time>
      </trkpt>
      <trkpt lat="45.97642" lon="4.55236">
        <ele>487</ele>
        <time>1970-01-01T03:05:16.000Z</time>
      </trkpt>
      <trkpt lat="45.97641" lon="4.55236">
        <ele>487.1</ele>
        <time>1970-01-01T03:05:17.000Z</time>
      </trkpt>
      <trkpt lat="45.9764" lon="4.55236">
        <ele>487.1</ele>
        <time>1970-01-01T03:05:18.000Z</time>
      </trkpt>
      <trkpt lat="45.97634" lon="4.55235">
        <ele>487.3</ele>
        <time>1970-01-01T03:05:19.000Z</time>
      </trkpt>
      <trkpt lat="45.97632" lon="4.55234">
        <ele>487.3</ele>
        <time>1970-01-01T03:05:20.000Z</time>
      </trkpt>
      <trkpt lat="45.9763" lon="4.55234">
        <ele>487.3</ele>
        <time>1970-01-01T03:05:21.000Z</time>
      </trkpt>
      <trkpt lat="45.97629" lon="4.55234">
        <ele>487.4</ele>
        <time>1970-01-01T03:05:22.000Z</time>
      </trkpt>
      <trkpt lat="45.97627" lon="4.55234">
        <ele>487.4</ele>
        <time>1970-01-01T03:05:23.000Z</time>
      </trkpt>
      <trkpt lat="45.97625" lon="4.55233">
        <ele>487.5</ele>
        <time>1970-01-01T03:05:24.000Z</time>
      </trkpt>
      <trkpt lat="45.97625" lon="4.55233">
        <ele>487.5</ele>
        <time>1970-01-01T03:05:25.000Z</time>
      </trkpt>
      <trkpt lat="45.97624" lon="4.55233">
        <ele>487.5</ele>
        <time>1970-01-01T03:05:26.000Z</time>
      </trkpt>
      <trkpt lat="45.97623" lon="4.55233">
        <ele>487.5</ele>
        <time>1970-01-01T03:05:27.000Z</time>
      </trkpt>
      <trkpt lat="45.97622" lon="4.55234">
        <ele>487.6</ele>
        <time>1970-01-01T03:05:28.000Z</time>
      </trkpt>
      <trkpt lat="45.97621" lon="4.55234">
        <ele>487.6</ele>
        <time>1970-01-01T03:05:29.000Z</time>
      </trkpt>
      <trkpt lat="45.9762" lon="4.55234">
        <ele>487.6</ele>
        <time>1970-01-01T03:05:30.000Z</time>
      </trkpt>
      <trkpt lat="45.97619" lon="4.55234">
        <ele>487.6</ele>
        <time>1970-01-01T03:05:31.000Z</time>
      </trkpt>
      <trkpt lat="45.97619" lon="4.55234">
        <ele>487.7</ele>
        <time>1970-01-01T03:05:32.000Z</time>
      </trkpt>
      <trkpt lat="45.97618" lon="4.55234">
        <ele>487.7</ele>
        <time>1970-01-01T03:05:33.000Z</time>
      </trkpt>
      <trkpt lat="45.97617" lon="4.55234">
        <ele>487.7</ele>
        <time>1970-01-01T03:05:34.000Z</time>
      </trkpt>
      <trkpt lat="45.97616" lon="4.55234">
        <ele>487.7</ele>
        <time>1970-01-01T03:05:35.000Z</time>
      </trkpt>
      <trkpt lat="45.97615" lon="4.55234">
        <ele>487.8</ele>
        <time>1970-01-01T03:05:36.000Z</time>
      </trkpt>
      <trkpt lat="45.97614" lon="4.55234">
        <ele>487.8</ele>
        <time>1970-01-01T03:05:37.000Z</time>
      </trkpt>
      <trkpt lat="45.97614" lon="4.55233">
        <ele>487.8</ele>
        <time>1970-01-01T03:05:38.000Z</time>
      </trkpt>
      <trkpt lat="45.97613" lon="4.55233">
        <ele>487.8</ele>
        <time>1970-01-01T03:05:39.000Z</time>
      </trkpt>
      <trkpt lat="45.97613" lon="4.55232">
        <ele>487.8</ele>
        <time>1970-01-01T03:05:40.000Z</time>
      </trkpt>
      <trkpt lat="45.97612" lon="4.55232">
        <ele>487.8</ele>
        <time>1970-01-01T03:05:41.000Z</time>
      </trkpt>
      <trkpt lat="45.97611" lon="4.55231">
        <ele>487.8</ele>
        <time>1970-01-01T03:05:42.000Z</time>
      </trkpt>
      <trkpt lat="45.97611" lon="4.55231">
        <ele>487.8</ele>
        <time>1970-01-01T03:05:43.000Z</time>
      </trkpt>
      <trkpt lat="45.97605" lon="4.55226">
        <ele>487.9</ele>
        <time>1970-01-01T03:05:44.000Z</time>
      </trkpt>
      <trkpt lat="45.97604" lon="4.55225">
        <ele>487.9</ele>
        <time>1970-01-01T03:05:45.000Z</time>
      </trkpt>
      <trkpt lat="45.97603" lon="4.55224">
        <ele>487.9</ele>
        <time>1970-01-01T03:05:46.000Z</time>
      </trkpt>
      <trkpt lat="45.97602" lon="4.55223">
        <ele>487.9</ele>
        <time>1970-01-01T03:05:47.000Z</time>
      </trkpt>
      <trkpt lat="45.97601" lon="4.55222">
        <ele>487.9</ele>
        <time>1970-01-01T03:05:48.000Z</time>
      </trkpt>
      <trkpt lat="45.976" lon="4.5522">
        <ele>487.9</ele>
        <time>1970-01-01T03:05:49.000Z</time>
      </trkpt>
      <trkpt lat="45.97599" lon="4.55219">
        <ele>487.9</ele>
        <time>1970-01-01T03:05:50.000Z</time>
      </trkpt>
      <trkpt lat="45.97598" lon="4.55218">
        <ele>488</ele>
        <time>1970-01-01T03:05:51.000Z</time>
      </trkpt>
      <trkpt lat="45.97597" lon="4.55218">
        <ele>488</ele>
        <time>1970-01-01T03:05:52.000Z</time>
      </trkpt>
      <trkpt lat="45.97597" lon="4.55217">
        <ele>488</ele>
        <time>1970-01-01T03:05:53.000Z</time>
      </trkpt>
      <trkpt lat="45.97596" lon="4.55216">
        <ele>488</ele>
        <time>1970-01-01T03:05:54.000Z</time>
      </trkpt>
      <trkpt lat="45.97595" lon="4.55216">
        <ele>488</ele>
        <time>1970-01-01T03:05:55.000Z</time>
      </trkpt>
      <trkpt lat="45.97595" lon="4.55215">
        <ele>488</ele>
        <time>1970-01-01T03:05:56.000Z</time>
      </trkpt>
      <trkpt lat="45.97594" lon="4.55214">
        <ele>488</ele>
        <time>1970-01-01T03:05:57.000Z</time>
      </trkpt>
      <trkpt lat="45.97594" lon="4.55214">
        <ele>488</ele>
        <time>1970-01-01T03:05:58.000Z</time>
      </trkpt>
      <trkpt lat="45.97589" lon="4.55208">
        <ele>488.1</ele>
        <time>1970-01-01T03:05:59.000Z</time>
      </trkpt>
      <trkpt lat="45.97588" lon="4.55206">
        <ele>488.1</ele>
        <time>1970-01-01T03:06:00.000Z</time>
      </trkpt>
      <trkpt lat="45.97587" lon="4.55205">
        <ele>488.1</ele>
        <time>1970-01-01T03:06:01.000Z</time>
      </trkpt>
      <trkpt lat="45.97586" lon="4.55203">
        <ele>488.1</ele>
        <time>1970-01-01T03:06:02.000Z</time>
      </trkpt>
      <trkpt lat="45.97585" lon="4.55202">
        <ele>488.2</ele>
        <time>1970-01-01T03:06:03.000Z</time>
      </trkpt>
      <trkpt lat="45.97584" lon="4.552">
        <ele>488.2</ele>
        <time>1970-01-01T03:06:04.000Z</time>
      </trkpt>
      <trkpt lat="45.97583" lon="4.55199">
        <ele>488.2</ele>
        <time>1970-01-01T03:06:05.000Z</time>
      </trkpt>
      <trkpt lat="45.97582" lon="4.55198">
        <ele>488.2</ele>
        <time>1970-01-01T03:06:06.000Z</time>
      </trkpt>
      <trkpt lat="45.9758" lon="4.55197">
        <ele>488.3</ele>
        <time>1970-01-01T03:06:07.000Z</time>
      </trkpt>
      <trkpt lat="45.97579" lon="4.55196">
        <ele>488.3</ele>
        <time>1970-01-01T03:06:08.000Z</time>
      </trkpt>
      <trkpt lat="45.97578" lon="4.55196">
        <ele>488.3</ele>
        <time>1970-01-01T03:06:09.000Z</time>
      </trkpt>
      <trkpt lat="45.97576" lon="4.55195">
        <ele>488.3</ele>
        <time>1970-01-01T03:06:10.000Z</time>
      </trkpt>
      <trkpt lat="45.97575" lon="4.55194">
        <ele>488.4</ele>
        <time>1970-01-01T03:06:11.000Z</time>
      </trkpt>
      <trkpt lat="45.97574" lon="4.55193">
        <ele>488.4</ele>
        <time>1970-01-01T03:06:12.000Z</time>
      </trkpt>
      <trkpt lat="45.97573" lon="4.55192">
        <ele>488.4</ele>
        <time>1970-01-01T03:06:13.000Z</time>
      </trkpt>
      <trkpt lat="45.97572" lon="4.55192">
        <ele>488.4</ele>
        <time>1970-01-01T03:06:14.000Z</time>
      </trkpt>
      <trkpt lat="45.97572" lon="4.55191">
        <ele>488.4</ele>
        <time>1970-01-01T03:06:15.000Z</time>
      </trkpt>
      <trkpt lat="45.97571" lon="4.5519">
        <ele>488.4</ele>
        <time>1970-01-01T03:06:16.000Z</time>
      </trkpt>
      <trkpt lat="45.9757" lon="4.55189">
        <ele>488.4</ele>
        <time>1970-01-01T03:06:17.000Z</time>
      </trkpt>
      <trkpt lat="45.97569" lon="4.55188">
        <ele>488.4</ele>
        <time>1970-01-01T03:06:18.000Z</time>
      </trkpt>
      <trkpt lat="45.97569" lon="4.55187">
        <ele>488.4</ele>
        <time>1970-01-01T03:06:19.000Z</time>
      </trkpt>
      <trkpt lat="45.97568" lon="4.55186">
        <ele>488.4</ele>
        <time>1970-01-01T03:06:20.000Z</time>
      </trkpt>
      <trkpt lat="45.97567" lon="4.55186">
        <ele>488.4</ele>
        <time>1970-01-01T03:06:21.000Z</time>
      </trkpt>
      <trkpt lat="45.97567" lon="4.55185">
        <ele>488.4</ele>
        <time>1970-01-01T03:06:22.000Z</time>
      </trkpt>
      <trkpt lat="45.97565" lon="4.55184">
        <ele>488.4</ele>
        <time>1970-01-01T03:06:23.000Z</time>
      </trkpt>
      <trkpt lat="45.97564" lon="4.55183">
        <ele>488.4</ele>
        <time>1970-01-01T03:06:24.000Z</time>
      </trkpt>
      <trkpt lat="45.97563" lon="4.55182">
        <ele>488.4</ele>
        <time>1970-01-01T03:06:25.000Z</time>
      </trkpt>
      <trkpt lat="45.97562" lon="4.55181">
        <ele>488.3</ele>
        <time>1970-01-01T03:06:26.000Z</time>
      </trkpt>
      <trkpt lat="45.9756" lon="4.5518">
        <ele>488.3</ele>
        <time>1970-01-01T03:06:27.000Z</time>
      </trkpt>
      <trkpt lat="45.97559" lon="4.55179">
        <ele>488.3</ele>
        <time>1970-01-01T03:06:28.000Z</time>
      </trkpt>
      <trkpt lat="45.97558" lon="4.55178">
        <ele>488.2</ele>
        <time>1970-01-01T03:06:29.000Z</time>
      </trkpt>
      <trkpt lat="45.97556" lon="4.55178">
        <ele>488.2</ele>
        <time>1970-01-01T03:06:30.000Z</time>
      </trkpt>
      <trkpt lat="45.97555" lon="4.55177">
        <ele>488.1</ele>
        <time>1970-01-01T03:06:31.000Z</time>
      </trkpt>
      <trkpt lat="45.97554" lon="4.55177">
        <ele>488</ele>
        <time>1970-01-01T03:06:32.000Z</time>
      </trkpt>
      <trkpt lat="45.97552" lon="4.55176">
        <ele>488</ele>
        <time>1970-01-01T03:06:33.000Z</time>
      </trkpt>
      <trkpt lat="45.97551" lon="4.55176">
        <ele>487.9</ele>
        <time>1970-01-01T03:06:34.000Z</time>
      </trkpt>
      <trkpt lat="45.9755" lon="4.55175">
        <ele>487.8</ele>
        <time>1970-01-01T03:06:35.000Z</time>
      </trkpt>
      <trkpt lat="45.97548" lon="4.55175">
        <ele>487.7</ele>
        <time>1970-01-01T03:06:36.000Z</time>
      </trkpt>
      <trkpt lat="45.97547" lon="4.55174">
        <ele>487.7</ele>
        <time>1970-01-01T03:06:37.000Z</time>
      </trkpt>
      <trkpt lat="45.97547" lon="4.55174">
        <ele>487.6</ele>
        <time>1970-01-01T03:06:38.000Z</time>
      </trkpt>
      <trkpt lat="45.97546" lon="4.55173">
        <ele>487.6</ele>
        <time>1970-01-01T03:06:39.000Z</time>
      </trkpt>
      <trkpt lat="45.97545" lon="4.55172">
        <ele>487.5</ele>
        <time>1970-01-01T03:06:40.000Z</time>
      </trkpt>
      <trkpt lat="45.97545" lon="4.55172">
        <ele>487.5</ele>
        <time>1970-01-01T03:06:41.000Z</time>
      </trkpt>
      <trkpt lat="45.97544" lon="4.55171">
        <ele>487.5</ele>
        <time>1970-01-01T03:06:42.000Z</time>
      </trkpt>
      <trkpt lat="45.97539" lon="4.55166">
        <ele>487.1</ele>
        <time>1970-01-01T03:06:43.000Z</time>
      </trkpt>
      <trkpt lat="45.97538" lon="4.55165">
        <ele>487.1</ele>
        <time>1970-01-01T03:06:44.000Z</time>
      </trkpt>
      <trkpt lat="45.97537" lon="4.55164">
        <ele>487</ele>
        <time>1970-01-01T03:06:45.000Z</time>
      </trkpt>
      <trkpt lat="45.97536" lon="4.55162">
        <ele>487</ele>
        <time>1970-01-01T03:06:46.000Z</time>
      </trkpt>
      <trkpt lat="45.97535" lon="4.55161">
        <ele>486.9</ele>
        <time>1970-01-01T03:06:47.000Z</time>
      </trkpt>
      <trkpt lat="45.97535" lon="4.5516">
        <ele>486.9</ele>
        <time>1970-01-01T03:06:48.000Z</time>
      </trkpt>
      <trkpt lat="45.97534" lon="4.55159">
        <ele>486.8</ele>
        <time>1970-01-01T03:06:49.000Z</time>
      </trkpt>
      <trkpt lat="45.97533" lon="4.55158">
        <ele>486.8</ele>
        <time>1970-01-01T03:06:50.000Z</time>
      </trkpt>
      <trkpt lat="45.97532" lon="4.55156">
        <ele>486.7</ele>
        <time>1970-01-01T03:06:51.000Z</time>
      </trkpt>
      <trkpt lat="45.97531" lon="4.55155">
        <ele>486.7</ele>
        <time>1970-01-01T03:06:52.000Z</time>
      </trkpt>
      <trkpt lat="45.9753" lon="4.55154">
        <ele>486.6</ele>
        <time>1970-01-01T03:06:53.000Z</time>
      </trkpt>
      <trkpt lat="45.9753" lon="4.55152">
        <ele>486.6</ele>
        <time>1970-01-01T03:06:54.000Z</time>
      </trkpt>
      <trkpt lat="45.97529" lon="4.55151">
        <ele>486.6</ele>
        <time>1970-01-01T03:06:55.000Z</time>
      </trkpt>
      <trkpt lat="45.97528" lon="4.55149">
        <ele>486.6</ele>
        <time>1970-01-01T03:06:56.000Z</time>
      </trkpt>
      <trkpt lat="45.97527" lon="4.55148">
        <ele>486.5</ele>
        <time>1970-01-01T03:06:57.000Z</time>
      </trkpt>
      <trkpt lat="45.97526" lon="4.55146">
        <ele>486.5</ele>
        <time>1970-01-01T03:06:58.000Z</time>
      </trkpt>
      <trkpt lat="45.97526" lon="4.55145">
        <ele>486.5</ele>
        <time>1970-01-01T03:06:59.000Z</time>
      </trkpt>
      <trkpt lat="45.97525" lon="4.55144">
        <ele>486.5</ele>
        <time>1970-01-01T03:07:00.000Z</time>
      </trkpt>
      <trkpt lat="45.97524" lon="4.55143">
        <ele>486.5</ele>
        <time>1970-01-01T03:07:01.000Z</time>
      </trkpt>
      <trkpt lat="45.97523" lon="4.55141">
        <ele>486.4</ele>
        <time>1970-01-01T03:07:02.000Z</time>
      </trkpt>
      <trkpt lat="45.97522" lon="4.5514">
        <ele>486.4</ele>
        <time>1970-01-01T03:07:03.000Z</time>
      </trkpt>
      <trkpt lat="45.97522" lon="4.55139">
        <ele>486.4</ele>
        <time>1970-01-01T03:07:04.000Z</time>
      </trkpt>
      <trkpt lat="45.97521" lon="4.55138">
        <ele>486.4</ele>
        <time>1970-01-01T03:07:05.000Z</time>
      </trkpt>
      <trkpt lat="45.9752" lon="4.55136">
        <ele>486.4</ele>
        <time>1970-01-01T03:07:06.000Z</time>
      </trkpt>
      <trkpt lat="45.9752" lon="4.55135">
        <ele>486.4</ele>
        <time>1970-01-01T03:07:07.000Z</time>
      </trkpt>
      <trkpt lat="45.97519" lon="4.55134">
        <ele>486.4</ele>
        <time>1970-01-01T03:07:08.000Z</time>
      </trkpt>
      <trkpt lat="45.97518" lon="4.55133">
        <ele>486.4</ele>
        <time>1970-01-01T03:07:09.000Z</time>
      </trkpt>
      <trkpt lat="45.97517" lon="4.55132">
        <ele>486.4</ele>
        <time>1970-01-01T03:07:10.000Z</time>
      </trkpt>
      <trkpt lat="45.97517" lon="4.55131">
        <ele>486.4</ele>
        <time>1970-01-01T03:07:11.000Z</time>
      </trkpt>
      <trkpt lat="45.97516" lon="4.5513">
        <ele>486.4</ele>
        <time>1970-01-01T03:07:12.000Z</time>
      </trkpt>
      <trkpt lat="45.97515" lon="4.55129">
        <ele>486.4</ele>
        <time>1970-01-01T03:07:13.000Z</time>
      </trkpt>
      <trkpt lat="45.97514" lon="4.55127">
        <ele>486.4</ele>
        <time>1970-01-01T03:07:14.000Z</time>
      </trkpt>
      <trkpt lat="45.97513" lon="4.55126">
        <ele>486.4</ele>
        <time>1970-01-01T03:07:15.000Z</time>
      </trkpt>
      <trkpt lat="45.97512" lon="4.55125">
        <ele>486.4</ele>
        <time>1970-01-01T03:07:16.000Z</time>
      </trkpt>
      <trkpt lat="45.97511" lon="4.55124">
        <ele>486.4</ele>
        <time>1970-01-01T03:07:17.000Z</time>
      </trkpt>
      <trkpt lat="45.97509" lon="4.55123">
        <ele>486.4</ele>
        <time>1970-01-01T03:07:18.000Z</time>
      </trkpt>
      <trkpt lat="45.97508" lon="4.55121">
        <ele>486.4</ele>
        <time>1970-01-01T03:07:19.000Z</time>
      </trkpt>
      <trkpt lat="45.97508" lon="4.55121">
        <ele>486.4</ele>
        <time>1970-01-01T03:07:20.000Z</time>
      </trkpt>
      <trkpt lat="45.97507" lon="4.55119">
        <ele>486.5</ele>
        <time>1970-01-01T03:07:21.000Z</time>
      </trkpt>
      <trkpt lat="45.97507" lon="4.55119">
        <ele>486.5</ele>
        <time>1970-01-01T03:07:22.000Z</time>
      </trkpt>
      <trkpt lat="45.97505" lon="4.55117">
        <ele>486.5</ele>
        <time>1970-01-01T03:07:23.000Z</time>
      </trkpt>
      <trkpt lat="45.97505" lon="4.55117">
        <ele>486.5</ele>
        <time>1970-01-01T03:07:24.000Z</time>
      </trkpt>
      <trkpt lat="45.97504" lon="4.55115">
        <ele>486.5</ele>
        <time>1970-01-01T03:07:25.000Z</time>
      </trkpt>
      <trkpt lat="45.97503" lon="4.55114">
        <ele>486.5</ele>
        <time>1970-01-01T03:07:26.000Z</time>
      </trkpt>
      <trkpt lat="45.97502" lon="4.55113">
        <ele>486.6</ele>
        <time>1970-01-01T03:07:27.000Z</time>
      </trkpt>
      <trkpt lat="45.97501" lon="4.55112">
        <ele>486.6</ele>
        <time>1970-01-01T03:07:28.000Z</time>
      </trkpt>
      <trkpt lat="45.975" lon="4.5511">
        <ele>486.6</ele>
        <time>1970-01-01T03:07:29.000Z</time>
      </trkpt>
      <trkpt lat="45.97499" lon="4.55109">
        <ele>486.6</ele>
        <time>1970-01-01T03:07:30.000Z</time>
      </trkpt>
      <trkpt lat="45.97498" lon="4.55108">
        <ele>486.7</ele>
        <time>1970-01-01T03:07:31.000Z</time>
      </trkpt>
      <trkpt lat="45.97497" lon="4.55107">
        <ele>486.7</ele>
        <time>1970-01-01T03:07:32.000Z</time>
      </trkpt>
      <trkpt lat="45.97496" lon="4.55106">
        <ele>486.7</ele>
        <time>1970-01-01T03:07:33.000Z</time>
      </trkpt>
      <trkpt lat="45.97494" lon="4.55105">
        <ele>486.7</ele>
        <time>1970-01-01T03:07:34.000Z</time>
      </trkpt>
      <trkpt lat="45.97492" lon="4.55103">
        <ele>486.8</ele>
        <time>1970-01-01T03:07:35.000Z</time>
      </trkpt>
      <trkpt lat="45.97491" lon="4.55102">
        <ele>486.8</ele>
        <time>1970-01-01T03:07:36.000Z</time>
      </trkpt>
      <trkpt lat="45.97491" lon="4.55102">
        <ele>486.8</ele>
        <time>1970-01-01T03:07:37.000Z</time>
      </trkpt>
      <trkpt lat="45.97488" lon="4.551">
        <ele>486.9</ele>
        <time>1970-01-01T03:07:38.000Z</time>
      </trkpt>
      <trkpt lat="45.97488" lon="4.551">
        <ele>486.9</ele>
        <time>1970-01-01T03:07:39.000Z</time>
      </trkpt>
      <trkpt lat="45.97486" lon="4.55097">
        <ele>487</ele>
        <time>1970-01-01T03:07:40.000Z</time>
      </trkpt>
      <trkpt lat="45.97486" lon="4.55097">
        <ele>487</ele>
        <time>1970-01-01T03:07:41.000Z</time>
      </trkpt>
      <trkpt lat="45.97484" lon="4.55093">
        <ele>487.1</ele>
        <time>1970-01-01T03:07:42.000Z</time>
      </trkpt>
      <trkpt lat="45.97484" lon="4.55093">
        <ele>487.1</ele>
        <time>1970-01-01T03:07:43.000Z</time>
      </trkpt>
      <trkpt lat="45.97483" lon="4.55091">
        <ele>487.1</ele>
        <time>1970-01-01T03:07:44.000Z</time>
      </trkpt>
      <trkpt lat="45.97483" lon="4.55091">
        <ele>487.1</ele>
        <time>1970-01-01T03:07:45.000Z</time>
      </trkpt>
      <trkpt lat="45.97481" lon="4.55087">
        <ele>487.2</ele>
        <time>1970-01-01T03:07:46.000Z</time>
      </trkpt>
      <trkpt lat="45.97481" lon="4.55087">
        <ele>487.2</ele>
        <time>1970-01-01T03:07:47.000Z</time>
      </trkpt>
      <trkpt lat="45.97479" lon="4.55084">
        <ele>487.3</ele>
        <time>1970-01-01T03:07:48.000Z</time>
      </trkpt>
      <trkpt lat="45.97479" lon="4.55084">
        <ele>487.3</ele>
        <time>1970-01-01T03:07:49.000Z</time>
      </trkpt>
      <trkpt lat="45.97477" lon="4.55081">
        <ele>487.5</ele>
        <time>1970-01-01T03:07:50.000Z</time>
      </trkpt>
      <trkpt lat="45.97475" lon="4.55077">
        <ele>487.6</ele>
        <time>1970-01-01T03:07:52.000Z</time>
      </trkpt>
      <trkpt lat="45.97475" lon="4.55077">
        <ele>487.6</ele>
        <time>1970-01-01T03:07:53.000Z</time>
      </trkpt>
      <trkpt lat="45.97473" lon="4.55074">
        <ele>487.8</ele>
        <time>1970-01-01T03:07:54.000Z</time>
      </trkpt>
      <trkpt lat="45.97472" lon="4.55072">
        <ele>487.9</ele>
        <time>1970-01-01T03:07:55.000Z</time>
      </trkpt>
      <trkpt lat="45.97472" lon="4.55072">
        <ele>487.9</ele>
        <time>1970-01-01T03:07:56.000Z</time>
      </trkpt>
      <trkpt lat="45.9747" lon="4.55069">
        <ele>488</ele>
        <time>1970-01-01T03:07:57.000Z</time>
      </trkpt>
      <trkpt lat="45.9747" lon="4.55069">
        <ele>488</ele>
        <time>1970-01-01T03:07:58.000Z</time>
      </trkpt>
      <trkpt lat="45.97468" lon="4.55066">
        <ele>488.2</ele>
        <time>1970-01-01T03:07:59.000Z</time>
      </trkpt>
      <trkpt lat="45.97468" lon="4.55066">
        <ele>488.2</ele>
        <time>1970-01-01T03:08:00.000Z</time>
      </trkpt>
      <trkpt lat="45.97467" lon="4.55063">
        <ele>488.3</ele>
        <time>1970-01-01T03:08:01.000Z</time>
      </trkpt>
      <trkpt lat="45.97466" lon="4.55061">
        <ele>488.4</ele>
        <time>1970-01-01T03:08:02.000Z</time>
      </trkpt>
      <trkpt lat="45.97465" lon="4.5506">
        <ele>488.5</ele>
        <time>1970-01-01T03:08:03.000Z</time>
      </trkpt>
      <trkpt lat="45.97464" lon="4.55058">
        <ele>488.6</ele>
        <time>1970-01-01T03:08:04.000Z</time>
      </trkpt>
      <trkpt lat="45.97463" lon="4.55057">
        <ele>488.6</ele>
        <time>1970-01-01T03:08:05.000Z</time>
      </trkpt>
      <trkpt lat="45.97463" lon="4.55055">
        <ele>488.7</ele>
        <time>1970-01-01T03:08:06.000Z</time>
      </trkpt>
      <trkpt lat="45.97462" lon="4.55054">
        <ele>488.8</ele>
        <time>1970-01-01T03:08:07.000Z</time>
      </trkpt>
      <trkpt lat="45.97461" lon="4.55052">
        <ele>488.9</ele>
        <time>1970-01-01T03:08:08.000Z</time>
      </trkpt>
      <trkpt lat="45.97461" lon="4.55052">
        <ele>488.9</ele>
        <time>1970-01-01T03:08:09.000Z</time>
      </trkpt>
      <trkpt lat="45.97459" lon="4.55049">
        <ele>489</ele>
        <time>1970-01-01T03:08:10.000Z</time>
      </trkpt>
      <trkpt lat="45.97459" lon="4.55049">
        <ele>489</ele>
        <time>1970-01-01T03:08:11.000Z</time>
      </trkpt>
      <trkpt lat="45.97458" lon="4.55047">
        <ele>489</ele>
        <time>1970-01-01T03:08:12.000Z</time>
      </trkpt>
      <trkpt lat="45.97458" lon="4.55046">
        <ele>489.1</ele>
        <time>1970-01-01T03:08:13.000Z</time>
      </trkpt>
      <trkpt lat="45.97457" lon="4.55045">
        <ele>489.1</ele>
        <time>1970-01-01T03:08:14.000Z</time>
      </trkpt>
      <trkpt lat="45.97456" lon="4.55044">
        <ele>489.1</ele>
        <time>1970-01-01T03:08:15.000Z</time>
      </trkpt>
      <trkpt lat="45.97456" lon="4.55043">
        <ele>489.2</ele>
        <time>1970-01-01T03:08:16.000Z</time>
      </trkpt>
      <trkpt lat="45.97455" lon="4.55042">
        <ele>489.2</ele>
        <time>1970-01-01T03:08:17.000Z</time>
      </trkpt>
      <trkpt lat="45.97455" lon="4.55041">
        <ele>489.2</ele>
        <time>1970-01-01T03:08:18.000Z</time>
      </trkpt>
      <trkpt lat="45.97454" lon="4.5504">
        <ele>489.2</ele>
        <time>1970-01-01T03:08:19.000Z</time>
      </trkpt>
      <trkpt lat="45.97453" lon="4.55039">
        <ele>489.2</ele>
        <time>1970-01-01T03:08:20.000Z</time>
      </trkpt>
      <trkpt lat="45.97453" lon="4.55038">
        <ele>489.3</ele>
        <time>1970-01-01T03:08:21.000Z</time>
      </trkpt>
      <trkpt lat="45.97452" lon="4.55037">
        <ele>489.3</ele>
        <time>1970-01-01T03:08:22.000Z</time>
      </trkpt>
      <trkpt lat="45.97451" lon="4.55036">
        <ele>489.3</ele>
        <time>1970-01-01T03:08:23.000Z</time>
      </trkpt>
      <trkpt lat="45.9745" lon="4.55034">
        <ele>489.3</ele>
        <time>1970-01-01T03:08:24.000Z</time>
      </trkpt>
      <trkpt lat="45.9745" lon="4.55033">
        <ele>489.3</ele>
        <time>1970-01-01T03:08:25.000Z</time>
      </trkpt>
      <trkpt lat="45.97449" lon="4.55032">
        <ele>489.3</ele>
        <time>1970-01-01T03:08:26.000Z</time>
      </trkpt>
      <trkpt lat="45.97448" lon="4.55031">
        <ele>489.2</ele>
        <time>1970-01-01T03:08:27.000Z</time>
      </trkpt>
      <trkpt lat="45.97447" lon="4.5503">
        <ele>489.2</ele>
        <time>1970-01-01T03:08:28.000Z</time>
      </trkpt>
      <trkpt lat="45.97447" lon="4.55028">
        <ele>489.2</ele>
        <time>1970-01-01T03:08:29.000Z</time>
      </trkpt>
      <trkpt lat="45.97446" lon="4.55027">
        <ele>489.2</ele>
        <time>1970-01-01T03:08:30.000Z</time>
      </trkpt>
      <trkpt lat="45.97445" lon="4.55026">
        <ele>489.1</ele>
        <time>1970-01-01T03:08:31.000Z</time>
      </trkpt>
      <trkpt lat="45.97443" lon="4.55026">
        <ele>489.1</ele>
        <time>1970-01-01T03:08:32.000Z</time>
      </trkpt>
      <trkpt lat="45.97442" lon="4.55025">
        <ele>489</ele>
        <time>1970-01-01T03:08:33.000Z</time>
      </trkpt>
      <trkpt lat="45.97441" lon="4.55024">
        <ele>489</ele>
        <time>1970-01-01T03:08:34.000Z</time>
      </trkpt>
      <trkpt lat="45.9744" lon="4.55023">
        <ele>488.9</ele>
        <time>1970-01-01T03:08:35.000Z</time>
      </trkpt>
      <trkpt lat="45.97439" lon="4.55022">
        <ele>488.8</ele>
        <time>1970-01-01T03:08:36.000Z</time>
      </trkpt>
      <trkpt lat="45.97438" lon="4.55022">
        <ele>488.8</ele>
        <time>1970-01-01T03:08:37.000Z</time>
      </trkpt>
      <trkpt lat="45.97437" lon="4.55021">
        <ele>488.7</ele>
        <time>1970-01-01T03:08:38.000Z</time>
      </trkpt>
      <trkpt lat="45.97436" lon="4.5502">
        <ele>488.6</ele>
        <time>1970-01-01T03:08:39.000Z</time>
      </trkpt>
      <trkpt lat="45.97435" lon="4.55019">
        <ele>488.6</ele>
        <time>1970-01-01T03:08:40.000Z</time>
      </trkpt>
      <trkpt lat="45.97434" lon="4.55018">
        <ele>488.5</ele>
        <time>1970-01-01T03:08:41.000Z</time>
      </trkpt>
      <trkpt lat="45.97434" lon="4.55017">
        <ele>488.4</ele>
        <time>1970-01-01T03:08:42.000Z</time>
      </trkpt>
      <trkpt lat="45.97429" lon="4.5501">
        <ele>487.8</ele>
        <time>1970-01-01T03:08:43.000Z</time>
      </trkpt>
      <trkpt lat="45.97428" lon="4.55006">
        <ele>487.6</ele>
        <time>1970-01-01T03:08:44.000Z</time>
      </trkpt>
      <trkpt lat="45.97427" lon="4.55004">
        <ele>487.4</ele>
        <time>1970-01-01T03:08:45.000Z</time>
      </trkpt>
      <trkpt lat="45.97426" lon="4.55001">
        <ele>487.2</ele>
        <time>1970-01-01T03:08:46.000Z</time>
      </trkpt>
      <trkpt lat="45.97426" lon="4.55001">
        <ele>487.2</ele>
        <time>1970-01-01T03:08:47.000Z</time>
      </trkpt>
      <trkpt lat="45.97424" lon="4.54997">
        <ele>486.9</ele>
        <time>1970-01-01T03:08:48.000Z</time>
      </trkpt>
      <trkpt lat="45.97424" lon="4.54997">
        <ele>486.9</ele>
        <time>1970-01-01T03:08:49.000Z</time>
      </trkpt>
      <trkpt lat="45.97423" lon="4.54993">
        <ele>486.8</ele>
        <time>1970-01-01T03:08:50.000Z</time>
      </trkpt>
      <trkpt lat="45.97422" lon="4.54992">
        <ele>486.7</ele>
        <time>1970-01-01T03:08:51.000Z</time>
      </trkpt>
      <trkpt lat="45.97421" lon="4.54991">
        <ele>486.6</ele>
        <time>1970-01-01T03:08:52.000Z</time>
      </trkpt>
      <trkpt lat="45.97421" lon="4.5499">
        <ele>486.6</ele>
        <time>1970-01-01T03:08:53.000Z</time>
      </trkpt>
      <trkpt lat="45.9742" lon="4.54989">
        <ele>486.5</ele>
        <time>1970-01-01T03:08:54.000Z</time>
      </trkpt>
      <trkpt lat="45.97419" lon="4.54988">
        <ele>486.5</ele>
        <time>1970-01-01T03:08:55.000Z</time>
      </trkpt>
      <trkpt lat="45.97418" lon="4.54988">
        <ele>486.4</ele>
        <time>1970-01-01T03:08:56.000Z</time>
      </trkpt>
      <trkpt lat="45.97418" lon="4.54987">
        <ele>486.4</ele>
        <time>1970-01-01T03:08:57.000Z</time>
      </trkpt>
      <trkpt lat="45.97417" lon="4.54986">
        <ele>486.3</ele>
        <time>1970-01-01T03:08:58.000Z</time>
      </trkpt>
      <trkpt lat="45.97416" lon="4.54985">
        <ele>486.3</ele>
        <time>1970-01-01T03:08:59.000Z</time>
      </trkpt>
      <trkpt lat="45.97415" lon="4.54984">
        <ele>486.2</ele>
        <time>1970-01-01T03:09:00.000Z</time>
      </trkpt>
      <trkpt lat="45.97414" lon="4.54983">
        <ele>486.2</ele>
        <time>1970-01-01T03:09:01.000Z</time>
      </trkpt>
      <trkpt lat="45.97413" lon="4.54982">
        <ele>486.1</ele>
        <time>1970-01-01T03:09:02.000Z</time>
      </trkpt>
      <trkpt lat="45.97411" lon="4.54982">
        <ele>486.1</ele>
        <time>1970-01-01T03:09:03.000Z</time>
      </trkpt>
      <trkpt lat="45.9741" lon="4.54981">
        <ele>486</ele>
        <time>1970-01-01T03:09:04.000Z</time>
      </trkpt>
      <trkpt lat="45.97409" lon="4.5498">
        <ele>486</ele>
        <time>1970-01-01T03:09:05.000Z</time>
      </trkpt>
      <trkpt lat="45.97408" lon="4.5498">
        <ele>486</ele>
        <time>1970-01-01T03:09:06.000Z</time>
      </trkpt>
      <trkpt lat="45.97407" lon="4.54979">
        <ele>485.9</ele>
        <time>1970-01-01T03:09:07.000Z</time>
      </trkpt>
      <trkpt lat="45.97406" lon="4.54978">
        <ele>485.9</ele>
        <time>1970-01-01T03:09:08.000Z</time>
      </trkpt>
      <trkpt lat="45.97405" lon="4.54977">
        <ele>485.9</ele>
        <time>1970-01-01T03:09:09.000Z</time>
      </trkpt>
      <trkpt lat="45.97404" lon="4.54976">
        <ele>485.8</ele>
        <time>1970-01-01T03:09:10.000Z</time>
      </trkpt>
      <trkpt lat="45.97403" lon="4.54975">
        <ele>485.8</ele>
        <time>1970-01-01T03:09:11.000Z</time>
      </trkpt>
      <trkpt lat="45.97402" lon="4.54975">
        <ele>485.8</ele>
        <time>1970-01-01T03:09:12.000Z</time>
      </trkpt>
      <trkpt lat="45.97401" lon="4.54974">
        <ele>485.7</ele>
        <time>1970-01-01T03:09:13.000Z</time>
      </trkpt>
      <trkpt lat="45.974" lon="4.54973">
        <ele>485.7</ele>
        <time>1970-01-01T03:09:14.000Z</time>
      </trkpt>
      <trkpt lat="45.97399" lon="4.54973">
        <ele>485.7</ele>
        <time>1970-01-01T03:09:15.000Z</time>
      </trkpt>
      <trkpt lat="45.97398" lon="4.54972">
        <ele>485.6</ele>
        <time>1970-01-01T03:09:16.000Z</time>
      </trkpt>
      <trkpt lat="45.97397" lon="4.54972">
        <ele>485.6</ele>
        <time>1970-01-01T03:09:17.000Z</time>
      </trkpt>
      <trkpt lat="45.97396" lon="4.54972">
        <ele>485.6</ele>
        <time>1970-01-01T03:09:18.000Z</time>
      </trkpt>
      <trkpt lat="45.97395" lon="4.54972">
        <ele>485.6</ele>
        <time>1970-01-01T03:09:19.000Z</time>
      </trkpt>
      <trkpt lat="45.97394" lon="4.54972">
        <ele>485.5</ele>
        <time>1970-01-01T03:09:20.000Z</time>
      </trkpt>
      <trkpt lat="45.97393" lon="4.54971">
        <ele>485.5</ele>
        <time>1970-01-01T03:09:21.000Z</time>
      </trkpt>
      <trkpt lat="45.97392" lon="4.54971">
        <ele>485.5</ele>
        <time>1970-01-01T03:09:22.000Z</time>
      </trkpt>
      <trkpt lat="45.97391" lon="4.54971">
        <ele>485.5</ele>
        <time>1970-01-01T03:09:23.000Z</time>
      </trkpt>
      <trkpt lat="45.9739" lon="4.54971">
        <ele>485.4</ele>
        <time>1970-01-01T03:09:24.000Z</time>
      </trkpt>
      <trkpt lat="45.97389" lon="4.54972">
        <ele>485.4</ele>
        <time>1970-01-01T03:09:25.000Z</time>
      </trkpt>
      <trkpt lat="45.97387" lon="4.54972">
        <ele>485.4</ele>
        <time>1970-01-01T03:09:26.000Z</time>
      </trkpt>
      <trkpt lat="45.97386" lon="4.54972">
        <ele>485.4</ele>
        <time>1970-01-01T03:09:27.000Z</time>
      </trkpt>
      <trkpt lat="45.97385" lon="4.54972">
        <ele>485.3</ele>
        <time>1970-01-01T03:09:28.000Z</time>
      </trkpt>
      <trkpt lat="45.97384" lon="4.54973">
        <ele>485.3</ele>
        <time>1970-01-01T03:09:29.000Z</time>
      </trkpt>
      <trkpt lat="45.97383" lon="4.54973">
        <ele>485.3</ele>
        <time>1970-01-01T03:09:30.000Z</time>
      </trkpt>
      <trkpt lat="45.97381" lon="4.54973">
        <ele>485.3</ele>
        <time>1970-01-01T03:09:31.000Z</time>
      </trkpt>
      <trkpt lat="45.9738" lon="4.54973">
        <ele>485.3</ele>
        <time>1970-01-01T03:09:32.000Z</time>
      </trkpt>
      <trkpt lat="45.97379" lon="4.54973">
        <ele>485.2</ele>
        <time>1970-01-01T03:09:33.000Z</time>
      </trkpt>
      <trkpt lat="45.97378" lon="4.54973">
        <ele>485.2</ele>
        <time>1970-01-01T03:09:34.000Z</time>
      </trkpt>
      <trkpt lat="45.97377" lon="4.54973">
        <ele>485.2</ele>
        <time>1970-01-01T03:09:35.000Z</time>
      </trkpt>
      <trkpt lat="45.97375" lon="4.54973">
        <ele>485.2</ele>
        <time>1970-01-01T03:09:36.000Z</time>
      </trkpt>
      <trkpt lat="45.97374" lon="4.54973">
        <ele>485.1</ele>
        <time>1970-01-01T03:09:37.000Z</time>
      </trkpt>
      <trkpt lat="45.97373" lon="4.54973">
        <ele>485.1</ele>
        <time>1970-01-01T03:09:38.000Z</time>
      </trkpt>
      <trkpt lat="45.97372" lon="4.54973">
        <ele>485.1</ele>
        <time>1970-01-01T03:09:39.000Z</time>
      </trkpt>
      <trkpt lat="45.9737" lon="4.54973">
        <ele>485</ele>
        <time>1970-01-01T03:09:40.000Z</time>
      </trkpt>
      <trkpt lat="45.97368" lon="4.54972">
        <ele>484.9</ele>
        <time>1970-01-01T03:09:41.000Z</time>
      </trkpt>
      <trkpt lat="45.97366" lon="4.54972">
        <ele>484.9</ele>
        <time>1970-01-01T03:09:42.000Z</time>
      </trkpt>
      <trkpt lat="45.97365" lon="4.54971">
        <ele>484.7</ele>
        <time>1970-01-01T03:09:43.000Z</time>
      </trkpt>
      <trkpt lat="45.97363" lon="4.54971">
        <ele>484.6</ele>
        <time>1970-01-01T03:09:44.000Z</time>
      </trkpt>
      <trkpt lat="45.97361" lon="4.5497">
        <ele>484.5</ele>
        <time>1970-01-01T03:09:45.000Z</time>
      </trkpt>
      <trkpt lat="45.97359" lon="4.54969">
        <ele>484.3</ele>
        <time>1970-01-01T03:09:46.000Z</time>
      </trkpt>
      <trkpt lat="45.97358" lon="4.54968">
        <ele>484.2</ele>
        <time>1970-01-01T03:09:47.000Z</time>
      </trkpt>
      <trkpt lat="45.97356" lon="4.54967">
        <ele>484</ele>
        <time>1970-01-01T03:09:48.000Z</time>
      </trkpt>
      <trkpt lat="45.97354" lon="4.54966">
        <ele>483.8</ele>
        <time>1970-01-01T03:09:49.000Z</time>
      </trkpt>
      <trkpt lat="45.97353" lon="4.54964">
        <ele>483.7</ele>
        <time>1970-01-01T03:09:50.000Z</time>
      </trkpt>
      <trkpt lat="45.97351" lon="4.54963">
        <ele>483.5</ele>
        <time>1970-01-01T03:09:51.000Z</time>
      </trkpt>
      <trkpt lat="45.9735" lon="4.54962">
        <ele>483.3</ele>
        <time>1970-01-01T03:09:52.000Z</time>
      </trkpt>
      <trkpt lat="45.97348" lon="4.54961">
        <ele>483.2</ele>
        <time>1970-01-01T03:09:53.000Z</time>
      </trkpt>
      <trkpt lat="45.97348" lon="4.54961">
        <ele>483.2</ele>
        <time>1970-01-01T03:09:54.000Z</time>
      </trkpt>
      <trkpt lat="45.97346" lon="4.54957">
        <ele>482.9</ele>
        <time>1970-01-01T03:09:55.000Z</time>
      </trkpt>
      <trkpt lat="45.97346" lon="4.54957">
        <ele>482.9</ele>
        <time>1970-01-01T03:09:56.000Z</time>
      </trkpt>
      <trkpt lat="45.97345" lon="4.54953">
        <ele>482.5</ele>
        <time>1970-01-01T03:09:57.000Z</time>
      </trkpt>
      <trkpt lat="45.97344" lon="4.54951">
        <ele>482.3</ele>
        <time>1970-01-01T03:09:58.000Z</time>
      </trkpt>
      <trkpt lat="45.97343" lon="4.54948">
        <ele>482.2</ele>
        <time>1970-01-01T03:09:59.000Z</time>
      </trkpt>
      <trkpt lat="45.97343" lon="4.54948">
        <ele>482.2</ele>
        <time>1970-01-01T03:10:00.000Z</time>
      </trkpt>
      <trkpt lat="45.97341" lon="4.54945">
        <ele>481.9</ele>
        <time>1970-01-01T03:10:01.000Z</time>
      </trkpt>
      <trkpt lat="45.97341" lon="4.54945">
        <ele>481.9</ele>
        <time>1970-01-01T03:10:02.000Z</time>
      </trkpt>
      <trkpt lat="45.9734" lon="4.54942">
        <ele>481.7</ele>
        <time>1970-01-01T03:10:03.000Z</time>
      </trkpt>
      <trkpt lat="45.9734" lon="4.54942">
        <ele>481.7</ele>
        <time>1970-01-01T03:10:04.000Z</time>
      </trkpt>
      <trkpt lat="45.97339" lon="4.54939">
        <ele>481.5</ele>
        <time>1970-01-01T03:10:05.000Z</time>
      </trkpt>
      <trkpt lat="45.97339" lon="4.54939">
        <ele>481.5</ele>
        <time>1970-01-01T03:10:06.000Z</time>
      </trkpt>
      <trkpt lat="45.97337" lon="4.54937">
        <ele>481.3</ele>
        <time>1970-01-01T03:10:07.000Z</time>
      </trkpt>
      <trkpt lat="45.97337" lon="4.54937">
        <ele>481.3</ele>
        <time>1970-01-01T03:10:08.000Z</time>
      </trkpt>
      <trkpt lat="45.97335" lon="4.54934">
        <ele>481</ele>
        <time>1970-01-01T03:10:09.000Z</time>
      </trkpt>
      <trkpt lat="45.97335" lon="4.54934">
        <ele>481</ele>
        <time>1970-01-01T03:10:10.000Z</time>
      </trkpt>
      <trkpt lat="45.97333" lon="4.54933">
        <ele>480.8</ele>
        <time>1970-01-01T03:10:11.000Z</time>
      </trkpt>
      <trkpt lat="45.97333" lon="4.54933">
        <ele>480.8</ele>
        <time>1970-01-01T03:10:12.000Z</time>
      </trkpt>
      <trkpt lat="45.9733" lon="4.54931">
        <ele>480.6</ele>
        <time>1970-01-01T03:10:13.000Z</time>
      </trkpt>
      <trkpt lat="45.9733" lon="4.54931">
        <ele>480.6</ele>
        <time>1970-01-01T03:10:14.000Z</time>
      </trkpt>
      <trkpt lat="45.97328" lon="4.5493">
        <ele>480.4</ele>
        <time>1970-01-01T03:10:15.000Z</time>
      </trkpt>
      <trkpt lat="45.97328" lon="4.5493">
        <ele>480.4</ele>
        <time>1970-01-01T03:10:16.000Z</time>
      </trkpt>
      <trkpt lat="45.97326" lon="4.54929">
        <ele>480.1</ele>
        <time>1970-01-01T03:10:17.000Z</time>
      </trkpt>
      <trkpt lat="45.97326" lon="4.54929">
        <ele>480.1</ele>
        <time>1970-01-01T03:10:18.000Z</time>
      </trkpt>
      <trkpt lat="45.97323" lon="4.54928">
        <ele>479.9</ele>
        <time>1970-01-01T03:10:19.000Z</time>
      </trkpt>
      <trkpt lat="45.97323" lon="4.54928">
        <ele>479.9</ele>
        <time>1970-01-01T03:10:20.000Z</time>
      </trkpt>
      <trkpt lat="45.9732" lon="4.54926">
        <ele>479.6</ele>
        <time>1970-01-01T03:10:21.000Z</time>
      </trkpt>
      <trkpt lat="45.9732" lon="4.54926">
        <ele>479.6</ele>
        <time>1970-01-01T03:10:22.000Z</time>
      </trkpt>
      <trkpt lat="45.97317" lon="4.54925">
        <ele>479.3</ele>
        <time>1970-01-01T03:10:23.000Z</time>
      </trkpt>
      <trkpt lat="45.97317" lon="4.54925">
        <ele>479.3</ele>
        <time>1970-01-01T03:10:24.000Z</time>
      </trkpt>
      <trkpt lat="45.97315" lon="4.54923">
        <ele>479</ele>
        <time>1970-01-01T03:10:25.000Z</time>
      </trkpt>
      <trkpt lat="45.97315" lon="4.54923">
        <ele>479</ele>
        <time>1970-01-01T03:10:26.000Z</time>
      </trkpt>
      <trkpt lat="45.97313" lon="4.54921">
        <ele>478.8</ele>
        <time>1970-01-01T03:10:27.000Z</time>
      </trkpt>
      <trkpt lat="45.97313" lon="4.54921">
        <ele>478.8</ele>
        <time>1970-01-01T03:10:28.000Z</time>
      </trkpt>
      <trkpt lat="45.97311" lon="4.54918">
        <ele>478.5</ele>
        <time>1970-01-01T03:10:29.000Z</time>
      </trkpt>
      <trkpt lat="45.97311" lon="4.54918">
        <ele>478.5</ele>
        <time>1970-01-01T03:10:30.000Z</time>
      </trkpt>
      <trkpt lat="45.97309" lon="4.54916">
        <ele>478.2</ele>
        <time>1970-01-01T03:10:31.000Z</time>
      </trkpt>
      <trkpt lat="45.97309" lon="4.54916">
        <ele>478.2</ele>
        <time>1970-01-01T03:10:32.000Z</time>
      </trkpt>
      <trkpt lat="45.97307" lon="4.54913">
        <ele>478</ele>
        <time>1970-01-01T03:10:33.000Z</time>
      </trkpt>
      <trkpt lat="45.97307" lon="4.54913">
        <ele>478</ele>
        <time>1970-01-01T03:10:34.000Z</time>
      </trkpt>
      <trkpt lat="45.97305" lon="4.5491">
        <ele>477.6</ele>
        <time>1970-01-01T03:10:35.000Z</time>
      </trkpt>
      <trkpt lat="45.97305" lon="4.5491">
        <ele>477.6</ele>
        <time>1970-01-01T03:10:36.000Z</time>
      </trkpt>
      <trkpt lat="45.97304" lon="4.54907">
        <ele>477.3</ele>
        <time>1970-01-01T03:10:37.000Z</time>
      </trkpt>
      <trkpt lat="45.97304" lon="4.54907">
        <ele>477.3</ele>
        <time>1970-01-01T03:10:38.000Z</time>
      </trkpt>
      <trkpt lat="45.97302" lon="4.54903">
        <ele>477</ele>
        <time>1970-01-01T03:10:39.000Z</time>
      </trkpt>
      <trkpt lat="45.97302" lon="4.54903">
        <ele>477</ele>
        <time>1970-01-01T03:10:40.000Z</time>
      </trkpt>
      <trkpt lat="45.973" lon="4.54901">
        <ele>476.8</ele>
        <time>1970-01-01T03:10:41.000Z</time>
      </trkpt>
      <trkpt lat="45.973" lon="4.54901">
        <ele>476.8</ele>
        <time>1970-01-01T03:10:42.000Z</time>
      </trkpt>
      <trkpt lat="45.97298" lon="4.54898">
        <ele>476.5</ele>
        <time>1970-01-01T03:10:43.000Z</time>
      </trkpt>
      <trkpt lat="45.97298" lon="4.54898">
        <ele>476.5</ele>
        <time>1970-01-01T03:10:44.000Z</time>
      </trkpt>
      <trkpt lat="45.97296" lon="4.54896">
        <ele>476.3</ele>
        <time>1970-01-01T03:10:45.000Z</time>
      </trkpt>
      <trkpt lat="45.97296" lon="4.54896">
        <ele>476.3</ele>
        <time>1970-01-01T03:10:46.000Z</time>
      </trkpt>
      <trkpt lat="45.97294" lon="4.54894">
        <ele>476</ele>
        <time>1970-01-01T03:10:47.000Z</time>
      </trkpt>
      <trkpt lat="45.97294" lon="4.54894">
        <ele>476</ele>
        <time>1970-01-01T03:10:48.000Z</time>
      </trkpt>
      <trkpt lat="45.97292" lon="4.54893">
        <ele>475.8</ele>
        <time>1970-01-01T03:10:49.000Z</time>
      </trkpt>
      <trkpt lat="45.97292" lon="4.54893">
        <ele>475.8</ele>
        <time>1970-01-01T03:10:50.000Z</time>
      </trkpt>
      <trkpt lat="45.9729" lon="4.54891">
        <ele>475.6</ele>
        <time>1970-01-01T03:10:51.000Z</time>
      </trkpt>
      <trkpt lat="45.9729" lon="4.54891">
        <ele>475.6</ele>
        <time>1970-01-01T03:10:52.000Z</time>
      </trkpt>
      <trkpt lat="45.97288" lon="4.5489">
        <ele>475.4</ele>
        <time>1970-01-01T03:10:53.000Z</time>
      </trkpt>
      <trkpt lat="45.97288" lon="4.5489">
        <ele>475.4</ele>
        <time>1970-01-01T03:10:54.000Z</time>
      </trkpt>
      <trkpt lat="45.97286" lon="4.54889">
        <ele>475.2</ele>
        <time>1970-01-01T03:10:55.000Z</time>
      </trkpt>
      <trkpt lat="45.97286" lon="4.54889">
        <ele>475.2</ele>
        <time>1970-01-01T03:10:56.000Z</time>
      </trkpt>
      <trkpt lat="45.97284" lon="4.54889">
        <ele>475</ele>
        <time>1970-01-01T03:10:57.000Z</time>
      </trkpt>
      <trkpt lat="45.97284" lon="4.54889">
        <ele>475</ele>
        <time>1970-01-01T03:10:58.000Z</time>
      </trkpt>
      <trkpt lat="45.97281" lon="4.54888">
        <ele>474.8</ele>
        <time>1970-01-01T03:10:59.000Z</time>
      </trkpt>
      <trkpt lat="45.97281" lon="4.54888">
        <ele>474.8</ele>
        <time>1970-01-01T03:11:00.000Z</time>
      </trkpt>
      <trkpt lat="45.97278" lon="4.54887">
        <ele>474.5</ele>
        <time>1970-01-01T03:11:01.000Z</time>
      </trkpt>
      <trkpt lat="45.97278" lon="4.54887">
        <ele>474.5</ele>
        <time>1970-01-01T03:11:02.000Z</time>
      </trkpt>
      <trkpt lat="45.97275" lon="4.54886">
        <ele>474.2</ele>
        <time>1970-01-01T03:11:03.000Z</time>
      </trkpt>
      <trkpt lat="45.97275" lon="4.54886">
        <ele>474.2</ele>
        <time>1970-01-01T03:11:04.000Z</time>
      </trkpt>
      <trkpt lat="45.97272" lon="4.54885">
        <ele>473.9</ele>
        <time>1970-01-01T03:11:05.000Z</time>
      </trkpt>
      <trkpt lat="45.97272" lon="4.54885">
        <ele>473.9</ele>
        <time>1970-01-01T03:11:06.000Z</time>
      </trkpt>
      <trkpt lat="45.97269" lon="4.54884">
        <ele>473.7</ele>
        <time>1970-01-01T03:11:07.000Z</time>
      </trkpt>
      <trkpt lat="45.97269" lon="4.54884">
        <ele>473.7</ele>
        <time>1970-01-01T03:11:08.000Z</time>
      </trkpt>
      <trkpt lat="45.97266" lon="4.54883">
        <ele>473.4</ele>
        <time>1970-01-01T03:11:09.000Z</time>
      </trkpt>
      <trkpt lat="45.97266" lon="4.54883">
        <ele>473.4</ele>
        <time>1970-01-01T03:11:10.000Z</time>
      </trkpt>
      <trkpt lat="45.97263" lon="4.54881">
        <ele>473.2</ele>
        <time>1970-01-01T03:11:11.000Z</time>
      </trkpt>
      <trkpt lat="45.97263" lon="4.54881">
        <ele>473.2</ele>
        <time>1970-01-01T03:11:12.000Z</time>
      </trkpt>
      <trkpt lat="45.9726" lon="4.54879">
        <ele>473</ele>
        <time>1970-01-01T03:11:13.000Z</time>
      </trkpt>
      <trkpt lat="45.9726" lon="4.54879">
        <ele>473</ele>
        <time>1970-01-01T03:11:14.000Z</time>
      </trkpt>
      <trkpt lat="45.97258" lon="4.54876">
        <ele>472.8</ele>
        <time>1970-01-01T03:11:15.000Z</time>
      </trkpt>
      <trkpt lat="45.97257" lon="4.54874">
        <ele>472.7</ele>
        <time>1970-01-01T03:11:16.000Z</time>
      </trkpt>
      <trkpt lat="45.97256" lon="4.54872">
        <ele>472.5</ele>
        <time>1970-01-01T03:11:17.000Z</time>
      </trkpt>
      <trkpt lat="45.97255" lon="4.5487">
        <ele>472.6</ele>
        <time>1970-01-01T03:11:18.000Z</time>
      </trkpt>
      <trkpt lat="45.97254" lon="4.54868">
        <ele>472.6</ele>
        <time>1970-01-01T03:11:19.000Z</time>
      </trkpt>
      <trkpt lat="45.97253" lon="4.54866">
        <ele>472.7</ele>
        <time>1970-01-01T03:11:20.000Z</time>
      </trkpt>
      <trkpt lat="45.97252" lon="4.54864">
        <ele>472.8</ele>
        <time>1970-01-01T03:11:21.000Z</time>
      </trkpt>
      <trkpt lat="45.97252" lon="4.54864">
        <ele>472.8</ele>
        <time>1970-01-01T03:11:22.000Z</time>
      </trkpt>
      <trkpt lat="45.97251" lon="4.54859">
        <ele>472.9</ele>
        <time>1970-01-01T03:11:23.000Z</time>
      </trkpt>
      <trkpt lat="45.97251" lon="4.54856">
        <ele>473</ele>
        <time>1970-01-01T03:11:24.000Z</time>
      </trkpt>
      <trkpt lat="45.97251" lon="4.54856">
        <ele>473</ele>
        <time>1970-01-01T03:11:25.000Z</time>
      </trkpt>
      <trkpt lat="45.9725" lon="4.54852">
        <ele>473.1</ele>
        <time>1970-01-01T03:11:26.000Z</time>
      </trkpt>
      <trkpt lat="45.9725" lon="4.54852">
        <ele>473.1</ele>
        <time>1970-01-01T03:11:27.000Z</time>
      </trkpt>
      <trkpt lat="45.97249" lon="4.54848">
        <ele>473.2</ele>
        <time>1970-01-01T03:11:28.000Z</time>
      </trkpt>
      <trkpt lat="45.97249" lon="4.54848">
        <ele>473.2</ele>
        <time>1970-01-01T03:11:29.000Z</time>
      </trkpt>
      <trkpt lat="45.97249" lon="4.54843">
        <ele>473.4</ele>
        <time>1970-01-01T03:11:30.000Z</time>
      </trkpt>
      <trkpt lat="45.97249" lon="4.54841">
        <ele>473.4</ele>
        <time>1970-01-01T03:11:31.000Z</time>
      </trkpt>
      <trkpt lat="45.97249" lon="4.54839">
        <ele>473.5</ele>
        <time>1970-01-01T03:11:32.000Z</time>
      </trkpt>
      <trkpt lat="45.9725" lon="4.54837">
        <ele>473.6</ele>
        <time>1970-01-01T03:11:33.000Z</time>
      </trkpt>
      <trkpt lat="45.9725" lon="4.54835">
        <ele>473.6</ele>
        <time>1970-01-01T03:11:34.000Z</time>
      </trkpt>
      <trkpt lat="45.9725" lon="4.54833">
        <ele>473.7</ele>
        <time>1970-01-01T03:11:35.000Z</time>
      </trkpt>
      <trkpt lat="45.9725" lon="4.54833">
        <ele>473.7</ele>
        <time>1970-01-01T03:11:36.000Z</time>
      </trkpt>
      <trkpt lat="45.9725" lon="4.54833">
        <ele>473.7</ele>
        <time>1970-01-01T03:11:37.000Z</time>
      </trkpt>
      <trkpt lat="45.9725" lon="4.54828">
        <ele>473.9</ele>
        <time>1970-01-01T03:11:38.000Z</time>
      </trkpt>
      <trkpt lat="45.9725" lon="4.54828">
        <ele>473.9</ele>
        <time>1970-01-01T03:11:39.000Z</time>
      </trkpt>
      <trkpt lat="45.97249" lon="4.54824">
        <ele>474.1</ele>
        <time>1970-01-01T03:11:40.000Z</time>
      </trkpt>
      <trkpt lat="45.97249" lon="4.54824">
        <ele>474.1</ele>
        <time>1970-01-01T03:11:41.000Z</time>
      </trkpt>
      <trkpt lat="45.97249" lon="4.5482">
        <ele>474.2</ele>
        <time>1970-01-01T03:11:42.000Z</time>
      </trkpt>
      <trkpt lat="45.97249" lon="4.5482">
        <ele>474.2</ele>
        <time>1970-01-01T03:11:43.000Z</time>
      </trkpt>
      <trkpt lat="45.97249" lon="4.54817">
        <ele>474.3</ele>
        <time>1970-01-01T03:11:44.000Z</time>
      </trkpt>
      <trkpt lat="45.97249" lon="4.54817">
        <ele>474.3</ele>
        <time>1970-01-01T03:11:45.000Z</time>
      </trkpt>
      <trkpt lat="45.97249" lon="4.54813">
        <ele>474.4</ele>
        <time>1970-01-01T03:11:46.000Z</time>
      </trkpt>
      <trkpt lat="45.97249" lon="4.54813">
        <ele>474.4</ele>
        <time>1970-01-01T03:11:47.000Z</time>
      </trkpt>
      <trkpt lat="45.9725" lon="4.54809">
        <ele>474.5</ele>
        <time>1970-01-01T03:11:48.000Z</time>
      </trkpt>
      <trkpt lat="45.9725" lon="4.54809">
        <ele>474.5</ele>
        <time>1970-01-01T03:11:49.000Z</time>
      </trkpt>
      <trkpt lat="45.97249" lon="4.54807">
        <ele>474.5</ele>
        <time>1970-01-01T03:11:50.000Z</time>
      </trkpt>
      <trkpt lat="45.97249" lon="4.54807">
        <ele>474.5</ele>
        <time>1970-01-01T03:11:51.000Z</time>
      </trkpt>
      <trkpt lat="45.97249" lon="4.54803">
        <ele>474.6</ele>
        <time>1970-01-01T03:11:52.000Z</time>
      </trkpt>
      <trkpt lat="45.97249" lon="4.54803">
        <ele>474.6</ele>
        <time>1970-01-01T03:11:53.000Z</time>
      </trkpt>
      <trkpt lat="45.9725" lon="4.548">
        <ele>474.7</ele>
        <time>1970-01-01T03:11:54.000Z</time>
      </trkpt>
      <trkpt lat="45.9725" lon="4.548">
        <ele>474.7</ele>
        <time>1970-01-01T03:11:55.000Z</time>
      </trkpt>
      <trkpt lat="45.9725" lon="4.54796">
        <ele>474.7</ele>
        <time>1970-01-01T03:11:56.000Z</time>
      </trkpt>
      <trkpt lat="45.9725" lon="4.54796">
        <ele>474.7</ele>
        <time>1970-01-01T03:11:57.000Z</time>
      </trkpt>
      <trkpt lat="45.9725" lon="4.54792">
        <ele>474.8</ele>
        <time>1970-01-01T03:11:58.000Z</time>
      </trkpt>
      <trkpt lat="45.9725" lon="4.54792">
        <ele>474.8</ele>
        <time>1970-01-01T03:11:59.000Z</time>
      </trkpt>
      <trkpt lat="45.9725" lon="4.54788">
        <ele>474.8</ele>
        <time>1970-01-01T03:12:00.000Z</time>
      </trkpt>
      <trkpt lat="45.9725" lon="4.54788">
        <ele>474.8</ele>
        <time>1970-01-01T03:12:01.000Z</time>
      </trkpt>
      <trkpt lat="45.9725" lon="4.54785">
        <ele>474.9</ele>
        <time>1970-01-01T03:12:02.000Z</time>
      </trkpt>
      <trkpt lat="45.9725" lon="4.54785">
        <ele>474.9</ele>
        <time>1970-01-01T03:12:03.000Z</time>
      </trkpt>
      <trkpt lat="45.9725" lon="4.54781">
        <ele>474.9</ele>
        <time>1970-01-01T03:12:04.000Z</time>
      </trkpt>
      <trkpt lat="45.9725" lon="4.5478">
        <ele>474.9</ele>
        <time>1970-01-01T03:12:05.000Z</time>
      </trkpt>
      <trkpt lat="45.9725" lon="4.54778">
        <ele>475</ele>
        <time>1970-01-01T03:12:06.000Z</time>
      </trkpt>
      <trkpt lat="45.9725" lon="4.54776">
        <ele>475</ele>
        <time>1970-01-01T03:12:07.000Z</time>
      </trkpt>
      <trkpt lat="45.9725" lon="4.54774">
        <ele>475</ele>
        <time>1970-01-01T03:12:08.000Z</time>
      </trkpt>
      <trkpt lat="45.9725" lon="4.54773">
        <ele>475.1</ele>
        <time>1970-01-01T03:12:09.000Z</time>
      </trkpt>
      <trkpt lat="45.9725" lon="4.54771">
        <ele>475.1</ele>
        <time>1970-01-01T03:12:10.000Z</time>
      </trkpt>
      <trkpt lat="45.9725" lon="4.54769">
        <ele>475.2</ele>
        <time>1970-01-01T03:12:11.000Z</time>
      </trkpt>
      <trkpt lat="45.9725" lon="4.54767">
        <ele>475.2</ele>
        <time>1970-01-01T03:12:12.000Z</time>
      </trkpt>
      <trkpt lat="45.9725" lon="4.54767">
        <ele>475.2</ele>
        <time>1970-01-01T03:12:13.000Z</time>
      </trkpt>
      <trkpt lat="45.9725" lon="4.54764">
        <ele>475.3</ele>
        <time>1970-01-01T03:12:14.000Z</time>
      </trkpt>
      <trkpt lat="45.9725" lon="4.54764">
        <ele>475.3</ele>
        <time>1970-01-01T03:12:15.000Z</time>
      </trkpt>
      <trkpt lat="45.97251" lon="4.54761">
        <ele>475.4</ele>
        <time>1970-01-01T03:12:16.000Z</time>
      </trkpt>
      <trkpt lat="45.97251" lon="4.54761">
        <ele>475.4</ele>
        <time>1970-01-01T03:12:17.000Z</time>
      </trkpt>
      <trkpt lat="45.97251" lon="4.54761">
        <ele>475.4</ele>
        <time>1970-01-01T03:12:18.000Z</time>
      </trkpt>
      <trkpt lat="45.97252" lon="4.54757">
        <ele>475.5</ele>
        <time>1970-01-01T03:12:19.000Z</time>
      </trkpt>
      <trkpt lat="45.97252" lon="4.54757">
        <ele>475.5</ele>
        <time>1970-01-01T03:12:20.000Z</time>
      </trkpt>
      <trkpt lat="45.97252" lon="4.54753">
        <ele>475.6</ele>
        <time>1970-01-01T03:12:21.000Z</time>
      </trkpt>
      <trkpt lat="45.97252" lon="4.54753">
        <ele>475.6</ele>
        <time>1970-01-01T03:12:22.000Z</time>
      </trkpt>
      <trkpt lat="45.97251" lon="4.5475">
        <ele>475.7</ele>
        <time>1970-01-01T03:12:23.000Z</time>
      </trkpt>
      <trkpt lat="45.97251" lon="4.5475">
        <ele>475.7</ele>
        <time>1970-01-01T03:12:24.000Z</time>
      </trkpt>
      <trkpt lat="45.97252" lon="4.54746">
        <ele>475.8</ele>
        <time>1970-01-01T03:12:25.000Z</time>
      </trkpt>
      <trkpt lat="45.97252" lon="4.54746">
        <ele>475.8</ele>
        <time>1970-01-01T03:12:26.000Z</time>
      </trkpt>
      <trkpt lat="45.97252" lon="4.54743">
        <ele>475.8</ele>
        <time>1970-01-01T03:12:27.000Z</time>
      </trkpt>
      <trkpt lat="45.97252" lon="4.54743">
        <ele>475.8</ele>
        <time>1970-01-01T03:12:28.000Z</time>
      </trkpt>
      <trkpt lat="45.97252" lon="4.54739">
        <ele>475.9</ele>
        <time>1970-01-01T03:12:29.000Z</time>
      </trkpt>
      <trkpt lat="45.97252" lon="4.54739">
        <ele>475.9</ele>
        <time>1970-01-01T03:12:30.000Z</time>
      </trkpt>
      <trkpt lat="45.97252" lon="4.54739">
        <ele>475.9</ele>
        <time>1970-01-01T03:12:31.000Z</time>
      </trkpt>
      <trkpt lat="45.97252" lon="4.54736">
        <ele>476</ele>
        <time>1970-01-01T03:12:32.000Z</time>
      </trkpt>
      <trkpt lat="45.97252" lon="4.54736">
        <ele>476</ele>
        <time>1970-01-01T03:12:33.000Z</time>
      </trkpt>
      <trkpt lat="45.97253" lon="4.54733">
        <ele>476.1</ele>
        <time>1970-01-01T03:12:34.000Z</time>
      </trkpt>
      <trkpt lat="45.97253" lon="4.54733">
        <ele>476.1</ele>
        <time>1970-01-01T03:12:35.000Z</time>
      </trkpt>
      <trkpt lat="45.97253" lon="4.5473">
        <ele>476.1</ele>
        <time>1970-01-01T03:12:36.000Z</time>
      </trkpt>
      <trkpt lat="45.97253" lon="4.54729">
        <ele>476.1</ele>
        <time>1970-01-01T03:12:37.000Z</time>
      </trkpt>
      <trkpt lat="45.97253" lon="4.54728">
        <ele>476.2</ele>
        <time>1970-01-01T03:12:38.000Z</time>
      </trkpt>
      <trkpt lat="45.97252" lon="4.54726">
        <ele>476.2</ele>
        <time>1970-01-01T03:12:39.000Z</time>
      </trkpt>
      <trkpt lat="45.97252" lon="4.54725">
        <ele>476.2</ele>
        <time>1970-01-01T03:12:40.000Z</time>
      </trkpt>
      <trkpt lat="45.97251" lon="4.54724">
        <ele>476.2</ele>
        <time>1970-01-01T03:12:41.000Z</time>
      </trkpt>
      <trkpt lat="45.97251" lon="4.54722">
        <ele>476.3</ele>
        <time>1970-01-01T03:12:42.000Z</time>
      </trkpt>
      <trkpt lat="45.97251" lon="4.54721">
        <ele>476.3</ele>
        <time>1970-01-01T03:12:43.000Z</time>
      </trkpt>
      <trkpt lat="45.9725" lon="4.5472">
        <ele>476.3</ele>
        <time>1970-01-01T03:12:44.000Z</time>
      </trkpt>
      <trkpt lat="45.9725" lon="4.54718">
        <ele>476.3</ele>
        <time>1970-01-01T03:12:45.000Z</time>
      </trkpt>
      <trkpt lat="45.9725" lon="4.54718">
        <ele>476.3</ele>
        <time>1970-01-01T03:12:46.000Z</time>
      </trkpt>
      <trkpt lat="45.97249" lon="4.54715">
        <ele>476.4</ele>
        <time>1970-01-01T03:12:47.000Z</time>
      </trkpt>
      <trkpt lat="45.97248" lon="4.54714">
        <ele>476.4</ele>
        <time>1970-01-01T03:12:48.000Z</time>
      </trkpt>
      <trkpt lat="45.97248" lon="4.54713">
        <ele>476.4</ele>
        <time>1970-01-01T03:12:49.000Z</time>
      </trkpt>
      <trkpt lat="45.97248" lon="4.54712">
        <ele>476.4</ele>
        <time>1970-01-01T03:12:50.000Z</time>
      </trkpt>
      <trkpt lat="45.97247" lon="4.54711">
        <ele>476.5</ele>
        <time>1970-01-01T03:12:51.000Z</time>
      </trkpt>
      <trkpt lat="45.97247" lon="4.54711">
        <ele>476.5</ele>
        <time>1970-01-01T03:12:52.000Z</time>
      </trkpt>
      <trkpt lat="45.97246" lon="4.5471">
        <ele>476.5</ele>
        <time>1970-01-01T03:12:53.000Z</time>
      </trkpt>
      <trkpt lat="45.97246" lon="4.54709">
        <ele>476.5</ele>
        <time>1970-01-01T03:12:54.000Z</time>
      </trkpt>
      <trkpt lat="45.97246" lon="4.54709">
        <ele>476.5</ele>
        <time>1970-01-01T03:12:55.000Z</time>
      </trkpt>
      <trkpt lat="45.97245" lon="4.54707">
        <ele>476.6</ele>
        <time>1970-01-01T03:12:56.000Z</time>
      </trkpt>
      <trkpt lat="45.97244" lon="4.54704">
        <ele>476.6</ele>
        <time>1970-01-01T03:12:57.000Z</time>
      </trkpt>
      <trkpt lat="45.97244" lon="4.54702">
        <ele>476.6</ele>
        <time>1970-01-01T03:12:58.000Z</time>
      </trkpt>
      <trkpt lat="45.97243" lon="4.547">
        <ele>476.7</ele>
        <time>1970-01-01T03:12:59.000Z</time>
      </trkpt>
      <trkpt lat="45.97242" lon="4.54697">
        <ele>476.7</ele>
        <time>1970-01-01T03:13:00.000Z</time>
      </trkpt>
      <trkpt lat="45.97241" lon="4.54695">
        <ele>476.8</ele>
        <time>1970-01-01T03:13:01.000Z</time>
      </trkpt>
      <trkpt lat="45.9724" lon="4.54693">
        <ele>476.8</ele>
        <time>1970-01-01T03:13:02.000Z</time>
      </trkpt>
      <trkpt lat="45.97239" lon="4.54692">
        <ele>476.9</ele>
        <time>1970-01-01T03:13:03.000Z</time>
      </trkpt>
      <trkpt lat="45.97238" lon="4.5469">
        <ele>476.9</ele>
        <time>1970-01-01T03:13:04.000Z</time>
      </trkpt>
      <trkpt lat="45.97238" lon="4.5469">
        <ele>476.9</ele>
        <time>1970-01-01T03:13:05.000Z</time>
      </trkpt>
      <trkpt lat="45.97237" lon="4.54687">
        <ele>477</ele>
        <time>1970-01-01T03:13:06.000Z</time>
      </trkpt>
      <trkpt lat="45.97237" lon="4.54687">
        <ele>477</ele>
        <time>1970-01-01T03:13:07.000Z</time>
      </trkpt>
      <trkpt lat="45.97237" lon="4.54687">
        <ele>477</ele>
        <time>1970-01-01T03:13:08.000Z</time>
      </trkpt>
      <trkpt lat="45.97237" lon="4.54687">
        <ele>477</ele>
        <time>1970-01-01T03:13:09.000Z</time>
      </trkpt>
      <trkpt lat="45.97237" lon="4.54687">
        <ele>477</ele>
        <time>1970-01-01T03:13:10.000Z</time>
      </trkpt>
      <trkpt lat="45.97237" lon="4.54687">
        <ele>477</ele>
        <time>1970-01-01T03:13:11.000Z</time>
      </trkpt>
      <trkpt lat="45.97234" lon="4.54683">
        <ele>477.2</ele>
        <time>1970-01-01T03:13:12.000Z</time>
      </trkpt>
      <trkpt lat="45.97234" lon="4.54683">
        <ele>477.2</ele>
        <time>1970-01-01T03:13:13.000Z</time>
      </trkpt>
      <trkpt lat="45.97232" lon="4.5468">
        <ele>477.3</ele>
        <time>1970-01-01T03:13:14.000Z</time>
      </trkpt>
      <trkpt lat="45.97232" lon="4.5468">
        <ele>477.3</ele>
        <time>1970-01-01T03:13:15.000Z</time>
      </trkpt>
      <trkpt lat="45.9723" lon="4.54677">
        <ele>477.3</ele>
        <time>1970-01-01T03:13:16.000Z</time>
      </trkpt>
      <trkpt lat="45.97229" lon="4.54675">
        <ele>477.4</ele>
        <time>1970-01-01T03:13:17.000Z</time>
      </trkpt>
      <trkpt lat="45.97228" lon="4.54673">
        <ele>477.5</ele>
        <time>1970-01-01T03:13:18.000Z</time>
      </trkpt>
      <trkpt lat="45.97226" lon="4.54672">
        <ele>477.5</ele>
        <time>1970-01-01T03:13:19.000Z</time>
      </trkpt>
      <trkpt lat="45.97226" lon="4.54672">
        <ele>477.5</ele>
        <time>1970-01-01T03:13:20.000Z</time>
      </trkpt>
      <trkpt lat="45.97224" lon="4.54668">
        <ele>477.6</ele>
        <time>1970-01-01T03:13:21.000Z</time>
      </trkpt>
      <trkpt lat="45.97224" lon="4.54668">
        <ele>477.6</ele>
        <time>1970-01-01T03:13:22.000Z</time>
      </trkpt>
      <trkpt lat="45.97222" lon="4.54666">
        <ele>477.7</ele>
        <time>1970-01-01T03:13:23.000Z</time>
      </trkpt>
      <trkpt lat="45.97222" lon="4.54666">
        <ele>477.7</ele>
        <time>1970-01-01T03:13:24.000Z</time>
      </trkpt>
      <trkpt lat="45.97221" lon="4.54663">
        <ele>477.8</ele>
        <time>1970-01-01T03:13:25.000Z</time>
      </trkpt>
      <trkpt lat="45.97221" lon="4.54663">
        <ele>477.8</ele>
        <time>1970-01-01T03:13:26.000Z</time>
      </trkpt>
      <trkpt lat="45.97219" lon="4.54661">
        <ele>477.9</ele>
        <time>1970-01-01T03:13:27.000Z</time>
      </trkpt>
      <trkpt lat="45.97219" lon="4.54661">
        <ele>477.9</ele>
        <time>1970-01-01T03:13:28.000Z</time>
      </trkpt>
      <trkpt lat="45.97217" lon="4.54657">
        <ele>477.9</ele>
        <time>1970-01-01T03:13:29.000Z</time>
      </trkpt>
      <trkpt lat="45.97217" lon="4.54657">
        <ele>477.9</ele>
        <time>1970-01-01T03:13:30.000Z</time>
      </trkpt>
      <trkpt lat="45.97215" lon="4.54654">
        <ele>478</ele>
        <time>1970-01-01T03:13:31.000Z</time>
      </trkpt>
      <trkpt lat="45.97215" lon="4.54654">
        <ele>478</ele>
        <time>1970-01-01T03:13:32.000Z</time>
      </trkpt>
      <trkpt lat="45.97213" lon="4.54651">
        <ele>478.1</ele>
        <time>1970-01-01T03:13:33.000Z</time>
      </trkpt>
      <trkpt lat="45.97213" lon="4.54651">
        <ele>478.1</ele>
        <time>1970-01-01T03:13:34.000Z</time>
      </trkpt>
      <trkpt lat="45.97212" lon="4.54648">
        <ele>478.1</ele>
        <time>1970-01-01T03:13:35.000Z</time>
      </trkpt>
      <trkpt lat="45.97211" lon="4.54646">
        <ele>478.1</ele>
        <time>1970-01-01T03:13:36.000Z</time>
      </trkpt>
      <trkpt lat="45.9721" lon="4.54644">
        <ele>478.2</ele>
        <time>1970-01-01T03:13:37.000Z</time>
      </trkpt>
      <trkpt lat="45.9721" lon="4.54642">
        <ele>478.2</ele>
        <time>1970-01-01T03:13:38.000Z</time>
      </trkpt>
      <trkpt lat="45.97209" lon="4.54641">
        <ele>478.2</ele>
        <time>1970-01-01T03:13:39.000Z</time>
      </trkpt>
      <trkpt lat="45.97209" lon="4.54641">
        <ele>478.2</ele>
        <time>1970-01-01T03:13:40.000Z</time>
      </trkpt>
      <trkpt lat="45.97208" lon="4.54637">
        <ele>478.2</ele>
        <time>1970-01-01T03:13:41.000Z</time>
      </trkpt>
      <trkpt lat="45.97207" lon="4.54636">
        <ele>478.2</ele>
        <time>1970-01-01T03:13:42.000Z</time>
      </trkpt>
      <trkpt lat="45.97206" lon="4.54634">
        <ele>478.2</ele>
        <time>1970-01-01T03:13:43.000Z</time>
      </trkpt>
      <trkpt lat="45.97205" lon="4.54633">
        <ele>478.2</ele>
        <time>1970-01-01T03:13:44.000Z</time>
      </trkpt>
      <trkpt lat="45.97205" lon="4.54632">
        <ele>478.1</ele>
        <time>1970-01-01T03:13:45.000Z</time>
      </trkpt>
      <trkpt lat="45.97204" lon="4.5463">
        <ele>478.1</ele>
        <time>1970-01-01T03:13:46.000Z</time>
      </trkpt>
      <trkpt lat="45.97204" lon="4.5463">
        <ele>478.1</ele>
        <time>1970-01-01T03:13:47.000Z</time>
      </trkpt>
      <trkpt lat="45.97202" lon="4.54628">
        <ele>478.1</ele>
        <time>1970-01-01T03:13:48.000Z</time>
      </trkpt>
      <trkpt lat="45.97202" lon="4.54628">
        <ele>478.1</ele>
        <time>1970-01-01T03:13:49.000Z</time>
      </trkpt>
      <trkpt lat="45.972" lon="4.54625">
        <ele>478</ele>
        <time>1970-01-01T03:13:50.000Z</time>
      </trkpt>
      <trkpt lat="45.972" lon="4.54625">
        <ele>478</ele>
        <time>1970-01-01T03:13:51.000Z</time>
      </trkpt>
      <trkpt lat="45.97198" lon="4.54622">
        <ele>478</ele>
        <time>1970-01-01T03:13:52.000Z</time>
      </trkpt>
      <trkpt lat="45.97198" lon="4.54622">
        <ele>478</ele>
        <time>1970-01-01T03:13:53.000Z</time>
      </trkpt>
      <trkpt lat="45.97197" lon="4.5462">
        <ele>477.9</ele>
        <time>1970-01-01T03:13:54.000Z</time>
      </trkpt>
      <trkpt lat="45.97197" lon="4.5462">
        <ele>477.9</ele>
        <time>1970-01-01T03:13:55.000Z</time>
      </trkpt>
      <trkpt lat="45.97196" lon="4.54618">
        <ele>477.8</ele>
        <time>1970-01-01T03:13:56.000Z</time>
      </trkpt>
      <trkpt lat="45.97196" lon="4.54618">
        <ele>477.8</ele>
        <time>1970-01-01T03:13:57.000Z</time>
      </trkpt>
      <trkpt lat="45.97194" lon="4.54615">
        <ele>477.8</ele>
        <time>1970-01-01T03:13:58.000Z</time>
      </trkpt>
      <trkpt lat="45.97194" lon="4.54615">
        <ele>477.8</ele>
        <time>1970-01-01T03:13:59.000Z</time>
      </trkpt>
      <trkpt lat="45.97193" lon="4.54613">
        <ele>477.7</ele>
        <time>1970-01-01T03:14:00.000Z</time>
      </trkpt>
      <trkpt lat="45.97193" lon="4.54613">
        <ele>477.7</ele>
        <time>1970-01-01T03:14:01.000Z</time>
      </trkpt>
      <trkpt lat="45.97192" lon="4.5461">
        <ele>477.7</ele>
        <time>1970-01-01T03:14:02.000Z</time>
      </trkpt>
      <trkpt lat="45.97192" lon="4.5461">
        <ele>477.7</ele>
        <time>1970-01-01T03:14:03.000Z</time>
      </trkpt>
      <trkpt lat="45.9719" lon="4.54608">
        <ele>477.6</ele>
        <time>1970-01-01T03:14:04.000Z</time>
      </trkpt>
      <trkpt lat="45.9719" lon="4.54608">
        <ele>477.6</ele>
        <time>1970-01-01T03:14:05.000Z</time>
      </trkpt>
      <trkpt lat="45.97189" lon="4.54605">
        <ele>477.5</ele>
        <time>1970-01-01T03:14:06.000Z</time>
      </trkpt>
      <trkpt lat="45.97189" lon="4.54605">
        <ele>477.5</ele>
        <time>1970-01-01T03:14:07.000Z</time>
      </trkpt>
      <trkpt lat="45.97188" lon="4.54603">
        <ele>477.5</ele>
        <time>1970-01-01T03:14:08.000Z</time>
      </trkpt>
      <trkpt lat="45.97188" lon="4.54603">
        <ele>477.5</ele>
        <time>1970-01-01T03:14:09.000Z</time>
      </trkpt>
      <trkpt lat="45.97188" lon="4.546">
        <ele>477.4</ele>
        <time>1970-01-01T03:14:10.000Z</time>
      </trkpt>
      <trkpt lat="45.97188" lon="4.546">
        <ele>477.4</ele>
        <time>1970-01-01T03:14:11.000Z</time>
      </trkpt>
      <trkpt lat="45.97188" lon="4.546">
        <ele>477.4</ele>
        <time>1970-01-01T03:14:12.000Z</time>
      </trkpt>
      <trkpt lat="45.97187" lon="4.54597">
        <ele>477.4</ele>
        <time>1970-01-01T03:14:13.000Z</time>
      </trkpt>
      <trkpt lat="45.97187" lon="4.54597">
        <ele>477.4</ele>
        <time>1970-01-01T03:14:14.000Z</time>
      </trkpt>
      <trkpt lat="45.97186" lon="4.54594">
        <ele>477.3</ele>
        <time>1970-01-01T03:14:15.000Z</time>
      </trkpt>
      <trkpt lat="45.97186" lon="4.54594">
        <ele>477.3</ele>
        <time>1970-01-01T03:14:16.000Z</time>
      </trkpt>
      <trkpt lat="45.97186" lon="4.54594">
        <ele>477.3</ele>
        <time>1970-01-01T03:14:17.000Z</time>
      </trkpt>
      <trkpt lat="45.97186" lon="4.54594">
        <ele>477.3</ele>
        <time>1970-01-01T03:14:18.000Z</time>
      </trkpt>
      <trkpt lat="45.97186" lon="4.54594">
        <ele>477.3</ele>
        <time>1970-01-01T03:14:19.000Z</time>
      </trkpt>
      <trkpt lat="45.97185" lon="4.54589">
        <ele>477.2</ele>
        <time>1970-01-01T03:14:20.000Z</time>
      </trkpt>
      <trkpt lat="45.97185" lon="4.54589">
        <ele>477.2</ele>
        <time>1970-01-01T03:14:21.000Z</time>
      </trkpt>
      <trkpt lat="45.97185" lon="4.54586">
        <ele>477.2</ele>
        <time>1970-01-01T03:14:22.000Z</time>
      </trkpt>
      <trkpt lat="45.97185" lon="4.54586">
        <ele>477.2</ele>
        <time>1970-01-01T03:14:23.000Z</time>
      </trkpt>
      <trkpt lat="45.97185" lon="4.54582">
        <ele>477.1</ele>
        <time>1970-01-01T03:14:24.000Z</time>
      </trkpt>
      <trkpt lat="45.97184" lon="4.54581">
        <ele>477.1</ele>
        <time>1970-01-01T03:14:25.000Z</time>
      </trkpt>
      <trkpt lat="45.97184" lon="4.54579">
        <ele>477.1</ele>
        <time>1970-01-01T03:14:26.000Z</time>
      </trkpt>
      <trkpt lat="45.97184" lon="4.54578">
        <ele>477.1</ele>
        <time>1970-01-01T03:14:27.000Z</time>
      </trkpt>
      <trkpt lat="45.97183" lon="4.54576">
        <ele>477</ele>
        <time>1970-01-01T03:14:28.000Z</time>
      </trkpt>
      <trkpt lat="45.97183" lon="4.54576">
        <ele>477</ele>
        <time>1970-01-01T03:14:29.000Z</time>
      </trkpt>
      <trkpt lat="45.97183" lon="4.54573">
        <ele>477</ele>
        <time>1970-01-01T03:14:30.000Z</time>
      </trkpt>
      <trkpt lat="45.97183" lon="4.54573">
        <ele>477</ele>
        <time>1970-01-01T03:14:31.000Z</time>
      </trkpt>
      <trkpt lat="45.97183" lon="4.54573">
        <ele>477</ele>
        <time>1970-01-01T03:14:32.000Z</time>
      </trkpt>
      <trkpt lat="45.97182" lon="4.54569">
        <ele>476.9</ele>
        <time>1970-01-01T03:14:33.000Z</time>
      </trkpt>
      <trkpt lat="45.97182" lon="4.54569">
        <ele>476.9</ele>
        <time>1970-01-01T03:14:34.000Z</time>
      </trkpt>
      <trkpt lat="45.97182" lon="4.54569">
        <ele>476.9</ele>
        <time>1970-01-01T03:14:35.000Z</time>
      </trkpt>
      <trkpt lat="45.97182" lon="4.54569">
        <ele>476.9</ele>
        <time>1970-01-01T03:14:36.000Z</time>
      </trkpt>
      <trkpt lat="45.97182" lon="4.54563">
        <ele>476.8</ele>
        <time>1970-01-01T03:14:37.000Z</time>
      </trkpt>
      <trkpt lat="45.97182" lon="4.54563">
        <ele>476.8</ele>
        <time>1970-01-01T03:14:38.000Z</time>
      </trkpt>
      <trkpt lat="45.97181" lon="4.5456">
        <ele>476.8</ele>
        <time>1970-01-01T03:14:39.000Z</time>
      </trkpt>
      <trkpt lat="45.97181" lon="4.5456">
        <ele>476.8</ele>
        <time>1970-01-01T03:14:40.000Z</time>
      </trkpt>
      <trkpt lat="45.9718" lon="4.54557">
        <ele>476.7</ele>
        <time>1970-01-01T03:14:41.000Z</time>
      </trkpt>
      <trkpt lat="45.9718" lon="4.54557">
        <ele>476.7</ele>
        <time>1970-01-01T03:14:42.000Z</time>
      </trkpt>
      <trkpt lat="45.9718" lon="4.54554">
        <ele>476.7</ele>
        <time>1970-01-01T03:14:43.000Z</time>
      </trkpt>
      <trkpt lat="45.9718" lon="4.54554">
        <ele>476.7</ele>
        <time>1970-01-01T03:14:44.000Z</time>
      </trkpt>
      <trkpt lat="45.97179" lon="4.54551">
        <ele>476.6</ele>
        <time>1970-01-01T03:14:45.000Z</time>
      </trkpt>
      <trkpt lat="45.97179" lon="4.54551">
        <ele>476.6</ele>
        <time>1970-01-01T03:14:46.000Z</time>
      </trkpt>
      <trkpt lat="45.97179" lon="4.54551">
        <ele>476.6</ele>
        <time>1970-01-01T03:14:47.000Z</time>
      </trkpt>
      <trkpt lat="45.97179" lon="4.54548">
        <ele>476.5</ele>
        <time>1970-01-01T03:14:48.000Z</time>
      </trkpt>
      <trkpt lat="45.97179" lon="4.54548">
        <ele>476.5</ele>
        <time>1970-01-01T03:14:49.000Z</time>
      </trkpt>
      <trkpt lat="45.97179" lon="4.54548">
        <ele>476.5</ele>
        <time>1970-01-01T03:14:50.000Z</time>
      </trkpt>
      <trkpt lat="45.97179" lon="4.54548">
        <ele>476.5</ele>
        <time>1970-01-01T03:14:51.000Z</time>
      </trkpt>
      <trkpt lat="45.97179" lon="4.54548">
        <ele>476.5</ele>
        <time>1970-01-01T03:14:52.000Z</time>
      </trkpt>
      <trkpt lat="45.97179" lon="4.54548">
        <ele>476.5</ele>
        <time>1970-01-01T03:14:53.000Z</time>
      </trkpt>
      <trkpt lat="45.97179" lon="4.54548">
        <ele>476.5</ele>
        <time>1970-01-01T03:14:54.000Z</time>
      </trkpt>
      <trkpt lat="45.97179" lon="4.54548">
        <ele>476.5</ele>
        <time>1970-01-01T03:14:55.000Z</time>
      </trkpt>
      <trkpt lat="45.97179" lon="4.54545">
        <ele>476.5</ele>
        <time>1970-01-01T03:14:56.000Z</time>
      </trkpt>
      <trkpt lat="45.97179" lon="4.54545">
        <ele>476.5</ele>
        <time>1970-01-01T03:14:57.000Z</time>
      </trkpt>
      <trkpt lat="45.97179" lon="4.54545">
        <ele>476.5</ele>
        <time>1970-01-01T03:14:58.000Z</time>
      </trkpt>
      <trkpt lat="45.97179" lon="4.54541">
        <ele>476.4</ele>
        <time>1970-01-01T03:14:59.000Z</time>
      </trkpt>
      <trkpt lat="45.97179" lon="4.54541">
        <ele>476.4</ele>
        <time>1970-01-01T03:15:00.000Z</time>
      </trkpt>
      <trkpt lat="45.97179" lon="4.54541">
        <ele>476.4</ele>
        <time>1970-01-01T03:15:01.000Z</time>
      </trkpt>
      <trkpt lat="45.97178" lon="4.54538">
        <ele>476.3</ele>
        <time>1970-01-01T03:15:02.000Z</time>
      </trkpt>
      <trkpt lat="45.97178" lon="4.54538">
        <ele>476.3</ele>
        <time>1970-01-01T03:15:03.000Z</time>
      </trkpt>
      <trkpt lat="45.97178" lon="4.54538">
        <ele>476.3</ele>
        <time>1970-01-01T03:15:04.000Z</time>
      </trkpt>
      <trkpt lat="45.97178" lon="4.54535">
        <ele>476.2</ele>
        <time>1970-01-01T03:15:05.000Z</time>
      </trkpt>
      <trkpt lat="45.97178" lon="4.54535">
        <ele>476.2</ele>
        <time>1970-01-01T03:15:06.000Z</time>
      </trkpt>
      <trkpt lat="45.97178" lon="4.54535">
        <ele>476.2</ele>
        <time>1970-01-01T03:15:07.000Z</time>
      </trkpt>
      <trkpt lat="45.97178" lon="4.54532">
        <ele>476.1</ele>
        <time>1970-01-01T03:15:08.000Z</time>
      </trkpt>
      <trkpt lat="45.97178" lon="4.54532">
        <ele>476.1</ele>
        <time>1970-01-01T03:19:53.000Z</time>
      </trkpt>
      <trkpt lat="45.97178" lon="4.54532">
        <ele>476.1</ele>
        <time>1970-01-01T03:22:03.000Z</time>
      </trkpt>
      <trkpt lat="45.97178" lon="4.54532">
        <ele>476.1</ele>
        <time>1970-01-01T03:22:04.000Z</time>
      </trkpt>
      <trkpt lat="45.97178" lon="4.54532">
        <ele>476.1</ele>
        <time>1970-01-01T03:23:41.000Z</time>
      </trkpt>
      <trkpt lat="45.97178" lon="4.54532">
        <ele>476.1</ele>
        <time>1970-01-01T03:23:42.000Z</time>
      </trkpt>
      <trkpt lat="45.97174" lon="4.5451">
        <ele>475.3</ele>
        <time>1970-01-01T03:23:43.000Z</time>
      </trkpt>
      <trkpt lat="45.97174" lon="4.5451">
        <ele>475.3</ele>
        <time>1970-01-01T03:23:44.000Z</time>
      </trkpt>
      <trkpt lat="45.97174" lon="4.54506">
        <ele>475.2</ele>
        <time>1970-01-01T03:23:45.000Z</time>
      </trkpt>
      <trkpt lat="45.97174" lon="4.54506">
        <ele>475.2</ele>
        <time>1970-01-01T03:23:46.000Z</time>
      </trkpt>
      <trkpt lat="45.97173" lon="4.54504">
        <ele>475.1</ele>
        <time>1970-01-01T03:23:47.000Z</time>
      </trkpt>
      <trkpt lat="45.97173" lon="4.54504">
        <ele>475.1</ele>
        <time>1970-01-01T03:23:48.000Z</time>
      </trkpt>
      <trkpt lat="45.97173" lon="4.54501">
        <ele>474.9</ele>
        <time>1970-01-01T03:23:49.000Z</time>
      </trkpt>
      <trkpt lat="45.97173" lon="4.54501">
        <ele>474.9</ele>
        <time>1970-01-01T03:23:50.000Z</time>
      </trkpt>
      <trkpt lat="45.97173" lon="4.54497">
        <ele>474.7</ele>
        <time>1970-01-01T03:23:51.000Z</time>
      </trkpt>
      <trkpt lat="45.97173" lon="4.54497">
        <ele>474.7</ele>
        <time>1970-01-01T03:23:52.000Z</time>
      </trkpt>
      <trkpt lat="45.97173" lon="4.54494">
        <ele>474.6</ele>
        <time>1970-01-01T03:23:53.000Z</time>
      </trkpt>
      <trkpt lat="45.97173" lon="4.54494">
        <ele>474.6</ele>
        <time>1970-01-01T03:23:54.000Z</time>
      </trkpt>
      <trkpt lat="45.97172" lon="4.5449">
        <ele>474.4</ele>
        <time>1970-01-01T03:23:55.000Z</time>
      </trkpt>
      <trkpt lat="45.97172" lon="4.5449">
        <ele>474.4</ele>
        <time>1970-01-01T03:23:56.000Z</time>
      </trkpt>
      <trkpt lat="45.97172" lon="4.54487">
        <ele>474.2</ele>
        <time>1970-01-01T03:23:57.000Z</time>
      </trkpt>
      <trkpt lat="45.97172" lon="4.54487">
        <ele>474.2</ele>
        <time>1970-01-01T03:23:58.000Z</time>
      </trkpt>
      <trkpt lat="45.97172" lon="4.54483">
        <ele>474</ele>
        <time>1970-01-01T03:23:59.000Z</time>
      </trkpt>
      <trkpt lat="45.97172" lon="4.54483">
        <ele>474</ele>
        <time>1970-01-01T03:24:00.000Z</time>
      </trkpt>
      <trkpt lat="45.97172" lon="4.5448">
        <ele>473.7</ele>
        <time>1970-01-01T03:24:01.000Z</time>
      </trkpt>
      <trkpt lat="45.97172" lon="4.5448">
        <ele>473.7</ele>
        <time>1970-01-01T03:24:02.000Z</time>
      </trkpt>
      <trkpt lat="45.97172" lon="4.54476">
        <ele>473.5</ele>
        <time>1970-01-01T03:24:03.000Z</time>
      </trkpt>
      <trkpt lat="45.97172" lon="4.54476">
        <ele>473.5</ele>
        <time>1970-01-01T03:24:04.000Z</time>
      </trkpt>
      <trkpt lat="45.97172" lon="4.54473">
        <ele>473.2</ele>
        <time>1970-01-01T03:24:05.000Z</time>
      </trkpt>
      <trkpt lat="45.97172" lon="4.54473">
        <ele>473.2</ele>
        <time>1970-01-01T03:24:06.000Z</time>
      </trkpt>
      <trkpt lat="45.97172" lon="4.54469">
        <ele>472.9</ele>
        <time>1970-01-01T03:24:07.000Z</time>
      </trkpt>
      <trkpt lat="45.97172" lon="4.54469">
        <ele>472.9</ele>
        <time>1970-01-01T03:24:08.000Z</time>
      </trkpt>
      <trkpt lat="45.97172" lon="4.54466">
        <ele>472.6</ele>
        <time>1970-01-01T03:24:09.000Z</time>
      </trkpt>
      <trkpt lat="45.97172" lon="4.54462">
        <ele>472.3</ele>
        <time>1970-01-01T03:24:11.000Z</time>
      </trkpt>
      <trkpt lat="45.97172" lon="4.54462">
        <ele>472.3</ele>
        <time>1970-01-01T03:24:12.000Z</time>
      </trkpt>
      <trkpt lat="45.97172" lon="4.54458">
        <ele>472</ele>
        <time>1970-01-01T03:24:13.000Z</time>
      </trkpt>
      <trkpt lat="45.97172" lon="4.54458">
        <ele>472</ele>
        <time>1970-01-01T03:24:14.000Z</time>
      </trkpt>
      <trkpt lat="45.97171" lon="4.54456">
        <ele>471.7</ele>
        <time>1970-01-01T03:24:15.000Z</time>
      </trkpt>
      <trkpt lat="45.97171" lon="4.54456">
        <ele>471.7</ele>
        <time>1970-01-01T03:24:16.000Z</time>
      </trkpt>
      <trkpt lat="45.97171" lon="4.54456">
        <ele>471.7</ele>
        <time>1970-01-01T03:24:17.000Z</time>
      </trkpt>
      <trkpt lat="45.9717" lon="4.54451">
        <ele>471.3</ele>
        <time>1970-01-01T03:24:18.000Z</time>
      </trkpt>
      <trkpt lat="45.9717" lon="4.54451">
        <ele>471.3</ele>
        <time>1970-01-01T03:24:19.000Z</time>
      </trkpt>
      <trkpt lat="45.97169" lon="4.54448">
        <ele>470.9</ele>
        <time>1970-01-01T03:24:20.000Z</time>
      </trkpt>
      <trkpt lat="45.97169" lon="4.54448">
        <ele>470.9</ele>
        <time>1970-01-01T03:24:21.000Z</time>
      </trkpt>
      <trkpt lat="45.97168" lon="4.54445">
        <ele>470.5</ele>
        <time>1970-01-01T03:24:22.000Z</time>
      </trkpt>
      <trkpt lat="45.97168" lon="4.54445">
        <ele>470.5</ele>
        <time>1970-01-01T03:24:23.000Z</time>
      </trkpt>
      <trkpt lat="45.97167" lon="4.54443">
        <ele>470.2</ele>
        <time>1970-01-01T03:24:24.000Z</time>
      </trkpt>
      <trkpt lat="45.97167" lon="4.54443">
        <ele>470.2</ele>
        <time>1970-01-01T03:24:25.000Z</time>
      </trkpt>
      <trkpt lat="45.97165" lon="4.5444">
        <ele>469.7</ele>
        <time>1970-01-01T03:24:26.000Z</time>
      </trkpt>
      <trkpt lat="45.97165" lon="4.5444">
        <ele>469.7</ele>
        <time>1970-01-01T03:24:27.000Z</time>
      </trkpt>
      <trkpt lat="45.97164" lon="4.54438">
        <ele>469.4</ele>
        <time>1970-01-01T03:24:28.000Z</time>
      </trkpt>
      <trkpt lat="45.97164" lon="4.54438">
        <ele>469.4</ele>
        <time>1970-01-01T03:24:29.000Z</time>
      </trkpt>
      <trkpt lat="45.97162" lon="4.54435">
        <ele>469</ele>
        <time>1970-01-01T03:24:30.000Z</time>
      </trkpt>
      <trkpt lat="45.97162" lon="4.54435">
        <ele>469</ele>
        <time>1970-01-01T03:24:31.000Z</time>
      </trkpt>
      <trkpt lat="45.9716" lon="4.54433">
        <ele>468.4</ele>
        <time>1970-01-01T03:24:32.000Z</time>
      </trkpt>
      <trkpt lat="45.9716" lon="4.54433">
        <ele>468.4</ele>
        <time>1970-01-01T03:24:33.000Z</time>
      </trkpt>
      <trkpt lat="45.97159" lon="4.5443">
        <ele>468.1</ele>
        <time>1970-01-01T03:24:34.000Z</time>
      </trkpt>
      <trkpt lat="45.97159" lon="4.5443">
        <ele>468.1</ele>
        <time>1970-01-01T03:24:35.000Z</time>
      </trkpt>
      <trkpt lat="45.97157" lon="4.54427">
        <ele>467.8</ele>
        <time>1970-01-01T03:24:36.000Z</time>
      </trkpt>
      <trkpt lat="45.97157" lon="4.54427">
        <ele>467.8</ele>
        <time>1970-01-01T03:24:37.000Z</time>
      </trkpt>
      <trkpt lat="45.97157" lon="4.54427">
        <ele>467.8</ele>
        <time>1970-01-01T03:24:38.000Z</time>
      </trkpt>
      <trkpt lat="45.97156" lon="4.54424">
        <ele>467.4</ele>
        <time>1970-01-01T03:24:39.000Z</time>
      </trkpt>
      <trkpt lat="45.97156" lon="4.54424">
        <ele>467.4</ele>
        <time>1970-01-01T03:24:40.000Z</time>
      </trkpt>
      <trkpt lat="45.97154" lon="4.54422">
        <ele>467.1</ele>
        <time>1970-01-01T03:24:41.000Z</time>
      </trkpt>
      <trkpt lat="45.97154" lon="4.54422">
        <ele>467.1</ele>
        <time>1970-01-01T03:24:42.000Z</time>
      </trkpt>
      <trkpt lat="45.97152" lon="4.54419">
        <ele>466.8</ele>
        <time>1970-01-01T03:24:43.000Z</time>
      </trkpt>
      <trkpt lat="45.97152" lon="4.54419">
        <ele>466.8</ele>
        <time>1970-01-01T03:24:44.000Z</time>
      </trkpt>
      <trkpt lat="45.97151" lon="4.54417">
        <ele>466.6</ele>
        <time>1970-01-01T03:24:45.000Z</time>
      </trkpt>
      <trkpt lat="45.97151" lon="4.54417">
        <ele>466.6</ele>
        <time>1970-01-01T03:24:46.000Z</time>
      </trkpt>
      <trkpt lat="45.9715" lon="4.54414">
        <ele>466.3</ele>
        <time>1970-01-01T03:24:47.000Z</time>
      </trkpt>
      <trkpt lat="45.9715" lon="4.54414">
        <ele>466.3</ele>
        <time>1970-01-01T03:24:48.000Z</time>
      </trkpt>
      <trkpt lat="45.9715" lon="4.54414">
        <ele>466.3</ele>
        <time>1970-01-01T03:24:49.000Z</time>
      </trkpt>
      <trkpt lat="45.9715" lon="4.54414">
        <ele>466.3</ele>
        <time>1970-01-01T03:24:50.000Z</time>
      </trkpt>
      <trkpt lat="45.9715" lon="4.54414">
        <ele>466.3</ele>
        <time>1970-01-01T03:24:51.000Z</time>
      </trkpt>
      <trkpt lat="45.9715" lon="4.54414">
        <ele>466.3</ele>
        <time>1970-01-01T03:24:52.000Z</time>
      </trkpt>
      <trkpt lat="45.9715" lon="4.5441">
        <ele>466</ele>
        <time>1970-01-01T03:24:53.000Z</time>
      </trkpt>
      <trkpt lat="45.9715" lon="4.5441">
        <ele>466</ele>
        <time>1970-01-01T03:24:54.000Z</time>
      </trkpt>
      <trkpt lat="45.97149" lon="4.54407">
        <ele>465.7</ele>
        <time>1970-01-01T03:24:55.000Z</time>
      </trkpt>
      <trkpt lat="45.97149" lon="4.54407">
        <ele>465.7</ele>
        <time>1970-01-01T03:24:56.000Z</time>
      </trkpt>
      <trkpt lat="45.97147" lon="4.54403">
        <ele>465.4</ele>
        <time>1970-01-01T03:24:57.000Z</time>
      </trkpt>
      <trkpt lat="45.97147" lon="4.54403">
        <ele>465.4</ele>
        <time>1970-01-01T03:24:58.000Z</time>
      </trkpt>
      <trkpt lat="45.97145" lon="4.544">
        <ele>463.3</ele>
        <time>1970-01-01T03:24:59.000Z</time>
      </trkpt>
      <trkpt lat="45.97145" lon="4.544">
        <ele>463.3</ele>
        <time>1970-01-01T03:25:00.000Z</time>
      </trkpt>
      <trkpt lat="45.97145" lon="4.544">
        <ele>463.3</ele>
        <time>1970-01-01T03:25:01.000Z</time>
      </trkpt>
      <trkpt lat="45.97142" lon="4.54398">
        <ele>462.9</ele>
        <time>1970-01-01T03:25:02.000Z</time>
      </trkpt>
      <trkpt lat="45.9714" lon="4.54396">
        <ele>462.7</ele>
        <time>1970-01-01T03:25:03.000Z</time>
      </trkpt>
      <trkpt lat="45.97138" lon="4.54395">
        <ele>462.5</ele>
        <time>1970-01-01T03:25:04.000Z</time>
      </trkpt>
      <trkpt lat="45.97137" lon="4.54394">
        <ele>462.3</ele>
        <time>1970-01-01T03:25:05.000Z</time>
      </trkpt>
      <trkpt lat="45.97135" lon="4.54392">
        <ele>462.1</ele>
        <time>1970-01-01T03:25:06.000Z</time>
      </trkpt>
      <trkpt lat="45.97135" lon="4.54392">
        <ele>462.1</ele>
        <time>1970-01-01T03:25:07.000Z</time>
      </trkpt>
      <trkpt lat="45.97133" lon="4.54389">
        <ele>461.7</ele>
        <time>1970-01-01T03:25:08.000Z</time>
      </trkpt>
      <trkpt lat="45.97133" lon="4.54389">
        <ele>461.7</ele>
        <time>1970-01-01T03:25:09.000Z</time>
      </trkpt>
      <trkpt lat="45.9713" lon="4.54387">
        <ele>461.4</ele>
        <time>1970-01-01T03:25:10.000Z</time>
      </trkpt>
      <trkpt lat="45.9713" lon="4.54387">
        <ele>461.4</ele>
        <time>1970-01-01T03:25:11.000Z</time>
      </trkpt>
      <trkpt lat="45.97128" lon="4.54386">
        <ele>461.2</ele>
        <time>1970-01-01T03:25:12.000Z</time>
      </trkpt>
      <trkpt lat="45.97128" lon="4.54386">
        <ele>461.2</ele>
        <time>1970-01-01T03:25:13.000Z</time>
      </trkpt>
      <trkpt lat="45.97126" lon="4.54383">
        <ele>460.9</ele>
        <time>1970-01-01T03:25:14.000Z</time>
      </trkpt>
      <trkpt lat="45.97126" lon="4.54383">
        <ele>460.9</ele>
        <time>1970-01-01T03:25:15.000Z</time>
      </trkpt>
      <trkpt lat="45.97124" lon="4.5438">
        <ele>460.6</ele>
        <time>1970-01-01T03:25:16.000Z</time>
      </trkpt>
      <trkpt lat="45.97124" lon="4.5438">
        <ele>460.6</ele>
        <time>1970-01-01T03:25:17.000Z</time>
      </trkpt>
      <trkpt lat="45.97121" lon="4.54377">
        <ele>460.3</ele>
        <time>1970-01-01T03:25:18.000Z</time>
      </trkpt>
      <trkpt lat="45.97121" lon="4.54377">
        <ele>460.3</ele>
        <time>1970-01-01T03:25:19.000Z</time>
      </trkpt>
      <trkpt lat="45.97119" lon="4.54373">
        <ele>460</ele>
        <time>1970-01-01T03:25:20.000Z</time>
      </trkpt>
      <trkpt lat="45.97119" lon="4.54373">
        <ele>460</ele>
        <time>1970-01-01T03:25:21.000Z</time>
      </trkpt>
      <trkpt lat="45.97117" lon="4.5437">
        <ele>459.7</ele>
        <time>1970-01-01T03:25:22.000Z</time>
      </trkpt>
      <trkpt lat="45.97117" lon="4.5437">
        <ele>459.7</ele>
        <time>1970-01-01T03:25:23.000Z</time>
      </trkpt>
      <trkpt lat="45.97115" lon="4.54368">
        <ele>459.4</ele>
        <time>1970-01-01T03:25:24.000Z</time>
      </trkpt>
      <trkpt lat="45.97115" lon="4.54368">
        <ele>459.4</ele>
        <time>1970-01-01T03:25:25.000Z</time>
      </trkpt>
      <trkpt lat="45.97114" lon="4.54365">
        <ele>459.2</ele>
        <time>1970-01-01T03:25:26.000Z</time>
      </trkpt>
      <trkpt lat="45.97114" lon="4.54365">
        <ele>459.2</ele>
        <time>1970-01-01T03:25:27.000Z</time>
      </trkpt>
      <trkpt lat="45.97112" lon="4.54362">
        <ele>458.9</ele>
        <time>1970-01-01T03:25:28.000Z</time>
      </trkpt>
      <trkpt lat="45.97112" lon="4.54362">
        <ele>458.9</ele>
        <time>1970-01-01T03:25:29.000Z</time>
      </trkpt>
      <trkpt lat="45.97111" lon="4.54358">
        <ele>458.6</ele>
        <time>1970-01-01T03:25:30.000Z</time>
      </trkpt>
      <trkpt lat="45.97111" lon="4.54358">
        <ele>458.6</ele>
        <time>1970-01-01T03:25:31.000Z</time>
      </trkpt>
      <trkpt lat="45.97108" lon="4.54356">
        <ele>458.3</ele>
        <time>1970-01-01T03:25:32.000Z</time>
      </trkpt>
      <trkpt lat="45.97108" lon="4.54356">
        <ele>458.3</ele>
        <time>1970-01-01T03:25:33.000Z</time>
      </trkpt>
      <trkpt lat="45.97106" lon="4.54353">
        <ele>458.1</ele>
        <time>1970-01-01T03:25:34.000Z</time>
      </trkpt>
      <trkpt lat="45.97106" lon="4.54353">
        <ele>458.1</ele>
        <time>1970-01-01T03:25:35.000Z</time>
      </trkpt>
      <trkpt lat="45.97105" lon="4.54351">
        <ele>457.9</ele>
        <time>1970-01-01T03:25:36.000Z</time>
      </trkpt>
      <trkpt lat="45.97105" lon="4.54351">
        <ele>457.9</ele>
        <time>1970-01-01T03:25:37.000Z</time>
      </trkpt>
      <trkpt lat="45.97103" lon="4.54348">
        <ele>457.6</ele>
        <time>1970-01-01T03:25:38.000Z</time>
      </trkpt>
      <trkpt lat="45.97103" lon="4.54348">
        <ele>457.6</ele>
        <time>1970-01-01T03:25:39.000Z</time>
      </trkpt>
      <trkpt lat="45.97101" lon="4.54346">
        <ele>457.4</ele>
        <time>1970-01-01T03:25:40.000Z</time>
      </trkpt>
      <trkpt lat="45.97101" lon="4.54346">
        <ele>457.4</ele>
        <time>1970-01-01T03:25:41.000Z</time>
      </trkpt>
      <trkpt lat="45.97099" lon="4.54343">
        <ele>457.1</ele>
        <time>1970-01-01T03:25:42.000Z</time>
      </trkpt>
      <trkpt lat="45.97099" lon="4.54343">
        <ele>457.1</ele>
        <time>1970-01-01T03:25:43.000Z</time>
      </trkpt>
      <trkpt lat="45.97097" lon="4.54341">
        <ele>456.8</ele>
        <time>1970-01-01T03:25:44.000Z</time>
      </trkpt>
      <trkpt lat="45.97097" lon="4.54341">
        <ele>456.8</ele>
        <time>1970-01-01T03:25:45.000Z</time>
      </trkpt>
      <trkpt lat="45.97095" lon="4.54339">
        <ele>456.6</ele>
        <time>1970-01-01T03:25:46.000Z</time>
      </trkpt>
      <trkpt lat="45.97095" lon="4.54339">
        <ele>456.6</ele>
        <time>1970-01-01T03:25:47.000Z</time>
      </trkpt>
      <trkpt lat="45.97092" lon="4.54338">
        <ele>456.4</ele>
        <time>1970-01-01T03:25:48.000Z</time>
      </trkpt>
      <trkpt lat="45.97092" lon="4.54338">
        <ele>456.4</ele>
        <time>1970-01-01T03:25:49.000Z</time>
      </trkpt>
      <trkpt lat="45.9709" lon="4.54336">
        <ele>456.1</ele>
        <time>1970-01-01T03:25:50.000Z</time>
      </trkpt>
      <trkpt lat="45.9709" lon="4.54336">
        <ele>456.1</ele>
        <time>1970-01-01T03:25:51.000Z</time>
      </trkpt>
      <trkpt lat="45.97087" lon="4.54335">
        <ele>455.9</ele>
        <time>1970-01-01T03:25:52.000Z</time>
      </trkpt>
      <trkpt lat="45.97087" lon="4.54335">
        <ele>455.9</ele>
        <time>1970-01-01T03:25:53.000Z</time>
      </trkpt>
      <trkpt lat="45.97085" lon="4.54333">
        <ele>455.7</ele>
        <time>1970-01-01T03:25:54.000Z</time>
      </trkpt>
      <trkpt lat="45.97085" lon="4.54333">
        <ele>455.7</ele>
        <time>1970-01-01T03:25:55.000Z</time>
      </trkpt>
      <trkpt lat="45.97084" lon="4.54331">
        <ele>455.5</ele>
        <time>1970-01-01T03:25:56.000Z</time>
      </trkpt>
      <trkpt lat="45.97084" lon="4.54331">
        <ele>455.5</ele>
        <time>1970-01-01T03:25:57.000Z</time>
      </trkpt>
      <trkpt lat="45.97082" lon="4.54329">
        <ele>455.2</ele>
        <time>1970-01-01T03:25:58.000Z</time>
      </trkpt>
      <trkpt lat="45.97082" lon="4.54329">
        <ele>455.2</ele>
        <time>1970-01-01T03:25:59.000Z</time>
      </trkpt>
      <trkpt lat="45.97079" lon="4.54328">
        <ele>455</ele>
        <time>1970-01-01T03:26:00.000Z</time>
      </trkpt>
      <trkpt lat="45.97079" lon="4.54328">
        <ele>455</ele>
        <time>1970-01-01T03:26:01.000Z</time>
      </trkpt>
      <trkpt lat="45.97076" lon="4.54327">
        <ele>454.8</ele>
        <time>1970-01-01T03:26:02.000Z</time>
      </trkpt>
      <trkpt lat="45.97076" lon="4.54327">
        <ele>454.8</ele>
        <time>1970-01-01T03:26:03.000Z</time>
      </trkpt>
      <trkpt lat="45.97074" lon="4.54326">
        <ele>454.6</ele>
        <time>1970-01-01T03:26:04.000Z</time>
      </trkpt>
      <trkpt lat="45.97074" lon="4.54326">
        <ele>454.6</ele>
        <time>1970-01-01T03:26:05.000Z</time>
      </trkpt>
      <trkpt lat="45.97071" lon="4.54325">
        <ele>454.4</ele>
        <time>1970-01-01T03:26:06.000Z</time>
      </trkpt>
      <trkpt lat="45.97071" lon="4.54325">
        <ele>454.4</ele>
        <time>1970-01-01T03:26:07.000Z</time>
      </trkpt>
      <trkpt lat="45.97069" lon="4.54324">
        <ele>454.1</ele>
        <time>1970-01-01T03:26:08.000Z</time>
      </trkpt>
      <trkpt lat="45.97069" lon="4.54324">
        <ele>454.1</ele>
        <time>1970-01-01T03:26:09.000Z</time>
      </trkpt>
      <trkpt lat="45.97066" lon="4.54323">
        <ele>453.9</ele>
        <time>1970-01-01T03:26:10.000Z</time>
      </trkpt>
      <trkpt lat="45.97066" lon="4.54323">
        <ele>453.9</ele>
        <time>1970-01-01T03:26:11.000Z</time>
      </trkpt>
      <trkpt lat="45.97064" lon="4.54322">
        <ele>453.7</ele>
        <time>1970-01-01T03:26:12.000Z</time>
      </trkpt>
      <trkpt lat="45.97064" lon="4.54322">
        <ele>453.7</ele>
        <time>1970-01-01T03:26:13.000Z</time>
      </trkpt>
      <trkpt lat="45.97061" lon="4.54321">
        <ele>453.5</ele>
        <time>1970-01-01T03:26:14.000Z</time>
      </trkpt>
      <trkpt lat="45.97061" lon="4.54321">
        <ele>453.5</ele>
        <time>1970-01-01T03:26:15.000Z</time>
      </trkpt>
      <trkpt lat="45.97058" lon="4.5432">
        <ele>453.3</ele>
        <time>1970-01-01T03:26:16.000Z</time>
      </trkpt>
      <trkpt lat="45.97058" lon="4.5432">
        <ele>453.3</ele>
        <time>1970-01-01T03:26:17.000Z</time>
      </trkpt>
      <trkpt lat="45.97055" lon="4.54319">
        <ele>453.1</ele>
        <time>1970-01-01T03:26:18.000Z</time>
      </trkpt>
      <trkpt lat="45.97055" lon="4.54319">
        <ele>453.1</ele>
        <time>1970-01-01T03:26:19.000Z</time>
      </trkpt>
      <trkpt lat="45.97053" lon="4.54319">
        <ele>452.9</ele>
        <time>1970-01-01T03:26:20.000Z</time>
      </trkpt>
      <trkpt lat="45.97053" lon="4.54319">
        <ele>452.9</ele>
        <time>1970-01-01T03:26:21.000Z</time>
      </trkpt>
      <trkpt lat="45.9705" lon="4.54318">
        <ele>452.7</ele>
        <time>1970-01-01T03:26:22.000Z</time>
      </trkpt>
      <trkpt lat="45.9705" lon="4.54318">
        <ele>452.7</ele>
        <time>1970-01-01T03:26:23.000Z</time>
      </trkpt>
      <trkpt lat="45.97048" lon="4.54317">
        <ele>452.5</ele>
        <time>1970-01-01T03:26:24.000Z</time>
      </trkpt>
      <trkpt lat="45.97048" lon="4.54317">
        <ele>452.5</ele>
        <time>1970-01-01T03:26:25.000Z</time>
      </trkpt>
      <trkpt lat="45.97045" lon="4.54315">
        <ele>452.3</ele>
        <time>1970-01-01T03:26:26.000Z</time>
      </trkpt>
      <trkpt lat="45.97045" lon="4.54315">
        <ele>452.3</ele>
        <time>1970-01-01T03:26:27.000Z</time>
      </trkpt>
      <trkpt lat="45.97043" lon="4.54315">
        <ele>452.1</ele>
        <time>1970-01-01T03:26:28.000Z</time>
      </trkpt>
      <trkpt lat="45.97043" lon="4.54315">
        <ele>452.1</ele>
        <time>1970-01-01T03:26:29.000Z</time>
      </trkpt>
      <trkpt lat="45.9704" lon="4.54314">
        <ele>451.9</ele>
        <time>1970-01-01T03:26:30.000Z</time>
      </trkpt>
      <trkpt lat="45.9704" lon="4.54314">
        <ele>451.9</ele>
        <time>1970-01-01T03:26:31.000Z</time>
      </trkpt>
      <trkpt lat="45.97037" lon="4.54313">
        <ele>451.7</ele>
        <time>1970-01-01T03:26:32.000Z</time>
      </trkpt>
      <trkpt lat="45.97037" lon="4.54313">
        <ele>451.7</ele>
        <time>1970-01-01T03:26:33.000Z</time>
      </trkpt>
      <trkpt lat="45.97035" lon="4.54313">
        <ele>451.5</ele>
        <time>1970-01-01T03:26:34.000Z</time>
      </trkpt>
      <trkpt lat="45.97035" lon="4.54313">
        <ele>451.5</ele>
        <time>1970-01-01T03:26:35.000Z</time>
      </trkpt>
      <trkpt lat="45.97032" lon="4.54312">
        <ele>451.3</ele>
        <time>1970-01-01T03:26:36.000Z</time>
      </trkpt>
      <trkpt lat="45.97032" lon="4.54312">
        <ele>451.3</ele>
        <time>1970-01-01T03:26:37.000Z</time>
      </trkpt>
      <trkpt lat="45.97029" lon="4.54312">
        <ele>451.1</ele>
        <time>1970-01-01T03:26:38.000Z</time>
      </trkpt>
      <trkpt lat="45.97029" lon="4.54312">
        <ele>451.1</ele>
        <time>1970-01-01T03:26:39.000Z</time>
      </trkpt>
      <trkpt lat="45.97027" lon="4.5431">
        <ele>450.9</ele>
        <time>1970-01-01T03:26:40.000Z</time>
      </trkpt>
      <trkpt lat="45.97027" lon="4.5431">
        <ele>450.9</ele>
        <time>1970-01-01T03:26:41.000Z</time>
      </trkpt>
      <trkpt lat="45.97025" lon="4.54309">
        <ele>450.7</ele>
        <time>1970-01-01T03:26:42.000Z</time>
      </trkpt>
      <trkpt lat="45.97025" lon="4.54309">
        <ele>450.7</ele>
        <time>1970-01-01T03:26:43.000Z</time>
      </trkpt>
      <trkpt lat="45.97022" lon="4.54308">
        <ele>450.5</ele>
        <time>1970-01-01T03:26:44.000Z</time>
      </trkpt>
      <trkpt lat="45.97022" lon="4.54308">
        <ele>450.5</ele>
        <time>1970-01-01T03:26:45.000Z</time>
      </trkpt>
      <trkpt lat="45.9702" lon="4.54306">
        <ele>450.3</ele>
        <time>1970-01-01T03:26:46.000Z</time>
      </trkpt>
      <trkpt lat="45.9702" lon="4.54306">
        <ele>450.3</ele>
        <time>1970-01-01T03:26:47.000Z</time>
      </trkpt>
      <trkpt lat="45.97017" lon="4.54304">
        <ele>450</ele>
        <time>1970-01-01T03:26:48.000Z</time>
      </trkpt>
      <trkpt lat="45.97017" lon="4.54304">
        <ele>450</ele>
        <time>1970-01-01T03:26:49.000Z</time>
      </trkpt>
      <trkpt lat="45.97015" lon="4.54303">
        <ele>449.8</ele>
        <time>1970-01-01T03:26:50.000Z</time>
      </trkpt>
      <trkpt lat="45.97015" lon="4.54303">
        <ele>449.8</ele>
        <time>1970-01-01T03:26:51.000Z</time>
      </trkpt>
      <trkpt lat="45.97012" lon="4.54301">
        <ele>449.6</ele>
        <time>1970-01-01T03:26:52.000Z</time>
      </trkpt>
      <trkpt lat="45.97012" lon="4.54301">
        <ele>449.6</ele>
        <time>1970-01-01T03:26:53.000Z</time>
      </trkpt>
      <trkpt lat="45.9701" lon="4.543">
        <ele>449.3</ele>
        <time>1970-01-01T03:26:54.000Z</time>
      </trkpt>
      <trkpt lat="45.9701" lon="4.543">
        <ele>449.3</ele>
        <time>1970-01-01T03:26:55.000Z</time>
      </trkpt>
      <trkpt lat="45.97008" lon="4.54298">
        <ele>449.1</ele>
        <time>1970-01-01T03:26:56.000Z</time>
      </trkpt>
      <trkpt lat="45.97008" lon="4.54298">
        <ele>449.1</ele>
        <time>1970-01-01T03:26:57.000Z</time>
      </trkpt>
      <trkpt lat="45.97006" lon="4.54295">
        <ele>448.9</ele>
        <time>1970-01-01T03:26:58.000Z</time>
      </trkpt>
      <trkpt lat="45.97006" lon="4.54295">
        <ele>448.9</ele>
        <time>1970-01-01T03:26:59.000Z</time>
      </trkpt>
      <trkpt lat="45.97003" lon="4.54294">
        <ele>448.7</ele>
        <time>1970-01-01T03:27:00.000Z</time>
      </trkpt>
      <trkpt lat="45.97003" lon="4.54294">
        <ele>448.7</ele>
        <time>1970-01-01T03:27:01.000Z</time>
      </trkpt>
      <trkpt lat="45.97001" lon="4.54292">
        <ele>448.4</ele>
        <time>1970-01-01T03:27:02.000Z</time>
      </trkpt>
      <trkpt lat="45.97001" lon="4.54292">
        <ele>448.4</ele>
        <time>1970-01-01T03:27:03.000Z</time>
      </trkpt>
      <trkpt lat="45.96998" lon="4.5429">
        <ele>448.2</ele>
        <time>1970-01-01T03:27:04.000Z</time>
      </trkpt>
      <trkpt lat="45.96998" lon="4.5429">
        <ele>448.2</ele>
        <time>1970-01-01T03:27:05.000Z</time>
      </trkpt>
      <trkpt lat="45.96996" lon="4.54289">
        <ele>448</ele>
        <time>1970-01-01T03:27:06.000Z</time>
      </trkpt>
      <trkpt lat="45.96996" lon="4.54289">
        <ele>448</ele>
        <time>1970-01-01T03:27:07.000Z</time>
      </trkpt>
      <trkpt lat="45.96994" lon="4.54286">
        <ele>447.8</ele>
        <time>1970-01-01T03:27:08.000Z</time>
      </trkpt>
      <trkpt lat="45.96994" lon="4.54286">
        <ele>447.8</ele>
        <time>1970-01-01T03:27:09.000Z</time>
      </trkpt>
      <trkpt lat="45.96992" lon="4.54285">
        <ele>447.6</ele>
        <time>1970-01-01T03:27:10.000Z</time>
      </trkpt>
      <trkpt lat="45.96992" lon="4.54285">
        <ele>447.6</ele>
        <time>1970-01-01T03:27:11.000Z</time>
      </trkpt>
      <trkpt lat="45.9699" lon="4.54282">
        <ele>447.3</ele>
        <time>1970-01-01T03:27:12.000Z</time>
      </trkpt>
      <trkpt lat="45.96989" lon="4.5428">
        <ele>447.2</ele>
        <time>1970-01-01T03:27:13.000Z</time>
      </trkpt>
      <trkpt lat="45.96989" lon="4.5428">
        <ele>447.2</ele>
        <time>1970-01-01T03:27:14.000Z</time>
      </trkpt>
      <trkpt lat="45.96987" lon="4.54277">
        <ele>447</ele>
        <time>1970-01-01T03:27:15.000Z</time>
      </trkpt>
      <trkpt lat="45.96987" lon="4.54277">
        <ele>447</ele>
        <time>1970-01-01T03:27:16.000Z</time>
      </trkpt>
      <trkpt lat="45.96985" lon="4.54275">
        <ele>446.7</ele>
        <time>1970-01-01T03:27:17.000Z</time>
      </trkpt>
      <trkpt lat="45.96985" lon="4.54275">
        <ele>446.7</ele>
        <time>1970-01-01T03:27:18.000Z</time>
      </trkpt>
      <trkpt lat="45.96982" lon="4.54273">
        <ele>446.5</ele>
        <time>1970-01-01T03:27:19.000Z</time>
      </trkpt>
      <trkpt lat="45.96982" lon="4.54273">
        <ele>446.5</ele>
        <time>1970-01-01T03:27:20.000Z</time>
      </trkpt>
      <trkpt lat="45.9698" lon="4.5427">
        <ele>446.2</ele>
        <time>1970-01-01T03:27:21.000Z</time>
      </trkpt>
      <trkpt lat="45.9698" lon="4.5427">
        <ele>446.2</ele>
        <time>1970-01-01T03:27:22.000Z</time>
      </trkpt>
      <trkpt lat="45.96978" lon="4.54267">
        <ele>446</ele>
        <time>1970-01-01T03:27:23.000Z</time>
      </trkpt>
      <trkpt lat="45.96978" lon="4.54267">
        <ele>446</ele>
        <time>1970-01-01T03:27:24.000Z</time>
      </trkpt>
      <trkpt lat="45.96976" lon="4.54264">
        <ele>445.7</ele>
        <time>1970-01-01T03:27:25.000Z</time>
      </trkpt>
      <trkpt lat="45.96976" lon="4.54264">
        <ele>445.7</ele>
        <time>1970-01-01T03:27:26.000Z</time>
      </trkpt>
      <trkpt lat="45.96974" lon="4.54261">
        <ele>445.4</ele>
        <time>1970-01-01T03:27:27.000Z</time>
      </trkpt>
      <trkpt lat="45.96974" lon="4.54261">
        <ele>445.4</ele>
        <time>1970-01-01T03:27:28.000Z</time>
      </trkpt>
      <trkpt lat="45.96972" lon="4.54258">
        <ele>445.2</ele>
        <time>1970-01-01T03:27:29.000Z</time>
      </trkpt>
      <trkpt lat="45.96972" lon="4.54258">
        <ele>445.2</ele>
        <time>1970-01-01T03:27:30.000Z</time>
      </trkpt>
      <trkpt lat="45.9697" lon="4.54254">
        <ele>444.9</ele>
        <time>1970-01-01T03:27:31.000Z</time>
      </trkpt>
      <trkpt lat="45.9697" lon="4.54254">
        <ele>444.9</ele>
        <time>1970-01-01T03:27:32.000Z</time>
      </trkpt>
      <trkpt lat="45.96968" lon="4.54251">
        <ele>444.6</ele>
        <time>1970-01-01T03:27:33.000Z</time>
      </trkpt>
      <trkpt lat="45.96968" lon="4.54251">
        <ele>444.6</ele>
        <time>1970-01-01T03:27:34.000Z</time>
      </trkpt>
      <trkpt lat="45.96966" lon="4.54247">
        <ele>444.4</ele>
        <time>1970-01-01T03:27:35.000Z</time>
      </trkpt>
      <trkpt lat="45.96966" lon="4.54247">
        <ele>444.4</ele>
        <time>1970-01-01T03:27:36.000Z</time>
      </trkpt>
      <trkpt lat="45.96964" lon="4.54244">
        <ele>444.1</ele>
        <time>1970-01-01T03:27:37.000Z</time>
      </trkpt>
      <trkpt lat="45.96964" lon="4.54244">
        <ele>444.1</ele>
        <time>1970-01-01T03:27:38.000Z</time>
      </trkpt>
      <trkpt lat="45.96962" lon="4.54242">
        <ele>443.8</ele>
        <time>1970-01-01T03:27:39.000Z</time>
      </trkpt>
      <trkpt lat="45.96962" lon="4.54242">
        <ele>443.8</ele>
        <time>1970-01-01T03:27:40.000Z</time>
      </trkpt>
      <trkpt lat="45.9696" lon="4.54239">
        <ele>443.6</ele>
        <time>1970-01-01T03:27:41.000Z</time>
      </trkpt>
      <trkpt lat="45.9696" lon="4.54239">
        <ele>443.6</ele>
        <time>1970-01-01T03:27:42.000Z</time>
      </trkpt>
      <trkpt lat="45.96958" lon="4.54237">
        <ele>443.4</ele>
        <time>1970-01-01T03:27:43.000Z</time>
      </trkpt>
      <trkpt lat="45.96958" lon="4.54237">
        <ele>443.4</ele>
        <time>1970-01-01T03:27:44.000Z</time>
      </trkpt>
      <trkpt lat="45.96956" lon="4.54235">
        <ele>443.2</ele>
        <time>1970-01-01T03:27:45.000Z</time>
      </trkpt>
      <trkpt lat="45.96956" lon="4.54235">
        <ele>443.2</ele>
        <time>1970-01-01T03:27:46.000Z</time>
      </trkpt>
      <trkpt lat="45.96954" lon="4.54233">
        <ele>443</ele>
        <time>1970-01-01T03:27:47.000Z</time>
      </trkpt>
      <trkpt lat="45.96954" lon="4.54233">
        <ele>443</ele>
        <time>1970-01-01T03:27:48.000Z</time>
      </trkpt>
      <trkpt lat="45.96952" lon="4.54231">
        <ele>442.8</ele>
        <time>1970-01-01T03:27:49.000Z</time>
      </trkpt>
      <trkpt lat="45.96952" lon="4.54231">
        <ele>442.8</ele>
        <time>1970-01-01T03:27:50.000Z</time>
      </trkpt>
      <trkpt lat="45.9695" lon="4.5423">
        <ele>442.6</ele>
        <time>1970-01-01T03:27:51.000Z</time>
      </trkpt>
      <trkpt lat="45.96949" lon="4.5423">
        <ele>442.5</ele>
        <time>1970-01-01T03:27:52.000Z</time>
      </trkpt>
      <trkpt lat="45.96947" lon="4.54229">
        <ele>442.4</ele>
        <time>1970-01-01T03:27:53.000Z</time>
      </trkpt>
      <trkpt lat="45.96946" lon="4.54229">
        <ele>442.3</ele>
        <time>1970-01-01T03:27:54.000Z</time>
      </trkpt>
      <trkpt lat="45.96945" lon="4.54229">
        <ele>442.2</ele>
        <time>1970-01-01T03:27:55.000Z</time>
      </trkpt>
      <trkpt lat="45.96943" lon="4.54229">
        <ele>442.1</ele>
        <time>1970-01-01T03:27:56.000Z</time>
      </trkpt>
      <trkpt lat="45.96942" lon="4.54229">
        <ele>442</ele>
        <time>1970-01-01T03:27:57.000Z</time>
      </trkpt>
      <trkpt lat="45.96941" lon="4.54229">
        <ele>441.9</ele>
        <time>1970-01-01T03:27:58.000Z</time>
      </trkpt>
      <trkpt lat="45.96939" lon="4.54229">
        <ele>441.8</ele>
        <time>1970-01-01T03:27:59.000Z</time>
      </trkpt>
      <trkpt lat="45.96939" lon="4.54229">
        <ele>441.8</ele>
        <time>1970-01-01T03:28:00.000Z</time>
      </trkpt>
      <trkpt lat="45.96936" lon="4.54228">
        <ele>441.6</ele>
        <time>1970-01-01T03:28:01.000Z</time>
      </trkpt>
      <trkpt lat="45.96936" lon="4.54228">
        <ele>441.6</ele>
        <time>1970-01-01T03:28:02.000Z</time>
      </trkpt>
      <trkpt lat="45.96934" lon="4.54228">
        <ele>441.4</ele>
        <time>1970-01-01T03:28:03.000Z</time>
      </trkpt>
      <trkpt lat="45.96934" lon="4.54228">
        <ele>441.4</ele>
        <time>1970-01-01T03:28:04.000Z</time>
      </trkpt>
      <trkpt lat="45.96932" lon="4.54229">
        <ele>441.3</ele>
        <time>1970-01-01T03:28:05.000Z</time>
      </trkpt>
      <trkpt lat="45.96932" lon="4.54229">
        <ele>441.3</ele>
        <time>1970-01-01T03:28:06.000Z</time>
      </trkpt>
      <trkpt lat="45.96928" lon="4.54229">
        <ele>441.1</ele>
        <time>1970-01-01T03:28:07.000Z</time>
      </trkpt>
      <trkpt lat="45.96928" lon="4.54229">
        <ele>441.1</ele>
        <time>1970-01-01T03:28:08.000Z</time>
      </trkpt>
      <trkpt lat="45.96925" lon="4.54229">
        <ele>440.9</ele>
        <time>1970-01-01T03:28:09.000Z</time>
      </trkpt>
      <trkpt lat="45.96925" lon="4.54229">
        <ele>440.9</ele>
        <time>1970-01-01T03:28:10.000Z</time>
      </trkpt>
      <trkpt lat="45.96923" lon="4.54229">
        <ele>440.7</ele>
        <time>1970-01-01T03:28:11.000Z</time>
      </trkpt>
      <trkpt lat="45.96923" lon="4.54229">
        <ele>440.7</ele>
        <time>1970-01-01T03:28:12.000Z</time>
      </trkpt>
      <trkpt lat="45.9692" lon="4.54229">
        <ele>440.5</ele>
        <time>1970-01-01T03:28:13.000Z</time>
      </trkpt>
      <trkpt lat="45.9692" lon="4.54229">
        <ele>440.5</ele>
        <time>1970-01-01T03:28:14.000Z</time>
      </trkpt>
      <trkpt lat="45.96917" lon="4.54229">
        <ele>440.3</ele>
        <time>1970-01-01T03:28:15.000Z</time>
      </trkpt>
      <trkpt lat="45.96917" lon="4.54229">
        <ele>440.3</ele>
        <time>1970-01-01T03:28:16.000Z</time>
      </trkpt>
      <trkpt lat="45.96915" lon="4.5423">
        <ele>440.2</ele>
        <time>1970-01-01T03:28:17.000Z</time>
      </trkpt>
      <trkpt lat="45.96915" lon="4.5423">
        <ele>440.2</ele>
        <time>1970-01-01T03:28:18.000Z</time>
      </trkpt>
      <trkpt lat="45.96912" lon="4.54231">
        <ele>440</ele>
        <time>1970-01-01T03:28:19.000Z</time>
      </trkpt>
      <trkpt lat="45.96912" lon="4.54231">
        <ele>439.9</ele>
        <time>1970-01-01T03:28:20.000Z</time>
      </trkpt>
      <trkpt lat="45.9691" lon="4.54231">
        <ele>439.8</ele>
        <time>1970-01-01T03:28:21.000Z</time>
      </trkpt>
      <trkpt lat="45.9691" lon="4.54231">
        <ele>439.8</ele>
        <time>1970-01-01T03:28:22.000Z</time>
      </trkpt>
      <trkpt lat="45.96907" lon="4.54232">
        <ele>439.7</ele>
        <time>1970-01-01T03:28:23.000Z</time>
      </trkpt>
      <trkpt lat="45.96907" lon="4.54232">
        <ele>439.7</ele>
        <time>1970-01-01T03:28:24.000Z</time>
      </trkpt>
      <trkpt lat="45.96904" lon="4.54233">
        <ele>439.6</ele>
        <time>1970-01-01T03:28:25.000Z</time>
      </trkpt>
      <trkpt lat="45.96904" lon="4.54233">
        <ele>439.6</ele>
        <time>1970-01-01T03:28:26.000Z</time>
      </trkpt>
      <trkpt lat="45.96904" lon="4.54233">
        <ele>439.6</ele>
        <time>1970-01-01T03:28:27.000Z</time>
      </trkpt>
      <trkpt lat="45.96904" lon="4.54233">
        <ele>439.6</ele>
        <time>1970-01-01T03:28:28.000Z</time>
      </trkpt>
      <trkpt lat="45.96904" lon="4.54233">
        <ele>439.6</ele>
        <time>1970-01-01T03:28:29.000Z</time>
      </trkpt>
      <trkpt lat="45.96904" lon="4.54233">
        <ele>439.6</ele>
        <time>1970-01-01T03:28:30.000Z</time>
      </trkpt>
      <trkpt lat="45.96904" lon="4.54233">
        <ele>439.6</ele>
        <time>1970-01-01T03:28:31.000Z</time>
      </trkpt>
      <trkpt lat="45.96904" lon="4.54233">
        <ele>439.6</ele>
        <time>1970-01-01T03:28:32.000Z</time>
      </trkpt>
      <trkpt lat="45.96904" lon="4.54233">
        <ele>439.6</ele>
        <time>1970-01-01T03:28:33.000Z</time>
      </trkpt>
      <trkpt lat="45.96903" lon="4.54236">
        <ele>439.6</ele>
        <time>1970-01-01T03:28:34.000Z</time>
      </trkpt>
      <trkpt lat="45.96903" lon="4.54236">
        <ele>439.6</ele>
        <time>1970-01-01T03:28:35.000Z</time>
      </trkpt>
      <trkpt lat="45.96903" lon="4.54236">
        <ele>439.6</ele>
        <time>1970-01-01T03:28:36.000Z</time>
      </trkpt>
      <trkpt lat="45.96902" lon="4.5424">
        <ele>439.5</ele>
        <time>1970-01-01T03:28:37.000Z</time>
      </trkpt>
      <trkpt lat="45.96902" lon="4.5424">
        <ele>439.5</ele>
        <time>1970-01-01T03:28:38.000Z</time>
      </trkpt>
      <trkpt lat="45.96901" lon="4.54242">
        <ele>439.4</ele>
        <time>1970-01-01T03:28:39.000Z</time>
      </trkpt>
      <trkpt lat="45.96901" lon="4.54242">
        <ele>439.4</ele>
        <time>1970-01-01T03:28:40.000Z</time>
      </trkpt>
      <trkpt lat="45.96899" lon="4.54245">
        <ele>439.3</ele>
        <time>1970-01-01T03:28:41.000Z</time>
      </trkpt>
      <trkpt lat="45.96899" lon="4.54245">
        <ele>439.3</ele>
        <time>1970-01-01T03:28:42.000Z</time>
      </trkpt>
      <trkpt lat="45.96898" lon="4.54248">
        <ele>439.2</ele>
        <time>1970-01-01T03:28:43.000Z</time>
      </trkpt>
      <trkpt lat="45.96898" lon="4.54248">
        <ele>439.2</ele>
        <time>1970-01-01T03:28:44.000Z</time>
      </trkpt>
      <trkpt lat="45.96898" lon="4.54251">
        <ele>439.1</ele>
        <time>1970-01-01T03:28:45.000Z</time>
      </trkpt>
      <trkpt lat="45.96898" lon="4.54251">
        <ele>439.1</ele>
        <time>1970-01-01T03:28:46.000Z</time>
      </trkpt>
      <trkpt lat="45.96897" lon="4.54255">
        <ele>439.1</ele>
        <time>1970-01-01T03:28:47.000Z</time>
      </trkpt>
      <trkpt lat="45.96897" lon="4.54255">
        <ele>439.1</ele>
        <time>1970-01-01T03:28:48.000Z</time>
      </trkpt>
      <trkpt lat="45.96896" lon="4.54258">
        <ele>439</ele>
        <time>1970-01-01T03:28:49.000Z</time>
      </trkpt>
      <trkpt lat="45.96896" lon="4.54258">
        <ele>439</ele>
        <time>1970-01-01T03:28:50.000Z</time>
      </trkpt>
      <trkpt lat="45.96895" lon="4.54261">
        <ele>438.9</ele>
        <time>1970-01-01T03:28:51.000Z</time>
      </trkpt>
      <trkpt lat="45.96895" lon="4.54261">
        <ele>438.9</ele>
        <time>1970-01-01T03:28:52.000Z</time>
      </trkpt>
      <trkpt lat="45.96894" lon="4.54265">
        <ele>438.7</ele>
        <time>1970-01-01T03:28:53.000Z</time>
      </trkpt>
      <trkpt lat="45.96894" lon="4.54265">
        <ele>438.7</ele>
        <time>1970-01-01T03:28:54.000Z</time>
      </trkpt>
      <trkpt lat="45.96894" lon="4.54268">
        <ele>438.6</ele>
        <time>1970-01-01T03:28:55.000Z</time>
      </trkpt>
      <trkpt lat="45.96894" lon="4.54268">
        <ele>438.6</ele>
        <time>1970-01-01T03:28:56.000Z</time>
      </trkpt>
      <trkpt lat="45.96893" lon="4.54271">
        <ele>438.5</ele>
        <time>1970-01-01T03:28:57.000Z</time>
      </trkpt>
      <trkpt lat="45.96893" lon="4.54271">
        <ele>438.5</ele>
        <time>1970-01-01T03:28:58.000Z</time>
      </trkpt>
      <trkpt lat="45.96893" lon="4.54275">
        <ele>438.4</ele>
        <time>1970-01-01T03:28:59.000Z</time>
      </trkpt>
      <trkpt lat="45.96893" lon="4.54275">
        <ele>438.4</ele>
        <time>1970-01-01T03:29:00.000Z</time>
      </trkpt>
      <trkpt lat="45.96892" lon="4.54278">
        <ele>438.2</ele>
        <time>1970-01-01T03:29:01.000Z</time>
      </trkpt>
      <trkpt lat="45.96892" lon="4.54278">
        <ele>438.2</ele>
        <time>1970-01-01T03:29:02.000Z</time>
      </trkpt>
      <trkpt lat="45.9689" lon="4.5428">
        <ele>438.1</ele>
        <time>1970-01-01T03:29:03.000Z</time>
      </trkpt>
      <trkpt lat="45.9689" lon="4.5428">
        <ele>438.1</ele>
        <time>1970-01-01T03:29:04.000Z</time>
      </trkpt>
      <trkpt lat="45.96889" lon="4.54283">
        <ele>437.9</ele>
        <time>1970-01-01T03:29:05.000Z</time>
      </trkpt>
      <trkpt lat="45.96889" lon="4.54283">
        <ele>437.9</ele>
        <time>1970-01-01T03:29:06.000Z</time>
      </trkpt>
      <trkpt lat="45.96888" lon="4.54287">
        <ele>437.7</ele>
        <time>1970-01-01T03:29:07.000Z</time>
      </trkpt>
      <trkpt lat="45.96888" lon="4.54287">
        <ele>437.7</ele>
        <time>1970-01-01T03:29:08.000Z</time>
      </trkpt>
      <trkpt lat="45.96887" lon="4.5429">
        <ele>437.5</ele>
        <time>1970-01-01T03:29:09.000Z</time>
      </trkpt>
      <trkpt lat="45.96887" lon="4.5429">
        <ele>437.5</ele>
        <time>1970-01-01T03:29:10.000Z</time>
      </trkpt>
      <trkpt lat="45.96886" lon="4.54293">
        <ele>437.3</ele>
        <time>1970-01-01T03:29:11.000Z</time>
      </trkpt>
      <trkpt lat="45.96886" lon="4.54293">
        <ele>437.3</ele>
        <time>1970-01-01T03:29:12.000Z</time>
      </trkpt>
      <trkpt lat="45.96885" lon="4.54297">
        <ele>437.1</ele>
        <time>1970-01-01T03:29:13.000Z</time>
      </trkpt>
      <trkpt lat="45.96885" lon="4.54297">
        <ele>437.1</ele>
        <time>1970-01-01T03:29:14.000Z</time>
      </trkpt>
      <trkpt lat="45.96884" lon="4.543">
        <ele>436.8</ele>
        <time>1970-01-01T03:29:15.000Z</time>
      </trkpt>
      <trkpt lat="45.96884" lon="4.543">
        <ele>436.8</ele>
        <time>1970-01-01T03:29:16.000Z</time>
      </trkpt>
      <trkpt lat="45.96883" lon="4.54304">
        <ele>436.5</ele>
        <time>1970-01-01T03:29:17.000Z</time>
      </trkpt>
      <trkpt lat="45.96883" lon="4.54304">
        <ele>436.5</ele>
        <time>1970-01-01T03:29:18.000Z</time>
      </trkpt>
      <trkpt lat="45.96883" lon="4.54308">
        <ele>436.2</ele>
        <time>1970-01-01T03:29:19.000Z</time>
      </trkpt>
      <trkpt lat="45.96883" lon="4.54308">
        <ele>436.2</ele>
        <time>1970-01-01T03:29:20.000Z</time>
      </trkpt>
      <trkpt lat="45.96882" lon="4.54311">
        <ele>435.9</ele>
        <time>1970-01-01T03:29:21.000Z</time>
      </trkpt>
      <trkpt lat="45.96882" lon="4.54311">
        <ele>435.9</ele>
        <time>1970-01-01T03:29:22.000Z</time>
      </trkpt>
      <trkpt lat="45.96881" lon="4.54315">
        <ele>435.6</ele>
        <time>1970-01-01T03:29:23.000Z</time>
      </trkpt>
      <trkpt lat="45.96881" lon="4.54315">
        <ele>435.6</ele>
        <time>1970-01-01T03:29:24.000Z</time>
      </trkpt>
      <trkpt lat="45.9688" lon="4.54319">
        <ele>435.3</ele>
        <time>1970-01-01T03:29:25.000Z</time>
      </trkpt>
      <trkpt lat="45.9688" lon="4.54319">
        <ele>435.3</ele>
        <time>1970-01-01T03:29:26.000Z</time>
      </trkpt>
      <trkpt lat="45.9688" lon="4.54323">
        <ele>435</ele>
        <time>1970-01-01T03:29:27.000Z</time>
      </trkpt>
      <trkpt lat="45.9688" lon="4.54323">
        <ele>435</ele>
        <time>1970-01-01T03:29:28.000Z</time>
      </trkpt>
      <trkpt lat="45.96878" lon="4.54327">
        <ele>434.7</ele>
        <time>1970-01-01T03:29:29.000Z</time>
      </trkpt>
      <trkpt lat="45.96878" lon="4.54327">
        <ele>434.7</ele>
        <time>1970-01-01T03:29:30.000Z</time>
      </trkpt>
      <trkpt lat="45.96877" lon="4.5433">
        <ele>434.5</ele>
        <time>1970-01-01T03:29:31.000Z</time>
      </trkpt>
      <trkpt lat="45.96877" lon="4.5433">
        <ele>434.5</ele>
        <time>1970-01-01T03:29:32.000Z</time>
      </trkpt>
      <trkpt lat="45.96876" lon="4.54333">
        <ele>434.2</ele>
        <time>1970-01-01T03:29:33.000Z</time>
      </trkpt>
      <trkpt lat="45.96876" lon="4.54333">
        <ele>434.2</ele>
        <time>1970-01-01T03:29:34.000Z</time>
      </trkpt>
      <trkpt lat="45.96875" lon="4.54336">
        <ele>434</ele>
        <time>1970-01-01T03:29:35.000Z</time>
      </trkpt>
      <trkpt lat="45.96875" lon="4.54336">
        <ele>434</ele>
        <time>1970-01-01T03:29:36.000Z</time>
      </trkpt>
      <trkpt lat="45.96874" lon="4.54339">
        <ele>433.7</ele>
        <time>1970-01-01T03:29:37.000Z</time>
      </trkpt>
      <trkpt lat="45.96874" lon="4.54339">
        <ele>433.7</ele>
        <time>1970-01-01T03:29:38.000Z</time>
      </trkpt>
      <trkpt lat="45.96873" lon="4.54342">
        <ele>433.5</ele>
        <time>1970-01-01T03:29:39.000Z</time>
      </trkpt>
      <trkpt lat="45.96873" lon="4.54342">
        <ele>433.5</ele>
        <time>1970-01-01T03:29:40.000Z</time>
      </trkpt>
      <trkpt lat="45.96873" lon="4.54346">
        <ele>433.2</ele>
        <time>1970-01-01T03:29:41.000Z</time>
      </trkpt>
      <trkpt lat="45.96873" lon="4.54346">
        <ele>433.2</ele>
        <time>1970-01-01T03:29:42.000Z</time>
      </trkpt>
      <trkpt lat="45.96872" lon="4.5435">
        <ele>432.9</ele>
        <time>1970-01-01T03:29:43.000Z</time>
      </trkpt>
      <trkpt lat="45.96872" lon="4.5435">
        <ele>432.9</ele>
        <time>1970-01-01T03:29:44.000Z</time>
      </trkpt>
      <trkpt lat="45.96871" lon="4.54352">
        <ele>432.6</ele>
        <time>1970-01-01T03:29:45.000Z</time>
      </trkpt>
      <trkpt lat="45.96871" lon="4.54352">
        <ele>432.6</ele>
        <time>1970-01-01T03:29:46.000Z</time>
      </trkpt>
      <trkpt lat="45.9687" lon="4.54356">
        <ele>432.3</ele>
        <time>1970-01-01T03:29:47.000Z</time>
      </trkpt>
      <trkpt lat="45.9687" lon="4.54356">
        <ele>432.3</ele>
        <time>1970-01-01T03:29:48.000Z</time>
      </trkpt>
      <trkpt lat="45.96869" lon="4.54359">
        <ele>431.9</ele>
        <time>1970-01-01T03:29:49.000Z</time>
      </trkpt>
      <trkpt lat="45.96869" lon="4.54359">
        <ele>431.9</ele>
        <time>1970-01-01T03:29:50.000Z</time>
      </trkpt>
      <trkpt lat="45.96868" lon="4.54363">
        <ele>431.5</ele>
        <time>1970-01-01T03:29:51.000Z</time>
      </trkpt>
      <trkpt lat="45.96868" lon="4.54363">
        <ele>431.5</ele>
        <time>1970-01-01T03:29:52.000Z</time>
      </trkpt>
      <trkpt lat="45.96867" lon="4.54367">
        <ele>431.1</ele>
        <time>1970-01-01T03:29:53.000Z</time>
      </trkpt>
      <trkpt lat="45.96867" lon="4.54367">
        <ele>431.1</ele>
        <time>1970-01-01T03:29:54.000Z</time>
      </trkpt>
      <trkpt lat="45.96866" lon="4.5437">
        <ele>430.6</ele>
        <time>1970-01-01T03:29:55.000Z</time>
      </trkpt>
      <trkpt lat="45.96866" lon="4.5437">
        <ele>430.6</ele>
        <time>1970-01-01T03:29:56.000Z</time>
      </trkpt>
      <trkpt lat="45.96865" lon="4.54374">
        <ele>430.2</ele>
        <time>1970-01-01T03:29:57.000Z</time>
      </trkpt>
      <trkpt lat="45.96865" lon="4.54374">
        <ele>430.2</ele>
        <time>1970-01-01T03:29:58.000Z</time>
      </trkpt>
      <trkpt lat="45.96864" lon="4.54377">
        <ele>429.7</ele>
        <time>1970-01-01T03:29:59.000Z</time>
      </trkpt>
      <trkpt lat="45.96864" lon="4.54377">
        <ele>429.7</ele>
        <time>1970-01-01T03:30:00.000Z</time>
      </trkpt>
      <trkpt lat="45.96863" lon="4.5438">
        <ele>429.4</ele>
        <time>1970-01-01T03:30:01.000Z</time>
      </trkpt>
      <trkpt lat="45.96863" lon="4.5438">
        <ele>429.4</ele>
        <time>1970-01-01T03:30:02.000Z</time>
      </trkpt>
      <trkpt lat="45.96862" lon="4.54383">
        <ele>429</ele>
        <time>1970-01-01T03:30:03.000Z</time>
      </trkpt>
      <trkpt lat="45.96862" lon="4.54383">
        <ele>429</ele>
        <time>1970-01-01T03:30:04.000Z</time>
      </trkpt>
      <trkpt lat="45.9686" lon="4.54386">
        <ele>428.5</ele>
        <time>1970-01-01T03:30:05.000Z</time>
      </trkpt>
      <trkpt lat="45.9686" lon="4.54386">
        <ele>428.5</ele>
        <time>1970-01-01T03:30:06.000Z</time>
      </trkpt>
      <trkpt lat="45.96859" lon="4.5439">
        <ele>428</ele>
        <time>1970-01-01T03:30:07.000Z</time>
      </trkpt>
      <trkpt lat="45.96859" lon="4.5439">
        <ele>428</ele>
        <time>1970-01-01T03:30:08.000Z</time>
      </trkpt>
      <trkpt lat="45.96858" lon="4.54393">
        <ele>427.6</ele>
        <time>1970-01-01T03:30:09.000Z</time>
      </trkpt>
      <trkpt lat="45.96858" lon="4.54393">
        <ele>427.6</ele>
        <time>1970-01-01T03:30:10.000Z</time>
      </trkpt>
      <trkpt lat="45.96857" lon="4.54397">
        <ele>427.2</ele>
        <time>1970-01-01T03:30:11.000Z</time>
      </trkpt>
      <trkpt lat="45.96857" lon="4.54397">
        <ele>427.2</ele>
        <time>1970-01-01T03:30:12.000Z</time>
      </trkpt>
      <trkpt lat="45.96855" lon="4.544">
        <ele>426.7</ele>
        <time>1970-01-01T03:30:13.000Z</time>
      </trkpt>
      <trkpt lat="45.96855" lon="4.544">
        <ele>426.7</ele>
        <time>1970-01-01T03:30:14.000Z</time>
      </trkpt>
      <trkpt lat="45.96855" lon="4.54403">
        <ele>426.3</ele>
        <time>1970-01-01T03:30:15.000Z</time>
      </trkpt>
      <trkpt lat="45.96855" lon="4.54403">
        <ele>426.3</ele>
        <time>1970-01-01T03:30:16.000Z</time>
      </trkpt>
      <trkpt lat="45.96855" lon="4.54407">
        <ele>425.9</ele>
        <time>1970-01-01T03:30:17.000Z</time>
      </trkpt>
      <trkpt lat="45.96855" lon="4.54407">
        <ele>425.9</ele>
        <time>1970-01-01T03:30:18.000Z</time>
      </trkpt>
      <trkpt lat="45.96856" lon="4.5441">
        <ele>425.6</ele>
        <time>1970-01-01T03:30:19.000Z</time>
      </trkpt>
      <trkpt lat="45.96856" lon="4.5441">
        <ele>424.8</ele>
        <time>1970-01-01T03:30:20.000Z</time>
      </trkpt>
      <trkpt lat="45.96857" lon="4.54413">
        <ele>424.5</ele>
        <time>1970-01-01T03:30:21.000Z</time>
      </trkpt>
      <trkpt lat="45.96857" lon="4.54413">
        <ele>424.5</ele>
        <time>1970-01-01T03:30:22.000Z</time>
      </trkpt>
      <trkpt lat="45.96858" lon="4.54416">
        <ele>424.2</ele>
        <time>1970-01-01T03:30:23.000Z</time>
      </trkpt>
      <trkpt lat="45.96858" lon="4.54416">
        <ele>424.2</ele>
        <time>1970-01-01T03:30:24.000Z</time>
      </trkpt>
      <trkpt lat="45.9686" lon="4.54419">
        <ele>423.9</ele>
        <time>1970-01-01T03:30:25.000Z</time>
      </trkpt>
      <trkpt lat="45.9686" lon="4.54419">
        <ele>423.9</ele>
        <time>1970-01-01T03:30:26.000Z</time>
      </trkpt>
      <trkpt lat="45.96862" lon="4.54421">
        <ele>423.7</ele>
        <time>1970-01-01T03:30:27.000Z</time>
      </trkpt>
      <trkpt lat="45.96862" lon="4.54421">
        <ele>423.7</ele>
        <time>1970-01-01T03:30:28.000Z</time>
      </trkpt>
      <trkpt lat="45.96864" lon="4.54423">
        <ele>423.4</ele>
        <time>1970-01-01T03:30:29.000Z</time>
      </trkpt>
      <trkpt lat="45.96864" lon="4.54423">
        <ele>423.4</ele>
        <time>1970-01-01T03:30:30.000Z</time>
      </trkpt>
      <trkpt lat="45.96866" lon="4.54424">
        <ele>423.1</ele>
        <time>1970-01-01T03:30:31.000Z</time>
      </trkpt>
      <trkpt lat="45.96866" lon="4.54424">
        <ele>423.1</ele>
        <time>1970-01-01T03:30:32.000Z</time>
      </trkpt>
      <trkpt lat="45.96869" lon="4.54425">
        <ele>422.8</ele>
        <time>1970-01-01T03:30:33.000Z</time>
      </trkpt>
      <trkpt lat="45.96869" lon="4.54425">
        <ele>422.8</ele>
        <time>1970-01-01T03:30:34.000Z</time>
      </trkpt>
      <trkpt lat="45.96871" lon="4.54426">
        <ele>422.6</ele>
        <time>1970-01-01T03:30:35.000Z</time>
      </trkpt>
      <trkpt lat="45.96871" lon="4.54426">
        <ele>422.6</ele>
        <time>1970-01-01T03:30:36.000Z</time>
      </trkpt>
      <trkpt lat="45.96874" lon="4.54425">
        <ele>422.2</ele>
        <time>1970-01-01T03:30:37.000Z</time>
      </trkpt>
      <trkpt lat="45.96874" lon="4.54425">
        <ele>422.2</ele>
        <time>1970-01-01T03:30:38.000Z</time>
      </trkpt>
      <trkpt lat="45.96877" lon="4.54424">
        <ele>421.9</ele>
        <time>1970-01-01T03:30:39.000Z</time>
      </trkpt>
      <trkpt lat="45.96877" lon="4.54424">
        <ele>421.9</ele>
        <time>1970-01-01T03:30:40.000Z</time>
      </trkpt>
      <trkpt lat="45.96879" lon="4.54424">
        <ele>421.6</ele>
        <time>1970-01-01T03:30:41.000Z</time>
      </trkpt>
      <trkpt lat="45.96879" lon="4.54424">
        <ele>421.6</ele>
        <time>1970-01-01T03:30:42.000Z</time>
      </trkpt>
      <trkpt lat="45.96881" lon="4.54423">
        <ele>421.3</ele>
        <time>1970-01-01T03:30:43.000Z</time>
      </trkpt>
      <trkpt lat="45.96881" lon="4.54423">
        <ele>421.3</ele>
        <time>1970-01-01T03:30:44.000Z</time>
      </trkpt>
      <trkpt lat="45.96883" lon="4.54422">
        <ele>420.9</ele>
        <time>1970-01-01T03:30:45.000Z</time>
      </trkpt>
      <trkpt lat="45.96883" lon="4.54422">
        <ele>420.9</ele>
        <time>1970-01-01T03:30:46.000Z</time>
      </trkpt>
      <trkpt lat="45.96886" lon="4.54421">
        <ele>420.5</ele>
        <time>1970-01-01T03:30:47.000Z</time>
      </trkpt>
      <trkpt lat="45.96886" lon="4.54421">
        <ele>420.5</ele>
        <time>1970-01-01T03:30:48.000Z</time>
      </trkpt>
      <trkpt lat="45.96888" lon="4.54421">
        <ele>420.1</ele>
        <time>1970-01-01T03:30:49.000Z</time>
      </trkpt>
      <trkpt lat="45.96888" lon="4.54421">
        <ele>420.1</ele>
        <time>1970-01-01T03:30:50.000Z</time>
      </trkpt>
      <trkpt lat="45.96891" lon="4.5442">
        <ele>419.7</ele>
        <time>1970-01-01T03:30:51.000Z</time>
      </trkpt>
      <trkpt lat="45.96891" lon="4.5442">
        <ele>419.7</ele>
        <time>1970-01-01T03:30:52.000Z</time>
      </trkpt>
      <trkpt lat="45.96893" lon="4.54419">
        <ele>419.4</ele>
        <time>1970-01-01T03:30:53.000Z</time>
      </trkpt>
      <trkpt lat="45.96893" lon="4.54419">
        <ele>419.4</ele>
        <time>1970-01-01T03:30:54.000Z</time>
      </trkpt>
      <trkpt lat="45.96895" lon="4.54419">
        <ele>419.1</ele>
        <time>1970-01-01T03:30:55.000Z</time>
      </trkpt>
      <trkpt lat="45.96895" lon="4.54419">
        <ele>419.1</ele>
        <time>1970-01-01T03:30:56.000Z</time>
      </trkpt>
      <trkpt lat="45.96897" lon="4.54419">
        <ele>418.7</ele>
        <time>1970-01-01T03:30:57.000Z</time>
      </trkpt>
      <trkpt lat="45.96897" lon="4.54419">
        <ele>418.7</ele>
        <time>1970-01-01T03:30:58.000Z</time>
      </trkpt>
      <trkpt lat="45.969" lon="4.54421">
        <ele>418.4</ele>
        <time>1970-01-01T03:30:59.000Z</time>
      </trkpt>
      <trkpt lat="45.969" lon="4.54421">
        <ele>418.4</ele>
        <time>1970-01-01T03:31:00.000Z</time>
      </trkpt>
      <trkpt lat="45.96902" lon="4.54423">
        <ele>418</ele>
        <time>1970-01-01T03:31:01.000Z</time>
      </trkpt>
      <trkpt lat="45.96902" lon="4.54423">
        <ele>418</ele>
        <time>1970-01-01T03:31:02.000Z</time>
      </trkpt>
      <trkpt lat="45.96903" lon="4.54426">
        <ele>417.7</ele>
        <time>1970-01-01T03:31:03.000Z</time>
      </trkpt>
      <trkpt lat="45.96903" lon="4.54426">
        <ele>417.7</ele>
        <time>1970-01-01T03:31:04.000Z</time>
      </trkpt>
      <trkpt lat="45.96905" lon="4.54428">
        <ele>417.3</ele>
        <time>1970-01-01T03:31:05.000Z</time>
      </trkpt>
      <trkpt lat="45.96905" lon="4.54428">
        <ele>417.3</ele>
        <time>1970-01-01T03:31:06.000Z</time>
      </trkpt>
      <trkpt lat="45.96907" lon="4.54431">
        <ele>417</ele>
        <time>1970-01-01T03:31:07.000Z</time>
      </trkpt>
      <trkpt lat="45.96907" lon="4.54431">
        <ele>417</ele>
        <time>1970-01-01T03:31:08.000Z</time>
      </trkpt>
      <trkpt lat="45.96909" lon="4.54433">
        <ele>416.7</ele>
        <time>1970-01-01T03:31:09.000Z</time>
      </trkpt>
      <trkpt lat="45.96909" lon="4.54433">
        <ele>416.7</ele>
        <time>1970-01-01T03:31:10.000Z</time>
      </trkpt>
      <trkpt lat="45.9691" lon="4.54436">
        <ele>416.3</ele>
        <time>1970-01-01T03:31:11.000Z</time>
      </trkpt>
      <trkpt lat="45.9691" lon="4.54436">
        <ele>416.3</ele>
        <time>1970-01-01T03:31:12.000Z</time>
      </trkpt>
      <trkpt lat="45.96911" lon="4.54439">
        <ele>416.1</ele>
        <time>1970-01-01T03:31:13.000Z</time>
      </trkpt>
      <trkpt lat="45.96911" lon="4.54439">
        <ele>416.1</ele>
        <time>1970-01-01T03:31:14.000Z</time>
      </trkpt>
      <trkpt lat="45.96912" lon="4.54441">
        <ele>415.8</ele>
        <time>1970-01-01T03:31:15.000Z</time>
      </trkpt>
      <trkpt lat="45.96912" lon="4.54441">
        <ele>415.8</ele>
        <time>1970-01-01T03:31:16.000Z</time>
      </trkpt>
      <trkpt lat="45.96913" lon="4.54444">
        <ele>415.5</ele>
        <time>1970-01-01T03:31:17.000Z</time>
      </trkpt>
      <trkpt lat="45.96913" lon="4.54444">
        <ele>415.5</ele>
        <time>1970-01-01T03:31:18.000Z</time>
      </trkpt>
      <trkpt lat="45.96914" lon="4.54447">
        <ele>415.2</ele>
        <time>1970-01-01T03:31:19.000Z</time>
      </trkpt>
      <trkpt lat="45.96914" lon="4.54447">
        <ele>415.2</ele>
        <time>1970-01-01T03:31:20.000Z</time>
      </trkpt>
      <trkpt lat="45.96916" lon="4.5445">
        <ele>414.8</ele>
        <time>1970-01-01T03:31:21.000Z</time>
      </trkpt>
      <trkpt lat="45.96916" lon="4.5445">
        <ele>414.8</ele>
        <time>1970-01-01T03:31:22.000Z</time>
      </trkpt>
      <trkpt lat="45.96917" lon="4.54453">
        <ele>414.5</ele>
        <time>1970-01-01T03:31:23.000Z</time>
      </trkpt>
      <trkpt lat="45.96917" lon="4.54453">
        <ele>414.5</ele>
        <time>1970-01-01T03:31:24.000Z</time>
      </trkpt>
      <trkpt lat="45.96917" lon="4.54457">
        <ele>414.2</ele>
        <time>1970-01-01T03:31:25.000Z</time>
      </trkpt>
      <trkpt lat="45.96917" lon="4.54457">
        <ele>414.2</ele>
        <time>1970-01-01T03:31:26.000Z</time>
      </trkpt>
      <trkpt lat="45.96919" lon="4.5446">
        <ele>413.9</ele>
        <time>1970-01-01T03:31:27.000Z</time>
      </trkpt>
      <trkpt lat="45.96919" lon="4.5446">
        <ele>413.9</ele>
        <time>1970-01-01T03:31:28.000Z</time>
      </trkpt>
      <trkpt lat="45.9692" lon="4.54463">
        <ele>413.5</ele>
        <time>1970-01-01T03:31:29.000Z</time>
      </trkpt>
      <trkpt lat="45.9692" lon="4.54463">
        <ele>413.5</ele>
        <time>1970-01-01T03:31:30.000Z</time>
      </trkpt>
      <trkpt lat="45.96921" lon="4.54466">
        <ele>413.3</ele>
        <time>1970-01-01T03:31:31.000Z</time>
      </trkpt>
      <trkpt lat="45.96921" lon="4.54466">
        <ele>413.3</ele>
        <time>1970-01-01T03:31:32.000Z</time>
      </trkpt>
      <trkpt lat="45.96921" lon="4.5447">
        <ele>412.9</ele>
        <time>1970-01-01T03:31:33.000Z</time>
      </trkpt>
      <trkpt lat="45.96921" lon="4.5447">
        <ele>412.9</ele>
        <time>1970-01-01T03:31:34.000Z</time>
      </trkpt>
      <trkpt lat="45.96922" lon="4.54474">
        <ele>412.6</ele>
        <time>1970-01-01T03:31:35.000Z</time>
      </trkpt>
      <trkpt lat="45.96922" lon="4.54474">
        <ele>412.6</ele>
        <time>1970-01-01T03:31:36.000Z</time>
      </trkpt>
      <trkpt lat="45.96923" lon="4.54477">
        <ele>412.2</ele>
        <time>1970-01-01T03:31:37.000Z</time>
      </trkpt>
      <trkpt lat="45.96923" lon="4.54477">
        <ele>412.2</ele>
        <time>1970-01-01T03:31:38.000Z</time>
      </trkpt>
      <trkpt lat="45.96923" lon="4.54481">
        <ele>411.9</ele>
        <time>1970-01-01T03:31:39.000Z</time>
      </trkpt>
      <trkpt lat="45.96923" lon="4.54481">
        <ele>411.9</ele>
        <time>1970-01-01T03:31:40.000Z</time>
      </trkpt>
      <trkpt lat="45.96924" lon="4.54484">
        <ele>411.6</ele>
        <time>1970-01-01T03:31:41.000Z</time>
      </trkpt>
      <trkpt lat="45.96924" lon="4.54484">
        <ele>411.6</ele>
        <time>1970-01-01T03:31:42.000Z</time>
      </trkpt>
      <trkpt lat="45.96924" lon="4.54488">
        <ele>411.2</ele>
        <time>1970-01-01T03:31:43.000Z</time>
      </trkpt>
      <trkpt lat="45.96924" lon="4.54488">
        <ele>411.2</ele>
        <time>1970-01-01T03:31:44.000Z</time>
      </trkpt>
      <trkpt lat="45.96924" lon="4.54492">
        <ele>410.9</ele>
        <time>1970-01-01T03:31:45.000Z</time>
      </trkpt>
      <trkpt lat="45.96924" lon="4.54492">
        <ele>410.9</ele>
        <time>1970-01-01T03:31:46.000Z</time>
      </trkpt>
      <trkpt lat="45.96925" lon="4.54496">
        <ele>410.5</ele>
        <time>1970-01-01T03:31:47.000Z</time>
      </trkpt>
      <trkpt lat="45.96925" lon="4.54496">
        <ele>410.5</ele>
        <time>1970-01-01T03:31:48.000Z</time>
      </trkpt>
      <trkpt lat="45.96924" lon="4.545">
        <ele>410.1</ele>
        <time>1970-01-01T03:31:49.000Z</time>
      </trkpt>
      <trkpt lat="45.96924" lon="4.545">
        <ele>410.1</ele>
        <time>1970-01-01T03:31:50.000Z</time>
      </trkpt>
      <trkpt lat="45.96925" lon="4.54504">
        <ele>409.8</ele>
        <time>1970-01-01T03:31:51.000Z</time>
      </trkpt>
      <trkpt lat="45.96925" lon="4.54504">
        <ele>409.8</ele>
        <time>1970-01-01T03:31:52.000Z</time>
      </trkpt>
      <trkpt lat="45.96926" lon="4.54507">
        <ele>409.4</ele>
        <time>1970-01-01T03:31:53.000Z</time>
      </trkpt>
      <trkpt lat="45.96926" lon="4.54507">
        <ele>409.4</ele>
        <time>1970-01-01T03:31:54.000Z</time>
      </trkpt>
      <trkpt lat="45.96926" lon="4.5451">
        <ele>409.1</ele>
        <time>1970-01-01T03:31:55.000Z</time>
      </trkpt>
      <trkpt lat="45.96926" lon="4.5451">
        <ele>409.1</ele>
        <time>1970-01-01T03:31:56.000Z</time>
      </trkpt>
      <trkpt lat="45.96926" lon="4.54514">
        <ele>408.8</ele>
        <time>1970-01-01T03:31:57.000Z</time>
      </trkpt>
      <trkpt lat="45.96926" lon="4.54514">
        <ele>408.8</ele>
        <time>1970-01-01T03:31:58.000Z</time>
      </trkpt>
      <trkpt lat="45.96927" lon="4.54518">
        <ele>408.4</ele>
        <time>1970-01-01T03:31:59.000Z</time>
      </trkpt>
      <trkpt lat="45.96927" lon="4.54518">
        <ele>408.4</ele>
        <time>1970-01-01T03:32:00.000Z</time>
      </trkpt>
      <trkpt lat="45.96927" lon="4.54521">
        <ele>408</ele>
        <time>1970-01-01T03:32:01.000Z</time>
      </trkpt>
      <trkpt lat="45.96927" lon="4.54521">
        <ele>408</ele>
        <time>1970-01-01T03:32:02.000Z</time>
      </trkpt>
      <trkpt lat="45.96927" lon="4.54525">
        <ele>407.7</ele>
        <time>1970-01-01T03:32:03.000Z</time>
      </trkpt>
      <trkpt lat="45.96927" lon="4.54525">
        <ele>407.7</ele>
        <time>1970-01-01T03:32:04.000Z</time>
      </trkpt>
      <trkpt lat="45.96926" lon="4.54528">
        <ele>407.4</ele>
        <time>1970-01-01T03:32:05.000Z</time>
      </trkpt>
      <trkpt lat="45.96926" lon="4.54528">
        <ele>407.4</ele>
        <time>1970-01-01T03:32:06.000Z</time>
      </trkpt>
      <trkpt lat="45.96926" lon="4.54532">
        <ele>407.1</ele>
        <time>1970-01-01T03:32:07.000Z</time>
      </trkpt>
      <trkpt lat="45.96926" lon="4.54532">
        <ele>407.1</ele>
        <time>1970-01-01T03:32:08.000Z</time>
      </trkpt>
      <trkpt lat="45.96926" lon="4.54536">
        <ele>406.7</ele>
        <time>1970-01-01T03:32:09.000Z</time>
      </trkpt>
      <trkpt lat="45.96926" lon="4.54536">
        <ele>406.7</ele>
        <time>1970-01-01T03:32:10.000Z</time>
      </trkpt>
      <trkpt lat="45.96925" lon="4.5454">
        <ele>406.4</ele>
        <time>1970-01-01T03:32:11.000Z</time>
      </trkpt>
      <trkpt lat="45.96925" lon="4.5454">
        <ele>406.4</ele>
        <time>1970-01-01T03:32:12.000Z</time>
      </trkpt>
      <trkpt lat="45.96924" lon="4.54544">
        <ele>406</ele>
        <time>1970-01-01T03:32:13.000Z</time>
      </trkpt>
      <trkpt lat="45.96924" lon="4.54544">
        <ele>406</ele>
        <time>1970-01-01T03:32:14.000Z</time>
      </trkpt>
      <trkpt lat="45.96924" lon="4.54548">
        <ele>405.8</ele>
        <time>1970-01-01T03:32:15.000Z</time>
      </trkpt>
      <trkpt lat="45.96924" lon="4.54548">
        <ele>405.8</ele>
        <time>1970-01-01T03:32:16.000Z</time>
      </trkpt>
      <trkpt lat="45.96922" lon="4.54552">
        <ele>405.5</ele>
        <time>1970-01-01T03:32:17.000Z</time>
      </trkpt>
      <trkpt lat="45.96922" lon="4.54552">
        <ele>405.5</ele>
        <time>1970-01-01T03:32:18.000Z</time>
      </trkpt>
      <trkpt lat="45.96921" lon="4.54555">
        <ele>405.3</ele>
        <time>1970-01-01T03:32:19.000Z</time>
      </trkpt>
      <trkpt lat="45.96921" lon="4.54555">
        <ele>405.3</ele>
        <time>1970-01-01T03:32:20.000Z</time>
      </trkpt>
      <trkpt lat="45.96921" lon="4.54558">
        <ele>405.1</ele>
        <time>1970-01-01T03:32:21.000Z</time>
      </trkpt>
      <trkpt lat="45.96921" lon="4.54558">
        <ele>405.1</ele>
        <time>1970-01-01T03:32:22.000Z</time>
      </trkpt>
      <trkpt lat="45.9692" lon="4.54561">
        <ele>404.9</ele>
        <time>1970-01-01T03:32:23.000Z</time>
      </trkpt>
      <trkpt lat="45.96919" lon="4.54563">
        <ele>404.8</ele>
        <time>1970-01-01T03:32:24.000Z</time>
      </trkpt>
      <trkpt lat="45.96919" lon="4.54564">
        <ele>404.7</ele>
        <time>1970-01-01T03:32:25.000Z</time>
      </trkpt>
      <trkpt lat="45.96918" lon="4.54566">
        <ele>404.6</ele>
        <time>1970-01-01T03:32:26.000Z</time>
      </trkpt>
      <trkpt lat="45.96918" lon="4.54568">
        <ele>404.4</ele>
        <time>1970-01-01T03:32:27.000Z</time>
      </trkpt>
      <trkpt lat="45.96917" lon="4.5457">
        <ele>404.3</ele>
        <time>1970-01-01T03:32:28.000Z</time>
      </trkpt>
      <trkpt lat="45.96917" lon="4.54572">
        <ele>404.2</ele>
        <time>1970-01-01T03:32:29.000Z</time>
      </trkpt>
      <trkpt lat="45.96916" lon="4.54574">
        <ele>404.1</ele>
        <time>1970-01-01T03:32:30.000Z</time>
      </trkpt>
      <trkpt lat="45.96916" lon="4.54575">
        <ele>403.9</ele>
        <time>1970-01-01T03:32:31.000Z</time>
      </trkpt>
      <trkpt lat="45.96916" lon="4.54577">
        <ele>403.8</ele>
        <time>1970-01-01T03:32:32.000Z</time>
      </trkpt>
      <trkpt lat="45.96915" lon="4.54579">
        <ele>403.7</ele>
        <time>1970-01-01T03:32:33.000Z</time>
      </trkpt>
      <trkpt lat="45.96915" lon="4.54581">
        <ele>403.5</ele>
        <time>1970-01-01T03:32:34.000Z</time>
      </trkpt>
      <trkpt lat="45.96914" lon="4.54583">
        <ele>403.3</ele>
        <time>1970-01-01T03:32:35.000Z</time>
      </trkpt>
      <trkpt lat="45.96914" lon="4.54585">
        <ele>403.2</ele>
        <time>1970-01-01T03:32:36.000Z</time>
      </trkpt>
      <trkpt lat="45.96914" lon="4.54587">
        <ele>403</ele>
        <time>1970-01-01T03:32:37.000Z</time>
      </trkpt>
      <trkpt lat="45.96913" lon="4.54588">
        <ele>402.9</ele>
        <time>1970-01-01T03:32:38.000Z</time>
      </trkpt>
      <trkpt lat="45.96913" lon="4.54589">
        <ele>402.8</ele>
        <time>1970-01-01T03:32:39.000Z</time>
      </trkpt>
      <trkpt lat="45.96912" lon="4.54591">
        <ele>402.6</ele>
        <time>1970-01-01T03:32:40.000Z</time>
      </trkpt>
      <trkpt lat="45.96912" lon="4.54592">
        <ele>402.5</ele>
        <time>1970-01-01T03:32:41.000Z</time>
      </trkpt>
      <trkpt lat="45.96911" lon="4.54594">
        <ele>402.4</ele>
        <time>1970-01-01T03:32:42.000Z</time>
      </trkpt>
      <trkpt lat="45.96911" lon="4.54595">
        <ele>402.2</ele>
        <time>1970-01-01T03:32:43.000Z</time>
      </trkpt>
      <trkpt lat="45.9691" lon="4.54596">
        <ele>402.1</ele>
        <time>1970-01-01T03:32:44.000Z</time>
      </trkpt>
      <trkpt lat="45.9691" lon="4.54598">
        <ele>401.9</ele>
        <time>1970-01-01T03:32:45.000Z</time>
      </trkpt>
      <trkpt lat="45.96909" lon="4.54599">
        <ele>401.8</ele>
        <time>1970-01-01T03:32:46.000Z</time>
      </trkpt>
      <trkpt lat="45.96909" lon="4.54599">
        <ele>401.8</ele>
        <time>1970-01-01T03:32:47.000Z</time>
      </trkpt>
      <trkpt lat="45.96907" lon="4.54602">
        <ele>401.4</ele>
        <time>1970-01-01T03:32:48.000Z</time>
      </trkpt>
      <trkpt lat="45.96907" lon="4.54602">
        <ele>401.4</ele>
        <time>1970-01-01T03:32:49.000Z</time>
      </trkpt>
      <trkpt lat="45.96907" lon="4.54605">
        <ele>401.1</ele>
        <time>1970-01-01T03:32:50.000Z</time>
      </trkpt>
      <trkpt lat="45.96907" lon="4.54607">
        <ele>401</ele>
        <time>1970-01-01T03:32:51.000Z</time>
      </trkpt>
      <trkpt lat="45.96906" lon="4.54609">
        <ele>400.8</ele>
        <time>1970-01-01T03:32:52.000Z</time>
      </trkpt>
      <trkpt lat="45.96906" lon="4.54611">
        <ele>400.6</ele>
        <time>1970-01-01T03:32:53.000Z</time>
      </trkpt>
      <trkpt lat="45.96906" lon="4.54611">
        <ele>400.6</ele>
        <time>1970-01-01T03:32:54.000Z</time>
      </trkpt>
      <trkpt lat="45.96905" lon="4.54613">
        <ele>400.3</ele>
        <time>1970-01-01T03:32:55.000Z</time>
      </trkpt>
      <trkpt lat="45.96905" lon="4.54613">
        <ele>400.3</ele>
        <time>1970-01-01T03:32:56.000Z</time>
      </trkpt>
      <trkpt lat="45.96903" lon="4.54615">
        <ele>400.1</ele>
        <time>1970-01-01T03:32:57.000Z</time>
      </trkpt>
      <trkpt lat="45.96903" lon="4.54615">
        <ele>400.1</ele>
        <time>1970-01-01T03:32:58.000Z</time>
      </trkpt>
      <trkpt lat="45.96902" lon="4.54618">
        <ele>399.8</ele>
        <time>1970-01-01T03:32:59.000Z</time>
      </trkpt>
      <trkpt lat="45.96901" lon="4.5462">
        <ele>399.5</ele>
        <time>1970-01-01T03:33:00.000Z</time>
      </trkpt>
      <trkpt lat="45.969" lon="4.54622">
        <ele>399.3</ele>
        <time>1970-01-01T03:33:01.000Z</time>
      </trkpt>
      <trkpt lat="45.969" lon="4.54625">
        <ele>399.1</ele>
        <time>1970-01-01T03:33:02.000Z</time>
      </trkpt>
      <trkpt lat="45.96899" lon="4.54628">
        <ele>398.8</ele>
        <time>1970-01-01T03:33:03.000Z</time>
      </trkpt>
      <trkpt lat="45.96899" lon="4.54628">
        <ele>398.8</ele>
        <time>1970-01-01T03:33:04.000Z</time>
      </trkpt>
      <trkpt lat="45.96898" lon="4.54632">
        <ele>398.4</ele>
        <time>1970-01-01T03:33:05.000Z</time>
      </trkpt>
      <trkpt lat="45.96898" lon="4.54632">
        <ele>398.4</ele>
        <time>1970-01-01T03:33:06.000Z</time>
      </trkpt>
      <trkpt lat="45.96898" lon="4.54636">
        <ele>398.1</ele>
        <time>1970-01-01T03:33:07.000Z</time>
      </trkpt>
      <trkpt lat="45.96898" lon="4.54636">
        <ele>398.1</ele>
        <time>1970-01-01T03:33:08.000Z</time>
      </trkpt>
      <trkpt lat="45.96899" lon="4.54639">
        <ele>397.8</ele>
        <time>1970-01-01T03:33:09.000Z</time>
      </trkpt>
      <trkpt lat="45.96899" lon="4.54639">
        <ele>397.8</ele>
        <time>1970-01-01T03:33:10.000Z</time>
      </trkpt>
      <trkpt lat="45.969" lon="4.54642">
        <ele>397.6</ele>
        <time>1970-01-01T03:33:11.000Z</time>
      </trkpt>
      <trkpt lat="45.969" lon="4.54642">
        <ele>397.6</ele>
        <time>1970-01-01T03:33:12.000Z</time>
      </trkpt>
      <trkpt lat="45.969" lon="4.54642">
        <ele>397.6</ele>
        <time>1970-01-01T03:33:13.000Z</time>
      </trkpt>
      <trkpt lat="45.969" lon="4.54645">
        <ele>397.3</ele>
        <time>1970-01-01T03:33:14.000Z</time>
      </trkpt>
      <trkpt lat="45.969" lon="4.54646">
        <ele>397.3</ele>
        <time>1970-01-01T03:33:15.000Z</time>
      </trkpt>
      <trkpt lat="45.969" lon="4.54647">
        <ele>397.2</ele>
        <time>1970-01-01T03:33:16.000Z</time>
      </trkpt>
      <trkpt lat="45.969" lon="4.54648">
        <ele>397.1</ele>
        <time>1970-01-01T03:33:17.000Z</time>
      </trkpt>
      <trkpt lat="45.969" lon="4.54649">
        <ele>397.1</ele>
        <time>1970-01-01T03:33:18.000Z</time>
      </trkpt>
      <trkpt lat="45.969" lon="4.5465">
        <ele>397</ele>
        <time>1970-01-01T03:33:19.000Z</time>
      </trkpt>
      <trkpt lat="45.969" lon="4.54651">
        <ele>396.9</ele>
        <time>1970-01-01T03:33:20.000Z</time>
      </trkpt>
      <trkpt lat="45.969" lon="4.54652">
        <ele>396.9</ele>
        <time>1970-01-01T03:33:21.000Z</time>
      </trkpt>
      <trkpt lat="45.969" lon="4.54653">
        <ele>396.8</ele>
        <time>1970-01-01T03:33:22.000Z</time>
      </trkpt>
      <trkpt lat="45.96899" lon="4.54662">
        <ele>396.1</ele>
        <time>1970-01-01T03:33:23.000Z</time>
      </trkpt>
      <trkpt lat="45.96899" lon="4.54664">
        <ele>396</ele>
        <time>1970-01-01T03:33:24.000Z</time>
      </trkpt>
      <trkpt lat="45.969" lon="4.54666">
        <ele>395.9</ele>
        <time>1970-01-01T03:33:25.000Z</time>
      </trkpt>
      <trkpt lat="45.969" lon="4.54668">
        <ele>395.7</ele>
        <time>1970-01-01T03:33:26.000Z</time>
      </trkpt>
      <trkpt lat="45.969" lon="4.5467">
        <ele>395.6</ele>
        <time>1970-01-01T03:33:27.000Z</time>
      </trkpt>
      <trkpt lat="45.969" lon="4.54672">
        <ele>395.4</ele>
        <time>1970-01-01T03:33:28.000Z</time>
      </trkpt>
      <trkpt lat="45.969" lon="4.54674">
        <ele>395.3</ele>
        <time>1970-01-01T03:33:29.000Z</time>
      </trkpt>
      <trkpt lat="45.96901" lon="4.54675">
        <ele>395.2</ele>
        <time>1970-01-01T03:33:30.000Z</time>
      </trkpt>
      <trkpt lat="45.96901" lon="4.54677">
        <ele>395.1</ele>
        <time>1970-01-01T03:33:31.000Z</time>
      </trkpt>
      <trkpt lat="45.96902" lon="4.54678">
        <ele>395</ele>
        <time>1970-01-01T03:33:32.000Z</time>
      </trkpt>
      <trkpt lat="45.96902" lon="4.54679">
        <ele>394.9</ele>
        <time>1970-01-01T03:33:33.000Z</time>
      </trkpt>
      <trkpt lat="45.96903" lon="4.5468">
        <ele>394.7</ele>
        <time>1970-01-01T03:33:34.000Z</time>
      </trkpt>
      <trkpt lat="45.96903" lon="4.54681">
        <ele>394.6</ele>
        <time>1970-01-01T03:33:35.000Z</time>
      </trkpt>
      <trkpt lat="45.96904" lon="4.54682">
        <ele>394.5</ele>
        <time>1970-01-01T03:33:36.000Z</time>
      </trkpt>
      <trkpt lat="45.96904" lon="4.54684">
        <ele>394.4</ele>
        <time>1970-01-01T03:33:37.000Z</time>
      </trkpt>
      <trkpt lat="45.96905" lon="4.54685">
        <ele>394.3</ele>
        <time>1970-01-01T03:33:38.000Z</time>
      </trkpt>
      <trkpt lat="45.96905" lon="4.54686">
        <ele>394.2</ele>
        <time>1970-01-01T03:33:39.000Z</time>
      </trkpt>
      <trkpt lat="45.96906" lon="4.54687">
        <ele>394.1</ele>
        <time>1970-01-01T03:33:40.000Z</time>
      </trkpt>
      <trkpt lat="45.96906" lon="4.54688">
        <ele>394</ele>
        <time>1970-01-01T03:33:41.000Z</time>
      </trkpt>
      <trkpt lat="45.96907" lon="4.54689">
        <ele>393.8</ele>
        <time>1970-01-01T03:33:42.000Z</time>
      </trkpt>
      <trkpt lat="45.96908" lon="4.54691">
        <ele>393.7</ele>
        <time>1970-01-01T03:33:43.000Z</time>
      </trkpt>
      <trkpt lat="45.96908" lon="4.54692">
        <ele>393.6</ele>
        <time>1970-01-01T03:33:44.000Z</time>
      </trkpt>
      <trkpt lat="45.96909" lon="4.54693">
        <ele>393.5</ele>
        <time>1970-01-01T03:33:45.000Z</time>
      </trkpt>
      <trkpt lat="45.9691" lon="4.54694">
        <ele>393.4</ele>
        <time>1970-01-01T03:33:46.000Z</time>
      </trkpt>
      <trkpt lat="45.9691" lon="4.54695">
        <ele>393.3</ele>
        <time>1970-01-01T03:33:47.000Z</time>
      </trkpt>
      <trkpt lat="45.96911" lon="4.54696">
        <ele>393.1</ele>
        <time>1970-01-01T03:33:48.000Z</time>
      </trkpt>
      <trkpt lat="45.96912" lon="4.54697">
        <ele>393.1</ele>
        <time>1970-01-01T03:33:49.000Z</time>
      </trkpt>
      <trkpt lat="45.96912" lon="4.54697">
        <ele>393</ele>
        <time>1970-01-01T03:33:50.000Z</time>
      </trkpt>
      <trkpt lat="45.96913" lon="4.54697">
        <ele>392.9</ele>
        <time>1970-01-01T03:33:51.000Z</time>
      </trkpt>
      <trkpt lat="45.96913" lon="4.54698">
        <ele>392.8</ele>
        <time>1970-01-01T03:33:52.000Z</time>
      </trkpt>
      <trkpt lat="45.96914" lon="4.54698">
        <ele>392.8</ele>
        <time>1970-01-01T03:33:53.000Z</time>
      </trkpt>
      <trkpt lat="45.96915" lon="4.54698">
        <ele>392.7</ele>
        <time>1970-01-01T03:33:54.000Z</time>
      </trkpt>
      <trkpt lat="45.96915" lon="4.54699">
        <ele>392.6</ele>
        <time>1970-01-01T03:33:55.000Z</time>
      </trkpt>
      <trkpt lat="45.96916" lon="4.54699">
        <ele>392.6</ele>
        <time>1970-01-01T03:33:56.000Z</time>
      </trkpt>
      <trkpt lat="45.96922" lon="4.54703">
        <ele>391.9</ele>
        <time>1970-01-01T03:33:57.000Z</time>
      </trkpt>
      <trkpt lat="45.96924" lon="4.54704">
        <ele>391.7</ele>
        <time>1970-01-01T03:33:58.000Z</time>
      </trkpt>
      <trkpt lat="45.96925" lon="4.54705">
        <ele>391.5</ele>
        <time>1970-01-01T03:33:59.000Z</time>
      </trkpt>
      <trkpt lat="45.96927" lon="4.54706">
        <ele>391.4</ele>
        <time>1970-01-01T03:34:00.000Z</time>
      </trkpt>
      <trkpt lat="45.96929" lon="4.54707">
        <ele>391.2</ele>
        <time>1970-01-01T03:34:01.000Z</time>
      </trkpt>
      <trkpt lat="45.9693" lon="4.54708">
        <ele>391.1</ele>
        <time>1970-01-01T03:34:02.000Z</time>
      </trkpt>
      <trkpt lat="45.96932" lon="4.54709">
        <ele>391</ele>
        <time>1970-01-01T03:34:03.000Z</time>
      </trkpt>
      <trkpt lat="45.96933" lon="4.54711">
        <ele>390.8</ele>
        <time>1970-01-01T03:34:04.000Z</time>
      </trkpt>
      <trkpt lat="45.96934" lon="4.54712">
        <ele>390.7</ele>
        <time>1970-01-01T03:34:05.000Z</time>
      </trkpt>
      <trkpt lat="45.96936" lon="4.54713">
        <ele>390.6</ele>
        <time>1970-01-01T03:34:06.000Z</time>
      </trkpt>
      <trkpt lat="45.96937" lon="4.54715">
        <ele>390.5</ele>
        <time>1970-01-01T03:34:07.000Z</time>
      </trkpt>
      <trkpt lat="45.96938" lon="4.54716">
        <ele>390.4</ele>
        <time>1970-01-01T03:34:08.000Z</time>
      </trkpt>
      <trkpt lat="45.96939" lon="4.54717">
        <ele>390.3</ele>
        <time>1970-01-01T03:34:09.000Z</time>
      </trkpt>
      <trkpt lat="45.9694" lon="4.54719">
        <ele>390.2</ele>
        <time>1970-01-01T03:34:10.000Z</time>
      </trkpt>
      <trkpt lat="45.96941" lon="4.5472">
        <ele>390.1</ele>
        <time>1970-01-01T03:34:11.000Z</time>
      </trkpt>
      <trkpt lat="45.96942" lon="4.54722">
        <ele>390</ele>
        <time>1970-01-01T03:34:12.000Z</time>
      </trkpt>
      <trkpt lat="45.96943" lon="4.54723">
        <ele>389.9</ele>
        <time>1970-01-01T03:34:13.000Z</time>
      </trkpt>
      <trkpt lat="45.96944" lon="4.54725">
        <ele>389.9</ele>
        <time>1970-01-01T03:34:14.000Z</time>
      </trkpt>
      <trkpt lat="45.96945" lon="4.54726">
        <ele>389.8</ele>
        <time>1970-01-01T03:34:15.000Z</time>
      </trkpt>
      <trkpt lat="45.96945" lon="4.54728">
        <ele>389.7</ele>
        <time>1970-01-01T03:34:17.000Z</time>
      </trkpt>
      <trkpt lat="45.96945" lon="4.5473">
        <ele>389.6</ele>
        <time>1970-01-01T03:34:18.000Z</time>
      </trkpt>
      <trkpt lat="45.96946" lon="4.54732">
        <ele>389.5</ele>
        <time>1970-01-01T03:34:19.000Z</time>
      </trkpt>
      <trkpt lat="45.96946" lon="4.54734">
        <ele>389.5</ele>
        <time>1970-01-01T03:34:20.000Z</time>
      </trkpt>
      <trkpt lat="45.96946" lon="4.54736">
        <ele>389.4</ele>
        <time>1970-01-01T03:34:21.000Z</time>
      </trkpt>
      <trkpt lat="45.96946" lon="4.54738">
        <ele>389.3</ele>
        <time>1970-01-01T03:34:22.000Z</time>
      </trkpt>
      <trkpt lat="45.96947" lon="4.5474">
        <ele>389.2</ele>
        <time>1970-01-01T03:34:23.000Z</time>
      </trkpt>
      <trkpt lat="45.96947" lon="4.54742">
        <ele>389.1</ele>
        <time>1970-01-01T03:34:24.000Z</time>
      </trkpt>
      <trkpt lat="45.96947" lon="4.54744">
        <ele>389</ele>
        <time>1970-01-01T03:34:25.000Z</time>
      </trkpt>
      <trkpt lat="45.96947" lon="4.54746">
        <ele>389</ele>
        <time>1970-01-01T03:34:26.000Z</time>
      </trkpt>
      <trkpt lat="45.96948" lon="4.54748">
        <ele>388.9</ele>
        <time>1970-01-01T03:34:27.000Z</time>
      </trkpt>
      <trkpt lat="45.96948" lon="4.5475">
        <ele>388.8</ele>
        <time>1970-01-01T03:34:28.000Z</time>
      </trkpt>
      <trkpt lat="45.96948" lon="4.54752">
        <ele>388.7</ele>
        <time>1970-01-01T03:34:29.000Z</time>
      </trkpt>
      <trkpt lat="45.96948" lon="4.54755">
        <ele>388.6</ele>
        <time>1970-01-01T03:34:30.000Z</time>
      </trkpt>
      <trkpt lat="45.96949" lon="4.54757">
        <ele>388.5</ele>
        <time>1970-01-01T03:34:31.000Z</time>
      </trkpt>
      <trkpt lat="45.96949" lon="4.54759">
        <ele>388.4</ele>
        <time>1970-01-01T03:34:32.000Z</time>
      </trkpt>
      <trkpt lat="45.96949" lon="4.54761">
        <ele>388.3</ele>
        <time>1970-01-01T03:34:33.000Z</time>
      </trkpt>
      <trkpt lat="45.96949" lon="4.54763">
        <ele>388.2</ele>
        <time>1970-01-01T03:34:34.000Z</time>
      </trkpt>
      <trkpt lat="45.96949" lon="4.54765">
        <ele>388.1</ele>
        <time>1970-01-01T03:34:35.000Z</time>
      </trkpt>
      <trkpt lat="45.96949" lon="4.54765">
        <ele>388.1</ele>
        <time>1970-01-01T03:34:36.000Z</time>
      </trkpt>
      <trkpt lat="45.96949" lon="4.54768">
        <ele>387.9</ele>
        <time>1970-01-01T03:34:37.000Z</time>
      </trkpt>
      <trkpt lat="45.96949" lon="4.54768">
        <ele>387.9</ele>
        <time>1970-01-01T03:34:38.000Z</time>
      </trkpt>
      <trkpt lat="45.96949" lon="4.54771">
        <ele>387.8</ele>
        <time>1970-01-01T03:34:39.000Z</time>
      </trkpt>
      <trkpt lat="45.96949" lon="4.54773">
        <ele>387.7</ele>
        <time>1970-01-01T03:34:40.000Z</time>
      </trkpt>
      <trkpt lat="45.96949" lon="4.54774">
        <ele>387.6</ele>
        <time>1970-01-01T03:34:41.000Z</time>
      </trkpt>
      <trkpt lat="45.96949" lon="4.54776">
        <ele>387.4</ele>
        <time>1970-01-01T03:34:42.000Z</time>
      </trkpt>
      <trkpt lat="45.96949" lon="4.54778">
        <ele>387.3</ele>
        <time>1970-01-01T03:34:43.000Z</time>
      </trkpt>
      <trkpt lat="45.96949" lon="4.54778">
        <ele>387.3</ele>
        <time>1970-01-01T03:34:44.000Z</time>
      </trkpt>
      <trkpt lat="45.96951" lon="4.54781">
        <ele>387.1</ele>
        <time>1970-01-01T03:34:45.000Z</time>
      </trkpt>
      <trkpt lat="45.96951" lon="4.54781">
        <ele>387.1</ele>
        <time>1970-01-01T03:34:46.000Z</time>
      </trkpt>
      <trkpt lat="45.96954" lon="4.54784">
        <ele>386.7</ele>
        <time>1970-01-01T03:34:47.000Z</time>
      </trkpt>
      <trkpt lat="45.96954" lon="4.54784">
        <ele>386.7</ele>
        <time>1970-01-01T03:34:48.000Z</time>
      </trkpt>
      <trkpt lat="45.96956" lon="4.54787">
        <ele>386.4</ele>
        <time>1970-01-01T03:34:49.000Z</time>
      </trkpt>
      <trkpt lat="45.96956" lon="4.54787">
        <ele>386.4</ele>
        <time>1970-01-01T03:34:50.000Z</time>
      </trkpt>
      <trkpt lat="45.96958" lon="4.54791">
        <ele>386.1</ele>
        <time>1970-01-01T03:34:51.000Z</time>
      </trkpt>
      <trkpt lat="45.96958" lon="4.54791">
        <ele>386.1</ele>
        <time>1970-01-01T03:34:52.000Z</time>
      </trkpt>
      <trkpt lat="45.96959" lon="4.54794">
        <ele>385.9</ele>
        <time>1970-01-01T03:34:53.000Z</time>
      </trkpt>
      <trkpt lat="45.96959" lon="4.54794">
        <ele>385.9</ele>
        <time>1970-01-01T03:34:54.000Z</time>
      </trkpt>
      <trkpt lat="45.9696" lon="4.54798">
        <ele>385.7</ele>
        <time>1970-01-01T03:34:55.000Z</time>
      </trkpt>
      <trkpt lat="45.9696" lon="4.54798">
        <ele>385.7</ele>
        <time>1970-01-01T03:34:56.000Z</time>
      </trkpt>
      <trkpt lat="45.96961" lon="4.54801">
        <ele>385.5</ele>
        <time>1970-01-01T03:34:57.000Z</time>
      </trkpt>
      <trkpt lat="45.96961" lon="4.54801">
        <ele>385.5</ele>
        <time>1970-01-01T03:34:58.000Z</time>
      </trkpt>
      <trkpt lat="45.96963" lon="4.54805">
        <ele>385.3</ele>
        <time>1970-01-01T03:34:59.000Z</time>
      </trkpt>
      <trkpt lat="45.96963" lon="4.54805">
        <ele>385.3</ele>
        <time>1970-01-01T03:35:00.000Z</time>
      </trkpt>
      <trkpt lat="45.96964" lon="4.54808">
        <ele>385.1</ele>
        <time>1970-01-01T03:35:01.000Z</time>
      </trkpt>
      <trkpt lat="45.96964" lon="4.54808">
        <ele>385.1</ele>
        <time>1970-01-01T03:35:02.000Z</time>
      </trkpt>
      <trkpt lat="45.96966" lon="4.54811">
        <ele>385</ele>
        <time>1970-01-01T03:35:03.000Z</time>
      </trkpt>
      <trkpt lat="45.96966" lon="4.54811">
        <ele>385</ele>
        <time>1970-01-01T03:35:04.000Z</time>
      </trkpt>
      <trkpt lat="45.96968" lon="4.54814">
        <ele>384.8</ele>
        <time>1970-01-01T03:35:05.000Z</time>
      </trkpt>
      <trkpt lat="45.96968" lon="4.54814">
        <ele>384.8</ele>
        <time>1970-01-01T03:35:06.000Z</time>
      </trkpt>
      <trkpt lat="45.9697" lon="4.54817">
        <ele>384.7</ele>
        <time>1970-01-01T03:35:07.000Z</time>
      </trkpt>
      <trkpt lat="45.9697" lon="4.54817">
        <ele>384.7</ele>
        <time>1970-01-01T03:35:08.000Z</time>
      </trkpt>
      <trkpt lat="45.96971" lon="4.5482">
        <ele>384.5</ele>
        <time>1970-01-01T03:35:09.000Z</time>
      </trkpt>
      <trkpt lat="45.96971" lon="4.5482">
        <ele>384.5</ele>
        <time>1970-01-01T03:35:10.000Z</time>
      </trkpt>
      <trkpt lat="45.96973" lon="4.54823">
        <ele>384.4</ele>
        <time>1970-01-01T03:35:11.000Z</time>
      </trkpt>
      <trkpt lat="45.96973" lon="4.54823">
        <ele>384.4</ele>
        <time>1970-01-01T03:35:12.000Z</time>
      </trkpt>
      <trkpt lat="45.96975" lon="4.54826">
        <ele>384.3</ele>
        <time>1970-01-01T03:35:13.000Z</time>
      </trkpt>
      <trkpt lat="45.96975" lon="4.54826">
        <ele>384.3</ele>
        <time>1970-01-01T03:35:14.000Z</time>
      </trkpt>
      <trkpt lat="45.96977" lon="4.54828">
        <ele>384.2</ele>
        <time>1970-01-01T03:35:15.000Z</time>
      </trkpt>
      <trkpt lat="45.96977" lon="4.54828">
        <ele>384.2</ele>
        <time>1970-01-01T03:35:16.000Z</time>
      </trkpt>
      <trkpt lat="45.96979" lon="4.5483">
        <ele>384.1</ele>
        <time>1970-01-01T03:35:17.000Z</time>
      </trkpt>
      <trkpt lat="45.96979" lon="4.5483">
        <ele>384.1</ele>
        <time>1970-01-01T03:35:18.000Z</time>
      </trkpt>
      <trkpt lat="45.96981" lon="4.54831">
        <ele>384</ele>
        <time>1970-01-01T03:35:19.000Z</time>
      </trkpt>
      <trkpt lat="45.96981" lon="4.54831">
        <ele>384</ele>
        <time>1970-01-01T03:35:20.000Z</time>
      </trkpt>
      <trkpt lat="45.96984" lon="4.54833">
        <ele>383.9</ele>
        <time>1970-01-01T03:35:21.000Z</time>
      </trkpt>
      <trkpt lat="45.96984" lon="4.54833">
        <ele>383.9</ele>
        <time>1970-01-01T03:35:22.000Z</time>
      </trkpt>
      <trkpt lat="45.96987" lon="4.54834">
        <ele>383.8</ele>
        <time>1970-01-01T03:35:23.000Z</time>
      </trkpt>
      <trkpt lat="45.96987" lon="4.54834">
        <ele>383.8</ele>
        <time>1970-01-01T03:35:24.000Z</time>
      </trkpt>
      <trkpt lat="45.96989" lon="4.54834">
        <ele>383.7</ele>
        <time>1970-01-01T03:35:25.000Z</time>
      </trkpt>
      <trkpt lat="45.96989" lon="4.54834">
        <ele>383.7</ele>
        <time>1970-01-01T03:35:26.000Z</time>
      </trkpt>
      <trkpt lat="45.96991" lon="4.54835">
        <ele>383.6</ele>
        <time>1970-01-01T03:35:27.000Z</time>
      </trkpt>
      <trkpt lat="45.96991" lon="4.54835">
        <ele>383.6</ele>
        <time>1970-01-01T03:35:28.000Z</time>
      </trkpt>
      <trkpt lat="45.96994" lon="4.54836">
        <ele>383.6</ele>
        <time>1970-01-01T03:35:29.000Z</time>
      </trkpt>
      <trkpt lat="45.96994" lon="4.54836">
        <ele>383.6</ele>
        <time>1970-01-01T03:35:30.000Z</time>
      </trkpt>
      <trkpt lat="45.96996" lon="4.54839">
        <ele>383.5</ele>
        <time>1970-01-01T03:35:31.000Z</time>
      </trkpt>
      <trkpt lat="45.96996" lon="4.54839">
        <ele>383.5</ele>
        <time>1970-01-01T03:35:32.000Z</time>
      </trkpt>
      <trkpt lat="45.96999" lon="4.54842">
        <ele>383.4</ele>
        <time>1970-01-01T03:35:33.000Z</time>
      </trkpt>
      <trkpt lat="45.96999" lon="4.54842">
        <ele>383.4</ele>
        <time>1970-01-01T03:35:34.000Z</time>
      </trkpt>
      <trkpt lat="45.97" lon="4.54845">
        <ele>383.4</ele>
        <time>1970-01-01T03:35:35.000Z</time>
      </trkpt>
      <trkpt lat="45.97" lon="4.54845">
        <ele>383.4</ele>
        <time>1970-01-01T03:35:36.000Z</time>
      </trkpt>
      <trkpt lat="45.97001" lon="4.5485">
        <ele>383.3</ele>
        <time>1970-01-01T03:35:37.000Z</time>
      </trkpt>
      <trkpt lat="45.97001" lon="4.5485">
        <ele>383.3</ele>
        <time>1970-01-01T03:35:38.000Z</time>
      </trkpt>
      <trkpt lat="45.97001" lon="4.54853">
        <ele>383.2</ele>
        <time>1970-01-01T03:35:39.000Z</time>
      </trkpt>
      <trkpt lat="45.97001" lon="4.54853">
        <ele>383.2</ele>
        <time>1970-01-01T03:35:40.000Z</time>
      </trkpt>
      <trkpt lat="45.97002" lon="4.54857">
        <ele>383.1</ele>
        <time>1970-01-01T03:35:41.000Z</time>
      </trkpt>
      <trkpt lat="45.97002" lon="4.54857">
        <ele>383.1</ele>
        <time>1970-01-01T03:35:42.000Z</time>
      </trkpt>
      <trkpt lat="45.97001" lon="4.54861">
        <ele>383</ele>
        <time>1970-01-01T03:35:43.000Z</time>
      </trkpt>
      <trkpt lat="45.97001" lon="4.54861">
        <ele>383</ele>
        <time>1970-01-01T03:35:44.000Z</time>
      </trkpt>
      <trkpt lat="45.97001" lon="4.54865">
        <ele>382.9</ele>
        <time>1970-01-01T03:35:45.000Z</time>
      </trkpt>
      <trkpt lat="45.97001" lon="4.54865">
        <ele>382.9</ele>
        <time>1970-01-01T03:35:46.000Z</time>
      </trkpt>
      <trkpt lat="45.97" lon="4.54869">
        <ele>382.8</ele>
        <time>1970-01-01T03:35:47.000Z</time>
      </trkpt>
      <trkpt lat="45.97" lon="4.54869">
        <ele>382.8</ele>
        <time>1970-01-01T03:35:48.000Z</time>
      </trkpt>
      <trkpt lat="45.97" lon="4.54872">
        <ele>382.7</ele>
        <time>1970-01-01T03:35:49.000Z</time>
      </trkpt>
      <trkpt lat="45.97" lon="4.54872">
        <ele>382.7</ele>
        <time>1970-01-01T03:35:50.000Z</time>
      </trkpt>
      <trkpt lat="45.97" lon="4.54876">
        <ele>382.5</ele>
        <time>1970-01-01T03:35:51.000Z</time>
      </trkpt>
      <trkpt lat="45.97" lon="4.54876">
        <ele>382.5</ele>
        <time>1970-01-01T03:35:52.000Z</time>
      </trkpt>
      <trkpt lat="45.96999" lon="4.5488">
        <ele>382.4</ele>
        <time>1970-01-01T03:35:53.000Z</time>
      </trkpt>
      <trkpt lat="45.96999" lon="4.5488">
        <ele>382.4</ele>
        <time>1970-01-01T03:35:54.000Z</time>
      </trkpt>
      <trkpt lat="45.97" lon="4.54883">
        <ele>382.3</ele>
        <time>1970-01-01T03:35:55.000Z</time>
      </trkpt>
      <trkpt lat="45.97" lon="4.54883">
        <ele>382.3</ele>
        <time>1970-01-01T03:35:56.000Z</time>
      </trkpt>
      <trkpt lat="45.97001" lon="4.54887">
        <ele>382.2</ele>
        <time>1970-01-01T03:35:57.000Z</time>
      </trkpt>
      <trkpt lat="45.97001" lon="4.54887">
        <ele>382.2</ele>
        <time>1970-01-01T03:35:58.000Z</time>
      </trkpt>
      <trkpt lat="45.97001" lon="4.54891">
        <ele>382</ele>
        <time>1970-01-01T03:35:59.000Z</time>
      </trkpt>
      <trkpt lat="45.97001" lon="4.54891">
        <ele>382</ele>
        <time>1970-01-01T03:36:00.000Z</time>
      </trkpt>
      <trkpt lat="45.97002" lon="4.54895">
        <ele>381.9</ele>
        <time>1970-01-01T03:36:01.000Z</time>
      </trkpt>
      <trkpt lat="45.97002" lon="4.54895">
        <ele>381.9</ele>
        <time>1970-01-01T03:36:02.000Z</time>
      </trkpt>
      <trkpt lat="45.97003" lon="4.54898">
        <ele>381.8</ele>
        <time>1970-01-01T03:36:03.000Z</time>
      </trkpt>
      <trkpt lat="45.97003" lon="4.54898">
        <ele>381.8</ele>
        <time>1970-01-01T03:36:04.000Z</time>
      </trkpt>
      <trkpt lat="45.97005" lon="4.54901">
        <ele>381.6</ele>
        <time>1970-01-01T03:36:05.000Z</time>
      </trkpt>
      <trkpt lat="45.97005" lon="4.54901">
        <ele>381.6</ele>
        <time>1970-01-01T03:36:06.000Z</time>
      </trkpt>
      <trkpt lat="45.97007" lon="4.54903">
        <ele>381.5</ele>
        <time>1970-01-01T03:36:07.000Z</time>
      </trkpt>
      <trkpt lat="45.97007" lon="4.54903">
        <ele>381.5</ele>
        <time>1970-01-01T03:36:08.000Z</time>
      </trkpt>
      <trkpt lat="45.97007" lon="4.54903">
        <ele>381.5</ele>
        <time>1970-01-01T03:36:09.000Z</time>
      </trkpt>
      <trkpt lat="45.97007" lon="4.54903">
        <ele>381.5</ele>
        <time>1970-01-01T03:36:10.000Z</time>
      </trkpt>
      <trkpt lat="45.97007" lon="4.54903">
        <ele>381.5</ele>
        <time>1970-01-01T03:36:11.000Z</time>
      </trkpt>
      <trkpt lat="45.97007" lon="4.54903">
        <ele>381.5</ele>
        <time>1970-01-01T03:36:12.000Z</time>
      </trkpt>
      <trkpt lat="45.97007" lon="4.54903">
        <ele>381.5</ele>
        <time>1970-01-01T03:36:13.000Z</time>
      </trkpt>
      <trkpt lat="45.97008" lon="4.54906">
        <ele>381.4</ele>
        <time>1970-01-01T03:36:14.000Z</time>
      </trkpt>
      <trkpt lat="45.97008" lon="4.54906">
        <ele>381.4</ele>
        <time>1970-01-01T03:36:15.000Z</time>
      </trkpt>
      <trkpt lat="45.97008" lon="4.54906">
        <ele>381.4</ele>
        <time>1970-01-01T03:36:16.000Z</time>
      </trkpt>
      <trkpt lat="45.9701" lon="4.54908">
        <ele>381.3</ele>
        <time>1970-01-01T03:36:17.000Z</time>
      </trkpt>
      <trkpt lat="45.9701" lon="4.54908">
        <ele>381.3</ele>
        <time>1970-01-01T03:36:18.000Z</time>
      </trkpt>
      <trkpt lat="45.97012" lon="4.54909">
        <ele>381.2</ele>
        <time>1970-01-01T03:36:19.000Z</time>
      </trkpt>
      <trkpt lat="45.97012" lon="4.54909">
        <ele>381.2</ele>
        <time>1970-01-01T03:36:20.000Z</time>
      </trkpt>
      <trkpt lat="45.97012" lon="4.54909">
        <ele>381.2</ele>
        <time>1970-01-01T03:36:21.000Z</time>
      </trkpt>
      <trkpt lat="45.97014" lon="4.54912">
        <ele>381</ele>
        <time>1970-01-01T03:36:22.000Z</time>
      </trkpt>
      <trkpt lat="45.97014" lon="4.54912">
        <ele>381</ele>
        <time>1970-01-01T03:36:23.000Z</time>
      </trkpt>
      <trkpt lat="45.97014" lon="4.54912">
        <ele>381</ele>
        <time>1970-01-01T03:36:24.000Z</time>
      </trkpt>
      <trkpt lat="45.97014" lon="4.54912">
        <ele>381</ele>
        <time>1970-01-01T03:36:25.000Z</time>
      </trkpt>
      <trkpt lat="45.97017" lon="4.54913">
        <ele>380.9</ele>
        <time>1970-01-01T03:36:26.000Z</time>
      </trkpt>
      <trkpt lat="45.97017" lon="4.54913">
        <ele>380.9</ele>
        <time>1970-01-01T03:36:27.000Z</time>
      </trkpt>
      <trkpt lat="45.97019" lon="4.54914">
        <ele>380.8</ele>
        <time>1970-01-01T03:36:28.000Z</time>
      </trkpt>
      <trkpt lat="45.97019" lon="4.54914">
        <ele>380.8</ele>
        <time>1970-01-01T03:36:29.000Z</time>
      </trkpt>
      <trkpt lat="45.97019" lon="4.54914">
        <ele>380.8</ele>
        <time>1970-01-01T03:36:30.000Z</time>
      </trkpt>
      <trkpt lat="45.97022" lon="4.54915">
        <ele>380.7</ele>
        <time>1970-01-01T03:36:31.000Z</time>
      </trkpt>
      <trkpt lat="45.97022" lon="4.54915">
        <ele>380.7</ele>
        <time>1970-01-01T03:36:32.000Z</time>
      </trkpt>
      <trkpt lat="45.97024" lon="4.54916">
        <ele>380.5</ele>
        <time>1970-01-01T03:36:33.000Z</time>
      </trkpt>
      <trkpt lat="45.97024" lon="4.54916">
        <ele>380.5</ele>
        <time>1970-01-01T03:36:34.000Z</time>
      </trkpt>
      <trkpt lat="45.97027" lon="4.54917">
        <ele>380.4</ele>
        <time>1970-01-01T03:36:35.000Z</time>
      </trkpt>
      <trkpt lat="45.97027" lon="4.54917">
        <ele>380.4</ele>
        <time>1970-01-01T03:36:36.000Z</time>
      </trkpt>
      <trkpt lat="45.9703" lon="4.54917">
        <ele>380.3</ele>
        <time>1970-01-01T03:36:37.000Z</time>
      </trkpt>
      <trkpt lat="45.9703" lon="4.54917">
        <ele>380.3</ele>
        <time>1970-01-01T03:36:38.000Z</time>
      </trkpt>
      <trkpt lat="45.97032" lon="4.54916">
        <ele>380.2</ele>
        <time>1970-01-01T03:36:39.000Z</time>
      </trkpt>
      <trkpt lat="45.97034" lon="4.54917">
        <ele>380.1</ele>
        <time>1970-01-01T03:36:40.000Z</time>
      </trkpt>
      <trkpt lat="45.97035" lon="4.54917">
        <ele>380</ele>
        <time>1970-01-01T03:36:41.000Z</time>
      </trkpt>
      <trkpt lat="45.97037" lon="4.54917">
        <ele>379.9</ele>
        <time>1970-01-01T03:36:42.000Z</time>
      </trkpt>
      <trkpt lat="45.97039" lon="4.54917">
        <ele>379.8</ele>
        <time>1970-01-01T03:36:43.000Z</time>
      </trkpt>
      <trkpt lat="45.9704" lon="4.54917">
        <ele>379.7</ele>
        <time>1970-01-01T03:36:44.000Z</time>
      </trkpt>
      <trkpt lat="45.97042" lon="4.54918">
        <ele>379.6</ele>
        <time>1970-01-01T03:36:45.000Z</time>
      </trkpt>
      <trkpt lat="45.97043" lon="4.54918">
        <ele>379.5</ele>
        <time>1970-01-01T03:36:46.000Z</time>
      </trkpt>
      <trkpt lat="45.97044" lon="4.54918">
        <ele>379.4</ele>
        <time>1970-01-01T03:36:47.000Z</time>
      </trkpt>
      <trkpt lat="45.97046" lon="4.54918">
        <ele>379.3</ele>
        <time>1970-01-01T03:36:48.000Z</time>
      </trkpt>
      <trkpt lat="45.97047" lon="4.54918">
        <ele>379.2</ele>
        <time>1970-01-01T03:36:49.000Z</time>
      </trkpt>
      <trkpt lat="45.97049" lon="4.54919">
        <ele>379.1</ele>
        <time>1970-01-01T03:36:50.000Z</time>
      </trkpt>
      <trkpt lat="45.9705" lon="4.54919">
        <ele>379</ele>
        <time>1970-01-01T03:36:51.000Z</time>
      </trkpt>
      <trkpt lat="45.97051" lon="4.54919">
        <ele>378.9</ele>
        <time>1970-01-01T03:36:52.000Z</time>
      </trkpt>
      <trkpt lat="45.97052" lon="4.54919">
        <ele>378.8</ele>
        <time>1970-01-01T03:36:53.000Z</time>
      </trkpt>
      <trkpt lat="45.97053" lon="4.54919">
        <ele>378.8</ele>
        <time>1970-01-01T03:36:54.000Z</time>
      </trkpt>
      <trkpt lat="45.97054" lon="4.54919">
        <ele>378.7</ele>
        <time>1970-01-01T03:36:55.000Z</time>
      </trkpt>
      <trkpt lat="45.97055" lon="4.5492">
        <ele>378.6</ele>
        <time>1970-01-01T03:36:56.000Z</time>
      </trkpt>
      <trkpt lat="45.97056" lon="4.5492">
        <ele>378.6</ele>
        <time>1970-01-01T03:36:57.000Z</time>
      </trkpt>
      <trkpt lat="45.97057" lon="4.5492">
        <ele>378.5</ele>
        <time>1970-01-01T03:36:58.000Z</time>
      </trkpt>
      <trkpt lat="45.97063" lon="4.54922">
        <ele>378</ele>
        <time>1970-01-01T03:36:59.000Z</time>
      </trkpt>
      <trkpt lat="45.97064" lon="4.54922">
        <ele>377.9</ele>
        <time>1970-01-01T03:37:00.000Z</time>
      </trkpt>
      <trkpt lat="45.97065" lon="4.54922">
        <ele>377.8</ele>
        <time>1970-01-01T03:37:01.000Z</time>
      </trkpt>
      <trkpt lat="45.97067" lon="4.54923">
        <ele>377.7</ele>
        <time>1970-01-01T03:37:02.000Z</time>
      </trkpt>
      <trkpt lat="45.97068" lon="4.54923">
        <ele>377.7</ele>
        <time>1970-01-01T03:37:03.000Z</time>
      </trkpt>
      <trkpt lat="45.97069" lon="4.54923">
        <ele>377.6</ele>
        <time>1970-01-01T03:37:04.000Z</time>
      </trkpt>
      <trkpt lat="45.9707" lon="4.54924">
        <ele>377.5</ele>
        <time>1970-01-01T03:37:05.000Z</time>
      </trkpt>
      <trkpt lat="45.97071" lon="4.54924">
        <ele>377.5</ele>
        <time>1970-01-01T03:37:06.000Z</time>
      </trkpt>
      <trkpt lat="45.97072" lon="4.54924">
        <ele>377.4</ele>
        <time>1970-01-01T03:37:07.000Z</time>
      </trkpt>
      <trkpt lat="45.97073" lon="4.54925">
        <ele>377.4</ele>
        <time>1970-01-01T03:37:08.000Z</time>
      </trkpt>
      <trkpt lat="45.97074" lon="4.54925">
        <ele>377.3</ele>
        <time>1970-01-01T03:37:09.000Z</time>
      </trkpt>
      <trkpt lat="45.97074" lon="4.54925">
        <ele>377.3</ele>
        <time>1970-01-01T03:37:10.000Z</time>
      </trkpt>
      <trkpt lat="45.97075" lon="4.54925">
        <ele>377.3</ele>
        <time>1970-01-01T03:37:11.000Z</time>
      </trkpt>
      <trkpt lat="45.97076" lon="4.54925">
        <ele>377.2</ele>
        <time>1970-01-01T03:37:12.000Z</time>
      </trkpt>
      <trkpt lat="45.97076" lon="4.54926">
        <ele>377.2</ele>
        <time>1970-01-01T03:37:13.000Z</time>
      </trkpt>
      <trkpt lat="45.97077" lon="4.54926">
        <ele>377.2</ele>
        <time>1970-01-01T03:37:14.000Z</time>
      </trkpt>
      <trkpt lat="45.97078" lon="4.54926">
        <ele>377.1</ele>
        <time>1970-01-01T03:37:15.000Z</time>
      </trkpt>
      <trkpt lat="45.97079" lon="4.54926">
        <ele>377.1</ele>
        <time>1970-01-01T03:37:16.000Z</time>
      </trkpt>
      <trkpt lat="45.97079" lon="4.54927">
        <ele>377.1</ele>
        <time>1970-01-01T03:37:17.000Z</time>
      </trkpt>
      <trkpt lat="45.9708" lon="4.54927">
        <ele>377</ele>
        <time>1970-01-01T03:37:18.000Z</time>
      </trkpt>
      <trkpt lat="45.97081" lon="4.54927">
        <ele>377</ele>
        <time>1970-01-01T03:37:19.000Z</time>
      </trkpt>
      <trkpt lat="45.97082" lon="4.54928">
        <ele>377</ele>
        <time>1970-01-01T03:37:20.000Z</time>
      </trkpt>
      <trkpt lat="45.97083" lon="4.54928">
        <ele>376.9</ele>
        <time>1970-01-01T03:37:21.000Z</time>
      </trkpt>
      <trkpt lat="45.97084" lon="4.54929">
        <ele>376.9</ele>
        <time>1970-01-01T03:37:22.000Z</time>
      </trkpt>
      <trkpt lat="45.97085" lon="4.54929">
        <ele>376.9</ele>
        <time>1970-01-01T03:37:23.000Z</time>
      </trkpt>
      <trkpt lat="45.97086" lon="4.5493">
        <ele>376.9</ele>
        <time>1970-01-01T03:37:24.000Z</time>
      </trkpt>
      <trkpt lat="45.97087" lon="4.5493">
        <ele>376.8</ele>
        <time>1970-01-01T03:37:25.000Z</time>
      </trkpt>
      <trkpt lat="45.97088" lon="4.54931">
        <ele>376.8</ele>
        <time>1970-01-01T03:37:26.000Z</time>
      </trkpt>
      <trkpt lat="45.97089" lon="4.54931">
        <ele>376.8</ele>
        <time>1970-01-01T03:37:27.000Z</time>
      </trkpt>
      <trkpt lat="45.9709" lon="4.54932">
        <ele>376.8</ele>
        <time>1970-01-01T03:37:28.000Z</time>
      </trkpt>
      <trkpt lat="45.97091" lon="4.54932">
        <ele>376.8</ele>
        <time>1970-01-01T03:37:29.000Z</time>
      </trkpt>
      <trkpt lat="45.97091" lon="4.54933">
        <ele>376.8</ele>
        <time>1970-01-01T03:37:30.000Z</time>
      </trkpt>
      <trkpt lat="45.97092" lon="4.54934">
        <ele>376.7</ele>
        <time>1970-01-01T03:37:31.000Z</time>
      </trkpt>
      <trkpt lat="45.97093" lon="4.54935">
        <ele>376.7</ele>
        <time>1970-01-01T03:37:32.000Z</time>
      </trkpt>
      <trkpt lat="45.97094" lon="4.54935">
        <ele>376.7</ele>
        <time>1970-01-01T03:37:33.000Z</time>
      </trkpt>
      <trkpt lat="45.97095" lon="4.54936">
        <ele>376.7</ele>
        <time>1970-01-01T03:37:34.000Z</time>
      </trkpt>
      <trkpt lat="45.97096" lon="4.54937">
        <ele>376.7</ele>
        <time>1970-01-01T03:37:35.000Z</time>
      </trkpt>
      <trkpt lat="45.97097" lon="4.54937">
        <ele>376.7</ele>
        <time>1970-01-01T03:37:36.000Z</time>
      </trkpt>
      <trkpt lat="45.97097" lon="4.54938">
        <ele>376.7</ele>
        <time>1970-01-01T03:37:37.000Z</time>
      </trkpt>
      <trkpt lat="45.97098" lon="4.54939">
        <ele>376.7</ele>
        <time>1970-01-01T03:37:38.000Z</time>
      </trkpt>
      <trkpt lat="45.97099" lon="4.5494">
        <ele>376.7</ele>
        <time>1970-01-01T03:37:39.000Z</time>
      </trkpt>
      <trkpt lat="45.971" lon="4.54941">
        <ele>376.7</ele>
        <time>1970-01-01T03:37:40.000Z</time>
      </trkpt>
      <trkpt lat="45.97102" lon="4.54942">
        <ele>376.7</ele>
        <time>1970-01-01T03:37:41.000Z</time>
      </trkpt>
      <trkpt lat="45.97103" lon="4.54943">
        <ele>376.7</ele>
        <time>1970-01-01T03:37:42.000Z</time>
      </trkpt>
      <trkpt lat="45.97104" lon="4.54944">
        <ele>376.7</ele>
        <time>1970-01-01T03:37:43.000Z</time>
      </trkpt>
      <trkpt lat="45.97105" lon="4.54945">
        <ele>376.7</ele>
        <time>1970-01-01T03:37:44.000Z</time>
      </trkpt>
      <trkpt lat="45.97106" lon="4.54946">
        <ele>376.7</ele>
        <time>1970-01-01T03:37:45.000Z</time>
      </trkpt>
      <trkpt lat="45.97107" lon="4.54947">
        <ele>376.7</ele>
        <time>1970-01-01T03:37:46.000Z</time>
      </trkpt>
      <trkpt lat="45.97109" lon="4.54949">
        <ele>376.7</ele>
        <time>1970-01-01T03:37:47.000Z</time>
      </trkpt>
      <trkpt lat="45.97111" lon="4.5495">
        <ele>376.7</ele>
        <time>1970-01-01T03:37:48.000Z</time>
      </trkpt>
      <trkpt lat="45.97112" lon="4.54952">
        <ele>376.7</ele>
        <time>1970-01-01T03:37:49.000Z</time>
      </trkpt>
      <trkpt lat="45.97114" lon="4.54953">
        <ele>376.7</ele>
        <time>1970-01-01T03:37:50.000Z</time>
      </trkpt>
      <trkpt lat="45.97115" lon="4.54954">
        <ele>376.7</ele>
        <time>1970-01-01T03:37:51.000Z</time>
      </trkpt>
      <trkpt lat="45.97116" lon="4.54955">
        <ele>376.7</ele>
        <time>1970-01-01T03:37:52.000Z</time>
      </trkpt>
      <trkpt lat="45.97117" lon="4.54956">
        <ele>376.7</ele>
        <time>1970-01-01T03:37:53.000Z</time>
      </trkpt>
      <trkpt lat="45.97118" lon="4.54957">
        <ele>376.7</ele>
        <time>1970-01-01T03:37:54.000Z</time>
      </trkpt>
      <trkpt lat="45.97123" lon="4.54963">
        <ele>376.7</ele>
        <time>1970-01-01T03:37:55.000Z</time>
      </trkpt>
      <trkpt lat="45.97124" lon="4.54964">
        <ele>376.7</ele>
        <time>1970-01-01T03:37:56.000Z</time>
      </trkpt>
      <trkpt lat="45.97125" lon="4.54966">
        <ele>376.7</ele>
        <time>1970-01-01T03:37:57.000Z</time>
      </trkpt>
      <trkpt lat="45.97126" lon="4.54967">
        <ele>376.7</ele>
        <time>1970-01-01T03:37:58.000Z</time>
      </trkpt>
      <trkpt lat="45.97127" lon="4.54969">
        <ele>376.7</ele>
        <time>1970-01-01T03:37:59.000Z</time>
      </trkpt>
      <trkpt lat="45.97127" lon="4.5497">
        <ele>376.7</ele>
        <time>1970-01-01T03:38:00.000Z</time>
      </trkpt>
      <trkpt lat="45.97128" lon="4.54972">
        <ele>376.7</ele>
        <time>1970-01-01T03:38:01.000Z</time>
      </trkpt>
      <trkpt lat="45.97129" lon="4.54973">
        <ele>376.7</ele>
        <time>1970-01-01T03:38:02.000Z</time>
      </trkpt>
      <trkpt lat="45.9713" lon="4.54975">
        <ele>376.6</ele>
        <time>1970-01-01T03:38:03.000Z</time>
      </trkpt>
      <trkpt lat="45.97131" lon="4.54976">
        <ele>376.6</ele>
        <time>1970-01-01T03:38:04.000Z</time>
      </trkpt>
      <trkpt lat="45.97132" lon="4.54978">
        <ele>376.6</ele>
        <time>1970-01-01T03:38:05.000Z</time>
      </trkpt>
      <trkpt lat="45.97132" lon="4.54979">
        <ele>376.6</ele>
        <time>1970-01-01T03:38:06.000Z</time>
      </trkpt>
      <trkpt lat="45.97133" lon="4.54981">
        <ele>376.6</ele>
        <time>1970-01-01T03:38:07.000Z</time>
      </trkpt>
      <trkpt lat="45.97134" lon="4.54983">
        <ele>376.5</ele>
        <time>1970-01-01T03:38:08.000Z</time>
      </trkpt>
      <trkpt lat="45.97135" lon="4.54984">
        <ele>376.5</ele>
        <time>1970-01-01T03:38:09.000Z</time>
      </trkpt>
      <trkpt lat="45.97135" lon="4.54986">
        <ele>376.5</ele>
        <time>1970-01-01T03:38:10.000Z</time>
      </trkpt>
      <trkpt lat="45.97136" lon="4.54988">
        <ele>376.4</ele>
        <time>1970-01-01T03:38:11.000Z</time>
      </trkpt>
      <trkpt lat="45.97137" lon="4.54989">
        <ele>376.4</ele>
        <time>1970-01-01T03:38:12.000Z</time>
      </trkpt>
      <trkpt lat="45.97137" lon="4.54991">
        <ele>376.3</ele>
        <time>1970-01-01T03:38:13.000Z</time>
      </trkpt>
      <trkpt lat="45.97138" lon="4.54993">
        <ele>376.2</ele>
        <time>1970-01-01T03:38:14.000Z</time>
      </trkpt>
      <trkpt lat="45.97139" lon="4.54994">
        <ele>376.2</ele>
        <time>1970-01-01T03:38:15.000Z</time>
      </trkpt>
      <trkpt lat="45.9714" lon="4.54996">
        <ele>376.1</ele>
        <time>1970-01-01T03:38:16.000Z</time>
      </trkpt>
      <trkpt lat="45.97141" lon="4.54998">
        <ele>376</ele>
        <time>1970-01-01T03:38:17.000Z</time>
      </trkpt>
      <trkpt lat="45.97142" lon="4.55">
        <ele>375.9</ele>
        <time>1970-01-01T03:38:18.000Z</time>
      </trkpt>
      <trkpt lat="45.97144" lon="4.55001">
        <ele>375.8</ele>
        <time>1970-01-01T03:38:19.000Z</time>
      </trkpt>
      <trkpt lat="45.97145" lon="4.55003">
        <ele>375.7</ele>
        <time>1970-01-01T03:38:20.000Z</time>
      </trkpt>
      <trkpt lat="45.97146" lon="4.55005">
        <ele>375.6</ele>
        <time>1970-01-01T03:38:21.000Z</time>
      </trkpt>
      <trkpt lat="45.97147" lon="4.55006">
        <ele>375.5</ele>
        <time>1970-01-01T03:38:22.000Z</time>
      </trkpt>
      <trkpt lat="45.97148" lon="4.55008">
        <ele>375.4</ele>
        <time>1970-01-01T03:38:23.000Z</time>
      </trkpt>
      <trkpt lat="45.9715" lon="4.5501">
        <ele>375.2</ele>
        <time>1970-01-01T03:38:24.000Z</time>
      </trkpt>
      <trkpt lat="45.97151" lon="4.55011">
        <ele>375.1</ele>
        <time>1970-01-01T03:38:25.000Z</time>
      </trkpt>
      <trkpt lat="45.97152" lon="4.55013">
        <ele>375</ele>
        <time>1970-01-01T03:38:26.000Z</time>
      </trkpt>
      <trkpt lat="45.97153" lon="4.55015">
        <ele>374.9</ele>
        <time>1970-01-01T03:38:27.000Z</time>
      </trkpt>
      <trkpt lat="45.97154" lon="4.55017">
        <ele>374.8</ele>
        <time>1970-01-01T03:38:28.000Z</time>
      </trkpt>
      <trkpt lat="45.97155" lon="4.55018">
        <ele>374.7</ele>
        <time>1970-01-01T03:38:29.000Z</time>
      </trkpt>
      <trkpt lat="45.97155" lon="4.5502">
        <ele>374.7</ele>
        <time>1970-01-01T03:38:30.000Z</time>
      </trkpt>
      <trkpt lat="45.97156" lon="4.55022">
        <ele>374.6</ele>
        <time>1970-01-01T03:38:31.000Z</time>
      </trkpt>
      <trkpt lat="45.97156" lon="4.55024">
        <ele>374.6</ele>
        <time>1970-01-01T03:38:32.000Z</time>
      </trkpt>
      <trkpt lat="45.97157" lon="4.55025">
        <ele>374.5</ele>
        <time>1970-01-01T03:38:33.000Z</time>
      </trkpt>
      <trkpt lat="45.97158" lon="4.55027">
        <ele>374.5</ele>
        <time>1970-01-01T03:38:34.000Z</time>
      </trkpt>
      <trkpt lat="45.97156" lon="4.5503">
        <ele>374.4</ele>
        <time>1970-01-01T03:38:35.000Z</time>
      </trkpt>
      <trkpt lat="45.97153" lon="4.55032">
        <ele>374.4</ele>
        <time>1970-01-01T03:38:36.000Z</time>
      </trkpt>
      <trkpt lat="45.97152" lon="4.55032">
        <ele>374.4</ele>
        <time>1970-01-01T03:38:37.000Z</time>
      </trkpt>
      <trkpt lat="45.9715" lon="4.55033">
        <ele>374.4</ele>
        <time>1970-01-01T03:38:38.000Z</time>
      </trkpt>
      <trkpt lat="45.97149" lon="4.55033">
        <ele>374.4</ele>
        <time>1970-01-01T03:38:39.000Z</time>
      </trkpt>
      <trkpt lat="45.97148" lon="4.55034">
        <ele>374.4</ele>
        <time>1970-01-01T03:38:40.000Z</time>
      </trkpt>
      <trkpt lat="45.97146" lon="4.55034">
        <ele>374.4</ele>
        <time>1970-01-01T03:38:41.000Z</time>
      </trkpt>
      <trkpt lat="45.97145" lon="4.55034">
        <ele>374.4</ele>
        <time>1970-01-01T03:38:42.000Z</time>
      </trkpt>
      <trkpt lat="45.97143" lon="4.55035">
        <ele>374.4</ele>
        <time>1970-01-01T03:38:43.000Z</time>
      </trkpt>
      <trkpt lat="45.97142" lon="4.55036">
        <ele>374.4</ele>
        <time>1970-01-01T03:38:44.000Z</time>
      </trkpt>
      <trkpt lat="45.97141" lon="4.55036">
        <ele>374.4</ele>
        <time>1970-01-01T03:38:45.000Z</time>
      </trkpt>
      <trkpt lat="45.9714" lon="4.55037">
        <ele>374.4</ele>
        <time>1970-01-01T03:38:46.000Z</time>
      </trkpt>
      <trkpt lat="45.97139" lon="4.55038">
        <ele>374.4</ele>
        <time>1970-01-01T03:38:47.000Z</time>
      </trkpt>
      <trkpt lat="45.97138" lon="4.55038">
        <ele>374.4</ele>
        <time>1970-01-01T03:38:48.000Z</time>
      </trkpt>
      <trkpt lat="45.97136" lon="4.55039">
        <ele>374.4</ele>
        <time>1970-01-01T03:38:49.000Z</time>
      </trkpt>
      <trkpt lat="45.97135" lon="4.55039">
        <ele>374.4</ele>
        <time>1970-01-01T03:38:50.000Z</time>
      </trkpt>
      <trkpt lat="45.97134" lon="4.5504">
        <ele>374.4</ele>
        <time>1970-01-01T03:38:51.000Z</time>
      </trkpt>
      <trkpt lat="45.97132" lon="4.5504">
        <ele>374.4</ele>
        <time>1970-01-01T03:38:52.000Z</time>
      </trkpt>
      <trkpt lat="45.9713" lon="4.5504">
        <ele>374.4</ele>
        <time>1970-01-01T03:38:53.000Z</time>
      </trkpt>
      <trkpt lat="45.97128" lon="4.5504">
        <ele>374.4</ele>
        <time>1970-01-01T03:38:54.000Z</time>
      </trkpt>
      <trkpt lat="45.97127" lon="4.5504">
        <ele>374.4</ele>
        <time>1970-01-01T03:38:55.000Z</time>
      </trkpt>
      <trkpt lat="45.97125" lon="4.5504">
        <ele>374.4</ele>
        <time>1970-01-01T03:38:56.000Z</time>
      </trkpt>
      <trkpt lat="45.97124" lon="4.5504">
        <ele>374.5</ele>
        <time>1970-01-01T03:38:57.000Z</time>
      </trkpt>
      <trkpt lat="45.97123" lon="4.5504">
        <ele>374.5</ele>
        <time>1970-01-01T03:38:58.000Z</time>
      </trkpt>
      <trkpt lat="45.97123" lon="4.5504">
        <ele>374.5</ele>
        <time>1970-01-01T03:38:59.000Z</time>
      </trkpt>
      <trkpt lat="45.97122" lon="4.55039">
        <ele>374.5</ele>
        <time>1970-01-01T03:39:00.000Z</time>
      </trkpt>
      <trkpt lat="45.97121" lon="4.55039">
        <ele>374.5</ele>
        <time>1970-01-01T03:39:01.000Z</time>
      </trkpt>
      <trkpt lat="45.9712" lon="4.55039">
        <ele>374.5</ele>
        <time>1970-01-01T03:39:02.000Z</time>
      </trkpt>
      <trkpt lat="45.97114" lon="4.55037">
        <ele>374.7</ele>
        <time>1970-01-01T03:39:03.000Z</time>
      </trkpt>
      <trkpt lat="45.97112" lon="4.55037">
        <ele>374.7</ele>
        <time>1970-01-01T03:39:04.000Z</time>
      </trkpt>
      <trkpt lat="45.97111" lon="4.55037">
        <ele>374.7</ele>
        <time>1970-01-01T03:39:05.000Z</time>
      </trkpt>
      <trkpt lat="45.9711" lon="4.55038">
        <ele>374.8</ele>
        <time>1970-01-01T03:39:06.000Z</time>
      </trkpt>
      <trkpt lat="45.97109" lon="4.55038">
        <ele>374.8</ele>
        <time>1970-01-01T03:39:07.000Z</time>
      </trkpt>
      <trkpt lat="45.97107" lon="4.55038">
        <ele>374.9</ele>
        <time>1970-01-01T03:39:08.000Z</time>
      </trkpt>
      <trkpt lat="45.97106" lon="4.55038">
        <ele>374.9</ele>
        <time>1970-01-01T03:39:09.000Z</time>
      </trkpt>
      <trkpt lat="45.97105" lon="4.55038">
        <ele>374.9</ele>
        <time>1970-01-01T03:39:10.000Z</time>
      </trkpt>
      <trkpt lat="45.97103" lon="4.55038">
        <ele>375</ele>
        <time>1970-01-01T03:39:11.000Z</time>
      </trkpt>
      <trkpt lat="45.97102" lon="4.55038">
        <ele>375</ele>
        <time>1970-01-01T03:39:12.000Z</time>
      </trkpt>
      <trkpt lat="45.97101" lon="4.55038">
        <ele>375.1</ele>
        <time>1970-01-01T03:39:13.000Z</time>
      </trkpt>
      <trkpt lat="45.971" lon="4.55038">
        <ele>375.1</ele>
        <time>1970-01-01T03:39:14.000Z</time>
      </trkpt>
      <trkpt lat="45.97098" lon="4.55038">
        <ele>375.2</ele>
        <time>1970-01-01T03:39:15.000Z</time>
      </trkpt>
      <trkpt lat="45.97097" lon="4.55038">
        <ele>375.2</ele>
        <time>1970-01-01T03:39:16.000Z</time>
      </trkpt>
      <trkpt lat="45.97096" lon="4.55038">
        <ele>375.3</ele>
        <time>1970-01-01T03:39:17.000Z</time>
      </trkpt>
      <trkpt lat="45.97095" lon="4.55038">
        <ele>375.3</ele>
        <time>1970-01-01T03:39:18.000Z</time>
      </trkpt>
      <trkpt lat="45.97094" lon="4.55038">
        <ele>375.4</ele>
        <time>1970-01-01T03:39:19.000Z</time>
      </trkpt>
      <trkpt lat="45.97093" lon="4.55038">
        <ele>375.4</ele>
        <time>1970-01-01T03:39:20.000Z</time>
      </trkpt>
      <trkpt lat="45.97092" lon="4.55038">
        <ele>375.5</ele>
        <time>1970-01-01T03:39:21.000Z</time>
      </trkpt>
      <trkpt lat="45.97091" lon="4.55038">
        <ele>375.5</ele>
        <time>1970-01-01T03:39:22.000Z</time>
      </trkpt>
      <trkpt lat="45.9709" lon="4.55038">
        <ele>375.5</ele>
        <time>1970-01-01T03:39:23.000Z</time>
      </trkpt>
      <trkpt lat="45.97089" lon="4.55038">
        <ele>375.6</ele>
        <time>1970-01-01T03:39:24.000Z</time>
      </trkpt>
      <trkpt lat="45.97088" lon="4.55038">
        <ele>375.6</ele>
        <time>1970-01-01T03:39:25.000Z</time>
      </trkpt>
      <trkpt lat="45.97087" lon="4.55038">
        <ele>375.7</ele>
        <time>1970-01-01T03:39:26.000Z</time>
      </trkpt>
      <trkpt lat="45.97086" lon="4.55039">
        <ele>375.7</ele>
        <time>1970-01-01T03:39:27.000Z</time>
      </trkpt>
      <trkpt lat="45.97086" lon="4.5504">
        <ele>375.7</ele>
        <time>1970-01-01T03:39:28.000Z</time>
      </trkpt>
      <trkpt lat="45.97085" lon="4.5504">
        <ele>377.5</ele>
        <time>1970-01-01T03:39:29.000Z</time>
      </trkpt>
      <trkpt lat="45.97084" lon="4.55041">
        <ele>377.6</ele>
        <time>1970-01-01T03:39:30.000Z</time>
      </trkpt>
      <trkpt lat="45.97084" lon="4.55041">
        <ele>377.7</ele>
        <time>1970-01-01T03:39:31.000Z</time>
      </trkpt>
      <trkpt lat="45.97083" lon="4.55042">
        <ele>377.8</ele>
        <time>1970-01-01T03:39:32.000Z</time>
      </trkpt>
      <trkpt lat="45.97083" lon="4.55043">
        <ele>377.9</ele>
        <time>1970-01-01T03:39:33.000Z</time>
      </trkpt>
      <trkpt lat="45.97082" lon="4.55043">
        <ele>378</ele>
        <time>1970-01-01T03:39:34.000Z</time>
      </trkpt>
      <trkpt lat="45.97082" lon="4.55044">
        <ele>378</ele>
        <time>1970-01-01T03:39:35.000Z</time>
      </trkpt>
      <trkpt lat="45.97081" lon="4.55044">
        <ele>378.1</ele>
        <time>1970-01-01T03:39:36.000Z</time>
      </trkpt>
      <trkpt lat="45.97081" lon="4.55045">
        <ele>378.2</ele>
        <time>1970-01-01T03:39:37.000Z</time>
      </trkpt>
      <trkpt lat="45.9708" lon="4.55046">
        <ele>378.3</ele>
        <time>1970-01-01T03:39:38.000Z</time>
      </trkpt>
      <trkpt lat="45.97079" lon="4.55046">
        <ele>378.4</ele>
        <time>1970-01-01T03:39:39.000Z</time>
      </trkpt>
      <trkpt lat="45.97079" lon="4.55048">
        <ele>378.5</ele>
        <time>1970-01-01T03:39:40.000Z</time>
      </trkpt>
      <trkpt lat="45.97079" lon="4.55049">
        <ele>378.6</ele>
        <time>1970-01-01T03:39:41.000Z</time>
      </trkpt>
      <trkpt lat="45.97078" lon="4.5505">
        <ele>378.8</ele>
        <time>1970-01-01T03:39:42.000Z</time>
      </trkpt>
      <trkpt lat="45.97078" lon="4.55051">
        <ele>378.9</ele>
        <time>1970-01-01T03:39:43.000Z</time>
      </trkpt>
      <trkpt lat="45.97077" lon="4.55053">
        <ele>379</ele>
        <time>1970-01-01T03:39:44.000Z</time>
      </trkpt>
      <trkpt lat="45.97077" lon="4.55054">
        <ele>379.1</ele>
        <time>1970-01-01T03:39:45.000Z</time>
      </trkpt>
      <trkpt lat="45.97076" lon="4.55055">
        <ele>379.3</ele>
        <time>1970-01-01T03:39:46.000Z</time>
      </trkpt>
      <trkpt lat="45.97076" lon="4.55057">
        <ele>379.4</ele>
        <time>1970-01-01T03:39:47.000Z</time>
      </trkpt>
      <trkpt lat="45.97075" lon="4.55058">
        <ele>379.5</ele>
        <time>1970-01-01T03:39:48.000Z</time>
      </trkpt>
      <trkpt lat="45.97075" lon="4.55059">
        <ele>379.7</ele>
        <time>1970-01-01T03:39:49.000Z</time>
      </trkpt>
      <trkpt lat="45.97074" lon="4.5506">
        <ele>379.8</ele>
        <time>1970-01-01T03:39:50.000Z</time>
      </trkpt>
      <trkpt lat="45.97073" lon="4.55061">
        <ele>379.9</ele>
        <time>1970-01-01T03:39:51.000Z</time>
      </trkpt>
      <trkpt lat="45.97072" lon="4.55061">
        <ele>380</ele>
        <time>1970-01-01T03:39:52.000Z</time>
      </trkpt>
      <trkpt lat="45.97071" lon="4.55062">
        <ele>380.2</ele>
        <time>1970-01-01T03:39:53.000Z</time>
      </trkpt>
      <trkpt lat="45.97071" lon="4.55063">
        <ele>380.3</ele>
        <time>1970-01-01T03:39:54.000Z</time>
      </trkpt>
      <trkpt lat="45.9707" lon="4.55064">
        <ele>380.4</ele>
        <time>1970-01-01T03:39:55.000Z</time>
      </trkpt>
      <trkpt lat="45.97069" lon="4.55065">
        <ele>380.5</ele>
        <time>1970-01-01T03:39:56.000Z</time>
      </trkpt>
      <trkpt lat="45.97068" lon="4.55066">
        <ele>380.7</ele>
        <time>1970-01-01T03:39:57.000Z</time>
      </trkpt>
      <trkpt lat="45.97067" lon="4.55066">
        <ele>380.8</ele>
        <time>1970-01-01T03:39:58.000Z</time>
      </trkpt>
      <trkpt lat="45.97066" lon="4.55067">
        <ele>380.9</ele>
        <time>1970-01-01T03:39:59.000Z</time>
      </trkpt>
      <trkpt lat="45.97065" lon="4.55067">
        <ele>381</ele>
        <time>1970-01-01T03:40:00.000Z</time>
      </trkpt>
      <trkpt lat="45.97065" lon="4.55068">
        <ele>381.2</ele>
        <time>1970-01-01T03:40:01.000Z</time>
      </trkpt>
      <trkpt lat="45.97064" lon="4.55068">
        <ele>381.3</ele>
        <time>1970-01-01T03:40:02.000Z</time>
      </trkpt>
      <trkpt lat="45.97063" lon="4.55069">
        <ele>381.4</ele>
        <time>1970-01-01T03:40:03.000Z</time>
      </trkpt>
      <trkpt lat="45.97063" lon="4.55069">
        <ele>381.4</ele>
        <time>1970-01-01T03:40:04.000Z</time>
      </trkpt>
      <trkpt lat="45.9706" lon="4.55071">
        <ele>381.8</ele>
        <time>1970-01-01T03:40:05.000Z</time>
      </trkpt>
      <trkpt lat="45.97059" lon="4.55072">
        <ele>382</ele>
        <time>1970-01-01T03:40:06.000Z</time>
      </trkpt>
      <trkpt lat="45.97057" lon="4.55073">
        <ele>382.2</ele>
        <time>1970-01-01T03:40:07.000Z</time>
      </trkpt>
      <trkpt lat="45.97056" lon="4.55074">
        <ele>382.3</ele>
        <time>1970-01-01T03:40:08.000Z</time>
      </trkpt>
      <trkpt lat="45.97055" lon="4.55074">
        <ele>382.5</ele>
        <time>1970-01-01T03:40:09.000Z</time>
      </trkpt>
      <trkpt lat="45.97054" lon="4.55075">
        <ele>382.7</ele>
        <time>1970-01-01T03:40:10.000Z</time>
      </trkpt>
      <trkpt lat="45.97053" lon="4.55076">
        <ele>382.8</ele>
        <time>1970-01-01T03:40:11.000Z</time>
      </trkpt>
      <trkpt lat="45.97052" lon="4.55077">
        <ele>383</ele>
        <time>1970-01-01T03:40:12.000Z</time>
      </trkpt>
      <trkpt lat="45.97051" lon="4.55078">
        <ele>383.1</ele>
        <time>1970-01-01T03:40:13.000Z</time>
      </trkpt>
      <trkpt lat="45.9705" lon="4.55078">
        <ele>383.2</ele>
        <time>1970-01-01T03:40:14.000Z</time>
      </trkpt>
      <trkpt lat="45.97049" lon="4.55079">
        <ele>383.4</ele>
        <time>1970-01-01T03:40:15.000Z</time>
      </trkpt>
      <trkpt lat="45.97048" lon="4.55079">
        <ele>383.5</ele>
        <time>1970-01-01T03:40:16.000Z</time>
      </trkpt>
      <trkpt lat="45.97047" lon="4.5508">
        <ele>383.6</ele>
        <time>1970-01-01T03:40:17.000Z</time>
      </trkpt>
      <trkpt lat="45.97046" lon="4.5508">
        <ele>383.7</ele>
        <time>1970-01-01T03:40:18.000Z</time>
      </trkpt>
      <trkpt lat="45.97046" lon="4.55081">
        <ele>383.8</ele>
        <time>1970-01-01T03:40:19.000Z</time>
      </trkpt>
      <trkpt lat="45.97045" lon="4.55081">
        <ele>383.9</ele>
        <time>1970-01-01T03:40:20.000Z</time>
      </trkpt>
      <trkpt lat="45.97044" lon="4.55082">
        <ele>384.1</ele>
        <time>1970-01-01T03:40:21.000Z</time>
      </trkpt>
      <trkpt lat="45.97043" lon="4.55082">
        <ele>384.2</ele>
        <time>1970-01-01T03:40:22.000Z</time>
      </trkpt>
      <trkpt lat="45.97042" lon="4.55083">
        <ele>384.3</ele>
        <time>1970-01-01T03:40:23.000Z</time>
      </trkpt>
      <trkpt lat="45.97041" lon="4.55083">
        <ele>384.5</ele>
        <time>1970-01-01T03:40:24.000Z</time>
      </trkpt>
      <trkpt lat="45.9704" lon="4.55083">
        <ele>384.6</ele>
        <time>1970-01-01T03:40:25.000Z</time>
      </trkpt>
      <trkpt lat="45.97039" lon="4.55084">
        <ele>384.7</ele>
        <time>1970-01-01T03:40:26.000Z</time>
      </trkpt>
      <trkpt lat="45.97038" lon="4.55084">
        <ele>384.9</ele>
        <time>1970-01-01T03:40:27.000Z</time>
      </trkpt>
      <trkpt lat="45.97036" lon="4.55084">
        <ele>385</ele>
        <time>1970-01-01T03:40:28.000Z</time>
      </trkpt>
      <trkpt lat="45.97035" lon="4.55085">
        <ele>385.2</ele>
        <time>1970-01-01T03:40:29.000Z</time>
      </trkpt>
      <trkpt lat="45.97034" lon="4.55085">
        <ele>385.3</ele>
        <time>1970-01-01T03:40:30.000Z</time>
      </trkpt>
      <trkpt lat="45.97033" lon="4.55085">
        <ele>385.4</ele>
        <time>1970-01-01T03:40:31.000Z</time>
      </trkpt>
      <trkpt lat="45.97033" lon="4.55086">
        <ele>385.5</ele>
        <time>1970-01-01T03:40:32.000Z</time>
      </trkpt>
      <trkpt lat="45.97032" lon="4.55086">
        <ele>385.6</ele>
        <time>1970-01-01T03:40:33.000Z</time>
      </trkpt>
      <trkpt lat="45.97031" lon="4.55087">
        <ele>385.7</ele>
        <time>1970-01-01T03:40:34.000Z</time>
      </trkpt>
      <trkpt lat="45.97031" lon="4.55088">
        <ele>385.8</ele>
        <time>1970-01-01T03:40:35.000Z</time>
      </trkpt>
      <trkpt lat="45.9703" lon="4.55088">
        <ele>385.9</ele>
        <time>1970-01-01T03:40:36.000Z</time>
      </trkpt>
      <trkpt lat="45.97029" lon="4.55089">
        <ele>386</ele>
        <time>1970-01-01T03:40:37.000Z</time>
      </trkpt>
      <trkpt lat="45.97029" lon="4.55089">
        <ele>386.1</ele>
        <time>1970-01-01T03:40:38.000Z</time>
      </trkpt>
      <trkpt lat="45.97028" lon="4.5509">
        <ele>386.2</ele>
        <time>1970-01-01T03:40:39.000Z</time>
      </trkpt>
      <trkpt lat="45.97027" lon="4.5509">
        <ele>386.3</ele>
        <time>1970-01-01T03:40:40.000Z</time>
      </trkpt>
      <trkpt lat="45.97027" lon="4.55091">
        <ele>386.4</ele>
        <time>1970-01-01T03:40:41.000Z</time>
      </trkpt>
      <trkpt lat="45.97026" lon="4.55091">
        <ele>386.5</ele>
        <time>1970-01-01T03:40:42.000Z</time>
      </trkpt>
      <trkpt lat="45.97025" lon="4.55092">
        <ele>386.6</ele>
        <time>1970-01-01T03:40:43.000Z</time>
      </trkpt>
      <trkpt lat="45.97025" lon="4.55092">
        <ele>386.7</ele>
        <time>1970-01-01T03:40:44.000Z</time>
      </trkpt>
      <trkpt lat="45.97024" lon="4.55093">
        <ele>386.8</ele>
        <time>1970-01-01T03:40:45.000Z</time>
      </trkpt>
      <trkpt lat="45.97023" lon="4.55093">
        <ele>386.9</ele>
        <time>1970-01-01T03:40:46.000Z</time>
      </trkpt>
      <trkpt lat="45.97023" lon="4.55093">
        <ele>387</ele>
        <time>1970-01-01T03:40:47.000Z</time>
      </trkpt>
      <trkpt lat="45.97022" lon="4.55094">
        <ele>387.1</ele>
        <time>1970-01-01T03:40:48.000Z</time>
      </trkpt>
      <trkpt lat="45.97021" lon="4.55094">
        <ele>387.2</ele>
        <time>1970-01-01T03:40:49.000Z</time>
      </trkpt>
      <trkpt lat="45.9702" lon="4.55095">
        <ele>387.3</ele>
        <time>1970-01-01T03:40:50.000Z</time>
      </trkpt>
      <trkpt lat="45.9702" lon="4.55095">
        <ele>387.4</ele>
        <time>1970-01-01T03:40:51.000Z</time>
      </trkpt>
      <trkpt lat="45.97019" lon="4.55096">
        <ele>387.5</ele>
        <time>1970-01-01T03:40:52.000Z</time>
      </trkpt>
      <trkpt lat="45.97018" lon="4.55096">
        <ele>387.5</ele>
        <time>1970-01-01T03:40:53.000Z</time>
      </trkpt>
      <trkpt lat="45.97018" lon="4.55097">
        <ele>387.6</ele>
        <time>1970-01-01T03:40:54.000Z</time>
      </trkpt>
      <trkpt lat="45.97017" lon="4.55097">
        <ele>387.7</ele>
        <time>1970-01-01T03:40:55.000Z</time>
      </trkpt>
      <trkpt lat="45.97016" lon="4.55098">
        <ele>387.8</ele>
        <time>1970-01-01T03:40:56.000Z</time>
      </trkpt>
      <trkpt lat="45.97016" lon="4.55099">
        <ele>387.9</ele>
        <time>1970-01-01T03:40:57.000Z</time>
      </trkpt>
      <trkpt lat="45.97015" lon="4.551">
        <ele>388.1</ele>
        <time>1970-01-01T03:40:58.000Z</time>
      </trkpt>
      <trkpt lat="45.97015" lon="4.551">
        <ele>388.2</ele>
        <time>1970-01-01T03:40:59.000Z</time>
      </trkpt>
      <trkpt lat="45.97014" lon="4.55101">
        <ele>388.3</ele>
        <time>1970-01-01T03:41:00.000Z</time>
      </trkpt>
      <trkpt lat="45.97013" lon="4.55102">
        <ele>388.4</ele>
        <time>1970-01-01T03:41:01.000Z</time>
      </trkpt>
      <trkpt lat="45.97013" lon="4.55103">
        <ele>388.5</ele>
        <time>1970-01-01T03:41:02.000Z</time>
      </trkpt>
      <trkpt lat="45.97012" lon="4.55104">
        <ele>388.6</ele>
        <time>1970-01-01T03:41:03.000Z</time>
      </trkpt>
      <trkpt lat="45.97012" lon="4.55104">
        <ele>388.7</ele>
        <time>1970-01-01T03:41:04.000Z</time>
      </trkpt>
      <trkpt lat="45.97011" lon="4.55105">
        <ele>388.8</ele>
        <time>1970-01-01T03:41:05.000Z</time>
      </trkpt>
      <trkpt lat="45.9701" lon="4.55106">
        <ele>388.9</ele>
        <time>1970-01-01T03:41:06.000Z</time>
      </trkpt>
      <trkpt lat="45.9701" lon="4.55106">
        <ele>388.9</ele>
        <time>1970-01-01T03:41:07.000Z</time>
      </trkpt>
      <trkpt lat="45.9701" lon="4.55106">
        <ele>388.9</ele>
        <time>1970-01-01T03:41:08.000Z</time>
      </trkpt>
      <trkpt lat="45.9701" lon="4.55106">
        <ele>388.9</ele>
        <time>1970-01-01T03:41:09.000Z</time>
      </trkpt>
      <trkpt lat="45.97009" lon="4.55109">
        <ele>389.1</ele>
        <time>1970-01-01T03:41:10.000Z</time>
      </trkpt>
      <trkpt lat="45.97009" lon="4.55109">
        <ele>389.1</ele>
        <time>1970-01-01T03:41:11.000Z</time>
      </trkpt>
      <trkpt lat="45.97009" lon="4.55109">
        <ele>389.1</ele>
        <time>1970-01-01T03:41:12.000Z</time>
      </trkpt>
      <trkpt lat="45.97009" lon="4.55111">
        <ele>389.4</ele>
        <time>1970-01-01T03:41:13.000Z</time>
      </trkpt>
      <trkpt lat="45.97008" lon="4.55112">
        <ele>389.5</ele>
        <time>1970-01-01T03:41:14.000Z</time>
      </trkpt>
      <trkpt lat="45.97007" lon="4.55113">
        <ele>389.6</ele>
        <time>1970-01-01T03:41:15.000Z</time>
      </trkpt>
      <trkpt lat="45.97006" lon="4.55113">
        <ele>389.8</ele>
        <time>1970-01-01T03:41:16.000Z</time>
      </trkpt>
      <trkpt lat="45.97005" lon="4.55114">
        <ele>389.9</ele>
        <time>1970-01-01T03:41:17.000Z</time>
      </trkpt>
      <trkpt lat="45.97005" lon="4.55115">
        <ele>390</ele>
        <time>1970-01-01T03:41:18.000Z</time>
      </trkpt>
      <trkpt lat="45.97004" lon="4.55116">
        <ele>390.1</ele>
        <time>1970-01-01T03:41:19.000Z</time>
      </trkpt>
      <trkpt lat="45.97003" lon="4.55116">
        <ele>390.2</ele>
        <time>1970-01-01T03:41:20.000Z</time>
      </trkpt>
      <trkpt lat="45.97002" lon="4.55117">
        <ele>390.4</ele>
        <time>1970-01-01T03:41:21.000Z</time>
      </trkpt>
      <trkpt lat="45.97002" lon="4.55118">
        <ele>390.5</ele>
        <time>1970-01-01T03:41:22.000Z</time>
      </trkpt>
      <trkpt lat="45.97001" lon="4.55119">
        <ele>390.6</ele>
        <time>1970-01-01T03:41:23.000Z</time>
      </trkpt>
      <trkpt lat="45.97" lon="4.55119">
        <ele>390.7</ele>
        <time>1970-01-01T03:41:24.000Z</time>
      </trkpt>
      <trkpt lat="45.97" lon="4.5512">
        <ele>390.8</ele>
        <time>1970-01-01T03:41:25.000Z</time>
      </trkpt>
      <trkpt lat="45.96999" lon="4.55121">
        <ele>390.9</ele>
        <time>1970-01-01T03:41:26.000Z</time>
      </trkpt>
      <trkpt lat="45.96999" lon="4.55121">
        <ele>390.9</ele>
        <time>1970-01-01T03:41:27.000Z</time>
      </trkpt>
      <trkpt lat="45.96997" lon="4.55122">
        <ele>391.1</ele>
        <time>1970-01-01T03:41:28.000Z</time>
      </trkpt>
      <trkpt lat="45.96997" lon="4.55122">
        <ele>391.1</ele>
        <time>1970-01-01T03:41:29.000Z</time>
      </trkpt>
      <trkpt lat="45.96995" lon="4.55124">
        <ele>391.4</ele>
        <time>1970-01-01T03:41:30.000Z</time>
      </trkpt>
      <trkpt lat="45.96995" lon="4.55124">
        <ele>391.4</ele>
        <time>1970-01-01T03:41:31.000Z</time>
      </trkpt>
      <trkpt lat="45.96992" lon="4.55125">
        <ele>391.8</ele>
        <time>1970-01-01T03:41:32.000Z</time>
      </trkpt>
      <trkpt lat="45.96992" lon="4.55125">
        <ele>391.8</ele>
        <time>1970-01-01T03:41:33.000Z</time>
      </trkpt>
      <trkpt lat="45.9699" lon="4.55127">
        <ele>392.1</ele>
        <time>1970-01-01T03:41:34.000Z</time>
      </trkpt>
      <trkpt lat="45.9699" lon="4.55127">
        <ele>392.1</ele>
        <time>1970-01-01T03:41:35.000Z</time>
      </trkpt>
      <trkpt lat="45.96988" lon="4.55129">
        <ele>392.4</ele>
        <time>1970-01-01T03:41:36.000Z</time>
      </trkpt>
      <trkpt lat="45.96988" lon="4.55129">
        <ele>392.4</ele>
        <time>1970-01-01T03:41:37.000Z</time>
      </trkpt>
      <trkpt lat="45.96987" lon="4.5513">
        <ele>392.6</ele>
        <time>1970-01-01T03:41:38.000Z</time>
      </trkpt>
      <trkpt lat="45.96987" lon="4.5513">
        <ele>392.6</ele>
        <time>1970-01-01T03:41:39.000Z</time>
      </trkpt>
      <trkpt lat="45.96987" lon="4.5513">
        <ele>392.6</ele>
        <time>1970-01-01T03:41:40.000Z</time>
      </trkpt>
      <trkpt lat="45.96987" lon="4.5513">
        <ele>392.6</ele>
        <time>1970-01-01T03:41:41.000Z</time>
      </trkpt>
      <trkpt lat="45.96984" lon="4.55132">
        <ele>393</ele>
        <time>1970-01-01T03:41:42.000Z</time>
      </trkpt>
      <trkpt lat="45.96984" lon="4.55132">
        <ele>393</ele>
        <time>1970-01-01T03:41:43.000Z</time>
      </trkpt>
      <trkpt lat="45.96982" lon="4.55134">
        <ele>393.3</ele>
        <time>1970-01-01T03:41:44.000Z</time>
      </trkpt>
      <trkpt lat="45.96982" lon="4.55134">
        <ele>393.3</ele>
        <time>1970-01-01T03:41:45.000Z</time>
      </trkpt>
      <trkpt lat="45.96982" lon="4.55134">
        <ele>393.3</ele>
        <time>1970-01-01T03:41:46.000Z</time>
      </trkpt>
      <trkpt lat="45.96981" lon="4.55136">
        <ele>393.5</ele>
        <time>1970-01-01T03:41:47.000Z</time>
      </trkpt>
      <trkpt lat="45.96981" lon="4.55136">
        <ele>393.5</ele>
        <time>1970-01-01T03:41:48.000Z</time>
      </trkpt>
      <trkpt lat="45.96981" lon="4.55136">
        <ele>393.5</ele>
        <time>1970-01-01T03:41:49.000Z</time>
      </trkpt>
      <trkpt lat="45.96979" lon="4.55138">
        <ele>393.9</ele>
        <time>1970-01-01T03:41:50.000Z</time>
      </trkpt>
      <trkpt lat="45.96979" lon="4.55138">
        <ele>393.9</ele>
        <time>1970-01-01T03:41:51.000Z</time>
      </trkpt>
      <trkpt lat="45.96979" lon="4.55138">
        <ele>393.9</ele>
        <time>1970-01-01T03:41:52.000Z</time>
      </trkpt>
      <trkpt lat="45.96977" lon="4.5514">
        <ele>394.2</ele>
        <time>1970-01-01T03:41:53.000Z</time>
      </trkpt>
      <trkpt lat="45.96977" lon="4.5514">
        <ele>394.2</ele>
        <time>1970-01-01T03:41:54.000Z</time>
      </trkpt>
      <trkpt lat="45.96977" lon="4.5514">
        <ele>394.2</ele>
        <time>1970-01-01T03:41:55.000Z</time>
      </trkpt>
      <trkpt lat="45.96977" lon="4.5514">
        <ele>394.2</ele>
        <time>1970-01-01T03:41:56.000Z</time>
      </trkpt>
      <trkpt lat="45.96976" lon="4.55142">
        <ele>394.4</ele>
        <time>1970-01-01T03:41:57.000Z</time>
      </trkpt>
      <trkpt lat="45.96976" lon="4.55142">
        <ele>394.4</ele>
        <time>1970-01-01T03:41:58.000Z</time>
      </trkpt>
      <trkpt lat="45.96976" lon="4.55142">
        <ele>394.4</ele>
        <time>1970-01-01T03:41:59.000Z</time>
      </trkpt>
      <trkpt lat="45.96974" lon="4.55145">
        <ele>394.7</ele>
        <time>1970-01-01T03:42:00.000Z</time>
      </trkpt>
      <trkpt lat="45.96974" lon="4.55145">
        <ele>394.7</ele>
        <time>1970-01-01T03:42:01.000Z</time>
      </trkpt>
      <trkpt lat="45.96974" lon="4.55145">
        <ele>394.7</ele>
        <time>1970-01-01T03:42:02.000Z</time>
      </trkpt>
      <trkpt lat="45.96973" lon="4.55148">
        <ele>395</ele>
        <time>1970-01-01T03:42:03.000Z</time>
      </trkpt>
      <trkpt lat="45.96973" lon="4.55148">
        <ele>395</ele>
        <time>1970-01-01T03:42:04.000Z</time>
      </trkpt>
      <trkpt lat="45.96973" lon="4.55149">
        <ele>395.1</ele>
        <time>1970-01-01T03:42:05.000Z</time>
      </trkpt>
      <trkpt lat="45.96972" lon="4.55149">
        <ele>395.1</ele>
        <time>1970-01-01T03:42:06.000Z</time>
      </trkpt>
      <trkpt lat="45.96972" lon="4.5515">
        <ele>395.2</ele>
        <time>1970-01-01T03:42:07.000Z</time>
      </trkpt>
      <trkpt lat="45.96972" lon="4.5515">
        <ele>395.3</ele>
        <time>1970-01-01T03:42:08.000Z</time>
      </trkpt>
      <trkpt lat="45.96972" lon="4.55151">
        <ele>395.3</ele>
        <time>1970-01-01T03:42:09.000Z</time>
      </trkpt>
      <trkpt lat="45.96971" lon="4.55151">
        <ele>395.4</ele>
        <time>1970-01-01T03:42:10.000Z</time>
      </trkpt>
      <trkpt lat="45.96971" lon="4.55152">
        <ele>395.4</ele>
        <time>1970-01-01T03:42:11.000Z</time>
      </trkpt>
      <trkpt lat="45.96971" lon="4.55152">
        <ele>395.5</ele>
        <time>1970-01-01T03:42:12.000Z</time>
      </trkpt>
      <trkpt lat="45.9697" lon="4.55153">
        <ele>395.6</ele>
        <time>1970-01-01T03:42:13.000Z</time>
      </trkpt>
      <trkpt lat="45.96969" lon="4.55154">
        <ele>395.7</ele>
        <time>1970-01-01T03:42:14.000Z</time>
      </trkpt>
      <trkpt lat="45.96968" lon="4.55154">
        <ele>395.9</ele>
        <time>1970-01-01T03:42:15.000Z</time>
      </trkpt>
      <trkpt lat="45.96968" lon="4.55155">
        <ele>396</ele>
        <time>1970-01-01T03:42:16.000Z</time>
      </trkpt>
      <trkpt lat="45.96967" lon="4.55156">
        <ele>396.1</ele>
        <time>1970-01-01T03:42:17.000Z</time>
      </trkpt>
      <trkpt lat="45.96966" lon="4.55157">
        <ele>396.2</ele>
        <time>1970-01-01T03:42:18.000Z</time>
      </trkpt>
      <trkpt lat="45.96965" lon="4.55157">
        <ele>396.3</ele>
        <time>1970-01-01T03:42:19.000Z</time>
      </trkpt>
      <trkpt lat="45.96964" lon="4.55158">
        <ele>396.5</ele>
        <time>1970-01-01T03:42:20.000Z</time>
      </trkpt>
      <trkpt lat="45.96964" lon="4.55158">
        <ele>396.5</ele>
        <time>1970-01-01T03:42:21.000Z</time>
      </trkpt>
      <trkpt lat="45.96964" lon="4.55158">
        <ele>396.5</ele>
        <time>1970-01-01T03:42:22.000Z</time>
      </trkpt>
      <trkpt lat="45.96964" lon="4.55158">
        <ele>396.5</ele>
        <time>1970-01-01T03:42:23.000Z</time>
      </trkpt>
      <trkpt lat="45.96964" lon="4.55158">
        <ele>396.5</ele>
        <time>1970-01-01T03:42:24.000Z</time>
      </trkpt>
      <trkpt lat="45.96964" lon="4.55158">
        <ele>396.5</ele>
        <time>1970-01-01T03:42:25.000Z</time>
      </trkpt>
      <trkpt lat="45.96962" lon="4.55161">
        <ele>396.8</ele>
        <time>1970-01-01T03:42:26.000Z</time>
      </trkpt>
      <trkpt lat="45.96962" lon="4.55161">
        <ele>396.8</ele>
        <time>1970-01-01T03:42:27.000Z</time>
      </trkpt>
      <trkpt lat="45.96962" lon="4.55161">
        <ele>396.8</ele>
        <time>1970-01-01T03:42:28.000Z</time>
      </trkpt>
      <trkpt lat="45.96961" lon="4.55163">
        <ele>397.1</ele>
        <time>1970-01-01T03:42:29.000Z</time>
      </trkpt>
      <trkpt lat="45.96961" lon="4.55164">
        <ele>397.2</ele>
        <time>1970-01-01T03:42:30.000Z</time>
      </trkpt>
      <trkpt lat="45.9696" lon="4.55164">
        <ele>397.2</ele>
        <time>1970-01-01T03:42:31.000Z</time>
      </trkpt>
      <trkpt lat="45.9696" lon="4.55165">
        <ele>397.3</ele>
        <time>1970-01-01T03:42:32.000Z</time>
      </trkpt>
      <trkpt lat="45.96959" lon="4.55166">
        <ele>397.4</ele>
        <time>1970-01-01T03:42:33.000Z</time>
      </trkpt>
      <trkpt lat="45.96959" lon="4.55166">
        <ele>397.4</ele>
        <time>1970-01-01T03:42:34.000Z</time>
      </trkpt>
      <trkpt lat="45.96959" lon="4.55167">
        <ele>397.5</ele>
        <time>1970-01-01T03:42:35.000Z</time>
      </trkpt>
      <trkpt lat="45.96958" lon="4.55167">
        <ele>397.6</ele>
        <time>1970-01-01T03:42:36.000Z</time>
      </trkpt>
      <trkpt lat="45.96958" lon="4.55168">
        <ele>397.6</ele>
        <time>1970-01-01T03:42:37.000Z</time>
      </trkpt>
      <trkpt lat="45.96957" lon="4.55168">
        <ele>397.7</ele>
        <time>1970-01-01T03:42:38.000Z</time>
      </trkpt>
      <trkpt lat="45.96957" lon="4.55169">
        <ele>397.8</ele>
        <time>1970-01-01T03:42:39.000Z</time>
      </trkpt>
      <trkpt lat="45.96953" lon="4.55175">
        <ele>398.6</ele>
        <time>1970-01-01T03:42:40.000Z</time>
      </trkpt>
      <trkpt lat="45.96952" lon="4.55176">
        <ele>398.6</ele>
        <time>1970-01-01T03:42:41.000Z</time>
      </trkpt>
      <trkpt lat="45.96952" lon="4.55176">
        <ele>398.7</ele>
        <time>1970-01-01T03:42:42.000Z</time>
      </trkpt>
      <trkpt lat="45.96952" lon="4.55177">
        <ele>398.8</ele>
        <time>1970-01-01T03:42:43.000Z</time>
      </trkpt>
      <trkpt lat="45.96951" lon="4.55177">
        <ele>398.8</ele>
        <time>1970-01-01T03:42:44.000Z</time>
      </trkpt>
      <trkpt lat="45.96951" lon="4.55178">
        <ele>398.9</ele>
        <time>1970-01-01T03:42:45.000Z</time>
      </trkpt>
      <trkpt lat="45.96951" lon="4.55178">
        <ele>398.9</ele>
        <time>1970-01-01T03:42:46.000Z</time>
      </trkpt>
      <trkpt lat="45.9695" lon="4.55179">
        <ele>399</ele>
        <time>1970-01-01T03:42:47.000Z</time>
      </trkpt>
      <trkpt lat="45.9695" lon="4.5518">
        <ele>399.1</ele>
        <time>1970-01-01T03:42:48.000Z</time>
      </trkpt>
      <trkpt lat="45.9695" lon="4.5518">
        <ele>399.1</ele>
        <time>1970-01-01T03:42:49.000Z</time>
      </trkpt>
      <trkpt lat="45.96945" lon="4.55186">
        <ele>399.9</ele>
        <time>1970-01-01T03:42:50.000Z</time>
      </trkpt>
      <trkpt lat="45.96945" lon="4.55187">
        <ele>400</ele>
        <time>1970-01-01T03:42:51.000Z</time>
      </trkpt>
      <trkpt lat="45.96944" lon="4.55188">
        <ele>400.2</ele>
        <time>1970-01-01T03:42:52.000Z</time>
      </trkpt>
      <trkpt lat="45.96943" lon="4.55189">
        <ele>400.3</ele>
        <time>1970-01-01T03:42:53.000Z</time>
      </trkpt>
      <trkpt lat="45.96942" lon="4.5519">
        <ele>400.5</ele>
        <time>1970-01-01T03:42:54.000Z</time>
      </trkpt>
      <trkpt lat="45.96941" lon="4.55191">
        <ele>400.6</ele>
        <time>1970-01-01T03:42:55.000Z</time>
      </trkpt>
      <trkpt lat="45.9694" lon="4.55192">
        <ele>400.7</ele>
        <time>1970-01-01T03:42:56.000Z</time>
      </trkpt>
      <trkpt lat="45.96939" lon="4.55193">
        <ele>400.9</ele>
        <time>1970-01-01T03:42:57.000Z</time>
      </trkpt>
      <trkpt lat="45.96939" lon="4.55193">
        <ele>400.9</ele>
        <time>1970-01-01T03:42:58.000Z</time>
      </trkpt>
      <trkpt lat="45.96938" lon="4.55195">
        <ele>401.1</ele>
        <time>1970-01-01T03:42:59.000Z</time>
      </trkpt>
      <trkpt lat="45.96938" lon="4.55195">
        <ele>401.1</ele>
        <time>1970-01-01T03:43:00.000Z</time>
      </trkpt>
      <trkpt lat="45.96938" lon="4.55195">
        <ele>401.1</ele>
        <time>1970-01-01T03:43:01.000Z</time>
      </trkpt>
      <trkpt lat="45.96935" lon="4.55199">
        <ele>401.6</ele>
        <time>1970-01-01T03:43:02.000Z</time>
      </trkpt>
      <trkpt lat="45.96935" lon="4.55199">
        <ele>401.6</ele>
        <time>1970-01-01T03:43:03.000Z</time>
      </trkpt>
      <trkpt lat="45.96933" lon="4.55202">
        <ele>402</ele>
        <time>1970-01-01T03:43:04.000Z</time>
      </trkpt>
      <trkpt lat="45.96933" lon="4.55202">
        <ele>402.1</ele>
        <time>1970-01-01T03:43:05.000Z</time>
      </trkpt>
      <trkpt lat="45.96932" lon="4.55203">
        <ele>402.1</ele>
        <time>1970-01-01T03:43:06.000Z</time>
      </trkpt>
      <trkpt lat="45.96932" lon="4.55203">
        <ele>402.1</ele>
        <time>1970-01-01T03:43:07.000Z</time>
      </trkpt>
      <trkpt lat="45.96932" lon="4.55203">
        <ele>402.2</ele>
        <time>1970-01-01T03:43:08.000Z</time>
      </trkpt>
      <trkpt lat="45.96932" lon="4.55204">
        <ele>402.2</ele>
        <time>1970-01-01T03:43:09.000Z</time>
      </trkpt>
      <trkpt lat="45.96931" lon="4.55204">
        <ele>402.3</ele>
        <time>1970-01-01T03:43:10.000Z</time>
      </trkpt>
      <trkpt lat="45.96931" lon="4.55205">
        <ele>402.3</ele>
        <time>1970-01-01T03:43:11.000Z</time>
      </trkpt>
      <trkpt lat="45.96931" lon="4.55205">
        <ele>402.4</ele>
        <time>1970-01-01T03:43:12.000Z</time>
      </trkpt>
      <trkpt lat="45.96931" lon="4.55205">
        <ele>402.4</ele>
        <time>1970-01-01T03:43:13.000Z</time>
      </trkpt>
      <trkpt lat="45.9693" lon="4.55206">
        <ele>402.5</ele>
        <time>1970-01-01T03:43:14.000Z</time>
      </trkpt>
      <trkpt lat="45.9693" lon="4.55206">
        <ele>402.5</ele>
        <time>1970-01-01T03:43:15.000Z</time>
      </trkpt>
      <trkpt lat="45.9693" lon="4.55207">
        <ele>402.6</ele>
        <time>1970-01-01T03:43:16.000Z</time>
      </trkpt>
      <trkpt lat="45.9693" lon="4.55207">
        <ele>402.6</ele>
        <time>1970-01-01T03:43:17.000Z</time>
      </trkpt>
      <trkpt lat="45.96929" lon="4.55207">
        <ele>402.7</ele>
        <time>1970-01-01T03:43:18.000Z</time>
      </trkpt>
      <trkpt lat="45.96925" lon="4.55215">
        <ele>403.5</ele>
        <time>1970-01-01T03:43:19.000Z</time>
      </trkpt>
      <trkpt lat="45.96924" lon="4.55216">
        <ele>403.7</ele>
        <time>1970-01-01T03:43:20.000Z</time>
      </trkpt>
      <trkpt lat="45.96923" lon="4.55218">
        <ele>403.9</ele>
        <time>1970-01-01T03:43:21.000Z</time>
      </trkpt>
      <trkpt lat="45.96921" lon="4.55219">
        <ele>404.1</ele>
        <time>1970-01-01T03:43:22.000Z</time>
      </trkpt>
      <trkpt lat="45.96921" lon="4.55221">
        <ele>404.3</ele>
        <time>1970-01-01T03:43:23.000Z</time>
      </trkpt>
      <trkpt lat="45.9692" lon="4.55222">
        <ele>404.5</ele>
        <time>1970-01-01T03:43:24.000Z</time>
      </trkpt>
      <trkpt lat="45.96919" lon="4.55224">
        <ele>404.6</ele>
        <time>1970-01-01T03:43:25.000Z</time>
      </trkpt>
      <trkpt lat="45.96918" lon="4.55225">
        <ele>404.8</ele>
        <time>1970-01-01T03:43:26.000Z</time>
      </trkpt>
      <trkpt lat="45.96917" lon="4.55226">
        <ele>405</ele>
        <time>1970-01-01T03:43:27.000Z</time>
      </trkpt>
      <trkpt lat="45.96916" lon="4.55228">
        <ele>405.2</ele>
        <time>1970-01-01T03:43:28.000Z</time>
      </trkpt>
      <trkpt lat="45.96915" lon="4.55229">
        <ele>405.3</ele>
        <time>1970-01-01T03:43:29.000Z</time>
      </trkpt>
      <trkpt lat="45.96915" lon="4.55229">
        <ele>405.3</ele>
        <time>1970-01-01T03:43:30.000Z</time>
      </trkpt>
      <trkpt lat="45.96915" lon="4.55229">
        <ele>405.3</ele>
        <time>1970-01-01T03:43:31.000Z</time>
      </trkpt>
      <trkpt lat="45.96914" lon="4.55232">
        <ele>405.6</ele>
        <time>1970-01-01T03:43:32.000Z</time>
      </trkpt>
      <trkpt lat="45.96914" lon="4.55232">
        <ele>405.6</ele>
        <time>1970-01-01T03:43:33.000Z</time>
      </trkpt>
      <trkpt lat="45.96914" lon="4.55232">
        <ele>405.6</ele>
        <time>1970-01-01T03:43:34.000Z</time>
      </trkpt>
      <trkpt lat="45.96912" lon="4.55234">
        <ele>405.9</ele>
        <time>1970-01-01T03:43:35.000Z</time>
      </trkpt>
      <trkpt lat="45.96912" lon="4.55234">
        <ele>405.9</ele>
        <time>1970-01-01T03:43:36.000Z</time>
      </trkpt>
      <trkpt lat="45.96912" lon="4.55234">
        <ele>405.9</ele>
        <time>1970-01-01T03:43:37.000Z</time>
      </trkpt>
      <trkpt lat="45.96911" lon="4.55238">
        <ele>406.2</ele>
        <time>1970-01-01T03:43:38.000Z</time>
      </trkpt>
      <trkpt lat="45.96911" lon="4.55238">
        <ele>406.2</ele>
        <time>1970-01-01T03:43:39.000Z</time>
      </trkpt>
      <trkpt lat="45.96909" lon="4.55241">
        <ele>406.6</ele>
        <time>1970-01-01T03:43:40.000Z</time>
      </trkpt>
      <trkpt lat="45.96909" lon="4.55241">
        <ele>406.6</ele>
        <time>1970-01-01T03:43:41.000Z</time>
      </trkpt>
      <trkpt lat="45.96908" lon="4.55243">
        <ele>406.9</ele>
        <time>1970-01-01T03:43:42.000Z</time>
      </trkpt>
      <trkpt lat="45.96908" lon="4.55243">
        <ele>406.9</ele>
        <time>1970-01-01T03:43:43.000Z</time>
      </trkpt>
      <trkpt lat="45.96906" lon="4.55246">
        <ele>407.1</ele>
        <time>1970-01-01T03:43:44.000Z</time>
      </trkpt>
      <trkpt lat="45.96905" lon="4.55247">
        <ele>407.3</ele>
        <time>1970-01-01T03:43:45.000Z</time>
      </trkpt>
      <trkpt lat="45.96904" lon="4.55248">
        <ele>407.5</ele>
        <time>1970-01-01T03:43:46.000Z</time>
      </trkpt>
      <trkpt lat="45.96903" lon="4.55249">
        <ele>407.7</ele>
        <time>1970-01-01T03:43:47.000Z</time>
      </trkpt>
      <trkpt lat="45.96902" lon="4.55251">
        <ele>407.8</ele>
        <time>1970-01-01T03:43:48.000Z</time>
      </trkpt>
      <trkpt lat="45.96901" lon="4.55252">
        <ele>408</ele>
        <time>1970-01-01T03:43:49.000Z</time>
      </trkpt>
      <trkpt lat="45.969" lon="4.55253">
        <ele>408.2</ele>
        <time>1970-01-01T03:43:50.000Z</time>
      </trkpt>
      <trkpt lat="45.96899" lon="4.55254">
        <ele>408.4</ele>
        <time>1970-01-01T03:43:51.000Z</time>
      </trkpt>
      <trkpt lat="45.96899" lon="4.55255">
        <ele>408.4</ele>
        <time>1970-01-01T03:43:52.000Z</time>
      </trkpt>
      <trkpt lat="45.96898" lon="4.55256">
        <ele>408.5</ele>
        <time>1970-01-01T03:43:53.000Z</time>
      </trkpt>
      <trkpt lat="45.96898" lon="4.55257">
        <ele>408.6</ele>
        <time>1970-01-01T03:43:54.000Z</time>
      </trkpt>
      <trkpt lat="45.96897" lon="4.55258">
        <ele>408.7</ele>
        <time>1970-01-01T03:43:55.000Z</time>
      </trkpt>
      <trkpt lat="45.96897" lon="4.55258">
        <ele>408.8</ele>
        <time>1970-01-01T03:43:56.000Z</time>
      </trkpt>
      <trkpt lat="45.96897" lon="4.55259">
        <ele>408.9</ele>
        <time>1970-01-01T03:43:57.000Z</time>
      </trkpt>
      <trkpt lat="45.96896" lon="4.5526">
        <ele>408.9</ele>
        <time>1970-01-01T03:43:58.000Z</time>
      </trkpt>
      <trkpt lat="45.96896" lon="4.55261">
        <ele>409</ele>
        <time>1970-01-01T03:43:59.000Z</time>
      </trkpt>
      <trkpt lat="45.96896" lon="4.55262">
        <ele>409.1</ele>
        <time>1970-01-01T03:44:00.000Z</time>
      </trkpt>
      <trkpt lat="45.96895" lon="4.55262">
        <ele>409.2</ele>
        <time>1970-01-01T03:44:01.000Z</time>
      </trkpt>
      <trkpt lat="45.96895" lon="4.55263">
        <ele>409.3</ele>
        <time>1970-01-01T03:44:02.000Z</time>
      </trkpt>
      <trkpt lat="45.96895" lon="4.55264">
        <ele>409.4</ele>
        <time>1970-01-01T03:44:03.000Z</time>
      </trkpt>
      <trkpt lat="45.96894" lon="4.55265">
        <ele>409.4</ele>
        <time>1970-01-01T03:44:04.000Z</time>
      </trkpt>
      <trkpt lat="45.96894" lon="4.55266">
        <ele>409.5</ele>
        <time>1970-01-01T03:44:05.000Z</time>
      </trkpt>
      <trkpt lat="45.96894" lon="4.55266">
        <ele>409.5</ele>
        <time>1970-01-01T03:44:06.000Z</time>
      </trkpt>
      <trkpt lat="45.96893" lon="4.55268">
        <ele>409.8</ele>
        <time>1970-01-01T03:44:07.000Z</time>
      </trkpt>
      <trkpt lat="45.96893" lon="4.55268">
        <ele>409.8</ele>
        <time>1970-01-01T03:44:08.000Z</time>
      </trkpt>
      <trkpt lat="45.96893" lon="4.55268">
        <ele>409.8</ele>
        <time>1970-01-01T03:44:09.000Z</time>
      </trkpt>
      <trkpt lat="45.96891" lon="4.55271">
        <ele>410.2</ele>
        <time>1970-01-01T03:44:10.000Z</time>
      </trkpt>
      <trkpt lat="45.96891" lon="4.55271">
        <ele>410.2</ele>
        <time>1970-01-01T03:44:11.000Z</time>
      </trkpt>
      <trkpt lat="45.96891" lon="4.55271">
        <ele>410.2</ele>
        <time>1970-01-01T03:44:12.000Z</time>
      </trkpt>
      <trkpt lat="45.96891" lon="4.55271">
        <ele>410.2</ele>
        <time>1970-01-01T03:44:13.000Z</time>
      </trkpt>
      <trkpt lat="45.96889" lon="4.55274">
        <ele>410.4</ele>
        <time>1970-01-01T03:44:14.000Z</time>
      </trkpt>
      <trkpt lat="45.96889" lon="4.55274">
        <ele>410.4</ele>
        <time>1970-01-01T03:44:15.000Z</time>
      </trkpt>
      <trkpt lat="45.96889" lon="4.55274">
        <ele>410.4</ele>
        <time>1970-01-01T03:44:16.000Z</time>
      </trkpt>
      <trkpt lat="45.96889" lon="4.55274">
        <ele>410.4</ele>
        <time>1970-01-01T03:44:17.000Z</time>
      </trkpt>
      <trkpt lat="45.96889" lon="4.55274">
        <ele>410.4</ele>
        <time>1970-01-01T03:44:18.000Z</time>
      </trkpt>
      <trkpt lat="45.96889" lon="4.55274">
        <ele>410.4</ele>
        <time>1970-01-01T03:44:19.000Z</time>
      </trkpt>
      <trkpt lat="45.96887" lon="4.55279">
        <ele>411</ele>
        <time>1970-01-01T03:44:20.000Z</time>
      </trkpt>
      <trkpt lat="45.96886" lon="4.5528">
        <ele>411.1</ele>
        <time>1970-01-01T03:44:21.000Z</time>
      </trkpt>
      <trkpt lat="45.96885" lon="4.55281">
        <ele>411.3</ele>
        <time>1970-01-01T03:44:22.000Z</time>
      </trkpt>
      <trkpt lat="45.96885" lon="4.55282">
        <ele>411.4</ele>
        <time>1970-01-01T03:44:23.000Z</time>
      </trkpt>
      <trkpt lat="45.96884" lon="4.55283">
        <ele>411.5</ele>
        <time>1970-01-01T03:44:24.000Z</time>
      </trkpt>
      <trkpt lat="45.96883" lon="4.55284">
        <ele>411.7</ele>
        <time>1970-01-01T03:44:25.000Z</time>
      </trkpt>
      <trkpt lat="45.96882" lon="4.55285">
        <ele>411.8</ele>
        <time>1970-01-01T03:44:26.000Z</time>
      </trkpt>
      <trkpt lat="45.96881" lon="4.55286">
        <ele>412</ele>
        <time>1970-01-01T03:44:27.000Z</time>
      </trkpt>
      <trkpt lat="45.9688" lon="4.55287">
        <ele>412.1</ele>
        <time>1970-01-01T03:44:28.000Z</time>
      </trkpt>
      <trkpt lat="45.96879" lon="4.55288">
        <ele>412.3</ele>
        <time>1970-01-01T03:44:29.000Z</time>
      </trkpt>
      <trkpt lat="45.96878" lon="4.55288">
        <ele>412.4</ele>
        <time>1970-01-01T03:44:30.000Z</time>
      </trkpt>
      <trkpt lat="45.96876" lon="4.55289">
        <ele>412.6</ele>
        <time>1970-01-01T03:44:31.000Z</time>
      </trkpt>
      <trkpt lat="45.96875" lon="4.5529">
        <ele>412.8</ele>
        <time>1970-01-01T03:44:32.000Z</time>
      </trkpt>
      <trkpt lat="45.96874" lon="4.5529">
        <ele>412.9</ele>
        <time>1970-01-01T03:44:33.000Z</time>
      </trkpt>
      <trkpt lat="45.96873" lon="4.55291">
        <ele>413.1</ele>
        <time>1970-01-01T03:44:34.000Z</time>
      </trkpt>
      <trkpt lat="45.96872" lon="4.55291">
        <ele>413.2</ele>
        <time>1970-01-01T03:44:35.000Z</time>
      </trkpt>
      <trkpt lat="45.96871" lon="4.55291">
        <ele>413.4</ele>
        <time>1970-01-01T03:44:36.000Z</time>
      </trkpt>
      <trkpt lat="45.96869" lon="4.55292">
        <ele>413.5</ele>
        <time>1970-01-01T03:44:37.000Z</time>
      </trkpt>
      <trkpt lat="45.96868" lon="4.55292">
        <ele>413.7</ele>
        <time>1970-01-01T03:44:38.000Z</time>
      </trkpt>
      <trkpt lat="45.96867" lon="4.55293">
        <ele>413.8</ele>
        <time>1970-01-01T03:44:39.000Z</time>
      </trkpt>
      <trkpt lat="45.96866" lon="4.55293">
        <ele>414</ele>
        <time>1970-01-01T03:44:40.000Z</time>
      </trkpt>
      <trkpt lat="45.96865" lon="4.55294">
        <ele>414.1</ele>
        <time>1970-01-01T03:44:41.000Z</time>
      </trkpt>
      <trkpt lat="45.96864" lon="4.55295">
        <ele>414.3</ele>
        <time>1970-01-01T03:44:42.000Z</time>
      </trkpt>
      <trkpt lat="45.96863" lon="4.55295">
        <ele>414.4</ele>
        <time>1970-01-01T03:44:43.000Z</time>
      </trkpt>
      <trkpt lat="45.96862" lon="4.55296">
        <ele>414.6</ele>
        <time>1970-01-01T03:44:44.000Z</time>
      </trkpt>
      <trkpt lat="45.96861" lon="4.55297">
        <ele>414.7</ele>
        <time>1970-01-01T03:44:45.000Z</time>
      </trkpt>
      <trkpt lat="45.9686" lon="4.55298">
        <ele>414.9</ele>
        <time>1970-01-01T03:44:46.000Z</time>
      </trkpt>
      <trkpt lat="45.96859" lon="4.55298">
        <ele>415</ele>
        <time>1970-01-01T03:44:47.000Z</time>
      </trkpt>
      <trkpt lat="45.96858" lon="4.55299">
        <ele>415.2</ele>
        <time>1970-01-01T03:44:48.000Z</time>
      </trkpt>
      <trkpt lat="45.96857" lon="4.55299">
        <ele>415.2</ele>
        <time>1970-01-01T03:44:49.000Z</time>
      </trkpt>
      <trkpt lat="45.96857" lon="4.55299">
        <ele>415.3</ele>
        <time>1970-01-01T03:44:50.000Z</time>
      </trkpt>
      <trkpt lat="45.96856" lon="4.55299">
        <ele>415.3</ele>
        <time>1970-01-01T03:44:51.000Z</time>
      </trkpt>
      <trkpt lat="45.96856" lon="4.55299">
        <ele>415.4</ele>
        <time>1970-01-01T03:44:52.000Z</time>
      </trkpt>
      <trkpt lat="45.96856" lon="4.553">
        <ele>415.4</ele>
        <time>1970-01-01T03:44:53.000Z</time>
      </trkpt>
      <trkpt lat="45.96855" lon="4.553">
        <ele>415.5</ele>
        <time>1970-01-01T03:44:54.000Z</time>
      </trkpt>
      <trkpt lat="45.96855" lon="4.553">
        <ele>415.6</ele>
        <time>1970-01-01T03:44:55.000Z</time>
      </trkpt>
      <trkpt lat="45.96854" lon="4.553">
        <ele>415.6</ele>
        <time>1970-01-01T03:44:56.000Z</time>
      </trkpt>
      <trkpt lat="45.96854" lon="4.553">
        <ele>415.7</ele>
        <time>1970-01-01T03:44:57.000Z</time>
      </trkpt>
      <trkpt lat="45.96853" lon="4.553">
        <ele>415.7</ele>
        <time>1970-01-01T03:44:58.000Z</time>
      </trkpt>
      <trkpt lat="45.96853" lon="4.553">
        <ele>415.8</ele>
        <time>1970-01-01T03:44:59.000Z</time>
      </trkpt>
      <trkpt lat="45.96846" lon="4.55301">
        <ele>416.6</ele>
        <time>1970-01-01T03:45:00.000Z</time>
      </trkpt>
      <trkpt lat="45.96845" lon="4.55302">
        <ele>416.8</ele>
        <time>1970-01-01T03:45:01.000Z</time>
      </trkpt>
      <trkpt lat="45.96843" lon="4.55303">
        <ele>417</ele>
        <time>1970-01-01T03:45:02.000Z</time>
      </trkpt>
      <trkpt lat="45.96842" lon="4.55303">
        <ele>417.2</ele>
        <time>1970-01-01T03:45:03.000Z</time>
      </trkpt>
      <trkpt lat="45.9684" lon="4.55304">
        <ele>417.4</ele>
        <time>1970-01-01T03:45:04.000Z</time>
      </trkpt>
      <trkpt lat="45.96839" lon="4.55304">
        <ele>417.6</ele>
        <time>1970-01-01T03:45:05.000Z</time>
      </trkpt>
      <trkpt lat="45.96838" lon="4.55304">
        <ele>417.8</ele>
        <time>1970-01-01T03:45:06.000Z</time>
      </trkpt>
      <trkpt lat="45.96836" lon="4.55305">
        <ele>417.9</ele>
        <time>1970-01-01T03:45:07.000Z</time>
      </trkpt>
      <trkpt lat="45.96835" lon="4.55305">
        <ele>418</ele>
        <time>1970-01-01T03:45:08.000Z</time>
      </trkpt>
      <trkpt lat="45.96834" lon="4.55305">
        <ele>418.2</ele>
        <time>1970-01-01T03:45:09.000Z</time>
      </trkpt>
      <trkpt lat="45.96833" lon="4.55306">
        <ele>418.3</ele>
        <time>1970-01-01T03:45:10.000Z</time>
      </trkpt>
      <trkpt lat="45.96832" lon="4.55306">
        <ele>418.5</ele>
        <time>1970-01-01T03:45:11.000Z</time>
      </trkpt>
      <trkpt lat="45.96831" lon="4.55306">
        <ele>418.6</ele>
        <time>1970-01-01T03:45:12.000Z</time>
      </trkpt>
      <trkpt lat="45.9683" lon="4.55307">
        <ele>418.8</ele>
        <time>1970-01-01T03:45:13.000Z</time>
      </trkpt>
      <trkpt lat="45.96829" lon="4.55307">
        <ele>418.9</ele>
        <time>1970-01-01T03:45:14.000Z</time>
      </trkpt>
      <trkpt lat="45.96828" lon="4.55307">
        <ele>419</ele>
        <time>1970-01-01T03:45:15.000Z</time>
      </trkpt>
      <trkpt lat="45.96827" lon="4.55307">
        <ele>419.1</ele>
        <time>1970-01-01T03:45:16.000Z</time>
      </trkpt>
      <trkpt lat="45.96827" lon="4.55308">
        <ele>419.2</ele>
        <time>1970-01-01T03:45:17.000Z</time>
      </trkpt>
      <trkpt lat="45.96826" lon="4.55308">
        <ele>419.3</ele>
        <time>1970-01-01T03:45:18.000Z</time>
      </trkpt>
      <trkpt lat="45.96825" lon="4.55308">
        <ele>419.4</ele>
        <time>1970-01-01T03:45:19.000Z</time>
      </trkpt>
      <trkpt lat="45.96825" lon="4.55308">
        <ele>419.4</ele>
        <time>1970-01-01T03:45:20.000Z</time>
      </trkpt>
      <trkpt lat="45.96825" lon="4.55308">
        <ele>419.4</ele>
        <time>1970-01-01T03:45:21.000Z</time>
      </trkpt>
      <trkpt lat="45.96825" lon="4.55308">
        <ele>419.4</ele>
        <time>1970-01-01T03:45:22.000Z</time>
      </trkpt>
      <trkpt lat="45.96823" lon="4.55309">
        <ele>419.7</ele>
        <time>1970-01-01T03:45:23.000Z</time>
      </trkpt>
      <trkpt lat="45.96823" lon="4.55309">
        <ele>419.7</ele>
        <time>1970-01-01T03:45:24.000Z</time>
      </trkpt>
      <trkpt lat="45.96823" lon="4.55309">
        <ele>419.7</ele>
        <time>1970-01-01T03:45:25.000Z</time>
      </trkpt>
      <trkpt lat="45.9682" lon="4.55309">
        <ele>420</ele>
        <time>1970-01-01T03:45:26.000Z</time>
      </trkpt>
      <trkpt lat="45.9682" lon="4.55309">
        <ele>420</ele>
        <time>1970-01-01T03:45:27.000Z</time>
      </trkpt>
      <trkpt lat="45.96818" lon="4.5531">
        <ele>420.3</ele>
        <time>1970-01-01T03:45:28.000Z</time>
      </trkpt>
      <trkpt lat="45.96818" lon="4.5531">
        <ele>420.3</ele>
        <time>1970-01-01T03:45:29.000Z</time>
      </trkpt>
      <trkpt lat="45.96816" lon="4.55312">
        <ele>420.6</ele>
        <time>1970-01-01T03:45:30.000Z</time>
      </trkpt>
      <trkpt lat="45.96816" lon="4.55312">
        <ele>420.6</ele>
        <time>1970-01-01T03:45:31.000Z</time>
      </trkpt>
      <trkpt lat="45.96813" lon="4.55312">
        <ele>420.9</ele>
        <time>1970-01-01T03:45:32.000Z</time>
      </trkpt>
      <trkpt lat="45.96813" lon="4.55312">
        <ele>420.9</ele>
        <time>1970-01-01T03:45:33.000Z</time>
      </trkpt>
      <trkpt lat="45.96813" lon="4.55312">
        <ele>420.9</ele>
        <time>1970-01-01T03:45:34.000Z</time>
      </trkpt>
      <trkpt lat="45.96811" lon="4.55314">
        <ele>421.2</ele>
        <time>1970-01-01T03:45:35.000Z</time>
      </trkpt>
      <trkpt lat="45.96811" lon="4.55314">
        <ele>421.2</ele>
        <time>1970-01-01T03:45:36.000Z</time>
      </trkpt>
      <trkpt lat="45.96811" lon="4.55314">
        <ele>421.2</ele>
        <time>1970-01-01T03:45:37.000Z</time>
      </trkpt>
      <trkpt lat="45.96809" lon="4.55316">
        <ele>421.6</ele>
        <time>1970-01-01T03:45:38.000Z</time>
      </trkpt>
      <trkpt lat="45.96809" lon="4.55316">
        <ele>421.6</ele>
        <time>1970-01-01T03:45:39.000Z</time>
      </trkpt>
      <trkpt lat="45.96806" lon="4.55317">
        <ele>421.9</ele>
        <time>1970-01-01T03:45:40.000Z</time>
      </trkpt>
      <trkpt lat="45.96805" lon="4.55318">
        <ele>422</ele>
        <time>1970-01-01T03:45:41.000Z</time>
      </trkpt>
      <trkpt lat="45.96805" lon="4.55319">
        <ele>422.2</ele>
        <time>1970-01-01T03:45:42.000Z</time>
      </trkpt>
      <trkpt lat="45.96804" lon="4.5532">
        <ele>422.3</ele>
        <time>1970-01-01T03:45:43.000Z</time>
      </trkpt>
      <trkpt lat="45.96803" lon="4.55321">
        <ele>422.5</ele>
        <time>1970-01-01T03:45:44.000Z</time>
      </trkpt>
      <trkpt lat="45.96802" lon="4.55322">
        <ele>422.6</ele>
        <time>1970-01-01T03:45:45.000Z</time>
      </trkpt>
      <trkpt lat="45.96801" lon="4.55323">
        <ele>422.7</ele>
        <time>1970-01-01T03:45:46.000Z</time>
      </trkpt>
      <trkpt lat="45.96801" lon="4.55324">
        <ele>422.8</ele>
        <time>1970-01-01T03:45:47.000Z</time>
      </trkpt>
      <trkpt lat="45.968" lon="4.55325">
        <ele>423</ele>
        <time>1970-01-01T03:45:48.000Z</time>
      </trkpt>
      <trkpt lat="45.968" lon="4.55325">
        <ele>423</ele>
        <time>1970-01-01T03:45:49.000Z</time>
      </trkpt>
      <trkpt lat="45.96799" lon="4.55328">
        <ele>423.2</ele>
        <time>1970-01-01T03:45:50.000Z</time>
      </trkpt>
      <trkpt lat="45.96799" lon="4.55328">
        <ele>423.2</ele>
        <time>1970-01-01T03:45:51.000Z</time>
      </trkpt>
      <trkpt lat="45.96797" lon="4.55331">
        <ele>423.5</ele>
        <time>1970-01-01T03:45:52.000Z</time>
      </trkpt>
      <trkpt lat="45.96796" lon="4.55332">
        <ele>423.7</ele>
        <time>1970-01-01T03:45:53.000Z</time>
      </trkpt>
      <trkpt lat="45.96795" lon="4.55334">
        <ele>423.9</ele>
        <time>1970-01-01T03:45:54.000Z</time>
      </trkpt>
      <trkpt lat="45.96795" lon="4.55335">
        <ele>424.1</ele>
        <time>1970-01-01T03:45:55.000Z</time>
      </trkpt>
      <trkpt lat="45.96795" lon="4.55335">
        <ele>424.1</ele>
        <time>1970-01-01T03:45:56.000Z</time>
      </trkpt>
      <trkpt lat="45.96793" lon="4.55338">
        <ele>424.4</ele>
        <time>1970-01-01T03:45:57.000Z</time>
      </trkpt>
      <trkpt lat="45.96793" lon="4.55338">
        <ele>424.4</ele>
        <time>1970-01-01T03:45:58.000Z</time>
      </trkpt>
      <trkpt lat="45.9679" lon="4.5534">
        <ele>424.8</ele>
        <time>1970-01-01T03:45:59.000Z</time>
      </trkpt>
      <trkpt lat="45.9679" lon="4.5534">
        <ele>424.8</ele>
        <time>1970-01-01T03:46:00.000Z</time>
      </trkpt>
      <trkpt lat="45.96789" lon="4.55343">
        <ele>425.1</ele>
        <time>1970-01-01T03:46:01.000Z</time>
      </trkpt>
      <trkpt lat="45.96789" lon="4.55343">
        <ele>425.1</ele>
        <time>1970-01-01T03:46:02.000Z</time>
      </trkpt>
      <trkpt lat="45.96788" lon="4.55347">
        <ele>425.4</ele>
        <time>1970-01-01T03:46:03.000Z</time>
      </trkpt>
      <trkpt lat="45.96788" lon="4.55347">
        <ele>425.4</ele>
        <time>1970-01-01T03:46:04.000Z</time>
      </trkpt>
      <trkpt lat="45.96786" lon="4.5535">
        <ele>425.8</ele>
        <time>1970-01-01T03:46:05.000Z</time>
      </trkpt>
      <trkpt lat="45.96786" lon="4.5535">
        <ele>425.8</ele>
        <time>1970-01-01T03:46:06.000Z</time>
      </trkpt>
      <trkpt lat="45.96785" lon="4.55353">
        <ele>426.1</ele>
        <time>1970-01-01T03:46:07.000Z</time>
      </trkpt>
      <trkpt lat="45.96785" lon="4.55353">
        <ele>426.1</ele>
        <time>1970-01-01T03:46:08.000Z</time>
      </trkpt>
      <trkpt lat="45.96784" lon="4.55356">
        <ele>426.4</ele>
        <time>1970-01-01T03:46:09.000Z</time>
      </trkpt>
      <trkpt lat="45.96784" lon="4.55356">
        <ele>426.4</ele>
        <time>1970-01-01T03:46:10.000Z</time>
      </trkpt>
      <trkpt lat="45.96782" lon="4.55359">
        <ele>426.8</ele>
        <time>1970-01-01T03:46:11.000Z</time>
      </trkpt>
      <trkpt lat="45.96782" lon="4.55359">
        <ele>426.8</ele>
        <time>1970-01-01T03:46:12.000Z</time>
      </trkpt>
      <trkpt lat="45.9678" lon="4.55363">
        <ele>427.1</ele>
        <time>1970-01-01T03:46:13.000Z</time>
      </trkpt>
      <trkpt lat="45.9678" lon="4.55363">
        <ele>427.1</ele>
        <time>1970-01-01T03:46:14.000Z</time>
      </trkpt>
      <trkpt lat="45.96779" lon="4.55366">
        <ele>427.4</ele>
        <time>1970-01-01T03:46:15.000Z</time>
      </trkpt>
      <trkpt lat="45.96779" lon="4.55366">
        <ele>427.4</ele>
        <time>1970-01-01T03:46:16.000Z</time>
      </trkpt>
      <trkpt lat="45.96778" lon="4.55369">
        <ele>427.8</ele>
        <time>1970-01-01T03:46:17.000Z</time>
      </trkpt>
      <trkpt lat="45.96778" lon="4.55369">
        <ele>427.8</ele>
        <time>1970-01-01T03:46:18.000Z</time>
      </trkpt>
      <trkpt lat="45.96777" lon="4.55373">
        <ele>428.1</ele>
        <time>1970-01-01T03:46:19.000Z</time>
      </trkpt>
      <trkpt lat="45.96777" lon="4.55373">
        <ele>428.1</ele>
        <time>1970-01-01T03:46:20.000Z</time>
      </trkpt>
      <trkpt lat="45.96775" lon="4.55376">
        <ele>428.5</ele>
        <time>1970-01-01T03:46:21.000Z</time>
      </trkpt>
      <trkpt lat="45.96775" lon="4.55376">
        <ele>428.5</ele>
        <time>1970-01-01T03:46:22.000Z</time>
      </trkpt>
      <trkpt lat="45.96774" lon="4.5538">
        <ele>428.9</ele>
        <time>1970-01-01T03:46:23.000Z</time>
      </trkpt>
      <trkpt lat="45.96774" lon="4.5538">
        <ele>428.9</ele>
        <time>1970-01-01T03:46:24.000Z</time>
      </trkpt>
      <trkpt lat="45.96773" lon="4.55383">
        <ele>429.2</ele>
        <time>1970-01-01T03:46:25.000Z</time>
      </trkpt>
      <trkpt lat="45.96773" lon="4.55383">
        <ele>429.2</ele>
        <time>1970-01-01T03:46:26.000Z</time>
      </trkpt>
      <trkpt lat="45.96771" lon="4.55386">
        <ele>429.5</ele>
        <time>1970-01-01T03:46:27.000Z</time>
      </trkpt>
      <trkpt lat="45.96771" lon="4.55386">
        <ele>429.5</ele>
        <time>1970-01-01T03:46:28.000Z</time>
      </trkpt>
      <trkpt lat="45.9677" lon="4.5539">
        <ele>429.8</ele>
        <time>1970-01-01T03:46:29.000Z</time>
      </trkpt>
      <trkpt lat="45.9677" lon="4.5539">
        <ele>429.8</ele>
        <time>1970-01-01T03:46:30.000Z</time>
      </trkpt>
      <trkpt lat="45.96768" lon="4.55393">
        <ele>430.2</ele>
        <time>1970-01-01T03:46:31.000Z</time>
      </trkpt>
      <trkpt lat="45.96768" lon="4.55393">
        <ele>430.2</ele>
        <time>1970-01-01T03:46:32.000Z</time>
      </trkpt>
      <trkpt lat="45.96767" lon="4.55396">
        <ele>430.5</ele>
        <time>1970-01-01T03:46:33.000Z</time>
      </trkpt>
      <trkpt lat="45.96767" lon="4.55396">
        <ele>430.5</ele>
        <time>1970-01-01T03:46:34.000Z</time>
      </trkpt>
      <trkpt lat="45.96766" lon="4.55398">
        <ele>430.8</ele>
        <time>1970-01-01T03:46:35.000Z</time>
      </trkpt>
      <trkpt lat="45.96766" lon="4.55398">
        <ele>430.8</ele>
        <time>1970-01-01T03:46:36.000Z</time>
      </trkpt>
      <trkpt lat="45.96765" lon="4.55402">
        <ele>431.1</ele>
        <time>1970-01-01T03:46:37.000Z</time>
      </trkpt>
      <trkpt lat="45.96765" lon="4.55402">
        <ele>431.1</ele>
        <time>1970-01-01T03:46:38.000Z</time>
      </trkpt>
      <trkpt lat="45.96763" lon="4.55406">
        <ele>431.5</ele>
        <time>1970-01-01T03:46:39.000Z</time>
      </trkpt>
      <trkpt lat="45.96763" lon="4.55406">
        <ele>431.5</ele>
        <time>1970-01-01T03:46:40.000Z</time>
      </trkpt>
      <trkpt lat="45.96762" lon="4.55409">
        <ele>431.8</ele>
        <time>1970-01-01T03:46:41.000Z</time>
      </trkpt>
      <trkpt lat="45.96762" lon="4.55409">
        <ele>431.8</ele>
        <time>1970-01-01T03:46:42.000Z</time>
      </trkpt>
      <trkpt lat="45.96761" lon="4.55412">
        <ele>432.1</ele>
        <time>1970-01-01T03:46:43.000Z</time>
      </trkpt>
      <trkpt lat="45.96761" lon="4.55412">
        <ele>432.1</ele>
        <time>1970-01-01T03:46:44.000Z</time>
      </trkpt>
      <trkpt lat="45.96759" lon="4.55414">
        <ele>432.4</ele>
        <time>1970-01-01T03:46:45.000Z</time>
      </trkpt>
      <trkpt lat="45.96759" lon="4.55414">
        <ele>432.4</ele>
        <time>1970-01-01T03:46:46.000Z</time>
      </trkpt>
      <trkpt lat="45.96758" lon="4.55417">
        <ele>432.7</ele>
        <time>1970-01-01T03:46:47.000Z</time>
      </trkpt>
      <trkpt lat="45.96758" lon="4.55417">
        <ele>432.7</ele>
        <time>1970-01-01T03:46:48.000Z</time>
      </trkpt>
      <trkpt lat="45.96757" lon="4.5542">
        <ele>433</ele>
        <time>1970-01-01T03:46:49.000Z</time>
      </trkpt>
      <trkpt lat="45.96757" lon="4.5542">
        <ele>433</ele>
        <time>1970-01-01T03:46:50.000Z</time>
      </trkpt>
      <trkpt lat="45.96756" lon="4.55423">
        <ele>433.3</ele>
        <time>1970-01-01T03:46:51.000Z</time>
      </trkpt>
      <trkpt lat="45.96756" lon="4.55423">
        <ele>433.3</ele>
        <time>1970-01-01T03:46:52.000Z</time>
      </trkpt>
      <trkpt lat="45.96755" lon="4.55426">
        <ele>433.6</ele>
        <time>1970-01-01T03:46:53.000Z</time>
      </trkpt>
      <trkpt lat="45.96755" lon="4.55426">
        <ele>433.6</ele>
        <time>1970-01-01T03:46:54.000Z</time>
      </trkpt>
      <trkpt lat="45.96754" lon="4.55429">
        <ele>433.9</ele>
        <time>1970-01-01T03:46:55.000Z</time>
      </trkpt>
      <trkpt lat="45.96754" lon="4.55429">
        <ele>433.9</ele>
        <time>1970-01-01T03:46:56.000Z</time>
      </trkpt>
      <trkpt lat="45.96754" lon="4.55432">
        <ele>434.2</ele>
        <time>1970-01-01T03:46:57.000Z</time>
      </trkpt>
      <trkpt lat="45.96754" lon="4.55432">
        <ele>434.2</ele>
        <time>1970-01-01T03:46:58.000Z</time>
      </trkpt>
      <trkpt lat="45.96754" lon="4.55436">
        <ele>434.6</ele>
        <time>1970-01-01T03:46:59.000Z</time>
      </trkpt>
      <trkpt lat="45.96754" lon="4.55436">
        <ele>434.6</ele>
        <time>1970-01-01T03:47:00.000Z</time>
      </trkpt>
      <trkpt lat="45.96754" lon="4.5544">
        <ele>434.9</ele>
        <time>1970-01-01T03:47:01.000Z</time>
      </trkpt>
      <trkpt lat="45.96754" lon="4.5544">
        <ele>434.9</ele>
        <time>1970-01-01T03:47:02.000Z</time>
      </trkpt>
      <trkpt lat="45.96753" lon="4.55443">
        <ele>435.2</ele>
        <time>1970-01-01T03:47:03.000Z</time>
      </trkpt>
      <trkpt lat="45.96753" lon="4.55443">
        <ele>435.2</ele>
        <time>1970-01-01T03:47:04.000Z</time>
      </trkpt>
      <trkpt lat="45.96753" lon="4.55447">
        <ele>435.6</ele>
        <time>1970-01-01T03:47:05.000Z</time>
      </trkpt>
      <trkpt lat="45.96753" lon="4.55447">
        <ele>435.6</ele>
        <time>1970-01-01T03:47:06.000Z</time>
      </trkpt>
      <trkpt lat="45.96752" lon="4.5545">
        <ele>435.9</ele>
        <time>1970-01-01T03:47:07.000Z</time>
      </trkpt>
      <trkpt lat="45.96752" lon="4.5545">
        <ele>435.9</ele>
        <time>1970-01-01T03:47:08.000Z</time>
      </trkpt>
      <trkpt lat="45.96751" lon="4.55453">
        <ele>436.2</ele>
        <time>1970-01-01T03:47:09.000Z</time>
      </trkpt>
      <trkpt lat="45.96751" lon="4.55453">
        <ele>436.2</ele>
        <time>1970-01-01T03:47:10.000Z</time>
      </trkpt>
      <trkpt lat="45.9675" lon="4.55457">
        <ele>436.5</ele>
        <time>1970-01-01T03:47:11.000Z</time>
      </trkpt>
      <trkpt lat="45.9675" lon="4.55457">
        <ele>436.5</ele>
        <time>1970-01-01T03:47:12.000Z</time>
      </trkpt>
      <trkpt lat="45.9675" lon="4.55461">
        <ele>436.9</ele>
        <time>1970-01-01T03:47:13.000Z</time>
      </trkpt>
      <trkpt lat="45.9675" lon="4.55461">
        <ele>436.9</ele>
        <time>1970-01-01T03:47:14.000Z</time>
      </trkpt>
      <trkpt lat="45.96748" lon="4.55465">
        <ele>437.3</ele>
        <time>1970-01-01T03:47:15.000Z</time>
      </trkpt>
      <trkpt lat="45.96748" lon="4.55465">
        <ele>437.3</ele>
        <time>1970-01-01T03:47:16.000Z</time>
      </trkpt>
      <trkpt lat="45.96747" lon="4.55468">
        <ele>437.6</ele>
        <time>1970-01-01T03:47:17.000Z</time>
      </trkpt>
      <trkpt lat="45.96747" lon="4.55468">
        <ele>437.6</ele>
        <time>1970-01-01T03:47:18.000Z</time>
      </trkpt>
      <trkpt lat="45.96746" lon="4.55471">
        <ele>438</ele>
        <time>1970-01-01T03:47:19.000Z</time>
      </trkpt>
      <trkpt lat="45.96746" lon="4.55471">
        <ele>438</ele>
        <time>1970-01-01T03:47:20.000Z</time>
      </trkpt>
      <trkpt lat="45.96745" lon="4.55475">
        <ele>438.3</ele>
        <time>1970-01-01T03:47:21.000Z</time>
      </trkpt>
      <trkpt lat="45.96745" lon="4.55475">
        <ele>438.3</ele>
        <time>1970-01-01T03:47:22.000Z</time>
      </trkpt>
      <trkpt lat="45.96744" lon="4.55479">
        <ele>438.7</ele>
        <time>1970-01-01T03:47:23.000Z</time>
      </trkpt>
      <trkpt lat="45.96744" lon="4.55479">
        <ele>438.7</ele>
        <time>1970-01-01T03:47:24.000Z</time>
      </trkpt>
      <trkpt lat="45.96745" lon="4.55482">
        <ele>438.9</ele>
        <time>1970-01-01T03:47:25.000Z</time>
      </trkpt>
      <trkpt lat="45.96745" lon="4.55482">
        <ele>438.9</ele>
        <time>1970-01-01T03:47:26.000Z</time>
      </trkpt>
      <trkpt lat="45.96744" lon="4.55485">
        <ele>439.3</ele>
        <time>1970-01-01T03:47:27.000Z</time>
      </trkpt>
      <trkpt lat="45.96744" lon="4.55485">
        <ele>439.3</ele>
        <time>1970-01-01T03:47:28.000Z</time>
      </trkpt>
      <trkpt lat="45.96744" lon="4.55489">
        <ele>439.6</ele>
        <time>1970-01-01T03:47:29.000Z</time>
      </trkpt>
      <trkpt lat="45.96744" lon="4.55489">
        <ele>439.6</ele>
        <time>1970-01-01T03:47:30.000Z</time>
      </trkpt>
      <trkpt lat="45.96744" lon="4.55492">
        <ele>439.9</ele>
        <time>1970-01-01T03:47:31.000Z</time>
      </trkpt>
      <trkpt lat="45.96744" lon="4.55492">
        <ele>439.9</ele>
        <time>1970-01-01T03:47:32.000Z</time>
      </trkpt>
      <trkpt lat="45.96744" lon="4.55496">
        <ele>440.3</ele>
        <time>1970-01-01T03:47:33.000Z</time>
      </trkpt>
      <trkpt lat="45.96744" lon="4.55496">
        <ele>440.3</ele>
        <time>1970-01-01T03:47:34.000Z</time>
      </trkpt>
      <trkpt lat="45.96743" lon="4.55499">
        <ele>440.6</ele>
        <time>1970-01-01T03:47:35.000Z</time>
      </trkpt>
      <trkpt lat="45.96743" lon="4.55502">
        <ele>440.8</ele>
        <time>1970-01-01T03:47:36.000Z</time>
      </trkpt>
      <trkpt lat="45.96743" lon="4.55502">
        <ele>440.8</ele>
        <time>1970-01-01T03:47:37.000Z</time>
      </trkpt>
      <trkpt lat="45.96742" lon="4.55506">
        <ele>441.2</ele>
        <time>1970-01-01T03:47:38.000Z</time>
      </trkpt>
      <trkpt lat="45.96742" lon="4.55506">
        <ele>441.2</ele>
        <time>1970-01-01T03:47:39.000Z</time>
      </trkpt>
      <trkpt lat="45.96741" lon="4.5551">
        <ele>441.6</ele>
        <time>1970-01-01T03:47:40.000Z</time>
      </trkpt>
      <trkpt lat="45.96741" lon="4.5551">
        <ele>441.6</ele>
        <time>1970-01-01T03:47:41.000Z</time>
      </trkpt>
      <trkpt lat="45.9674" lon="4.55513">
        <ele>441.9</ele>
        <time>1970-01-01T03:47:42.000Z</time>
      </trkpt>
      <trkpt lat="45.9674" lon="4.55513">
        <ele>441.9</ele>
        <time>1970-01-01T03:47:43.000Z</time>
      </trkpt>
      <trkpt lat="45.96739" lon="4.55516">
        <ele>442.3</ele>
        <time>1970-01-01T03:47:44.000Z</time>
      </trkpt>
      <trkpt lat="45.96739" lon="4.55516">
        <ele>442.3</ele>
        <time>1970-01-01T03:47:45.000Z</time>
      </trkpt>
      <trkpt lat="45.96737" lon="4.55519">
        <ele>442.6</ele>
        <time>1970-01-01T03:47:46.000Z</time>
      </trkpt>
      <trkpt lat="45.96737" lon="4.55519">
        <ele>442.6</ele>
        <time>1970-01-01T03:47:47.000Z</time>
      </trkpt>
      <trkpt lat="45.96736" lon="4.55523">
        <ele>442.9</ele>
        <time>1970-01-01T03:47:48.000Z</time>
      </trkpt>
      <trkpt lat="45.96736" lon="4.55523">
        <ele>442.9</ele>
        <time>1970-01-01T03:47:49.000Z</time>
      </trkpt>
      <trkpt lat="45.96735" lon="4.55527">
        <ele>443.3</ele>
        <time>1970-01-01T03:47:50.000Z</time>
      </trkpt>
      <trkpt lat="45.96735" lon="4.55527">
        <ele>443.3</ele>
        <time>1970-01-01T03:47:51.000Z</time>
      </trkpt>
      <trkpt lat="45.96734" lon="4.55531">
        <ele>443.7</ele>
        <time>1970-01-01T03:47:52.000Z</time>
      </trkpt>
      <trkpt lat="45.96734" lon="4.55531">
        <ele>443.7</ele>
        <time>1970-01-01T03:47:53.000Z</time>
      </trkpt>
      <trkpt lat="45.96733" lon="4.55535">
        <ele>444.1</ele>
        <time>1970-01-01T03:47:54.000Z</time>
      </trkpt>
      <trkpt lat="45.96733" lon="4.55535">
        <ele>444.1</ele>
        <time>1970-01-01T03:47:55.000Z</time>
      </trkpt>
      <trkpt lat="45.96731" lon="4.55538">
        <ele>444.5</ele>
        <time>1970-01-01T03:47:56.000Z</time>
      </trkpt>
      <trkpt lat="45.96731" lon="4.55538">
        <ele>444.5</ele>
        <time>1970-01-01T03:47:57.000Z</time>
      </trkpt>
      <trkpt lat="45.9673" lon="4.55542">
        <ele>444.8</ele>
        <time>1970-01-01T03:47:58.000Z</time>
      </trkpt>
      <trkpt lat="45.9673" lon="4.55542">
        <ele>444.8</ele>
        <time>1970-01-01T03:47:59.000Z</time>
      </trkpt>
      <trkpt lat="45.96729" lon="4.55546">
        <ele>445.2</ele>
        <time>1970-01-01T03:48:00.000Z</time>
      </trkpt>
      <trkpt lat="45.96729" lon="4.55546">
        <ele>445.2</ele>
        <time>1970-01-01T03:48:01.000Z</time>
      </trkpt>
      <trkpt lat="45.96728" lon="4.55549">
        <ele>445.5</ele>
        <time>1970-01-01T03:48:02.000Z</time>
      </trkpt>
      <trkpt lat="45.96728" lon="4.55549">
        <ele>445.5</ele>
        <time>1970-01-01T03:48:03.000Z</time>
      </trkpt>
      <trkpt lat="45.96727" lon="4.55551">
        <ele>445.8</ele>
        <time>1970-01-01T03:48:04.000Z</time>
      </trkpt>
      <trkpt lat="45.96727" lon="4.55551">
        <ele>445.8</ele>
        <time>1970-01-01T03:48:05.000Z</time>
      </trkpt>
      <trkpt lat="45.96726" lon="4.55554">
        <ele>446.2</ele>
        <time>1970-01-01T03:48:06.000Z</time>
      </trkpt>
      <trkpt lat="45.96726" lon="4.55554">
        <ele>446.2</ele>
        <time>1970-01-01T03:48:07.000Z</time>
      </trkpt>
      <trkpt lat="45.96725" lon="4.55557">
        <ele>446.4</ele>
        <time>1970-01-01T03:48:08.000Z</time>
      </trkpt>
      <trkpt lat="45.96725" lon="4.55557">
        <ele>446.4</ele>
        <time>1970-01-01T03:48:09.000Z</time>
      </trkpt>
      <trkpt lat="45.96724" lon="4.5556">
        <ele>446.7</ele>
        <time>1970-01-01T03:48:10.000Z</time>
      </trkpt>
      <trkpt lat="45.96724" lon="4.5556">
        <ele>446.7</ele>
        <time>1970-01-01T03:48:11.000Z</time>
      </trkpt>
      <trkpt lat="45.96723" lon="4.55563">
        <ele>447</ele>
        <time>1970-01-01T03:48:12.000Z</time>
      </trkpt>
      <trkpt lat="45.96723" lon="4.55563">
        <ele>447</ele>
        <time>1970-01-01T03:48:13.000Z</time>
      </trkpt>
      <trkpt lat="45.96721" lon="4.55566">
        <ele>447.4</ele>
        <time>1970-01-01T03:48:14.000Z</time>
      </trkpt>
      <trkpt lat="45.96721" lon="4.55566">
        <ele>447.4</ele>
        <time>1970-01-01T03:48:15.000Z</time>
      </trkpt>
      <trkpt lat="45.96719" lon="4.55569">
        <ele>447.7</ele>
        <time>1970-01-01T03:48:16.000Z</time>
      </trkpt>
      <trkpt lat="45.96719" lon="4.55569">
        <ele>447.7</ele>
        <time>1970-01-01T03:48:17.000Z</time>
      </trkpt>
      <trkpt lat="45.96718" lon="4.55573">
        <ele>448.1</ele>
        <time>1970-01-01T03:48:18.000Z</time>
      </trkpt>
      <trkpt lat="45.96718" lon="4.55573">
        <ele>448.1</ele>
        <time>1970-01-01T03:48:19.000Z</time>
      </trkpt>
      <trkpt lat="45.96717" lon="4.55577">
        <ele>448.4</ele>
        <time>1970-01-01T03:48:20.000Z</time>
      </trkpt>
      <trkpt lat="45.96717" lon="4.55577">
        <ele>448.4</ele>
        <time>1970-01-01T03:48:21.000Z</time>
      </trkpt>
      <trkpt lat="45.96717" lon="4.55581">
        <ele>448.8</ele>
        <time>1970-01-01T03:48:22.000Z</time>
      </trkpt>
      <trkpt lat="45.96717" lon="4.55581">
        <ele>448.9</ele>
        <time>1970-01-01T03:48:23.000Z</time>
      </trkpt>
      <trkpt lat="45.96716" lon="4.55585">
        <ele>449.3</ele>
        <time>1970-01-01T03:48:24.000Z</time>
      </trkpt>
      <trkpt lat="45.96716" lon="4.55585">
        <ele>449.3</ele>
        <time>1970-01-01T03:48:25.000Z</time>
      </trkpt>
      <trkpt lat="45.96716" lon="4.55588">
        <ele>449.6</ele>
        <time>1970-01-01T03:48:26.000Z</time>
      </trkpt>
      <trkpt lat="45.96716" lon="4.55588">
        <ele>449.6</ele>
        <time>1970-01-01T03:48:27.000Z</time>
      </trkpt>
      <trkpt lat="45.96716" lon="4.55592">
        <ele>449.9</ele>
        <time>1970-01-01T03:48:28.000Z</time>
      </trkpt>
      <trkpt lat="45.96716" lon="4.55592">
        <ele>449.9</ele>
        <time>1970-01-01T03:48:29.000Z</time>
      </trkpt>
      <trkpt lat="45.96715" lon="4.55596">
        <ele>450.2</ele>
        <time>1970-01-01T03:48:30.000Z</time>
      </trkpt>
      <trkpt lat="45.96715" lon="4.55596">
        <ele>450.2</ele>
        <time>1970-01-01T03:48:31.000Z</time>
      </trkpt>
      <trkpt lat="45.96713" lon="4.55599">
        <ele>450.6</ele>
        <time>1970-01-01T03:48:32.000Z</time>
      </trkpt>
      <trkpt lat="45.96713" lon="4.55599">
        <ele>450.6</ele>
        <time>1970-01-01T03:48:33.000Z</time>
      </trkpt>
      <trkpt lat="45.96711" lon="4.55602">
        <ele>451</ele>
        <time>1970-01-01T03:48:34.000Z</time>
      </trkpt>
      <trkpt lat="45.96711" lon="4.55602">
        <ele>451</ele>
        <time>1970-01-01T03:48:35.000Z</time>
      </trkpt>
      <trkpt lat="45.96708" lon="4.55603">
        <ele>451.3</ele>
        <time>1970-01-01T03:48:36.000Z</time>
      </trkpt>
      <trkpt lat="45.96706" lon="4.55604">
        <ele>451.6</ele>
        <time>1970-01-01T03:48:37.000Z</time>
      </trkpt>
      <trkpt lat="45.96704" lon="4.55605">
        <ele>451.9</ele>
        <time>1970-01-01T03:48:38.000Z</time>
      </trkpt>
      <trkpt lat="45.96702" lon="4.55605">
        <ele>452.1</ele>
        <time>1970-01-01T03:48:39.000Z</time>
      </trkpt>
      <trkpt lat="45.96702" lon="4.55605">
        <ele>452.1</ele>
        <time>1970-01-01T03:48:40.000Z</time>
      </trkpt>
      <trkpt lat="45.96699" lon="4.55604">
        <ele>452.5</ele>
        <time>1970-01-01T03:48:41.000Z</time>
      </trkpt>
      <trkpt lat="45.96699" lon="4.55604">
        <ele>452.5</ele>
        <time>1970-01-01T03:48:42.000Z</time>
      </trkpt>
      <trkpt lat="45.96696" lon="4.55603">
        <ele>452.9</ele>
        <time>1970-01-01T03:48:43.000Z</time>
      </trkpt>
      <trkpt lat="45.96696" lon="4.55603">
        <ele>452.9</ele>
        <time>1970-01-01T03:48:44.000Z</time>
      </trkpt>
      <trkpt lat="45.96694" lon="4.55602">
        <ele>453.2</ele>
        <time>1970-01-01T03:48:45.000Z</time>
      </trkpt>
      <trkpt lat="45.96694" lon="4.55602">
        <ele>453.2</ele>
        <time>1970-01-01T03:48:46.000Z</time>
      </trkpt>
      <trkpt lat="45.96691" lon="4.55599">
        <ele>453.6</ele>
        <time>1970-01-01T03:48:47.000Z</time>
      </trkpt>
      <trkpt lat="45.9669" lon="4.55597">
        <ele>453.9</ele>
        <time>1970-01-01T03:48:48.000Z</time>
      </trkpt>
      <trkpt lat="45.96688" lon="4.55596">
        <ele>454.1</ele>
        <time>1970-01-01T03:48:49.000Z</time>
      </trkpt>
      <trkpt lat="45.96687" lon="4.55595">
        <ele>454.3</ele>
        <time>1970-01-01T03:48:50.000Z</time>
      </trkpt>
      <trkpt lat="45.96685" lon="4.55594">
        <ele>454.5</ele>
        <time>1970-01-01T03:48:51.000Z</time>
      </trkpt>
      <trkpt lat="45.96684" lon="4.55593">
        <ele>454.7</ele>
        <time>1970-01-01T03:48:52.000Z</time>
      </trkpt>
      <trkpt lat="45.96682" lon="4.55593">
        <ele>454.9</ele>
        <time>1970-01-01T03:48:53.000Z</time>
      </trkpt>
      <trkpt lat="45.96681" lon="4.55592">
        <ele>455</ele>
        <time>1970-01-01T03:48:54.000Z</time>
      </trkpt>
      <trkpt lat="45.96679" lon="4.55591">
        <ele>455.2</ele>
        <time>1970-01-01T03:48:55.000Z</time>
      </trkpt>
      <trkpt lat="45.96678" lon="4.55591">
        <ele>455.4</ele>
        <time>1970-01-01T03:48:56.000Z</time>
      </trkpt>
      <trkpt lat="45.96676" lon="4.5559">
        <ele>455.6</ele>
        <time>1970-01-01T03:48:57.000Z</time>
      </trkpt>
      <trkpt lat="45.96675" lon="4.5559">
        <ele>455.8</ele>
        <time>1970-01-01T03:48:58.000Z</time>
      </trkpt>
      <trkpt lat="45.96675" lon="4.5559">
        <ele>455.8</ele>
        <time>1970-01-01T03:48:59.000Z</time>
      </trkpt>
      <trkpt lat="45.96672" lon="4.5559">
        <ele>456.2</ele>
        <time>1970-01-01T03:49:00.000Z</time>
      </trkpt>
      <trkpt lat="45.96672" lon="4.5559">
        <ele>456.2</ele>
        <time>1970-01-01T03:49:01.000Z</time>
      </trkpt>
      <trkpt lat="45.9667" lon="4.55589">
        <ele>456.4</ele>
        <time>1970-01-01T03:49:02.000Z</time>
      </trkpt>
      <trkpt lat="45.9667" lon="4.55589">
        <ele>456.4</ele>
        <time>1970-01-01T03:49:03.000Z</time>
      </trkpt>
      <trkpt lat="45.96667" lon="4.55589">
        <ele>456.8</ele>
        <time>1970-01-01T03:49:04.000Z</time>
      </trkpt>
      <trkpt lat="45.96667" lon="4.55589">
        <ele>456.8</ele>
        <time>1970-01-01T03:49:05.000Z</time>
      </trkpt>
      <trkpt lat="45.96664" lon="4.55589">
        <ele>457.2</ele>
        <time>1970-01-01T03:49:06.000Z</time>
      </trkpt>
      <trkpt lat="45.96664" lon="4.55589">
        <ele>457.2</ele>
        <time>1970-01-01T03:49:07.000Z</time>
      </trkpt>
      <trkpt lat="45.96661" lon="4.55591">
        <ele>457.6</ele>
        <time>1970-01-01T03:49:08.000Z</time>
      </trkpt>
      <trkpt lat="45.96661" lon="4.55591">
        <ele>457.6</ele>
        <time>1970-01-01T03:49:09.000Z</time>
      </trkpt>
      <trkpt lat="45.96659" lon="4.55591">
        <ele>457.9</ele>
        <time>1970-01-01T03:49:10.000Z</time>
      </trkpt>
      <trkpt lat="45.96659" lon="4.55591">
        <ele>457.9</ele>
        <time>1970-01-01T03:49:11.000Z</time>
      </trkpt>
      <trkpt lat="45.96656" lon="4.55591">
        <ele>458.3</ele>
        <time>1970-01-01T03:49:12.000Z</time>
      </trkpt>
      <trkpt lat="45.96656" lon="4.55591">
        <ele>458.3</ele>
        <time>1970-01-01T03:49:13.000Z</time>
      </trkpt>
      <trkpt lat="45.96653" lon="4.55592">
        <ele>458.6</ele>
        <time>1970-01-01T03:49:14.000Z</time>
      </trkpt>
      <trkpt lat="45.96653" lon="4.55592">
        <ele>458.6</ele>
        <time>1970-01-01T03:49:15.000Z</time>
      </trkpt>
      <trkpt lat="45.9665" lon="4.55594">
        <ele>459</ele>
        <time>1970-01-01T03:49:16.000Z</time>
      </trkpt>
      <trkpt lat="45.9665" lon="4.55594">
        <ele>459</ele>
        <time>1970-01-01T03:49:17.000Z</time>
      </trkpt>
      <trkpt lat="45.96648" lon="4.55595">
        <ele>459.3</ele>
        <time>1970-01-01T03:49:18.000Z</time>
      </trkpt>
      <trkpt lat="45.96648" lon="4.55595">
        <ele>459.3</ele>
        <time>1970-01-01T03:49:19.000Z</time>
      </trkpt>
      <trkpt lat="45.96646" lon="4.55597">
        <ele>459.5</ele>
        <time>1970-01-01T03:49:20.000Z</time>
      </trkpt>
      <trkpt lat="45.96646" lon="4.55597">
        <ele>459.5</ele>
        <time>1970-01-01T03:49:21.000Z</time>
      </trkpt>
      <trkpt lat="45.96644" lon="4.55598">
        <ele>459.8</ele>
        <time>1970-01-01T03:49:22.000Z</time>
      </trkpt>
      <trkpt lat="45.96644" lon="4.55598">
        <ele>459.8</ele>
        <time>1970-01-01T03:49:23.000Z</time>
      </trkpt>
      <trkpt lat="45.96642" lon="4.556">
        <ele>460.1</ele>
        <time>1970-01-01T03:49:24.000Z</time>
      </trkpt>
      <trkpt lat="45.96642" lon="4.556">
        <ele>460.1</ele>
        <time>1970-01-01T03:49:25.000Z</time>
      </trkpt>
      <trkpt lat="45.9664" lon="4.55602">
        <ele>460.5</ele>
        <time>1970-01-01T03:49:26.000Z</time>
      </trkpt>
      <trkpt lat="45.9664" lon="4.55602">
        <ele>460.5</ele>
        <time>1970-01-01T03:49:27.000Z</time>
      </trkpt>
      <trkpt lat="45.96637" lon="4.55604">
        <ele>460.8</ele>
        <time>1970-01-01T03:49:28.000Z</time>
      </trkpt>
      <trkpt lat="45.96637" lon="4.55604">
        <ele>460.8</ele>
        <time>1970-01-01T03:49:29.000Z</time>
      </trkpt>
      <trkpt lat="45.96635" lon="4.55605">
        <ele>461.1</ele>
        <time>1970-01-01T03:49:30.000Z</time>
      </trkpt>
      <trkpt lat="45.96635" lon="4.55605">
        <ele>461.1</ele>
        <time>1970-01-01T03:49:31.000Z</time>
      </trkpt>
      <trkpt lat="45.96633" lon="4.55606">
        <ele>461.4</ele>
        <time>1970-01-01T03:49:32.000Z</time>
      </trkpt>
      <trkpt lat="45.96633" lon="4.55606">
        <ele>461.4</ele>
        <time>1970-01-01T03:49:33.000Z</time>
      </trkpt>
      <trkpt lat="45.9663" lon="4.55608">
        <ele>461.8</ele>
        <time>1970-01-01T03:49:34.000Z</time>
      </trkpt>
      <trkpt lat="45.9663" lon="4.55608">
        <ele>461.8</ele>
        <time>1970-01-01T03:49:35.000Z</time>
      </trkpt>
      <trkpt lat="45.96627" lon="4.55609">
        <ele>462.2</ele>
        <time>1970-01-01T03:49:36.000Z</time>
      </trkpt>
      <trkpt lat="45.96627" lon="4.55609">
        <ele>462.2</ele>
        <time>1970-01-01T03:49:37.000Z</time>
      </trkpt>
      <trkpt lat="45.96624" lon="4.5561">
        <ele>462.7</ele>
        <time>1970-01-01T03:49:38.000Z</time>
      </trkpt>
      <trkpt lat="45.96624" lon="4.5561">
        <ele>462.7</ele>
        <time>1970-01-01T03:49:39.000Z</time>
      </trkpt>
      <trkpt lat="45.96621" lon="4.55613">
        <ele>463.1</ele>
        <time>1970-01-01T03:49:40.000Z</time>
      </trkpt>
      <trkpt lat="45.96621" lon="4.55613">
        <ele>463.1</ele>
        <time>1970-01-01T03:49:41.000Z</time>
      </trkpt>
      <trkpt lat="45.96618" lon="4.55615">
        <ele>463.4</ele>
        <time>1970-01-01T03:49:42.000Z</time>
      </trkpt>
      <trkpt lat="45.96618" lon="4.55615">
        <ele>463.4</ele>
        <time>1970-01-01T03:49:43.000Z</time>
      </trkpt>
      <trkpt lat="45.96615" lon="4.55616">
        <ele>463.9</ele>
        <time>1970-01-01T03:49:44.000Z</time>
      </trkpt>
      <trkpt lat="45.96615" lon="4.55616">
        <ele>463.9</ele>
        <time>1970-01-01T03:49:45.000Z</time>
      </trkpt>
      <trkpt lat="45.96612" lon="4.55618">
        <ele>464.3</ele>
        <time>1970-01-01T03:49:46.000Z</time>
      </trkpt>
      <trkpt lat="45.96612" lon="4.55618">
        <ele>464.3</ele>
        <time>1970-01-01T03:49:47.000Z</time>
      </trkpt>
      <trkpt lat="45.96609" lon="4.55619">
        <ele>464.7</ele>
        <time>1970-01-01T03:49:48.000Z</time>
      </trkpt>
      <trkpt lat="45.96609" lon="4.55619">
        <ele>464.7</ele>
        <time>1970-01-01T03:49:49.000Z</time>
      </trkpt>
      <trkpt lat="45.96606" lon="4.55621">
        <ele>465</ele>
        <time>1970-01-01T03:49:50.000Z</time>
      </trkpt>
      <trkpt lat="45.96605" lon="4.55621">
        <ele>465.2</ele>
        <time>1970-01-01T03:49:51.000Z</time>
      </trkpt>
      <trkpt lat="45.96604" lon="4.55622">
        <ele>465.4</ele>
        <time>1970-01-01T03:49:52.000Z</time>
      </trkpt>
      <trkpt lat="45.96602" lon="4.55623">
        <ele>465.6</ele>
        <time>1970-01-01T03:49:53.000Z</time>
      </trkpt>
      <trkpt lat="45.96602" lon="4.55623">
        <ele>465.6</ele>
        <time>1970-01-01T03:49:54.000Z</time>
      </trkpt>
      <trkpt lat="45.966" lon="4.55622">
        <ele>465.9</ele>
        <time>1970-01-01T03:49:55.000Z</time>
      </trkpt>
      <trkpt lat="45.96598" lon="4.55622">
        <ele>466</ele>
        <time>1970-01-01T03:49:56.000Z</time>
      </trkpt>
      <trkpt lat="45.96597" lon="4.55621">
        <ele>466.2</ele>
        <time>1970-01-01T03:49:57.000Z</time>
      </trkpt>
      <trkpt lat="45.96596" lon="4.55621">
        <ele>466.4</ele>
        <time>1970-01-01T03:49:58.000Z</time>
      </trkpt>
      <trkpt lat="45.96595" lon="4.5562">
        <ele>466.5</ele>
        <time>1970-01-01T03:49:59.000Z</time>
      </trkpt>
      <trkpt lat="45.96594" lon="4.5562">
        <ele>466.7</ele>
        <time>1970-01-01T03:50:00.000Z</time>
      </trkpt>
      <trkpt lat="45.96593" lon="4.5562">
        <ele>466.8</ele>
        <time>1970-01-01T03:50:01.000Z</time>
      </trkpt>
      <trkpt lat="45.96591" lon="4.55619">
        <ele>467</ele>
        <time>1970-01-01T03:50:02.000Z</time>
      </trkpt>
      <trkpt lat="45.9659" lon="4.55619">
        <ele>467.1</ele>
        <time>1970-01-01T03:50:03.000Z</time>
      </trkpt>
      <trkpt lat="45.96589" lon="4.55618">
        <ele>467.3</ele>
        <time>1970-01-01T03:50:04.000Z</time>
      </trkpt>
      <trkpt lat="45.96588" lon="4.55617">
        <ele>467.5</ele>
        <time>1970-01-01T03:50:05.000Z</time>
      </trkpt>
      <trkpt lat="45.96587" lon="4.55616">
        <ele>467.6</ele>
        <time>1970-01-01T03:50:06.000Z</time>
      </trkpt>
      <trkpt lat="45.96585" lon="4.55615">
        <ele>467.8</ele>
        <time>1970-01-01T03:50:07.000Z</time>
      </trkpt>
      <trkpt lat="45.96584" lon="4.55614">
        <ele>468</ele>
        <time>1970-01-01T03:50:08.000Z</time>
      </trkpt>
      <trkpt lat="45.96583" lon="4.55613">
        <ele>468.2</ele>
        <time>1970-01-01T03:50:09.000Z</time>
      </trkpt>
      <trkpt lat="45.96582" lon="4.55612">
        <ele>468.4</ele>
        <time>1970-01-01T03:50:10.000Z</time>
      </trkpt>
      <trkpt lat="45.96581" lon="4.55611">
        <ele>468.5</ele>
        <time>1970-01-01T03:50:11.000Z</time>
      </trkpt>
      <trkpt lat="45.96579" lon="4.55611">
        <ele>468.6</ele>
        <time>1970-01-01T03:50:12.000Z</time>
      </trkpt>
      <trkpt lat="45.96578" lon="4.5561">
        <ele>468.8</ele>
        <time>1970-01-01T03:50:13.000Z</time>
      </trkpt>
      <trkpt lat="45.96577" lon="4.5561">
        <ele>468.9</ele>
        <time>1970-01-01T03:50:14.000Z</time>
      </trkpt>
      <trkpt lat="45.96576" lon="4.55609">
        <ele>469.1</ele>
        <time>1970-01-01T03:50:15.000Z</time>
      </trkpt>
      <trkpt lat="45.96575" lon="4.55608">
        <ele>469.2</ele>
        <time>1970-01-01T03:50:16.000Z</time>
      </trkpt>
      <trkpt lat="45.96574" lon="4.55608">
        <ele>469.4</ele>
        <time>1970-01-01T03:50:17.000Z</time>
      </trkpt>
      <trkpt lat="45.96573" lon="4.55607">
        <ele>469.5</ele>
        <time>1970-01-01T03:50:18.000Z</time>
      </trkpt>
      <trkpt lat="45.96572" lon="4.55607">
        <ele>469.7</ele>
        <time>1970-01-01T03:50:19.000Z</time>
      </trkpt>
      <trkpt lat="45.9657" lon="4.55607">
        <ele>469.8</ele>
        <time>1970-01-01T03:50:20.000Z</time>
      </trkpt>
      <trkpt lat="45.96569" lon="4.55606">
        <ele>470</ele>
        <time>1970-01-01T03:50:21.000Z</time>
      </trkpt>
      <trkpt lat="45.96568" lon="4.55606">
        <ele>470.1</ele>
        <time>1970-01-01T03:50:22.000Z</time>
      </trkpt>
      <trkpt lat="45.96567" lon="4.55606">
        <ele>470.3</ele>
        <time>1970-01-01T03:50:23.000Z</time>
      </trkpt>
      <trkpt lat="45.96566" lon="4.55606">
        <ele>470.4</ele>
        <time>1970-01-01T03:50:24.000Z</time>
      </trkpt>
      <trkpt lat="45.96565" lon="4.55605">
        <ele>470.6</ele>
        <time>1970-01-01T03:50:25.000Z</time>
      </trkpt>
      <trkpt lat="45.96564" lon="4.55605">
        <ele>470.7</ele>
        <time>1970-01-01T03:50:26.000Z</time>
      </trkpt>
      <trkpt lat="45.96562" lon="4.55605">
        <ele>470.9</ele>
        <time>1970-01-01T03:50:27.000Z</time>
      </trkpt>
      <trkpt lat="45.9656" lon="4.55604">
        <ele>471.1</ele>
        <time>1970-01-01T03:50:28.000Z</time>
      </trkpt>
      <trkpt lat="45.96559" lon="4.55604">
        <ele>471.3</ele>
        <time>1970-01-01T03:50:29.000Z</time>
      </trkpt>
      <trkpt lat="45.96557" lon="4.55603">
        <ele>471.5</ele>
        <time>1970-01-01T03:50:30.000Z</time>
      </trkpt>
      <trkpt lat="45.96556" lon="4.55603">
        <ele>471.7</ele>
        <time>1970-01-01T03:50:31.000Z</time>
      </trkpt>
      <trkpt lat="45.96554" lon="4.55603">
        <ele>471.9</ele>
        <time>1970-01-01T03:50:32.000Z</time>
      </trkpt>
      <trkpt lat="45.96553" lon="4.55602">
        <ele>472.1</ele>
        <time>1970-01-01T03:50:33.000Z</time>
      </trkpt>
      <trkpt lat="45.96551" lon="4.55602">
        <ele>472.3</ele>
        <time>1970-01-01T03:50:34.000Z</time>
      </trkpt>
      <trkpt lat="45.9655" lon="4.55601">
        <ele>472.5</ele>
        <time>1970-01-01T03:50:35.000Z</time>
      </trkpt>
      <trkpt lat="45.96548" lon="4.55601">
        <ele>472.7</ele>
        <time>1970-01-01T03:50:36.000Z</time>
      </trkpt>
      <trkpt lat="45.96547" lon="4.556">
        <ele>472.9</ele>
        <time>1970-01-01T03:50:37.000Z</time>
      </trkpt>
      <trkpt lat="45.96545" lon="4.556">
        <ele>473.1</ele>
        <time>1970-01-01T03:50:38.000Z</time>
      </trkpt>
      <trkpt lat="45.96544" lon="4.556">
        <ele>473.3</ele>
        <time>1970-01-01T03:50:39.000Z</time>
      </trkpt>
      <trkpt lat="45.96542" lon="4.556">
        <ele>473.5</ele>
        <time>1970-01-01T03:50:40.000Z</time>
      </trkpt>
      <trkpt lat="45.9654" lon="4.556">
        <ele>473.7</ele>
        <time>1970-01-01T03:50:41.000Z</time>
      </trkpt>
      <trkpt lat="45.96539" lon="4.55601">
        <ele>473.8</ele>
        <time>1970-01-01T03:50:42.000Z</time>
      </trkpt>
      <trkpt lat="45.96537" lon="4.55601">
        <ele>474</ele>
        <time>1970-01-01T03:50:43.000Z</time>
      </trkpt>
      <trkpt lat="45.96536" lon="4.55601">
        <ele>474.2</ele>
        <time>1970-01-01T03:50:44.000Z</time>
      </trkpt>
      <trkpt lat="45.96535" lon="4.55601">
        <ele>474.4</ele>
        <time>1970-01-01T03:50:45.000Z</time>
      </trkpt>
      <trkpt lat="45.96533" lon="4.55601">
        <ele>474.5</ele>
        <time>1970-01-01T03:50:46.000Z</time>
      </trkpt>
      <trkpt lat="45.96532" lon="4.55601">
        <ele>474.7</ele>
        <time>1970-01-01T03:50:47.000Z</time>
      </trkpt>
      <trkpt lat="45.96531" lon="4.55601">
        <ele>474.9</ele>
        <time>1970-01-01T03:50:48.000Z</time>
      </trkpt>
      <trkpt lat="45.9653" lon="4.55601">
        <ele>475</ele>
        <time>1970-01-01T03:50:49.000Z</time>
      </trkpt>
      <trkpt lat="45.96528" lon="4.55601">
        <ele>475.2</ele>
        <time>1970-01-01T03:50:50.000Z</time>
      </trkpt>
      <trkpt lat="45.96527" lon="4.55601">
        <ele>475.3</ele>
        <time>1970-01-01T03:50:51.000Z</time>
      </trkpt>
      <trkpt lat="45.96526" lon="4.55601">
        <ele>475.5</ele>
        <time>1970-01-01T03:50:52.000Z</time>
      </trkpt>
      <trkpt lat="45.96524" lon="4.556">
        <ele>475.7</ele>
        <time>1970-01-01T03:50:53.000Z</time>
      </trkpt>
      <trkpt lat="45.96523" lon="4.55599">
        <ele>475.9</ele>
        <time>1970-01-01T03:50:54.000Z</time>
      </trkpt>
      <trkpt lat="45.96522" lon="4.55598">
        <ele>476</ele>
        <time>1970-01-01T03:50:55.000Z</time>
      </trkpt>
      <trkpt lat="45.96521" lon="4.55598">
        <ele>476.2</ele>
        <time>1970-01-01T03:50:56.000Z</time>
      </trkpt>
      <trkpt lat="45.96519" lon="4.55597">
        <ele>476.4</ele>
        <time>1970-01-01T03:50:57.000Z</time>
      </trkpt>
      <trkpt lat="45.96518" lon="4.55596">
        <ele>476.6</ele>
        <time>1970-01-01T03:50:58.000Z</time>
      </trkpt>
      <trkpt lat="45.96517" lon="4.55595">
        <ele>476.7</ele>
        <time>1970-01-01T03:50:59.000Z</time>
      </trkpt>
      <trkpt lat="45.96516" lon="4.55595">
        <ele>476.8</ele>
        <time>1970-01-01T03:51:00.000Z</time>
      </trkpt>
      <trkpt lat="45.96515" lon="4.55595">
        <ele>476.9</ele>
        <time>1970-01-01T03:51:01.000Z</time>
      </trkpt>
      <trkpt lat="45.96515" lon="4.55595">
        <ele>477</ele>
        <time>1970-01-01T03:51:02.000Z</time>
      </trkpt>
      <trkpt lat="45.96514" lon="4.55595">
        <ele>477.1</ele>
        <time>1970-01-01T03:51:03.000Z</time>
      </trkpt>
      <trkpt lat="45.96513" lon="4.55594">
        <ele>477.2</ele>
        <time>1970-01-01T03:51:04.000Z</time>
      </trkpt>
      <trkpt lat="45.96513" lon="4.55594">
        <ele>477.2</ele>
        <time>1970-01-01T03:51:05.000Z</time>
      </trkpt>
      <trkpt lat="45.96512" lon="4.55594">
        <ele>477.3</ele>
        <time>1970-01-01T03:51:06.000Z</time>
      </trkpt>
      <trkpt lat="45.96511" lon="4.55594">
        <ele>477.4</ele>
        <time>1970-01-01T03:51:07.000Z</time>
      </trkpt>
      <trkpt lat="45.96505" lon="4.55591">
        <ele>478.2</ele>
        <time>1970-01-01T03:51:08.000Z</time>
      </trkpt>
      <trkpt lat="45.96504" lon="4.5559">
        <ele>478.4</ele>
        <time>1970-01-01T03:51:09.000Z</time>
      </trkpt>
      <trkpt lat="45.96503" lon="4.55588">
        <ele>478.6</ele>
        <time>1970-01-01T03:51:10.000Z</time>
      </trkpt>
      <trkpt lat="45.96501" lon="4.55587">
        <ele>478.8</ele>
        <time>1970-01-01T03:51:11.000Z</time>
      </trkpt>
      <trkpt lat="45.965" lon="4.55586">
        <ele>479</ele>
        <time>1970-01-01T03:51:12.000Z</time>
      </trkpt>
      <trkpt lat="45.965" lon="4.55586">
        <ele>479</ele>
        <time>1970-01-01T03:51:13.000Z</time>
      </trkpt>
      <trkpt lat="45.96498" lon="4.55584">
        <ele>479.4</ele>
        <time>1970-01-01T03:51:14.000Z</time>
      </trkpt>
      <trkpt lat="45.96496" lon="4.55583">
        <ele>479.7</ele>
        <time>1970-01-01T03:51:15.000Z</time>
      </trkpt>
      <trkpt lat="45.96494" lon="4.55581">
        <ele>479.9</ele>
        <time>1970-01-01T03:51:16.000Z</time>
      </trkpt>
      <trkpt lat="45.96494" lon="4.55581">
        <ele>479.9</ele>
        <time>1970-01-01T03:51:17.000Z</time>
      </trkpt>
      <trkpt lat="45.96492" lon="4.55579">
        <ele>480.2</ele>
        <time>1970-01-01T03:51:18.000Z</time>
      </trkpt>
      <trkpt lat="45.96492" lon="4.55579">
        <ele>480.2</ele>
        <time>1970-01-01T03:51:19.000Z</time>
      </trkpt>
      <trkpt lat="45.96489" lon="4.55577">
        <ele>480.7</ele>
        <time>1970-01-01T03:51:20.000Z</time>
      </trkpt>
      <trkpt lat="45.96489" lon="4.55577">
        <ele>480.7</ele>
        <time>1970-01-01T03:51:21.000Z</time>
      </trkpt>
      <trkpt lat="45.96487" lon="4.55576">
        <ele>481</ele>
        <time>1970-01-01T03:51:22.000Z</time>
      </trkpt>
      <trkpt lat="45.96487" lon="4.55576">
        <ele>481</ele>
        <time>1970-01-01T03:51:23.000Z</time>
      </trkpt>
      <trkpt lat="45.96484" lon="4.55575">
        <ele>481.3</ele>
        <time>1970-01-01T03:51:24.000Z</time>
      </trkpt>
      <trkpt lat="45.96484" lon="4.55575">
        <ele>481.3</ele>
        <time>1970-01-01T03:51:25.000Z</time>
      </trkpt>
      <trkpt lat="45.96481" lon="4.55573">
        <ele>481.7</ele>
        <time>1970-01-01T03:51:26.000Z</time>
      </trkpt>
      <trkpt lat="45.9648" lon="4.5557">
        <ele>482</ele>
        <time>1970-01-01T03:51:27.000Z</time>
      </trkpt>
      <trkpt lat="45.96478" lon="4.55569">
        <ele>482.2</ele>
        <time>1970-01-01T03:51:28.000Z</time>
      </trkpt>
      <trkpt lat="45.96478" lon="4.55569">
        <ele>482.2</ele>
        <time>1970-01-01T03:51:29.000Z</time>
      </trkpt>
      <trkpt lat="45.96476" lon="4.55566">
        <ele>482.6</ele>
        <time>1970-01-01T03:51:30.000Z</time>
      </trkpt>
      <trkpt lat="45.96476" lon="4.55566">
        <ele>482.6</ele>
        <time>1970-01-01T03:51:31.000Z</time>
      </trkpt>
      <trkpt lat="45.96474" lon="4.55563">
        <ele>483</ele>
        <time>1970-01-01T03:51:32.000Z</time>
      </trkpt>
      <trkpt lat="45.96474" lon="4.55563">
        <ele>483</ele>
        <time>1970-01-01T03:51:33.000Z</time>
      </trkpt>
      <trkpt lat="45.96471" lon="4.55561">
        <ele>483.3</ele>
        <time>1970-01-01T03:51:34.000Z</time>
      </trkpt>
      <trkpt lat="45.96471" lon="4.55561">
        <ele>483.3</ele>
        <time>1970-01-01T03:51:35.000Z</time>
      </trkpt>
      <trkpt lat="45.96469" lon="4.55559">
        <ele>483.6</ele>
        <time>1970-01-01T03:51:36.000Z</time>
      </trkpt>
      <trkpt lat="45.96469" lon="4.55559">
        <ele>483.6</ele>
        <time>1970-01-01T03:51:37.000Z</time>
      </trkpt>
      <trkpt lat="45.96467" lon="4.55558">
        <ele>484</ele>
        <time>1970-01-01T03:51:38.000Z</time>
      </trkpt>
      <trkpt lat="45.96467" lon="4.55558">
        <ele>484</ele>
        <time>1970-01-01T03:51:39.000Z</time>
      </trkpt>
      <trkpt lat="45.96464" lon="4.55557">
        <ele>484.4</ele>
        <time>1970-01-01T03:51:40.000Z</time>
      </trkpt>
      <trkpt lat="45.96464" lon="4.55557">
        <ele>484.4</ele>
        <time>1970-01-01T03:51:41.000Z</time>
      </trkpt>
      <trkpt lat="45.96461" lon="4.55556">
        <ele>484.7</ele>
        <time>1970-01-01T03:51:42.000Z</time>
      </trkpt>
      <trkpt lat="45.96461" lon="4.55556">
        <ele>484.7</ele>
        <time>1970-01-01T03:51:43.000Z</time>
      </trkpt>
      <trkpt lat="45.96459" lon="4.55555">
        <ele>485</ele>
        <time>1970-01-01T03:51:44.000Z</time>
      </trkpt>
      <trkpt lat="45.96459" lon="4.55555">
        <ele>485</ele>
        <time>1970-01-01T03:51:45.000Z</time>
      </trkpt>
      <trkpt lat="45.96456" lon="4.55555">
        <ele>485.3</ele>
        <time>1970-01-01T03:51:46.000Z</time>
      </trkpt>
      <trkpt lat="45.96456" lon="4.55555">
        <ele>485.3</ele>
        <time>1970-01-01T03:51:47.000Z</time>
      </trkpt>
      <trkpt lat="45.96454" lon="4.55556">
        <ele>485.6</ele>
        <time>1970-01-01T03:51:48.000Z</time>
      </trkpt>
      <trkpt lat="45.96454" lon="4.55556">
        <ele>485.6</ele>
        <time>1970-01-01T03:51:49.000Z</time>
      </trkpt>
      <trkpt lat="45.96452" lon="4.55557">
        <ele>485.9</ele>
        <time>1970-01-01T03:51:50.000Z</time>
      </trkpt>
      <trkpt lat="45.96452" lon="4.55557">
        <ele>485.9</ele>
        <time>1970-01-01T03:51:51.000Z</time>
      </trkpt>
      <trkpt lat="45.9645" lon="4.55557">
        <ele>486.1</ele>
        <time>1970-01-01T03:51:52.000Z</time>
      </trkpt>
      <trkpt lat="45.9645" lon="4.55557">
        <ele>486.1</ele>
        <time>1970-01-01T03:51:53.000Z</time>
      </trkpt>
      <trkpt lat="45.96448" lon="4.55557">
        <ele>486.4</ele>
        <time>1970-01-01T03:51:54.000Z</time>
      </trkpt>
      <trkpt lat="45.96448" lon="4.55557">
        <ele>486.5</ele>
        <time>1970-01-01T03:51:55.000Z</time>
      </trkpt>
      <trkpt lat="45.96446" lon="4.55557">
        <ele>486.7</ele>
        <time>1970-01-01T03:51:56.000Z</time>
      </trkpt>
      <trkpt lat="45.96446" lon="4.55557">
        <ele>486.7</ele>
        <time>1970-01-01T03:51:57.000Z</time>
      </trkpt>
      <trkpt lat="45.96445" lon="4.55558">
        <ele>486.9</ele>
        <time>1970-01-01T03:51:58.000Z</time>
      </trkpt>
      <trkpt lat="45.96445" lon="4.55558">
        <ele>486.9</ele>
        <time>1970-01-01T03:51:59.000Z</time>
      </trkpt>
      <trkpt lat="45.96442" lon="4.5556">
        <ele>487.3</ele>
        <time>1970-01-01T03:52:00.000Z</time>
      </trkpt>
      <trkpt lat="45.96442" lon="4.5556">
        <ele>487.3</ele>
        <time>1970-01-01T03:52:01.000Z</time>
      </trkpt>
      <trkpt lat="45.9644" lon="4.55561">
        <ele>487.7</ele>
        <time>1970-01-01T03:52:02.000Z</time>
      </trkpt>
      <trkpt lat="45.9644" lon="4.55561">
        <ele>487.7</ele>
        <time>1970-01-01T03:52:03.000Z</time>
      </trkpt>
      <trkpt lat="45.96437" lon="4.55563">
        <ele>488.1</ele>
        <time>1970-01-01T03:52:04.000Z</time>
      </trkpt>
      <trkpt lat="45.96435" lon="4.55563">
        <ele>488.3</ele>
        <time>1970-01-01T03:52:05.000Z</time>
      </trkpt>
      <trkpt lat="45.96435" lon="4.55563">
        <ele>488.3</ele>
        <time>1970-01-01T03:52:06.000Z</time>
      </trkpt>
      <trkpt lat="45.96432" lon="4.55565">
        <ele>488.7</ele>
        <time>1970-01-01T03:52:07.000Z</time>
      </trkpt>
      <trkpt lat="45.96432" lon="4.55565">
        <ele>488.7</ele>
        <time>1970-01-01T03:52:08.000Z</time>
      </trkpt>
      <trkpt lat="45.96429" lon="4.55567">
        <ele>489</ele>
        <time>1970-01-01T03:52:09.000Z</time>
      </trkpt>
      <trkpt lat="45.96429" lon="4.55567">
        <ele>489</ele>
        <time>1970-01-01T03:52:10.000Z</time>
      </trkpt>
      <trkpt lat="45.96426" lon="4.55569">
        <ele>489.4</ele>
        <time>1970-01-01T03:52:11.000Z</time>
      </trkpt>
      <trkpt lat="45.96426" lon="4.55569">
        <ele>489.4</ele>
        <time>1970-01-01T03:52:12.000Z</time>
      </trkpt>
      <trkpt lat="45.96423" lon="4.5557">
        <ele>489.7</ele>
        <time>1970-01-01T03:52:13.000Z</time>
      </trkpt>
      <trkpt lat="45.96423" lon="4.5557">
        <ele>489.7</ele>
        <time>1970-01-01T03:52:14.000Z</time>
      </trkpt>
      <trkpt lat="45.9642" lon="4.55572">
        <ele>490</ele>
        <time>1970-01-01T03:52:15.000Z</time>
      </trkpt>
      <trkpt lat="45.9642" lon="4.55572">
        <ele>490</ele>
        <time>1970-01-01T03:52:16.000Z</time>
      </trkpt>
      <trkpt lat="45.96417" lon="4.55574">
        <ele>490.3</ele>
        <time>1970-01-01T03:52:17.000Z</time>
      </trkpt>
      <trkpt lat="45.96417" lon="4.55574">
        <ele>490.3</ele>
        <time>1970-01-01T03:52:18.000Z</time>
      </trkpt>
      <trkpt lat="45.96414" lon="4.55575">
        <ele>490.6</ele>
        <time>1970-01-01T03:52:19.000Z</time>
      </trkpt>
      <trkpt lat="45.96414" lon="4.55575">
        <ele>490.6</ele>
        <time>1970-01-01T03:52:20.000Z</time>
      </trkpt>
      <trkpt lat="45.96411" lon="4.55576">
        <ele>490.8</ele>
        <time>1970-01-01T03:52:21.000Z</time>
      </trkpt>
      <trkpt lat="45.96411" lon="4.55576">
        <ele>490.8</ele>
        <time>1970-01-01T03:52:22.000Z</time>
      </trkpt>
      <trkpt lat="45.96408" lon="4.55577">
        <ele>491</ele>
        <time>1970-01-01T03:52:23.000Z</time>
      </trkpt>
      <trkpt lat="45.96408" lon="4.55577">
        <ele>491</ele>
        <time>1970-01-01T03:52:24.000Z</time>
      </trkpt>
      <trkpt lat="45.96405" lon="4.55578">
        <ele>491.2</ele>
        <time>1970-01-01T03:52:25.000Z</time>
      </trkpt>
      <trkpt lat="45.96405" lon="4.55578">
        <ele>491.2</ele>
        <time>1970-01-01T03:52:26.000Z</time>
      </trkpt>
      <trkpt lat="45.96402" lon="4.55579">
        <ele>491.3</ele>
        <time>1970-01-01T03:52:27.000Z</time>
      </trkpt>
      <trkpt lat="45.96402" lon="4.55579">
        <ele>491.3</ele>
        <time>1970-01-01T03:52:28.000Z</time>
      </trkpt>
      <trkpt lat="45.96399" lon="4.5558">
        <ele>491.5</ele>
        <time>1970-01-01T03:52:29.000Z</time>
      </trkpt>
      <trkpt lat="45.96397" lon="4.5558">
        <ele>491.5</ele>
        <time>1970-01-01T03:52:30.000Z</time>
      </trkpt>
      <trkpt lat="45.96397" lon="4.5558">
        <ele>491.5</ele>
        <time>1970-01-01T03:52:31.000Z</time>
      </trkpt>
      <trkpt lat="45.96394" lon="4.55581">
        <ele>491.6</ele>
        <time>1970-01-01T03:52:32.000Z</time>
      </trkpt>
      <trkpt lat="45.96394" lon="4.55581">
        <ele>491.6</ele>
        <time>1970-01-01T03:52:33.000Z</time>
      </trkpt>
      <trkpt lat="45.96391" lon="4.55582">
        <ele>491.7</ele>
        <time>1970-01-01T03:52:34.000Z</time>
      </trkpt>
      <trkpt lat="45.96391" lon="4.55582">
        <ele>491.7</ele>
        <time>1970-01-01T03:52:35.000Z</time>
      </trkpt>
      <trkpt lat="45.96388" lon="4.55582">
        <ele>491.7</ele>
        <time>1970-01-01T03:52:36.000Z</time>
      </trkpt>
      <trkpt lat="45.96388" lon="4.55582">
        <ele>491.7</ele>
        <time>1970-01-01T03:52:37.000Z</time>
      </trkpt>
      <trkpt lat="45.96385" lon="4.55582">
        <ele>491.7</ele>
        <time>1970-01-01T03:52:38.000Z</time>
      </trkpt>
      <trkpt lat="45.96385" lon="4.55582">
        <ele>491.7</ele>
        <time>1970-01-01T03:52:39.000Z</time>
      </trkpt>
      <trkpt lat="45.96382" lon="4.55582">
        <ele>491.7</ele>
        <time>1970-01-01T03:52:40.000Z</time>
      </trkpt>
      <trkpt lat="45.96382" lon="4.55582">
        <ele>491.7</ele>
        <time>1970-01-01T03:52:41.000Z</time>
      </trkpt>
      <trkpt lat="45.96379" lon="4.55582">
        <ele>491.7</ele>
        <time>1970-01-01T03:52:42.000Z</time>
      </trkpt>
      <trkpt lat="45.96379" lon="4.55582">
        <ele>491.7</ele>
        <time>1970-01-01T03:52:43.000Z</time>
      </trkpt>
      <trkpt lat="45.96376" lon="4.55581">
        <ele>491.7</ele>
        <time>1970-01-01T03:52:44.000Z</time>
      </trkpt>
      <trkpt lat="45.96376" lon="4.55581">
        <ele>491.7</ele>
        <time>1970-01-01T03:52:45.000Z</time>
      </trkpt>
      <trkpt lat="45.96373" lon="4.55581">
        <ele>491.6</ele>
        <time>1970-01-01T03:52:46.000Z</time>
      </trkpt>
      <trkpt lat="45.96373" lon="4.55581">
        <ele>491.6</ele>
        <time>1970-01-01T03:52:47.000Z</time>
      </trkpt>
      <trkpt lat="45.9637" lon="4.55581">
        <ele>491.6</ele>
        <time>1970-01-01T03:52:48.000Z</time>
      </trkpt>
      <trkpt lat="45.9637" lon="4.55581">
        <ele>491.6</ele>
        <time>1970-01-01T03:52:49.000Z</time>
      </trkpt>
      <trkpt lat="45.96368" lon="4.55581">
        <ele>491.5</ele>
        <time>1970-01-01T03:52:50.000Z</time>
      </trkpt>
      <trkpt lat="45.96368" lon="4.55581">
        <ele>491.5</ele>
        <time>1970-01-01T03:52:51.000Z</time>
      </trkpt>
      <trkpt lat="45.96365" lon="4.55583">
        <ele>491.3</ele>
        <time>1970-01-01T03:52:52.000Z</time>
      </trkpt>
      <trkpt lat="45.96365" lon="4.55583">
        <ele>491.3</ele>
        <time>1970-01-01T03:52:53.000Z</time>
      </trkpt>
      <trkpt lat="45.96363" lon="4.55586">
        <ele>491.1</ele>
        <time>1970-01-01T03:52:54.000Z</time>
      </trkpt>
      <trkpt lat="45.96363" lon="4.55586">
        <ele>491.1</ele>
        <time>1970-01-01T03:52:55.000Z</time>
      </trkpt>
      <trkpt lat="45.96361" lon="4.55588">
        <ele>491</ele>
        <time>1970-01-01T03:52:56.000Z</time>
      </trkpt>
      <trkpt lat="45.96361" lon="4.55588">
        <ele>491</ele>
        <time>1970-01-01T03:52:57.000Z</time>
      </trkpt>
      <trkpt lat="45.96359" lon="4.55591">
        <ele>490.8</ele>
        <time>1970-01-01T03:52:58.000Z</time>
      </trkpt>
      <trkpt lat="45.96359" lon="4.55591">
        <ele>490.8</ele>
        <time>1970-01-01T03:52:59.000Z</time>
      </trkpt>
      <trkpt lat="45.96357" lon="4.55594">
        <ele>490.6</ele>
        <time>1970-01-01T03:53:00.000Z</time>
      </trkpt>
      <trkpt lat="45.96357" lon="4.55594">
        <ele>490.6</ele>
        <time>1970-01-01T03:53:01.000Z</time>
      </trkpt>
      <trkpt lat="45.96355" lon="4.55597">
        <ele>490.5</ele>
        <time>1970-01-01T03:53:02.000Z</time>
      </trkpt>
      <trkpt lat="45.96355" lon="4.55597">
        <ele>490.5</ele>
        <time>1970-01-01T03:53:03.000Z</time>
      </trkpt>
      <trkpt lat="45.96354" lon="4.55601">
        <ele>490.3</ele>
        <time>1970-01-01T03:53:04.000Z</time>
      </trkpt>
      <trkpt lat="45.96354" lon="4.55601">
        <ele>490.3</ele>
        <time>1970-01-01T03:53:05.000Z</time>
      </trkpt>
      <trkpt lat="45.96353" lon="4.55604">
        <ele>490.2</ele>
        <time>1970-01-01T03:53:06.000Z</time>
      </trkpt>
      <trkpt lat="45.96353" lon="4.55604">
        <ele>490.2</ele>
        <time>1970-01-01T03:53:07.000Z</time>
      </trkpt>
      <trkpt lat="45.96352" lon="4.55607">
        <ele>490.1</ele>
        <time>1970-01-01T03:53:08.000Z</time>
      </trkpt>
      <trkpt lat="45.96352" lon="4.55607">
        <ele>490.1</ele>
        <time>1970-01-01T03:53:09.000Z</time>
      </trkpt>
      <trkpt lat="45.9635" lon="4.5561">
        <ele>489.9</ele>
        <time>1970-01-01T03:53:10.000Z</time>
      </trkpt>
      <trkpt lat="45.9635" lon="4.5561">
        <ele>489.9</ele>
        <time>1970-01-01T03:53:11.000Z</time>
      </trkpt>
      <trkpt lat="45.96349" lon="4.55613">
        <ele>489.8</ele>
        <time>1970-01-01T03:53:12.000Z</time>
      </trkpt>
      <trkpt lat="45.96349" lon="4.55613">
        <ele>489.8</ele>
        <time>1970-01-01T03:53:13.000Z</time>
      </trkpt>
      <trkpt lat="45.96348" lon="4.55615">
        <ele>489.8</ele>
        <time>1970-01-01T03:53:14.000Z</time>
      </trkpt>
      <trkpt lat="45.96348" lon="4.55615">
        <ele>489.8</ele>
        <time>1970-01-01T03:53:15.000Z</time>
      </trkpt>
      <trkpt lat="45.96348" lon="4.55615">
        <ele>489.8</ele>
        <time>1970-01-01T03:53:16.000Z</time>
      </trkpt>
      <trkpt lat="45.96346" lon="4.55618">
        <ele>489.6</ele>
        <time>1970-01-01T03:53:17.000Z</time>
      </trkpt>
      <trkpt lat="45.96346" lon="4.55618">
        <ele>489.6</ele>
        <time>1970-01-01T03:53:18.000Z</time>
      </trkpt>
      <trkpt lat="45.96345" lon="4.5562">
        <ele>489.6</ele>
        <time>1970-01-01T03:53:19.000Z</time>
      </trkpt>
      <trkpt lat="45.96345" lon="4.5562">
        <ele>489.6</ele>
        <time>1970-01-01T03:53:20.000Z</time>
      </trkpt>
      <trkpt lat="45.96344" lon="4.55623">
        <ele>489.5</ele>
        <time>1970-01-01T03:53:21.000Z</time>
      </trkpt>
      <trkpt lat="45.96344" lon="4.55623">
        <ele>489.5</ele>
        <time>1970-01-01T03:53:22.000Z</time>
      </trkpt>
      <trkpt lat="45.96343" lon="4.55625">
        <ele>489.4</ele>
        <time>1970-01-01T03:53:23.000Z</time>
      </trkpt>
      <trkpt lat="45.96343" lon="4.55625">
        <ele>489.4</ele>
        <time>1970-01-01T03:53:24.000Z</time>
      </trkpt>
      <trkpt lat="45.96343" lon="4.55625">
        <ele>489.4</ele>
        <time>1970-01-01T03:53:25.000Z</time>
      </trkpt>
      <trkpt lat="45.96342" lon="4.55628">
        <ele>489.3</ele>
        <time>1970-01-01T03:53:26.000Z</time>
      </trkpt>
      <trkpt lat="45.96342" lon="4.55628">
        <ele>489.3</ele>
        <time>1970-01-01T03:53:27.000Z</time>
      </trkpt>
      <trkpt lat="45.96341" lon="4.55631">
        <ele>489.2</ele>
        <time>1970-01-01T03:53:28.000Z</time>
      </trkpt>
      <trkpt lat="45.96341" lon="4.55631">
        <ele>489.2</ele>
        <time>1970-01-01T03:53:29.000Z</time>
      </trkpt>
      <trkpt lat="45.9634" lon="4.55634">
        <ele>489.1</ele>
        <time>1970-01-01T03:53:30.000Z</time>
      </trkpt>
      <trkpt lat="45.9634" lon="4.55634">
        <ele>489.1</ele>
        <time>1970-01-01T03:53:31.000Z</time>
      </trkpt>
      <trkpt lat="45.96339" lon="4.55637">
        <ele>489.1</ele>
        <time>1970-01-01T03:53:32.000Z</time>
      </trkpt>
      <trkpt lat="45.96339" lon="4.55637">
        <ele>489.1</ele>
        <time>1970-01-01T03:53:33.000Z</time>
      </trkpt>
      <trkpt lat="45.96338" lon="4.55641">
        <ele>489</ele>
        <time>1970-01-01T03:53:34.000Z</time>
      </trkpt>
      <trkpt lat="45.96338" lon="4.55641">
        <ele>489</ele>
        <time>1970-01-01T03:53:35.000Z</time>
      </trkpt>
      <trkpt lat="45.96338" lon="4.55641">
        <ele>489</ele>
        <time>1970-01-01T03:53:36.000Z</time>
      </trkpt>
      <trkpt lat="45.96338" lon="4.55641">
        <ele>489</ele>
        <time>1970-01-01T03:53:37.000Z</time>
      </trkpt>
      <trkpt lat="45.96338" lon="4.55641">
        <ele>489</ele>
        <time>1970-01-01T03:53:38.000Z</time>
      </trkpt>
      <trkpt lat="45.96336" lon="4.55641">
        <ele>488.9</ele>
        <time>1970-01-01T03:53:39.000Z</time>
      </trkpt>
      <trkpt lat="45.96336" lon="4.55641">
        <ele>488.9</ele>
        <time>1970-01-01T03:53:40.000Z</time>
      </trkpt>
      <trkpt lat="45.96336" lon="4.55641">
        <ele>488.9</ele>
        <time>1970-01-01T03:53:41.000Z</time>
      </trkpt>
      <trkpt lat="45.96336" lon="4.55645">
        <ele>488.8</ele>
        <time>1970-01-01T03:53:42.000Z</time>
      </trkpt>
      <trkpt lat="45.96336" lon="4.55645">
        <ele>488.8</ele>
        <time>1970-01-01T03:53:43.000Z</time>
      </trkpt>
      <trkpt lat="45.96336" lon="4.55645">
        <ele>488.8</ele>
        <time>1970-01-01T03:53:44.000Z</time>
      </trkpt>
      <trkpt lat="45.96335" lon="4.55648">
        <ele>488.8</ele>
        <time>1970-01-01T03:53:45.000Z</time>
      </trkpt>
      <trkpt lat="45.96335" lon="4.55648">
        <ele>488.8</ele>
        <time>1970-01-01T03:53:46.000Z</time>
      </trkpt>
      <trkpt lat="45.96334" lon="4.55651">
        <ele>488.7</ele>
        <time>1970-01-01T03:53:47.000Z</time>
      </trkpt>
      <trkpt lat="45.96334" lon="4.55651">
        <ele>488.7</ele>
        <time>1970-01-01T03:53:48.000Z</time>
      </trkpt>
      <trkpt lat="45.96333" lon="4.55654">
        <ele>488.6</ele>
        <time>1970-01-01T03:53:49.000Z</time>
      </trkpt>
      <trkpt lat="45.96333" lon="4.55654">
        <ele>488.6</ele>
        <time>1970-01-01T03:53:50.000Z</time>
      </trkpt>
      <trkpt lat="45.96333" lon="4.55657">
        <ele>488.5</ele>
        <time>1970-01-01T03:53:51.000Z</time>
      </trkpt>
      <trkpt lat="45.96333" lon="4.55657">
        <ele>488.5</ele>
        <time>1970-01-01T03:53:52.000Z</time>
      </trkpt>
      <trkpt lat="45.96333" lon="4.55659">
        <ele>488.5</ele>
        <time>1970-01-01T03:53:53.000Z</time>
      </trkpt>
      <trkpt lat="45.96333" lon="4.55659">
        <ele>488.5</ele>
        <time>1970-01-01T03:53:54.000Z</time>
      </trkpt>
      <trkpt lat="45.96332" lon="4.55662">
        <ele>488.4</ele>
        <time>1970-01-01T03:53:55.000Z</time>
      </trkpt>
      <trkpt lat="45.96332" lon="4.55662">
        <ele>488.4</ele>
        <time>1970-01-01T03:53:56.000Z</time>
      </trkpt>
      <trkpt lat="45.96331" lon="4.55665">
        <ele>488.3</ele>
        <time>1970-01-01T03:53:57.000Z</time>
      </trkpt>
      <trkpt lat="45.96331" lon="4.55665">
        <ele>488.3</ele>
        <time>1970-01-01T03:53:58.000Z</time>
      </trkpt>
      <trkpt lat="45.9633" lon="4.55668">
        <ele>488.3</ele>
        <time>1970-01-01T03:53:59.000Z</time>
      </trkpt>
      <trkpt lat="45.9633" lon="4.55668">
        <ele>488.3</ele>
        <time>1970-01-01T03:54:00.000Z</time>
      </trkpt>
      <trkpt lat="45.96329" lon="4.55671">
        <ele>488.2</ele>
        <time>1970-01-01T03:54:01.000Z</time>
      </trkpt>
      <trkpt lat="45.96329" lon="4.55671">
        <ele>488.2</ele>
        <time>1970-01-01T03:54:02.000Z</time>
      </trkpt>
      <trkpt lat="45.96329" lon="4.55674">
        <ele>488.1</ele>
        <time>1970-01-01T03:54:03.000Z</time>
      </trkpt>
      <trkpt lat="45.96329" lon="4.55674">
        <ele>488.1</ele>
        <time>1970-01-01T03:54:04.000Z</time>
      </trkpt>
      <trkpt lat="45.96329" lon="4.55677">
        <ele>488</ele>
        <time>1970-01-01T03:54:05.000Z</time>
      </trkpt>
      <trkpt lat="45.96329" lon="4.55677">
        <ele>488</ele>
        <time>1970-01-01T03:54:06.000Z</time>
      </trkpt>
      <trkpt lat="45.96328" lon="4.5568">
        <ele>487.9</ele>
        <time>1970-01-01T03:54:07.000Z</time>
      </trkpt>
      <trkpt lat="45.96328" lon="4.5568">
        <ele>487.9</ele>
        <time>1970-01-01T03:54:08.000Z</time>
      </trkpt>
      <trkpt lat="45.96326" lon="4.55684">
        <ele>487.8</ele>
        <time>1970-01-01T03:54:09.000Z</time>
      </trkpt>
      <trkpt lat="45.96326" lon="4.55684">
        <ele>487.8</ele>
        <time>1970-01-01T03:54:10.000Z</time>
      </trkpt>
      <trkpt lat="45.96326" lon="4.55689">
        <ele>487.6</ele>
        <time>1970-01-01T03:54:11.000Z</time>
      </trkpt>
      <trkpt lat="45.96326" lon="4.55689">
        <ele>487.6</ele>
        <time>1970-01-01T03:54:12.000Z</time>
      </trkpt>
      <trkpt lat="45.96325" lon="4.55692">
        <ele>487.5</ele>
        <time>1970-01-01T03:54:13.000Z</time>
      </trkpt>
      <trkpt lat="45.96325" lon="4.55692">
        <ele>487.5</ele>
        <time>1970-01-01T03:54:14.000Z</time>
      </trkpt>
      <trkpt lat="45.96325" lon="4.55696">
        <ele>487.4</ele>
        <time>1970-01-01T03:54:15.000Z</time>
      </trkpt>
      <trkpt lat="45.96325" lon="4.55696">
        <ele>487.4</ele>
        <time>1970-01-01T03:54:16.000Z</time>
      </trkpt>
      <trkpt lat="45.96324" lon="4.55699">
        <ele>487.3</ele>
        <time>1970-01-01T03:54:17.000Z</time>
      </trkpt>
      <trkpt lat="45.96324" lon="4.55699">
        <ele>487.3</ele>
        <time>1970-01-01T03:54:18.000Z</time>
      </trkpt>
      <trkpt lat="45.96323" lon="4.55703">
        <ele>487.1</ele>
        <time>1970-01-01T03:54:19.000Z</time>
      </trkpt>
      <trkpt lat="45.96323" lon="4.55703">
        <ele>487.1</ele>
        <time>1970-01-01T03:54:20.000Z</time>
      </trkpt>
      <trkpt lat="45.96323" lon="4.55706">
        <ele>487</ele>
        <time>1970-01-01T03:54:21.000Z</time>
      </trkpt>
      <trkpt lat="45.96323" lon="4.55706">
        <ele>487</ele>
        <time>1970-01-01T03:54:22.000Z</time>
      </trkpt>
      <trkpt lat="45.96322" lon="4.5571">
        <ele>486.9</ele>
        <time>1970-01-01T03:54:23.000Z</time>
      </trkpt>
      <trkpt lat="45.96322" lon="4.5571">
        <ele>486.9</ele>
        <time>1970-01-01T03:54:24.000Z</time>
      </trkpt>
      <trkpt lat="45.96321" lon="4.55713">
        <ele>486.8</ele>
        <time>1970-01-01T03:54:25.000Z</time>
      </trkpt>
      <trkpt lat="45.96321" lon="4.55713">
        <ele>486.8</ele>
        <time>1970-01-01T03:54:26.000Z</time>
      </trkpt>
      <trkpt lat="45.9632" lon="4.55716">
        <ele>486.7</ele>
        <time>1970-01-01T03:54:27.000Z</time>
      </trkpt>
      <trkpt lat="45.9632" lon="4.55716">
        <ele>486.7</ele>
        <time>1970-01-01T03:54:28.000Z</time>
      </trkpt>
      <trkpt lat="45.9632" lon="4.55719">
        <ele>486.6</ele>
        <time>1970-01-01T03:54:29.000Z</time>
      </trkpt>
      <trkpt lat="45.9632" lon="4.55719">
        <ele>486.6</ele>
        <time>1970-01-01T03:54:30.000Z</time>
      </trkpt>
      <trkpt lat="45.96319" lon="4.55722">
        <ele>486.5</ele>
        <time>1970-01-01T03:54:31.000Z</time>
      </trkpt>
      <trkpt lat="45.96319" lon="4.55722">
        <ele>486.5</ele>
        <time>1970-01-01T03:54:32.000Z</time>
      </trkpt>
      <trkpt lat="45.96319" lon="4.55726">
        <ele>486.4</ele>
        <time>1970-01-01T03:54:33.000Z</time>
      </trkpt>
      <trkpt lat="45.96319" lon="4.55726">
        <ele>486.4</ele>
        <time>1970-01-01T03:54:34.000Z</time>
      </trkpt>
      <trkpt lat="45.96319" lon="4.55729">
        <ele>486.3</ele>
        <time>1970-01-01T03:54:35.000Z</time>
      </trkpt>
      <trkpt lat="45.96319" lon="4.55729">
        <ele>486.3</ele>
        <time>1970-01-01T03:54:36.000Z</time>
      </trkpt>
      <trkpt lat="45.9632" lon="4.55732">
        <ele>486.2</ele>
        <time>1970-01-01T03:54:37.000Z</time>
      </trkpt>
      <trkpt lat="45.9632" lon="4.55732">
        <ele>486.2</ele>
        <time>1970-01-01T03:54:38.000Z</time>
      </trkpt>
      <trkpt lat="45.96319" lon="4.55735">
        <ele>486.1</ele>
        <time>1970-01-01T03:54:39.000Z</time>
      </trkpt>
      <trkpt lat="45.96319" lon="4.55735">
        <ele>486.1</ele>
        <time>1970-01-01T03:54:40.000Z</time>
      </trkpt>
      <trkpt lat="45.9632" lon="4.55738">
        <ele>486</ele>
        <time>1970-01-01T03:54:41.000Z</time>
      </trkpt>
      <trkpt lat="45.9632" lon="4.55738">
        <ele>486</ele>
        <time>1970-01-01T03:54:42.000Z</time>
      </trkpt>
      <trkpt lat="45.9632" lon="4.55738">
        <ele>486</ele>
        <time>1970-01-01T03:54:43.000Z</time>
      </trkpt>
      <trkpt lat="45.9632" lon="4.55738">
        <ele>486</ele>
        <time>1970-01-01T03:54:44.000Z</time>
      </trkpt>
      <trkpt lat="45.9632" lon="4.55738">
        <ele>486</ele>
        <time>1970-01-01T03:54:45.000Z</time>
      </trkpt>
      <trkpt lat="45.9632" lon="4.55738">
        <ele>486</ele>
        <time>1970-01-01T03:54:46.000Z</time>
      </trkpt>
      <trkpt lat="45.9632" lon="4.55738">
        <ele>486</ele>
        <time>1970-01-01T03:54:47.000Z</time>
      </trkpt>
      <trkpt lat="45.9632" lon="4.55738">
        <ele>486</ele>
        <time>1970-01-01T03:54:48.000Z</time>
      </trkpt>
      <trkpt lat="45.9632" lon="4.55738">
        <ele>486</ele>
        <time>1970-01-01T03:54:49.000Z</time>
      </trkpt>
      <trkpt lat="45.9632" lon="4.55742">
        <ele>485.9</ele>
        <time>1970-01-01T03:54:50.000Z</time>
      </trkpt>
      <trkpt lat="45.9632" lon="4.55742">
        <ele>485.9</ele>
        <time>1970-01-01T03:54:51.000Z</time>
      </trkpt>
      <trkpt lat="45.9632" lon="4.55745">
        <ele>485.8</ele>
        <time>1970-01-01T03:54:52.000Z</time>
      </trkpt>
      <trkpt lat="45.9632" lon="4.55745">
        <ele>485.8</ele>
        <time>1970-01-01T03:54:53.000Z</time>
      </trkpt>
      <trkpt lat="45.9632" lon="4.55745">
        <ele>485.8</ele>
        <time>1970-01-01T03:54:54.000Z</time>
      </trkpt>
      <trkpt lat="45.9632" lon="4.55749">
        <ele>485.7</ele>
        <time>1970-01-01T03:54:55.000Z</time>
      </trkpt>
      <trkpt lat="45.9632" lon="4.55749">
        <ele>485.7</ele>
        <time>1970-01-01T03:54:56.000Z</time>
      </trkpt>
      <trkpt lat="45.9632" lon="4.55749">
        <ele>485.7</ele>
        <time>1970-01-01T03:54:57.000Z</time>
      </trkpt>
      <trkpt lat="45.9632" lon="4.55749">
        <ele>485.7</ele>
        <time>1970-01-01T03:54:58.000Z</time>
      </trkpt>
      <trkpt lat="45.9632" lon="4.55752">
        <ele>485.7</ele>
        <time>1970-01-01T03:54:59.000Z</time>
      </trkpt>
      <trkpt lat="45.9632" lon="4.55752">
        <ele>485.7</ele>
        <time>1970-01-01T03:55:00.000Z</time>
      </trkpt>
      <trkpt lat="45.9632" lon="4.55756">
        <ele>485.6</ele>
        <time>1970-01-01T03:55:01.000Z</time>
      </trkpt>
      <trkpt lat="45.9632" lon="4.55757">
        <ele>485.5</ele>
        <time>1970-01-01T03:55:02.000Z</time>
      </trkpt>
      <trkpt lat="45.9632" lon="4.55759">
        <ele>485.5</ele>
        <time>1970-01-01T03:55:03.000Z</time>
      </trkpt>
      <trkpt lat="45.9632" lon="4.55761">
        <ele>485.5</ele>
        <time>1970-01-01T03:55:04.000Z</time>
      </trkpt>
      <trkpt lat="45.9632" lon="4.55762">
        <ele>485.5</ele>
        <time>1970-01-01T03:55:05.000Z</time>
      </trkpt>
      <trkpt lat="45.9632" lon="4.55762">
        <ele>485.5</ele>
        <time>1970-01-01T03:55:06.000Z</time>
      </trkpt>
      <trkpt lat="45.9632" lon="4.55766">
        <ele>485.4</ele>
        <time>1970-01-01T03:55:07.000Z</time>
      </trkpt>
      <trkpt lat="45.9632" lon="4.55766">
        <ele>485.4</ele>
        <time>1970-01-01T03:55:08.000Z</time>
      </trkpt>
      <trkpt lat="45.96321" lon="4.55769">
        <ele>485.3</ele>
        <time>1970-01-01T03:55:09.000Z</time>
      </trkpt>
      <trkpt lat="45.96321" lon="4.55769">
        <ele>485.3</ele>
        <time>1970-01-01T03:55:10.000Z</time>
      </trkpt>
      <trkpt lat="45.96321" lon="4.55772">
        <ele>485.3</ele>
        <time>1970-01-01T03:55:11.000Z</time>
      </trkpt>
      <trkpt lat="45.96321" lon="4.55772">
        <ele>485.3</ele>
        <time>1970-01-01T03:55:12.000Z</time>
      </trkpt>
      <trkpt lat="45.96321" lon="4.55776">
        <ele>485.2</ele>
        <time>1970-01-01T03:55:13.000Z</time>
      </trkpt>
      <trkpt lat="45.96321" lon="4.55776">
        <ele>485.2</ele>
        <time>1970-01-01T03:55:14.000Z</time>
      </trkpt>
      <trkpt lat="45.96321" lon="4.55781">
        <ele>485.2</ele>
        <time>1970-01-01T03:55:15.000Z</time>
      </trkpt>
      <trkpt lat="45.96321" lon="4.55781">
        <ele>485.2</ele>
        <time>1970-01-01T03:55:16.000Z</time>
      </trkpt>
      <trkpt lat="45.9632" lon="4.55785">
        <ele>485.1</ele>
        <time>1970-01-01T03:55:17.000Z</time>
      </trkpt>
      <trkpt lat="45.9632" lon="4.55785">
        <ele>485.1</ele>
        <time>1970-01-01T03:55:18.000Z</time>
      </trkpt>
      <trkpt lat="45.96319" lon="4.55789">
        <ele>485.1</ele>
        <time>1970-01-01T03:55:19.000Z</time>
      </trkpt>
      <trkpt lat="45.96319" lon="4.55789">
        <ele>485.1</ele>
        <time>1970-01-01T03:55:20.000Z</time>
      </trkpt>
      <trkpt lat="45.96318" lon="4.55792">
        <ele>485</ele>
        <time>1970-01-01T03:55:21.000Z</time>
      </trkpt>
      <trkpt lat="45.96318" lon="4.55792">
        <ele>485</ele>
        <time>1970-01-01T03:55:22.000Z</time>
      </trkpt>
      <trkpt lat="45.96317" lon="4.55796">
        <ele>485</ele>
        <time>1970-01-01T03:55:23.000Z</time>
      </trkpt>
      <trkpt lat="45.96317" lon="4.55796">
        <ele>485</ele>
        <time>1970-01-01T03:55:24.000Z</time>
      </trkpt>
      <trkpt lat="45.96315" lon="4.55799">
        <ele>485</ele>
        <time>1970-01-01T03:55:25.000Z</time>
      </trkpt>
      <trkpt lat="45.96315" lon="4.55799">
        <ele>485</ele>
        <time>1970-01-01T03:55:26.000Z</time>
      </trkpt>
      <trkpt lat="45.96313" lon="4.55802">
        <ele>485</ele>
        <time>1970-01-01T03:55:27.000Z</time>
      </trkpt>
      <trkpt lat="45.96313" lon="4.55802">
        <ele>485</ele>
        <time>1970-01-01T03:55:28.000Z</time>
      </trkpt>
      <trkpt lat="45.9631" lon="4.55804">
        <ele>484.9</ele>
        <time>1970-01-01T03:55:29.000Z</time>
      </trkpt>
      <trkpt lat="45.9631" lon="4.55804">
        <ele>484.9</ele>
        <time>1970-01-01T03:55:30.000Z</time>
      </trkpt>
      <trkpt lat="45.96307" lon="4.55806">
        <ele>484.9</ele>
        <time>1970-01-01T03:55:31.000Z</time>
      </trkpt>
      <trkpt lat="45.96307" lon="4.55806">
        <ele>484.9</ele>
        <time>1970-01-01T03:55:32.000Z</time>
      </trkpt>
      <trkpt lat="45.96304" lon="4.55807">
        <ele>484.9</ele>
        <time>1970-01-01T03:55:33.000Z</time>
      </trkpt>
      <trkpt lat="45.96304" lon="4.55807">
        <ele>484.9</ele>
        <time>1970-01-01T03:55:34.000Z</time>
      </trkpt>
      <trkpt lat="45.96301" lon="4.55808">
        <ele>485</ele>
        <time>1970-01-01T03:55:35.000Z</time>
      </trkpt>
      <trkpt lat="45.96301" lon="4.55808">
        <ele>485</ele>
        <time>1970-01-01T03:55:36.000Z</time>
      </trkpt>
      <trkpt lat="45.96298" lon="4.55808">
        <ele>485</ele>
        <time>1970-01-01T03:55:37.000Z</time>
      </trkpt>
      <trkpt lat="45.96298" lon="4.55808">
        <ele>485</ele>
        <time>1970-01-01T03:55:38.000Z</time>
      </trkpt>
      <trkpt lat="45.96295" lon="4.55808">
        <ele>485</ele>
        <time>1970-01-01T03:55:39.000Z</time>
      </trkpt>
      <trkpt lat="45.96295" lon="4.55808">
        <ele>485</ele>
        <time>1970-01-01T03:55:40.000Z</time>
      </trkpt>
      <trkpt lat="45.96292" lon="4.55808">
        <ele>485</ele>
        <time>1970-01-01T03:55:41.000Z</time>
      </trkpt>
      <trkpt lat="45.96292" lon="4.55808">
        <ele>485</ele>
        <time>1970-01-01T03:55:42.000Z</time>
      </trkpt>
      <trkpt lat="45.96289" lon="4.55809">
        <ele>485.1</ele>
        <time>1970-01-01T03:55:43.000Z</time>
      </trkpt>
      <trkpt lat="45.96289" lon="4.55809">
        <ele>485.1</ele>
        <time>1970-01-01T03:55:44.000Z</time>
      </trkpt>
      <trkpt lat="45.96286" lon="4.55808">
        <ele>485.2</ele>
        <time>1970-01-01T03:55:45.000Z</time>
      </trkpt>
      <trkpt lat="45.96286" lon="4.55808">
        <ele>485.2</ele>
        <time>1970-01-01T03:55:46.000Z</time>
      </trkpt>
      <trkpt lat="45.96283" lon="4.55808">
        <ele>485.2</ele>
        <time>1970-01-01T03:55:47.000Z</time>
      </trkpt>
      <trkpt lat="45.96283" lon="4.55808">
        <ele>485.2</ele>
        <time>1970-01-01T03:55:48.000Z</time>
      </trkpt>
      <trkpt lat="45.96281" lon="4.55808">
        <ele>485.3</ele>
        <time>1970-01-01T03:55:49.000Z</time>
      </trkpt>
      <trkpt lat="45.96281" lon="4.55808">
        <ele>485.3</ele>
        <time>1970-01-01T03:55:50.000Z</time>
      </trkpt>
      <trkpt lat="45.96278" lon="4.55808">
        <ele>485.4</ele>
        <time>1970-01-01T03:55:51.000Z</time>
      </trkpt>
      <trkpt lat="45.96278" lon="4.55808">
        <ele>485.4</ele>
        <time>1970-01-01T03:55:52.000Z</time>
      </trkpt>
      <trkpt lat="45.96276" lon="4.55809">
        <ele>485.5</ele>
        <time>1970-01-01T03:55:53.000Z</time>
      </trkpt>
      <trkpt lat="45.96276" lon="4.55809">
        <ele>485.5</ele>
        <time>1970-01-01T03:55:54.000Z</time>
      </trkpt>
      <trkpt lat="45.96273" lon="4.55809">
        <ele>485.7</ele>
        <time>1970-01-01T03:55:55.000Z</time>
      </trkpt>
      <trkpt lat="45.96273" lon="4.55809">
        <ele>485.7</ele>
        <time>1970-01-01T03:55:56.000Z</time>
      </trkpt>
      <trkpt lat="45.96271" lon="4.55808">
        <ele>485.8</ele>
        <time>1970-01-01T03:55:57.000Z</time>
      </trkpt>
      <trkpt lat="45.96271" lon="4.55808">
        <ele>485.8</ele>
        <time>1970-01-01T03:55:58.000Z</time>
      </trkpt>
      <trkpt lat="45.96268" lon="4.55809">
        <ele>486</ele>
        <time>1970-01-01T03:55:59.000Z</time>
      </trkpt>
      <trkpt lat="45.96268" lon="4.55809">
        <ele>486</ele>
        <time>1970-01-01T03:56:00.000Z</time>
      </trkpt>
      <trkpt lat="45.96265" lon="4.5581">
        <ele>486.2</ele>
        <time>1970-01-01T03:56:01.000Z</time>
      </trkpt>
      <trkpt lat="45.96265" lon="4.5581">
        <ele>486.2</ele>
        <time>1970-01-01T03:56:02.000Z</time>
      </trkpt>
      <trkpt lat="45.96262" lon="4.55811">
        <ele>486.4</ele>
        <time>1970-01-01T03:56:03.000Z</time>
      </trkpt>
      <trkpt lat="45.96262" lon="4.55811">
        <ele>486.4</ele>
        <time>1970-01-01T03:56:04.000Z</time>
      </trkpt>
      <trkpt lat="45.96259" lon="4.55812">
        <ele>486.6</ele>
        <time>1970-01-01T03:56:05.000Z</time>
      </trkpt>
      <trkpt lat="45.96259" lon="4.55812">
        <ele>486.6</ele>
        <time>1970-01-01T03:56:06.000Z</time>
      </trkpt>
      <trkpt lat="45.96256" lon="4.55813">
        <ele>486.9</ele>
        <time>1970-01-01T03:56:07.000Z</time>
      </trkpt>
      <trkpt lat="45.96256" lon="4.55813">
        <ele>486.9</ele>
        <time>1970-01-01T03:56:08.000Z</time>
      </trkpt>
      <trkpt lat="45.96254" lon="4.55814">
        <ele>487.1</ele>
        <time>1970-01-01T03:56:09.000Z</time>
      </trkpt>
      <trkpt lat="45.96254" lon="4.55814">
        <ele>487.1</ele>
        <time>1970-01-01T03:56:10.000Z</time>
      </trkpt>
      <trkpt lat="45.96251" lon="4.55815">
        <ele>487.3</ele>
        <time>1970-01-01T03:56:11.000Z</time>
      </trkpt>
      <trkpt lat="45.96251" lon="4.55815">
        <ele>487.3</ele>
        <time>1970-01-01T03:56:12.000Z</time>
      </trkpt>
      <trkpt lat="45.96248" lon="4.55816">
        <ele>487.6</ele>
        <time>1970-01-01T03:56:13.000Z</time>
      </trkpt>
      <trkpt lat="45.96248" lon="4.55816">
        <ele>487.6</ele>
        <time>1970-01-01T03:56:14.000Z</time>
      </trkpt>
      <trkpt lat="45.96246" lon="4.55816">
        <ele>487.8</ele>
        <time>1970-01-01T03:56:15.000Z</time>
      </trkpt>
      <trkpt lat="45.96246" lon="4.55816">
        <ele>487.8</ele>
        <time>1970-01-01T03:56:16.000Z</time>
      </trkpt>
      <trkpt lat="45.96243" lon="4.55818">
        <ele>488.1</ele>
        <time>1970-01-01T03:56:17.000Z</time>
      </trkpt>
      <trkpt lat="45.96243" lon="4.55818">
        <ele>488.1</ele>
        <time>1970-01-01T03:56:18.000Z</time>
      </trkpt>
      <trkpt lat="45.9624" lon="4.55819">
        <ele>488.4</ele>
        <time>1970-01-01T03:56:19.000Z</time>
      </trkpt>
      <trkpt lat="45.9624" lon="4.55819">
        <ele>488.4</ele>
        <time>1970-01-01T03:56:20.000Z</time>
      </trkpt>
      <trkpt lat="45.96238" lon="4.5582">
        <ele>488.6</ele>
        <time>1970-01-01T03:56:21.000Z</time>
      </trkpt>
      <trkpt lat="45.96238" lon="4.5582">
        <ele>488.6</ele>
        <time>1970-01-01T03:56:22.000Z</time>
      </trkpt>
      <trkpt lat="45.96236" lon="4.5582">
        <ele>488.9</ele>
        <time>1970-01-01T03:56:23.000Z</time>
      </trkpt>
      <trkpt lat="45.96236" lon="4.5582">
        <ele>488.9</ele>
        <time>1970-01-01T03:56:24.000Z</time>
      </trkpt>
      <trkpt lat="45.96233" lon="4.55821">
        <ele>489.1</ele>
        <time>1970-01-01T03:56:25.000Z</time>
      </trkpt>
      <trkpt lat="45.96233" lon="4.55821">
        <ele>489.1</ele>
        <time>1970-01-01T03:56:26.000Z</time>
      </trkpt>
      <trkpt lat="45.96231" lon="4.55822">
        <ele>489.4</ele>
        <time>1970-01-01T03:56:27.000Z</time>
      </trkpt>
      <trkpt lat="45.96231" lon="4.55822">
        <ele>489.4</ele>
        <time>1970-01-01T03:56:28.000Z</time>
      </trkpt>
      <trkpt lat="45.96228" lon="4.55824">
        <ele>489.6</ele>
        <time>1970-01-01T03:56:29.000Z</time>
      </trkpt>
      <trkpt lat="45.96228" lon="4.55824">
        <ele>489.6</ele>
        <time>1970-01-01T03:56:30.000Z</time>
      </trkpt>
      <trkpt lat="45.96226" lon="4.55825">
        <ele>489.9</ele>
        <time>1970-01-01T03:56:31.000Z</time>
      </trkpt>
      <trkpt lat="45.96226" lon="4.55825">
        <ele>489.9</ele>
        <time>1970-01-01T03:56:32.000Z</time>
      </trkpt>
      <trkpt lat="45.96223" lon="4.55826">
        <ele>490.1</ele>
        <time>1970-01-01T03:56:33.000Z</time>
      </trkpt>
      <trkpt lat="45.96223" lon="4.55826">
        <ele>490.1</ele>
        <time>1970-01-01T03:56:34.000Z</time>
      </trkpt>
      <trkpt lat="45.96221" lon="4.55828">
        <ele>490.4</ele>
        <time>1970-01-01T03:56:35.000Z</time>
      </trkpt>
      <trkpt lat="45.96221" lon="4.55828">
        <ele>490.4</ele>
        <time>1970-01-01T03:56:36.000Z</time>
      </trkpt>
      <trkpt lat="45.96218" lon="4.55829">
        <ele>490.7</ele>
        <time>1970-01-01T03:56:37.000Z</time>
      </trkpt>
      <trkpt lat="45.96218" lon="4.55829">
        <ele>490.7</ele>
        <time>1970-01-01T03:56:38.000Z</time>
      </trkpt>
      <trkpt lat="45.96216" lon="4.55831">
        <ele>491</ele>
        <time>1970-01-01T03:56:39.000Z</time>
      </trkpt>
      <trkpt lat="45.96216" lon="4.55831">
        <ele>491</ele>
        <time>1970-01-01T03:56:40.000Z</time>
      </trkpt>
      <trkpt lat="45.96213" lon="4.55833">
        <ele>491.3</ele>
        <time>1970-01-01T03:56:41.000Z</time>
      </trkpt>
      <trkpt lat="45.96213" lon="4.55833">
        <ele>491.3</ele>
        <time>1970-01-01T03:56:42.000Z</time>
      </trkpt>
      <trkpt lat="45.96211" lon="4.55835">
        <ele>491.5</ele>
        <time>1970-01-01T03:56:43.000Z</time>
      </trkpt>
      <trkpt lat="45.96211" lon="4.55835">
        <ele>491.5</ele>
        <time>1970-01-01T03:56:44.000Z</time>
      </trkpt>
      <trkpt lat="45.96209" lon="4.55837">
        <ele>491.7</ele>
        <time>1970-01-01T03:56:45.000Z</time>
      </trkpt>
      <trkpt lat="45.96209" lon="4.55837">
        <ele>491.7</ele>
        <time>1970-01-01T03:56:46.000Z</time>
      </trkpt>
      <trkpt lat="45.96208" lon="4.55839">
        <ele>492</ele>
        <time>1970-01-01T03:56:47.000Z</time>
      </trkpt>
      <trkpt lat="45.96208" lon="4.55839">
        <ele>492</ele>
        <time>1970-01-01T03:56:48.000Z</time>
      </trkpt>
      <trkpt lat="45.96205" lon="4.55841">
        <ele>492.2</ele>
        <time>1970-01-01T03:56:49.000Z</time>
      </trkpt>
      <trkpt lat="45.96205" lon="4.55841">
        <ele>492.2</ele>
        <time>1970-01-01T03:56:50.000Z</time>
      </trkpt>
      <trkpt lat="45.96203" lon="4.55843">
        <ele>492.5</ele>
        <time>1970-01-01T03:56:51.000Z</time>
      </trkpt>
      <trkpt lat="45.96203" lon="4.55843">
        <ele>492.5</ele>
        <time>1970-01-01T03:56:52.000Z</time>
      </trkpt>
      <trkpt lat="45.96201" lon="4.55844">
        <ele>492.7</ele>
        <time>1970-01-01T03:56:53.000Z</time>
      </trkpt>
      <trkpt lat="45.96201" lon="4.55844">
        <ele>492.7</ele>
        <time>1970-01-01T03:56:54.000Z</time>
      </trkpt>
      <trkpt lat="45.96198" lon="4.55846">
        <ele>492.9</ele>
        <time>1970-01-01T03:56:55.000Z</time>
      </trkpt>
      <trkpt lat="45.96198" lon="4.55846">
        <ele>492.9</ele>
        <time>1970-01-01T03:56:56.000Z</time>
      </trkpt>
      <trkpt lat="45.96196" lon="4.55848">
        <ele>493.1</ele>
        <time>1970-01-01T03:56:57.000Z</time>
      </trkpt>
      <trkpt lat="45.96196" lon="4.55848">
        <ele>493.1</ele>
        <time>1970-01-01T03:56:58.000Z</time>
      </trkpt>
      <trkpt lat="45.96194" lon="4.55849">
        <ele>493.3</ele>
        <time>1970-01-01T03:56:59.000Z</time>
      </trkpt>
      <trkpt lat="45.96194" lon="4.55849">
        <ele>493.3</ele>
        <time>1970-01-01T03:57:00.000Z</time>
      </trkpt>
      <trkpt lat="45.96192" lon="4.55851">
        <ele>493.5</ele>
        <time>1970-01-01T03:57:01.000Z</time>
      </trkpt>
      <trkpt lat="45.96192" lon="4.55851">
        <ele>493.5</ele>
        <time>1970-01-01T03:57:02.000Z</time>
      </trkpt>
      <trkpt lat="45.9619" lon="4.55852">
        <ele>493.7</ele>
        <time>1970-01-01T03:57:03.000Z</time>
      </trkpt>
      <trkpt lat="45.9619" lon="4.55852">
        <ele>493.7</ele>
        <time>1970-01-01T03:57:04.000Z</time>
      </trkpt>
      <trkpt lat="45.96187" lon="4.55854">
        <ele>493.9</ele>
        <time>1970-01-01T03:57:05.000Z</time>
      </trkpt>
      <trkpt lat="45.96187" lon="4.55854">
        <ele>493.9</ele>
        <time>1970-01-01T03:57:06.000Z</time>
      </trkpt>
      <trkpt lat="45.96185" lon="4.55857">
        <ele>494.1</ele>
        <time>1970-01-01T03:57:07.000Z</time>
      </trkpt>
      <trkpt lat="45.96185" lon="4.55857">
        <ele>494.1</ele>
        <time>1970-01-01T03:57:08.000Z</time>
      </trkpt>
      <trkpt lat="45.96183" lon="4.55859">
        <ele>494.3</ele>
        <time>1970-01-01T03:57:09.000Z</time>
      </trkpt>
      <trkpt lat="45.96183" lon="4.55859">
        <ele>494.3</ele>
        <time>1970-01-01T03:57:10.000Z</time>
      </trkpt>
      <trkpt lat="45.9618" lon="4.55861">
        <ele>494.5</ele>
        <time>1970-01-01T03:57:11.000Z</time>
      </trkpt>
      <trkpt lat="45.9618" lon="4.55861">
        <ele>494.5</ele>
        <time>1970-01-01T03:57:12.000Z</time>
      </trkpt>
      <trkpt lat="45.96178" lon="4.55864">
        <ele>494.7</ele>
        <time>1970-01-01T03:57:13.000Z</time>
      </trkpt>
      <trkpt lat="45.96178" lon="4.55864">
        <ele>494.7</ele>
        <time>1970-01-01T03:57:14.000Z</time>
      </trkpt>
      <trkpt lat="45.96176" lon="4.55866">
        <ele>494.9</ele>
        <time>1970-01-01T03:57:15.000Z</time>
      </trkpt>
      <trkpt lat="45.96176" lon="4.55866">
        <ele>494.9</ele>
        <time>1970-01-01T03:57:16.000Z</time>
      </trkpt>
      <trkpt lat="45.96174" lon="4.55869">
        <ele>495</ele>
        <time>1970-01-01T03:57:17.000Z</time>
      </trkpt>
      <trkpt lat="45.96174" lon="4.55869">
        <ele>495</ele>
        <time>1970-01-01T03:57:18.000Z</time>
      </trkpt>
      <trkpt lat="45.96172" lon="4.55872">
        <ele>495.2</ele>
        <time>1970-01-01T03:57:19.000Z</time>
      </trkpt>
      <trkpt lat="45.96172" lon="4.55872">
        <ele>495.2</ele>
        <time>1970-01-01T03:57:20.000Z</time>
      </trkpt>
      <trkpt lat="45.9617" lon="4.55874">
        <ele>495.3</ele>
        <time>1970-01-01T03:57:21.000Z</time>
      </trkpt>
      <trkpt lat="45.9617" lon="4.55874">
        <ele>495.3</ele>
        <time>1970-01-01T03:57:22.000Z</time>
      </trkpt>
      <trkpt lat="45.96168" lon="4.55877">
        <ele>495.4</ele>
        <time>1970-01-01T03:57:23.000Z</time>
      </trkpt>
      <trkpt lat="45.96168" lon="4.55877">
        <ele>495.4</ele>
        <time>1970-01-01T03:57:24.000Z</time>
      </trkpt>
      <trkpt lat="45.96166" lon="4.5588">
        <ele>495.6</ele>
        <time>1970-01-01T03:57:25.000Z</time>
      </trkpt>
      <trkpt lat="45.96166" lon="4.5588">
        <ele>495.6</ele>
        <time>1970-01-01T03:57:26.000Z</time>
      </trkpt>
      <trkpt lat="45.96164" lon="4.55883">
        <ele>495.7</ele>
        <time>1970-01-01T03:57:27.000Z</time>
      </trkpt>
      <trkpt lat="45.96164" lon="4.55883">
        <ele>495.7</ele>
        <time>1970-01-01T03:57:28.000Z</time>
      </trkpt>
      <trkpt lat="45.96163" lon="4.55886">
        <ele>495.7</ele>
        <time>1970-01-01T03:57:29.000Z</time>
      </trkpt>
      <trkpt lat="45.96163" lon="4.55886">
        <ele>495.7</ele>
        <time>1970-01-01T03:57:30.000Z</time>
      </trkpt>
      <trkpt lat="45.96161" lon="4.55889">
        <ele>495.8</ele>
        <time>1970-01-01T03:57:31.000Z</time>
      </trkpt>
      <trkpt lat="45.96161" lon="4.55889">
        <ele>495.8</ele>
        <time>1970-01-01T03:57:32.000Z</time>
      </trkpt>
      <trkpt lat="45.96159" lon="4.55892">
        <ele>495.9</ele>
        <time>1970-01-01T03:57:33.000Z</time>
      </trkpt>
      <trkpt lat="45.96159" lon="4.55892">
        <ele>495.9</ele>
        <time>1970-01-01T03:57:34.000Z</time>
      </trkpt>
      <trkpt lat="45.96157" lon="4.55895">
        <ele>496</ele>
        <time>1970-01-01T03:57:35.000Z</time>
      </trkpt>
      <trkpt lat="45.96157" lon="4.55895">
        <ele>496</ele>
        <time>1970-01-01T03:57:36.000Z</time>
      </trkpt>
      <trkpt lat="45.96155" lon="4.55898">
        <ele>496.1</ele>
        <time>1970-01-01T03:57:37.000Z</time>
      </trkpt>
      <trkpt lat="45.96155" lon="4.55898">
        <ele>496.1</ele>
        <time>1970-01-01T03:57:38.000Z</time>
      </trkpt>
      <trkpt lat="45.96153" lon="4.559">
        <ele>496.2</ele>
        <time>1970-01-01T03:57:39.000Z</time>
      </trkpt>
      <trkpt lat="45.96153" lon="4.559">
        <ele>496.2</ele>
        <time>1970-01-01T03:57:40.000Z</time>
      </trkpt>
      <trkpt lat="45.96151" lon="4.55903">
        <ele>496.2</ele>
        <time>1970-01-01T03:57:41.000Z</time>
      </trkpt>
      <trkpt lat="45.96151" lon="4.55903">
        <ele>496.2</ele>
        <time>1970-01-01T03:57:42.000Z</time>
      </trkpt>
      <trkpt lat="45.96149" lon="4.55907">
        <ele>496.3</ele>
        <time>1970-01-01T03:57:43.000Z</time>
      </trkpt>
      <trkpt lat="45.96149" lon="4.55907">
        <ele>496.3</ele>
        <time>1970-01-01T03:57:44.000Z</time>
      </trkpt>
      <trkpt lat="45.96147" lon="4.5591">
        <ele>496.4</ele>
        <time>1970-01-01T03:57:45.000Z</time>
      </trkpt>
      <trkpt lat="45.96147" lon="4.5591">
        <ele>496.4</ele>
        <time>1970-01-01T03:57:46.000Z</time>
      </trkpt>
      <trkpt lat="45.96146" lon="4.55913">
        <ele>496.4</ele>
        <time>1970-01-01T03:57:47.000Z</time>
      </trkpt>
      <trkpt lat="45.96146" lon="4.55913">
        <ele>496.4</ele>
        <time>1970-01-01T03:57:48.000Z</time>
      </trkpt>
      <trkpt lat="45.96144" lon="4.55916">
        <ele>496.5</ele>
        <time>1970-01-01T03:57:49.000Z</time>
      </trkpt>
      <trkpt lat="45.96144" lon="4.55916">
        <ele>496.5</ele>
        <time>1970-01-01T03:57:50.000Z</time>
      </trkpt>
      <trkpt lat="45.96142" lon="4.55919">
        <ele>496.6</ele>
        <time>1970-01-01T03:57:51.000Z</time>
      </trkpt>
      <trkpt lat="45.96142" lon="4.55919">
        <ele>496.6</ele>
        <time>1970-01-01T03:57:52.000Z</time>
      </trkpt>
      <trkpt lat="45.9614" lon="4.55923">
        <ele>496.6</ele>
        <time>1970-01-01T03:57:53.000Z</time>
      </trkpt>
      <trkpt lat="45.9614" lon="4.55923">
        <ele>496.6</ele>
        <time>1970-01-01T03:57:54.000Z</time>
      </trkpt>
      <trkpt lat="45.96138" lon="4.55926">
        <ele>496.7</ele>
        <time>1970-01-01T03:57:55.000Z</time>
      </trkpt>
      <trkpt lat="45.96138" lon="4.55926">
        <ele>496.7</ele>
        <time>1970-01-01T03:57:56.000Z</time>
      </trkpt>
      <trkpt lat="45.96136" lon="4.55929">
        <ele>496.7</ele>
        <time>1970-01-01T03:57:57.000Z</time>
      </trkpt>
      <trkpt lat="45.96136" lon="4.55929">
        <ele>496.7</ele>
        <time>1970-01-01T03:57:58.000Z</time>
      </trkpt>
      <trkpt lat="45.96134" lon="4.55932">
        <ele>496.8</ele>
        <time>1970-01-01T03:57:59.000Z</time>
      </trkpt>
      <trkpt lat="45.96134" lon="4.55932">
        <ele>496.8</ele>
        <time>1970-01-01T03:58:00.000Z</time>
      </trkpt>
      <trkpt lat="45.96132" lon="4.55936">
        <ele>496.8</ele>
        <time>1970-01-01T03:58:01.000Z</time>
      </trkpt>
      <trkpt lat="45.96132" lon="4.55936">
        <ele>496.8</ele>
        <time>1970-01-01T03:58:02.000Z</time>
      </trkpt>
      <trkpt lat="45.9613" lon="4.55939">
        <ele>496.9</ele>
        <time>1970-01-01T03:58:03.000Z</time>
      </trkpt>
      <trkpt lat="45.9613" lon="4.55939">
        <ele>496.9</ele>
        <time>1970-01-01T03:58:04.000Z</time>
      </trkpt>
      <trkpt lat="45.96128" lon="4.55942">
        <ele>497</ele>
        <time>1970-01-01T03:58:05.000Z</time>
      </trkpt>
      <trkpt lat="45.96128" lon="4.55942">
        <ele>497</ele>
        <time>1970-01-01T03:58:06.000Z</time>
      </trkpt>
      <trkpt lat="45.96127" lon="4.55945">
        <ele>497</ele>
        <time>1970-01-01T03:58:07.000Z</time>
      </trkpt>
      <trkpt lat="45.96127" lon="4.55945">
        <ele>497</ele>
        <time>1970-01-01T03:58:08.000Z</time>
      </trkpt>
      <trkpt lat="45.96125" lon="4.55948">
        <ele>497.1</ele>
        <time>1970-01-01T03:58:09.000Z</time>
      </trkpt>
      <trkpt lat="45.96125" lon="4.55948">
        <ele>497.1</ele>
        <time>1970-01-01T03:58:10.000Z</time>
      </trkpt>
      <trkpt lat="45.96124" lon="4.55951">
        <ele>497.1</ele>
        <time>1970-01-01T03:58:11.000Z</time>
      </trkpt>
      <trkpt lat="45.96124" lon="4.55951">
        <ele>497.1</ele>
        <time>1970-01-01T03:58:12.000Z</time>
      </trkpt>
      <trkpt lat="45.96122" lon="4.55954">
        <ele>497.2</ele>
        <time>1970-01-01T03:58:13.000Z</time>
      </trkpt>
      <trkpt lat="45.96122" lon="4.55954">
        <ele>497.2</ele>
        <time>1970-01-01T03:58:14.000Z</time>
      </trkpt>
      <trkpt lat="45.96121" lon="4.55957">
        <ele>497.2</ele>
        <time>1970-01-01T03:58:15.000Z</time>
      </trkpt>
      <trkpt lat="45.9612" lon="4.55959">
        <ele>497.2</ele>
        <time>1970-01-01T03:58:16.000Z</time>
      </trkpt>
      <trkpt lat="45.9612" lon="4.55959">
        <ele>497.2</ele>
        <time>1970-01-01T03:58:17.000Z</time>
      </trkpt>
      <trkpt lat="45.96118" lon="4.55963">
        <ele>497.3</ele>
        <time>1970-01-01T03:58:18.000Z</time>
      </trkpt>
      <trkpt lat="45.96118" lon="4.55963">
        <ele>497.3</ele>
        <time>1970-01-01T03:58:19.000Z</time>
      </trkpt>
      <trkpt lat="45.96117" lon="4.55967">
        <ele>497.3</ele>
        <time>1970-01-01T03:58:20.000Z</time>
      </trkpt>
      <trkpt lat="45.96117" lon="4.55967">
        <ele>497.3</ele>
        <time>1970-01-01T03:58:21.000Z</time>
      </trkpt>
      <trkpt lat="45.96117" lon="4.55971">
        <ele>497.4</ele>
        <time>1970-01-01T03:58:22.000Z</time>
      </trkpt>
      <trkpt lat="45.96117" lon="4.55971">
        <ele>498.6</ele>
        <time>1970-01-01T03:58:23.000Z</time>
      </trkpt>
      <trkpt lat="45.96117" lon="4.55974">
        <ele>498.9</ele>
        <time>1970-01-01T03:58:24.000Z</time>
      </trkpt>
      <trkpt lat="45.96117" lon="4.55974">
        <ele>498.9</ele>
        <time>1970-01-01T03:58:25.000Z</time>
      </trkpt>
      <trkpt lat="45.96117" lon="4.55974">
        <ele>498.9</ele>
        <time>1970-01-01T03:58:26.000Z</time>
      </trkpt>
      <trkpt lat="45.96117" lon="4.55974">
        <ele>498.9</ele>
        <time>1970-01-01T03:58:27.000Z</time>
      </trkpt>
      <trkpt lat="45.96117" lon="4.55974">
        <ele>498.9</ele>
        <time>1970-01-01T03:58:28.000Z</time>
      </trkpt>
      <trkpt lat="45.96117" lon="4.55974">
        <ele>498.9</ele>
        <time>1970-01-01T03:58:29.000Z</time>
      </trkpt>
      <trkpt lat="45.96117" lon="4.55974">
        <ele>498.9</ele>
        <time>1970-01-01T03:58:30.000Z</time>
      </trkpt>
      <trkpt lat="45.96117" lon="4.55974">
        <ele>498.9</ele>
        <time>1970-01-01T03:58:31.000Z</time>
      </trkpt>
      <trkpt lat="45.96117" lon="4.55974">
        <ele>498.9</ele>
        <time>1970-01-01T03:58:32.000Z</time>
      </trkpt>
      <trkpt lat="45.96117" lon="4.55974">
        <ele>498.9</ele>
        <time>1970-01-01T03:58:33.000Z</time>
      </trkpt>
      <trkpt lat="45.96117" lon="4.55974">
        <ele>498.9</ele>
        <time>1970-01-01T03:58:34.000Z</time>
      </trkpt>
      <trkpt lat="45.96117" lon="4.55974">
        <ele>498.9</ele>
        <time>1970-01-01T03:58:35.000Z</time>
      </trkpt>
      <trkpt lat="45.96117" lon="4.55974">
        <ele>498.9</ele>
        <time>1970-01-01T03:58:36.000Z</time>
      </trkpt>
      <trkpt lat="45.96117" lon="4.55974">
        <ele>498.9</ele>
        <time>1970-01-01T03:58:37.000Z</time>
      </trkpt>
      <trkpt lat="45.96117" lon="4.55974">
        <ele>498.9</ele>
        <time>1970-01-01T03:58:38.000Z</time>
      </trkpt>
      <trkpt lat="45.96119" lon="4.55975">
        <ele>499.1</ele>
        <time>1970-01-01T03:58:39.000Z</time>
      </trkpt>
      <trkpt lat="45.96119" lon="4.55975">
        <ele>499.1</ele>
        <time>1970-01-01T03:58:40.000Z</time>
      </trkpt>
      <trkpt lat="45.96121" lon="4.55977">
        <ele>499.4</ele>
        <time>1970-01-01T03:58:41.000Z</time>
      </trkpt>
      <trkpt lat="45.96121" lon="4.55977">
        <ele>499.4</ele>
        <time>1970-01-01T03:58:42.000Z</time>
      </trkpt>
      <trkpt lat="45.96123" lon="4.55978">
        <ele>499.6</ele>
        <time>1970-01-01T03:58:43.000Z</time>
      </trkpt>
      <trkpt lat="45.96123" lon="4.55978">
        <ele>499.6</ele>
        <time>1970-01-01T03:58:44.000Z</time>
      </trkpt>
      <trkpt lat="45.96125" lon="4.55978">
        <ele>499.9</ele>
        <time>1970-01-01T03:58:45.000Z</time>
      </trkpt>
      <trkpt lat="45.96125" lon="4.55978">
        <ele>499.9</ele>
        <time>1970-01-01T03:58:46.000Z</time>
      </trkpt>
      <trkpt lat="45.96127" lon="4.55978">
        <ele>500.1</ele>
        <time>1970-01-01T03:58:47.000Z</time>
      </trkpt>
      <trkpt lat="45.96127" lon="4.55978">
        <ele>500.1</ele>
        <time>1970-01-01T03:58:48.000Z</time>
      </trkpt>
      <trkpt lat="45.96129" lon="4.55979">
        <ele>500.4</ele>
        <time>1970-01-01T03:58:49.000Z</time>
      </trkpt>
      <trkpt lat="45.96129" lon="4.55979">
        <ele>500.4</ele>
        <time>1970-01-01T03:58:50.000Z</time>
      </trkpt>
      <trkpt lat="45.96132" lon="4.5598">
        <ele>500.7</ele>
        <time>1970-01-01T03:58:51.000Z</time>
      </trkpt>
      <trkpt lat="45.96132" lon="4.5598">
        <ele>500.7</ele>
        <time>1970-01-01T03:58:52.000Z</time>
      </trkpt>
      <trkpt lat="45.96135" lon="4.5598">
        <ele>501.1</ele>
        <time>1970-01-01T03:58:53.000Z</time>
      </trkpt>
      <trkpt lat="45.96135" lon="4.5598">
        <ele>501.1</ele>
        <time>1970-01-01T03:58:54.000Z</time>
      </trkpt>
      <trkpt lat="45.96137" lon="4.5598">
        <ele>501.4</ele>
        <time>1970-01-01T03:58:55.000Z</time>
      </trkpt>
      <trkpt lat="45.96137" lon="4.5598">
        <ele>501.4</ele>
        <time>1970-01-01T03:58:56.000Z</time>
      </trkpt>
      <trkpt lat="45.9614" lon="4.55979">
        <ele>501.8</ele>
        <time>1970-01-01T03:58:57.000Z</time>
      </trkpt>
      <trkpt lat="45.9614" lon="4.55979">
        <ele>501.8</ele>
        <time>1970-01-01T03:58:58.000Z</time>
      </trkpt>
      <trkpt lat="45.96143" lon="4.55979">
        <ele>502.2</ele>
        <time>1970-01-01T03:58:59.000Z</time>
      </trkpt>
      <trkpt lat="45.96143" lon="4.55979">
        <ele>502.2</ele>
        <time>1970-01-01T03:59:00.000Z</time>
      </trkpt>
      <trkpt lat="45.96146" lon="4.55978">
        <ele>502.5</ele>
        <time>1970-01-01T03:59:01.000Z</time>
      </trkpt>
      <trkpt lat="45.96146" lon="4.55978">
        <ele>502.5</ele>
        <time>1970-01-01T03:59:02.000Z</time>
      </trkpt>
      <trkpt lat="45.96148" lon="4.55978">
        <ele>502.8</ele>
        <time>1970-01-01T03:59:03.000Z</time>
      </trkpt>
      <trkpt lat="45.96148" lon="4.55978">
        <ele>502.8</ele>
        <time>1970-01-01T03:59:04.000Z</time>
      </trkpt>
      <trkpt lat="45.9615" lon="4.55976">
        <ele>503.1</ele>
        <time>1970-01-01T03:59:05.000Z</time>
      </trkpt>
      <trkpt lat="45.9615" lon="4.55976">
        <ele>503.1</ele>
        <time>1970-01-01T03:59:06.000Z</time>
      </trkpt>
      <trkpt lat="45.96153" lon="4.55975">
        <ele>503.5</ele>
        <time>1970-01-01T03:59:07.000Z</time>
      </trkpt>
      <trkpt lat="45.96153" lon="4.55975">
        <ele>503.5</ele>
        <time>1970-01-01T03:59:08.000Z</time>
      </trkpt>
      <trkpt lat="45.96156" lon="4.55975">
        <ele>503.8</ele>
        <time>1970-01-01T03:59:09.000Z</time>
      </trkpt>
      <trkpt lat="45.96156" lon="4.55975">
        <ele>503.8</ele>
        <time>1970-01-01T03:59:10.000Z</time>
      </trkpt>
      <trkpt lat="45.96159" lon="4.55974">
        <ele>504.2</ele>
        <time>1970-01-01T03:59:11.000Z</time>
      </trkpt>
      <trkpt lat="45.96159" lon="4.55974">
        <ele>504.2</ele>
        <time>1970-01-01T03:59:12.000Z</time>
      </trkpt>
      <trkpt lat="45.96162" lon="4.55975">
        <ele>504.6</ele>
        <time>1970-01-01T03:59:13.000Z</time>
      </trkpt>
      <trkpt lat="45.96162" lon="4.55975">
        <ele>504.6</ele>
        <time>1970-01-01T03:59:14.000Z</time>
      </trkpt>
      <trkpt lat="45.96162" lon="4.55975">
        <ele>504.6</ele>
        <time>1970-01-01T03:59:15.000Z</time>
      </trkpt>
      <trkpt lat="45.96162" lon="4.55975">
        <ele>504.6</ele>
        <time>1970-01-01T03:59:16.000Z</time>
      </trkpt>
      <trkpt lat="45.96164" lon="4.55976">
        <ele>504.8</ele>
        <time>1970-01-01T03:59:17.000Z</time>
      </trkpt>
      <trkpt lat="45.96164" lon="4.55976">
        <ele>504.8</ele>
        <time>1970-01-01T03:59:18.000Z</time>
      </trkpt>
      <trkpt lat="45.96166" lon="4.55977">
        <ele>505.2</ele>
        <time>1970-01-01T03:59:19.000Z</time>
      </trkpt>
      <trkpt lat="45.96166" lon="4.55977">
        <ele>505.2</ele>
        <time>1970-01-01T03:59:20.000Z</time>
      </trkpt>
      <trkpt lat="45.96169" lon="4.55978">
        <ele>505.5</ele>
        <time>1970-01-01T03:59:21.000Z</time>
      </trkpt>
      <trkpt lat="45.96169" lon="4.55978">
        <ele>505.5</ele>
        <time>1970-01-01T03:59:22.000Z</time>
      </trkpt>
      <trkpt lat="45.96172" lon="4.5598">
        <ele>506</ele>
        <time>1970-01-01T03:59:23.000Z</time>
      </trkpt>
      <trkpt lat="45.96174" lon="4.5598">
        <ele>506.2</ele>
        <time>1970-01-01T03:59:24.000Z</time>
      </trkpt>
      <trkpt lat="45.96174" lon="4.5598">
        <ele>506.2</ele>
        <time>1970-01-01T03:59:25.000Z</time>
      </trkpt>
      <trkpt lat="45.96177" lon="4.55982">
        <ele>506.7</ele>
        <time>1970-01-01T03:59:26.000Z</time>
      </trkpt>
      <trkpt lat="45.96177" lon="4.55982">
        <ele>506.7</ele>
        <time>1970-01-01T03:59:27.000Z</time>
      </trkpt>
      <trkpt lat="45.9618" lon="4.55985">
        <ele>507.1</ele>
        <time>1970-01-01T03:59:28.000Z</time>
      </trkpt>
      <trkpt lat="45.9618" lon="4.55985">
        <ele>507.1</ele>
        <time>1970-01-01T03:59:29.000Z</time>
      </trkpt>
      <trkpt lat="45.96183" lon="4.55987">
        <ele>507.6</ele>
        <time>1970-01-01T03:59:30.000Z</time>
      </trkpt>
      <trkpt lat="45.96183" lon="4.55987">
        <ele>507.6</ele>
        <time>1970-01-01T03:59:31.000Z</time>
      </trkpt>
      <trkpt lat="45.96185" lon="4.5599">
        <ele>508</ele>
        <time>1970-01-01T03:59:32.000Z</time>
      </trkpt>
      <trkpt lat="45.96185" lon="4.5599">
        <ele>508</ele>
        <time>1970-01-01T03:59:33.000Z</time>
      </trkpt>
      <trkpt lat="45.96188" lon="4.55993">
        <ele>508.5</ele>
        <time>1970-01-01T03:59:34.000Z</time>
      </trkpt>
      <trkpt lat="45.96189" lon="4.55994">
        <ele>508.8</ele>
        <time>1970-01-01T03:59:35.000Z</time>
      </trkpt>
      <trkpt lat="45.96189" lon="4.55994">
        <ele>508.8</ele>
        <time>1970-01-01T03:59:36.000Z</time>
      </trkpt>
      <trkpt lat="45.96192" lon="4.55997">
        <ele>509.2</ele>
        <time>1970-01-01T03:59:37.000Z</time>
      </trkpt>
      <trkpt lat="45.96192" lon="4.55997">
        <ele>509.2</ele>
        <time>1970-01-01T03:59:38.000Z</time>
      </trkpt>
      <trkpt lat="45.96194" lon="4.56001">
        <ele>509.7</ele>
        <time>1970-01-01T03:59:39.000Z</time>
      </trkpt>
      <trkpt lat="45.96196" lon="4.56003">
        <ele>510</ele>
        <time>1970-01-01T03:59:40.000Z</time>
      </trkpt>
      <trkpt lat="45.96196" lon="4.56003">
        <ele>510</ele>
        <time>1970-01-01T03:59:41.000Z</time>
      </trkpt>
      <trkpt lat="45.96198" lon="4.56006">
        <ele>510.4</ele>
        <time>1970-01-01T03:59:42.000Z</time>
      </trkpt>
      <trkpt lat="45.96198" lon="4.56006">
        <ele>510.4</ele>
        <time>1970-01-01T03:59:43.000Z</time>
      </trkpt>
      <trkpt lat="45.962" lon="4.56009">
        <ele>510.8</ele>
        <time>1970-01-01T03:59:44.000Z</time>
      </trkpt>
      <trkpt lat="45.962" lon="4.56009">
        <ele>510.8</ele>
        <time>1970-01-01T03:59:45.000Z</time>
      </trkpt>
      <trkpt lat="45.96202" lon="4.56013">
        <ele>511.2</ele>
        <time>1970-01-01T03:59:46.000Z</time>
      </trkpt>
      <trkpt lat="45.96202" lon="4.56013">
        <ele>511.2</ele>
        <time>1970-01-01T03:59:47.000Z</time>
      </trkpt>
      <trkpt lat="45.96204" lon="4.56016">
        <ele>511.5</ele>
        <time>1970-01-01T03:59:48.000Z</time>
      </trkpt>
      <trkpt lat="45.96204" lon="4.56016">
        <ele>511.5</ele>
        <time>1970-01-01T03:59:49.000Z</time>
      </trkpt>
      <trkpt lat="45.96205" lon="4.5602">
        <ele>511.9</ele>
        <time>1970-01-01T03:59:50.000Z</time>
      </trkpt>
      <trkpt lat="45.96205" lon="4.5602">
        <ele>511.9</ele>
        <time>1970-01-01T03:59:51.000Z</time>
      </trkpt>
      <trkpt lat="45.96207" lon="4.56024">
        <ele>512.3</ele>
        <time>1970-01-01T03:59:52.000Z</time>
      </trkpt>
      <trkpt lat="45.96207" lon="4.56024">
        <ele>512.3</ele>
        <time>1970-01-01T03:59:53.000Z</time>
      </trkpt>
      <trkpt lat="45.96207" lon="4.56028">
        <ele>512.6</ele>
        <time>1970-01-01T03:59:54.000Z</time>
      </trkpt>
      <trkpt lat="45.96207" lon="4.56028">
        <ele>512.6</ele>
        <time>1970-01-01T03:59:55.000Z</time>
      </trkpt>
      <trkpt lat="45.96208" lon="4.56031">
        <ele>512.8</ele>
        <time>1970-01-01T03:59:56.000Z</time>
      </trkpt>
      <trkpt lat="45.96208" lon="4.56031">
        <ele>512.8</ele>
        <time>1970-01-01T03:59:57.000Z</time>
      </trkpt>
      <trkpt lat="45.96209" lon="4.56035">
        <ele>513.1</ele>
        <time>1970-01-01T03:59:58.000Z</time>
      </trkpt>
      <trkpt lat="45.96209" lon="4.56035">
        <ele>513.1</ele>
        <time>1970-01-01T03:59:59.000Z</time>
      </trkpt>
      <trkpt lat="45.9621" lon="4.56039">
        <ele>513.4</ele>
        <time>1970-01-01T04:00:00.000Z</time>
      </trkpt>
      <trkpt lat="45.9621" lon="4.56039">
        <ele>513.4</ele>
        <time>1970-01-01T04:00:01.000Z</time>
      </trkpt>
      <trkpt lat="45.9621" lon="4.56042">
        <ele>513.7</ele>
        <time>1970-01-01T04:00:02.000Z</time>
      </trkpt>
      <trkpt lat="45.9621" lon="4.56042">
        <ele>513.7</ele>
        <time>1970-01-01T04:00:03.000Z</time>
      </trkpt>
      <trkpt lat="45.96211" lon="4.56045">
        <ele>514</ele>
        <time>1970-01-01T04:00:04.000Z</time>
      </trkpt>
      <trkpt lat="45.96211" lon="4.56045">
        <ele>514</ele>
        <time>1970-01-01T04:00:05.000Z</time>
      </trkpt>
      <trkpt lat="45.96212" lon="4.56049">
        <ele>514.3</ele>
        <time>1970-01-01T04:00:06.000Z</time>
      </trkpt>
      <trkpt lat="45.96212" lon="4.56049">
        <ele>514.3</ele>
        <time>1970-01-01T04:00:07.000Z</time>
      </trkpt>
      <trkpt lat="45.96213" lon="4.56053">
        <ele>514.6</ele>
        <time>1970-01-01T04:00:08.000Z</time>
      </trkpt>
      <trkpt lat="45.96213" lon="4.56053">
        <ele>514.6</ele>
        <time>1970-01-01T04:00:09.000Z</time>
      </trkpt>
      <trkpt lat="45.96214" lon="4.56057">
        <ele>515</ele>
        <time>1970-01-01T04:00:10.000Z</time>
      </trkpt>
      <trkpt lat="45.96214" lon="4.56057">
        <ele>515</ele>
        <time>1970-01-01T04:00:11.000Z</time>
      </trkpt>
      <trkpt lat="45.96215" lon="4.5606">
        <ele>515.2</ele>
        <time>1970-01-01T04:00:12.000Z</time>
      </trkpt>
      <trkpt lat="45.96215" lon="4.5606">
        <ele>515.2</ele>
        <time>1970-01-01T04:00:13.000Z</time>
      </trkpt>
      <trkpt lat="45.96216" lon="4.56063">
        <ele>515.4</ele>
        <time>1970-01-01T04:00:14.000Z</time>
      </trkpt>
      <trkpt lat="45.96216" lon="4.56063">
        <ele>515.4</ele>
        <time>1970-01-01T04:00:15.000Z</time>
      </trkpt>
      <trkpt lat="45.96217" lon="4.56066">
        <ele>515.7</ele>
        <time>1970-01-01T04:00:16.000Z</time>
      </trkpt>
      <trkpt lat="45.96217" lon="4.56066">
        <ele>515.7</ele>
        <time>1970-01-01T04:00:17.000Z</time>
      </trkpt>
      <trkpt lat="45.96217" lon="4.5607">
        <ele>516</ele>
        <time>1970-01-01T04:00:18.000Z</time>
      </trkpt>
      <trkpt lat="45.96217" lon="4.5607">
        <ele>516</ele>
        <time>1970-01-01T04:00:19.000Z</time>
      </trkpt>
      <trkpt lat="45.96218" lon="4.56073">
        <ele>516.3</ele>
        <time>1970-01-01T04:00:20.000Z</time>
      </trkpt>
      <trkpt lat="45.96218" lon="4.56073">
        <ele>516.3</ele>
        <time>1970-01-01T04:00:21.000Z</time>
      </trkpt>
      <trkpt lat="45.96219" lon="4.56078">
        <ele>516.7</ele>
        <time>1970-01-01T04:00:22.000Z</time>
      </trkpt>
      <trkpt lat="45.96219" lon="4.56078">
        <ele>516.7</ele>
        <time>1970-01-01T04:00:23.000Z</time>
      </trkpt>
      <trkpt lat="45.9622" lon="4.56081">
        <ele>517</ele>
        <time>1970-01-01T04:00:24.000Z</time>
      </trkpt>
      <trkpt lat="45.9622" lon="4.56081">
        <ele>517</ele>
        <time>1970-01-01T04:00:25.000Z</time>
      </trkpt>
      <trkpt lat="45.96221" lon="4.56085">
        <ele>517.3</ele>
        <time>1970-01-01T04:00:26.000Z</time>
      </trkpt>
      <trkpt lat="45.96221" lon="4.56085">
        <ele>517.3</ele>
        <time>1970-01-01T04:00:27.000Z</time>
      </trkpt>
      <trkpt lat="45.96222" lon="4.56089">
        <ele>517.6</ele>
        <time>1970-01-01T04:00:28.000Z</time>
      </trkpt>
      <trkpt lat="45.96222" lon="4.56089">
        <ele>517.6</ele>
        <time>1970-01-01T04:00:29.000Z</time>
      </trkpt>
      <trkpt lat="45.96223" lon="4.56093">
        <ele>517.9</ele>
        <time>1970-01-01T04:00:30.000Z</time>
      </trkpt>
      <trkpt lat="45.96223" lon="4.56093">
        <ele>517.9</ele>
        <time>1970-01-01T04:00:31.000Z</time>
      </trkpt>
      <trkpt lat="45.96224" lon="4.56096">
        <ele>518.1</ele>
        <time>1970-01-01T04:00:32.000Z</time>
      </trkpt>
      <trkpt lat="45.96224" lon="4.56096">
        <ele>518.1</ele>
        <time>1970-01-01T04:00:33.000Z</time>
      </trkpt>
      <trkpt lat="45.96224" lon="4.56099">
        <ele>518.3</ele>
        <time>1970-01-01T04:00:34.000Z</time>
      </trkpt>
      <trkpt lat="45.96224" lon="4.56099">
        <ele>518.3</ele>
        <time>1970-01-01T04:00:35.000Z</time>
      </trkpt>
      <trkpt lat="45.96225" lon="4.56103">
        <ele>518.6</ele>
        <time>1970-01-01T04:00:36.000Z</time>
      </trkpt>
      <trkpt lat="45.96225" lon="4.56103">
        <ele>518.6</ele>
        <time>1970-01-01T04:00:37.000Z</time>
      </trkpt>
      <trkpt lat="45.96225" lon="4.56106">
        <ele>518.9</ele>
        <time>1970-01-01T04:00:38.000Z</time>
      </trkpt>
      <trkpt lat="45.96225" lon="4.56106">
        <ele>518.9</ele>
        <time>1970-01-01T04:00:39.000Z</time>
      </trkpt>
      <trkpt lat="45.96225" lon="4.5611">
        <ele>519.1</ele>
        <time>1970-01-01T04:00:40.000Z</time>
      </trkpt>
      <trkpt lat="45.96225" lon="4.5611">
        <ele>519.1</ele>
        <time>1970-01-01T04:00:41.000Z</time>
      </trkpt>
      <trkpt lat="45.96226" lon="4.56114">
        <ele>519.3</ele>
        <time>1970-01-01T04:00:42.000Z</time>
      </trkpt>
      <trkpt lat="45.96226" lon="4.56114">
        <ele>519.3</ele>
        <time>1970-01-01T04:00:43.000Z</time>
      </trkpt>
      <trkpt lat="45.96226" lon="4.56118">
        <ele>519.6</ele>
        <time>1970-01-01T04:00:44.000Z</time>
      </trkpt>
      <trkpt lat="45.96226" lon="4.56118">
        <ele>519.6</ele>
        <time>1970-01-01T04:00:45.000Z</time>
      </trkpt>
      <trkpt lat="45.96227" lon="4.56122">
        <ele>519.7</ele>
        <time>1970-01-01T04:00:46.000Z</time>
      </trkpt>
      <trkpt lat="45.96227" lon="4.56122">
        <ele>519.7</ele>
        <time>1970-01-01T04:00:47.000Z</time>
      </trkpt>
      <trkpt lat="45.96227" lon="4.56125">
        <ele>519.9</ele>
        <time>1970-01-01T04:00:48.000Z</time>
      </trkpt>
      <trkpt lat="45.96227" lon="4.56125">
        <ele>519.9</ele>
        <time>1970-01-01T04:00:49.000Z</time>
      </trkpt>
      <trkpt lat="45.96227" lon="4.56129">
        <ele>520</ele>
        <time>1970-01-01T04:00:50.000Z</time>
      </trkpt>
      <trkpt lat="45.96227" lon="4.56129">
        <ele>520</ele>
        <time>1970-01-01T04:00:51.000Z</time>
      </trkpt>
      <trkpt lat="45.96228" lon="4.56132">
        <ele>520.1</ele>
        <time>1970-01-01T04:00:52.000Z</time>
      </trkpt>
      <trkpt lat="45.96228" lon="4.56132">
        <ele>520.1</ele>
        <time>1970-01-01T04:00:53.000Z</time>
      </trkpt>
      <trkpt lat="45.96228" lon="4.56136">
        <ele>520.2</ele>
        <time>1970-01-01T04:00:54.000Z</time>
      </trkpt>
      <trkpt lat="45.96228" lon="4.56136">
        <ele>520.2</ele>
        <time>1970-01-01T04:00:55.000Z</time>
      </trkpt>
      <trkpt lat="45.96228" lon="4.5614">
        <ele>520.3</ele>
        <time>1970-01-01T04:00:56.000Z</time>
      </trkpt>
      <trkpt lat="45.96228" lon="4.5614">
        <ele>520.3</ele>
        <time>1970-01-01T04:00:57.000Z</time>
      </trkpt>
      <trkpt lat="45.96228" lon="4.56143">
        <ele>520.4</ele>
        <time>1970-01-01T04:00:58.000Z</time>
      </trkpt>
      <trkpt lat="45.96228" lon="4.56143">
        <ele>520.4</ele>
        <time>1970-01-01T04:00:59.000Z</time>
      </trkpt>
      <trkpt lat="45.96229" lon="4.56148">
        <ele>520.4</ele>
        <time>1970-01-01T04:01:00.000Z</time>
      </trkpt>
      <trkpt lat="45.96229" lon="4.56148">
        <ele>520.4</ele>
        <time>1970-01-01T04:01:01.000Z</time>
      </trkpt>
      <trkpt lat="45.9623" lon="4.56151">
        <ele>520.5</ele>
        <time>1970-01-01T04:01:02.000Z</time>
      </trkpt>
      <trkpt lat="45.9623" lon="4.56151">
        <ele>520.5</ele>
        <time>1970-01-01T04:01:03.000Z</time>
      </trkpt>
      <trkpt lat="45.96231" lon="4.56155">
        <ele>520.5</ele>
        <time>1970-01-01T04:01:04.000Z</time>
      </trkpt>
      <trkpt lat="45.96231" lon="4.56155">
        <ele>520.5</ele>
        <time>1970-01-01T04:01:05.000Z</time>
      </trkpt>
      <trkpt lat="45.96231" lon="4.56157">
        <ele>520.5</ele>
        <time>1970-01-01T04:01:06.000Z</time>
      </trkpt>
      <trkpt lat="45.96231" lon="4.56157">
        <ele>520.5</ele>
        <time>1970-01-01T04:01:07.000Z</time>
      </trkpt>
      <trkpt lat="45.96232" lon="4.56161">
        <ele>520.5</ele>
        <time>1970-01-01T04:01:08.000Z</time>
      </trkpt>
      <trkpt lat="45.96232" lon="4.56161">
        <ele>520.5</ele>
        <time>1970-01-01T04:01:09.000Z</time>
      </trkpt>
      <trkpt lat="45.96233" lon="4.56165">
        <ele>520.6</ele>
        <time>1970-01-01T04:01:10.000Z</time>
      </trkpt>
      <trkpt lat="45.96233" lon="4.56165">
        <ele>520.6</ele>
        <time>1970-01-01T04:01:11.000Z</time>
      </trkpt>
      <trkpt lat="45.96234" lon="4.56168">
        <ele>520.6</ele>
        <time>1970-01-01T04:01:12.000Z</time>
      </trkpt>
      <trkpt lat="45.96234" lon="4.56168">
        <ele>520.6</ele>
        <time>1970-01-01T04:01:13.000Z</time>
      </trkpt>
      <trkpt lat="45.96234" lon="4.56172">
        <ele>520.6</ele>
        <time>1970-01-01T04:01:14.000Z</time>
      </trkpt>
      <trkpt lat="45.96235" lon="4.56173">
        <ele>520.6</ele>
        <time>1970-01-01T04:01:15.000Z</time>
      </trkpt>
      <trkpt lat="45.96236" lon="4.56174">
        <ele>520.6</ele>
        <time>1970-01-01T04:01:16.000Z</time>
      </trkpt>
      <trkpt lat="45.96237" lon="4.56176">
        <ele>520.7</ele>
        <time>1970-01-01T04:01:17.000Z</time>
      </trkpt>
      <trkpt lat="45.96237" lon="4.56177">
        <ele>520.7</ele>
        <time>1970-01-01T04:01:18.000Z</time>
      </trkpt>
      <trkpt lat="45.96237" lon="4.56177">
        <ele>520.7</ele>
        <time>1970-01-01T04:01:19.000Z</time>
      </trkpt>
      <trkpt lat="45.96238" lon="4.56181">
        <ele>520.7</ele>
        <time>1970-01-01T04:01:20.000Z</time>
      </trkpt>
      <trkpt lat="45.96239" lon="4.56184">
        <ele>520.7</ele>
        <time>1970-01-01T04:01:21.000Z</time>
      </trkpt>
      <trkpt lat="45.96239" lon="4.56184">
        <ele>520.7</ele>
        <time>1970-01-01T04:01:22.000Z</time>
      </trkpt>
      <trkpt lat="45.96241" lon="4.56187">
        <ele>520.7</ele>
        <time>1970-01-01T04:01:23.000Z</time>
      </trkpt>
      <trkpt lat="45.96241" lon="4.56187">
        <ele>520.7</ele>
        <time>1970-01-01T04:01:24.000Z</time>
      </trkpt>
      <trkpt lat="45.96243" lon="4.56191">
        <ele>520.8</ele>
        <time>1970-01-01T04:01:25.000Z</time>
      </trkpt>
      <trkpt lat="45.96243" lon="4.56191">
        <ele>520.8</ele>
        <time>1970-01-01T04:01:26.000Z</time>
      </trkpt>
      <trkpt lat="45.96244" lon="4.56195">
        <ele>520.8</ele>
        <time>1970-01-01T04:01:27.000Z</time>
      </trkpt>
      <trkpt lat="45.96244" lon="4.56195">
        <ele>520.8</ele>
        <time>1970-01-01T04:01:28.000Z</time>
      </trkpt>
      <trkpt lat="45.96246" lon="4.56199">
        <ele>520.8</ele>
        <time>1970-01-01T04:01:29.000Z</time>
      </trkpt>
      <trkpt lat="45.96246" lon="4.56199">
        <ele>520.8</ele>
        <time>1970-01-01T04:01:30.000Z</time>
      </trkpt>
      <trkpt lat="45.96247" lon="4.56203">
        <ele>520.9</ele>
        <time>1970-01-01T04:01:31.000Z</time>
      </trkpt>
      <trkpt lat="45.96247" lon="4.56203">
        <ele>520.9</ele>
        <time>1970-01-01T04:01:32.000Z</time>
      </trkpt>
      <trkpt lat="45.96248" lon="4.56206">
        <ele>520.9</ele>
        <time>1970-01-01T04:01:33.000Z</time>
      </trkpt>
      <trkpt lat="45.96248" lon="4.56206">
        <ele>520.9</ele>
        <time>1970-01-01T04:01:34.000Z</time>
      </trkpt>
      <trkpt lat="45.96249" lon="4.5621">
        <ele>520.9</ele>
        <time>1970-01-01T04:01:35.000Z</time>
      </trkpt>
      <trkpt lat="45.96249" lon="4.5621">
        <ele>520.9</ele>
        <time>1970-01-01T04:01:36.000Z</time>
      </trkpt>
      <trkpt lat="45.96251" lon="4.56213">
        <ele>521</ele>
        <time>1970-01-01T04:01:37.000Z</time>
      </trkpt>
      <trkpt lat="45.96252" lon="4.56215">
        <ele>521</ele>
        <time>1970-01-01T04:01:38.000Z</time>
      </trkpt>
      <trkpt lat="45.96252" lon="4.56215">
        <ele>521</ele>
        <time>1970-01-01T04:01:39.000Z</time>
      </trkpt>
      <trkpt lat="45.96253" lon="4.56217">
        <ele>521</ele>
        <time>1970-01-01T04:01:40.000Z</time>
      </trkpt>
      <trkpt lat="45.96253" lon="4.56217">
        <ele>521</ele>
        <time>1970-01-01T04:01:41.000Z</time>
      </trkpt>
      <trkpt lat="45.96254" lon="4.56221">
        <ele>521.1</ele>
        <time>1970-01-01T04:01:42.000Z</time>
      </trkpt>
      <trkpt lat="45.96254" lon="4.56221">
        <ele>521.1</ele>
        <time>1970-01-01T04:01:43.000Z</time>
      </trkpt>
      <trkpt lat="45.96256" lon="4.56225">
        <ele>521.2</ele>
        <time>1970-01-01T04:01:44.000Z</time>
      </trkpt>
      <trkpt lat="45.96256" lon="4.56225">
        <ele>521.2</ele>
        <time>1970-01-01T04:01:45.000Z</time>
      </trkpt>
      <trkpt lat="45.96257" lon="4.56229">
        <ele>521.2</ele>
        <time>1970-01-01T04:01:46.000Z</time>
      </trkpt>
      <trkpt lat="45.96257" lon="4.56229">
        <ele>521.2</ele>
        <time>1970-01-01T04:01:47.000Z</time>
      </trkpt>
      <trkpt lat="45.96258" lon="4.56233">
        <ele>521.3</ele>
        <time>1970-01-01T04:01:48.000Z</time>
      </trkpt>
      <trkpt lat="45.96258" lon="4.56233">
        <ele>521.3</ele>
        <time>1970-01-01T04:01:49.000Z</time>
      </trkpt>
      <trkpt lat="45.96259" lon="4.56238">
        <ele>521.3</ele>
        <time>1970-01-01T04:01:50.000Z</time>
      </trkpt>
      <trkpt lat="45.96259" lon="4.56242">
        <ele>521.3</ele>
        <time>1970-01-01T04:01:52.000Z</time>
      </trkpt>
      <trkpt lat="45.96259" lon="4.56242">
        <ele>521.3</ele>
        <time>1970-01-01T04:01:53.000Z</time>
      </trkpt>
      <trkpt lat="45.96259" lon="4.56246">
        <ele>521.3</ele>
        <time>1970-01-01T04:01:54.000Z</time>
      </trkpt>
      <trkpt lat="45.96258" lon="4.56249">
        <ele>521.4</ele>
        <time>1970-01-01T04:01:55.000Z</time>
      </trkpt>
      <trkpt lat="45.96257" lon="4.56252">
        <ele>521.4</ele>
        <time>1970-01-01T04:01:56.000Z</time>
      </trkpt>
      <trkpt lat="45.96257" lon="4.56252">
        <ele>521.4</ele>
        <time>1970-01-01T04:01:57.000Z</time>
      </trkpt>
      <trkpt lat="45.96257" lon="4.56256">
        <ele>521.3</ele>
        <time>1970-01-01T04:01:58.000Z</time>
      </trkpt>
      <trkpt lat="45.96257" lon="4.56256">
        <ele>521.3</ele>
        <time>1970-01-01T04:01:59.000Z</time>
      </trkpt>
      <trkpt lat="45.96257" lon="4.5626">
        <ele>521.3</ele>
        <time>1970-01-01T04:02:00.000Z</time>
      </trkpt>
      <trkpt lat="45.96257" lon="4.5626">
        <ele>521.3</ele>
        <time>1970-01-01T04:02:01.000Z</time>
      </trkpt>
      <trkpt lat="45.96256" lon="4.56264">
        <ele>521.3</ele>
        <time>1970-01-01T04:02:02.000Z</time>
      </trkpt>
      <trkpt lat="45.96256" lon="4.56264">
        <ele>521.3</ele>
        <time>1970-01-01T04:02:03.000Z</time>
      </trkpt>
      <trkpt lat="45.96255" lon="4.56268">
        <ele>521.3</ele>
        <time>1970-01-01T04:02:04.000Z</time>
      </trkpt>
      <trkpt lat="45.96255" lon="4.56268">
        <ele>521.3</ele>
        <time>1970-01-01T04:02:05.000Z</time>
      </trkpt>
      <trkpt lat="45.96254" lon="4.56273">
        <ele>521.2</ele>
        <time>1970-01-01T04:02:06.000Z</time>
      </trkpt>
      <trkpt lat="45.96253" lon="4.56275">
        <ele>521.2</ele>
        <time>1970-01-01T04:02:07.000Z</time>
      </trkpt>
      <trkpt lat="45.96252" lon="4.56278">
        <ele>521.2</ele>
        <time>1970-01-01T04:02:08.000Z</time>
      </trkpt>
      <trkpt lat="45.96252" lon="4.56278">
        <ele>521.2</ele>
        <time>1970-01-01T04:02:09.000Z</time>
      </trkpt>
      <trkpt lat="45.96251" lon="4.56282">
        <ele>521.2</ele>
        <time>1970-01-01T04:02:10.000Z</time>
      </trkpt>
      <trkpt lat="45.96251" lon="4.56282">
        <ele>521.2</ele>
        <time>1970-01-01T04:02:11.000Z</time>
      </trkpt>
      <trkpt lat="45.9625" lon="4.56287">
        <ele>521.2</ele>
        <time>1970-01-01T04:02:12.000Z</time>
      </trkpt>
      <trkpt lat="45.9625" lon="4.56287">
        <ele>521.2</ele>
        <time>1970-01-01T04:02:13.000Z</time>
      </trkpt>
      <trkpt lat="45.96249" lon="4.56291">
        <ele>521.1</ele>
        <time>1970-01-01T04:02:14.000Z</time>
      </trkpt>
      <trkpt lat="45.96249" lon="4.56291">
        <ele>521.1</ele>
        <time>1970-01-01T04:02:15.000Z</time>
      </trkpt>
      <trkpt lat="45.96248" lon="4.56294">
        <ele>521.1</ele>
        <time>1970-01-01T04:02:16.000Z</time>
      </trkpt>
      <trkpt lat="45.96248" lon="4.56294">
        <ele>521.1</ele>
        <time>1970-01-01T04:02:17.000Z</time>
      </trkpt>
      <trkpt lat="45.96247" lon="4.56299">
        <ele>521</ele>
        <time>1970-01-01T04:02:18.000Z</time>
      </trkpt>
      <trkpt lat="45.96247" lon="4.56299">
        <ele>521</ele>
        <time>1970-01-01T04:02:19.000Z</time>
      </trkpt>
      <trkpt lat="45.96245" lon="4.56303">
        <ele>521</ele>
        <time>1970-01-01T04:02:20.000Z</time>
      </trkpt>
      <trkpt lat="45.96245" lon="4.56303">
        <ele>521</ele>
        <time>1970-01-01T04:02:21.000Z</time>
      </trkpt>
      <trkpt lat="45.96245" lon="4.56307">
        <ele>520.9</ele>
        <time>1970-01-01T04:02:22.000Z</time>
      </trkpt>
      <trkpt lat="45.96245" lon="4.56307">
        <ele>520.9</ele>
        <time>1970-01-01T04:02:23.000Z</time>
      </trkpt>
      <trkpt lat="45.96244" lon="4.56312">
        <ele>520.9</ele>
        <time>1970-01-01T04:02:24.000Z</time>
      </trkpt>
      <trkpt lat="45.96244" lon="4.56314">
        <ele>520.8</ele>
        <time>1970-01-01T04:02:25.000Z</time>
      </trkpt>
      <trkpt lat="45.96244" lon="4.56316">
        <ele>520.8</ele>
        <time>1970-01-01T04:02:26.000Z</time>
      </trkpt>
      <trkpt lat="45.96244" lon="4.56319">
        <ele>520.8</ele>
        <time>1970-01-01T04:02:27.000Z</time>
      </trkpt>
      <trkpt lat="45.96244" lon="4.56319">
        <ele>520.8</ele>
        <time>1970-01-01T04:02:28.000Z</time>
      </trkpt>
      <trkpt lat="45.96244" lon="4.56323">
        <ele>520.7</ele>
        <time>1970-01-01T04:02:29.000Z</time>
      </trkpt>
      <trkpt lat="45.96244" lon="4.56323">
        <ele>520.7</ele>
        <time>1970-01-01T04:02:30.000Z</time>
      </trkpt>
      <trkpt lat="45.96243" lon="4.56326">
        <ele>520.6</ele>
        <time>1970-01-01T04:02:31.000Z</time>
      </trkpt>
      <trkpt lat="45.96243" lon="4.56328">
        <ele>520.6</ele>
        <time>1970-01-01T04:02:32.000Z</time>
      </trkpt>
      <trkpt lat="45.96243" lon="4.5633">
        <ele>520.5</ele>
        <time>1970-01-01T04:02:33.000Z</time>
      </trkpt>
      <trkpt lat="45.96243" lon="4.56332">
        <ele>520.5</ele>
        <time>1970-01-01T04:02:34.000Z</time>
      </trkpt>
      <trkpt lat="45.96243" lon="4.56332">
        <ele>520.5</ele>
        <time>1970-01-01T04:02:35.000Z</time>
      </trkpt>
      <trkpt lat="45.96243" lon="4.56337">
        <ele>520.4</ele>
        <time>1970-01-01T04:02:36.000Z</time>
      </trkpt>
      <trkpt lat="45.96243" lon="4.56337">
        <ele>520.4</ele>
        <time>1970-01-01T04:02:37.000Z</time>
      </trkpt>
      <trkpt lat="45.96242" lon="4.56341">
        <ele>520.2</ele>
        <time>1970-01-01T04:02:38.000Z</time>
      </trkpt>
      <trkpt lat="45.96242" lon="4.56341">
        <ele>520.2</ele>
        <time>1970-01-01T04:02:39.000Z</time>
      </trkpt>
      <trkpt lat="45.96241" lon="4.56346">
        <ele>520.1</ele>
        <time>1970-01-01T04:02:40.000Z</time>
      </trkpt>
      <trkpt lat="45.96241" lon="4.56346">
        <ele>520.1</ele>
        <time>1970-01-01T04:02:41.000Z</time>
      </trkpt>
      <trkpt lat="45.96241" lon="4.56351">
        <ele>520</ele>
        <time>1970-01-01T04:02:42.000Z</time>
      </trkpt>
      <trkpt lat="45.96241" lon="4.56351">
        <ele>520</ele>
        <time>1970-01-01T04:02:43.000Z</time>
      </trkpt>
      <trkpt lat="45.96241" lon="4.56355">
        <ele>519.9</ele>
        <time>1970-01-01T04:02:44.000Z</time>
      </trkpt>
      <trkpt lat="45.96241" lon="4.56355">
        <ele>519.9</ele>
        <time>1970-01-01T04:02:45.000Z</time>
      </trkpt>
      <trkpt lat="45.96241" lon="4.56358">
        <ele>519.9</ele>
        <time>1970-01-01T04:02:46.000Z</time>
      </trkpt>
      <trkpt lat="45.96241" lon="4.56358">
        <ele>519.9</ele>
        <time>1970-01-01T04:02:47.000Z</time>
      </trkpt>
      <trkpt lat="45.96242" lon="4.56362">
        <ele>519.8</ele>
        <time>1970-01-01T04:02:48.000Z</time>
      </trkpt>
      <trkpt lat="45.96242" lon="4.56364">
        <ele>519.7</ele>
        <time>1970-01-01T04:02:49.000Z</time>
      </trkpt>
      <trkpt lat="45.96242" lon="4.56366">
        <ele>519.7</ele>
        <time>1970-01-01T04:02:50.000Z</time>
      </trkpt>
      <trkpt lat="45.96242" lon="4.56369">
        <ele>519.6</ele>
        <time>1970-01-01T04:02:51.000Z</time>
      </trkpt>
      <trkpt lat="45.96242" lon="4.56371">
        <ele>519.5</ele>
        <time>1970-01-01T04:02:52.000Z</time>
      </trkpt>
      <trkpt lat="45.96242" lon="4.56373">
        <ele>519.5</ele>
        <time>1970-01-01T04:02:53.000Z</time>
      </trkpt>
      <trkpt lat="45.96242" lon="4.56375">
        <ele>519.4</ele>
        <time>1970-01-01T04:02:54.000Z</time>
      </trkpt>
      <trkpt lat="45.96242" lon="4.56375">
        <ele>519.4</ele>
        <time>1970-01-01T04:02:55.000Z</time>
      </trkpt>
      <trkpt lat="45.96242" lon="4.56379">
        <ele>519.4</ele>
        <time>1970-01-01T04:02:56.000Z</time>
      </trkpt>
      <trkpt lat="45.96242" lon="4.56381">
        <ele>519.3</ele>
        <time>1970-01-01T04:02:57.000Z</time>
      </trkpt>
      <trkpt lat="45.96242" lon="4.56383">
        <ele>519.2</ele>
        <time>1970-01-01T04:02:58.000Z</time>
      </trkpt>
      <trkpt lat="45.96242" lon="4.56385">
        <ele>519.2</ele>
        <time>1970-01-01T04:02:59.000Z</time>
      </trkpt>
      <trkpt lat="45.96242" lon="4.56385">
        <ele>519.2</ele>
        <time>1970-01-01T04:03:00.000Z</time>
      </trkpt>
      <trkpt lat="45.96242" lon="4.56389">
        <ele>519.1</ele>
        <time>1970-01-01T04:03:01.000Z</time>
      </trkpt>
      <trkpt lat="45.96242" lon="4.56389">
        <ele>519.1</ele>
        <time>1970-01-01T04:03:02.000Z</time>
      </trkpt>
      <trkpt lat="45.96242" lon="4.56393">
        <ele>519</ele>
        <time>1970-01-01T04:03:03.000Z</time>
      </trkpt>
      <trkpt lat="45.96242" lon="4.56393">
        <ele>519</ele>
        <time>1970-01-01T04:03:04.000Z</time>
      </trkpt>
      <trkpt lat="45.96241" lon="4.56397">
        <ele>518.9</ele>
        <time>1970-01-01T04:03:05.000Z</time>
      </trkpt>
      <trkpt lat="45.96241" lon="4.56397">
        <ele>518.9</ele>
        <time>1970-01-01T04:03:06.000Z</time>
      </trkpt>
      <trkpt lat="45.96241" lon="4.56402">
        <ele>518.8</ele>
        <time>1970-01-01T04:03:07.000Z</time>
      </trkpt>
      <trkpt lat="45.96241" lon="4.56402">
        <ele>518.8</ele>
        <time>1970-01-01T04:03:08.000Z</time>
      </trkpt>
      <trkpt lat="45.96241" lon="4.56406">
        <ele>518.7</ele>
        <time>1970-01-01T04:03:09.000Z</time>
      </trkpt>
      <trkpt lat="45.96241" lon="4.56406">
        <ele>518.7</ele>
        <time>1970-01-01T04:03:10.000Z</time>
      </trkpt>
      <trkpt lat="45.9624" lon="4.5641">
        <ele>518.6</ele>
        <time>1970-01-01T04:03:11.000Z</time>
      </trkpt>
      <trkpt lat="45.9624" lon="4.5641">
        <ele>518.6</ele>
        <time>1970-01-01T04:03:12.000Z</time>
      </trkpt>
      <trkpt lat="45.96239" lon="4.56414">
        <ele>518.5</ele>
        <time>1970-01-01T04:03:13.000Z</time>
      </trkpt>
      <trkpt lat="45.96239" lon="4.56414">
        <ele>518.5</ele>
        <time>1970-01-01T04:03:14.000Z</time>
      </trkpt>
      <trkpt lat="45.96238" lon="4.56418">
        <ele>518.4</ele>
        <time>1970-01-01T04:03:15.000Z</time>
      </trkpt>
      <trkpt lat="45.96238" lon="4.56418">
        <ele>518.4</ele>
        <time>1970-01-01T04:03:16.000Z</time>
      </trkpt>
      <trkpt lat="45.96236" lon="4.56422">
        <ele>518.3</ele>
        <time>1970-01-01T04:03:17.000Z</time>
      </trkpt>
      <trkpt lat="45.96236" lon="4.56422">
        <ele>518.3</ele>
        <time>1970-01-01T04:03:18.000Z</time>
      </trkpt>
      <trkpt lat="45.96234" lon="4.56426">
        <ele>518.2</ele>
        <time>1970-01-01T04:03:19.000Z</time>
      </trkpt>
      <trkpt lat="45.96234" lon="4.56426">
        <ele>518.2</ele>
        <time>1970-01-01T04:03:20.000Z</time>
      </trkpt>
      <trkpt lat="45.96232" lon="4.5643">
        <ele>518.1</ele>
        <time>1970-01-01T04:03:21.000Z</time>
      </trkpt>
      <trkpt lat="45.96232" lon="4.5643">
        <ele>518.1</ele>
        <time>1970-01-01T04:03:22.000Z</time>
      </trkpt>
      <trkpt lat="45.9623" lon="4.56434">
        <ele>518</ele>
        <time>1970-01-01T04:03:23.000Z</time>
      </trkpt>
      <trkpt lat="45.9623" lon="4.56434">
        <ele>518</ele>
        <time>1970-01-01T04:03:24.000Z</time>
      </trkpt>
      <trkpt lat="45.96228" lon="4.56438">
        <ele>517.9</ele>
        <time>1970-01-01T04:03:25.000Z</time>
      </trkpt>
      <trkpt lat="45.96228" lon="4.56438">
        <ele>517.9</ele>
        <time>1970-01-01T04:03:26.000Z</time>
      </trkpt>
      <trkpt lat="45.96227" lon="4.56442">
        <ele>517.8</ele>
        <time>1970-01-01T04:03:27.000Z</time>
      </trkpt>
      <trkpt lat="45.96226" lon="4.56444">
        <ele>517.8</ele>
        <time>1970-01-01T04:03:28.000Z</time>
      </trkpt>
      <trkpt lat="45.96226" lon="4.56444">
        <ele>517.8</ele>
        <time>1970-01-01T04:03:29.000Z</time>
      </trkpt>
      <trkpt lat="45.96226" lon="4.56449">
        <ele>517.7</ele>
        <time>1970-01-01T04:03:30.000Z</time>
      </trkpt>
      <trkpt lat="45.96224" lon="4.56451">
        <ele>517.7</ele>
        <time>1970-01-01T04:03:31.000Z</time>
      </trkpt>
      <trkpt lat="45.96223" lon="4.56453">
        <ele>517.6</ele>
        <time>1970-01-01T04:03:32.000Z</time>
      </trkpt>
      <trkpt lat="45.96223" lon="4.56453">
        <ele>517.6</ele>
        <time>1970-01-01T04:03:33.000Z</time>
      </trkpt>
      <trkpt lat="45.96221" lon="4.56457">
        <ele>517.6</ele>
        <time>1970-01-01T04:03:34.000Z</time>
      </trkpt>
      <trkpt lat="45.9622" lon="4.56459">
        <ele>517.5</ele>
        <time>1970-01-01T04:03:35.000Z</time>
      </trkpt>
      <trkpt lat="45.9622" lon="4.56459">
        <ele>517.5</ele>
        <time>1970-01-01T04:03:36.000Z</time>
      </trkpt>
      <trkpt lat="45.96218" lon="4.56463">
        <ele>517.5</ele>
        <time>1970-01-01T04:03:37.000Z</time>
      </trkpt>
      <trkpt lat="45.96218" lon="4.56463">
        <ele>517.5</ele>
        <time>1970-01-01T04:03:38.000Z</time>
      </trkpt>
      <trkpt lat="45.96217" lon="4.56466">
        <ele>517.4</ele>
        <time>1970-01-01T04:03:39.000Z</time>
      </trkpt>
      <trkpt lat="45.96217" lon="4.56466">
        <ele>517.4</ele>
        <time>1970-01-01T04:03:40.000Z</time>
      </trkpt>
      <trkpt lat="45.96215" lon="4.5647">
        <ele>517.3</ele>
        <time>1970-01-01T04:03:41.000Z</time>
      </trkpt>
      <trkpt lat="45.96215" lon="4.5647">
        <ele>517.3</ele>
        <time>1970-01-01T04:03:42.000Z</time>
      </trkpt>
      <trkpt lat="45.96213" lon="4.56473">
        <ele>517.3</ele>
        <time>1970-01-01T04:03:43.000Z</time>
      </trkpt>
      <trkpt lat="45.96213" lon="4.56473">
        <ele>517.3</ele>
        <time>1970-01-01T04:03:44.000Z</time>
      </trkpt>
      <trkpt lat="45.96211" lon="4.56476">
        <ele>517.2</ele>
        <time>1970-01-01T04:03:45.000Z</time>
      </trkpt>
      <trkpt lat="45.96211" lon="4.56476">
        <ele>517.2</ele>
        <time>1970-01-01T04:03:46.000Z</time>
      </trkpt>
      <trkpt lat="45.96209" lon="4.56479">
        <ele>517.1</ele>
        <time>1970-01-01T04:03:47.000Z</time>
      </trkpt>
      <trkpt lat="45.96209" lon="4.56479">
        <ele>517.1</ele>
        <time>1970-01-01T04:03:48.000Z</time>
      </trkpt>
      <trkpt lat="45.96207" lon="4.56483">
        <ele>517</ele>
        <time>1970-01-01T04:03:49.000Z</time>
      </trkpt>
      <trkpt lat="45.96207" lon="4.56483">
        <ele>517</ele>
        <time>1970-01-01T04:03:50.000Z</time>
      </trkpt>
      <trkpt lat="45.96206" lon="4.56486">
        <ele>516.9</ele>
        <time>1970-01-01T04:03:51.000Z</time>
      </trkpt>
      <trkpt lat="45.96206" lon="4.56486">
        <ele>516.9</ele>
        <time>1970-01-01T04:03:52.000Z</time>
      </trkpt>
      <trkpt lat="45.96205" lon="4.56489">
        <ele>516.8</ele>
        <time>1970-01-01T04:03:53.000Z</time>
      </trkpt>
      <trkpt lat="45.96205" lon="4.56489">
        <ele>516.8</ele>
        <time>1970-01-01T04:03:54.000Z</time>
      </trkpt>
      <trkpt lat="45.96205" lon="4.56489">
        <ele>516.8</ele>
        <time>1970-01-01T04:03:55.000Z</time>
      </trkpt>
      <trkpt lat="45.96205" lon="4.56489">
        <ele>516.8</ele>
        <time>1970-01-01T04:03:56.000Z</time>
      </trkpt>
      <trkpt lat="45.96205" lon="4.56489">
        <ele>516.8</ele>
        <time>1970-01-01T04:03:57.000Z</time>
      </trkpt>
      <trkpt lat="45.96202" lon="4.56492">
        <ele>516.6</ele>
        <time>1970-01-01T04:03:58.000Z</time>
      </trkpt>
      <trkpt lat="45.96202" lon="4.56492">
        <ele>516.6</ele>
        <time>1970-01-01T04:03:59.000Z</time>
      </trkpt>
      <trkpt lat="45.962" lon="4.56494">
        <ele>516.5</ele>
        <time>1970-01-01T04:04:00.000Z</time>
      </trkpt>
      <trkpt lat="45.96198" lon="4.56495">
        <ele>516.3</ele>
        <time>1970-01-01T04:04:01.000Z</time>
      </trkpt>
      <trkpt lat="45.96197" lon="4.56496">
        <ele>516</ele>
        <time>1970-01-01T04:04:02.000Z</time>
      </trkpt>
      <trkpt lat="45.96195" lon="4.56498">
        <ele>515.7</ele>
        <time>1970-01-01T04:04:03.000Z</time>
      </trkpt>
      <trkpt lat="45.96193" lon="4.565">
        <ele>515.4</ele>
        <time>1970-01-01T04:04:04.000Z</time>
      </trkpt>
      <trkpt lat="45.9619" lon="4.56501">
        <ele>515.1</ele>
        <time>1970-01-01T04:04:05.000Z</time>
      </trkpt>
      <trkpt lat="45.96188" lon="4.56503">
        <ele>514.7</ele>
        <time>1970-01-01T04:04:06.000Z</time>
      </trkpt>
      <trkpt lat="45.96186" lon="4.56504">
        <ele>514.4</ele>
        <time>1970-01-01T04:04:07.000Z</time>
      </trkpt>
      <trkpt lat="45.96184" lon="4.56505">
        <ele>514.2</ele>
        <time>1970-01-01T04:04:08.000Z</time>
      </trkpt>
      <trkpt lat="45.96182" lon="4.56506">
        <ele>513.9</ele>
        <time>1970-01-01T04:04:09.000Z</time>
      </trkpt>
      <trkpt lat="45.9618" lon="4.56506">
        <ele>513.7</ele>
        <time>1970-01-01T04:04:10.000Z</time>
      </trkpt>
      <trkpt lat="45.96178" lon="4.56506">
        <ele>513.5</ele>
        <time>1970-01-01T04:04:11.000Z</time>
      </trkpt>
      <trkpt lat="45.96176" lon="4.56507">
        <ele>513.3</ele>
        <time>1970-01-01T04:04:12.000Z</time>
      </trkpt>
      <trkpt lat="45.96175" lon="4.56507">
        <ele>513.1</ele>
        <time>1970-01-01T04:04:13.000Z</time>
      </trkpt>
      <trkpt lat="45.96172" lon="4.56508">
        <ele>512.8</ele>
        <time>1970-01-01T04:04:14.000Z</time>
      </trkpt>
      <trkpt lat="45.9617" lon="4.56508">
        <ele>512.6</ele>
        <time>1970-01-01T04:04:15.000Z</time>
      </trkpt>
      <trkpt lat="45.9617" lon="4.56508">
        <ele>512.6</ele>
        <time>1970-01-01T04:04:16.000Z</time>
      </trkpt>
      <trkpt lat="45.96167" lon="4.56508">
        <ele>512.2</ele>
        <time>1970-01-01T04:04:17.000Z</time>
      </trkpt>
      <trkpt lat="45.96166" lon="4.56508">
        <ele>512.1</ele>
        <time>1970-01-01T04:04:18.000Z</time>
      </trkpt>
      <trkpt lat="45.96164" lon="4.56508">
        <ele>511.9</ele>
        <time>1970-01-01T04:04:19.000Z</time>
      </trkpt>
      <trkpt lat="45.96163" lon="4.56508">
        <ele>511.8</ele>
        <time>1970-01-01T04:04:20.000Z</time>
      </trkpt>
      <trkpt lat="45.96161" lon="4.56508">
        <ele>511.6</ele>
        <time>1970-01-01T04:04:21.000Z</time>
      </trkpt>
      <trkpt lat="45.9616" lon="4.56508">
        <ele>511.5</ele>
        <time>1970-01-01T04:04:22.000Z</time>
      </trkpt>
      <trkpt lat="45.96159" lon="4.56508">
        <ele>511.4</ele>
        <time>1970-01-01T04:04:23.000Z</time>
      </trkpt>
      <trkpt lat="45.96157" lon="4.56508">
        <ele>511.2</ele>
        <time>1970-01-01T04:04:24.000Z</time>
      </trkpt>
      <trkpt lat="45.96156" lon="4.56508">
        <ele>511.1</ele>
        <time>1970-01-01T04:04:25.000Z</time>
      </trkpt>
      <trkpt lat="45.96154" lon="4.56509">
        <ele>510.9</ele>
        <time>1970-01-01T04:04:26.000Z</time>
      </trkpt>
      <trkpt lat="45.96153" lon="4.5651">
        <ele>510.7</ele>
        <time>1970-01-01T04:04:27.000Z</time>
      </trkpt>
      <trkpt lat="45.96151" lon="4.5651">
        <ele>510.6</ele>
        <time>1970-01-01T04:04:28.000Z</time>
      </trkpt>
      <trkpt lat="45.9615" lon="4.56511">
        <ele>510.5</ele>
        <time>1970-01-01T04:04:29.000Z</time>
      </trkpt>
      <trkpt lat="45.96148" lon="4.56512">
        <ele>510.3</ele>
        <time>1970-01-01T04:04:30.000Z</time>
      </trkpt>
      <trkpt lat="45.96147" lon="4.56513">
        <ele>510.1</ele>
        <time>1970-01-01T04:04:31.000Z</time>
      </trkpt>
      <trkpt lat="45.96145" lon="4.56515">
        <ele>509.9</ele>
        <time>1970-01-01T04:04:32.000Z</time>
      </trkpt>
      <trkpt lat="45.96143" lon="4.56516">
        <ele>509.8</ele>
        <time>1970-01-01T04:04:33.000Z</time>
      </trkpt>
      <trkpt lat="45.96143" lon="4.56516">
        <ele>509.8</ele>
        <time>1970-01-01T04:04:34.000Z</time>
      </trkpt>
      <trkpt lat="45.96141" lon="4.56518">
        <ele>509.5</ele>
        <time>1970-01-01T04:04:35.000Z</time>
      </trkpt>
      <trkpt lat="45.96141" lon="4.56518">
        <ele>509.5</ele>
        <time>1970-01-01T04:04:36.000Z</time>
      </trkpt>
      <trkpt lat="45.96138" lon="4.56519">
        <ele>509.3</ele>
        <time>1970-01-01T04:04:37.000Z</time>
      </trkpt>
      <trkpt lat="45.96138" lon="4.56519">
        <ele>509.3</ele>
        <time>1970-01-01T04:04:38.000Z</time>
      </trkpt>
      <trkpt lat="45.96136" lon="4.5652">
        <ele>509.1</ele>
        <time>1970-01-01T04:04:39.000Z</time>
      </trkpt>
      <trkpt lat="45.96134" lon="4.56521">
        <ele>508.9</ele>
        <time>1970-01-01T04:04:40.000Z</time>
      </trkpt>
      <trkpt lat="45.96134" lon="4.56521">
        <ele>508.9</ele>
        <time>1970-01-01T04:04:41.000Z</time>
      </trkpt>
      <trkpt lat="45.96131" lon="4.56522">
        <ele>508.6</ele>
        <time>1970-01-01T04:04:42.000Z</time>
      </trkpt>
      <trkpt lat="45.96131" lon="4.56522">
        <ele>508.6</ele>
        <time>1970-01-01T04:04:43.000Z</time>
      </trkpt>
      <trkpt lat="45.96128" lon="4.56522">
        <ele>508.4</ele>
        <time>1970-01-01T04:04:44.000Z</time>
      </trkpt>
      <trkpt lat="45.96125" lon="4.56523">
        <ele>508.2</ele>
        <time>1970-01-01T04:04:45.000Z</time>
      </trkpt>
      <trkpt lat="45.96125" lon="4.56523">
        <ele>508.2</ele>
        <time>1970-01-01T04:04:46.000Z</time>
      </trkpt>
      <trkpt lat="45.96122" lon="4.56523">
        <ele>508.1</ele>
        <time>1970-01-01T04:04:47.000Z</time>
      </trkpt>
      <trkpt lat="45.96121" lon="4.56524">
        <ele>508</ele>
        <time>1970-01-01T04:04:48.000Z</time>
      </trkpt>
      <trkpt lat="45.9612" lon="4.56525">
        <ele>507.9</ele>
        <time>1970-01-01T04:04:49.000Z</time>
      </trkpt>
      <trkpt lat="45.96119" lon="4.56526">
        <ele>507.9</ele>
        <time>1970-01-01T04:04:50.000Z</time>
      </trkpt>
      <trkpt lat="45.96118" lon="4.56527">
        <ele>507.8</ele>
        <time>1970-01-01T04:04:51.000Z</time>
      </trkpt>
      <trkpt lat="45.96116" lon="4.56528">
        <ele>507.8</ele>
        <time>1970-01-01T04:04:52.000Z</time>
      </trkpt>
      <trkpt lat="45.96115" lon="4.56529">
        <ele>507.7</ele>
        <time>1970-01-01T04:04:53.000Z</time>
      </trkpt>
      <trkpt lat="45.96114" lon="4.5653">
        <ele>507.7</ele>
        <time>1970-01-01T04:04:54.000Z</time>
      </trkpt>
      <trkpt lat="45.96113" lon="4.56531">
        <ele>507.6</ele>
        <time>1970-01-01T04:04:55.000Z</time>
      </trkpt>
      <trkpt lat="45.96111" lon="4.56533">
        <ele>507.5</ele>
        <time>1970-01-01T04:04:56.000Z</time>
      </trkpt>
      <trkpt lat="45.9611" lon="4.56534">
        <ele>507.5</ele>
        <time>1970-01-01T04:04:57.000Z</time>
      </trkpt>
      <trkpt lat="45.96109" lon="4.56535">
        <ele>507.4</ele>
        <time>1970-01-01T04:04:58.000Z</time>
      </trkpt>
      <trkpt lat="45.96107" lon="4.56536">
        <ele>507.3</ele>
        <time>1970-01-01T04:04:59.000Z</time>
      </trkpt>
      <trkpt lat="45.96106" lon="4.56538">
        <ele>507.3</ele>
        <time>1970-01-01T04:05:00.000Z</time>
      </trkpt>
      <trkpt lat="45.96105" lon="4.56539">
        <ele>507.2</ele>
        <time>1970-01-01T04:05:01.000Z</time>
      </trkpt>
    </trkseg>
  </trk>
</gpx>